<?xml version="1.0" encoding="UTF-8" standalone="no" ?>
<gpx xmlns="http://www.topografix.com/GPX/1/1" xmlns:xsi="http://www.w3.org/2001/XMLSchema-instance" xsi:schemaLocation="http://www.topografix.com/GPX/1/1 http://www.topografix.com/GPX/1/1/gpx.xsd" version="1.1" creator="VisuGPX - https://www.visugpx.com">
  <metadata>
    <name>Balade hivernale</name>
    <desc><![CDATA[Balade effectuée du 9 décembre 2022 au 7 janvier 2023.]]></desc>
  </metadata>
  <trk>
    <name><![CDATA[Caureyges - Valence d'Agen]]></name>
    <extensions>
      <line xmlns="http://www.topografix.com/GPX/gpx_style/0/2">
        <color>0000ff</color>
        <width>4</width>
      </line>
    </extensions>
    <trkseg>
      <trkpt lat="44.25763" lon="0.19754">
        <ele>175.824501</ele>
        <time>2022-12-29T09:24:36.173Z</time>
      </trkpt>
      <trkpt lat="44.25758" lon="0.19765">
        <ele>175.824501</ele>
        <time>2022-12-29T09:24:45.864Z</time>
      </trkpt>
      <trkpt lat="44.25755" lon="0.1978">
        <ele>175.824501</ele>
        <time>2022-12-29T09:25:14.867Z</time>
      </trkpt>
      <trkpt lat="44.25752" lon="0.19794">
        <ele>175.824501</ele>
        <time>2022-12-29T09:25:19.885Z</time>
      </trkpt>
      <trkpt lat="44.2575" lon="0.19807">
        <ele>175.824501</ele>
        <time>2022-12-29T09:25:23.870Z</time>
      </trkpt>
      <trkpt lat="44.25748" lon="0.19823">
        <ele>175.824501</ele>
        <time>2022-12-29T09:25:27.866Z</time>
      </trkpt>
      <trkpt lat="44.25745" lon="0.19838">
        <ele>175.824501</ele>
        <time>2022-12-29T09:25:31.878Z</time>
      </trkpt>
      <trkpt lat="44.25742" lon="0.19852">
        <ele>175.824501</ele>
        <time>2022-12-29T09:25:35.865Z</time>
      </trkpt>
      <trkpt lat="44.2574" lon="0.19868">
        <ele>175.824501</ele>
        <time>2022-12-29T09:25:39.879Z</time>
      </trkpt>
      <trkpt lat="44.25736" lon="0.19883">
        <ele>175.748474</ele>
        <time>2022-12-29T09:25:43.877Z</time>
      </trkpt>
      <trkpt lat="44.25733" lon="0.19899">
        <ele>175.623456</ele>
        <time>2022-12-29T09:25:47.864Z</time>
      </trkpt>
      <trkpt lat="44.25729" lon="0.19912">
        <ele>175.514713</ele>
        <time>2022-12-29T09:25:51.867Z</time>
      </trkpt>
      <trkpt lat="44.25726" lon="0.19924">
        <ele>175.413246</ele>
        <time>2022-12-29T09:25:54.865Z</time>
      </trkpt>
      <trkpt lat="44.25723" lon="0.19938">
        <ele>175.301076</ele>
        <time>2022-12-29T09:25:57.883Z</time>
      </trkpt>
      <trkpt lat="44.25722" lon="0.19954">
        <ele>175.180401</ele>
        <time>2022-12-29T09:26:01.879Z</time>
      </trkpt>
      <trkpt lat="44.2572" lon="0.19966">
        <ele>175.083233</ele>
        <time>2022-12-29T09:26:04.884Z</time>
      </trkpt>
      <trkpt lat="44.25716" lon="0.1998">
        <ele>174.970889</ele>
        <time>2022-12-29T09:26:07.865Z</time>
      </trkpt>
      <trkpt lat="44.25713" lon="0.19994">
        <ele>174.856731</ele>
        <time>2022-12-29T09:26:10.866Z</time>
      </trkpt>
      <trkpt lat="44.25709" lon="0.20007">
        <ele>174.747177</ele>
        <time>2022-12-29T09:26:13.871Z</time>
      </trkpt>
      <trkpt lat="44.25706" lon="0.20021">
        <ele>174.635376</ele>
        <time>2022-12-29T09:26:16.882Z</time>
      </trkpt>
      <trkpt lat="44.25703" lon="0.20035">
        <ele>174.522193</ele>
        <time>2022-12-29T09:26:20.878Z</time>
      </trkpt>
      <trkpt lat="44.25699" lon="0.2005">
        <ele>174.398951</ele>
        <time>2022-12-29T09:26:24.872Z</time>
      </trkpt>
      <trkpt lat="44.25696" lon="0.20063">
        <ele>174.292798</ele>
        <time>2022-12-29T09:26:27.882Z</time>
      </trkpt>
      <trkpt lat="44.25693" lon="0.20075">
        <ele>174.190644</ele>
        <time>2022-12-29T09:26:30.888Z</time>
      </trkpt>
      <trkpt lat="44.25691" lon="0.2009">
        <ele>174.077572</ele>
        <time>2022-12-29T09:26:34.885Z</time>
      </trkpt>
      <trkpt lat="44.25697" lon="0.201">
        <ele>173.976239</ele>
        <time>2022-12-29T09:26:38.887Z</time>
      </trkpt>
      <trkpt lat="44.25706" lon="0.20108">
        <ele>173.903054</ele>
        <time>2022-12-29T09:26:42.863Z</time>
      </trkpt>
      <trkpt lat="44.25716" lon="0.20118">
        <ele>173.97569</ele>
        <time>2022-12-29T09:26:46.881Z</time>
      </trkpt>
      <trkpt lat="44.25722" lon="0.20127">
        <ele>174.03596</ele>
        <time>2022-12-29T09:26:52.872Z</time>
      </trkpt>
      <trkpt lat="44.2573" lon="0.20137">
        <ele>174.101531</ele>
        <time>2022-12-29T09:26:58.871Z</time>
      </trkpt>
      <trkpt lat="44.25738" lon="0.20145">
        <ele>174.163781</ele>
        <time>2022-12-29T09:27:02.885Z</time>
      </trkpt>
      <trkpt lat="44.25746" lon="0.20156">
        <ele>174.236637</ele>
        <time>2022-12-29T09:27:06.894Z</time>
      </trkpt>
      <trkpt lat="44.25754" lon="0.20166">
        <ele>174.307455</ele>
        <time>2022-12-29T09:27:10.885Z</time>
      </trkpt>
      <trkpt lat="44.25762" lon="0.20174">
        <ele>174.36678</ele>
        <time>2022-12-29T09:27:13.877Z</time>
      </trkpt>
      <trkpt lat="44.25768" lon="0.20183">
        <ele>174.426533</ele>
        <time>2022-12-29T09:27:16.882Z</time>
      </trkpt>
      <trkpt lat="44.25776" lon="0.20194">
        <ele>174.493654</ele>
        <time>2022-12-29T09:27:19.878Z</time>
      </trkpt>
      <trkpt lat="44.25783" lon="0.20203">
        <ele>174.559789</ele>
        <time>2022-12-29T09:27:22.883Z</time>
      </trkpt>
      <trkpt lat="44.2579" lon="0.20213">
        <ele>174.623116</ele>
        <time>2022-12-29T09:27:25.881Z</time>
      </trkpt>
      <trkpt lat="44.25797" lon="0.20224">
        <ele>174.686091</ele>
        <time>2022-12-29T09:27:28.886Z</time>
      </trkpt>
      <trkpt lat="44.25802" lon="0.20233">
        <ele>174.744297</ele>
        <time>2022-12-29T09:27:31.874Z</time>
      </trkpt>
      <trkpt lat="44.25808" lon="0.20244">
        <ele>174.805353</ele>
        <time>2022-12-29T09:27:34.865Z</time>
      </trkpt>
      <trkpt lat="44.25816" lon="0.20257">
        <ele>174.882944</ele>
        <time>2022-12-29T09:27:38.881Z</time>
      </trkpt>
      <trkpt lat="44.25821" lon="0.20268">
        <ele>174.94231</ele>
        <time>2022-12-29T09:27:41.869Z</time>
      </trkpt>
      <trkpt lat="44.25826" lon="0.2028">
        <ele>175.005623</ele>
        <time>2022-12-29T09:27:44.883Z</time>
      </trkpt>
      <trkpt lat="44.25831" lon="0.20292">
        <ele>175.174607</ele>
        <time>2022-12-29T09:27:47.866Z</time>
      </trkpt>
      <trkpt lat="44.25835" lon="0.20304">
        <ele>175.429706</ele>
        <time>2022-12-29T09:27:50.885Z</time>
      </trkpt>
      <trkpt lat="44.25837" lon="0.20316">
        <ele>175.674727</ele>
        <time>2022-12-29T09:27:53.881Z</time>
      </trkpt>
      <trkpt lat="44.2584" lon="0.20331">
        <ele>175.974698</ele>
        <time>2022-12-29T09:27:57.877Z</time>
      </trkpt>
      <trkpt lat="44.25839" lon="0.20345">
        <ele>176.241876</ele>
        <time>2022-12-29T09:28:01.868Z</time>
      </trkpt>
      <trkpt lat="44.25833" lon="0.20357">
        <ele>176.524876</ele>
        <time>2022-12-29T09:28:05.871Z</time>
      </trkpt>
      <trkpt lat="44.25827" lon="0.20369">
        <ele>176.81916</ele>
        <time>2022-12-29T09:28:09.885Z</time>
      </trkpt>
      <trkpt lat="44.25823" lon="0.20381">
        <ele>177.076825</ele>
        <time>2022-12-29T09:28:12.882Z</time>
      </trkpt>
      <trkpt lat="44.25818" lon="0.20393">
        <ele>177.34388</ele>
        <time>2022-12-29T09:28:15.883Z</time>
      </trkpt>
      <trkpt lat="44.25812" lon="0.20404">
        <ele>177.59698</ele>
        <time>2022-12-29T09:28:18.884Z</time>
      </trkpt>
      <trkpt lat="44.25806" lon="0.20414">
        <ele>177.853662</ele>
        <time>2022-12-29T09:28:21.874Z</time>
      </trkpt>
      <trkpt lat="44.25801" lon="0.20425">
        <ele>178.102149</ele>
        <time>2022-12-29T09:28:24.881Z</time>
      </trkpt>
      <trkpt lat="44.25795" lon="0.20436">
        <ele>178.377247</ele>
        <time>2022-12-29T09:28:28.874Z</time>
      </trkpt>
      <trkpt lat="44.25789" lon="0.20447">
        <ele>178.644452</ele>
        <time>2022-12-29T09:28:33.866Z</time>
      </trkpt>
      <trkpt lat="44.25785" lon="0.2046">
        <ele>178.912275</ele>
        <time>2022-12-29T09:28:37.865Z</time>
      </trkpt>
      <trkpt lat="44.25779" lon="0.20472">
        <ele>179.203111</ele>
        <time>2022-12-29T09:28:41.896Z</time>
      </trkpt>
      <trkpt lat="44.25772" lon="0.20484">
        <ele>179.501874</ele>
        <time>2022-12-29T09:28:45.889Z</time>
      </trkpt>
      <trkpt lat="44.25765" lon="0.20498">
        <ele>179.813261</ele>
        <time>2022-12-29T09:28:49.882Z</time>
      </trkpt>
      <trkpt lat="44.25759" lon="0.20509">
        <ele>179.891462</ele>
        <time>2022-12-29T09:28:53.885Z</time>
      </trkpt>
      <trkpt lat="44.25754" lon="0.20521">
        <ele>179.893056</ele>
        <time>2022-12-29T09:28:57.875Z</time>
      </trkpt>
      <trkpt lat="44.25747" lon="0.20532">
        <ele>179.894561</ele>
        <time>2022-12-29T09:29:01.874Z</time>
      </trkpt>
      <trkpt lat="44.25743" lon="0.20543">
        <ele>179.895965</ele>
        <time>2022-12-29T09:29:04.867Z</time>
      </trkpt>
      <trkpt lat="44.25738" lon="0.20555">
        <ele>179.897519</ele>
        <time>2022-12-29T09:29:07.881Z</time>
      </trkpt>
      <trkpt lat="44.25733" lon="0.20567">
        <ele>179.899154</ele>
        <time>2022-12-29T09:29:10.877Z</time>
      </trkpt>
      <trkpt lat="44.25728" lon="0.20579">
        <ele>179.900721</ele>
        <time>2022-12-29T09:29:13.885Z</time>
      </trkpt>
      <trkpt lat="44.25722" lon="0.20591">
        <ele>179.902341</ele>
        <time>2022-12-29T09:29:16.886Z</time>
      </trkpt>
      <trkpt lat="44.25717" lon="0.20602">
        <ele>179.903761</ele>
        <time>2022-12-29T09:29:19.866Z</time>
      </trkpt>
      <trkpt lat="44.25709" lon="0.20614">
        <ele>179.905604</ele>
        <time>2022-12-29T09:29:23.878Z</time>
      </trkpt>
      <trkpt lat="44.25704" lon="0.20628">
        <ele>179.907352</ele>
        <time>2022-12-29T09:29:27.870Z</time>
      </trkpt>
      <trkpt lat="44.25698" lon="0.20639">
        <ele>179.908899</ele>
        <time>2022-12-29T09:29:31.889Z</time>
      </trkpt>
      <trkpt lat="44.25692" lon="0.20651">
        <ele>179.910555</ele>
        <time>2022-12-29T09:29:36.882Z</time>
      </trkpt>
      <trkpt lat="44.25686" lon="0.20663">
        <ele>179.912075</ele>
        <time>2022-12-29T09:29:39.889Z</time>
      </trkpt>
      <trkpt lat="44.25681" lon="0.20675">
        <ele>179.913761</ele>
        <time>2022-12-29T09:29:42.869Z</time>
      </trkpt>
      <trkpt lat="44.25675" lon="0.20686">
        <ele>179.915262</ele>
        <time>2022-12-29T09:29:45.864Z</time>
      </trkpt>
      <trkpt lat="44.25669" lon="0.20698">
        <ele>179.916873</ele>
        <time>2022-12-29T09:29:49.867Z</time>
      </trkpt>
      <trkpt lat="44.25663" lon="0.20711">
        <ele>179.912887</ele>
        <time>2022-12-29T09:29:53.889Z</time>
      </trkpt>
      <trkpt lat="44.25658" lon="0.20722">
        <ele>179.87836</ele>
        <time>2022-12-29T09:29:56.882Z</time>
      </trkpt>
      <trkpt lat="44.25653" lon="0.20733">
        <ele>179.843154</ele>
        <time>2022-12-29T09:29:59.883Z</time>
      </trkpt>
      <trkpt lat="44.25647" lon="0.20745">
        <ele>179.805251</ele>
        <time>2022-12-29T09:30:02.885Z</time>
      </trkpt>
      <trkpt lat="44.25642" lon="0.20758">
        <ele>179.765039</ele>
        <time>2022-12-29T09:30:05.892Z</time>
      </trkpt>
      <trkpt lat="44.25636" lon="0.2077">
        <ele>179.726156</ele>
        <time>2022-12-29T09:30:08.880Z</time>
      </trkpt>
      <trkpt lat="44.2563" lon="0.20782">
        <ele>179.688787</ele>
        <time>2022-12-29T09:30:11.884Z</time>
      </trkpt>
      <trkpt lat="44.25624" lon="0.20792">
        <ele>179.653576</ele>
        <time>2022-12-29T09:30:14.881Z</time>
      </trkpt>
      <trkpt lat="44.25618" lon="0.20804">
        <ele>179.614271</ele>
        <time>2022-12-29T09:30:17.877Z</time>
      </trkpt>
      <trkpt lat="44.25612" lon="0.20818">
        <ele>179.571997</ele>
        <time>2022-12-29T09:30:20.882Z</time>
      </trkpt>
      <trkpt lat="44.25606" lon="0.20832">
        <ele>179.527048</ele>
        <time>2022-12-29T09:30:23.890Z</time>
      </trkpt>
      <trkpt lat="44.25599" lon="0.20846">
        <ele>179.483153</ele>
        <time>2022-12-29T09:30:26.899Z</time>
      </trkpt>
      <trkpt lat="44.25593" lon="0.20859">
        <ele>179.441142</ele>
        <time>2022-12-29T09:30:29.887Z</time>
      </trkpt>
      <trkpt lat="44.25588" lon="0.20872">
        <ele>179.401104</ele>
        <time>2022-12-29T09:30:32.885Z</time>
      </trkpt>
      <trkpt lat="44.25581" lon="0.20884">
        <ele>179.362662</ele>
        <time>2022-12-29T09:30:35.880Z</time>
      </trkpt>
      <trkpt lat="44.25575" lon="0.20896">
        <ele>179.323141</ele>
        <time>2022-12-29T09:30:38.884Z</time>
      </trkpt>
      <trkpt lat="44.2557" lon="0.20909">
        <ele>179.283004</ele>
        <time>2022-12-29T09:30:41.864Z</time>
      </trkpt>
      <trkpt lat="44.25566" lon="0.20923">
        <ele>179.204232</ele>
        <time>2022-12-29T09:30:44.887Z</time>
      </trkpt>
      <trkpt lat="44.25561" lon="0.20938">
        <ele>178.93521</ele>
        <time>2022-12-29T09:30:47.887Z</time>
      </trkpt>
      <trkpt lat="44.25556" lon="0.20953">
        <ele>178.663498</ele>
        <time>2022-12-29T09:30:50.885Z</time>
      </trkpt>
      <trkpt lat="44.25552" lon="0.20968">
        <ele>178.398672</ele>
        <time>2022-12-29T09:30:53.868Z</time>
      </trkpt>
      <trkpt lat="44.25548" lon="0.20983">
        <ele>178.134057</ele>
        <time>2022-12-29T09:30:56.888Z</time>
      </trkpt>
      <trkpt lat="44.25544" lon="0.20998">
        <ele>177.889511</ele>
        <time>2022-12-29T09:30:59.888Z</time>
      </trkpt>
      <trkpt lat="44.25541" lon="0.21012">
        <ele>177.647283</ele>
        <time>2022-12-29T09:31:02.885Z</time>
      </trkpt>
      <trkpt lat="44.25537" lon="0.21024">
        <ele>177.426511</ele>
        <time>2022-12-29T09:31:05.884Z</time>
      </trkpt>
      <trkpt lat="44.25534" lon="0.21038">
        <ele>177.198828</ele>
        <time>2022-12-29T09:31:08.887Z</time>
      </trkpt>
      <trkpt lat="44.2553" lon="0.21052">
        <ele>176.942022</ele>
        <time>2022-12-29T09:31:11.884Z</time>
      </trkpt>
      <trkpt lat="44.25526" lon="0.21068">
        <ele>176.675262</ele>
        <time>2022-12-29T09:31:14.889Z</time>
      </trkpt>
      <trkpt lat="44.25522" lon="0.21083">
        <ele>176.411305</ele>
        <time>2022-12-29T09:31:17.884Z</time>
      </trkpt>
      <trkpt lat="44.25517" lon="0.21099">
        <ele>176.129966</ele>
        <time>2022-12-29T09:31:20.881Z</time>
      </trkpt>
      <trkpt lat="44.25514" lon="0.21114">
        <ele>175.865453</ele>
        <time>2022-12-29T09:31:23.890Z</time>
      </trkpt>
      <trkpt lat="44.2551" lon="0.21128">
        <ele>175.631157</ele>
        <time>2022-12-29T09:31:26.865Z</time>
      </trkpt>
      <trkpt lat="44.25506" lon="0.21141">
        <ele>175.395048</ele>
        <time>2022-12-29T09:31:29.882Z</time>
      </trkpt>
      <trkpt lat="44.25502" lon="0.21156">
        <ele>175.174496</ele>
        <time>2022-12-29T09:31:32.885Z</time>
      </trkpt>
      <trkpt lat="44.25498" lon="0.21172">
        <ele>175.316665</ele>
        <time>2022-12-29T09:31:35.895Z</time>
      </trkpt>
      <trkpt lat="44.25494" lon="0.21187">
        <ele>175.458057</ele>
        <time>2022-12-29T09:31:38.895Z</time>
      </trkpt>
      <trkpt lat="44.25489" lon="0.21202">
        <ele>175.604135</ele>
        <time>2022-12-29T09:31:41.890Z</time>
      </trkpt>
      <trkpt lat="44.25486" lon="0.21219">
        <ele>175.752902</ele>
        <time>2022-12-29T09:31:44.897Z</time>
      </trkpt>
      <trkpt lat="44.25482" lon="0.21235">
        <ele>175.906935</ele>
        <time>2022-12-29T09:31:47.882Z</time>
      </trkpt>
      <trkpt lat="44.25477" lon="0.21252">
        <ele>176.064226</ele>
        <time>2022-12-29T09:31:50.889Z</time>
      </trkpt>
      <trkpt lat="44.25472" lon="0.21268">
        <ele>176.213854</ele>
        <time>2022-12-29T09:31:53.883Z</time>
      </trkpt>
      <trkpt lat="44.25468" lon="0.21284">
        <ele>176.363407</ele>
        <time>2022-12-29T09:31:56.883Z</time>
      </trkpt>
      <trkpt lat="44.25464" lon="0.21301">
        <ele>176.518703</ele>
        <time>2022-12-29T09:31:59.869Z</time>
      </trkpt>
      <trkpt lat="44.2546" lon="0.21318">
        <ele>176.670704</ele>
        <time>2022-12-29T09:32:02.880Z</time>
      </trkpt>
      <trkpt lat="44.25455" lon="0.21335">
        <ele>176.830044</ele>
        <time>2022-12-29T09:32:05.883Z</time>
      </trkpt>
      <trkpt lat="44.25453" lon="0.21347">
        <ele>176.940173</ele>
        <time>2022-12-29T09:32:07.881Z</time>
      </trkpt>
      <trkpt lat="44.25448" lon="0.21363">
        <ele>177.086891</ele>
        <time>2022-12-29T09:32:10.883Z</time>
      </trkpt>
      <trkpt lat="44.25443" lon="0.21378">
        <ele>177.22837</ele>
        <time>2022-12-29T09:32:13.884Z</time>
      </trkpt>
      <trkpt lat="44.25439" lon="0.21392">
        <ele>177.385814</ele>
        <time>2022-12-29T09:32:16.880Z</time>
      </trkpt>
      <trkpt lat="44.25435" lon="0.21408">
        <ele>177.663347</ele>
        <time>2022-12-29T09:32:19.883Z</time>
      </trkpt>
      <trkpt lat="44.25431" lon="0.21425">
        <ele>177.963419</ele>
        <time>2022-12-29T09:32:22.882Z</time>
      </trkpt>
      <trkpt lat="44.25426" lon="0.21442">
        <ele>178.266768</ele>
        <time>2022-12-29T09:32:25.873Z</time>
      </trkpt>
      <trkpt lat="44.25423" lon="0.21455">
        <ele>178.487133</ele>
        <time>2022-12-29T09:32:27.885Z</time>
      </trkpt>
      <trkpt lat="44.25417" lon="0.21471">
        <ele>178.793745</ele>
        <time>2022-12-29T09:32:30.877Z</time>
      </trkpt>
      <trkpt lat="44.25413" lon="0.21486">
        <ele>179.061778</ele>
        <time>2022-12-29T09:32:33.873Z</time>
      </trkpt>
      <trkpt lat="44.25409" lon="0.215">
        <ele>179.309166</ele>
        <time>2022-12-29T09:32:36.883Z</time>
      </trkpt>
      <trkpt lat="44.25405" lon="0.21514">
        <ele>179.554119</ele>
        <time>2022-12-29T09:32:39.885Z</time>
      </trkpt>
      <trkpt lat="44.25401" lon="0.2153">
        <ele>179.846443</ele>
        <time>2022-12-29T09:32:42.884Z</time>
      </trkpt>
      <trkpt lat="44.25398" lon="0.21543">
        <ele>180.059007</ele>
        <time>2022-12-29T09:32:44.887Z</time>
      </trkpt>
      <trkpt lat="44.25395" lon="0.21555">
        <ele>180.281007</ele>
        <time>2022-12-29T09:32:46.878Z</time>
      </trkpt>
      <trkpt lat="44.25391" lon="0.21568">
        <ele>180.505356</ele>
        <time>2022-12-29T09:32:48.883Z</time>
      </trkpt>
      <trkpt lat="44.25389" lon="0.2158">
        <ele>180.720805</ele>
        <time>2022-12-29T09:32:50.890Z</time>
      </trkpt>
      <trkpt lat="44.25385" lon="0.21593">
        <ele>180.938125</ele>
        <time>2022-12-29T09:32:52.874Z</time>
      </trkpt>
      <trkpt lat="44.25382" lon="0.21604">
        <ele>181.148927</ele>
        <time>2022-12-29T09:32:54.874Z</time>
      </trkpt>
      <trkpt lat="44.25379" lon="0.21616">
        <ele>181.360744</ele>
        <time>2022-12-29T09:32:56.881Z</time>
      </trkpt>
      <trkpt lat="44.25375" lon="0.2163">
        <ele>181.457133</ele>
        <time>2022-12-29T09:32:58.881Z</time>
      </trkpt>
      <trkpt lat="44.25371" lon="0.21643">
        <ele>181.318508</ele>
        <time>2022-12-29T09:33:00.884Z</time>
      </trkpt>
      <trkpt lat="44.25366" lon="0.2166">
        <ele>181.132733</ele>
        <time>2022-12-29T09:33:03.866Z</time>
      </trkpt>
      <trkpt lat="44.25363" lon="0.21672">
        <ele>181.009443</ele>
        <time>2022-12-29T09:33:05.884Z</time>
      </trkpt>
      <trkpt lat="44.25358" lon="0.2169">
        <ele>180.821285</ele>
        <time>2022-12-29T09:33:08.883Z</time>
      </trkpt>
      <trkpt lat="44.25353" lon="0.21706">
        <ele>180.649733</ele>
        <time>2022-12-29T09:33:11.881Z</time>
      </trkpt>
      <trkpt lat="44.25349" lon="0.21721">
        <ele>180.48984</ele>
        <time>2022-12-29T09:33:14.876Z</time>
      </trkpt>
      <trkpt lat="44.25344" lon="0.21735">
        <ele>180.338523</ele>
        <time>2022-12-29T09:33:17.883Z</time>
      </trkpt>
      <trkpt lat="44.25339" lon="0.21749">
        <ele>180.176352</ele>
        <time>2022-12-29T09:33:20.893Z</time>
      </trkpt>
      <trkpt lat="44.25334" lon="0.21767">
        <ele>179.990036</ele>
        <time>2022-12-29T09:33:23.882Z</time>
      </trkpt>
      <trkpt lat="44.25331" lon="0.21779">
        <ele>179.862123</ele>
        <time>2022-12-29T09:33:25.882Z</time>
      </trkpt>
      <trkpt lat="44.25328" lon="0.21792">
        <ele>179.735069</ele>
        <time>2022-12-29T09:33:27.886Z</time>
      </trkpt>
      <trkpt lat="44.25325" lon="0.21805">
        <ele>179.602374</ele>
        <time>2022-12-29T09:33:29.883Z</time>
      </trkpt>
      <trkpt lat="44.25323" lon="0.21817">
        <ele>179.476277</ele>
        <time>2022-12-29T09:33:31.864Z</time>
      </trkpt>
      <trkpt lat="44.2532" lon="0.21829">
        <ele>179.351514</ele>
        <time>2022-12-29T09:33:33.881Z</time>
      </trkpt>
      <trkpt lat="44.25317" lon="0.21841">
        <ele>179.226693</ele>
        <time>2022-12-29T09:33:35.887Z</time>
      </trkpt>
      <trkpt lat="44.25313" lon="0.21858">
        <ele>179.050026</ele>
        <time>2022-12-29T09:33:38.883Z</time>
      </trkpt>
      <trkpt lat="44.25309" lon="0.21873">
        <ele>179.105684</ele>
        <time>2022-12-29T09:33:41.904Z</time>
      </trkpt>
      <trkpt lat="44.25306" lon="0.21887">
        <ele>179.166574</ele>
        <time>2022-12-29T09:33:44.884Z</time>
      </trkpt>
      <trkpt lat="44.25302" lon="0.21899">
        <ele>179.224371</ele>
        <time>2022-12-29T09:33:47.882Z</time>
      </trkpt>
      <trkpt lat="44.25299" lon="0.21911">
        <ele>179.282143</ele>
        <time>2022-12-29T09:33:50.872Z</time>
      </trkpt>
      <trkpt lat="44.25296" lon="0.21923">
        <ele>179.340745</ele>
        <time>2022-12-29T09:33:53.879Z</time>
      </trkpt>
      <trkpt lat="44.25293" lon="0.21936">
        <ele>179.397309</ele>
        <time>2022-12-29T09:33:56.886Z</time>
      </trkpt>
      <trkpt lat="44.25289" lon="0.21951">
        <ele>179.468312</ele>
        <time>2022-12-29T09:34:00.883Z</time>
      </trkpt>
      <trkpt lat="44.25284" lon="0.21965">
        <ele>179.536161</ele>
        <time>2022-12-29T09:34:04.882Z</time>
      </trkpt>
      <trkpt lat="44.2528" lon="0.21979">
        <ele>179.60344</ele>
        <time>2022-12-29T09:34:08.886Z</time>
      </trkpt>
      <trkpt lat="44.25277" lon="0.21994">
        <ele>179.671017</ele>
        <time>2022-12-29T09:34:12.886Z</time>
      </trkpt>
      <trkpt lat="44.25274" lon="0.22009">
        <ele>179.74202</ele>
        <time>2022-12-29T09:34:16.884Z</time>
      </trkpt>
      <trkpt lat="44.25271" lon="0.22022">
        <ele>179.799568</ele>
        <time>2022-12-29T09:34:19.892Z</time>
      </trkpt>
      <trkpt lat="44.25268" lon="0.22033">
        <ele>179.854831</ele>
        <time>2022-12-29T09:34:22.865Z</time>
      </trkpt>
      <trkpt lat="44.25265" lon="0.22046">
        <ele>179.911546</ele>
        <time>2022-12-29T09:34:25.881Z</time>
      </trkpt>
      <trkpt lat="44.25261" lon="0.22061">
        <ele>179.984828</ele>
        <time>2022-12-29T09:34:29.882Z</time>
      </trkpt>
      <trkpt lat="44.25257" lon="0.22073">
        <ele>180.040344</ele>
        <time>2022-12-29T09:34:32.886Z</time>
      </trkpt>
      <trkpt lat="44.25252" lon="0.22089">
        <ele>180.115743</ele>
        <time>2022-12-29T09:34:36.884Z</time>
      </trkpt>
      <trkpt lat="44.25249" lon="0.22101">
        <ele>180.174953</ele>
        <time>2022-12-29T09:34:39.876Z</time>
      </trkpt>
      <trkpt lat="44.25245" lon="0.22117">
        <ele>180.250212</ele>
        <time>2022-12-29T09:34:43.881Z</time>
      </trkpt>
      <trkpt lat="44.25242" lon="0.22129">
        <ele>180.309694</ele>
        <time>2022-12-29T09:34:46.891Z</time>
      </trkpt>
      <trkpt lat="44.25238" lon="0.22141">
        <ele>180.367463</ele>
        <time>2022-12-29T09:34:49.864Z</time>
      </trkpt>
      <trkpt lat="44.25234" lon="0.22152">
        <ele>180.425551</ele>
        <time>2022-12-29T09:34:52.872Z</time>
      </trkpt>
      <trkpt lat="44.25231" lon="0.22164">
        <ele>180.482908</ele>
        <time>2022-12-29T09:34:55.883Z</time>
      </trkpt>
      <trkpt lat="44.25229" lon="0.22178">
        <ele>180.54508</ele>
        <time>2022-12-29T09:34:58.885Z</time>
      </trkpt>
      <trkpt lat="44.25225" lon="0.22192">
        <ele>180.612239</ele>
        <time>2022-12-29T09:35:01.884Z</time>
      </trkpt>
      <trkpt lat="44.25221" lon="0.22205">
        <ele>180.678974</ele>
        <time>2022-12-29T09:35:04.883Z</time>
      </trkpt>
      <trkpt lat="44.25217" lon="0.22219">
        <ele>180.746983</ele>
        <time>2022-12-29T09:35:07.879Z</time>
      </trkpt>
      <trkpt lat="44.25214" lon="0.22233">
        <ele>180.813286</ele>
        <time>2022-12-29T09:35:10.881Z</time>
      </trkpt>
      <trkpt lat="44.25211" lon="0.22246">
        <ele>180.875539</ele>
        <time>2022-12-29T09:35:13.887Z</time>
      </trkpt>
      <trkpt lat="44.25207" lon="0.22259">
        <ele>180.938241</ele>
        <time>2022-12-29T09:35:16.886Z</time>
      </trkpt>
      <trkpt lat="44.25203" lon="0.22273">
        <ele>181.003264</ele>
        <time>2022-12-29T09:35:19.884Z</time>
      </trkpt>
      <trkpt lat="44.252" lon="0.22286">
        <ele>181.067647</ele>
        <time>2022-12-29T09:35:22.876Z</time>
      </trkpt>
      <trkpt lat="44.25197" lon="0.22299">
        <ele>181.128193</ele>
        <time>2022-12-29T09:35:25.886Z</time>
      </trkpt>
      <trkpt lat="44.25194" lon="0.22311">
        <ele>181.186367</ele>
        <time>2022-12-29T09:35:28.886Z</time>
      </trkpt>
      <trkpt lat="44.2519" lon="0.22326">
        <ele>181.262114</ele>
        <time>2022-12-29T09:35:32.873Z</time>
      </trkpt>
      <trkpt lat="44.25186" lon="0.22342">
        <ele>181.759217</ele>
        <time>2022-12-29T09:35:36.864Z</time>
      </trkpt>
      <trkpt lat="44.25182" lon="0.22358">
        <ele>182.384882</ele>
        <time>2022-12-29T09:35:40.877Z</time>
      </trkpt>
      <trkpt lat="44.25178" lon="0.22369">
        <ele>182.874548</ele>
        <time>2022-12-29T09:35:43.881Z</time>
      </trkpt>
      <trkpt lat="44.25174" lon="0.22382">
        <ele>183.377399</ele>
        <time>2022-12-29T09:35:46.884Z</time>
      </trkpt>
      <trkpt lat="44.25171" lon="0.22394">
        <ele>183.885304</ele>
        <time>2022-12-29T09:35:49.876Z</time>
      </trkpt>
      <trkpt lat="44.25167" lon="0.22407">
        <ele>184.385982</ele>
        <time>2022-12-29T09:35:52.887Z</time>
      </trkpt>
      <trkpt lat="44.25164" lon="0.2242">
        <ele>184.897358</ele>
        <time>2022-12-29T09:35:55.877Z</time>
      </trkpt>
      <trkpt lat="44.25159" lon="0.22435">
        <ele>185.523806</ele>
        <time>2022-12-29T09:35:59.883Z</time>
      </trkpt>
      <trkpt lat="44.25156" lon="0.22449">
        <ele>186.074074</ele>
        <time>2022-12-29T09:36:03.883Z</time>
      </trkpt>
      <trkpt lat="44.25151" lon="0.22462">
        <ele>186.626887</ele>
        <time>2022-12-29T09:36:07.884Z</time>
      </trkpt>
      <trkpt lat="44.25147" lon="0.22477">
        <ele>187.233794</ele>
        <time>2022-12-29T09:36:11.884Z</time>
      </trkpt>
      <trkpt lat="44.25144" lon="0.2249">
        <ele>187.755745</ele>
        <time>2022-12-29T09:36:15.884Z</time>
      </trkpt>
      <trkpt lat="44.25139" lon="0.22503">
        <ele>188.300735</ele>
        <time>2022-12-29T09:36:19.888Z</time>
      </trkpt>
      <trkpt lat="44.25135" lon="0.22517">
        <ele>188.859197</ele>
        <time>2022-12-29T09:36:23.894Z</time>
      </trkpt>
      <trkpt lat="44.25131" lon="0.22531">
        <ele>189.43618</ele>
        <time>2022-12-29T09:36:27.890Z</time>
      </trkpt>
      <trkpt lat="44.25128" lon="0.22544">
        <ele>189.953069</ele>
        <time>2022-12-29T09:36:31.883Z</time>
      </trkpt>
      <trkpt lat="44.25126" lon="0.22557">
        <ele>190.447787</ele>
        <time>2022-12-29T09:36:35.872Z</time>
      </trkpt>
      <trkpt lat="44.25123" lon="0.2257">
        <ele>190.94001</ele>
        <time>2022-12-29T09:36:39.883Z</time>
      </trkpt>
      <trkpt lat="44.25118" lon="0.22582">
        <ele>191.417146</ele>
        <time>2022-12-29T09:36:43.886Z</time>
      </trkpt>
      <trkpt lat="44.25114" lon="0.22594">
        <ele>191.888889</ele>
        <time>2022-12-29T09:36:49.872Z</time>
      </trkpt>
      <trkpt lat="44.2511" lon="0.22607">
        <ele>192.385163</ele>
        <time>2022-12-29T09:36:54.868Z</time>
      </trkpt>
      <trkpt lat="44.25106" lon="0.2262">
        <ele>192.915353</ele>
        <time>2022-12-29T09:36:59.881Z</time>
      </trkpt>
      <trkpt lat="44.25102" lon="0.22633">
        <ele>193.390793</ele>
        <time>2022-12-29T09:37:04.884Z</time>
      </trkpt>
      <trkpt lat="44.25099" lon="0.22646">
        <ele>193.876089</ele>
        <time>2022-12-29T09:37:09.869Z</time>
      </trkpt>
      <trkpt lat="44.25094" lon="0.22659">
        <ele>194.411748</ele>
        <time>2022-12-29T09:37:15.885Z</time>
      </trkpt>
      <trkpt lat="44.25089" lon="0.22672">
        <ele>194.943089</ele>
        <time>2022-12-29T09:37:21.865Z</time>
      </trkpt>
      <trkpt lat="44.25085" lon="0.22685">
        <ele>195.427654</ele>
        <time>2022-12-29T09:37:26.867Z</time>
      </trkpt>
      <trkpt lat="44.2508" lon="0.22697">
        <ele>195.931996</ele>
        <time>2022-12-29T09:37:31.872Z</time>
      </trkpt>
      <trkpt lat="44.25075" lon="0.2271">
        <ele>196.450566</ele>
        <time>2022-12-29T09:37:37.869Z</time>
      </trkpt>
      <trkpt lat="44.2507" lon="0.22724">
        <ele>196.991625</ele>
        <time>2022-12-29T09:37:43.867Z</time>
      </trkpt>
      <trkpt lat="44.25066" lon="0.22738">
        <ele>197.50684</ele>
        <time>2022-12-29T09:37:48.869Z</time>
      </trkpt>
      <trkpt lat="44.25063" lon="0.22751">
        <ele>198.005686</ele>
        <time>2022-12-29T09:37:53.867Z</time>
      </trkpt>
      <trkpt lat="44.2506" lon="0.22763">
        <ele>198.462229</ele>
        <time>2022-12-29T09:37:58.872Z</time>
      </trkpt>
      <trkpt lat="44.25057" lon="0.22775">
        <ele>198.905559</ele>
        <time>2022-12-29T09:38:03.876Z</time>
      </trkpt>
      <trkpt lat="44.25052" lon="0.22788">
        <ele>199.42707</ele>
        <time>2022-12-29T09:38:08.865Z</time>
      </trkpt>
      <trkpt lat="44.25046" lon="0.228">
        <ele>199.946444</ele>
        <time>2022-12-29T09:38:13.869Z</time>
      </trkpt>
      <trkpt lat="44.25042" lon="0.22812">
        <ele>200.426943</ele>
        <time>2022-12-29T09:38:18.867Z</time>
      </trkpt>
      <trkpt lat="44.25038" lon="0.22825">
        <ele>200.91898</ele>
        <time>2022-12-29T09:38:23.872Z</time>
      </trkpt>
      <trkpt lat="44.25035" lon="0.22837">
        <ele>201.369345</ele>
        <time>2022-12-29T09:38:28.868Z</time>
      </trkpt>
      <trkpt lat="44.25031" lon="0.22849">
        <ele>201.841278</ele>
        <time>2022-12-29T09:38:33.871Z</time>
      </trkpt>
      <trkpt lat="44.25028" lon="0.22862">
        <ele>202.304721</ele>
        <time>2022-12-29T09:38:39.870Z</time>
      </trkpt>
      <trkpt lat="44.25024" lon="0.22875">
        <ele>202.831113</ele>
        <time>2022-12-29T09:38:45.865Z</time>
      </trkpt>
      <trkpt lat="44.2502" lon="0.22888">
        <ele>203.323213</ele>
        <time>2022-12-29T09:38:51.872Z</time>
      </trkpt>
      <trkpt lat="44.25016" lon="0.22901">
        <ele>203.824932</ele>
        <time>2022-12-29T09:38:57.871Z</time>
      </trkpt>
      <trkpt lat="44.25012" lon="0.22914">
        <ele>204.313824</ele>
        <time>2022-12-29T09:39:03.872Z</time>
      </trkpt>
      <trkpt lat="44.25008" lon="0.22926">
        <ele>204.788938</ele>
        <time>2022-12-29T09:39:10.867Z</time>
      </trkpt>
      <trkpt lat="44.25004" lon="0.22939">
        <ele>205.305659</ele>
        <time>2022-12-29T09:39:16.863Z</time>
      </trkpt>
      <trkpt lat="44.25" lon="0.22952">
        <ele>205.797698</ele>
        <time>2022-12-29T09:39:22.868Z</time>
      </trkpt>
      <trkpt lat="44.24996" lon="0.22966">
        <ele>206.322836</ele>
        <time>2022-12-29T09:39:28.869Z</time>
      </trkpt>
      <trkpt lat="44.24992" lon="0.22977">
        <ele>206.780246</ele>
        <time>2022-12-29T09:39:33.872Z</time>
      </trkpt>
      <trkpt lat="44.2499" lon="0.2299">
        <ele>207.251066</ele>
        <time>2022-12-29T09:39:38.871Z</time>
      </trkpt>
      <trkpt lat="44.24987" lon="0.23002">
        <ele>207.706218</ele>
        <time>2022-12-29T09:39:43.868Z</time>
      </trkpt>
      <trkpt lat="44.24983" lon="0.23016">
        <ele>208.226801</ele>
        <time>2022-12-29T09:39:49.873Z</time>
      </trkpt>
      <trkpt lat="44.2498" lon="0.2303">
        <ele>208.740159</ele>
        <time>2022-12-29T09:39:55.866Z</time>
      </trkpt>
      <trkpt lat="44.24976" lon="0.23044">
        <ele>209.301228</ele>
        <time>2022-12-29T09:40:01.870Z</time>
      </trkpt>
      <trkpt lat="44.24974" lon="0.23057">
        <ele>209.822852</ele>
        <time>2022-12-29T09:40:07.868Z</time>
      </trkpt>
      <trkpt lat="44.24972" lon="0.23071">
        <ele>210.354648</ele>
        <time>2022-12-29T09:40:13.866Z</time>
      </trkpt>
      <trkpt lat="44.24969" lon="0.23083">
        <ele>210.856403</ele>
        <time>2022-12-29T09:40:19.874Z</time>
      </trkpt>
      <trkpt lat="44.24967" lon="0.23096">
        <ele>211.357048</ele>
        <time>2022-12-29T09:40:24.873Z</time>
      </trkpt>
      <trkpt lat="44.24964" lon="0.2311">
        <ele>211.918322</ele>
        <time>2022-12-29T09:40:30.870Z</time>
      </trkpt>
      <trkpt lat="44.24962" lon="0.23123">
        <ele>212.394429</ele>
        <time>2022-12-29T09:40:34.882Z</time>
      </trkpt>
      <trkpt lat="44.24961" lon="0.23135">
        <ele>212.879136</ele>
        <time>2022-12-29T09:40:38.882Z</time>
      </trkpt>
      <trkpt lat="44.24959" lon="0.2315">
        <ele>213.445483</ele>
        <time>2022-12-29T09:40:43.883Z</time>
      </trkpt>
      <trkpt lat="44.24958" lon="0.23164">
        <ele>213.969886</ele>
        <time>2022-12-29T09:40:48.876Z</time>
      </trkpt>
      <trkpt lat="44.24957" lon="0.23177">
        <ele>214.46461</ele>
        <time>2022-12-29T09:40:53.871Z</time>
      </trkpt>
      <trkpt lat="44.24957" lon="0.23192">
        <ele>215.047342</ele>
        <time>2022-12-29T09:40:58.871Z</time>
      </trkpt>
      <trkpt lat="44.24959" lon="0.23206">
        <ele>215.566313</ele>
        <time>2022-12-29T09:41:02.885Z</time>
      </trkpt>
      <trkpt lat="44.24962" lon="0.23221">
        <ele>216.168842</ele>
        <time>2022-12-29T09:41:07.883Z</time>
      </trkpt>
      <trkpt lat="44.24966" lon="0.23234">
        <ele>216.712239</ele>
        <time>2022-12-29T09:41:11.882Z</time>
      </trkpt>
      <trkpt lat="44.24971" lon="0.23247">
        <ele>217.278939</ele>
        <time>2022-12-29T09:41:15.866Z</time>
      </trkpt>
      <trkpt lat="44.24976" lon="0.2326">
        <ele>217.806428</ele>
        <time>2022-12-29T09:41:19.876Z</time>
      </trkpt>
      <trkpt lat="44.24982" lon="0.23272">
        <ele>217.971239</ele>
        <time>2022-12-29T09:41:24.883Z</time>
      </trkpt>
      <trkpt lat="44.24987" lon="0.23283">
        <ele>217.936984</ele>
        <time>2022-12-29T09:41:28.878Z</time>
      </trkpt>
      <trkpt lat="44.24993" lon="0.23296">
        <ele>217.897979</ele>
        <time>2022-12-29T09:41:32.870Z</time>
      </trkpt>
      <trkpt lat="44.25" lon="0.23306">
        <ele>217.861998</ele>
        <time>2022-12-29T09:41:36.863Z</time>
      </trkpt>
      <trkpt lat="44.25007" lon="0.23316">
        <ele>217.827168</ele>
        <time>2022-12-29T09:41:40.892Z</time>
      </trkpt>
      <trkpt lat="44.25012" lon="0.23328">
        <ele>217.79022</ele>
        <time>2022-12-29T09:41:44.871Z</time>
      </trkpt>
      <trkpt lat="44.25016" lon="0.23342">
        <ele>217.751739</ele>
        <time>2022-12-29T09:41:48.867Z</time>
      </trkpt>
      <trkpt lat="44.25019" lon="0.23356">
        <ele>217.71297</ele>
        <time>2022-12-29T09:41:52.873Z</time>
      </trkpt>
      <trkpt lat="44.25023" lon="0.23372">
        <ele>217.67065</ele>
        <time>2022-12-29T09:41:56.865Z</time>
      </trkpt>
      <trkpt lat="44.25027" lon="0.23387">
        <ele>217.629418</ele>
        <time>2022-12-29T09:42:00.877Z</time>
      </trkpt>
      <trkpt lat="44.25034" lon="0.234">
        <ele>217.587649</ele>
        <time>2022-12-29T09:42:04.866Z</time>
      </trkpt>
      <trkpt lat="44.25041" lon="0.23411">
        <ele>217.54851</ele>
        <time>2022-12-29T09:42:08.895Z</time>
      </trkpt>
      <trkpt lat="44.25048" lon="0.23421">
        <ele>217.513392</ele>
        <time>2022-12-29T09:42:12.870Z</time>
      </trkpt>
      <trkpt lat="44.25056" lon="0.23429">
        <ele>217.476474</ele>
        <time>2022-12-29T09:42:16.872Z</time>
      </trkpt>
      <trkpt lat="44.25067" lon="0.23438">
        <ele>217.433643</ele>
        <time>2022-12-29T09:42:20.891Z</time>
      </trkpt>
      <trkpt lat="44.25075" lon="0.23445">
        <ele>217.398814</ele>
        <time>2022-12-29T09:42:23.888Z</time>
      </trkpt>
      <trkpt lat="44.25086" lon="0.2345">
        <ele>217.356066</ele>
        <time>2022-12-29T09:42:26.886Z</time>
      </trkpt>
      <trkpt lat="44.25098" lon="0.23454">
        <ele>216.960626</ele>
        <time>2022-12-29T09:42:29.883Z</time>
      </trkpt>
      <trkpt lat="44.25108" lon="0.23457">
        <ele>216.583495</ele>
        <time>2022-12-29T09:42:32.885Z</time>
      </trkpt>
      <trkpt lat="44.25118" lon="0.23462">
        <ele>216.193488</ele>
        <time>2022-12-29T09:42:35.894Z</time>
      </trkpt>
      <trkpt lat="44.25128" lon="0.23468">
        <ele>215.775744</ele>
        <time>2022-12-29T09:42:37.865Z</time>
      </trkpt>
      <trkpt lat="44.25138" lon="0.23474">
        <ele>215.387956</ele>
        <time>2022-12-29T09:42:39.879Z</time>
      </trkpt>
      <trkpt lat="44.25146" lon="0.23482">
        <ele>215.027649</ele>
        <time>2022-12-29T09:42:41.868Z</time>
      </trkpt>
      <trkpt lat="44.25157" lon="0.23491">
        <ele>214.561501</ele>
        <time>2022-12-29T09:42:44.885Z</time>
      </trkpt>
      <trkpt lat="44.25166" lon="0.235">
        <ele>214.141144</ele>
        <time>2022-12-29T09:42:46.883Z</time>
      </trkpt>
      <trkpt lat="44.25175" lon="0.2351">
        <ele>213.708578</ele>
        <time>2022-12-29T09:42:48.886Z</time>
      </trkpt>
      <trkpt lat="44.25184" lon="0.2352">
        <ele>213.295308</ele>
        <time>2022-12-29T09:42:50.883Z</time>
      </trkpt>
      <trkpt lat="44.25191" lon="0.23531">
        <ele>212.898032</ele>
        <time>2022-12-29T09:42:52.872Z</time>
      </trkpt>
      <trkpt lat="44.25199" lon="0.23542">
        <ele>212.48771</ele>
        <time>2022-12-29T09:42:54.893Z</time>
      </trkpt>
      <trkpt lat="44.25207" lon="0.23553">
        <ele>212.093607</ele>
        <time>2022-12-29T09:42:56.877Z</time>
      </trkpt>
      <trkpt lat="44.25213" lon="0.23563">
        <ele>211.725083</ele>
        <time>2022-12-29T09:42:58.881Z</time>
      </trkpt>
      <trkpt lat="44.25221" lon="0.23578">
        <ele>211.237615</ele>
        <time>2022-12-29T09:43:01.894Z</time>
      </trkpt>
      <trkpt lat="44.25227" lon="0.23588">
        <ele>210.898025</ele>
        <time>2022-12-29T09:43:03.881Z</time>
      </trkpt>
      <trkpt lat="44.25232" lon="0.23599">
        <ele>210.483601</ele>
        <time>2022-12-29T09:43:05.894Z</time>
      </trkpt>
      <trkpt lat="44.2524" lon="0.23611">
        <ele>209.812365</ele>
        <time>2022-12-29T09:43:08.890Z</time>
      </trkpt>
      <trkpt lat="44.25247" lon="0.23623">
        <ele>209.226942</ele>
        <time>2022-12-29T09:43:11.890Z</time>
      </trkpt>
      <trkpt lat="44.25253" lon="0.23634">
        <ele>208.693719</ele>
        <time>2022-12-29T09:43:14.871Z</time>
      </trkpt>
      <trkpt lat="44.25258" lon="0.23648">
        <ele>208.073747</ele>
        <time>2022-12-29T09:43:18.894Z</time>
      </trkpt>
      <trkpt lat="44.25263" lon="0.23661">
        <ele>207.494478</ele>
        <time>2022-12-29T09:43:22.898Z</time>
      </trkpt>
      <trkpt lat="44.25267" lon="0.23673">
        <ele>206.952607</ele>
        <time>2022-12-29T09:43:25.877Z</time>
      </trkpt>
      <trkpt lat="44.25271" lon="0.23686">
        <ele>206.432503</ele>
        <time>2022-12-29T09:43:28.895Z</time>
      </trkpt>
      <trkpt lat="44.25275" lon="0.237">
        <ele>205.809151</ele>
        <time>2022-12-29T09:43:31.896Z</time>
      </trkpt>
      <trkpt lat="44.25278" lon="0.23716">
        <ele>205.166036</ele>
        <time>2022-12-29T09:43:34.879Z</time>
      </trkpt>
      <trkpt lat="44.25281" lon="0.23733">
        <ele>204.479796</ele>
        <time>2022-12-29T09:43:37.895Z</time>
      </trkpt>
      <trkpt lat="44.25282" lon="0.23746">
        <ele>203.979755</ele>
        <time>2022-12-29T09:43:39.891Z</time>
      </trkpt>
      <trkpt lat="44.25288" lon="0.23762">
        <ele>203.254684</ele>
        <time>2022-12-29T09:43:42.890Z</time>
      </trkpt>
      <trkpt lat="44.2529" lon="0.23779">
        <ele>202.569544</ele>
        <time>2022-12-29T09:43:45.885Z</time>
      </trkpt>
      <trkpt lat="44.25293" lon="0.23798">
        <ele>201.825584</ele>
        <time>2022-12-29T09:43:48.897Z</time>
      </trkpt>
      <trkpt lat="44.25295" lon="0.23816">
        <ele>201.11839</ele>
        <time>2022-12-29T09:43:51.893Z</time>
      </trkpt>
      <trkpt lat="44.253" lon="0.23831">
        <ele>200.689456</ele>
        <time>2022-12-29T09:43:54.896Z</time>
      </trkpt>
      <trkpt lat="44.25304" lon="0.23847">
        <ele>200.408546</ele>
        <time>2022-12-29T09:43:57.892Z</time>
      </trkpt>
      <trkpt lat="44.25309" lon="0.23864">
        <ele>200.100898</ele>
        <time>2022-12-29T09:44:00.876Z</time>
      </trkpt>
      <trkpt lat="44.25315" lon="0.2388">
        <ele>199.807456</ele>
        <time>2022-12-29T09:44:03.861Z</time>
      </trkpt>
      <trkpt lat="44.2532" lon="0.23895">
        <ele>199.520336</ele>
        <time>2022-12-29T09:44:06.895Z</time>
      </trkpt>
      <trkpt lat="44.25325" lon="0.23907">
        <ele>199.307223</ele>
        <time>2022-12-29T09:44:08.893Z</time>
      </trkpt>
      <trkpt lat="44.25331" lon="0.23923">
        <ele>198.990172</ele>
        <time>2022-12-29T09:44:11.894Z</time>
      </trkpt>
      <trkpt lat="44.25337" lon="0.23935">
        <ele>198.751634</ele>
        <time>2022-12-29T09:44:13.886Z</time>
      </trkpt>
      <trkpt lat="44.25344" lon="0.23951">
        <ele>198.434855</ele>
        <time>2022-12-29T09:44:16.890Z</time>
      </trkpt>
      <trkpt lat="44.2535" lon="0.23968">
        <ele>198.119766</ele>
        <time>2022-12-29T09:44:19.874Z</time>
      </trkpt>
      <trkpt lat="44.25356" lon="0.2398">
        <ele>197.887951</ele>
        <time>2022-12-29T09:44:21.869Z</time>
      </trkpt>
      <trkpt lat="44.2536" lon="0.23992">
        <ele>197.670523</ele>
        <time>2022-12-29T09:44:23.872Z</time>
      </trkpt>
      <trkpt lat="44.25364" lon="0.24004">
        <ele>197.449869</ele>
        <time>2022-12-29T09:44:25.867Z</time>
      </trkpt>
      <trkpt lat="44.25364" lon="0.24017">
        <ele>197.225919</ele>
        <time>2022-12-29T09:44:27.873Z</time>
      </trkpt>
      <trkpt lat="44.25365" lon="0.24031">
        <ele>197.00244</ele>
        <time>2022-12-29T09:44:29.874Z</time>
      </trkpt>
      <trkpt lat="44.25366" lon="0.24047">
        <ele>196.72432</ele>
        <time>2022-12-29T09:44:32.879Z</time>
      </trkpt>
      <trkpt lat="44.25364" lon="0.24062">
        <ele>196.117497</ele>
        <time>2022-12-29T09:44:35.866Z</time>
      </trkpt>
      <trkpt lat="44.2536" lon="0.24078">
        <ele>195.431045</ele>
        <time>2022-12-29T09:44:38.866Z</time>
      </trkpt>
      <trkpt lat="44.25357" lon="0.24092">
        <ele>194.751541</ele>
        <time>2022-12-29T09:44:41.888Z</time>
      </trkpt>
      <trkpt lat="44.25352" lon="0.24104">
        <ele>194.200214</ele>
        <time>2022-12-29T09:44:43.866Z</time>
      </trkpt>
      <trkpt lat="44.25348" lon="0.24115">
        <ele>193.624212</ele>
        <time>2022-12-29T09:44:45.887Z</time>
      </trkpt>
      <trkpt lat="44.25343" lon="0.24127">
        <ele>193.035951</ele>
        <time>2022-12-29T09:44:47.890Z</time>
      </trkpt>
      <trkpt lat="44.25338" lon="0.24139">
        <ele>192.443897</ele>
        <time>2022-12-29T09:44:49.869Z</time>
      </trkpt>
      <trkpt lat="44.2533" lon="0.24155">
        <ele>191.61414</ele>
        <time>2022-12-29T09:44:52.879Z</time>
      </trkpt>
      <trkpt lat="44.25326" lon="0.24166">
        <ele>191.057947</ele>
        <time>2022-12-29T09:44:54.882Z</time>
      </trkpt>
      <trkpt lat="44.25321" lon="0.24177">
        <ele>190.518591</ele>
        <time>2022-12-29T09:44:56.898Z</time>
      </trkpt>
      <trkpt lat="44.25315" lon="0.24192">
        <ele>189.770784</ele>
        <time>2022-12-29T09:44:59.894Z</time>
      </trkpt>
      <trkpt lat="44.25309" lon="0.24206">
        <ele>189.058317</ele>
        <time>2022-12-29T09:45:02.890Z</time>
      </trkpt>
      <trkpt lat="44.25304" lon="0.2422">
        <ele>188.387171</ele>
        <time>2022-12-29T09:45:05.872Z</time>
      </trkpt>
      <trkpt lat="44.25299" lon="0.24234">
        <ele>187.698673</ele>
        <time>2022-12-29T09:45:08.883Z</time>
      </trkpt>
      <trkpt lat="44.25292" lon="0.24247">
        <ele>187.013459</ele>
        <time>2022-12-29T09:45:11.893Z</time>
      </trkpt>
      <trkpt lat="44.25286" lon="0.24262">
        <ele>186.252047</ele>
        <time>2022-12-29T09:45:14.897Z</time>
      </trkpt>
      <trkpt lat="44.25279" lon="0.24276">
        <ele>185.483013</ele>
        <time>2022-12-29T09:45:17.891Z</time>
      </trkpt>
      <trkpt lat="44.25272" lon="0.2429">
        <ele>184.739278</ele>
        <time>2022-12-29T09:45:20.887Z</time>
      </trkpt>
      <trkpt lat="44.25267" lon="0.24303">
        <ele>184.049371</ele>
        <time>2022-12-29T09:45:23.885Z</time>
      </trkpt>
      <trkpt lat="44.2526" lon="0.24316">
        <ele>183.320783</ele>
        <time>2022-12-29T09:45:26.892Z</time>
      </trkpt>
      <trkpt lat="44.25253" lon="0.24329">
        <ele>182.577294</ele>
        <time>2022-12-29T09:45:29.883Z</time>
      </trkpt>
      <trkpt lat="44.25248" lon="0.24345">
        <ele>181.765473</ele>
        <time>2022-12-29T09:45:32.884Z</time>
      </trkpt>
      <trkpt lat="44.25241" lon="0.24361">
        <ele>180.926399</ele>
        <time>2022-12-29T09:45:35.880Z</time>
      </trkpt>
      <trkpt lat="44.25235" lon="0.24376">
        <ele>180.116115</ele>
        <time>2022-12-29T09:45:38.880Z</time>
      </trkpt>
      <trkpt lat="44.25229" lon="0.24391">
        <ele>179.322552</ele>
        <time>2022-12-29T09:45:41.883Z</time>
      </trkpt>
      <trkpt lat="44.25223" lon="0.24407">
        <ele>178.500709</ele>
        <time>2022-12-29T09:45:44.888Z</time>
      </trkpt>
      <trkpt lat="44.25217" lon="0.24422">
        <ele>177.674523</ele>
        <time>2022-12-29T09:45:47.892Z</time>
      </trkpt>
      <trkpt lat="44.2521" lon="0.24437">
        <ele>176.898455</ele>
        <time>2022-12-29T09:45:50.897Z</time>
      </trkpt>
      <trkpt lat="44.25203" lon="0.24451">
        <ele>176.110127</ele>
        <time>2022-12-29T09:45:53.884Z</time>
      </trkpt>
      <trkpt lat="44.25196" lon="0.24465">
        <ele>175.284406</ele>
        <time>2022-12-29T09:45:56.887Z</time>
      </trkpt>
      <trkpt lat="44.25189" lon="0.24481">
        <ele>174.431119</ele>
        <time>2022-12-29T09:45:59.895Z</time>
      </trkpt>
      <trkpt lat="44.25182" lon="0.24496">
        <ele>173.901093</ele>
        <time>2022-12-29T09:46:02.874Z</time>
      </trkpt>
      <trkpt lat="44.25175" lon="0.2451">
        <ele>173.451284</ele>
        <time>2022-12-29T09:46:05.890Z</time>
      </trkpt>
      <trkpt lat="44.25168" lon="0.24523">
        <ele>173.008598</ele>
        <time>2022-12-29T09:46:08.895Z</time>
      </trkpt>
      <trkpt lat="44.25162" lon="0.24538">
        <ele>172.561155</ele>
        <time>2022-12-29T09:46:11.889Z</time>
      </trkpt>
      <trkpt lat="44.25156" lon="0.24551">
        <ele>172.143585</ele>
        <time>2022-12-29T09:46:14.896Z</time>
      </trkpt>
      <trkpt lat="44.2515" lon="0.24565">
        <ele>171.704531</ele>
        <time>2022-12-29T09:46:17.897Z</time>
      </trkpt>
      <trkpt lat="44.25144" lon="0.24579">
        <ele>171.272656</ele>
        <time>2022-12-29T09:46:20.888Z</time>
      </trkpt>
      <trkpt lat="44.25139" lon="0.24592">
        <ele>170.866994</ele>
        <time>2022-12-29T09:46:23.885Z</time>
      </trkpt>
      <trkpt lat="44.25133" lon="0.24606">
        <ele>170.440652</ele>
        <time>2022-12-29T09:46:26.894Z</time>
      </trkpt>
      <trkpt lat="44.25126" lon="0.24619">
        <ele>170.014848</ele>
        <time>2022-12-29T09:46:29.895Z</time>
      </trkpt>
      <trkpt lat="44.25121" lon="0.24632">
        <ele>169.610566</ele>
        <time>2022-12-29T09:46:32.885Z</time>
      </trkpt>
      <trkpt lat="44.25116" lon="0.24643">
        <ele>169.257982</ele>
        <time>2022-12-29T09:46:35.895Z</time>
      </trkpt>
      <trkpt lat="44.2511" lon="0.24656">
        <ele>168.844938</ele>
        <time>2022-12-29T09:46:38.888Z</time>
      </trkpt>
      <trkpt lat="44.25103" lon="0.24669">
        <ele>168.430436</ele>
        <time>2022-12-29T09:46:41.893Z</time>
      </trkpt>
      <trkpt lat="44.25097" lon="0.24682">
        <ele>168.004972</ele>
        <time>2022-12-29T09:46:44.881Z</time>
      </trkpt>
      <trkpt lat="44.25091" lon="0.24695">
        <ele>167.608458</ele>
        <time>2022-12-29T09:46:47.890Z</time>
      </trkpt>
      <trkpt lat="44.25086" lon="0.24708">
        <ele>167.496044</ele>
        <time>2022-12-29T09:46:50.875Z</time>
      </trkpt>
      <trkpt lat="44.25081" lon="0.24719">
        <ele>167.412717</ele>
        <time>2022-12-29T09:46:53.884Z</time>
      </trkpt>
      <trkpt lat="44.25075" lon="0.24733">
        <ele>167.312063</ele>
        <time>2022-12-29T09:46:57.888Z</time>
      </trkpt>
      <trkpt lat="44.2507" lon="0.24745">
        <ele>167.22647</ele>
        <time>2022-12-29T09:47:01.879Z</time>
      </trkpt>
      <trkpt lat="44.25068" lon="0.24759">
        <ele>167.135179</ele>
        <time>2022-12-29T09:47:05.869Z</time>
      </trkpt>
      <trkpt lat="44.25068" lon="0.24774">
        <ele>167.040139</ele>
        <time>2022-12-29T09:47:09.875Z</time>
      </trkpt>
      <trkpt lat="44.25071" lon="0.24789">
        <ele>166.94358</ele>
        <time>2022-12-29T09:47:13.865Z</time>
      </trkpt>
      <trkpt lat="44.25075" lon="0.24801">
        <ele>166.865079</ele>
        <time>2022-12-29T09:47:16.878Z</time>
      </trkpt>
      <trkpt lat="44.2508" lon="0.24815">
        <ele>166.769117</ele>
        <time>2022-12-29T09:47:20.886Z</time>
      </trkpt>
      <trkpt lat="44.25082" lon="0.2483">
        <ele>166.671953</ele>
        <time>2022-12-29T09:47:24.879Z</time>
      </trkpt>
      <trkpt lat="44.25088" lon="0.24843">
        <ele>166.574992</ele>
        <time>2022-12-29T09:47:28.879Z</time>
      </trkpt>
      <trkpt lat="44.25091" lon="0.24856">
        <ele>166.492364</ele>
        <time>2022-12-29T09:47:31.897Z</time>
      </trkpt>
      <trkpt lat="44.25095" lon="0.2487">
        <ele>166.396835</ele>
        <time>2022-12-29T09:47:34.882Z</time>
      </trkpt>
      <trkpt lat="44.25099" lon="0.24885">
        <ele>166.296916</ele>
        <time>2022-12-29T09:47:37.893Z</time>
      </trkpt>
      <trkpt lat="44.25102" lon="0.24898">
        <ele>166.212506</ele>
        <time>2022-12-29T09:47:40.890Z</time>
      </trkpt>
      <trkpt lat="44.25103" lon="0.24914">
        <ele>166.1134</ele>
        <time>2022-12-29T09:47:44.885Z</time>
      </trkpt>
      <trkpt lat="44.25103" lon="0.24926">
        <ele>166.03466</ele>
        <time>2022-12-29T09:47:47.874Z</time>
      </trkpt>
      <trkpt lat="44.25101" lon="0.24939">
        <ele>166.535045</ele>
        <time>2022-12-29T09:47:50.873Z</time>
      </trkpt>
      <trkpt lat="44.25097" lon="0.24951">
        <ele>167.225151</ele>
        <time>2022-12-29T09:47:55.867Z</time>
      </trkpt>
      <trkpt lat="44.25092" lon="0.24963">
        <ele>167.893602</ele>
        <time>2022-12-29T09:47:59.892Z</time>
      </trkpt>
      <trkpt lat="44.25085" lon="0.24974">
        <ele>168.646429</ele>
        <time>2022-12-29T09:48:04.883Z</time>
      </trkpt>
      <trkpt lat="44.25079" lon="0.24984">
        <ele>169.334847</ele>
        <time>2022-12-29T09:48:09.896Z</time>
      </trkpt>
      <trkpt lat="44.25072" lon="0.24995">
        <ele>170.077156</ele>
        <time>2022-12-29T09:48:15.876Z</time>
      </trkpt>
      <trkpt lat="44.25065" lon="0.25005">
        <ele>170.816072</ele>
        <time>2022-12-29T09:48:22.866Z</time>
      </trkpt>
      <trkpt lat="44.25059" lon="0.25016">
        <ele>171.476689</ele>
        <time>2022-12-29T09:48:28.866Z</time>
      </trkpt>
      <trkpt lat="44.25054" lon="0.25026">
        <ele>172.141211</ele>
        <time>2022-12-29T09:48:34.873Z</time>
      </trkpt>
      <trkpt lat="44.25047" lon="0.25036">
        <ele>172.823547</ele>
        <time>2022-12-29T09:48:39.872Z</time>
      </trkpt>
      <trkpt lat="44.25042" lon="0.25048">
        <ele>173.556865</ele>
        <time>2022-12-29T09:48:45.872Z</time>
      </trkpt>
      <trkpt lat="44.25035" lon="0.25059">
        <ele>174.313329</ele>
        <time>2022-12-29T09:48:50.872Z</time>
      </trkpt>
      <trkpt lat="44.25032" lon="0.25073">
        <ele>175.03559</ele>
        <time>2022-12-29T09:48:56.867Z</time>
      </trkpt>
      <trkpt lat="44.25034" lon="0.25088">
        <ele>175.789109</ele>
        <time>2022-12-29T09:49:02.870Z</time>
      </trkpt>
      <trkpt lat="44.2504" lon="0.25099">
        <ele>176.537961</ele>
        <time>2022-12-29T09:49:09.871Z</time>
      </trkpt>
      <trkpt lat="44.25048" lon="0.25108">
        <ele>177.230663</ele>
        <time>2022-12-29T09:49:17.873Z</time>
      </trkpt>
      <trkpt lat="44.25057" lon="0.25114">
        <ele>177.963654</ele>
        <time>2022-12-29T09:49:25.866Z</time>
      </trkpt>
      <trkpt lat="44.25066" lon="0.25119">
        <ele>178.652641</ele>
        <time>2022-12-29T09:49:33.869Z</time>
      </trkpt>
      <trkpt lat="44.25074" lon="0.25125">
        <ele>179.107996</ele>
        <time>2022-12-29T09:49:40.875Z</time>
      </trkpt>
      <trkpt lat="44.25083" lon="0.25131">
        <ele>179.521939</ele>
        <time>2022-12-29T09:49:46.878Z</time>
      </trkpt>
      <trkpt lat="44.25092" lon="0.25139">
        <ele>179.95543</ele>
        <time>2022-12-29T09:49:51.873Z</time>
      </trkpt>
      <trkpt lat="44.25101" lon="0.25146">
        <ele>180.385944</ele>
        <time>2022-12-29T09:49:57.873Z</time>
      </trkpt>
      <trkpt lat="44.2511" lon="0.25152">
        <ele>180.778817</ele>
        <time>2022-12-29T09:50:03.869Z</time>
      </trkpt>
      <trkpt lat="44.25118" lon="0.2516">
        <ele>181.199848</ele>
        <time>2022-12-29T09:50:08.875Z</time>
      </trkpt>
      <trkpt lat="44.25126" lon="0.2517">
        <ele>181.632315</ele>
        <time>2022-12-29T09:50:14.872Z</time>
      </trkpt>
      <trkpt lat="44.25134" lon="0.25178">
        <ele>182.021746</ele>
        <time>2022-12-29T09:50:19.871Z</time>
      </trkpt>
      <trkpt lat="44.25141" lon="0.25187">
        <ele>182.414874</ele>
        <time>2022-12-29T09:50:24.872Z</time>
      </trkpt>
      <trkpt lat="44.25148" lon="0.25196">
        <ele>182.799137</ele>
        <time>2022-12-29T09:50:29.874Z</time>
      </trkpt>
      <trkpt lat="44.25155" lon="0.25204">
        <ele>183.174252</ele>
        <time>2022-12-29T09:50:34.890Z</time>
      </trkpt>
      <trkpt lat="44.25162" lon="0.25213">
        <ele>183.56629</ele>
        <time>2022-12-29T09:50:39.872Z</time>
      </trkpt>
      <trkpt lat="44.25169" lon="0.25222">
        <ele>183.95572</ele>
        <time>2022-12-29T09:50:44.894Z</time>
      </trkpt>
      <trkpt lat="44.25175" lon="0.25234">
        <ele>184.388641</ele>
        <time>2022-12-29T09:50:50.867Z</time>
      </trkpt>
      <trkpt lat="44.25181" lon="0.25245">
        <ele>184.787099</ele>
        <time>2022-12-29T09:50:56.879Z</time>
      </trkpt>
      <trkpt lat="44.25187" lon="0.25254">
        <ele>185.158508</ele>
        <time>2022-12-29T09:51:01.868Z</time>
      </trkpt>
      <trkpt lat="44.25192" lon="0.25265">
        <ele>185.544652</ele>
        <time>2022-12-29T09:51:06.872Z</time>
      </trkpt>
      <trkpt lat="44.25198" lon="0.25277">
        <ele>185.956693</ele>
        <time>2022-12-29T09:51:11.879Z</time>
      </trkpt>
      <trkpt lat="44.25202" lon="0.25289">
        <ele>186.365466</ele>
        <time>2022-12-29T09:51:16.863Z</time>
      </trkpt>
      <trkpt lat="44.25206" lon="0.25301">
        <ele>186.783398</ele>
        <time>2022-12-29T09:51:21.870Z</time>
      </trkpt>
      <trkpt lat="44.2521" lon="0.25314">
        <ele>187.216749</ele>
        <time>2022-12-29T09:51:26.888Z</time>
      </trkpt>
      <trkpt lat="44.25213" lon="0.25326">
        <ele>187.632951</ele>
        <time>2022-12-29T09:51:31.880Z</time>
      </trkpt>
      <trkpt lat="44.25216" lon="0.2534">
        <ele>188.074039</ele>
        <time>2022-12-29T09:51:37.878Z</time>
      </trkpt>
      <trkpt lat="44.25217" lon="0.25353">
        <ele>188.48581</ele>
        <time>2022-12-29T09:51:42.870Z</time>
      </trkpt>
      <trkpt lat="44.25218" lon="0.25367">
        <ele>188.919954</ele>
        <time>2022-12-29T09:51:48.876Z</time>
      </trkpt>
      <trkpt lat="44.25218" lon="0.2538">
        <ele>189.354277</ele>
        <time>2022-12-29T09:51:53.873Z</time>
      </trkpt>
      <trkpt lat="44.25216" lon="0.25393">
        <ele>189.760982</ele>
        <time>2022-12-29T09:51:58.866Z</time>
      </trkpt>
      <trkpt lat="44.25214" lon="0.25407">
        <ele>190.194681</ele>
        <time>2022-12-29T09:52:04.863Z</time>
      </trkpt>
      <trkpt lat="44.25213" lon="0.25419">
        <ele>190.592932</ele>
        <time>2022-12-29T09:52:09.872Z</time>
      </trkpt>
      <trkpt lat="44.25213" lon="0.25432">
        <ele>190.995066</ele>
        <time>2022-12-29T09:52:14.874Z</time>
      </trkpt>
      <trkpt lat="44.25215" lon="0.25445">
        <ele>191.413645</ele>
        <time>2022-12-29T09:52:19.871Z</time>
      </trkpt>
      <trkpt lat="44.25217" lon="0.2546">
        <ele>191.896868</ele>
        <time>2022-12-29T09:52:24.870Z</time>
      </trkpt>
      <trkpt lat="44.25221" lon="0.25474">
        <ele>192.368768</ele>
        <time>2022-12-29T09:52:29.874Z</time>
      </trkpt>
      <trkpt lat="44.25227" lon="0.25486">
        <ele>192.831033</ele>
        <time>2022-12-29T09:52:33.867Z</time>
      </trkpt>
      <trkpt lat="44.25232" lon="0.25498">
        <ele>193.272953</ele>
        <time>2022-12-29T09:52:38.884Z</time>
      </trkpt>
      <trkpt lat="44.25239" lon="0.25508">
        <ele>193.688972</ele>
        <time>2022-12-29T09:52:43.864Z</time>
      </trkpt>
      <trkpt lat="44.25245" lon="0.2552">
        <ele>194.091445</ele>
        <time>2022-12-29T09:52:49.872Z</time>
      </trkpt>
      <trkpt lat="44.25252" lon="0.25533">
        <ele>194.129528</ele>
        <time>2022-12-29T09:52:54.891Z</time>
      </trkpt>
      <trkpt lat="44.25257" lon="0.25546">
        <ele>194.164824</ele>
        <time>2022-12-29T09:52:59.884Z</time>
      </trkpt>
      <trkpt lat="44.25261" lon="0.25557">
        <ele>194.195861</ele>
        <time>2022-12-29T09:53:04.887Z</time>
      </trkpt>
      <trkpt lat="44.2526" lon="0.25571">
        <ele>194.229312</ele>
        <time>2022-12-29T09:53:09.873Z</time>
      </trkpt>
      <trkpt lat="44.2526" lon="0.25584">
        <ele>194.260266</ele>
        <time>2022-12-29T09:53:13.886Z</time>
      </trkpt>
      <trkpt lat="44.25259" lon="0.25598">
        <ele>194.291967</ele>
        <time>2022-12-29T09:53:16.889Z</time>
      </trkpt>
      <trkpt lat="44.25256" lon="0.25612">
        <ele>194.327532</ele>
        <time>2022-12-29T09:53:21.883Z</time>
      </trkpt>
      <trkpt lat="44.25253" lon="0.25627">
        <ele>194.365417</ele>
        <time>2022-12-29T09:53:25.871Z</time>
      </trkpt>
      <trkpt lat="44.25253" lon="0.25641">
        <ele>194.398377</ele>
        <time>2022-12-29T09:53:28.868Z</time>
      </trkpt>
      <trkpt lat="44.25254" lon="0.25657">
        <ele>194.435968</ele>
        <time>2022-12-29T09:53:31.879Z</time>
      </trkpt>
      <trkpt lat="44.25254" lon="0.25674">
        <ele>194.477536</ele>
        <time>2022-12-29T09:53:34.886Z</time>
      </trkpt>
      <trkpt lat="44.25254" lon="0.25687">
        <ele>194.508122</ele>
        <time>2022-12-29T09:53:36.886Z</time>
      </trkpt>
      <trkpt lat="44.25256" lon="0.257">
        <ele>194.540388</ele>
        <time>2022-12-29T09:53:38.875Z</time>
      </trkpt>
      <trkpt lat="44.25258" lon="0.25714">
        <ele>194.572544</ele>
        <time>2022-12-29T09:53:40.870Z</time>
      </trkpt>
      <trkpt lat="44.25258" lon="0.25729">
        <ele>194.609635</ele>
        <time>2022-12-29T09:53:42.868Z</time>
      </trkpt>
      <trkpt lat="44.2526" lon="0.25743">
        <ele>194.643313</ele>
        <time>2022-12-29T09:53:44.888Z</time>
      </trkpt>
      <trkpt lat="44.25263" lon="0.25757">
        <ele>194.678004</ele>
        <time>2022-12-29T09:53:46.898Z</time>
      </trkpt>
      <trkpt lat="44.25263" lon="0.25772">
        <ele>194.517968</ele>
        <time>2022-12-29T09:53:48.891Z</time>
      </trkpt>
      <trkpt lat="44.25265" lon="0.25785">
        <ele>194.333749</ele>
        <time>2022-12-29T09:53:50.895Z</time>
      </trkpt>
      <trkpt lat="44.25266" lon="0.258">
        <ele>194.122862</ele>
        <time>2022-12-29T09:53:52.893Z</time>
      </trkpt>
      <trkpt lat="44.25267" lon="0.25815">
        <ele>193.919545</ele>
        <time>2022-12-29T09:53:54.883Z</time>
      </trkpt>
      <trkpt lat="44.25269" lon="0.2583">
        <ele>193.697626</ele>
        <time>2022-12-29T09:53:56.885Z</time>
      </trkpt>
      <trkpt lat="44.25271" lon="0.25844">
        <ele>193.502588</ele>
        <time>2022-12-29T09:53:58.896Z</time>
      </trkpt>
      <trkpt lat="44.25272" lon="0.25858">
        <ele>193.301397</ele>
        <time>2022-12-29T09:54:00.876Z</time>
      </trkpt>
      <trkpt lat="44.25274" lon="0.25873">
        <ele>193.092489</ele>
        <time>2022-12-29T09:54:02.870Z</time>
      </trkpt>
      <trkpt lat="44.25275" lon="0.25887">
        <ele>192.891951</ele>
        <time>2022-12-29T09:54:04.893Z</time>
      </trkpt>
      <trkpt lat="44.25277" lon="0.25901">
        <ele>192.69231</ele>
        <time>2022-12-29T09:54:06.889Z</time>
      </trkpt>
      <trkpt lat="44.25279" lon="0.25915">
        <ele>192.501793</ele>
        <time>2022-12-29T09:54:08.889Z</time>
      </trkpt>
      <trkpt lat="44.25279" lon="0.25928">
        <ele>192.318786</ele>
        <time>2022-12-29T09:54:10.889Z</time>
      </trkpt>
      <trkpt lat="44.25282" lon="0.25941">
        <ele>192.119587</ele>
        <time>2022-12-29T09:54:12.885Z</time>
      </trkpt>
      <trkpt lat="44.25284" lon="0.25957">
        <ele>191.899348</ele>
        <time>2022-12-29T09:54:14.880Z</time>
      </trkpt>
      <trkpt lat="44.25288" lon="0.25972">
        <ele>191.669951</ele>
        <time>2022-12-29T09:54:16.897Z</time>
      </trkpt>
      <trkpt lat="44.25292" lon="0.25986">
        <ele>191.464964</ele>
        <time>2022-12-29T09:54:18.897Z</time>
      </trkpt>
      <trkpt lat="44.25293" lon="0.26">
        <ele>191.266543</ele>
        <time>2022-12-29T09:54:20.889Z</time>
      </trkpt>
      <trkpt lat="44.25295" lon="0.26015">
        <ele>190.974375</ele>
        <time>2022-12-29T09:54:22.894Z</time>
      </trkpt>
      <trkpt lat="44.25297" lon="0.26031">
        <ele>190.616081</ele>
        <time>2022-12-29T09:54:24.880Z</time>
      </trkpt>
      <trkpt lat="44.25299" lon="0.26047">
        <ele>190.235647</ele>
        <time>2022-12-29T09:54:26.897Z</time>
      </trkpt>
      <trkpt lat="44.25301" lon="0.26064">
        <ele>189.850539</ele>
        <time>2022-12-29T09:54:28.885Z</time>
      </trkpt>
      <trkpt lat="44.25301" lon="0.26079">
        <ele>189.500529</ele>
        <time>2022-12-29T09:54:30.882Z</time>
      </trkpt>
      <trkpt lat="44.25301" lon="0.26093">
        <ele>189.184818</ele>
        <time>2022-12-29T09:54:32.895Z</time>
      </trkpt>
      <trkpt lat="44.25301" lon="0.26107">
        <ele>188.884856</ele>
        <time>2022-12-29T09:54:34.886Z</time>
      </trkpt>
      <trkpt lat="44.25303" lon="0.26126">
        <ele>188.451345</ele>
        <time>2022-12-29T09:54:37.897Z</time>
      </trkpt>
      <trkpt lat="44.25302" lon="0.26144">
        <ele>188.042069</ele>
        <time>2022-12-29T09:54:40.876Z</time>
      </trkpt>
      <trkpt lat="44.25302" lon="0.26162">
        <ele>187.633235</ele>
        <time>2022-12-29T09:54:43.889Z</time>
      </trkpt>
      <trkpt lat="44.25304" lon="0.26178">
        <ele>187.266728</ele>
        <time>2022-12-29T09:54:46.896Z</time>
      </trkpt>
      <trkpt lat="44.25305" lon="0.2619">
        <ele>186.970845</ele>
        <time>2022-12-29T09:54:49.894Z</time>
      </trkpt>
      <trkpt lat="44.25307" lon="0.26203">
        <ele>186.683648</ele>
        <time>2022-12-29T09:54:53.894Z</time>
      </trkpt>
      <trkpt lat="44.2531" lon="0.26216">
        <ele>186.374391</ele>
        <time>2022-12-29T09:54:57.877Z</time>
      </trkpt>
      <trkpt lat="44.25313" lon="0.26231">
        <ele>186.012725</ele>
        <time>2022-12-29T09:55:01.888Z</time>
      </trkpt>
      <trkpt lat="44.25316" lon="0.26243">
        <ele>185.713902</ele>
        <time>2022-12-29T09:55:04.896Z</time>
      </trkpt>
      <trkpt lat="44.2532" lon="0.26257">
        <ele>185.451243</ele>
        <time>2022-12-29T09:55:07.895Z</time>
      </trkpt>
      <trkpt lat="44.25324" lon="0.26269">
        <ele>185.367563</ele>
        <time>2022-12-29T09:55:10.898Z</time>
      </trkpt>
      <trkpt lat="44.25327" lon="0.26283">
        <ele>185.268764</ele>
        <time>2022-12-29T09:55:14.878Z</time>
      </trkpt>
      <trkpt lat="44.25331" lon="0.26299">
        <ele>185.161059</ele>
        <time>2022-12-29T09:55:18.882Z</time>
      </trkpt>
      <trkpt lat="44.25334" lon="0.26313">
        <ele>185.07105</ele>
        <time>2022-12-29T09:55:21.896Z</time>
      </trkpt>
      <trkpt lat="44.25337" lon="0.26326">
        <ele>184.979167</ele>
        <time>2022-12-29T09:55:24.885Z</time>
      </trkpt>
      <trkpt lat="44.25341" lon="0.2634">
        <ele>184.885784</ele>
        <time>2022-12-29T09:55:27.897Z</time>
      </trkpt>
      <trkpt lat="44.25343" lon="0.26353">
        <ele>184.795785</ele>
        <time>2022-12-29T09:55:30.888Z</time>
      </trkpt>
      <trkpt lat="44.25348" lon="0.26366">
        <ele>184.705144</ele>
        <time>2022-12-29T09:55:33.890Z</time>
      </trkpt>
      <trkpt lat="44.25352" lon="0.26378">
        <ele>184.617218</ele>
        <time>2022-12-29T09:55:36.883Z</time>
      </trkpt>
      <trkpt lat="44.25356" lon="0.2639">
        <ele>184.530834</ele>
        <time>2022-12-29T09:55:39.894Z</time>
      </trkpt>
      <trkpt lat="44.25362" lon="0.26403">
        <ele>184.433631</ele>
        <time>2022-12-29T09:55:42.896Z</time>
      </trkpt>
      <trkpt lat="44.25368" lon="0.26415">
        <ele>184.338363</ele>
        <time>2022-12-29T09:55:45.892Z</time>
      </trkpt>
      <trkpt lat="44.25375" lon="0.26426">
        <ele>184.245672</ele>
        <time>2022-12-29T09:55:48.875Z</time>
      </trkpt>
      <trkpt lat="44.25381" lon="0.26435">
        <ele>184.164194</ele>
        <time>2022-12-29T09:55:51.889Z</time>
      </trkpt>
      <trkpt lat="44.25386" lon="0.26446">
        <ele>184.081496</ele>
        <time>2022-12-29T09:55:54.864Z</time>
      </trkpt>
      <trkpt lat="44.25392" lon="0.26458">
        <ele>183.98569</ele>
        <time>2022-12-29T09:55:57.868Z</time>
      </trkpt>
      <trkpt lat="44.25398" lon="0.26471">
        <ele>183.886144</ele>
        <time>2022-12-29T09:56:00.869Z</time>
      </trkpt>
      <trkpt lat="44.25403" lon="0.26484">
        <ele>183.539144</ele>
        <time>2022-12-29T09:56:03.868Z</time>
      </trkpt>
      <trkpt lat="44.25406" lon="0.26498">
        <ele>183.108169</ele>
        <time>2022-12-29T09:56:06.886Z</time>
      </trkpt>
      <trkpt lat="44.25411" lon="0.2651">
        <ele>182.702334</ele>
        <time>2022-12-29T09:56:09.885Z</time>
      </trkpt>
      <trkpt lat="44.25415" lon="0.26522">
        <ele>182.301851</ele>
        <time>2022-12-29T09:56:12.896Z</time>
      </trkpt>
      <trkpt lat="44.25418" lon="0.26534">
        <ele>181.908294</ele>
        <time>2022-12-29T09:56:15.892Z</time>
      </trkpt>
      <trkpt lat="44.2542" lon="0.26546">
        <ele>181.528653</ele>
        <time>2022-12-29T09:56:18.886Z</time>
      </trkpt>
      <trkpt lat="44.25425" lon="0.26559">
        <ele>181.101935</ele>
        <time>2022-12-29T09:56:21.887Z</time>
      </trkpt>
      <trkpt lat="44.2543" lon="0.2657">
        <ele>180.70644</ele>
        <time>2022-12-29T09:56:24.880Z</time>
      </trkpt>
      <trkpt lat="44.25437" lon="0.26579">
        <ele>180.301327</ele>
        <time>2022-12-29T09:56:27.872Z</time>
      </trkpt>
      <trkpt lat="44.25445" lon="0.26588">
        <ele>179.874011</ele>
        <time>2022-12-29T09:56:30.890Z</time>
      </trkpt>
      <trkpt lat="44.25452" lon="0.26596">
        <ele>179.471101</ele>
        <time>2022-12-29T09:56:33.891Z</time>
      </trkpt>
      <trkpt lat="44.25461" lon="0.26604">
        <ele>179.044125</ele>
        <time>2022-12-29T09:56:36.884Z</time>
      </trkpt>
      <trkpt lat="44.2547" lon="0.26613">
        <ele>178.555126</ele>
        <time>2022-12-29T09:56:40.897Z</time>
      </trkpt>
      <trkpt lat="44.25478" lon="0.26622">
        <ele>178.141483</ele>
        <time>2022-12-29T09:56:44.867Z</time>
      </trkpt>
      <trkpt lat="44.25478" lon="0.26635">
        <ele>177.745894</ele>
        <time>2022-12-29T09:56:48.873Z</time>
      </trkpt>
      <trkpt lat="44.25469" lon="0.26643">
        <ele>177.284315</ele>
        <time>2022-12-29T09:56:51.868Z</time>
      </trkpt>
      <trkpt lat="44.2546" lon="0.26648">
        <ele>176.881166</ele>
        <time>2022-12-29T09:56:53.869Z</time>
      </trkpt>
      <trkpt lat="44.2545" lon="0.26652">
        <ele>176.442817</ele>
        <time>2022-12-29T09:56:55.872Z</time>
      </trkpt>
      <trkpt lat="44.25441" lon="0.26654">
        <ele>175.870822</ele>
        <time>2022-12-29T09:56:57.889Z</time>
      </trkpt>
      <trkpt lat="44.25431" lon="0.26658">
        <ele>175.02342</ele>
        <time>2022-12-29T09:56:59.896Z</time>
      </trkpt>
      <trkpt lat="44.2542" lon="0.26662">
        <ele>174.221689</ele>
        <time>2022-12-29T09:57:01.896Z</time>
      </trkpt>
      <trkpt lat="44.2541" lon="0.26665">
        <ele>173.397507</ele>
        <time>2022-12-29T09:57:03.869Z</time>
      </trkpt>
      <trkpt lat="44.254" lon="0.26669">
        <ele>172.568327</ele>
        <time>2022-12-29T09:57:05.894Z</time>
      </trkpt>
      <trkpt lat="44.2539" lon="0.26672">
        <ele>171.832231</ele>
        <time>2022-12-29T09:57:07.896Z</time>
      </trkpt>
      <trkpt lat="44.25382" lon="0.26678">
        <ele>171.126765</ele>
        <time>2022-12-29T09:57:09.895Z</time>
      </trkpt>
      <trkpt lat="44.25371" lon="0.26688">
        <ele>170.081221</ele>
        <time>2022-12-29T09:57:12.868Z</time>
      </trkpt>
      <trkpt lat="44.25364" lon="0.26702">
        <ele>169.143584</ele>
        <time>2022-12-29T09:57:15.870Z</time>
      </trkpt>
      <trkpt lat="44.2536" lon="0.26719">
        <ele>168.143277</ele>
        <time>2022-12-29T09:57:18.876Z</time>
      </trkpt>
      <trkpt lat="44.2536" lon="0.26737">
        <ele>167.182837</ele>
        <time>2022-12-29T09:57:21.875Z</time>
      </trkpt>
      <trkpt lat="44.25363" lon="0.26755">
        <ele>166.180386</ele>
        <time>2022-12-29T09:57:24.889Z</time>
      </trkpt>
      <trkpt lat="44.25364" lon="0.26768">
        <ele>165.434875</ele>
        <time>2022-12-29T09:57:26.890Z</time>
      </trkpt>
      <trkpt lat="44.25367" lon="0.26781">
        <ele>164.684756</ele>
        <time>2022-12-29T09:57:28.897Z</time>
      </trkpt>
      <trkpt lat="44.25368" lon="0.26795">
        <ele>163.914531</ele>
        <time>2022-12-29T09:57:30.896Z</time>
      </trkpt>
      <trkpt lat="44.25371" lon="0.26809">
        <ele>163.0878</ele>
        <time>2022-12-29T09:57:32.884Z</time>
      </trkpt>
      <trkpt lat="44.25373" lon="0.26824">
        <ele>162.225417</ele>
        <time>2022-12-29T09:57:34.890Z</time>
      </trkpt>
      <trkpt lat="44.25374" lon="0.26841">
        <ele>161.18672</ele>
        <time>2022-12-29T09:57:36.890Z</time>
      </trkpt>
      <trkpt lat="44.25376" lon="0.26858">
        <ele>160.112823</ele>
        <time>2022-12-29T09:57:38.882Z</time>
      </trkpt>
      <trkpt lat="44.25377" lon="0.26875">
        <ele>159.034405</ele>
        <time>2022-12-29T09:57:40.878Z</time>
      </trkpt>
      <trkpt lat="44.25378" lon="0.26892">
        <ele>157.953348</ele>
        <time>2022-12-29T09:57:42.890Z</time>
      </trkpt>
      <trkpt lat="44.2538" lon="0.26909">
        <ele>156.88566</ele>
        <time>2022-12-29T09:57:44.891Z</time>
      </trkpt>
      <trkpt lat="44.2538" lon="0.26926">
        <ele>155.835917</ele>
        <time>2022-12-29T09:57:46.896Z</time>
      </trkpt>
      <trkpt lat="44.25381" lon="0.26942">
        <ele>154.860291</ele>
        <time>2022-12-29T09:57:48.882Z</time>
      </trkpt>
      <trkpt lat="44.25381" lon="0.26956">
        <ele>153.976253</ele>
        <time>2022-12-29T09:57:50.881Z</time>
      </trkpt>
      <trkpt lat="44.25382" lon="0.2697">
        <ele>153.06111</ele>
        <time>2022-12-29T09:57:52.894Z</time>
      </trkpt>
      <trkpt lat="44.25383" lon="0.26985">
        <ele>152.147297</ele>
        <time>2022-12-29T09:57:54.895Z</time>
      </trkpt>
      <trkpt lat="44.25383" lon="0.27">
        <ele>151.22287</ele>
        <time>2022-12-29T09:57:56.884Z</time>
      </trkpt>
      <trkpt lat="44.25384" lon="0.27015">
        <ele>150.273267</ele>
        <time>2022-12-29T09:57:58.887Z</time>
      </trkpt>
      <trkpt lat="44.25384" lon="0.2703">
        <ele>149.315832</ele>
        <time>2022-12-29T09:58:00.889Z</time>
      </trkpt>
      <trkpt lat="44.25385" lon="0.27044">
        <ele>148.452434</ele>
        <time>2022-12-29T09:58:02.884Z</time>
      </trkpt>
      <trkpt lat="44.25386" lon="0.27057">
        <ele>147.631457</ele>
        <time>2022-12-29T09:58:04.871Z</time>
      </trkpt>
      <trkpt lat="44.25386" lon="0.2707">
        <ele>146.838148</ele>
        <time>2022-12-29T09:58:06.890Z</time>
      </trkpt>
      <trkpt lat="44.25387" lon="0.27087">
        <ele>146.498724</ele>
        <time>2022-12-29T09:58:09.866Z</time>
      </trkpt>
      <trkpt lat="44.25388" lon="0.27106">
        <ele>146.20316</ele>
        <time>2022-12-29T09:58:12.890Z</time>
      </trkpt>
      <trkpt lat="44.25389" lon="0.2712">
        <ele>145.984777</ele>
        <time>2022-12-29T09:58:14.870Z</time>
      </trkpt>
      <trkpt lat="44.25392" lon="0.27134">
        <ele>145.770857</ele>
        <time>2022-12-29T09:58:16.866Z</time>
      </trkpt>
      <trkpt lat="44.25396" lon="0.27147">
        <ele>145.553258</ele>
        <time>2022-12-29T09:58:18.894Z</time>
      </trkpt>
      <trkpt lat="44.25401" lon="0.27159">
        <ele>145.340823</ele>
        <time>2022-12-29T09:58:20.872Z</time>
      </trkpt>
      <trkpt lat="44.25406" lon="0.27171">
        <ele>145.118509</ele>
        <time>2022-12-29T09:58:22.872Z</time>
      </trkpt>
      <trkpt lat="44.25411" lon="0.27185">
        <ele>144.878697</ele>
        <time>2022-12-29T09:58:24.878Z</time>
      </trkpt>
      <trkpt lat="44.25415" lon="0.27199">
        <ele>144.648929</ele>
        <time>2022-12-29T09:58:26.869Z</time>
      </trkpt>
      <trkpt lat="44.25417" lon="0.27213">
        <ele>144.429527</ele>
        <time>2022-12-29T09:58:28.870Z</time>
      </trkpt>
      <trkpt lat="44.25419" lon="0.27226">
        <ele>144.224575</ele>
        <time>2022-12-29T09:58:30.880Z</time>
      </trkpt>
      <trkpt lat="44.25421" lon="0.27243">
        <ele>143.950844</ele>
        <time>2022-12-29T09:58:33.887Z</time>
      </trkpt>
      <trkpt lat="44.25424" lon="0.2726">
        <ele>143.690061</ele>
        <time>2022-12-29T09:58:36.868Z</time>
      </trkpt>
      <trkpt lat="44.25427" lon="0.27277">
        <ele>143.427231</ele>
        <time>2022-12-29T09:58:39.906Z</time>
      </trkpt>
      <trkpt lat="44.25426" lon="0.27294">
        <ele>143.162987</ele>
        <time>2022-12-29T09:58:42.869Z</time>
      </trkpt>
      <trkpt lat="44.25419" lon="0.27308">
        <ele>142.902921</ele>
        <time>2022-12-29T09:58:45.868Z</time>
      </trkpt>
      <trkpt lat="44.25411" lon="0.27317">
        <ele>143.021653</ele>
        <time>2022-12-29T09:58:48.867Z</time>
      </trkpt>
      <trkpt lat="44.25403" lon="0.27323">
        <ele>143.161721</ele>
        <time>2022-12-29T09:58:51.872Z</time>
      </trkpt>
      <trkpt lat="44.25397" lon="0.27333">
        <ele>143.300121</ele>
        <time>2022-12-29T09:58:54.870Z</time>
      </trkpt>
      <trkpt lat="44.2539" lon="0.27342">
        <ele>143.441446</ele>
        <time>2022-12-29T09:58:57.885Z</time>
      </trkpt>
      <trkpt lat="44.25384" lon="0.27351">
        <ele>143.586522</ele>
        <time>2022-12-29T09:59:01.876Z</time>
      </trkpt>
      <trkpt lat="44.25378" lon="0.27361">
        <ele>143.731254</ele>
        <time>2022-12-29T09:59:06.886Z</time>
      </trkpt>
      <trkpt lat="44.25374" lon="0.27374">
        <ele>143.883925</ele>
        <time>2022-12-29T09:59:11.872Z</time>
      </trkpt>
      <trkpt lat="44.25372" lon="0.27388">
        <ele>144.043827</ele>
        <time>2022-12-29T09:59:16.894Z</time>
      </trkpt>
      <trkpt lat="44.2537" lon="0.27403">
        <ele>144.212612</ele>
        <time>2022-12-29T09:59:21.896Z</time>
      </trkpt>
      <trkpt lat="44.25367" lon="0.27415">
        <ele>144.355798</ele>
        <time>2022-12-29T09:59:26.870Z</time>
      </trkpt>
      <trkpt lat="44.25363" lon="0.27429">
        <ele>144.524106</ele>
        <time>2022-12-29T09:59:31.875Z</time>
      </trkpt>
      <trkpt lat="44.25356" lon="0.27439">
        <ele>144.666218</ele>
        <time>2022-12-29T09:59:35.873Z</time>
      </trkpt>
      <trkpt lat="44.25348" lon="0.27449">
        <ele>144.839541</ele>
        <time>2022-12-29T09:59:39.871Z</time>
      </trkpt>
      <trkpt lat="44.2534" lon="0.2746">
        <ele>145.018513</ele>
        <time>2022-12-29T09:59:43.890Z</time>
      </trkpt>
      <trkpt lat="44.25334" lon="0.27471">
        <ele>145.168867</ele>
        <time>2022-12-29T09:59:46.868Z</time>
      </trkpt>
      <trkpt lat="44.2533" lon="0.27483">
        <ele>145.317841</ele>
        <time>2022-12-29T09:59:49.870Z</time>
      </trkpt>
      <trkpt lat="44.25329" lon="0.27499">
        <ele>145.49059</ele>
        <time>2022-12-29T09:59:52.874Z</time>
      </trkpt>
      <trkpt lat="44.2533" lon="0.27517">
        <ele>145.508068</ele>
        <time>2022-12-29T09:59:55.872Z</time>
      </trkpt>
      <trkpt lat="44.25331" lon="0.27531">
        <ele>144.901597</ele>
        <time>2022-12-29T09:59:57.888Z</time>
      </trkpt>
      <trkpt lat="44.25333" lon="0.27544">
        <ele>144.309676</ele>
        <time>2022-12-29T09:59:59.896Z</time>
      </trkpt>
      <trkpt lat="44.25335" lon="0.27557">
        <ele>143.744593</ele>
        <time>2022-12-29T10:00:01.889Z</time>
      </trkpt>
      <trkpt lat="44.25337" lon="0.2757">
        <ele>143.151173</ele>
        <time>2022-12-29T10:00:03.899Z</time>
      </trkpt>
      <trkpt lat="44.25339" lon="0.27583">
        <ele>142.593059</ele>
        <time>2022-12-29T10:00:05.887Z</time>
      </trkpt>
      <trkpt lat="44.25341" lon="0.27596">
        <ele>142.009445</ele>
        <time>2022-12-29T10:00:07.877Z</time>
      </trkpt>
      <trkpt lat="44.25343" lon="0.2761">
        <ele>141.387424</ele>
        <time>2022-12-29T10:00:09.876Z</time>
      </trkpt>
      <trkpt lat="44.25345" lon="0.27623">
        <ele>140.80381</ele>
        <time>2022-12-29T10:00:11.900Z</time>
      </trkpt>
      <trkpt lat="44.25347" lon="0.27635">
        <ele>140.247033</ele>
        <time>2022-12-29T10:00:13.889Z</time>
      </trkpt>
      <trkpt lat="44.25349" lon="0.27648">
        <ele>139.690256</ele>
        <time>2022-12-29T10:00:15.895Z</time>
      </trkpt>
      <trkpt lat="44.25351" lon="0.2766">
        <ele>139.138982</ele>
        <time>2022-12-29T10:00:17.888Z</time>
      </trkpt>
      <trkpt lat="44.25354" lon="0.27674">
        <ele>138.52298</ele>
        <time>2022-12-29T10:00:19.895Z</time>
      </trkpt>
      <trkpt lat="44.25355" lon="0.27688">
        <ele>137.906188</ele>
        <time>2022-12-29T10:00:21.895Z</time>
      </trkpt>
      <trkpt lat="44.25356" lon="0.27701">
        <ele>137.333388</ele>
        <time>2022-12-29T10:00:23.885Z</time>
      </trkpt>
      <trkpt lat="44.25358" lon="0.27714">
        <ele>136.757949</ele>
        <time>2022-12-29T10:00:25.897Z</time>
      </trkpt>
      <trkpt lat="44.2536" lon="0.27733">
        <ele>135.94705</ele>
        <time>2022-12-29T10:00:28.890Z</time>
      </trkpt>
      <trkpt lat="44.25362" lon="0.27746">
        <ele>135.356132</ele>
        <time>2022-12-29T10:00:30.890Z</time>
      </trkpt>
      <trkpt lat="44.25363" lon="0.2776">
        <ele>134.719216</ele>
        <time>2022-12-29T10:00:32.887Z</time>
      </trkpt>
      <trkpt lat="44.25365" lon="0.27775">
        <ele>134.46499</ele>
        <time>2022-12-29T10:00:34.877Z</time>
      </trkpt>
      <trkpt lat="44.25365" lon="0.27788">
        <ele>134.228048</ele>
        <time>2022-12-29T10:00:36.899Z</time>
      </trkpt>
      <trkpt lat="44.25367" lon="0.27801">
        <ele>134.004218</ele>
        <time>2022-12-29T10:00:38.891Z</time>
      </trkpt>
      <trkpt lat="44.25369" lon="0.27817">
        <ele>133.710381</ele>
        <time>2022-12-29T10:00:41.890Z</time>
      </trkpt>
      <trkpt lat="44.25365" lon="0.27834">
        <ele>133.407976</ele>
        <time>2022-12-29T10:00:44.869Z</time>
      </trkpt>
      <trkpt lat="44.25358" lon="0.27849">
        <ele>133.09115</ele>
        <time>2022-12-29T10:00:47.874Z</time>
      </trkpt>
      <trkpt lat="44.2535" lon="0.27861">
        <ele>132.803498</ele>
        <time>2022-12-29T10:00:50.869Z</time>
      </trkpt>
      <trkpt lat="44.25343" lon="0.27874">
        <ele>132.524996</ele>
        <time>2022-12-29T10:00:53.895Z</time>
      </trkpt>
      <trkpt lat="44.25338" lon="0.27889">
        <ele>132.227837</ele>
        <time>2022-12-29T10:00:56.888Z</time>
      </trkpt>
      <trkpt lat="44.25332" lon="0.27906">
        <ele>131.909273</ele>
        <time>2022-12-29T10:00:59.869Z</time>
      </trkpt>
      <trkpt lat="44.25328" lon="0.27923">
        <ele>131.587501</ele>
        <time>2022-12-29T10:01:02.888Z</time>
      </trkpt>
      <trkpt lat="44.25326" lon="0.27936">
        <ele>131.354393</ele>
        <time>2022-12-29T10:01:04.886Z</time>
      </trkpt>
      <trkpt lat="44.25324" lon="0.27951">
        <ele>131.089733</ele>
        <time>2022-12-29T10:01:06.887Z</time>
      </trkpt>
      <trkpt lat="44.25321" lon="0.27964">
        <ele>130.854866</ele>
        <time>2022-12-29T10:01:08.874Z</time>
      </trkpt>
      <trkpt lat="44.2532" lon="0.27977">
        <ele>130.624636</ele>
        <time>2022-12-29T10:01:10.887Z</time>
      </trkpt>
      <trkpt lat="44.25319" lon="0.27996">
        <ele>130.254148</ele>
        <time>2022-12-29T10:01:13.898Z</time>
      </trkpt>
      <trkpt lat="44.25318" lon="0.28011">
        <ele>129.77482</ele>
        <time>2022-12-29T10:01:15.890Z</time>
      </trkpt>
      <trkpt lat="44.25316" lon="0.28025">
        <ele>129.280065</ele>
        <time>2022-12-29T10:01:17.887Z</time>
      </trkpt>
      <trkpt lat="44.25314" lon="0.28042">
        <ele>128.73986</ele>
        <time>2022-12-29T10:01:19.887Z</time>
      </trkpt>
      <trkpt lat="44.25313" lon="0.28058">
        <ele>128.2062</ele>
        <time>2022-12-29T10:01:21.886Z</time>
      </trkpt>
      <trkpt lat="44.25311" lon="0.28074">
        <ele>127.653753</ele>
        <time>2022-12-29T10:01:23.896Z</time>
      </trkpt>
      <trkpt lat="44.25308" lon="0.28089">
        <ele>127.136157</ele>
        <time>2022-12-29T10:01:25.885Z</time>
      </trkpt>
      <trkpt lat="44.25306" lon="0.28105">
        <ele>126.617919</ele>
        <time>2022-12-29T10:01:27.886Z</time>
      </trkpt>
      <trkpt lat="44.25305" lon="0.2812">
        <ele>126.122614</ele>
        <time>2022-12-29T10:01:29.892Z</time>
      </trkpt>
      <trkpt lat="44.25304" lon="0.28134">
        <ele>125.652121</ele>
        <time>2022-12-29T10:01:31.895Z</time>
      </trkpt>
      <trkpt lat="44.25303" lon="0.28148">
        <ele>125.188687</ele>
        <time>2022-12-29T10:01:33.896Z</time>
      </trkpt>
      <trkpt lat="44.25302" lon="0.28161">
        <ele>124.773981</ele>
        <time>2022-12-29T10:01:35.884Z</time>
      </trkpt>
      <trkpt lat="44.25301" lon="0.28174">
        <ele>124.337451</ele>
        <time>2022-12-29T10:01:37.876Z</time>
      </trkpt>
      <trkpt lat="44.25301" lon="0.28191">
        <ele>123.78457</ele>
        <time>2022-12-29T10:01:40.894Z</time>
      </trkpt>
      <trkpt lat="44.25301" lon="0.28207">
        <ele>123.244907</ele>
        <time>2022-12-29T10:01:43.886Z</time>
      </trkpt>
      <trkpt lat="44.25301" lon="0.28224">
        <ele>122.685501</ele>
        <time>2022-12-29T10:01:46.889Z</time>
      </trkpt>
      <trkpt lat="44.253" lon="0.28243">
        <ele>122.07056</ele>
        <time>2022-12-29T10:01:49.889Z</time>
      </trkpt>
      <trkpt lat="44.253" lon="0.28256">
        <ele>121.690947</ele>
        <time>2022-12-29T10:01:51.894Z</time>
      </trkpt>
      <trkpt lat="44.25298" lon="0.2827">
        <ele>121.292963</ele>
        <time>2022-12-29T10:01:53.876Z</time>
      </trkpt>
      <trkpt lat="44.25297" lon="0.28284">
        <ele>120.872587</ele>
        <time>2022-12-29T10:01:55.888Z</time>
      </trkpt>
      <trkpt lat="44.25296" lon="0.28298">
        <ele>120.478033</ele>
        <time>2022-12-29T10:01:57.888Z</time>
      </trkpt>
      <trkpt lat="44.25295" lon="0.28312">
        <ele>120.083537</ele>
        <time>2022-12-29T10:01:59.884Z</time>
      </trkpt>
      <trkpt lat="44.25294" lon="0.28327">
        <ele>119.642942</ele>
        <time>2022-12-29T10:02:01.894Z</time>
      </trkpt>
      <trkpt lat="44.25293" lon="0.28342">
        <ele>119.212162</ele>
        <time>2022-12-29T10:02:03.886Z</time>
      </trkpt>
      <trkpt lat="44.25294" lon="0.28357">
        <ele>118.786117</ele>
        <time>2022-12-29T10:02:05.893Z</time>
      </trkpt>
      <trkpt lat="44.25295" lon="0.28372">
        <ele>118.358622</ele>
        <time>2022-12-29T10:02:07.872Z</time>
      </trkpt>
      <trkpt lat="44.25296" lon="0.28385">
        <ele>117.991607</ele>
        <time>2022-12-29T10:02:09.888Z</time>
      </trkpt>
      <trkpt lat="44.25297" lon="0.28398">
        <ele>117.62582</ele>
        <time>2022-12-29T10:02:11.884Z</time>
      </trkpt>
      <trkpt lat="44.25298" lon="0.2841">
        <ele>117.266777</ele>
        <time>2022-12-29T10:02:13.888Z</time>
      </trkpt>
      <trkpt lat="44.25299" lon="0.28424">
        <ele>116.886891</ele>
        <time>2022-12-29T10:02:15.892Z</time>
      </trkpt>
      <trkpt lat="44.25301" lon="0.28438">
        <ele>116.47826</ele>
        <time>2022-12-29T10:02:17.887Z</time>
      </trkpt>
      <trkpt lat="44.25302" lon="0.28452">
        <ele>116.071843</ele>
        <time>2022-12-29T10:02:19.887Z</time>
      </trkpt>
      <trkpt lat="44.25304" lon="0.28465">
        <ele>115.691956</ele>
        <time>2022-12-29T10:02:21.894Z</time>
      </trkpt>
      <trkpt lat="44.25305" lon="0.28482">
        <ele>115.217705</ele>
        <time>2022-12-29T10:02:24.894Z</time>
      </trkpt>
      <trkpt lat="44.25303" lon="0.28498">
        <ele>114.742944</ele>
        <time>2022-12-29T10:02:27.871Z</time>
      </trkpt>
      <trkpt lat="44.25297" lon="0.2851">
        <ele>114.326316</ele>
        <time>2022-12-29T10:02:29.870Z</time>
      </trkpt>
      <trkpt lat="44.2529" lon="0.28519">
        <ele>113.957868</ele>
        <time>2022-12-29T10:02:31.871Z</time>
      </trkpt>
      <trkpt lat="44.25281" lon="0.28525">
        <ele>113.566097</ele>
        <time>2022-12-29T10:02:33.880Z</time>
      </trkpt>
      <trkpt lat="44.25273" lon="0.28532">
        <ele>113.203757</ele>
        <time>2022-12-29T10:02:35.891Z</time>
      </trkpt>
      <trkpt lat="44.25265" lon="0.28539">
        <ele>112.805125</ele>
        <time>2022-12-29T10:02:38.881Z</time>
      </trkpt>
      <trkpt lat="44.25256" lon="0.28548">
        <ele>112.387149</ele>
        <time>2022-12-29T10:02:41.897Z</time>
      </trkpt>
      <trkpt lat="44.25246" lon="0.28558">
        <ele>111.900966</ele>
        <time>2022-12-29T10:02:44.891Z</time>
      </trkpt>
      <trkpt lat="44.25236" lon="0.2857">
        <ele>111.388435</ele>
        <time>2022-12-29T10:02:47.897Z</time>
      </trkpt>
      <trkpt lat="44.25228" lon="0.28582">
        <ele>110.897877</ele>
        <time>2022-12-29T10:02:50.887Z</time>
      </trkpt>
      <trkpt lat="44.25219" lon="0.28596">
        <ele>110.378017</ele>
        <time>2022-12-29T10:02:53.895Z</time>
      </trkpt>
      <trkpt lat="44.25211" lon="0.2861">
        <ele>109.872705</ele>
        <time>2022-12-29T10:02:56.901Z</time>
      </trkpt>
      <trkpt lat="44.25204" lon="0.28626">
        <ele>109.353422</ele>
        <time>2022-12-29T10:02:59.868Z</time>
      </trkpt>
      <trkpt lat="44.252" lon="0.28637">
        <ele>108.987308</ele>
        <time>2022-12-29T10:03:01.883Z</time>
      </trkpt>
      <trkpt lat="44.25196" lon="0.28649">
        <ele>108.629945</ele>
        <time>2022-12-29T10:03:03.868Z</time>
      </trkpt>
      <trkpt lat="44.25193" lon="0.28661">
        <ele>108.267531</ele>
        <time>2022-12-29T10:03:05.876Z</time>
      </trkpt>
      <trkpt lat="44.25191" lon="0.28673">
        <ele>107.910544</ele>
        <time>2022-12-29T10:03:07.874Z</time>
      </trkpt>
      <trkpt lat="44.25189" lon="0.28686">
        <ele>107.486682</ele>
        <time>2022-12-29T10:03:09.888Z</time>
      </trkpt>
      <trkpt lat="44.25188" lon="0.28704">
        <ele>106.824795</ele>
        <time>2022-12-29T10:03:12.883Z</time>
      </trkpt>
      <trkpt lat="44.25186" lon="0.28722">
        <ele>106.188413</ele>
        <time>2022-12-29T10:03:15.893Z</time>
      </trkpt>
      <trkpt lat="44.25183" lon="0.28739">
        <ele>105.542559</ele>
        <time>2022-12-29T10:03:18.891Z</time>
      </trkpt>
      <trkpt lat="44.25178" lon="0.28756">
        <ele>104.889578</ele>
        <time>2022-12-29T10:03:21.871Z</time>
      </trkpt>
      <trkpt lat="44.25173" lon="0.28772">
        <ele>104.268258</ele>
        <time>2022-12-29T10:03:24.870Z</time>
      </trkpt>
      <trkpt lat="44.25165" lon="0.28786">
        <ele>103.651451</ele>
        <time>2022-12-29T10:03:27.875Z</time>
      </trkpt>
      <trkpt lat="44.25157" lon="0.288">
        <ele>102.992946</ele>
        <time>2022-12-29T10:03:30.894Z</time>
      </trkpt>
      <trkpt lat="44.25147" lon="0.28813">
        <ele>102.335208</ele>
        <time>2022-12-29T10:03:33.898Z</time>
      </trkpt>
      <trkpt lat="44.25139" lon="0.2882">
        <ele>101.858152</ele>
        <time>2022-12-29T10:03:35.869Z</time>
      </trkpt>
      <trkpt lat="44.25131" lon="0.28827">
        <ele>101.389401</ele>
        <time>2022-12-29T10:03:37.874Z</time>
      </trkpt>
      <trkpt lat="44.25123" lon="0.28832">
        <ele>100.940207</ele>
        <time>2022-12-29T10:03:39.868Z</time>
      </trkpt>
      <trkpt lat="44.25112" lon="0.28837">
        <ele>100.377143</ele>
        <time>2022-12-29T10:03:42.875Z</time>
      </trkpt>
      <trkpt lat="44.25103" lon="0.2884">
        <ele>99.897002</ele>
        <time>2022-12-29T10:03:45.896Z</time>
      </trkpt>
      <trkpt lat="44.25096" lon="0.28841">
        <ele>99.536948</ele>
        <time>2022-12-29T10:04:04.434Z</time>
      </trkpt>
      <trkpt lat="44.25092" lon="0.28855">
        <ele>98.985442</ele>
        <time>2022-12-29T10:05:47.905Z</time>
      </trkpt>
      <trkpt lat="44.25097" lon="0.2887">
        <ele>98.728768</ele>
        <time>2022-12-29T10:05:52.875Z</time>
      </trkpt>
      <trkpt lat="44.25101" lon="0.28881">
        <ele>98.595673</ele>
        <time>2022-12-29T10:05:55.873Z</time>
      </trkpt>
      <trkpt lat="44.25106" lon="0.28893">
        <ele>98.447357</ele>
        <time>2022-12-29T10:05:58.872Z</time>
      </trkpt>
      <trkpt lat="44.25112" lon="0.28905">
        <ele>98.292703</ele>
        <time>2022-12-29T10:06:01.869Z</time>
      </trkpt>
      <trkpt lat="44.25118" lon="0.28917">
        <ele>98.136652</ele>
        <time>2022-12-29T10:06:04.876Z</time>
      </trkpt>
      <trkpt lat="44.25126" lon="0.2893">
        <ele>97.96068</ele>
        <time>2022-12-29T10:06:07.874Z</time>
      </trkpt>
      <trkpt lat="44.25135" lon="0.28943">
        <ele>97.765104</ele>
        <time>2022-12-29T10:06:10.868Z</time>
      </trkpt>
      <trkpt lat="44.25141" lon="0.28953">
        <ele>97.630973</ele>
        <time>2022-12-29T10:06:12.877Z</time>
      </trkpt>
      <trkpt lat="44.25149" lon="0.28966">
        <ele>97.438942</ele>
        <time>2022-12-29T10:06:15.881Z</time>
      </trkpt>
      <trkpt lat="44.25157" lon="0.28981">
        <ele>97.243958</ele>
        <time>2022-12-29T10:06:18.889Z</time>
      </trkpt>
      <trkpt lat="44.25165" lon="0.28995">
        <ele>97.055886</ele>
        <time>2022-12-29T10:06:21.892Z</time>
      </trkpt>
      <trkpt lat="44.25173" lon="0.2901">
        <ele>96.861061</ele>
        <time>2022-12-29T10:06:24.871Z</time>
      </trkpt>
      <trkpt lat="44.2518" lon="0.29025">
        <ele>96.671389</ele>
        <time>2022-12-29T10:06:27.876Z</time>
      </trkpt>
      <trkpt lat="44.25185" lon="0.29039">
        <ele>96.501051</ele>
        <time>2022-12-29T10:06:30.879Z</time>
      </trkpt>
      <trkpt lat="44.2519" lon="0.29055">
        <ele>96.320755</ele>
        <time>2022-12-29T10:06:33.890Z</time>
      </trkpt>
      <trkpt lat="44.25193" lon="0.29071">
        <ele>96.22277</ele>
        <time>2022-12-29T10:06:36.870Z</time>
      </trkpt>
      <trkpt lat="44.25198" lon="0.29088">
        <ele>96.280622</ele>
        <time>2022-12-29T10:06:39.884Z</time>
      </trkpt>
      <trkpt lat="44.25201" lon="0.291">
        <ele>96.32068</ele>
        <time>2022-12-29T10:06:41.886Z</time>
      </trkpt>
      <trkpt lat="44.25207" lon="0.29117">
        <ele>96.380548</ele>
        <time>2022-12-29T10:06:44.870Z</time>
      </trkpt>
      <trkpt lat="44.25212" lon="0.29133">
        <ele>96.435834</ele>
        <time>2022-12-29T10:06:47.873Z</time>
      </trkpt>
      <trkpt lat="44.25218" lon="0.29147">
        <ele>96.488398</ele>
        <time>2022-12-29T10:06:50.873Z</time>
      </trkpt>
      <trkpt lat="44.25226" lon="0.2916">
        <ele>96.540427</ele>
        <time>2022-12-29T10:06:53.891Z</time>
      </trkpt>
      <trkpt lat="44.25234" lon="0.29172">
        <ele>96.592388</ele>
        <time>2022-12-29T10:06:56.873Z</time>
      </trkpt>
      <trkpt lat="44.25242" lon="0.29184">
        <ele>96.645687</ele>
        <time>2022-12-29T10:06:59.872Z</time>
      </trkpt>
      <trkpt lat="44.2525" lon="0.29196">
        <ele>96.697198</ele>
        <time>2022-12-29T10:07:02.880Z</time>
      </trkpt>
      <trkpt lat="44.25258" lon="0.29207">
        <ele>96.747523</ele>
        <time>2022-12-29T10:07:05.899Z</time>
      </trkpt>
      <trkpt lat="44.25266" lon="0.29219">
        <ele>96.798012</ele>
        <time>2022-12-29T10:07:08.877Z</time>
      </trkpt>
      <trkpt lat="44.25274" lon="0.29232">
        <ele>96.851033</ele>
        <time>2022-12-29T10:07:11.883Z</time>
      </trkpt>
      <trkpt lat="44.25282" lon="0.29246">
        <ele>96.909851</ele>
        <time>2022-12-29T10:07:14.884Z</time>
      </trkpt>
      <trkpt lat="44.25288" lon="0.29256">
        <ele>96.950227</ele>
        <time>2022-12-29T10:07:16.874Z</time>
      </trkpt>
      <trkpt lat="44.25295" lon="0.29272">
        <ele>97.008461</ele>
        <time>2022-12-29T10:07:19.877Z</time>
      </trkpt>
      <trkpt lat="44.25301" lon="0.29281">
        <ele>97.05209</ele>
        <time>2022-12-29T10:07:21.892Z</time>
      </trkpt>
      <trkpt lat="44.25308" lon="0.29295">
        <ele>97.111612</ele>
        <time>2022-12-29T10:07:24.882Z</time>
      </trkpt>
      <trkpt lat="44.25316" lon="0.29309">
        <ele>97.170016</ele>
        <time>2022-12-29T10:07:27.874Z</time>
      </trkpt>
      <trkpt lat="44.25323" lon="0.29323">
        <ele>97.230372</ele>
        <time>2022-12-29T10:07:30.879Z</time>
      </trkpt>
      <trkpt lat="44.25331" lon="0.29335">
        <ele>97.287603</ele>
        <time>2022-12-29T10:07:33.888Z</time>
      </trkpt>
      <trkpt lat="44.2534" lon="0.29348">
        <ele>97.347755</ele>
        <time>2022-12-29T10:07:36.875Z</time>
      </trkpt>
      <trkpt lat="44.25349" lon="0.29359">
        <ele>97.408032</ele>
        <time>2022-12-29T10:07:39.867Z</time>
      </trkpt>
      <trkpt lat="44.2536" lon="0.2937">
        <ele>97.470106</ele>
        <time>2022-12-29T10:07:42.874Z</time>
      </trkpt>
      <trkpt lat="44.2537" lon="0.29379">
        <ele>97.528851</ele>
        <time>2022-12-29T10:07:45.884Z</time>
      </trkpt>
      <trkpt lat="44.25381" lon="0.29386">
        <ele>97.584855</ele>
        <time>2022-12-29T10:07:48.869Z</time>
      </trkpt>
      <trkpt lat="44.25391" lon="0.29393">
        <ele>97.639172</ele>
        <time>2022-12-29T10:07:51.871Z</time>
      </trkpt>
      <trkpt lat="44.25402" lon="0.29396">
        <ele>97.691527</ele>
        <time>2022-12-29T10:07:54.867Z</time>
      </trkpt>
      <trkpt lat="44.25412" lon="0.29401">
        <ele>97.742259</ele>
        <time>2022-12-29T10:07:58.875Z</time>
      </trkpt>
      <trkpt lat="44.25421" lon="0.29405">
        <ele>97.7859</ele>
        <time>2022-12-29T10:08:00.873Z</time>
      </trkpt>
      <trkpt lat="44.2543" lon="0.29402">
        <ele>97.833504</ele>
        <time>2022-12-29T10:08:01.868Z</time>
      </trkpt>
      <trkpt lat="44.25441" lon="0.29406">
        <ele>97.833314</ele>
        <time>2022-12-29T10:08:03.878Z</time>
      </trkpt>
      <trkpt lat="44.2545" lon="0.29409">
        <ele>97.798243</ele>
        <time>2022-12-29T10:08:05.883Z</time>
      </trkpt>
      <trkpt lat="44.25464" lon="0.29412">
        <ele>97.745548</ele>
        <time>2022-12-29T10:08:08.907Z</time>
      </trkpt>
      <trkpt lat="44.25476" lon="0.29416">
        <ele>97.69737</ele>
        <time>2022-12-29T10:08:11.870Z</time>
      </trkpt>
      <trkpt lat="44.25485" lon="0.29418">
        <ele>97.661443</ele>
        <time>2022-12-29T10:08:13.867Z</time>
      </trkpt>
      <trkpt lat="44.25499" lon="0.2942">
        <ele>97.61155</ele>
        <time>2022-12-29T10:08:16.881Z</time>
      </trkpt>
      <trkpt lat="44.25511" lon="0.29423">
        <ele>97.563008</ele>
        <time>2022-12-29T10:08:19.878Z</time>
      </trkpt>
      <trkpt lat="44.25523" lon="0.29426">
        <ele>97.515584</ele>
        <time>2022-12-29T10:08:22.891Z</time>
      </trkpt>
      <trkpt lat="44.25535" lon="0.29429">
        <ele>97.470767</ele>
        <time>2022-12-29T10:08:25.882Z</time>
      </trkpt>
      <trkpt lat="44.25546" lon="0.29432">
        <ele>97.427489</ele>
        <time>2022-12-29T10:08:28.882Z</time>
      </trkpt>
      <trkpt lat="44.25557" lon="0.29436">
        <ele>97.387493</ele>
        <time>2022-12-29T10:08:31.874Z</time>
      </trkpt>
      <trkpt lat="44.25566" lon="0.29438">
        <ele>97.351695</ele>
        <time>2022-12-29T10:08:34.881Z</time>
      </trkpt>
      <trkpt lat="44.25575" lon="0.29441">
        <ele>97.316685</ele>
        <time>2022-12-29T10:08:38.880Z</time>
      </trkpt>
      <trkpt lat="44.25584" lon="0.29445">
        <ele>97.280396</ele>
        <time>2022-12-29T10:08:56.879Z</time>
      </trkpt>
      <trkpt lat="44.25594" lon="0.29442">
        <ele>97.242636</ele>
        <time>2022-12-29T10:09:01.875Z</time>
      </trkpt>
      <trkpt lat="44.25602" lon="0.29449">
        <ele>97.205771</ele>
        <time>2022-12-29T10:09:05.886Z</time>
      </trkpt>
      <trkpt lat="44.25612" lon="0.29458">
        <ele>97.220028</ele>
        <time>2022-12-29T10:09:09.876Z</time>
      </trkpt>
      <trkpt lat="44.25621" lon="0.29465">
        <ele>97.32738</ele>
        <time>2022-12-29T10:09:12.870Z</time>
      </trkpt>
      <trkpt lat="44.2563" lon="0.29471">
        <ele>97.443512</ele>
        <time>2022-12-29T10:09:15.882Z</time>
      </trkpt>
      <trkpt lat="44.25639" lon="0.29479">
        <ele>97.567098</ele>
        <time>2022-12-29T10:09:18.872Z</time>
      </trkpt>
      <trkpt lat="44.25649" lon="0.29486">
        <ele>97.691356</ele>
        <time>2022-12-29T10:09:21.881Z</time>
      </trkpt>
      <trkpt lat="44.25658" lon="0.29493">
        <ele>97.809046</ele>
        <time>2022-12-29T10:09:24.871Z</time>
      </trkpt>
      <trkpt lat="44.25667" lon="0.295">
        <ele>97.929707</ele>
        <time>2022-12-29T10:09:27.880Z</time>
      </trkpt>
      <trkpt lat="44.25675" lon="0.29506">
        <ele>98.036038</ele>
        <time>2022-12-29T10:09:30.874Z</time>
      </trkpt>
      <trkpt lat="44.25683" lon="0.29512">
        <ele>98.138788</ele>
        <time>2022-12-29T10:09:33.873Z</time>
      </trkpt>
      <trkpt lat="44.25691" lon="0.29519">
        <ele>98.249505</ele>
        <time>2022-12-29T10:09:36.880Z</time>
      </trkpt>
      <trkpt lat="44.257" lon="0.29526">
        <ele>98.359236</ele>
        <time>2022-12-29T10:09:39.886Z</time>
      </trkpt>
      <trkpt lat="44.25709" lon="0.29532">
        <ele>98.47644</ele>
        <time>2022-12-29T10:09:42.885Z</time>
      </trkpt>
      <trkpt lat="44.25718" lon="0.29539">
        <ele>98.590732</ele>
        <time>2022-12-29T10:09:45.880Z</time>
      </trkpt>
      <trkpt lat="44.25726" lon="0.29546">
        <ele>98.699706</ele>
        <time>2022-12-29T10:09:48.873Z</time>
      </trkpt>
      <trkpt lat="44.25733" lon="0.29554">
        <ele>98.807218</ele>
        <time>2022-12-29T10:09:51.873Z</time>
      </trkpt>
      <trkpt lat="44.25739" lon="0.29564">
        <ele>98.911375</ele>
        <time>2022-12-29T10:09:54.885Z</time>
      </trkpt>
      <trkpt lat="44.25745" lon="0.29574">
        <ele>99.019086</ele>
        <time>2022-12-29T10:09:57.891Z</time>
      </trkpt>
      <trkpt lat="44.2575" lon="0.29586">
        <ele>99.129201</ele>
        <time>2022-12-29T10:10:00.873Z</time>
      </trkpt>
      <trkpt lat="44.25754" lon="0.29598">
        <ele>99.204487</ele>
        <time>2022-12-29T10:10:03.877Z</time>
      </trkpt>
      <trkpt lat="44.25758" lon="0.29611">
        <ele>99.066708</ele>
        <time>2022-12-29T10:10:06.875Z</time>
      </trkpt>
      <trkpt lat="44.25762" lon="0.29625">
        <ele>98.923936</ele>
        <time>2022-12-29T10:10:09.884Z</time>
      </trkpt>
      <trkpt lat="44.25766" lon="0.29638">
        <ele>98.777273</ele>
        <time>2022-12-29T10:10:12.877Z</time>
      </trkpt>
      <trkpt lat="44.25771" lon="0.29652">
        <ele>98.624761</ele>
        <time>2022-12-29T10:10:15.881Z</time>
      </trkpt>
      <trkpt lat="44.25776" lon="0.29667">
        <ele>98.466976</ele>
        <time>2022-12-29T10:10:18.869Z</time>
      </trkpt>
      <trkpt lat="44.2578" lon="0.29682">
        <ele>98.29745</ele>
        <time>2022-12-29T10:10:21.865Z</time>
      </trkpt>
      <trkpt lat="44.25785" lon="0.29699">
        <ele>98.120758</ele>
        <time>2022-12-29T10:10:24.881Z</time>
      </trkpt>
      <trkpt lat="44.2579" lon="0.29717">
        <ele>97.934525</ele>
        <time>2022-12-29T10:10:27.879Z</time>
      </trkpt>
      <trkpt lat="44.25793" lon="0.29729">
        <ele>97.802874</ele>
        <time>2022-12-29T10:10:29.885Z</time>
      </trkpt>
      <trkpt lat="44.25797" lon="0.29741">
        <ele>97.674891</ele>
        <time>2022-12-29T10:10:31.871Z</time>
      </trkpt>
      <trkpt lat="44.25801" lon="0.29754">
        <ele>97.539977</ele>
        <time>2022-12-29T10:10:33.877Z</time>
      </trkpt>
      <trkpt lat="44.25804" lon="0.29766">
        <ele>97.405845</ele>
        <time>2022-12-29T10:10:35.882Z</time>
      </trkpt>
      <trkpt lat="44.25809" lon="0.29779">
        <ele>97.269154</ele>
        <time>2022-12-29T10:10:37.886Z</time>
      </trkpt>
      <trkpt lat="44.25812" lon="0.29791">
        <ele>97.138003</ele>
        <time>2022-12-29T10:10:39.881Z</time>
      </trkpt>
      <trkpt lat="44.25815" lon="0.29804">
        <ele>97.005485</ele>
        <time>2022-12-29T10:10:41.892Z</time>
      </trkpt>
      <trkpt lat="44.25818" lon="0.29816">
        <ele>96.880515</ele>
        <time>2022-12-29T10:10:43.881Z</time>
      </trkpt>
      <trkpt lat="44.25822" lon="0.29832">
        <ele>96.677202</ele>
        <time>2022-12-29T10:10:46.872Z</time>
      </trkpt>
      <trkpt lat="44.25824" lon="0.29846">
        <ele>96.34801</ele>
        <time>2022-12-29T10:10:49.878Z</time>
      </trkpt>
      <trkpt lat="44.25825" lon="0.2986">
        <ele>96.040155</ele>
        <time>2022-12-29T10:10:52.875Z</time>
      </trkpt>
      <trkpt lat="44.25825" lon="0.29875">
        <ele>95.719197</ele>
        <time>2022-12-29T10:10:55.874Z</time>
      </trkpt>
      <trkpt lat="44.25826" lon="0.2989">
        <ele>95.393516</ele>
        <time>2022-12-29T10:10:58.874Z</time>
      </trkpt>
      <trkpt lat="44.25827" lon="0.29903">
        <ele>95.105872</ele>
        <time>2022-12-29T10:11:01.937Z</time>
      </trkpt>
      <trkpt lat="44.25827" lon="0.29918">
        <ele>94.780319</ele>
        <time>2022-12-29T10:11:04.871Z</time>
      </trkpt>
      <trkpt lat="44.25828" lon="0.29931">
        <ele>94.498514</ele>
        <time>2022-12-29T10:11:07.872Z</time>
      </trkpt>
      <trkpt lat="44.25828" lon="0.29944">
        <ele>94.216841</ele>
        <time>2022-12-29T10:11:11.890Z</time>
      </trkpt>
      <trkpt lat="44.25828" lon="0.29959">
        <ele>93.895883</ele>
        <time>2022-12-29T10:11:16.872Z</time>
      </trkpt>
      <trkpt lat="44.25826" lon="0.29968">
        <ele>93.692001</ele>
        <time>2022-12-29T10:13:25.870Z</time>
      </trkpt>
      <trkpt lat="44.25829" lon="0.29981">
        <ele>93.394711</ele>
        <time>2022-12-29T10:16:59.877Z</time>
      </trkpt>
      <trkpt lat="44.25829" lon="0.29994">
        <ele>93.099954</ele>
        <time>2022-12-29T10:17:03.876Z</time>
      </trkpt>
      <trkpt lat="44.2583" lon="0.3001">
        <ele>92.74466</ele>
        <time>2022-12-29T10:17:07.877Z</time>
      </trkpt>
      <trkpt lat="44.2583" lon="0.30025">
        <ele>92.425754</ele>
        <time>2022-12-29T10:17:10.891Z</time>
      </trkpt>
      <trkpt lat="44.25831" lon="0.3004">
        <ele>92.086658</ele>
        <time>2022-12-29T10:17:13.892Z</time>
      </trkpt>
      <trkpt lat="44.2583" lon="0.30055">
        <ele>91.767519</ele>
        <time>2022-12-29T10:17:16.878Z</time>
      </trkpt>
      <trkpt lat="44.2583" lon="0.30069">
        <ele>91.466212</ele>
        <time>2022-12-29T10:17:19.880Z</time>
      </trkpt>
      <trkpt lat="44.2583" lon="0.30085">
        <ele>91.165639</ele>
        <time>2022-12-29T10:17:23.891Z</time>
      </trkpt>
      <trkpt lat="44.2583" lon="0.30102">
        <ele>90.931651</ele>
        <time>2022-12-29T10:17:27.892Z</time>
      </trkpt>
      <trkpt lat="44.2583" lon="0.30118">
        <ele>90.717067</ele>
        <time>2022-12-29T10:17:30.898Z</time>
      </trkpt>
      <trkpt lat="44.25831" lon="0.30134">
        <ele>90.493775</ele>
        <time>2022-12-29T10:17:33.880Z</time>
      </trkpt>
      <trkpt lat="44.25831" lon="0.3015">
        <ele>90.272202</ele>
        <time>2022-12-29T10:17:36.874Z</time>
      </trkpt>
      <trkpt lat="44.25831" lon="0.30164">
        <ele>90.067281</ele>
        <time>2022-12-29T10:17:39.895Z</time>
      </trkpt>
      <trkpt lat="44.25832" lon="0.30178">
        <ele>89.873124</ele>
        <time>2022-12-29T10:17:42.883Z</time>
      </trkpt>
      <trkpt lat="44.25831" lon="0.30192">
        <ele>89.687258</ele>
        <time>2022-12-29T10:17:45.892Z</time>
      </trkpt>
      <trkpt lat="44.25832" lon="0.30206">
        <ele>89.495426</ele>
        <time>2022-12-29T10:17:48.895Z</time>
      </trkpt>
      <trkpt lat="44.25832" lon="0.3022">
        <ele>89.298762</ele>
        <time>2022-12-29T10:17:51.896Z</time>
      </trkpt>
      <trkpt lat="44.25832" lon="0.30236">
        <ele>89.081204</ele>
        <time>2022-12-29T10:17:54.883Z</time>
      </trkpt>
      <trkpt lat="44.25832" lon="0.3025">
        <ele>88.87631</ele>
        <time>2022-12-29T10:17:57.898Z</time>
      </trkpt>
      <trkpt lat="44.25831" lon="0.30263">
        <ele>88.700327</ele>
        <time>2022-12-29T10:18:00.897Z</time>
      </trkpt>
      <trkpt lat="44.25831" lon="0.30276">
        <ele>88.524248</ele>
        <time>2022-12-29T10:18:03.880Z</time>
      </trkpt>
      <trkpt lat="44.25829" lon="0.30289">
        <ele>88.334149</ele>
        <time>2022-12-29T10:18:07.895Z</time>
      </trkpt>
      <trkpt lat="44.2583" lon="0.30303">
        <ele>88.138801</ele>
        <time>2022-12-29T10:18:11.892Z</time>
      </trkpt>
      <trkpt lat="44.25834" lon="0.30319">
        <ele>87.910365</ele>
        <time>2022-12-29T10:18:15.877Z</time>
      </trkpt>
      <trkpt lat="44.25839" lon="0.30333">
        <ele>87.656188</ele>
        <time>2022-12-29T10:18:19.880Z</time>
      </trkpt>
      <trkpt lat="44.25843" lon="0.30347">
        <ele>87.397533</ele>
        <time>2022-12-29T10:18:24.892Z</time>
      </trkpt>
      <trkpt lat="44.25849" lon="0.30359">
        <ele>87.140299</ele>
        <time>2022-12-29T10:18:36.878Z</time>
      </trkpt>
      <trkpt lat="44.25855" lon="0.3037">
        <ele>86.880499</ele>
        <time>2022-12-29T10:18:42.876Z</time>
      </trkpt>
      <trkpt lat="44.25859" lon="0.30382">
        <ele>86.644457</ele>
        <time>2022-12-29T10:18:46.881Z</time>
      </trkpt>
      <trkpt lat="44.25852" lon="0.30392">
        <ele>86.38259</ele>
        <time>2022-12-29T10:18:50.891Z</time>
      </trkpt>
      <trkpt lat="44.25841" lon="0.30401">
        <ele>86.067932</ele>
        <time>2022-12-29T10:18:53.902Z</time>
      </trkpt>
      <trkpt lat="44.2583" lon="0.3041">
        <ele>85.747594</ele>
        <time>2022-12-29T10:18:56.888Z</time>
      </trkpt>
      <trkpt lat="44.25818" lon="0.30418">
        <ele>85.431176</ele>
        <time>2022-12-29T10:18:59.881Z</time>
      </trkpt>
      <trkpt lat="44.25807" lon="0.30426">
        <ele>85.107012</ele>
        <time>2022-12-29T10:19:02.877Z</time>
      </trkpt>
      <trkpt lat="44.25798" lon="0.30434">
        <ele>84.838461</ele>
        <time>2022-12-29T10:19:05.886Z</time>
      </trkpt>
      <trkpt lat="44.25789" lon="0.3044">
        <ele>84.59944</ele>
        <time>2022-12-29T10:19:08.877Z</time>
      </trkpt>
      <trkpt lat="44.2578" lon="0.30449">
        <ele>84.327029</ele>
        <time>2022-12-29T10:19:12.887Z</time>
      </trkpt>
      <trkpt lat="44.25772" lon="0.30458">
        <ele>84.062267</ele>
        <time>2022-12-29T10:19:17.890Z</time>
      </trkpt>
      <trkpt lat="44.25764" lon="0.30465">
        <ele>83.815244</ele>
        <time>2022-12-29T10:19:21.877Z</time>
      </trkpt>
      <trkpt lat="44.25756" lon="0.30472">
        <ele>83.58974</ele>
        <time>2022-12-29T10:19:25.892Z</time>
      </trkpt>
      <trkpt lat="44.25753" lon="0.30486">
        <ele>83.317785</ele>
        <time>2022-12-29T10:19:31.878Z</time>
      </trkpt>
      <trkpt lat="44.2576" lon="0.30501">
        <ele>83.271929</ele>
        <time>2022-12-29T10:19:34.895Z</time>
      </trkpt>
      <trkpt lat="44.25766" lon="0.30513">
        <ele>83.26643</ele>
        <time>2022-12-29T10:19:36.879Z</time>
      </trkpt>
      <trkpt lat="44.25772" lon="0.30524">
        <ele>83.261058</ele>
        <time>2022-12-29T10:19:38.898Z</time>
      </trkpt>
      <trkpt lat="44.25779" lon="0.3054">
        <ele>83.254164</ele>
        <time>2022-12-29T10:19:41.889Z</time>
      </trkpt>
      <trkpt lat="44.25784" lon="0.30552">
        <ele>83.248814</ele>
        <time>2022-12-29T10:19:45.880Z</time>
      </trkpt>
      <trkpt lat="44.25782" lon="0.30565">
        <ele>83.243481</ele>
        <time>2022-12-29T10:19:50.888Z</time>
      </trkpt>
      <trkpt lat="44.25775" lon="0.30578">
        <ele>83.237356</ele>
        <time>2022-12-29T10:19:53.875Z</time>
      </trkpt>
      <trkpt lat="44.25769" lon="0.30588">
        <ele>83.232255</ele>
        <time>2022-12-29T10:19:55.890Z</time>
      </trkpt>
      <trkpt lat="44.25763" lon="0.30599">
        <ele>83.226947</ele>
        <time>2022-12-29T10:19:57.884Z</time>
      </trkpt>
      <trkpt lat="44.25757" lon="0.3061">
        <ele>83.221912</ele>
        <time>2022-12-29T10:19:59.891Z</time>
      </trkpt>
      <trkpt lat="44.25751" lon="0.30619">
        <ele>83.217126</ele>
        <time>2022-12-29T10:20:01.889Z</time>
      </trkpt>
      <trkpt lat="44.25741" lon="0.30631">
        <ele>83.210519</ele>
        <time>2022-12-29T10:20:04.886Z</time>
      </trkpt>
      <trkpt lat="44.25733" lon="0.3064">
        <ele>83.204702</ele>
        <time>2022-12-29T10:20:07.884Z</time>
      </trkpt>
      <trkpt lat="44.25724" lon="0.30648">
        <ele>83.199226</ele>
        <time>2022-12-29T10:20:10.877Z</time>
      </trkpt>
      <trkpt lat="44.25715" lon="0.30655">
        <ele>83.193423</ele>
        <time>2022-12-29T10:20:13.891Z</time>
      </trkpt>
      <trkpt lat="44.25705" lon="0.30661">
        <ele>83.187749</ele>
        <time>2022-12-29T10:20:16.890Z</time>
      </trkpt>
      <trkpt lat="44.25695" lon="0.30666">
        <ele>83.182816</ele>
        <time>2022-12-29T10:20:19.878Z</time>
      </trkpt>
      <trkpt lat="44.25686" lon="0.30671">
        <ele>83.358508</ele>
        <time>2022-12-29T10:20:22.886Z</time>
      </trkpt>
      <trkpt lat="44.25677" lon="0.30677">
        <ele>83.537977</ele>
        <time>2022-12-29T10:20:25.891Z</time>
      </trkpt>
      <trkpt lat="44.25668" lon="0.30684">
        <ele>83.718447</ele>
        <time>2022-12-29T10:20:28.880Z</time>
      </trkpt>
      <trkpt lat="44.2566" lon="0.30691">
        <ele>83.883328</ele>
        <time>2022-12-29T10:20:31.880Z</time>
      </trkpt>
      <trkpt lat="44.25652" lon="0.307">
        <ele>84.065308</ele>
        <time>2022-12-29T10:20:35.888Z</time>
      </trkpt>
      <trkpt lat="44.25644" lon="0.30709">
        <ele>84.254632</ele>
        <time>2022-12-29T10:20:39.882Z</time>
      </trkpt>
      <trkpt lat="44.25638" lon="0.30719">
        <ele>84.429253</ele>
        <time>2022-12-29T10:20:43.931Z</time>
      </trkpt>
      <trkpt lat="44.25633" lon="0.3073">
        <ele>84.595033</ele>
        <time>2022-12-29T10:20:48.881Z</time>
      </trkpt>
      <trkpt lat="44.25635" lon="0.30744">
        <ele>84.774411</ele>
        <time>2022-12-29T10:20:53.883Z</time>
      </trkpt>
      <trkpt lat="44.2564" lon="0.30757">
        <ele>84.967297</ele>
        <time>2022-12-29T10:20:57.894Z</time>
      </trkpt>
      <trkpt lat="44.25644" lon="0.30771">
        <ele>85.15755</ele>
        <time>2022-12-29T10:21:01.893Z</time>
      </trkpt>
      <trkpt lat="44.25645" lon="0.30787">
        <ele>85.357269</ele>
        <time>2022-12-29T10:21:06.885Z</time>
      </trkpt>
      <trkpt lat="44.25638" lon="0.30799">
        <ele>85.570403</ele>
        <time>2022-12-29T10:21:10.881Z</time>
      </trkpt>
      <trkpt lat="44.25629" lon="0.30807">
        <ele>85.757487</ele>
        <time>2022-12-29T10:21:13.907Z</time>
      </trkpt>
      <trkpt lat="44.25619" lon="0.30813">
        <ele>85.943246</ele>
        <time>2022-12-29T10:21:16.880Z</time>
      </trkpt>
      <trkpt lat="44.2561" lon="0.30819">
        <ele>86.13394</ele>
        <time>2022-12-29T10:21:19.875Z</time>
      </trkpt>
      <trkpt lat="44.25599" lon="0.30825">
        <ele>86.341936</ele>
        <time>2022-12-29T10:21:22.881Z</time>
      </trkpt>
      <trkpt lat="44.25589" lon="0.30831">
        <ele>86.46922</ele>
        <time>2022-12-29T10:21:25.891Z</time>
      </trkpt>
      <trkpt lat="44.25578" lon="0.30837">
        <ele>86.573404</ele>
        <time>2022-12-29T10:21:28.896Z</time>
      </trkpt>
      <trkpt lat="44.25567" lon="0.30843">
        <ele>86.682801</ele>
        <time>2022-12-29T10:21:31.880Z</time>
      </trkpt>
      <trkpt lat="44.25559" lon="0.30851">
        <ele>86.775525</ele>
        <time>2022-12-29T10:21:34.888Z</time>
      </trkpt>
      <trkpt lat="44.25551" lon="0.30858">
        <ele>86.864475</ele>
        <time>2022-12-29T10:21:37.880Z</time>
      </trkpt>
      <trkpt lat="44.25544" lon="0.3087">
        <ele>86.967155</ele>
        <time>2022-12-29T10:21:40.880Z</time>
      </trkpt>
      <trkpt lat="44.25538" lon="0.30885">
        <ele>87.083169</ele>
        <time>2022-12-29T10:21:43.893Z</time>
      </trkpt>
      <trkpt lat="44.25531" lon="0.309">
        <ele>87.197859</ele>
        <time>2022-12-29T10:21:46.884Z</time>
      </trkpt>
      <trkpt lat="44.25526" lon="0.30912">
        <ele>87.295179</ele>
        <time>2022-12-29T10:21:49.887Z</time>
      </trkpt>
      <trkpt lat="44.25521" lon="0.30924">
        <ele>87.382625</ele>
        <time>2022-12-29T10:21:52.884Z</time>
      </trkpt>
      <trkpt lat="44.25518" lon="0.30936">
        <ele>87.469534</ele>
        <time>2022-12-29T10:21:55.895Z</time>
      </trkpt>
      <trkpt lat="44.25514" lon="0.30949">
        <ele>87.561171</ele>
        <time>2022-12-29T10:21:58.883Z</time>
      </trkpt>
      <trkpt lat="44.25509" lon="0.30961">
        <ele>87.656948</ele>
        <time>2022-12-29T10:22:01.884Z</time>
      </trkpt>
      <trkpt lat="44.25504" lon="0.30974">
        <ele>87.75361</ele>
        <time>2022-12-29T10:22:04.877Z</time>
      </trkpt>
      <trkpt lat="44.25499" lon="0.30988">
        <ele>87.85945</ele>
        <time>2022-12-29T10:22:07.896Z</time>
      </trkpt>
      <trkpt lat="44.25494" lon="0.31">
        <ele>87.948389</ele>
        <time>2022-12-29T10:22:09.893Z</time>
      </trkpt>
      <trkpt lat="44.25489" lon="0.31011">
        <ele>88.031913</ele>
        <time>2022-12-29T10:22:11.894Z</time>
      </trkpt>
      <trkpt lat="44.25485" lon="0.31022">
        <ele>88.274218</ele>
        <time>2022-12-29T10:22:13.873Z</time>
      </trkpt>
      <trkpt lat="44.2548" lon="0.31037">
        <ele>88.70236</ele>
        <time>2022-12-29T10:22:16.877Z</time>
      </trkpt>
      <trkpt lat="44.25476" lon="0.31052">
        <ele>89.118326</ele>
        <time>2022-12-29T10:22:19.880Z</time>
      </trkpt>
      <trkpt lat="44.25471" lon="0.31066">
        <ele>89.509912</ele>
        <time>2022-12-29T10:22:21.891Z</time>
      </trkpt>
      <trkpt lat="44.25465" lon="0.3108">
        <ele>89.956946</ele>
        <time>2022-12-29T10:22:24.877Z</time>
      </trkpt>
      <trkpt lat="44.25459" lon="0.31097">
        <ele>90.437787</ele>
        <time>2022-12-29T10:22:27.878Z</time>
      </trkpt>
      <trkpt lat="44.25453" lon="0.31114">
        <ele>90.930101</ele>
        <time>2022-12-29T10:22:30.888Z</time>
      </trkpt>
      <trkpt lat="44.25447" lon="0.31129">
        <ele>91.387056</ele>
        <time>2022-12-29T10:22:33.881Z</time>
      </trkpt>
      <trkpt lat="44.25441" lon="0.31144">
        <ele>91.827849</ele>
        <time>2022-12-29T10:22:36.879Z</time>
      </trkpt>
      <trkpt lat="44.25437" lon="0.31156">
        <ele>92.18327</ele>
        <time>2022-12-29T10:22:38.891Z</time>
      </trkpt>
      <trkpt lat="44.25432" lon="0.31168">
        <ele>92.530053</ele>
        <time>2022-12-29T10:22:40.889Z</time>
      </trkpt>
      <trkpt lat="44.25428" lon="0.31179">
        <ele>92.85613</ele>
        <time>2022-12-29T10:22:42.880Z</time>
      </trkpt>
      <trkpt lat="44.25422" lon="0.31191">
        <ele>93.220754</ele>
        <time>2022-12-29T10:22:44.886Z</time>
      </trkpt>
      <trkpt lat="44.25417" lon="0.31206">
        <ele>93.684395</ele>
        <time>2022-12-29T10:22:47.879Z</time>
      </trkpt>
      <trkpt lat="44.25411" lon="0.31222">
        <ele>94.13253</ele>
        <time>2022-12-29T10:22:50.892Z</time>
      </trkpt>
      <trkpt lat="44.25405" lon="0.31238">
        <ele>94.596539</ele>
        <time>2022-12-29T10:22:53.894Z</time>
      </trkpt>
      <trkpt lat="44.254" lon="0.3125">
        <ele>94.3284</ele>
        <time>2022-12-29T10:22:56.890Z</time>
      </trkpt>
      <trkpt lat="44.25394" lon="0.31265">
        <ele>94.01536</ele>
        <time>2022-12-29T10:22:59.878Z</time>
      </trkpt>
      <trkpt lat="44.2539" lon="0.31277">
        <ele>93.75823</ele>
        <time>2022-12-29T10:23:01.898Z</time>
      </trkpt>
      <trkpt lat="44.25384" lon="0.31293">
        <ele>93.437354</ele>
        <time>2022-12-29T10:23:04.884Z</time>
      </trkpt>
      <trkpt lat="44.2538" lon="0.31304">
        <ele>93.191415</ele>
        <time>2022-12-29T10:23:06.888Z</time>
      </trkpt>
      <trkpt lat="44.25376" lon="0.31318">
        <ele>92.918398</ele>
        <time>2022-12-29T10:23:08.877Z</time>
      </trkpt>
      <trkpt lat="44.2537" lon="0.31333">
        <ele>92.588469</ele>
        <time>2022-12-29T10:23:11.890Z</time>
      </trkpt>
      <trkpt lat="44.25366" lon="0.31347">
        <ele>92.306593</ele>
        <time>2022-12-29T10:23:14.890Z</time>
      </trkpt>
      <trkpt lat="44.2536" lon="0.31362">
        <ele>91.987371</ele>
        <time>2022-12-29T10:23:17.897Z</time>
      </trkpt>
      <trkpt lat="44.25353" lon="0.31379">
        <ele>91.632291</ele>
        <time>2022-12-29T10:23:20.890Z</time>
      </trkpt>
      <trkpt lat="44.25349" lon="0.3139">
        <ele>91.392535</ele>
        <time>2022-12-29T10:23:22.891Z</time>
      </trkpt>
      <trkpt lat="44.25344" lon="0.31405">
        <ele>91.087602</ele>
        <time>2022-12-29T10:23:25.879Z</time>
      </trkpt>
      <trkpt lat="44.2534" lon="0.31417">
        <ele>90.840459</ele>
        <time>2022-12-29T10:23:27.884Z</time>
      </trkpt>
      <trkpt lat="44.25336" lon="0.31429">
        <ele>90.59612</ele>
        <time>2022-12-29T10:23:29.889Z</time>
      </trkpt>
      <trkpt lat="44.25332" lon="0.3144">
        <ele>90.348011</ele>
        <time>2022-12-29T10:23:31.872Z</time>
      </trkpt>
      <trkpt lat="44.25326" lon="0.31457">
        <ele>90.008772</ele>
        <time>2022-12-29T10:23:34.877Z</time>
      </trkpt>
      <trkpt lat="44.25322" lon="0.31468">
        <ele>89.917361</ele>
        <time>2022-12-29T10:23:36.878Z</time>
      </trkpt>
      <trkpt lat="44.25315" lon="0.31484">
        <ele>89.960237</ele>
        <time>2022-12-29T10:23:39.885Z</time>
      </trkpt>
      <trkpt lat="44.25311" lon="0.31495">
        <ele>89.989567</ele>
        <time>2022-12-29T10:23:41.882Z</time>
      </trkpt>
      <trkpt lat="44.25307" lon="0.31507">
        <ele>90.019841</ele>
        <time>2022-12-29T10:23:43.881Z</time>
      </trkpt>
      <trkpt lat="44.25302" lon="0.31518">
        <ele>90.049891</ele>
        <time>2022-12-29T10:23:45.880Z</time>
      </trkpt>
      <trkpt lat="44.25297" lon="0.31533">
        <ele>90.089356</ele>
        <time>2022-12-29T10:23:48.890Z</time>
      </trkpt>
      <trkpt lat="44.25289" lon="0.31549">
        <ele>90.1333</ele>
        <time>2022-12-29T10:23:51.882Z</time>
      </trkpt>
      <trkpt lat="44.25284" lon="0.31562">
        <ele>90.167061</ele>
        <time>2022-12-29T10:23:53.892Z</time>
      </trkpt>
      <trkpt lat="44.25279" lon="0.31578">
        <ele>90.208274</ele>
        <time>2022-12-29T10:23:56.893Z</time>
      </trkpt>
      <trkpt lat="44.25273" lon="0.31594">
        <ele>90.250665</ele>
        <time>2022-12-29T10:23:59.881Z</time>
      </trkpt>
      <trkpt lat="44.25266" lon="0.31609">
        <ele>90.291885</ele>
        <time>2022-12-29T10:24:02.887Z</time>
      </trkpt>
      <trkpt lat="44.25261" lon="0.31625">
        <ele>90.331805</ele>
        <time>2022-12-29T10:24:05.878Z</time>
      </trkpt>
      <trkpt lat="44.25255" lon="0.31641">
        <ele>90.375674</ele>
        <time>2022-12-29T10:24:08.892Z</time>
      </trkpt>
      <trkpt lat="44.2525" lon="0.31652">
        <ele>90.40516</ele>
        <time>2022-12-29T10:24:10.876Z</time>
      </trkpt>
      <trkpt lat="44.25246" lon="0.31665">
        <ele>90.438385</ele>
        <time>2022-12-29T10:24:12.881Z</time>
      </trkpt>
      <trkpt lat="44.2524" lon="0.31681">
        <ele>90.480272</ele>
        <time>2022-12-29T10:24:15.899Z</time>
      </trkpt>
      <trkpt lat="44.25235" lon="0.31692">
        <ele>90.497884</ele>
        <time>2022-12-29T10:24:17.887Z</time>
      </trkpt>
      <trkpt lat="44.25231" lon="0.31705">
        <ele>90.516245</ele>
        <time>2022-12-29T10:24:20.875Z</time>
      </trkpt>
      <trkpt lat="44.25225" lon="0.31718">
        <ele>90.53472</ele>
        <time>2022-12-29T10:24:24.881Z</time>
      </trkpt>
      <trkpt lat="44.25219" lon="0.31734">
        <ele>90.556484</ele>
        <time>2022-12-29T10:24:28.890Z</time>
      </trkpt>
      <trkpt lat="44.25213" lon="0.31749">
        <ele>90.57776</ele>
        <time>2022-12-29T10:24:31.878Z</time>
      </trkpt>
      <trkpt lat="44.25206" lon="0.31765">
        <ele>90.600718</ele>
        <time>2022-12-29T10:24:34.882Z</time>
      </trkpt>
      <trkpt lat="44.252" lon="0.31781">
        <ele>90.622677</ele>
        <time>2022-12-29T10:24:37.892Z</time>
      </trkpt>
      <trkpt lat="44.25195" lon="0.31797">
        <ele>90.645257</ele>
        <time>2022-12-29T10:24:40.893Z</time>
      </trkpt>
      <trkpt lat="44.25189" lon="0.31813">
        <ele>90.666435</ele>
        <time>2022-12-29T10:24:43.878Z</time>
      </trkpt>
      <trkpt lat="44.25184" lon="0.31829">
        <ele>90.68846</ele>
        <time>2022-12-29T10:24:46.884Z</time>
      </trkpt>
      <trkpt lat="44.25179" lon="0.31844">
        <ele>90.708414</ele>
        <time>2022-12-29T10:24:49.895Z</time>
      </trkpt>
      <trkpt lat="44.25173" lon="0.31859">
        <ele>90.729419</ele>
        <time>2022-12-29T10:24:52.897Z</time>
      </trkpt>
      <trkpt lat="44.25167" lon="0.31874">
        <ele>90.751076</ele>
        <time>2022-12-29T10:24:55.878Z</time>
      </trkpt>
      <trkpt lat="44.25161" lon="0.31891">
        <ele>90.774168</ele>
        <time>2022-12-29T10:24:58.881Z</time>
      </trkpt>
      <trkpt lat="44.25155" lon="0.31906">
        <ele>90.794936</ele>
        <time>2022-12-29T10:25:00.887Z</time>
      </trkpt>
      <trkpt lat="44.25148" lon="0.31922">
        <ele>90.817349</ele>
        <time>2022-12-29T10:25:03.879Z</time>
      </trkpt>
      <trkpt lat="44.25142" lon="0.31937">
        <ele>90.837819</ele>
        <time>2022-12-29T10:25:06.896Z</time>
      </trkpt>
      <trkpt lat="44.25138" lon="0.3195">
        <ele>90.855255</ele>
        <time>2022-12-29T10:25:09.897Z</time>
      </trkpt>
      <trkpt lat="44.25132" lon="0.31966">
        <ele>90.876089</ele>
        <time>2022-12-29T10:25:12.900Z</time>
      </trkpt>
      <trkpt lat="44.25126" lon="0.31981">
        <ele>90.89738</ele>
        <time>2022-12-29T10:25:15.876Z</time>
      </trkpt>
      <trkpt lat="44.25119" lon="0.31997">
        <ele>90.918533</ele>
        <time>2022-12-29T10:25:18.897Z</time>
      </trkpt>
      <trkpt lat="44.25113" lon="0.32011">
        <ele>90.938153</ele>
        <time>2022-12-29T10:25:21.886Z</time>
      </trkpt>
      <trkpt lat="44.25108" lon="0.32023">
        <ele>90.955612</ele>
        <time>2022-12-29T10:25:24.891Z</time>
      </trkpt>
      <trkpt lat="44.25101" lon="0.32039">
        <ele>90.977156</ele>
        <time>2022-12-29T10:25:27.881Z</time>
      </trkpt>
      <trkpt lat="44.25094" lon="0.32054">
        <ele>90.998572</ele>
        <time>2022-12-29T10:25:30.885Z</time>
      </trkpt>
      <trkpt lat="44.25088" lon="0.32069">
        <ele>91.019574</ele>
        <time>2022-12-29T10:25:33.882Z</time>
      </trkpt>
      <trkpt lat="44.2508" lon="0.32084">
        <ele>91.041343</ele>
        <time>2022-12-29T10:25:36.888Z</time>
      </trkpt>
      <trkpt lat="44.25073" lon="0.32098">
        <ele>91.061757</ele>
        <time>2022-12-29T10:25:39.890Z</time>
      </trkpt>
      <trkpt lat="44.25064" lon="0.32114">
        <ele>91.08596</ele>
        <time>2022-12-29T10:25:42.898Z</time>
      </trkpt>
      <trkpt lat="44.25059" lon="0.32125">
        <ele>91.132133</ele>
        <time>2022-12-29T10:25:44.900Z</time>
      </trkpt>
      <trkpt lat="44.25053" lon="0.32135">
        <ele>91.201419</ele>
        <time>2022-12-29T10:25:46.896Z</time>
      </trkpt>
      <trkpt lat="44.25044" lon="0.32149">
        <ele>91.297139</ele>
        <time>2022-12-29T10:25:49.891Z</time>
      </trkpt>
      <trkpt lat="44.25036" lon="0.32161">
        <ele>91.382497</ele>
        <time>2022-12-29T10:25:52.889Z</time>
      </trkpt>
      <trkpt lat="44.25028" lon="0.32173">
        <ele>91.469055</ele>
        <time>2022-12-29T10:25:55.896Z</time>
      </trkpt>
      <trkpt lat="44.25021" lon="0.32185">
        <ele>91.551692</ele>
        <time>2022-12-29T10:25:58.884Z</time>
      </trkpt>
      <trkpt lat="44.25011" lon="0.32197">
        <ele>91.65112</ele>
        <time>2022-12-29T10:26:01.890Z</time>
      </trkpt>
      <trkpt lat="44.25002" lon="0.32208">
        <ele>91.735402</ele>
        <time>2022-12-29T10:26:04.884Z</time>
      </trkpt>
      <trkpt lat="44.24995" lon="0.32217">
        <ele>91.803895</ele>
        <time>2022-12-29T10:26:06.881Z</time>
      </trkpt>
      <trkpt lat="44.24987" lon="0.32228">
        <ele>91.887406</ele>
        <time>2022-12-29T10:26:09.890Z</time>
      </trkpt>
      <trkpt lat="44.24978" lon="0.32238">
        <ele>91.973928</ele>
        <time>2022-12-29T10:26:12.885Z</time>
      </trkpt>
      <trkpt lat="44.24968" lon="0.3225">
        <ele>92.069549</ele>
        <time>2022-12-29T10:26:15.881Z</time>
      </trkpt>
      <trkpt lat="44.24958" lon="0.32261">
        <ele>92.159439</ele>
        <time>2022-12-29T10:26:18.883Z</time>
      </trkpt>
      <trkpt lat="44.24949" lon="0.32272">
        <ele>92.251128</ele>
        <time>2022-12-29T10:26:21.878Z</time>
      </trkpt>
      <trkpt lat="44.24938" lon="0.32282">
        <ele>92.349098</ele>
        <time>2022-12-29T10:26:24.893Z</time>
      </trkpt>
      <trkpt lat="44.24927" lon="0.32292">
        <ele>92.322149</ele>
        <time>2022-12-29T10:26:27.889Z</time>
      </trkpt>
      <trkpt lat="44.24919" lon="0.32299">
        <ele>92.121456</ele>
        <time>2022-12-29T10:26:29.891Z</time>
      </trkpt>
      <trkpt lat="44.24912" lon="0.32306">
        <ele>91.919901</ele>
        <time>2022-12-29T10:26:32.903Z</time>
      </trkpt>
      <trkpt lat="44.24902" lon="0.32314">
        <ele>91.687095</ele>
        <time>2022-12-29T10:26:36.878Z</time>
      </trkpt>
      <trkpt lat="44.24892" lon="0.32323">
        <ele>91.413984</ele>
        <time>2022-12-29T10:26:39.877Z</time>
      </trkpt>
      <trkpt lat="44.2488" lon="0.32333">
        <ele>91.124439</ele>
        <time>2022-12-29T10:26:42.886Z</time>
      </trkpt>
      <trkpt lat="44.2487" lon="0.32341">
        <ele>90.861244</ele>
        <time>2022-12-29T10:26:45.919Z</time>
      </trkpt>
      <trkpt lat="44.24858" lon="0.32348">
        <ele>90.577567</ele>
        <time>2022-12-29T10:26:48.906Z</time>
      </trkpt>
      <trkpt lat="44.24846" lon="0.32354">
        <ele>90.31034</ele>
        <time>2022-12-29T10:26:51.878Z</time>
      </trkpt>
      <trkpt lat="44.24835" lon="0.32362">
        <ele>90.036257</ele>
        <time>2022-12-29T10:26:54.892Z</time>
      </trkpt>
      <trkpt lat="44.24823" lon="0.32369">
        <ele>89.757197</ele>
        <time>2022-12-29T10:26:57.892Z</time>
      </trkpt>
      <trkpt lat="44.24811" lon="0.32376">
        <ele>89.468634</ele>
        <time>2022-12-29T10:27:00.877Z</time>
      </trkpt>
      <trkpt lat="44.24802" lon="0.32381">
        <ele>89.263809</ele>
        <time>2022-12-29T10:27:02.876Z</time>
      </trkpt>
      <trkpt lat="44.24789" lon="0.32387">
        <ele>88.95529</ele>
        <time>2022-12-29T10:27:05.895Z</time>
      </trkpt>
      <trkpt lat="44.24776" lon="0.32394">
        <ele>88.654578</ele>
        <time>2022-12-29T10:27:08.879Z</time>
      </trkpt>
      <trkpt lat="44.24763" lon="0.32401">
        <ele>88.475367</ele>
        <time>2022-12-29T10:27:11.891Z</time>
      </trkpt>
      <trkpt lat="44.24751" lon="0.32406">
        <ele>88.431781</ele>
        <time>2022-12-29T10:27:14.902Z</time>
      </trkpt>
      <trkpt lat="44.24738" lon="0.3241">
        <ele>88.384827</ele>
        <time>2022-12-29T10:27:17.894Z</time>
      </trkpt>
      <trkpt lat="44.24726" lon="0.32414">
        <ele>88.344465</ele>
        <time>2022-12-29T10:27:20.899Z</time>
      </trkpt>
      <trkpt lat="44.24715" lon="0.32419">
        <ele>88.302897</ele>
        <time>2022-12-29T10:27:23.902Z</time>
      </trkpt>
      <trkpt lat="44.24704" lon="0.32423">
        <ele>88.262324</ele>
        <time>2022-12-29T10:27:26.875Z</time>
      </trkpt>
      <trkpt lat="44.24691" lon="0.32427">
        <ele>88.218478</ele>
        <time>2022-12-29T10:27:29.902Z</time>
      </trkpt>
      <trkpt lat="44.24678" lon="0.3243">
        <ele>88.172577</ele>
        <time>2022-12-29T10:27:32.903Z</time>
      </trkpt>
      <trkpt lat="44.24665" lon="0.32432">
        <ele>88.125328</ele>
        <time>2022-12-29T10:27:35.905Z</time>
      </trkpt>
      <trkpt lat="44.24653" lon="0.32435">
        <ele>88.084655</ele>
        <time>2022-12-29T10:27:38.886Z</time>
      </trkpt>
      <trkpt lat="44.2464" lon="0.32437">
        <ele>88.037696</ele>
        <time>2022-12-29T10:27:41.878Z</time>
      </trkpt>
      <trkpt lat="44.24627" lon="0.3244">
        <ele>87.991752</ele>
        <time>2022-12-29T10:27:44.946Z</time>
      </trkpt>
      <trkpt lat="44.24618" lon="0.32441">
        <ele>87.960413</ele>
        <time>2022-12-29T10:27:46.908Z</time>
      </trkpt>
      <trkpt lat="44.24608" lon="0.32442">
        <ele>87.926355</ele>
        <time>2022-12-29T10:27:48.905Z</time>
      </trkpt>
      <trkpt lat="44.24598" lon="0.32445">
        <ele>87.88902</ele>
        <time>2022-12-29T10:27:50.905Z</time>
      </trkpt>
      <trkpt lat="44.24589" lon="0.32446">
        <ele>87.911414</ele>
        <time>2022-12-29T10:27:52.899Z</time>
      </trkpt>
      <trkpt lat="44.24579" lon="0.32446">
        <ele>87.992426</ele>
        <time>2022-12-29T10:27:54.879Z</time>
      </trkpt>
      <trkpt lat="44.2457" lon="0.32447">
        <ele>88.071615</ele>
        <time>2022-12-29T10:27:56.901Z</time>
      </trkpt>
      <trkpt lat="44.24559" lon="0.32449">
        <ele>88.168699</ele>
        <time>2022-12-29T10:27:59.909Z</time>
      </trkpt>
      <trkpt lat="44.24547" lon="0.32451">
        <ele>88.274247</ele>
        <time>2022-12-29T10:28:02.885Z</time>
      </trkpt>
      <trkpt lat="44.24534" lon="0.32453">
        <ele>88.382293</ele>
        <time>2022-12-29T10:28:05.891Z</time>
      </trkpt>
      <trkpt lat="44.24523" lon="0.32454">
        <ele>88.479951</ele>
        <time>2022-12-29T10:28:08.885Z</time>
      </trkpt>
      <trkpt lat="44.24512" lon="0.32455">
        <ele>88.570401</ele>
        <time>2022-12-29T10:28:11.936Z</time>
      </trkpt>
      <trkpt lat="44.245" lon="0.32456">
        <ele>88.676222</ele>
        <time>2022-12-29T10:28:15.903Z</time>
      </trkpt>
      <trkpt lat="44.24488" lon="0.32458">
        <ele>88.780454</ele>
        <time>2022-12-29T10:28:18.886Z</time>
      </trkpt>
      <trkpt lat="44.24476" lon="0.32461">
        <ele>88.885911</ele>
        <time>2022-12-29T10:28:21.900Z</time>
      </trkpt>
      <trkpt lat="44.24466" lon="0.32461">
        <ele>88.96763</ele>
        <time>2022-12-29T10:28:23.914Z</time>
      </trkpt>
      <trkpt lat="44.24457" lon="0.32464">
        <ele>89.052878</ele>
        <time>2022-12-29T10:28:25.891Z</time>
      </trkpt>
      <trkpt lat="44.24447" lon="0.32465">
        <ele>89.132385</ele>
        <time>2022-12-29T10:28:27.908Z</time>
      </trkpt>
      <trkpt lat="44.24434" lon="0.32467">
        <ele>89.245217</ele>
        <time>2022-12-29T10:28:30.910Z</time>
      </trkpt>
      <trkpt lat="44.24422" lon="0.3247">
        <ele>89.353623</ele>
        <time>2022-12-29T10:28:33.882Z</time>
      </trkpt>
      <trkpt lat="44.2441" lon="0.32474">
        <ele>89.300468</ele>
        <time>2022-12-29T10:28:36.910Z</time>
      </trkpt>
      <trkpt lat="44.24397" lon="0.32476">
        <ele>89.005849</ele>
        <time>2022-12-29T10:28:39.881Z</time>
      </trkpt>
      <trkpt lat="44.24384" lon="0.32478">
        <ele>88.691227</ele>
        <time>2022-12-29T10:28:42.903Z</time>
      </trkpt>
      <trkpt lat="44.24371" lon="0.32479">
        <ele>88.370906</ele>
        <time>2022-12-29T10:28:45.909Z</time>
      </trkpt>
      <trkpt lat="44.24362" lon="0.32479">
        <ele>88.154868</ele>
        <time>2022-12-29T10:28:47.905Z</time>
      </trkpt>
      <trkpt lat="44.24349" lon="0.3248">
        <ele>87.866981</ele>
        <time>2022-12-29T10:28:50.905Z</time>
      </trkpt>
      <trkpt lat="44.24336" lon="0.32482">
        <ele>87.554369</ele>
        <time>2022-12-29T10:28:53.911Z</time>
      </trkpt>
      <trkpt lat="44.24327" lon="0.32482">
        <ele>87.329009</ele>
        <time>2022-12-29T10:28:55.879Z</time>
      </trkpt>
      <trkpt lat="44.24317" lon="0.32482">
        <ele>87.103623</ele>
        <time>2022-12-29T10:28:57.905Z</time>
      </trkpt>
      <trkpt lat="44.24308" lon="0.32483">
        <ele>86.878103</ele>
        <time>2022-12-29T10:28:59.903Z</time>
      </trkpt>
      <trkpt lat="44.24295" lon="0.32484">
        <ele>86.583458</ele>
        <time>2022-12-29T10:29:02.890Z</time>
      </trkpt>
      <trkpt lat="44.24282" lon="0.32485">
        <ele>86.271655</ele>
        <time>2022-12-29T10:29:05.906Z</time>
      </trkpt>
      <trkpt lat="44.2427" lon="0.32486">
        <ele>85.982</ele>
        <time>2022-12-29T10:29:08.905Z</time>
      </trkpt>
      <trkpt lat="44.24261" lon="0.32487">
        <ele>85.753357</ele>
        <time>2022-12-29T10:29:10.880Z</time>
      </trkpt>
      <trkpt lat="44.24247" lon="0.32489">
        <ele>85.436205</ele>
        <time>2022-12-29T10:29:13.906Z</time>
      </trkpt>
      <trkpt lat="44.24238" lon="0.32491">
        <ele>85.216478</ele>
        <time>2022-12-29T10:29:15.903Z</time>
      </trkpt>
      <trkpt lat="44.24229" lon="0.32492">
        <ele>85.318977</ele>
        <time>2022-12-29T10:29:17.900Z</time>
      </trkpt>
      <trkpt lat="44.24216" lon="0.32494">
        <ele>85.635263</ele>
        <time>2022-12-29T10:29:20.887Z</time>
      </trkpt>
      <trkpt lat="44.24203" lon="0.32497">
        <ele>85.944973</ele>
        <time>2022-12-29T10:29:23.905Z</time>
      </trkpt>
      <trkpt lat="44.24194" lon="0.32498">
        <ele>86.175569</ele>
        <time>2022-12-29T10:29:25.895Z</time>
      </trkpt>
      <trkpt lat="44.24184" lon="0.325">
        <ele>86.42004</ele>
        <time>2022-12-29T10:29:27.900Z</time>
      </trkpt>
      <trkpt lat="44.24172" lon="0.32502">
        <ele>86.718598</ele>
        <time>2022-12-29T10:29:30.912Z</time>
      </trkpt>
      <trkpt lat="44.24159" lon="0.32504">
        <ele>87.0377</ele>
        <time>2022-12-29T10:29:33.902Z</time>
      </trkpt>
      <trkpt lat="44.24146" lon="0.32506">
        <ele>87.365751</ele>
        <time>2022-12-29T10:29:36.964Z</time>
      </trkpt>
      <trkpt lat="44.24137" lon="0.32507">
        <ele>87.598359</ele>
        <time>2022-12-29T10:29:38.905Z</time>
      </trkpt>
      <trkpt lat="44.24123" lon="0.32508">
        <ele>87.923574</ele>
        <time>2022-12-29T10:29:41.902Z</time>
      </trkpt>
      <trkpt lat="44.24111" lon="0.3251">
        <ele>88.231744</ele>
        <time>2022-12-29T10:29:44.903Z</time>
      </trkpt>
      <trkpt lat="44.24101" lon="0.3251">
        <ele>88.467928</ele>
        <time>2022-12-29T10:29:46.902Z</time>
      </trkpt>
      <trkpt lat="44.24092" lon="0.32512">
        <ele>88.688546</ele>
        <time>2022-12-29T10:29:48.907Z</time>
      </trkpt>
      <trkpt lat="44.24079" lon="0.32513">
        <ele>89.023283</ele>
        <time>2022-12-29T10:29:51.881Z</time>
      </trkpt>
      <trkpt lat="44.24066" lon="0.32515">
        <ele>89.333034</ele>
        <time>2022-12-29T10:29:54.905Z</time>
      </trkpt>
      <trkpt lat="44.24054" lon="0.32516">
        <ele>89.545279</ele>
        <time>2022-12-29T10:29:57.887Z</time>
      </trkpt>
      <trkpt lat="44.24041" lon="0.32519">
        <ele>89.389213</ele>
        <time>2022-12-29T10:30:00.907Z</time>
      </trkpt>
      <trkpt lat="44.24031" lon="0.3252">
        <ele>89.264389</ele>
        <time>2022-12-29T10:30:02.903Z</time>
      </trkpt>
      <trkpt lat="44.24021" lon="0.32522">
        <ele>89.149873</ele>
        <time>2022-12-29T10:30:04.888Z</time>
      </trkpt>
      <trkpt lat="44.24008" lon="0.32523">
        <ele>88.990875</ele>
        <time>2022-12-29T10:30:07.903Z</time>
      </trkpt>
      <trkpt lat="44.23998" lon="0.32524">
        <ele>88.871816</ele>
        <time>2022-12-29T10:30:09.944Z</time>
      </trkpt>
      <trkpt lat="44.23985" lon="0.32525">
        <ele>88.728013</ele>
        <time>2022-12-29T10:30:12.889Z</time>
      </trkpt>
      <trkpt lat="44.23974" lon="0.32526">
        <ele>88.591364</ele>
        <time>2022-12-29T10:30:15.899Z</time>
      </trkpt>
      <trkpt lat="44.23962" lon="0.32527">
        <ele>88.452405</ele>
        <time>2022-12-29T10:30:18.907Z</time>
      </trkpt>
      <trkpt lat="44.23953" lon="0.32529">
        <ele>88.338864</ele>
        <time>2022-12-29T10:30:20.901Z</time>
      </trkpt>
      <trkpt lat="44.23943" lon="0.32531">
        <ele>88.221057</ele>
        <time>2022-12-29T10:30:22.873Z</time>
      </trkpt>
      <trkpt lat="44.23934" lon="0.32532">
        <ele>88.109362</ele>
        <time>2022-12-29T10:30:24.884Z</time>
      </trkpt>
      <trkpt lat="44.23924" lon="0.32534">
        <ele>87.999455</ele>
        <time>2022-12-29T10:30:26.879Z</time>
      </trkpt>
      <trkpt lat="44.23913" lon="0.32536">
        <ele>87.857703</ele>
        <time>2022-12-29T10:30:29.902Z</time>
      </trkpt>
      <trkpt lat="44.23902" lon="0.32537">
        <ele>87.737607</ele>
        <time>2022-12-29T10:30:31.889Z</time>
      </trkpt>
      <trkpt lat="44.2389" lon="0.32539">
        <ele>87.590995</ele>
        <time>2022-12-29T10:30:34.904Z</time>
      </trkpt>
      <trkpt lat="44.2388" lon="0.3254">
        <ele>87.47102</ele>
        <time>2022-12-29T10:30:36.880Z</time>
      </trkpt>
      <trkpt lat="44.2387" lon="0.32542">
        <ele>87.356755</ele>
        <time>2022-12-29T10:30:38.902Z</time>
      </trkpt>
      <trkpt lat="44.23857" lon="0.32544">
        <ele>87.215758</ele>
        <time>2022-12-29T10:30:41.873Z</time>
      </trkpt>
      <trkpt lat="44.23847" lon="0.32545">
        <ele>87.099436</ele>
        <time>2022-12-29T10:30:44.892Z</time>
      </trkpt>
      <trkpt lat="44.23837" lon="0.32547">
        <ele>86.994971</ele>
        <time>2022-12-29T10:30:47.901Z</time>
      </trkpt>
      <trkpt lat="44.23828" lon="0.3255">
        <ele>86.887382</ele>
        <time>2022-12-29T10:30:50.883Z</time>
      </trkpt>
      <trkpt lat="44.23819" lon="0.32553">
        <ele>86.786605</ele>
        <time>2022-12-29T10:30:53.901Z</time>
      </trkpt>
      <trkpt lat="44.23808" lon="0.32557">
        <ele>86.660681</ele>
        <time>2022-12-29T10:30:56.902Z</time>
      </trkpt>
      <trkpt lat="44.23796" lon="0.32561">
        <ele>86.533013</ele>
        <time>2022-12-29T10:30:59.879Z</time>
      </trkpt>
      <trkpt lat="44.23786" lon="0.32567">
        <ele>86.408276</ele>
        <time>2022-12-29T10:31:02.915Z</time>
      </trkpt>
      <trkpt lat="44.23776" lon="0.32572">
        <ele>86.289168</ele>
        <time>2022-12-29T10:31:05.901Z</time>
      </trkpt>
      <trkpt lat="44.23767" lon="0.32579">
        <ele>86.178812</ele>
        <time>2022-12-29T10:31:08.884Z</time>
      </trkpt>
      <trkpt lat="44.23758" lon="0.32585">
        <ele>86.073184</ele>
        <time>2022-12-29T10:31:11.901Z</time>
      </trkpt>
      <trkpt lat="44.2375" lon="0.32591">
        <ele>85.971088</ele>
        <time>2022-12-29T10:31:14.904Z</time>
      </trkpt>
      <trkpt lat="44.23741" lon="0.32599">
        <ele>85.8547</ele>
        <time>2022-12-29T10:31:18.903Z</time>
      </trkpt>
      <trkpt lat="44.23732" lon="0.32607">
        <ele>85.742357</ele>
        <time>2022-12-29T10:31:23.878Z</time>
      </trkpt>
      <trkpt lat="44.23723" lon="0.32602">
        <ele>85.629014</ele>
        <time>2022-12-29T10:31:29.895Z</time>
      </trkpt>
      <trkpt lat="44.23715" lon="0.32593">
        <ele>85.517969</ele>
        <time>2022-12-29T10:31:33.883Z</time>
      </trkpt>
      <trkpt lat="44.23707" lon="0.32585">
        <ele>85.370168</ele>
        <time>2022-12-29T10:31:37.902Z</time>
      </trkpt>
      <trkpt lat="44.23697" lon="0.32587">
        <ele>85.185808</ele>
        <time>2022-12-29T10:31:43.903Z</time>
      </trkpt>
      <trkpt lat="44.23701" lon="0.32598">
        <ele>85.017397</ele>
        <time>2022-12-29T10:32:30.879Z</time>
      </trkpt>
      <trkpt lat="44.237" lon="0.32599">
        <ele>85.0044</ele>
        <time>2022-12-29T10:32:43.545Z</time>
      </trkpt>
      <trkpt lat="44.237" lon="0.32597">
        <ele>84.964728</ele>
        <time>2022-12-29T10:57:11.569Z</time>
      </trkpt>
      <trkpt lat="44.23687" lon="0.32609">
        <ele>84.668908</ele>
        <time>2022-12-29T10:58:13.886Z</time>
      </trkpt>
      <trkpt lat="44.23677" lon="0.32618">
        <ele>84.460645</ele>
        <time>2022-12-29T10:58:17.897Z</time>
      </trkpt>
      <trkpt lat="44.23668" lon="0.32628">
        <ele>84.247735</ele>
        <time>2022-12-29T10:58:21.902Z</time>
      </trkpt>
      <trkpt lat="44.2366" lon="0.32636">
        <ele>84.053924</ele>
        <time>2022-12-29T10:58:25.897Z</time>
      </trkpt>
      <trkpt lat="44.23652" lon="0.32645">
        <ele>83.864893</ele>
        <time>2022-12-29T10:58:29.884Z</time>
      </trkpt>
      <trkpt lat="44.23644" lon="0.32656">
        <ele>83.650717</ele>
        <time>2022-12-29T10:58:34.899Z</time>
      </trkpt>
      <trkpt lat="44.23636" lon="0.32668">
        <ele>83.437807</ele>
        <time>2022-12-29T10:58:38.899Z</time>
      </trkpt>
      <trkpt lat="44.23627" lon="0.3268">
        <ele>83.207288</ele>
        <time>2022-12-29T10:58:42.879Z</time>
      </trkpt>
      <trkpt lat="44.2362" lon="0.3269">
        <ele>83.023056</ele>
        <time>2022-12-29T10:58:45.895Z</time>
      </trkpt>
      <trkpt lat="44.23612" lon="0.327">
        <ele>82.824214</ele>
        <time>2022-12-29T10:58:48.897Z</time>
      </trkpt>
      <trkpt lat="44.23604" lon="0.3271">
        <ele>82.628163</ele>
        <time>2022-12-29T10:58:51.900Z</time>
      </trkpt>
      <trkpt lat="44.23597" lon="0.32721">
        <ele>82.428382</ele>
        <time>2022-12-29T10:58:54.886Z</time>
      </trkpt>
      <trkpt lat="44.23589" lon="0.32731">
        <ele>82.231798</ele>
        <time>2022-12-29T10:58:57.896Z</time>
      </trkpt>
      <trkpt lat="44.23582" lon="0.32742">
        <ele>82.207284</ele>
        <time>2022-12-29T10:59:00.899Z</time>
      </trkpt>
      <trkpt lat="44.23573" lon="0.32752">
        <ele>82.401722</ele>
        <time>2022-12-29T10:59:03.896Z</time>
      </trkpt>
      <trkpt lat="44.23565" lon="0.32762">
        <ele>82.58953</ele>
        <time>2022-12-29T10:59:06.886Z</time>
      </trkpt>
      <trkpt lat="44.23558" lon="0.32773">
        <ele>82.776238</ele>
        <time>2022-12-29T10:59:09.907Z</time>
      </trkpt>
      <trkpt lat="44.23551" lon="0.32785">
        <ele>82.964821</ele>
        <time>2022-12-29T10:59:12.878Z</time>
      </trkpt>
      <trkpt lat="44.23546" lon="0.32796">
        <ele>83.138032</ele>
        <time>2022-12-29T10:59:15.875Z</time>
      </trkpt>
      <trkpt lat="44.23541" lon="0.32807">
        <ele>83.298988</ele>
        <time>2022-12-29T10:59:18.898Z</time>
      </trkpt>
      <trkpt lat="44.23533" lon="0.32818">
        <ele>83.490185</ele>
        <time>2022-12-29T10:59:22.875Z</time>
      </trkpt>
      <trkpt lat="44.23526" lon="0.32829">
        <ele>83.681786</ele>
        <time>2022-12-29T10:59:26.898Z</time>
      </trkpt>
      <trkpt lat="44.23518" lon="0.32841">
        <ele>83.881142</ele>
        <time>2022-12-29T10:59:30.877Z</time>
      </trkpt>
      <trkpt lat="44.2351" lon="0.32853">
        <ele>84.090483</ele>
        <time>2022-12-29T10:59:34.889Z</time>
      </trkpt>
      <trkpt lat="44.23502" lon="0.32862">
        <ele>84.261675</ele>
        <time>2022-12-29T10:59:37.893Z</time>
      </trkpt>
      <trkpt lat="44.23494" lon="0.32874">
        <ele>84.463442</ele>
        <time>2022-12-29T10:59:41.897Z</time>
      </trkpt>
      <trkpt lat="44.23487" lon="0.32884">
        <ele>84.636212</ele>
        <time>2022-12-29T10:59:45.901Z</time>
      </trkpt>
      <trkpt lat="44.23481" lon="0.32894">
        <ele>84.808013</ele>
        <time>2022-12-29T10:59:50.895Z</time>
      </trkpt>
      <trkpt lat="44.2348" lon="0.32907">
        <ele>84.972057</ele>
        <time>2022-12-29T10:59:56.878Z</time>
      </trkpt>
      <trkpt lat="44.23475" lon="0.32918">
        <ele>85.135164</ele>
        <time>2022-12-29T11:00:03.881Z</time>
      </trkpt>
      <trkpt lat="44.23469" lon="0.32928">
        <ele>85.306044</ele>
        <time>2022-12-29T11:00:14.873Z</time>
      </trkpt>
      <trkpt lat="44.23462" lon="0.32937">
        <ele>85.498965</ele>
        <time>2022-12-29T11:00:24.875Z</time>
      </trkpt>
      <trkpt lat="44.23455" lon="0.32946">
        <ele>85.679317</ele>
        <time>2022-12-29T11:00:35.877Z</time>
      </trkpt>
      <trkpt lat="44.23448" lon="0.32955">
        <ele>85.866937</ele>
        <time>2022-12-29T11:00:47.877Z</time>
      </trkpt>
      <trkpt lat="44.23441" lon="0.32964">
        <ele>86.055653</ele>
        <time>2022-12-29T11:01:00.878Z</time>
      </trkpt>
      <trkpt lat="44.23433" lon="0.32971">
        <ele>86.252366</ele>
        <time>2022-12-29T11:01:11.884Z</time>
      </trkpt>
      <trkpt lat="44.23424" lon="0.32975">
        <ele>86.43241</ele>
        <time>2022-12-29T11:01:17.876Z</time>
      </trkpt>
      <trkpt lat="44.23419" lon="0.32986">
        <ele>86.621349</ele>
        <time>2022-12-29T11:01:24.881Z</time>
      </trkpt>
      <trkpt lat="44.23412" lon="0.32996">
        <ele>86.811451</ele>
        <time>2022-12-29T11:01:29.876Z</time>
      </trkpt>
      <trkpt lat="44.23405" lon="0.33006">
        <ele>87.021647</ele>
        <time>2022-12-29T11:01:34.900Z</time>
      </trkpt>
      <trkpt lat="44.23396" lon="0.33018">
        <ele>87.256134</ele>
        <time>2022-12-29T11:01:38.901Z</time>
      </trkpt>
      <trkpt lat="44.2339" lon="0.33028">
        <ele>87.44927</ele>
        <time>2022-12-29T11:01:41.896Z</time>
      </trkpt>
      <trkpt lat="44.23382" lon="0.33038">
        <ele>87.655384</ele>
        <time>2022-12-29T11:01:44.895Z</time>
      </trkpt>
      <trkpt lat="44.23374" lon="0.33048">
        <ele>87.860203</ele>
        <time>2022-12-29T11:01:47.897Z</time>
      </trkpt>
      <trkpt lat="44.23366" lon="0.33059">
        <ele>88.093585</ele>
        <time>2022-12-29T11:01:51.896Z</time>
      </trkpt>
      <trkpt lat="44.23358" lon="0.3307">
        <ele>88.312522</ele>
        <time>2022-12-29T11:01:55.893Z</time>
      </trkpt>
      <trkpt lat="44.2335" lon="0.33083">
        <ele>88.553848</ele>
        <time>2022-12-29T11:01:59.895Z</time>
      </trkpt>
      <trkpt lat="44.23342" lon="0.33092">
        <ele>88.755885</ele>
        <time>2022-12-29T11:02:02.881Z</time>
      </trkpt>
      <trkpt lat="44.23335" lon="0.33102">
        <ele>88.766164</ele>
        <time>2022-12-29T11:02:05.896Z</time>
      </trkpt>
      <trkpt lat="44.23327" lon="0.33113">
        <ele>88.675079</ele>
        <time>2022-12-29T11:02:08.892Z</time>
      </trkpt>
      <trkpt lat="44.23318" lon="0.33124">
        <ele>88.577869</ele>
        <time>2022-12-29T11:02:11.900Z</time>
      </trkpt>
      <trkpt lat="44.2331" lon="0.33136">
        <ele>88.482818</ele>
        <time>2022-12-29T11:02:14.896Z</time>
      </trkpt>
      <trkpt lat="44.23302" lon="0.33146">
        <ele>88.393979</ele>
        <time>2022-12-29T11:02:17.895Z</time>
      </trkpt>
      <trkpt lat="44.23295" lon="0.33155">
        <ele>88.317082</ele>
        <time>2022-12-29T11:02:20.896Z</time>
      </trkpt>
      <trkpt lat="44.23287" lon="0.33166">
        <ele>88.222863</ele>
        <time>2022-12-29T11:02:24.901Z</time>
      </trkpt>
      <trkpt lat="44.2328" lon="0.33174">
        <ele>88.147891</ele>
        <time>2022-12-29T11:02:27.900Z</time>
      </trkpt>
      <trkpt lat="44.23272" lon="0.33185">
        <ele>88.0592</ele>
        <time>2022-12-29T11:02:31.891Z</time>
      </trkpt>
      <trkpt lat="44.23265" lon="0.33195">
        <ele>87.978572</ele>
        <time>2022-12-29T11:02:34.888Z</time>
      </trkpt>
      <trkpt lat="44.23258" lon="0.33206">
        <ele>87.89103</ele>
        <time>2022-12-29T11:02:37.900Z</time>
      </trkpt>
      <trkpt lat="44.2325" lon="0.33217">
        <ele>87.801801</ele>
        <time>2022-12-29T11:02:40.902Z</time>
      </trkpt>
      <trkpt lat="44.23242" lon="0.33228">
        <ele>87.706166</ele>
        <time>2022-12-29T11:02:43.899Z</time>
      </trkpt>
      <trkpt lat="44.23233" lon="0.3324">
        <ele>87.609538</ele>
        <time>2022-12-29T11:02:46.899Z</time>
      </trkpt>
      <trkpt lat="44.23224" lon="0.33251">
        <ele>87.507891</ele>
        <time>2022-12-29T11:02:49.904Z</time>
      </trkpt>
      <trkpt lat="44.23216" lon="0.33262">
        <ele>87.416661</ele>
        <time>2022-12-29T11:02:52.879Z</time>
      </trkpt>
      <trkpt lat="44.23209" lon="0.33272">
        <ele>87.351764</ele>
        <time>2022-12-29T11:02:55.900Z</time>
      </trkpt>
      <trkpt lat="44.23201" lon="0.33282">
        <ele>87.342152</ele>
        <time>2022-12-29T11:02:58.905Z</time>
      </trkpt>
      <trkpt lat="44.23194" lon="0.33292">
        <ele>87.332866</ele>
        <time>2022-12-29T11:03:01.897Z</time>
      </trkpt>
      <trkpt lat="44.23187" lon="0.33301">
        <ele>87.324008</ele>
        <time>2022-12-29T11:03:04.895Z</time>
      </trkpt>
      <trkpt lat="44.2318" lon="0.3331">
        <ele>87.315549</ele>
        <time>2022-12-29T11:03:07.892Z</time>
      </trkpt>
      <trkpt lat="44.23173" lon="0.3332">
        <ele>87.3065</ele>
        <time>2022-12-29T11:03:10.900Z</time>
      </trkpt>
      <trkpt lat="44.23166" lon="0.33331">
        <ele>87.296954</ele>
        <time>2022-12-29T11:03:13.901Z</time>
      </trkpt>
      <trkpt lat="44.23158" lon="0.33341">
        <ele>87.286894</ele>
        <time>2022-12-29T11:03:16.900Z</time>
      </trkpt>
      <trkpt lat="44.2315" lon="0.33352">
        <ele>87.27688</ele>
        <time>2022-12-29T11:03:19.900Z</time>
      </trkpt>
      <trkpt lat="44.23141" lon="0.33363">
        <ele>87.26618</ele>
        <time>2022-12-29T11:03:22.876Z</time>
      </trkpt>
      <trkpt lat="44.23133" lon="0.33375">
        <ele>87.255529</ele>
        <time>2022-12-29T11:03:25.900Z</time>
      </trkpt>
      <trkpt lat="44.23124" lon="0.33388">
        <ele>87.243541</ele>
        <time>2022-12-29T11:03:28.902Z</time>
      </trkpt>
      <trkpt lat="44.23115" lon="0.33399">
        <ele>87.232752</ele>
        <time>2022-12-29T11:03:31.906Z</time>
      </trkpt>
      <trkpt lat="44.23106" lon="0.33411">
        <ele>87.221597</ele>
        <time>2022-12-29T11:03:34.892Z</time>
      </trkpt>
      <trkpt lat="44.23097" lon="0.33424">
        <ele>87.209908</ele>
        <time>2022-12-29T11:03:37.883Z</time>
      </trkpt>
      <trkpt lat="44.2309" lon="0.33436">
        <ele>87.199517</ele>
        <time>2022-12-29T11:03:40.887Z</time>
      </trkpt>
      <trkpt lat="44.23082" lon="0.33449">
        <ele>87.19554</ele>
        <time>2022-12-29T11:03:43.902Z</time>
      </trkpt>
      <trkpt lat="44.23073" lon="0.33462">
        <ele>87.225621</ele>
        <time>2022-12-29T11:03:46.894Z</time>
      </trkpt>
      <trkpt lat="44.23066" lon="0.33473">
        <ele>87.251809</ele>
        <time>2022-12-29T11:03:49.900Z</time>
      </trkpt>
      <trkpt lat="44.23058" lon="0.33484">
        <ele>87.278627</ele>
        <time>2022-12-29T11:03:52.877Z</time>
      </trkpt>
      <trkpt lat="44.2305" lon="0.33497">
        <ele>87.307428</ele>
        <time>2022-12-29T11:03:55.898Z</time>
      </trkpt>
      <trkpt lat="44.23044" lon="0.33508">
        <ele>87.330603</ele>
        <time>2022-12-29T11:03:58.895Z</time>
      </trkpt>
      <trkpt lat="44.23037" lon="0.3352">
        <ele>87.357732</ele>
        <time>2022-12-29T11:04:01.874Z</time>
      </trkpt>
      <trkpt lat="44.23029" lon="0.33534">
        <ele>87.388435</ele>
        <time>2022-12-29T11:04:04.899Z</time>
      </trkpt>
      <trkpt lat="44.23022" lon="0.33549">
        <ele>87.418716</ele>
        <time>2022-12-29T11:04:07.896Z</time>
      </trkpt>
      <trkpt lat="44.23015" lon="0.33563">
        <ele>87.447756</ele>
        <time>2022-12-29T11:04:10.893Z</time>
      </trkpt>
      <trkpt lat="44.23009" lon="0.33577">
        <ele>87.4762</ele>
        <time>2022-12-29T11:04:13.899Z</time>
      </trkpt>
      <trkpt lat="44.23003" lon="0.33591">
        <ele>87.504107</ele>
        <time>2022-12-29T11:04:16.900Z</time>
      </trkpt>
      <trkpt lat="44.22998" lon="0.33606">
        <ele>87.532729</ele>
        <time>2022-12-29T11:04:19.876Z</time>
      </trkpt>
      <trkpt lat="44.2299" lon="0.3362">
        <ele>87.563577</ele>
        <time>2022-12-29T11:04:22.881Z</time>
      </trkpt>
      <trkpt lat="44.22984" lon="0.33634">
        <ele>87.591263</ele>
        <time>2022-12-29T11:04:25.882Z</time>
      </trkpt>
      <trkpt lat="44.22978" lon="0.33649">
        <ele>87.620569</ele>
        <time>2022-12-29T11:04:28.899Z</time>
      </trkpt>
      <trkpt lat="44.22973" lon="0.33664">
        <ele>87.399747</ele>
        <time>2022-12-29T11:04:31.905Z</time>
      </trkpt>
      <trkpt lat="44.22968" lon="0.3368">
        <ele>87.172795</ele>
        <time>2022-12-29T11:04:34.894Z</time>
      </trkpt>
      <trkpt lat="44.22962" lon="0.33697">
        <ele>86.926385</ele>
        <time>2022-12-29T11:04:37.890Z</time>
      </trkpt>
      <trkpt lat="44.22959" lon="0.33709">
        <ele>86.756706</ele>
        <time>2022-12-29T11:04:39.898Z</time>
      </trkpt>
      <trkpt lat="44.22955" lon="0.33727">
        <ele>86.513759</ele>
        <time>2022-12-29T11:04:42.881Z</time>
      </trkpt>
      <trkpt lat="44.22951" lon="0.33739">
        <ele>86.344329</ele>
        <time>2022-12-29T11:04:44.899Z</time>
      </trkpt>
      <trkpt lat="44.22947" lon="0.33755">
        <ele>86.123573</ele>
        <time>2022-12-29T11:04:47.890Z</time>
      </trkpt>
      <trkpt lat="44.22944" lon="0.33768">
        <ele>85.939241</ele>
        <time>2022-12-29T11:04:50.892Z</time>
      </trkpt>
      <trkpt lat="44.22941" lon="0.33783">
        <ele>85.740497</ele>
        <time>2022-12-29T11:04:53.900Z</time>
      </trkpt>
      <trkpt lat="44.22938" lon="0.338">
        <ele>85.513325</ele>
        <time>2022-12-29T11:04:56.891Z</time>
      </trkpt>
      <trkpt lat="44.22936" lon="0.33817">
        <ele>85.280633</ele>
        <time>2022-12-29T11:04:59.897Z</time>
      </trkpt>
      <trkpt lat="44.22933" lon="0.33836">
        <ele>85.035173</ele>
        <time>2022-12-29T11:05:02.877Z</time>
      </trkpt>
      <trkpt lat="44.22931" lon="0.33848">
        <ele>84.865969</ele>
        <time>2022-12-29T11:05:04.899Z</time>
      </trkpt>
      <trkpt lat="44.2293" lon="0.33861">
        <ele>84.6995</ele>
        <time>2022-12-29T11:05:06.895Z</time>
      </trkpt>
      <trkpt lat="44.22928" lon="0.33879">
        <ele>84.459124</ele>
        <time>2022-12-29T11:05:09.899Z</time>
      </trkpt>
      <trkpt lat="44.22927" lon="0.33897">
        <ele>84.336619</ele>
        <time>2022-12-29T11:05:12.877Z</time>
      </trkpt>
      <trkpt lat="44.22925" lon="0.33915">
        <ele>84.342572</ele>
        <time>2022-12-29T11:05:15.883Z</time>
      </trkpt>
      <trkpt lat="44.22925" lon="0.33933">
        <ele>84.348657</ele>
        <time>2022-12-29T11:05:18.897Z</time>
      </trkpt>
      <trkpt lat="44.22924" lon="0.33952">
        <ele>84.354744</ele>
        <time>2022-12-29T11:05:21.894Z</time>
      </trkpt>
      <trkpt lat="44.22924" lon="0.33969">
        <ele>84.36049</ele>
        <time>2022-12-29T11:05:24.897Z</time>
      </trkpt>
      <trkpt lat="44.22925" lon="0.33987">
        <ele>84.366411</ele>
        <time>2022-12-29T11:05:27.899Z</time>
      </trkpt>
      <trkpt lat="44.22925" lon="0.34006">
        <ele>84.372629</ele>
        <time>2022-12-29T11:05:30.896Z</time>
      </trkpt>
      <trkpt lat="44.22926" lon="0.34024">
        <ele>84.378614</ele>
        <time>2022-12-29T11:05:33.895Z</time>
      </trkpt>
      <trkpt lat="44.22927" lon="0.3404">
        <ele>84.384236</ele>
        <time>2022-12-29T11:05:36.900Z</time>
      </trkpt>
      <trkpt lat="44.22928" lon="0.34056">
        <ele>84.389448</ele>
        <time>2022-12-29T11:05:39.892Z</time>
      </trkpt>
      <trkpt lat="44.22928" lon="0.3407">
        <ele>84.394135</ele>
        <time>2022-12-29T11:05:42.879Z</time>
      </trkpt>
      <trkpt lat="44.22929" lon="0.34085">
        <ele>84.399105</ele>
        <time>2022-12-29T11:05:45.897Z</time>
      </trkpt>
      <trkpt lat="44.22932" lon="0.34101">
        <ele>84.404426</ele>
        <time>2022-12-29T11:05:48.875Z</time>
      </trkpt>
      <trkpt lat="44.22935" lon="0.34117">
        <ele>84.409929</ele>
        <time>2022-12-29T11:05:51.887Z</time>
      </trkpt>
      <trkpt lat="44.22938" lon="0.34133">
        <ele>84.415659</ele>
        <time>2022-12-29T11:05:54.888Z</time>
      </trkpt>
      <trkpt lat="44.22941" lon="0.34151">
        <ele>84.544939</ele>
        <time>2022-12-29T11:05:57.900Z</time>
      </trkpt>
      <trkpt lat="44.22944" lon="0.34167">
        <ele>84.70389</ele>
        <time>2022-12-29T11:06:00.877Z</time>
      </trkpt>
      <trkpt lat="44.22947" lon="0.34182">
        <ele>84.856007</ele>
        <time>2022-12-29T11:06:03.900Z</time>
      </trkpt>
      <trkpt lat="44.22949" lon="0.34197">
        <ele>85.000796</ele>
        <time>2022-12-29T11:06:06.897Z</time>
      </trkpt>
      <trkpt lat="44.22953" lon="0.34212">
        <ele>85.150649</ele>
        <time>2022-12-29T11:06:09.881Z</time>
      </trkpt>
      <trkpt lat="44.22956" lon="0.34229">
        <ele>85.308918</ele>
        <time>2022-12-29T11:06:12.878Z</time>
      </trkpt>
      <trkpt lat="44.22959" lon="0.34244">
        <ele>85.461495</ele>
        <time>2022-12-29T11:06:15.898Z</time>
      </trkpt>
      <trkpt lat="44.22961" lon="0.34257">
        <ele>85.586338</ele>
        <time>2022-12-29T11:06:18.878Z</time>
      </trkpt>
      <trkpt lat="44.22964" lon="0.34269">
        <ele>85.707511</ele>
        <time>2022-12-29T11:06:21.901Z</time>
      </trkpt>
      <trkpt lat="44.22968" lon="0.34281">
        <ele>85.834174</ele>
        <time>2022-12-29T11:06:24.878Z</time>
      </trkpt>
      <trkpt lat="44.22971" lon="0.34294">
        <ele>85.963864</ele>
        <time>2022-12-29T11:06:27.902Z</time>
      </trkpt>
      <trkpt lat="44.22974" lon="0.34307">
        <ele>86.093709</ele>
        <time>2022-12-29T11:06:30.899Z</time>
      </trkpt>
      <trkpt lat="44.22978" lon="0.34321">
        <ele>86.23831</ele>
        <time>2022-12-29T11:06:34.900Z</time>
      </trkpt>
      <trkpt lat="44.22983" lon="0.34333">
        <ele>86.365962</ele>
        <time>2022-12-29T11:06:38.899Z</time>
      </trkpt>
      <trkpt lat="44.22989" lon="0.34343">
        <ele>86.492826</ele>
        <time>2022-12-29T11:06:44.884Z</time>
      </trkpt>
      <trkpt lat="44.22987" lon="0.34359">
        <ele>86.641796</ele>
        <time>2022-12-29T11:06:49.894Z</time>
      </trkpt>
      <trkpt lat="44.22989" lon="0.34374">
        <ele>86.781925</ele>
        <time>2022-12-29T11:06:53.885Z</time>
      </trkpt>
      <trkpt lat="44.22992" lon="0.34386">
        <ele>86.801986</ele>
        <time>2022-12-29T11:06:56.885Z</time>
      </trkpt>
      <trkpt lat="44.22995" lon="0.34399">
        <ele>86.81361</ele>
        <time>2022-12-29T11:06:59.894Z</time>
      </trkpt>
      <trkpt lat="44.22999" lon="0.34412">
        <ele>86.826082</ele>
        <time>2022-12-29T11:07:02.878Z</time>
      </trkpt>
      <trkpt lat="44.23002" lon="0.34427">
        <ele>86.839679</ele>
        <time>2022-12-29T11:07:05.890Z</time>
      </trkpt>
      <trkpt lat="44.23006" lon="0.34444">
        <ele>86.855472</ele>
        <time>2022-12-29T11:07:08.902Z</time>
      </trkpt>
      <trkpt lat="44.2301" lon="0.3446">
        <ele>86.869546</ele>
        <time>2022-12-29T11:07:11.892Z</time>
      </trkpt>
      <trkpt lat="44.23012" lon="0.34474">
        <ele>86.88211</ele>
        <time>2022-12-29T11:07:14.885Z</time>
      </trkpt>
      <trkpt lat="44.23016" lon="0.34487">
        <ele>86.894057</ele>
        <time>2022-12-29T11:07:17.899Z</time>
      </trkpt>
      <trkpt lat="44.23019" lon="0.34501">
        <ele>86.907146</ele>
        <time>2022-12-29T11:07:20.903Z</time>
      </trkpt>
      <trkpt lat="44.23022" lon="0.34517">
        <ele>86.921515</ele>
        <time>2022-12-29T11:07:23.883Z</time>
      </trkpt>
      <trkpt lat="44.23025" lon="0.34533">
        <ele>86.935571</ele>
        <time>2022-12-29T11:07:26.899Z</time>
      </trkpt>
      <trkpt lat="44.23027" lon="0.3455">
        <ele>86.950795</ele>
        <time>2022-12-29T11:07:29.892Z</time>
      </trkpt>
      <trkpt lat="44.2303" lon="0.34567">
        <ele>86.966189</ele>
        <time>2022-12-29T11:07:32.886Z</time>
      </trkpt>
      <trkpt lat="44.23033" lon="0.34584">
        <ele>86.980864</ele>
        <time>2022-12-29T11:07:35.898Z</time>
      </trkpt>
      <trkpt lat="44.23035" lon="0.34599">
        <ele>86.994922</ele>
        <time>2022-12-29T11:07:38.897Z</time>
      </trkpt>
      <trkpt lat="44.23037" lon="0.34613">
        <ele>87.006704</ele>
        <time>2022-12-29T11:07:41.899Z</time>
      </trkpt>
      <trkpt lat="44.23039" lon="0.34626">
        <ele>87.000059</ele>
        <time>2022-12-29T11:07:44.876Z</time>
      </trkpt>
      <trkpt lat="44.23041" lon="0.34642">
        <ele>86.985562</ele>
        <time>2022-12-29T11:07:47.886Z</time>
      </trkpt>
      <trkpt lat="44.23042" lon="0.3466">
        <ele>86.96987</ele>
        <time>2022-12-29T11:07:50.885Z</time>
      </trkpt>
      <trkpt lat="44.23043" lon="0.34676">
        <ele>86.955621</ele>
        <time>2022-12-29T11:07:53.898Z</time>
      </trkpt>
      <trkpt lat="44.23045" lon="0.3469">
        <ele>86.942516</ele>
        <time>2022-12-29T11:07:56.886Z</time>
      </trkpt>
      <trkpt lat="44.23048" lon="0.34703">
        <ele>86.930733</ele>
        <time>2022-12-29T11:07:59.898Z</time>
      </trkpt>
      <trkpt lat="44.23049" lon="0.34716">
        <ele>86.919432</ele>
        <time>2022-12-29T11:08:02.874Z</time>
      </trkpt>
      <trkpt lat="44.23046" lon="0.3473">
        <ele>86.906387</ele>
        <time>2022-12-29T11:08:05.878Z</time>
      </trkpt>
      <trkpt lat="44.23044" lon="0.34745">
        <ele>86.892794</ele>
        <time>2022-12-29T11:08:08.895Z</time>
      </trkpt>
      <trkpt lat="44.23043" lon="0.34759">
        <ele>86.879963</ele>
        <time>2022-12-29T11:08:11.893Z</time>
      </trkpt>
      <trkpt lat="44.23042" lon="0.34775">
        <ele>86.866181</ele>
        <time>2022-12-29T11:08:14.899Z</time>
      </trkpt>
      <trkpt lat="44.2304" lon="0.3479">
        <ele>86.852698</ele>
        <time>2022-12-29T11:08:17.881Z</time>
      </trkpt>
      <trkpt lat="44.23039" lon="0.34804">
        <ele>86.840387</ele>
        <time>2022-12-29T11:08:20.891Z</time>
      </trkpt>
      <trkpt lat="44.23037" lon="0.34818">
        <ele>86.827326</ele>
        <time>2022-12-29T11:08:23.898Z</time>
      </trkpt>
      <trkpt lat="44.23035" lon="0.34833">
        <ele>86.813657</ele>
        <time>2022-12-29T11:08:26.901Z</time>
      </trkpt>
      <trkpt lat="44.23034" lon="0.3485">
        <ele>86.7989</ele>
        <time>2022-12-29T11:08:29.899Z</time>
      </trkpt>
      <trkpt lat="44.23032" lon="0.34867">
        <ele>86.743695</ele>
        <time>2022-12-29T11:08:32.884Z</time>
      </trkpt>
      <trkpt lat="44.2303" lon="0.34885">
        <ele>86.546405</ele>
        <time>2022-12-29T11:08:35.898Z</time>
      </trkpt>
      <trkpt lat="44.23027" lon="0.34897">
        <ele>86.40892</ele>
        <time>2022-12-29T11:08:37.897Z</time>
      </trkpt>
      <trkpt lat="44.23024" lon="0.34909">
        <ele>86.271904</ele>
        <time>2022-12-29T11:08:39.886Z</time>
      </trkpt>
      <trkpt lat="44.2302" lon="0.34925">
        <ele>86.094276</ele>
        <time>2022-12-29T11:08:42.880Z</time>
      </trkpt>
      <trkpt lat="44.23017" lon="0.34938">
        <ele>85.939309</ele>
        <time>2022-12-29T11:08:45.901Z</time>
      </trkpt>
      <trkpt lat="44.23014" lon="0.34954">
        <ele>85.768596</ele>
        <time>2022-12-29T11:08:48.900Z</time>
      </trkpt>
      <trkpt lat="44.2301" lon="0.34969">
        <ele>85.59038</ele>
        <time>2022-12-29T11:08:51.899Z</time>
      </trkpt>
      <trkpt lat="44.23005" lon="0.34986">
        <ele>85.39535</ele>
        <time>2022-12-29T11:08:54.889Z</time>
      </trkpt>
      <trkpt lat="44.22999" lon="0.35002">
        <ele>85.20282</ele>
        <time>2022-12-29T11:08:57.890Z</time>
      </trkpt>
      <trkpt lat="44.22994" lon="0.35018">
        <ele>85.008782</ele>
        <time>2022-12-29T11:09:00.878Z</time>
      </trkpt>
      <trkpt lat="44.22989" lon="0.35033">
        <ele>84.831143</ele>
        <time>2022-12-29T11:09:03.897Z</time>
      </trkpt>
      <trkpt lat="44.22985" lon="0.35046">
        <ele>84.684962</ele>
        <time>2022-12-29T11:09:06.897Z</time>
      </trkpt>
      <trkpt lat="44.2298" lon="0.35059">
        <ele>84.524072</ele>
        <time>2022-12-29T11:09:10.874Z</time>
      </trkpt>
      <trkpt lat="44.22974" lon="0.35072">
        <ele>84.356428</ele>
        <time>2022-12-29T11:09:13.891Z</time>
      </trkpt>
      <trkpt lat="44.22968" lon="0.35088">
        <ele>84.166815</ele>
        <time>2022-12-29T11:09:16.892Z</time>
      </trkpt>
      <trkpt lat="44.22961" lon="0.35103">
        <ele>84.302059</ele>
        <time>2022-12-29T11:09:19.880Z</time>
      </trkpt>
      <trkpt lat="44.22955" lon="0.35118">
        <ele>84.651126</ele>
        <time>2022-12-29T11:09:22.879Z</time>
      </trkpt>
      <trkpt lat="44.22949" lon="0.35132">
        <ele>84.99237</ele>
        <time>2022-12-29T11:09:25.888Z</time>
      </trkpt>
      <trkpt lat="44.22942" lon="0.35147">
        <ele>85.348602</ele>
        <time>2022-12-29T11:09:28.879Z</time>
      </trkpt>
      <trkpt lat="44.22936" lon="0.35162">
        <ele>85.705104</ele>
        <time>2022-12-29T11:09:31.886Z</time>
      </trkpt>
      <trkpt lat="44.22928" lon="0.35175">
        <ele>86.058914</ele>
        <time>2022-12-29T11:09:34.900Z</time>
      </trkpt>
      <trkpt lat="44.22921" lon="0.35187">
        <ele>86.37147</ele>
        <time>2022-12-29T11:09:37.880Z</time>
      </trkpt>
      <trkpt lat="44.22915" lon="0.352">
        <ele>86.688804</ele>
        <time>2022-12-29T11:09:40.882Z</time>
      </trkpt>
      <trkpt lat="44.22909" lon="0.35213">
        <ele>87.01418</ele>
        <time>2022-12-29T11:09:43.901Z</time>
      </trkpt>
      <trkpt lat="44.22903" lon="0.35225">
        <ele>87.311251</ele>
        <time>2022-12-29T11:09:46.880Z</time>
      </trkpt>
      <trkpt lat="44.22895" lon="0.3524">
        <ele>87.683253</ele>
        <time>2022-12-29T11:09:49.881Z</time>
      </trkpt>
      <trkpt lat="44.22888" lon="0.35254">
        <ele>88.046972</ele>
        <time>2022-12-29T11:09:52.882Z</time>
      </trkpt>
      <trkpt lat="44.22881" lon="0.35269">
        <ele>88.3995</ele>
        <time>2022-12-29T11:09:55.896Z</time>
      </trkpt>
      <trkpt lat="44.22875" lon="0.35283">
        <ele>88.741844</ele>
        <time>2022-12-29T11:09:58.884Z</time>
      </trkpt>
      <trkpt lat="44.22867" lon="0.35297">
        <ele>89.107169</ele>
        <time>2022-12-29T11:10:01.890Z</time>
      </trkpt>
      <trkpt lat="44.22861" lon="0.35312">
        <ele>89.154545</ele>
        <time>2022-12-29T11:10:04.896Z</time>
      </trkpt>
      <trkpt lat="44.22855" lon="0.35325">
        <ele>89.044905</ele>
        <time>2022-12-29T11:10:07.883Z</time>
      </trkpt>
      <trkpt lat="44.22849" lon="0.35335">
        <ele>88.952187</ele>
        <time>2022-12-29T11:10:10.878Z</time>
      </trkpt>
      <trkpt lat="44.22845" lon="0.35346">
        <ele>88.861447</ele>
        <time>2022-12-29T11:10:13.881Z</time>
      </trkpt>
      <trkpt lat="44.22838" lon="0.35359">
        <ele>88.745334</ele>
        <time>2022-12-29T11:10:16.886Z</time>
      </trkpt>
      <trkpt lat="44.22832" lon="0.35373">
        <ele>88.626377</ele>
        <time>2022-12-29T11:10:19.883Z</time>
      </trkpt>
      <trkpt lat="44.22825" lon="0.35387">
        <ele>88.506831</ele>
        <time>2022-12-29T11:10:22.876Z</time>
      </trkpt>
      <trkpt lat="44.22819" lon="0.35401">
        <ele>88.388775</ele>
        <time>2022-12-29T11:10:25.883Z</time>
      </trkpt>
      <trkpt lat="44.22812" lon="0.35413">
        <ele>88.278543</ele>
        <time>2022-12-29T11:10:28.892Z</time>
      </trkpt>
      <trkpt lat="44.22807" lon="0.35425">
        <ele>88.178767</ele>
        <time>2022-12-29T11:10:31.883Z</time>
      </trkpt>
      <trkpt lat="44.22801" lon="0.35438">
        <ele>88.069443</ele>
        <time>2022-12-29T11:10:34.873Z</time>
      </trkpt>
      <trkpt lat="44.22795" lon="0.3545">
        <ele>87.963269</ele>
        <time>2022-12-29T11:10:37.890Z</time>
      </trkpt>
      <trkpt lat="44.2279" lon="0.35464">
        <ele>87.854105</ele>
        <time>2022-12-29T11:10:41.900Z</time>
      </trkpt>
      <trkpt lat="44.22783" lon="0.35476">
        <ele>87.744981</ele>
        <time>2022-12-29T11:10:46.897Z</time>
      </trkpt>
      <trkpt lat="44.22778" lon="0.35489">
        <ele>87.637408</ele>
        <time>2022-12-29T11:10:50.900Z</time>
      </trkpt>
      <trkpt lat="44.22778" lon="0.35502">
        <ele>87.541815</ele>
        <time>2022-12-29T11:10:54.888Z</time>
      </trkpt>
      <trkpt lat="44.22774" lon="0.35515">
        <ele>87.441241</ele>
        <time>2022-12-29T11:10:59.884Z</time>
      </trkpt>
      <trkpt lat="44.22764" lon="0.35523">
        <ele>87.240727</ele>
        <time>2022-12-29T11:11:03.876Z</time>
      </trkpt>
      <trkpt lat="44.22757" lon="0.35533">
        <ele>87.032649</ele>
        <time>2022-12-29T11:11:07.895Z</time>
      </trkpt>
      <trkpt lat="44.22751" lon="0.35546">
        <ele>86.81275</ele>
        <time>2022-12-29T11:11:11.885Z</time>
      </trkpt>
      <trkpt lat="44.22744" lon="0.35558">
        <ele>86.61209</ele>
        <time>2022-12-29T11:11:15.896Z</time>
      </trkpt>
      <trkpt lat="44.22737" lon="0.35569">
        <ele>86.403559</ele>
        <time>2022-12-29T11:11:19.876Z</time>
      </trkpt>
      <trkpt lat="44.22733" lon="0.35579">
        <ele>86.22782</ele>
        <time>2022-12-29T11:11:22.877Z</time>
      </trkpt>
      <trkpt lat="44.22727" lon="0.35592">
        <ele>86.024035</ele>
        <time>2022-12-29T11:11:26.899Z</time>
      </trkpt>
      <trkpt lat="44.22722" lon="0.35602">
        <ele>85.84283</ele>
        <time>2022-12-29T11:11:29.877Z</time>
      </trkpt>
      <trkpt lat="44.22716" lon="0.35613">
        <ele>85.660552</ele>
        <time>2022-12-29T11:11:32.878Z</time>
      </trkpt>
      <trkpt lat="44.22711" lon="0.35625">
        <ele>85.453016</ele>
        <time>2022-12-29T11:11:35.900Z</time>
      </trkpt>
      <trkpt lat="44.22704" lon="0.35639">
        <ele>85.22487</ele>
        <time>2022-12-29T11:11:38.897Z</time>
      </trkpt>
      <trkpt lat="44.22698" lon="0.35653">
        <ele>84.987531</ele>
        <time>2022-12-29T11:11:41.890Z</time>
      </trkpt>
      <trkpt lat="44.22692" lon="0.35666">
        <ele>84.772155</ele>
        <time>2022-12-29T11:11:44.888Z</time>
      </trkpt>
      <trkpt lat="44.22686" lon="0.35677">
        <ele>84.575061</ele>
        <time>2022-12-29T11:11:47.890Z</time>
      </trkpt>
      <trkpt lat="44.2268" lon="0.3569">
        <ele>84.369866</ele>
        <time>2022-12-29T11:11:50.888Z</time>
      </trkpt>
      <trkpt lat="44.22674" lon="0.35703">
        <ele>84.154872</ele>
        <time>2022-12-29T11:11:53.880Z</time>
      </trkpt>
      <trkpt lat="44.22669" lon="0.35716">
        <ele>83.937899</ele>
        <time>2022-12-29T11:11:56.901Z</time>
      </trkpt>
      <trkpt lat="44.22663" lon="0.3573">
        <ele>83.997066</ele>
        <time>2022-12-29T11:11:59.888Z</time>
      </trkpt>
      <trkpt lat="44.22656" lon="0.35742">
        <ele>84.085592</ele>
        <time>2022-12-29T11:12:02.881Z</time>
      </trkpt>
      <trkpt lat="44.22649" lon="0.35755">
        <ele>84.178295</ele>
        <time>2022-12-29T11:12:05.897Z</time>
      </trkpt>
      <trkpt lat="44.22642" lon="0.35768">
        <ele>84.27056</ele>
        <time>2022-12-29T11:12:08.894Z</time>
      </trkpt>
      <trkpt lat="44.22636" lon="0.35781">
        <ele>84.360476</ele>
        <time>2022-12-29T11:12:11.895Z</time>
      </trkpt>
      <trkpt lat="44.22629" lon="0.35794">
        <ele>84.453653</ele>
        <time>2022-12-29T11:12:14.903Z</time>
      </trkpt>
      <trkpt lat="44.22624" lon="0.35805">
        <ele>84.5298</ele>
        <time>2022-12-29T11:12:17.878Z</time>
      </trkpt>
      <trkpt lat="44.22617" lon="0.35816">
        <ele>84.609109</ele>
        <time>2022-12-29T11:12:20.900Z</time>
      </trkpt>
      <trkpt lat="44.22611" lon="0.35828">
        <ele>84.690713</ele>
        <time>2022-12-29T11:12:23.898Z</time>
      </trkpt>
      <trkpt lat="44.22605" lon="0.3584">
        <ele>84.775996</ele>
        <time>2022-12-29T11:12:26.899Z</time>
      </trkpt>
      <trkpt lat="44.22599" lon="0.35853">
        <ele>84.867906</ele>
        <time>2022-12-29T11:12:29.878Z</time>
      </trkpt>
      <trkpt lat="44.22592" lon="0.35867">
        <ele>84.96207</ele>
        <time>2022-12-29T11:12:32.878Z</time>
      </trkpt>
      <trkpt lat="44.22586" lon="0.35881">
        <ele>85.054109</ele>
        <time>2022-12-29T11:12:35.901Z</time>
      </trkpt>
      <trkpt lat="44.2258" lon="0.35895">
        <ele>85.145332</ele>
        <time>2022-12-29T11:12:38.902Z</time>
      </trkpt>
      <trkpt lat="44.22575" lon="0.35907">
        <ele>85.228784</ele>
        <time>2022-12-29T11:12:41.899Z</time>
      </trkpt>
      <trkpt lat="44.22569" lon="0.35917">
        <ele>85.302539</ele>
        <time>2022-12-29T11:12:44.897Z</time>
      </trkpt>
      <trkpt lat="44.22564" lon="0.35928">
        <ele>85.355728</ele>
        <time>2022-12-29T11:12:47.899Z</time>
      </trkpt>
      <trkpt lat="44.22557" lon="0.3594">
        <ele>85.383783</ele>
        <time>2022-12-29T11:12:50.879Z</time>
      </trkpt>
      <trkpt lat="44.22551" lon="0.35953">
        <ele>85.412442</ele>
        <time>2022-12-29T11:12:53.891Z</time>
      </trkpt>
      <trkpt lat="44.22545" lon="0.35967">
        <ele>85.441608</ele>
        <time>2022-12-29T11:12:56.899Z</time>
      </trkpt>
      <trkpt lat="44.22538" lon="0.3598">
        <ele>85.470697</ele>
        <time>2022-12-29T11:12:59.901Z</time>
      </trkpt>
      <trkpt lat="44.22532" lon="0.35993">
        <ele>85.499112</ele>
        <time>2022-12-29T11:13:02.881Z</time>
      </trkpt>
      <trkpt lat="44.22526" lon="0.36008">
        <ele>85.530181</ele>
        <time>2022-12-29T11:13:05.895Z</time>
      </trkpt>
      <trkpt lat="44.22519" lon="0.36022">
        <ele>85.561096</ele>
        <time>2022-12-29T11:13:08.897Z</time>
      </trkpt>
      <trkpt lat="44.22512" lon="0.36037">
        <ele>85.592856</ele>
        <time>2022-12-29T11:13:11.895Z</time>
      </trkpt>
      <trkpt lat="44.22506" lon="0.36051">
        <ele>85.623881</ele>
        <time>2022-12-29T11:13:14.901Z</time>
      </trkpt>
      <trkpt lat="44.22499" lon="0.36065">
        <ele>85.654171</ele>
        <time>2022-12-29T11:13:17.894Z</time>
      </trkpt>
      <trkpt lat="44.22492" lon="0.3608">
        <ele>85.686301</ele>
        <time>2022-12-29T11:13:20.894Z</time>
      </trkpt>
      <trkpt lat="44.22485" lon="0.36095">
        <ele>85.71879</ele>
        <time>2022-12-29T11:13:23.901Z</time>
      </trkpt>
      <trkpt lat="44.22478" lon="0.36109">
        <ele>85.750093</ele>
        <time>2022-12-29T11:13:26.898Z</time>
      </trkpt>
      <trkpt lat="44.22471" lon="0.36124">
        <ele>85.781626</ele>
        <time>2022-12-29T11:13:29.894Z</time>
      </trkpt>
      <trkpt lat="44.22464" lon="0.36138">
        <ele>85.777916</ele>
        <time>2022-12-29T11:13:32.878Z</time>
      </trkpt>
      <trkpt lat="44.22458" lon="0.36154">
        <ele>85.706781</ele>
        <time>2022-12-29T11:13:35.900Z</time>
      </trkpt>
      <trkpt lat="44.22452" lon="0.36168">
        <ele>85.64072</ele>
        <time>2022-12-29T11:13:38.902Z</time>
      </trkpt>
      <trkpt lat="44.22445" lon="0.36184">
        <ele>85.567326</ele>
        <time>2022-12-29T11:13:41.899Z</time>
      </trkpt>
      <trkpt lat="44.22438" lon="0.362">
        <ele>85.494414</ele>
        <time>2022-12-29T11:13:44.899Z</time>
      </trkpt>
      <trkpt lat="44.22431" lon="0.36215">
        <ele>85.423158</ele>
        <time>2022-12-29T11:13:47.898Z</time>
      </trkpt>
      <trkpt lat="44.22424" lon="0.3623">
        <ele>85.353165</ele>
        <time>2022-12-29T11:13:50.896Z</time>
      </trkpt>
      <trkpt lat="44.22416" lon="0.36245">
        <ele>85.277454</ele>
        <time>2022-12-29T11:13:53.899Z</time>
      </trkpt>
      <trkpt lat="44.22408" lon="0.36261">
        <ele>85.204873</ele>
        <time>2022-12-29T11:13:56.882Z</time>
      </trkpt>
      <trkpt lat="44.22402" lon="0.36276">
        <ele>85.134567</ele>
        <time>2022-12-29T11:13:59.893Z</time>
      </trkpt>
      <trkpt lat="44.22396" lon="0.36292">
        <ele>85.06377</ele>
        <time>2022-12-29T11:14:02.881Z</time>
      </trkpt>
      <trkpt lat="44.22389" lon="0.36306">
        <ele>84.997772</ele>
        <time>2022-12-29T11:14:05.895Z</time>
      </trkpt>
      <trkpt lat="44.22384" lon="0.36319">
        <ele>84.935721</ele>
        <time>2022-12-29T11:14:08.893Z</time>
      </trkpt>
      <trkpt lat="44.22377" lon="0.36334">
        <ele>84.869382</ele>
        <time>2022-12-29T11:14:11.902Z</time>
      </trkpt>
      <trkpt lat="44.22371" lon="0.36349">
        <ele>84.802142</ele>
        <time>2022-12-29T11:14:14.897Z</time>
      </trkpt>
      <trkpt lat="44.22365" lon="0.36366">
        <ele>84.748856</ele>
        <time>2022-12-29T11:14:17.896Z</time>
      </trkpt>
      <trkpt lat="44.2236" lon="0.36377">
        <ele>84.709722</ele>
        <time>2022-12-29T11:14:19.887Z</time>
      </trkpt>
      <trkpt lat="44.22355" lon="0.36389">
        <ele>84.671448</ele>
        <time>2022-12-29T11:14:21.883Z</time>
      </trkpt>
      <trkpt lat="44.22351" lon="0.36401">
        <ele>84.633099</ele>
        <time>2022-12-29T11:14:23.877Z</time>
      </trkpt>
      <trkpt lat="44.22347" lon="0.36412">
        <ele>84.596226</ele>
        <time>2022-12-29T11:14:25.903Z</time>
      </trkpt>
      <trkpt lat="44.22343" lon="0.36424">
        <ele>84.559238</ele>
        <time>2022-12-29T11:14:27.900Z</time>
      </trkpt>
      <trkpt lat="44.22336" lon="0.3644">
        <ele>84.505814</ele>
        <time>2022-12-29T11:14:30.900Z</time>
      </trkpt>
      <trkpt lat="44.22332" lon="0.36455">
        <ele>84.45822</ele>
        <time>2022-12-29T11:14:33.899Z</time>
      </trkpt>
      <trkpt lat="44.22327" lon="0.36468">
        <ele>84.416266</ele>
        <time>2022-12-29T11:14:36.887Z</time>
      </trkpt>
      <trkpt lat="44.22322" lon="0.36479">
        <ele>84.378946</ele>
        <time>2022-12-29T11:14:39.903Z</time>
      </trkpt>
      <trkpt lat="44.22316" lon="0.36493">
        <ele>84.331581</ele>
        <time>2022-12-29T11:14:43.898Z</time>
      </trkpt>
      <trkpt lat="44.22313" lon="0.36505">
        <ele>84.293224</ele>
        <time>2022-12-29T11:14:46.900Z</time>
      </trkpt>
      <trkpt lat="44.22308" lon="0.36519">
        <ele>84.249804</ele>
        <time>2022-12-29T11:14:49.892Z</time>
      </trkpt>
      <trkpt lat="44.22303" lon="0.36533">
        <ele>84.204916</ele>
        <time>2022-12-29T11:14:52.883Z</time>
      </trkpt>
      <trkpt lat="44.22298" lon="0.36547">
        <ele>84.158479</ele>
        <time>2022-12-29T11:14:55.898Z</time>
      </trkpt>
      <trkpt lat="44.22292" lon="0.36563">
        <ele>84.106272</ele>
        <time>2022-12-29T11:14:58.902Z</time>
      </trkpt>
      <trkpt lat="44.22286" lon="0.36578">
        <ele>83.960765</ele>
        <time>2022-12-29T11:15:01.896Z</time>
      </trkpt>
      <trkpt lat="44.22281" lon="0.36593">
        <ele>83.755179</ele>
        <time>2022-12-29T11:15:04.893Z</time>
      </trkpt>
      <trkpt lat="44.22276" lon="0.36609">
        <ele>83.547345</ele>
        <time>2022-12-29T11:15:07.896Z</time>
      </trkpt>
      <trkpt lat="44.22271" lon="0.36623">
        <ele>83.343182</ele>
        <time>2022-12-29T11:15:10.883Z</time>
      </trkpt>
      <trkpt lat="44.22265" lon="0.36639">
        <ele>83.125715</ele>
        <time>2022-12-29T11:15:13.900Z</time>
      </trkpt>
      <trkpt lat="44.22262" lon="0.36651">
        <ele>82.969585</ele>
        <time>2022-12-29T11:15:15.902Z</time>
      </trkpt>
      <trkpt lat="44.22255" lon="0.36667">
        <ele>82.744499</ele>
        <time>2022-12-29T11:15:18.882Z</time>
      </trkpt>
      <trkpt lat="44.2225" lon="0.36683">
        <ele>82.524422</ele>
        <time>2022-12-29T11:15:21.899Z</time>
      </trkpt>
      <trkpt lat="44.22244" lon="0.36698">
        <ele>82.309185</ele>
        <time>2022-12-29T11:15:24.897Z</time>
      </trkpt>
      <trkpt lat="44.22239" lon="0.36714">
        <ele>82.099099</ele>
        <time>2022-12-29T11:15:27.897Z</time>
      </trkpt>
      <trkpt lat="44.22234" lon="0.3673">
        <ele>81.883796</ele>
        <time>2022-12-29T11:15:30.879Z</time>
      </trkpt>
      <trkpt lat="44.2223" lon="0.36743">
        <ele>81.701271</ele>
        <time>2022-12-29T11:15:33.896Z</time>
      </trkpt>
      <trkpt lat="44.22225" lon="0.36754">
        <ele>81.537131</ele>
        <time>2022-12-29T11:15:36.882Z</time>
      </trkpt>
      <trkpt lat="44.22219" lon="0.36767">
        <ele>81.359744</ele>
        <time>2022-12-29T11:15:40.884Z</time>
      </trkpt>
      <trkpt lat="44.22215" lon="0.36782">
        <ele>81.148963</ele>
        <time>2022-12-29T11:15:44.879Z</time>
      </trkpt>
      <trkpt lat="44.22212" lon="0.36796">
        <ele>80.978539</ele>
        <time>2022-12-29T11:15:47.900Z</time>
      </trkpt>
      <trkpt lat="44.22208" lon="0.36811">
        <ele>80.899833</ele>
        <time>2022-12-29T11:15:50.898Z</time>
      </trkpt>
      <trkpt lat="44.22204" lon="0.36825">
        <ele>80.823505</ele>
        <time>2022-12-29T11:15:53.897Z</time>
      </trkpt>
      <trkpt lat="44.22199" lon="0.36841">
        <ele>80.739099</ele>
        <time>2022-12-29T11:15:56.898Z</time>
      </trkpt>
      <trkpt lat="44.22195" lon="0.36857">
        <ele>80.650235</ele>
        <time>2022-12-29T11:15:59.898Z</time>
      </trkpt>
      <trkpt lat="44.2219" lon="0.36872">
        <ele>80.569146</ele>
        <time>2022-12-29T11:16:02.877Z</time>
      </trkpt>
      <trkpt lat="44.22186" lon="0.36888">
        <ele>80.48194</ele>
        <time>2022-12-29T11:16:05.881Z</time>
      </trkpt>
      <trkpt lat="44.22181" lon="0.36903">
        <ele>80.40102</ele>
        <time>2022-12-29T11:16:08.891Z</time>
      </trkpt>
      <trkpt lat="44.22177" lon="0.36916">
        <ele>80.330519</ele>
        <time>2022-12-29T11:16:11.884Z</time>
      </trkpt>
      <trkpt lat="44.22173" lon="0.36931">
        <ele>80.250428</ele>
        <time>2022-12-29T11:16:15.890Z</time>
      </trkpt>
      <trkpt lat="44.22167" lon="0.36946">
        <ele>80.166486</ele>
        <time>2022-12-29T11:16:19.887Z</time>
      </trkpt>
      <trkpt lat="44.22163" lon="0.36959">
        <ele>80.093815</ele>
        <time>2022-12-29T11:16:22.879Z</time>
      </trkpt>
      <trkpt lat="44.22159" lon="0.36973">
        <ele>80.019296</ele>
        <time>2022-12-29T11:16:25.896Z</time>
      </trkpt>
      <trkpt lat="44.22155" lon="0.36988">
        <ele>79.939185</ele>
        <time>2022-12-29T11:16:28.886Z</time>
      </trkpt>
      <trkpt lat="44.22151" lon="0.37002">
        <ele>79.858297</ele>
        <time>2022-12-29T11:16:31.900Z</time>
      </trkpt>
      <trkpt lat="44.22147" lon="0.37018">
        <ele>79.77442</ele>
        <time>2022-12-29T11:16:34.900Z</time>
      </trkpt>
      <trkpt lat="44.22143" lon="0.37034">
        <ele>79.832319</ele>
        <time>2022-12-29T11:16:37.874Z</time>
      </trkpt>
      <trkpt lat="44.22139" lon="0.37049">
        <ele>80.068601</ele>
        <time>2022-12-29T11:16:40.895Z</time>
      </trkpt>
      <trkpt lat="44.22135" lon="0.37066">
        <ele>80.320926</ele>
        <time>2022-12-29T11:16:43.900Z</time>
      </trkpt>
      <trkpt lat="44.2213" lon="0.37081">
        <ele>80.572876</ele>
        <time>2022-12-29T11:16:46.900Z</time>
      </trkpt>
      <trkpt lat="44.22126" lon="0.37098">
        <ele>80.83425</ele>
        <time>2022-12-29T11:16:49.896Z</time>
      </trkpt>
      <trkpt lat="44.22122" lon="0.37115">
        <ele>81.107532</ele>
        <time>2022-12-29T11:16:52.880Z</time>
      </trkpt>
      <trkpt lat="44.22118" lon="0.37132">
        <ele>81.369812</ele>
        <time>2022-12-29T11:16:55.891Z</time>
      </trkpt>
      <trkpt lat="44.22114" lon="0.37146">
        <ele>81.595134</ele>
        <time>2022-12-29T11:16:58.898Z</time>
      </trkpt>
      <trkpt lat="44.2211" lon="0.37158">
        <ele>81.785461</ele>
        <time>2022-12-29T11:17:01.900Z</time>
      </trkpt>
      <trkpt lat="44.22107" lon="0.37173">
        <ele>82.0092</ele>
        <time>2022-12-29T11:17:04.899Z</time>
      </trkpt>
      <trkpt lat="44.22104" lon="0.37189">
        <ele>82.258032</ele>
        <time>2022-12-29T11:17:07.885Z</time>
      </trkpt>
      <trkpt lat="44.221" lon="0.37206">
        <ele>82.52376</ele>
        <time>2022-12-29T11:17:10.897Z</time>
      </trkpt>
      <trkpt lat="44.22096" lon="0.37225">
        <ele>82.811583</ele>
        <time>2022-12-29T11:17:13.892Z</time>
      </trkpt>
      <trkpt lat="44.22091" lon="0.3724">
        <ele>83.057079</ele>
        <time>2022-12-29T11:17:16.897Z</time>
      </trkpt>
      <trkpt lat="44.22088" lon="0.37255">
        <ele>83.294902</ele>
        <time>2022-12-29T11:17:19.901Z</time>
      </trkpt>
      <trkpt lat="44.22085" lon="0.37272">
        <ele>83.458854</ele>
        <time>2022-12-29T11:17:22.879Z</time>
      </trkpt>
      <trkpt lat="44.22082" lon="0.37287">
        <ele>83.497614</ele>
        <time>2022-12-29T11:17:25.906Z</time>
      </trkpt>
      <trkpt lat="44.22079" lon="0.37305">
        <ele>83.541874</ele>
        <time>2022-12-29T11:17:28.897Z</time>
      </trkpt>
      <trkpt lat="44.22076" lon="0.37323">
        <ele>83.586521</ele>
        <time>2022-12-29T11:17:31.897Z</time>
      </trkpt>
      <trkpt lat="44.22073" lon="0.37339">
        <ele>83.626454</ele>
        <time>2022-12-29T11:17:34.900Z</time>
      </trkpt>
      <trkpt lat="44.2207" lon="0.37353">
        <ele>83.66284</ele>
        <time>2022-12-29T11:17:37.896Z</time>
      </trkpt>
      <trkpt lat="44.22067" lon="0.37366">
        <ele>83.694278</ele>
        <time>2022-12-29T11:17:40.902Z</time>
      </trkpt>
      <trkpt lat="44.22064" lon="0.37379">
        <ele>83.728917</ele>
        <time>2022-12-29T11:17:43.896Z</time>
      </trkpt>
      <trkpt lat="44.22061" lon="0.37394">
        <ele>83.766181</ele>
        <time>2022-12-29T11:17:46.896Z</time>
      </trkpt>
      <trkpt lat="44.22058" lon="0.37409">
        <ele>83.80541</ele>
        <time>2022-12-29T11:17:49.898Z</time>
      </trkpt>
      <trkpt lat="44.22055" lon="0.37425">
        <ele>83.844681</ele>
        <time>2022-12-29T11:17:52.881Z</time>
      </trkpt>
      <trkpt lat="44.22052" lon="0.37441">
        <ele>83.884936</ele>
        <time>2022-12-29T11:17:55.904Z</time>
      </trkpt>
      <trkpt lat="44.22049" lon="0.37458">
        <ele>83.927774</ele>
        <time>2022-12-29T11:17:58.900Z</time>
      </trkpt>
      <trkpt lat="44.22046" lon="0.37475">
        <ele>83.970539</ele>
        <time>2022-12-29T11:18:01.898Z</time>
      </trkpt>
      <trkpt lat="44.22043" lon="0.37491">
        <ele>84.010935</ele>
        <time>2022-12-29T11:18:04.898Z</time>
      </trkpt>
      <trkpt lat="44.22041" lon="0.37508">
        <ele>84.055736</ele>
        <time>2022-12-29T11:18:07.891Z</time>
      </trkpt>
      <trkpt lat="44.22036" lon="0.37522">
        <ele>84.177527</ele>
        <time>2022-12-29T11:18:10.877Z</time>
      </trkpt>
      <trkpt lat="44.22033" lon="0.37537">
        <ele>84.302481</ele>
        <time>2022-12-29T11:18:13.896Z</time>
      </trkpt>
      <trkpt lat="44.22031" lon="0.37552">
        <ele>84.420557</ele>
        <time>2022-12-29T11:18:16.892Z</time>
      </trkpt>
      <trkpt lat="44.22029" lon="0.37567">
        <ele>84.536233</ele>
        <time>2022-12-29T11:18:19.884Z</time>
      </trkpt>
      <trkpt lat="44.22025" lon="0.3758">
        <ele>84.644843</ele>
        <time>2022-12-29T11:18:22.883Z</time>
      </trkpt>
      <trkpt lat="44.22024" lon="0.37594">
        <ele>84.759371</ele>
        <time>2022-12-29T11:18:25.897Z</time>
      </trkpt>
      <trkpt lat="44.22022" lon="0.37607">
        <ele>84.859216</ele>
        <time>2022-12-29T11:18:28.897Z</time>
      </trkpt>
      <trkpt lat="44.2202" lon="0.37623">
        <ele>84.988992</ele>
        <time>2022-12-29T11:18:32.881Z</time>
      </trkpt>
      <trkpt lat="44.22018" lon="0.37638">
        <ele>85.110849</ele>
        <time>2022-12-29T11:18:35.900Z</time>
      </trkpt>
      <trkpt lat="44.22017" lon="0.37653">
        <ele>85.231411</ele>
        <time>2022-12-29T11:18:38.896Z</time>
      </trkpt>
      <trkpt lat="44.22016" lon="0.37668">
        <ele>85.347973</ele>
        <time>2022-12-29T11:18:41.903Z</time>
      </trkpt>
      <trkpt lat="44.22013" lon="0.37682">
        <ele>85.457384</ele>
        <time>2022-12-29T11:18:44.893Z</time>
      </trkpt>
      <trkpt lat="44.22011" lon="0.37696">
        <ele>85.567328</ele>
        <time>2022-12-29T11:18:47.885Z</time>
      </trkpt>
      <trkpt lat="44.22009" lon="0.3771">
        <ele>85.682232</ele>
        <time>2022-12-29T11:18:50.902Z</time>
      </trkpt>
      <trkpt lat="44.22008" lon="0.37725">
        <ele>85.799452</ele>
        <time>2022-12-29T11:18:53.902Z</time>
      </trkpt>
      <trkpt lat="44.22006" lon="0.37739">
        <ele>85.915128</ele>
        <time>2022-12-29T11:18:56.898Z</time>
      </trkpt>
      <trkpt lat="44.22004" lon="0.37753">
        <ele>86.026898</ele>
        <time>2022-12-29T11:18:59.897Z</time>
      </trkpt>
      <trkpt lat="44.22001" lon="0.37766">
        <ele>86.138436</ele>
        <time>2022-12-29T11:19:02.877Z</time>
      </trkpt>
      <trkpt lat="44.21999" lon="0.37778">
        <ele>86.248119</ele>
        <time>2022-12-29T11:19:05.899Z</time>
      </trkpt>
      <trkpt lat="44.21997" lon="0.37791">
        <ele>86.355848</ele>
        <time>2022-12-29T11:19:08.899Z</time>
      </trkpt>
      <trkpt lat="44.21994" lon="0.37807">
        <ele>86.49609</ele>
        <time>2022-12-29T11:19:12.878Z</time>
      </trkpt>
      <trkpt lat="44.21992" lon="0.37819">
        <ele>86.606803</ele>
        <time>2022-12-29T11:19:15.910Z</time>
      </trkpt>
      <trkpt lat="44.21989" lon="0.37833">
        <ele>86.732859</ele>
        <time>2022-12-29T11:19:19.902Z</time>
      </trkpt>
      <trkpt lat="44.21986" lon="0.37846">
        <ele>86.846814</ele>
        <time>2022-12-29T11:19:23.889Z</time>
      </trkpt>
      <trkpt lat="44.21983" lon="0.37859">
        <ele>86.957879</ele>
        <time>2022-12-29T11:19:27.898Z</time>
      </trkpt>
      <trkpt lat="44.21981" lon="0.37873">
        <ele>87.080733</ele>
        <time>2022-12-29T11:19:32.879Z</time>
      </trkpt>
      <trkpt lat="44.21979" lon="0.37887">
        <ele>87.207338</ele>
        <time>2022-12-29T11:19:39.875Z</time>
      </trkpt>
      <trkpt lat="44.2198" lon="0.37905">
        <ele>87.362473</ele>
        <time>2022-12-29T11:19:43.892Z</time>
      </trkpt>
      <trkpt lat="44.21979" lon="0.3792">
        <ele>87.483531</ele>
        <time>2022-12-29T11:19:45.896Z</time>
      </trkpt>
      <trkpt lat="44.21979" lon="0.37935">
        <ele>87.611526</ele>
        <time>2022-12-29T11:19:47.881Z</time>
      </trkpt>
      <trkpt lat="44.21979" lon="0.37952">
        <ele>87.756279</ele>
        <time>2022-12-29T11:19:49.898Z</time>
      </trkpt>
      <trkpt lat="44.21978" lon="0.37971">
        <ele>87.918342</ele>
        <time>2022-12-29T11:19:51.898Z</time>
      </trkpt>
      <trkpt lat="44.21977" lon="0.37987">
        <ele>88.061634</ele>
        <time>2022-12-29T11:19:53.896Z</time>
      </trkpt>
      <trkpt lat="44.21977" lon="0.38003">
        <ele>88.131432</ele>
        <time>2022-12-29T11:19:55.896Z</time>
      </trkpt>
      <trkpt lat="44.21975" lon="0.38017">
        <ele>88.049598</ele>
        <time>2022-12-29T11:19:57.896Z</time>
      </trkpt>
      <trkpt lat="44.21974" lon="0.3803">
        <ele>87.976505</ele>
        <time>2022-12-29T11:19:59.883Z</time>
      </trkpt>
      <trkpt lat="44.21974" lon="0.38043">
        <ele>87.901051</ele>
        <time>2022-12-29T11:20:01.896Z</time>
      </trkpt>
      <trkpt lat="44.21973" lon="0.38059">
        <ele>87.804042</ele>
        <time>2022-12-29T11:20:04.879Z</time>
      </trkpt>
      <trkpt lat="44.21971" lon="0.38076">
        <ele>87.706208</ele>
        <time>2022-12-29T11:20:07.900Z</time>
      </trkpt>
      <trkpt lat="44.2197" lon="0.38089">
        <ele>87.629081</ele>
        <time>2022-12-29T11:20:10.901Z</time>
      </trkpt>
      <trkpt lat="44.21968" lon="0.38104">
        <ele>87.539258</ele>
        <time>2022-12-29T11:20:13.883Z</time>
      </trkpt>
      <trkpt lat="44.21967" lon="0.38123">
        <ele>87.433682</ele>
        <time>2022-12-29T11:20:16.898Z</time>
      </trkpt>
      <trkpt lat="44.21966" lon="0.38141">
        <ele>87.327741</ele>
        <time>2022-12-29T11:20:19.896Z</time>
      </trkpt>
      <trkpt lat="44.21966" lon="0.38159">
        <ele>87.224353</ele>
        <time>2022-12-29T11:20:22.878Z</time>
      </trkpt>
      <trkpt lat="44.21965" lon="0.38176">
        <ele>87.120309</ele>
        <time>2022-12-29T11:20:25.898Z</time>
      </trkpt>
      <trkpt lat="44.21964" lon="0.38195">
        <ele>87.010112</ele>
        <time>2022-12-29T11:20:28.895Z</time>
      </trkpt>
      <trkpt lat="44.21963" lon="0.38209">
        <ele>86.930397</ele>
        <time>2022-12-29T11:20:30.898Z</time>
      </trkpt>
      <trkpt lat="44.21962" lon="0.38222">
        <ele>86.855575</ele>
        <time>2022-12-29T11:20:32.877Z</time>
      </trkpt>
      <trkpt lat="44.21961" lon="0.38235">
        <ele>86.779773</ele>
        <time>2022-12-29T11:20:34.897Z</time>
      </trkpt>
      <trkpt lat="44.21961" lon="0.38248">
        <ele>86.704903</ele>
        <time>2022-12-29T11:20:36.900Z</time>
      </trkpt>
      <trkpt lat="44.2196" lon="0.38261">
        <ele>86.718955</ele>
        <time>2022-12-29T11:20:38.886Z</time>
      </trkpt>
      <trkpt lat="44.21959" lon="0.38274">
        <ele>86.737982</ele>
        <time>2022-12-29T11:20:40.897Z</time>
      </trkpt>
      <trkpt lat="44.21958" lon="0.38291">
        <ele>86.764402</ele>
        <time>2022-12-29T11:20:43.882Z</time>
      </trkpt>
      <trkpt lat="44.21957" lon="0.38304">
        <ele>86.783005</ele>
        <time>2022-12-29T11:20:45.893Z</time>
      </trkpt>
      <trkpt lat="44.21956" lon="0.38317">
        <ele>86.802156</ele>
        <time>2022-12-29T11:20:47.885Z</time>
      </trkpt>
      <trkpt lat="44.21955" lon="0.3833">
        <ele>86.821566</ele>
        <time>2022-12-29T11:20:49.900Z</time>
      </trkpt>
      <trkpt lat="44.21953" lon="0.38348">
        <ele>86.84855</ele>
        <time>2022-12-29T11:20:52.879Z</time>
      </trkpt>
      <trkpt lat="44.21953" lon="0.38361">
        <ele>86.867567</ele>
        <time>2022-12-29T11:20:54.896Z</time>
      </trkpt>
      <trkpt lat="44.21953" lon="0.38379">
        <ele>86.893835</ele>
        <time>2022-12-29T11:20:57.900Z</time>
      </trkpt>
      <trkpt lat="44.21952" lon="0.38392">
        <ele>86.913628</ele>
        <time>2022-12-29T11:20:59.894Z</time>
      </trkpt>
      <trkpt lat="44.21952" lon="0.3841">
        <ele>86.93974</ele>
        <time>2022-12-29T11:21:02.883Z</time>
      </trkpt>
      <trkpt lat="44.21951" lon="0.38422">
        <ele>86.958177</ele>
        <time>2022-12-29T11:21:04.881Z</time>
      </trkpt>
      <trkpt lat="44.21951" lon="0.38441">
        <ele>86.985919</ele>
        <time>2022-12-29T11:21:07.891Z</time>
      </trkpt>
      <trkpt lat="44.2195" lon="0.38455">
        <ele>87.006182</ele>
        <time>2022-12-29T11:21:09.887Z</time>
      </trkpt>
      <trkpt lat="44.21949" lon="0.38473">
        <ele>87.032326</ele>
        <time>2022-12-29T11:21:12.883Z</time>
      </trkpt>
      <trkpt lat="44.21948" lon="0.38492">
        <ele>87.061161</ele>
        <time>2022-12-29T11:21:15.900Z</time>
      </trkpt>
      <trkpt lat="44.21948" lon="0.38505">
        <ele>87.03965</ele>
        <time>2022-12-29T11:21:17.899Z</time>
      </trkpt>
      <trkpt lat="44.21949" lon="0.38523">
        <ele>86.953173</ele>
        <time>2022-12-29T11:21:20.901Z</time>
      </trkpt>
      <trkpt lat="44.21948" lon="0.38536">
        <ele>86.893138</ele>
        <time>2022-12-29T11:21:22.878Z</time>
      </trkpt>
      <trkpt lat="44.21947" lon="0.38554">
        <ele>86.810938</ele>
        <time>2022-12-29T11:21:25.902Z</time>
      </trkpt>
      <trkpt lat="44.21947" lon="0.38572">
        <ele>86.725703</ele>
        <time>2022-12-29T11:21:28.901Z</time>
      </trkpt>
      <trkpt lat="44.21947" lon="0.38584">
        <ele>86.666782</ele>
        <time>2022-12-29T11:21:30.897Z</time>
      </trkpt>
      <trkpt lat="44.21946" lon="0.38598">
        <ele>86.600998</ele>
        <time>2022-12-29T11:21:32.880Z</time>
      </trkpt>
      <trkpt lat="44.21945" lon="0.38614">
        <ele>86.5237</ele>
        <time>2022-12-29T11:21:35.898Z</time>
      </trkpt>
      <trkpt lat="44.21945" lon="0.38631">
        <ele>86.447783</ele>
        <time>2022-12-29T11:21:38.883Z</time>
      </trkpt>
      <trkpt lat="44.21943" lon="0.38646">
        <ele>86.374368</ele>
        <time>2022-12-29T11:21:41.897Z</time>
      </trkpt>
      <trkpt lat="44.21942" lon="0.38659">
        <ele>86.314741</ele>
        <time>2022-12-29T11:21:44.894Z</time>
      </trkpt>
      <trkpt lat="44.21942" lon="0.38675">
        <ele>86.238444</ele>
        <time>2022-12-29T11:21:47.898Z</time>
      </trkpt>
      <trkpt lat="44.21942" lon="0.38694">
        <ele>86.150383</ele>
        <time>2022-12-29T11:21:50.900Z</time>
      </trkpt>
      <trkpt lat="44.21942" lon="0.38707">
        <ele>86.088569</ele>
        <time>2022-12-29T11:21:52.881Z</time>
      </trkpt>
      <trkpt lat="44.21941" lon="0.38727">
        <ele>85.993221</ele>
        <time>2022-12-29T11:21:55.900Z</time>
      </trkpt>
      <trkpt lat="44.2194" lon="0.38739">
        <ele>85.933992</ele>
        <time>2022-12-29T11:21:57.902Z</time>
      </trkpt>
      <trkpt lat="44.21941" lon="0.38752">
        <ele>85.885909</ele>
        <time>2022-12-29T11:21:59.897Z</time>
      </trkpt>
      <trkpt lat="44.2194" lon="0.38766">
        <ele>85.874383</ele>
        <time>2022-12-29T11:22:01.893Z</time>
      </trkpt>
      <trkpt lat="44.2194" lon="0.38779">
        <ele>85.863297</ele>
        <time>2022-12-29T11:22:03.898Z</time>
      </trkpt>
      <trkpt lat="44.21939" lon="0.38792">
        <ele>85.851736</ele>
        <time>2022-12-29T11:22:05.907Z</time>
      </trkpt>
      <trkpt lat="44.21939" lon="0.38806">
        <ele>85.840134</ele>
        <time>2022-12-29T11:22:07.899Z</time>
      </trkpt>
      <trkpt lat="44.21938" lon="0.38823">
        <ele>85.824993</ele>
        <time>2022-12-29T11:22:10.901Z</time>
      </trkpt>
      <trkpt lat="44.21937" lon="0.3884">
        <ele>85.810888</ele>
        <time>2022-12-29T11:22:13.899Z</time>
      </trkpt>
      <trkpt lat="44.21937" lon="0.38855">
        <ele>85.797547</ele>
        <time>2022-12-29T11:22:16.899Z</time>
      </trkpt>
      <trkpt lat="44.21936" lon="0.38871">
        <ele>85.783942</ele>
        <time>2022-12-29T11:22:19.900Z</time>
      </trkpt>
      <trkpt lat="44.21935" lon="0.38888">
        <ele>85.769536</ele>
        <time>2022-12-29T11:22:22.880Z</time>
      </trkpt>
      <trkpt lat="44.21933" lon="0.38904">
        <ele>85.75525</ele>
        <time>2022-12-29T11:22:25.902Z</time>
      </trkpt>
      <trkpt lat="44.21932" lon="0.3892">
        <ele>85.741871</ele>
        <time>2022-12-29T11:22:28.899Z</time>
      </trkpt>
      <trkpt lat="44.21931" lon="0.38937">
        <ele>85.72665</ele>
        <time>2022-12-29T11:22:31.898Z</time>
      </trkpt>
      <trkpt lat="44.21931" lon="0.38955">
        <ele>85.711166</ele>
        <time>2022-12-29T11:22:34.879Z</time>
      </trkpt>
      <trkpt lat="44.21931" lon="0.38973">
        <ele>85.695704</ele>
        <time>2022-12-29T11:22:37.902Z</time>
      </trkpt>
      <trkpt lat="44.21931" lon="0.38992">
        <ele>85.679625</ele>
        <time>2022-12-29T11:22:40.881Z</time>
      </trkpt>
      <trkpt lat="44.21931" lon="0.3901">
        <ele>85.78675</ele>
        <time>2022-12-29T11:22:43.896Z</time>
      </trkpt>
      <trkpt lat="44.2193" lon="0.39028">
        <ele>85.9688</ele>
        <time>2022-12-29T11:22:46.890Z</time>
      </trkpt>
      <trkpt lat="44.2193" lon="0.39046">
        <ele>86.14532</ele>
        <time>2022-12-29T11:22:49.900Z</time>
      </trkpt>
      <trkpt lat="44.2193" lon="0.39061">
        <ele>86.304537</ele>
        <time>2022-12-29T11:22:52.881Z</time>
      </trkpt>
      <trkpt lat="44.21929" lon="0.39077">
        <ele>86.463024</ele>
        <time>2022-12-29T11:22:55.898Z</time>
      </trkpt>
      <trkpt lat="44.21927" lon="0.39094">
        <ele>86.63368</ele>
        <time>2022-12-29T11:22:58.898Z</time>
      </trkpt>
      <trkpt lat="44.21926" lon="0.39108">
        <ele>86.781384</ele>
        <time>2022-12-29T11:23:01.900Z</time>
      </trkpt>
      <trkpt lat="44.21925" lon="0.39122">
        <ele>86.925531</ele>
        <time>2022-12-29T11:23:04.879Z</time>
      </trkpt>
      <trkpt lat="44.21924" lon="0.39137">
        <ele>87.072095</ele>
        <time>2022-12-29T11:23:07.899Z</time>
      </trkpt>
      <trkpt lat="44.21924" lon="0.39151">
        <ele>87.216085</ele>
        <time>2022-12-29T11:23:10.897Z</time>
      </trkpt>
      <trkpt lat="44.21924" lon="0.39166">
        <ele>87.371247</ele>
        <time>2022-12-29T11:23:13.891Z</time>
      </trkpt>
      <trkpt lat="44.21923" lon="0.39183">
        <ele>87.540158</ele>
        <time>2022-12-29T11:23:16.899Z</time>
      </trkpt>
      <trkpt lat="44.21923" lon="0.39199">
        <ele>87.703559</ele>
        <time>2022-12-29T11:23:19.896Z</time>
      </trkpt>
      <trkpt lat="44.21923" lon="0.39215">
        <ele>87.870958</ele>
        <time>2022-12-29T11:23:22.879Z</time>
      </trkpt>
      <trkpt lat="44.21923" lon="0.39233">
        <ele>88.045411</ele>
        <time>2022-12-29T11:23:25.898Z</time>
      </trkpt>
      <trkpt lat="44.21922" lon="0.39251">
        <ele>88.221625</ele>
        <time>2022-12-29T11:23:28.892Z</time>
      </trkpt>
      <trkpt lat="44.21922" lon="0.39263">
        <ele>88.262051</ele>
        <time>2022-12-29T11:23:30.900Z</time>
      </trkpt>
      <trkpt lat="44.21921" lon="0.39277">
        <ele>88.303901</ele>
        <time>2022-12-29T11:23:32.880Z</time>
      </trkpt>
      <trkpt lat="44.2192" lon="0.39289">
        <ele>88.344007</ele>
        <time>2022-12-29T11:23:34.896Z</time>
      </trkpt>
      <trkpt lat="44.21919" lon="0.39307">
        <ele>88.401993</ele>
        <time>2022-12-29T11:23:37.880Z</time>
      </trkpt>
      <trkpt lat="44.21918" lon="0.39324">
        <ele>88.455509</ele>
        <time>2022-12-29T11:23:40.889Z</time>
      </trkpt>
      <trkpt lat="44.21918" lon="0.3934">
        <ele>88.505507</ele>
        <time>2022-12-29T11:23:43.900Z</time>
      </trkpt>
      <trkpt lat="44.21917" lon="0.39354">
        <ele>88.552307</ele>
        <time>2022-12-29T11:23:46.898Z</time>
      </trkpt>
      <trkpt lat="44.21917" lon="0.3937">
        <ele>88.601696</ele>
        <time>2022-12-29T11:23:49.901Z</time>
      </trkpt>
      <trkpt lat="44.21916" lon="0.39386">
        <ele>88.65299</ele>
        <time>2022-12-29T11:23:52.882Z</time>
      </trkpt>
      <trkpt lat="44.21915" lon="0.39405">
        <ele>88.712306</ele>
        <time>2022-12-29T11:23:55.893Z</time>
      </trkpt>
      <trkpt lat="44.21914" lon="0.39422">
        <ele>88.767366</ele>
        <time>2022-12-29T11:23:58.898Z</time>
      </trkpt>
      <trkpt lat="44.21914" lon="0.39439">
        <ele>88.822152</ele>
        <time>2022-12-29T11:24:01.901Z</time>
      </trkpt>
      <trkpt lat="44.21913" lon="0.39452">
        <ele>88.862917</ele>
        <time>2022-12-29T11:24:03.896Z</time>
      </trkpt>
      <trkpt lat="44.21912" lon="0.3947">
        <ele>88.920765</ele>
        <time>2022-12-29T11:24:06.899Z</time>
      </trkpt>
      <trkpt lat="44.21911" lon="0.39488">
        <ele>88.978496</ele>
        <time>2022-12-29T11:24:09.879Z</time>
      </trkpt>
      <trkpt lat="44.2191" lon="0.39507">
        <ele>88.985485</ele>
        <time>2022-12-29T11:24:12.885Z</time>
      </trkpt>
      <trkpt lat="44.21909" lon="0.39521">
        <ele>88.927824</ele>
        <time>2022-12-29T11:24:14.896Z</time>
      </trkpt>
      <trkpt lat="44.21908" lon="0.39538">
        <ele>88.852562</ele>
        <time>2022-12-29T11:24:17.896Z</time>
      </trkpt>
      <trkpt lat="44.21907" lon="0.39553">
        <ele>88.786553</ele>
        <time>2022-12-29T11:24:20.894Z</time>
      </trkpt>
      <trkpt lat="44.21907" lon="0.39568">
        <ele>88.725643</ele>
        <time>2022-12-29T11:24:23.891Z</time>
      </trkpt>
      <trkpt lat="44.21906" lon="0.39583">
        <ele>88.658377</ele>
        <time>2022-12-29T11:24:26.882Z</time>
      </trkpt>
      <trkpt lat="44.21906" lon="0.396">
        <ele>88.588479</ele>
        <time>2022-12-29T11:24:29.887Z</time>
      </trkpt>
      <trkpt lat="44.21906" lon="0.39617">
        <ele>88.513502</ele>
        <time>2022-12-29T11:24:32.883Z</time>
      </trkpt>
      <trkpt lat="44.21905" lon="0.39635">
        <ele>88.434526</ele>
        <time>2022-12-29T11:24:35.903Z</time>
      </trkpt>
      <trkpt lat="44.21905" lon="0.39652">
        <ele>88.362001</ele>
        <time>2022-12-29T11:24:38.899Z</time>
      </trkpt>
      <trkpt lat="44.21904" lon="0.3967">
        <ele>88.28572</ele>
        <time>2022-12-29T11:24:41.898Z</time>
      </trkpt>
      <trkpt lat="44.21904" lon="0.39688">
        <ele>88.210735</ele>
        <time>2022-12-29T11:24:44.888Z</time>
      </trkpt>
      <trkpt lat="44.21903" lon="0.39704">
        <ele>88.141073</ele>
        <time>2022-12-29T11:24:47.894Z</time>
      </trkpt>
      <trkpt lat="44.21902" lon="0.39718">
        <ele>88.079703</ele>
        <time>2022-12-29T11:24:50.899Z</time>
      </trkpt>
      <trkpt lat="44.21901" lon="0.39733">
        <ele>88.015161</ele>
        <time>2022-12-29T11:24:53.893Z</time>
      </trkpt>
      <trkpt lat="44.21901" lon="0.39749">
        <ele>87.945753</ele>
        <time>2022-12-29T11:24:56.877Z</time>
      </trkpt>
      <trkpt lat="44.219" lon="0.39767">
        <ele>87.929345</ele>
        <time>2022-12-29T11:24:59.899Z</time>
      </trkpt>
      <trkpt lat="44.219" lon="0.39785">
        <ele>87.91684</ele>
        <time>2022-12-29T11:25:02.880Z</time>
      </trkpt>
      <trkpt lat="44.21899" lon="0.39803">
        <ele>87.904299</ele>
        <time>2022-12-29T11:25:05.892Z</time>
      </trkpt>
      <trkpt lat="44.21899" lon="0.39819">
        <ele>87.893238</ele>
        <time>2022-12-29T11:25:08.891Z</time>
      </trkpt>
      <trkpt lat="44.21897" lon="0.39833">
        <ele>87.883487</ele>
        <time>2022-12-29T11:25:11.896Z</time>
      </trkpt>
      <trkpt lat="44.21896" lon="0.39848">
        <ele>87.872663</ele>
        <time>2022-12-29T11:25:14.900Z</time>
      </trkpt>
      <trkpt lat="44.21895" lon="0.39865">
        <ele>87.861237</ele>
        <time>2022-12-29T11:25:17.899Z</time>
      </trkpt>
      <trkpt lat="44.21894" lon="0.39882">
        <ele>87.84954</ele>
        <time>2022-12-29T11:25:20.896Z</time>
      </trkpt>
      <trkpt lat="44.21894" lon="0.39897">
        <ele>87.838773</ele>
        <time>2022-12-29T11:25:23.903Z</time>
      </trkpt>
      <trkpt lat="44.21894" lon="0.39912">
        <ele>87.828071</ele>
        <time>2022-12-29T11:25:26.880Z</time>
      </trkpt>
      <trkpt lat="44.21893" lon="0.39927">
        <ele>87.817997</ele>
        <time>2022-12-29T11:25:29.901Z</time>
      </trkpt>
      <trkpt lat="44.21893" lon="0.3994">
        <ele>87.808958</ele>
        <time>2022-12-29T11:25:32.878Z</time>
      </trkpt>
      <trkpt lat="44.21893" lon="0.39953">
        <ele>87.799914</ele>
        <time>2022-12-29T11:25:35.898Z</time>
      </trkpt>
      <trkpt lat="44.21892" lon="0.39966">
        <ele>87.790736</ele>
        <time>2022-12-29T11:25:38.895Z</time>
      </trkpt>
      <trkpt lat="44.21892" lon="0.39981">
        <ele>87.78059</ele>
        <time>2022-12-29T11:25:42.878Z</time>
      </trkpt>
      <trkpt lat="44.21891" lon="0.39994">
        <ele>87.77124</ele>
        <time>2022-12-29T11:25:45.901Z</time>
      </trkpt>
      <trkpt lat="44.21892" lon="0.40007">
        <ele>87.749817</ele>
        <time>2022-12-29T11:25:48.889Z</time>
      </trkpt>
      <trkpt lat="44.21891" lon="0.4002">
        <ele>87.714681</ele>
        <time>2022-12-29T11:25:51.901Z</time>
      </trkpt>
      <trkpt lat="44.2189" lon="0.40034">
        <ele>87.677054</ele>
        <time>2022-12-29T11:25:54.898Z</time>
      </trkpt>
      <trkpt lat="44.2189" lon="0.40047">
        <ele>87.641375</ele>
        <time>2022-12-29T11:25:57.896Z</time>
      </trkpt>
      <trkpt lat="44.21889" lon="0.40061">
        <ele>87.601486</ele>
        <time>2022-12-29T11:26:01.899Z</time>
      </trkpt>
      <trkpt lat="44.21889" lon="0.40074">
        <ele>87.567217</ele>
        <time>2022-12-29T11:26:04.886Z</time>
      </trkpt>
      <trkpt lat="44.21889" lon="0.40089">
        <ele>87.527493</ele>
        <time>2022-12-29T11:26:07.886Z</time>
      </trkpt>
      <trkpt lat="44.21889" lon="0.40103">
        <ele>87.487233</ele>
        <time>2022-12-29T11:26:10.888Z</time>
      </trkpt>
      <trkpt lat="44.21888" lon="0.40116">
        <ele>87.452711</ele>
        <time>2022-12-29T11:26:13.899Z</time>
      </trkpt>
      <trkpt lat="44.21888" lon="0.4013">
        <ele>87.414083</ele>
        <time>2022-12-29T11:26:16.898Z</time>
      </trkpt>
      <trkpt lat="44.21888" lon="0.40146">
        <ele>87.372184</ele>
        <time>2022-12-29T11:26:19.878Z</time>
      </trkpt>
      <trkpt lat="44.21886" lon="0.40164">
        <ele>87.321627</ele>
        <time>2022-12-29T11:26:22.878Z</time>
      </trkpt>
      <trkpt lat="44.21886" lon="0.40177">
        <ele>87.286491</ele>
        <time>2022-12-29T11:26:24.887Z</time>
      </trkpt>
      <trkpt lat="44.21885" lon="0.40194">
        <ele>87.240216</ele>
        <time>2022-12-29T11:26:27.894Z</time>
      </trkpt>
      <trkpt lat="44.21885" lon="0.40211">
        <ele>87.194782</ele>
        <time>2022-12-29T11:26:30.880Z</time>
      </trkpt>
      <trkpt lat="44.21884" lon="0.40225">
        <ele>87.155308</ele>
        <time>2022-12-29T11:26:33.880Z</time>
      </trkpt>
      <trkpt lat="44.21883" lon="0.4024">
        <ele>87.115571</ele>
        <time>2022-12-29T11:26:36.898Z</time>
      </trkpt>
      <trkpt lat="44.21882" lon="0.40255">
        <ele>87.027682</ele>
        <time>2022-12-29T11:26:39.889Z</time>
      </trkpt>
      <trkpt lat="44.21881" lon="0.40271">
        <ele>86.767568</ele>
        <time>2022-12-29T11:26:42.876Z</time>
      </trkpt>
      <trkpt lat="44.2188" lon="0.40288">
        <ele>86.502931</ele>
        <time>2022-12-29T11:26:45.897Z</time>
      </trkpt>
      <trkpt lat="44.2188" lon="0.40306">
        <ele>86.221538</ele>
        <time>2022-12-29T11:26:48.882Z</time>
      </trkpt>
      <trkpt lat="44.21879" lon="0.40324">
        <ele>85.934004</ele>
        <time>2022-12-29T11:26:51.882Z</time>
      </trkpt>
      <trkpt lat="44.21877" lon="0.40343">
        <ele>85.636862</ele>
        <time>2022-12-29T11:26:54.899Z</time>
      </trkpt>
      <trkpt lat="44.21877" lon="0.40361">
        <ele>85.358745</ele>
        <time>2022-12-29T11:26:57.898Z</time>
      </trkpt>
      <trkpt lat="44.21876" lon="0.40376">
        <ele>85.110466</ele>
        <time>2022-12-29T11:27:00.895Z</time>
      </trkpt>
      <trkpt lat="44.21876" lon="0.40392">
        <ele>84.860549</ele>
        <time>2022-12-29T11:27:03.899Z</time>
      </trkpt>
      <trkpt lat="44.21876" lon="0.40409">
        <ele>84.598072</ele>
        <time>2022-12-29T11:27:06.898Z</time>
      </trkpt>
      <trkpt lat="44.21875" lon="0.40425">
        <ele>84.34493</ele>
        <time>2022-12-29T11:27:09.880Z</time>
      </trkpt>
      <trkpt lat="44.21875" lon="0.40441">
        <ele>84.093443</ele>
        <time>2022-12-29T11:27:12.881Z</time>
      </trkpt>
      <trkpt lat="44.21873" lon="0.40456">
        <ele>83.859219</ele>
        <time>2022-12-29T11:27:15.899Z</time>
      </trkpt>
      <trkpt lat="44.21873" lon="0.40472">
        <ele>83.610408</ele>
        <time>2022-12-29T11:27:18.898Z</time>
      </trkpt>
      <trkpt lat="44.21872" lon="0.40487">
        <ele>83.366297</ele>
        <time>2022-12-29T11:27:21.910Z</time>
      </trkpt>
      <trkpt lat="44.21871" lon="0.40502">
        <ele>83.142497</ele>
        <time>2022-12-29T11:27:24.890Z</time>
      </trkpt>
      <trkpt lat="44.21871" lon="0.40517">
        <ele>83.157957</ele>
        <time>2022-12-29T11:27:27.877Z</time>
      </trkpt>
      <trkpt lat="44.21871" lon="0.40531">
        <ele>83.172374</ele>
        <time>2022-12-29T11:27:30.897Z</time>
      </trkpt>
      <trkpt lat="44.21871" lon="0.40544">
        <ele>83.185858</ele>
        <time>2022-12-29T11:27:33.898Z</time>
      </trkpt>
      <trkpt lat="44.2187" lon="0.40558">
        <ele>83.200714</ele>
        <time>2022-12-29T11:27:36.886Z</time>
      </trkpt>
      <trkpt lat="44.21869" lon="0.40574">
        <ele>83.216574</ele>
        <time>2022-12-29T11:27:39.899Z</time>
      </trkpt>
      <trkpt lat="44.21869" lon="0.40591">
        <ele>83.234531</ele>
        <time>2022-12-29T11:27:42.880Z</time>
      </trkpt>
      <trkpt lat="44.21868" lon="0.40608">
        <ele>83.252719</ele>
        <time>2022-12-29T11:27:45.898Z</time>
      </trkpt>
      <trkpt lat="44.21867" lon="0.40625">
        <ele>83.270492</ele>
        <time>2022-12-29T11:27:48.898Z</time>
      </trkpt>
      <trkpt lat="44.21867" lon="0.40641">
        <ele>83.286584</ele>
        <time>2022-12-29T11:27:51.889Z</time>
      </trkpt>
      <trkpt lat="44.21866" lon="0.40657">
        <ele>83.303758</ele>
        <time>2022-12-29T11:27:54.898Z</time>
      </trkpt>
      <trkpt lat="44.21866" lon="0.40673">
        <ele>83.320042</ele>
        <time>2022-12-29T11:27:57.901Z</time>
      </trkpt>
      <trkpt lat="44.21865" lon="0.4069">
        <ele>83.337599</ele>
        <time>2022-12-29T11:28:00.899Z</time>
      </trkpt>
      <trkpt lat="44.21864" lon="0.40708">
        <ele>83.355867</ele>
        <time>2022-12-29T11:28:03.897Z</time>
      </trkpt>
      <trkpt lat="44.21863" lon="0.40724">
        <ele>83.37279</ele>
        <time>2022-12-29T11:28:06.896Z</time>
      </trkpt>
      <trkpt lat="44.21862" lon="0.40741">
        <ele>83.390651</ele>
        <time>2022-12-29T11:28:09.901Z</time>
      </trkpt>
      <trkpt lat="44.21862" lon="0.40757">
        <ele>83.390965</ele>
        <time>2022-12-29T11:28:12.879Z</time>
      </trkpt>
      <trkpt lat="44.2186" lon="0.40774">
        <ele>83.354892</ele>
        <time>2022-12-29T11:28:15.893Z</time>
      </trkpt>
      <trkpt lat="44.21859" lon="0.4079">
        <ele>83.319825</ele>
        <time>2022-12-29T11:28:18.900Z</time>
      </trkpt>
      <trkpt lat="44.21858" lon="0.40805">
        <ele>83.287534</ele>
        <time>2022-12-29T11:28:21.895Z</time>
      </trkpt>
      <trkpt lat="44.21858" lon="0.40818">
        <ele>83.259081</ele>
        <time>2022-12-29T11:28:24.900Z</time>
      </trkpt>
      <trkpt lat="44.21857" lon="0.40831">
        <ele>83.231969</ele>
        <time>2022-12-29T11:28:27.898Z</time>
      </trkpt>
      <trkpt lat="44.21857" lon="0.40844">
        <ele>83.203319</ele>
        <time>2022-12-29T11:28:30.879Z</time>
      </trkpt>
      <trkpt lat="44.21856" lon="0.4086">
        <ele>83.168637</ele>
        <time>2022-12-29T11:28:34.897Z</time>
      </trkpt>
      <trkpt lat="44.21856" lon="0.40874">
        <ele>83.138037</ele>
        <time>2022-12-29T11:28:38.881Z</time>
      </trkpt>
      <trkpt lat="44.21855" lon="0.40888">
        <ele>83.108111</ele>
        <time>2022-12-29T11:28:42.880Z</time>
      </trkpt>
      <trkpt lat="44.21854" lon="0.40903">
        <ele>83.076316</ele>
        <time>2022-12-29T11:28:47.899Z</time>
      </trkpt>
      <trkpt lat="44.21854" lon="0.40917">
        <ele>83.046376</ele>
        <time>2022-12-29T11:28:51.902Z</time>
      </trkpt>
      <trkpt lat="44.21854" lon="0.4093">
        <ele>83.01731</ele>
        <time>2022-12-29T11:28:55.884Z</time>
      </trkpt>
      <trkpt lat="44.21853" lon="0.40943">
        <ele>82.99018</ele>
        <time>2022-12-29T11:29:18.878Z</time>
      </trkpt>
      <trkpt lat="44.21853" lon="0.40967">
        <ele>82.937256</ele>
        <time>2022-12-29T11:29:50.901Z</time>
      </trkpt>
      <trkpt lat="44.21853" lon="0.40983">
        <ele>82.904337</ele>
        <time>2022-12-29T11:29:52.880Z</time>
      </trkpt>
      <trkpt lat="44.21852" lon="0.40997">
        <ele>82.873522</ele>
        <time>2022-12-29T11:29:54.898Z</time>
      </trkpt>
      <trkpt lat="44.21851" lon="0.41011">
        <ele>82.819356</ele>
        <time>2022-12-29T11:29:56.897Z</time>
      </trkpt>
      <trkpt lat="44.21851" lon="0.41025">
        <ele>82.757205</ele>
        <time>2022-12-29T11:29:58.893Z</time>
      </trkpt>
      <trkpt lat="44.21851" lon="0.41042">
        <ele>82.676291</ele>
        <time>2022-12-29T11:30:01.893Z</time>
      </trkpt>
      <trkpt lat="44.21851" lon="0.41058">
        <ele>82.600554</ele>
        <time>2022-12-29T11:30:04.882Z</time>
      </trkpt>
      <trkpt lat="44.21851" lon="0.41073">
        <ele>82.528568</ele>
        <time>2022-12-29T11:30:07.892Z</time>
      </trkpt>
      <trkpt lat="44.2185" lon="0.41088">
        <ele>82.460713</ele>
        <time>2022-12-29T11:30:10.882Z</time>
      </trkpt>
      <trkpt lat="44.2185" lon="0.41101">
        <ele>82.399089</ele>
        <time>2022-12-29T11:30:13.896Z</time>
      </trkpt>
      <trkpt lat="44.21849" lon="0.41115">
        <ele>82.332209</ele>
        <time>2022-12-29T11:30:16.893Z</time>
      </trkpt>
      <trkpt lat="44.21849" lon="0.4113">
        <ele>82.26063</ele>
        <time>2022-12-29T11:30:19.882Z</time>
      </trkpt>
      <trkpt lat="44.21849" lon="0.41146">
        <ele>82.187668</ele>
        <time>2022-12-29T11:30:22.880Z</time>
      </trkpt>
      <trkpt lat="44.21848" lon="0.41161">
        <ele>82.116801</ele>
        <time>2022-12-29T11:30:25.900Z</time>
      </trkpt>
      <trkpt lat="44.21846" lon="0.41176">
        <ele>82.042125</ele>
        <time>2022-12-29T11:30:28.880Z</time>
      </trkpt>
      <trkpt lat="44.21846" lon="0.41192">
        <ele>81.966316</ele>
        <time>2022-12-29T11:30:31.895Z</time>
      </trkpt>
      <trkpt lat="44.21845" lon="0.41208">
        <ele>81.89217</ele>
        <time>2022-12-29T11:30:34.898Z</time>
      </trkpt>
      <trkpt lat="44.21844" lon="0.41224">
        <ele>81.818241</ele>
        <time>2022-12-29T11:30:37.895Z</time>
      </trkpt>
      <trkpt lat="44.21844" lon="0.41239">
        <ele>81.747159</ele>
        <time>2022-12-29T11:30:40.881Z</time>
      </trkpt>
      <trkpt lat="44.21844" lon="0.41255">
        <ele>81.682129</ele>
        <time>2022-12-29T11:30:43.899Z</time>
      </trkpt>
      <trkpt lat="44.21844" lon="0.41272">
        <ele>81.686418</ele>
        <time>2022-12-29T11:30:46.900Z</time>
      </trkpt>
      <trkpt lat="44.21843" lon="0.41288">
        <ele>81.690411</ele>
        <time>2022-12-29T11:30:49.879Z</time>
      </trkpt>
      <trkpt lat="44.21843" lon="0.41304">
        <ele>81.694474</ele>
        <time>2022-12-29T11:30:52.880Z</time>
      </trkpt>
      <trkpt lat="44.21842" lon="0.41319">
        <ele>81.698178</ele>
        <time>2022-12-29T11:30:55.884Z</time>
      </trkpt>
      <trkpt lat="44.21841" lon="0.41334">
        <ele>81.701982</ele>
        <time>2022-12-29T11:30:58.886Z</time>
      </trkpt>
      <trkpt lat="44.21841" lon="0.4135">
        <ele>81.705949</ele>
        <time>2022-12-29T11:31:01.890Z</time>
      </trkpt>
      <trkpt lat="44.2184" lon="0.41367">
        <ele>81.710221</ele>
        <time>2022-12-29T11:31:04.911Z</time>
      </trkpt>
      <trkpt lat="44.21839" lon="0.41384">
        <ele>81.714566</ele>
        <time>2022-12-29T11:31:07.891Z</time>
      </trkpt>
      <trkpt lat="44.21839" lon="0.41402">
        <ele>81.719031</ele>
        <time>2022-12-29T11:31:10.888Z</time>
      </trkpt>
      <trkpt lat="44.21839" lon="0.4142">
        <ele>81.723474</ele>
        <time>2022-12-29T11:31:13.895Z</time>
      </trkpt>
      <trkpt lat="44.21838" lon="0.41438">
        <ele>81.728003</ele>
        <time>2022-12-29T11:31:16.881Z</time>
      </trkpt>
      <trkpt lat="44.21837" lon="0.41456">
        <ele>81.732523</ele>
        <time>2022-12-29T11:31:19.892Z</time>
      </trkpt>
      <trkpt lat="44.21837" lon="0.41474">
        <ele>81.737114</ele>
        <time>2022-12-29T11:31:22.882Z</time>
      </trkpt>
      <trkpt lat="44.21836" lon="0.41493">
        <ele>81.741837</ele>
        <time>2022-12-29T11:31:25.898Z</time>
      </trkpt>
      <trkpt lat="44.21835" lon="0.41505">
        <ele>81.762758</ele>
        <time>2022-12-29T11:31:27.902Z</time>
      </trkpt>
      <trkpt lat="44.21834" lon="0.41519">
        <ele>81.878314</ele>
        <time>2022-12-29T11:31:29.900Z</time>
      </trkpt>
      <trkpt lat="44.21834" lon="0.41537">
        <ele>82.039013</ele>
        <time>2022-12-29T11:31:32.880Z</time>
      </trkpt>
      <trkpt lat="44.21833" lon="0.4155">
        <ele>82.152941</ele>
        <time>2022-12-29T11:31:34.881Z</time>
      </trkpt>
      <trkpt lat="44.21832" lon="0.41568">
        <ele>82.314519</ele>
        <time>2022-12-29T11:31:37.889Z</time>
      </trkpt>
      <trkpt lat="44.21832" lon="0.41586">
        <ele>82.474206</ele>
        <time>2022-12-29T11:31:40.898Z</time>
      </trkpt>
      <trkpt lat="44.21831" lon="0.41599">
        <ele>82.587074</ele>
        <time>2022-12-29T11:31:42.880Z</time>
      </trkpt>
      <trkpt lat="44.2183" lon="0.41617">
        <ele>82.746185</ele>
        <time>2022-12-29T11:31:45.899Z</time>
      </trkpt>
      <trkpt lat="44.21831" lon="0.41634">
        <ele>82.893445</ele>
        <time>2022-12-29T11:31:48.894Z</time>
      </trkpt>
      <trkpt lat="44.2183" lon="0.4165">
        <ele>83.042893</ele>
        <time>2022-12-29T11:31:51.898Z</time>
      </trkpt>
      <trkpt lat="44.21829" lon="0.41668">
        <ele>83.196319</ele>
        <time>2022-12-29T11:31:54.900Z</time>
      </trkpt>
      <trkpt lat="44.21829" lon="0.41686">
        <ele>83.352431</ele>
        <time>2022-12-29T11:31:57.899Z</time>
      </trkpt>
      <trkpt lat="44.21828" lon="0.41703">
        <ele>83.504096</ele>
        <time>2022-12-29T11:32:00.900Z</time>
      </trkpt>
      <trkpt lat="44.21827" lon="0.41719">
        <ele>83.650387</ele>
        <time>2022-12-29T11:32:03.901Z</time>
      </trkpt>
      <trkpt lat="44.21826" lon="0.41735">
        <ele>83.792618</ele>
        <time>2022-12-29T11:32:06.894Z</time>
      </trkpt>
      <trkpt lat="44.21826" lon="0.41753">
        <ele>83.947161</ele>
        <time>2022-12-29T11:32:09.894Z</time>
      </trkpt>
      <trkpt lat="44.21825" lon="0.4177">
        <ele>83.963994</ele>
        <time>2022-12-29T11:32:12.883Z</time>
      </trkpt>
      <trkpt lat="44.21824" lon="0.41788">
        <ele>83.972315</ele>
        <time>2022-12-29T11:32:15.896Z</time>
      </trkpt>
      <trkpt lat="44.21825" lon="0.41807">
        <ele>83.981442</ele>
        <time>2022-12-29T11:32:18.901Z</time>
      </trkpt>
      <trkpt lat="44.21825" lon="0.4182">
        <ele>83.987525</ele>
        <time>2022-12-29T11:32:20.881Z</time>
      </trkpt>
      <trkpt lat="44.21824" lon="0.41837">
        <ele>83.995906</ele>
        <time>2022-12-29T11:32:23.900Z</time>
      </trkpt>
      <trkpt lat="44.21824" lon="0.41853">
        <ele>84.003415</ele>
        <time>2022-12-29T11:32:26.900Z</time>
      </trkpt>
      <trkpt lat="44.21824" lon="0.41867">
        <ele>84.010307</ele>
        <time>2022-12-29T11:32:29.898Z</time>
      </trkpt>
      <trkpt lat="44.21822" lon="0.41884">
        <ele>84.018142</ele>
        <time>2022-12-29T11:32:33.895Z</time>
      </trkpt>
      <trkpt lat="44.21822" lon="0.41899">
        <ele>84.025153</ele>
        <time>2022-12-29T11:32:36.899Z</time>
      </trkpt>
      <trkpt lat="44.21821" lon="0.41915">
        <ele>84.033002</ele>
        <time>2022-12-29T11:32:39.899Z</time>
      </trkpt>
      <trkpt lat="44.21821" lon="0.41933">
        <ele>84.04137</ele>
        <time>2022-12-29T11:32:42.879Z</time>
      </trkpt>
      <trkpt lat="44.2182" lon="0.41946">
        <ele>84.047551</ele>
        <time>2022-12-29T11:32:44.900Z</time>
      </trkpt>
      <trkpt lat="44.21819" lon="0.41963">
        <ele>84.055818</ele>
        <time>2022-12-29T11:32:47.903Z</time>
      </trkpt>
      <trkpt lat="44.21819" lon="0.41981">
        <ele>84.064329</ele>
        <time>2022-12-29T11:32:50.899Z</time>
      </trkpt>
      <trkpt lat="44.21818" lon="0.41999">
        <ele>84.073133</ele>
        <time>2022-12-29T11:32:53.899Z</time>
      </trkpt>
      <trkpt lat="44.21816" lon="0.42017">
        <ele>84.16696</ele>
        <time>2022-12-29T11:32:56.901Z</time>
      </trkpt>
      <trkpt lat="44.21815" lon="0.42034">
        <ele>84.296456</ele>
        <time>2022-12-29T11:32:59.903Z</time>
      </trkpt>
      <trkpt lat="44.21815" lon="0.42047">
        <ele>84.390743</ele>
        <time>2022-12-29T11:33:01.899Z</time>
      </trkpt>
      <trkpt lat="44.21815" lon="0.42065">
        <ele>84.524406</ele>
        <time>2022-12-29T11:33:04.903Z</time>
      </trkpt>
      <trkpt lat="44.21814" lon="0.42082">
        <ele>84.656954</ele>
        <time>2022-12-29T11:33:07.901Z</time>
      </trkpt>
      <trkpt lat="44.21813" lon="0.42101">
        <ele>84.794485</ele>
        <time>2022-12-29T11:33:10.882Z</time>
      </trkpt>
      <trkpt lat="44.21813" lon="0.42114">
        <ele>84.891736</ele>
        <time>2022-12-29T11:33:12.880Z</time>
      </trkpt>
      <trkpt lat="44.21812" lon="0.42132">
        <ele>85.028067</ele>
        <time>2022-12-29T11:33:15.896Z</time>
      </trkpt>
      <trkpt lat="44.21811" lon="0.42148">
        <ele>85.148038</ele>
        <time>2022-12-29T11:33:18.895Z</time>
      </trkpt>
      <trkpt lat="44.2181" lon="0.42164">
        <ele>85.263922</ele>
        <time>2022-12-29T11:33:21.898Z</time>
      </trkpt>
      <trkpt lat="44.2181" lon="0.42181">
        <ele>85.388175</ele>
        <time>2022-12-29T11:33:24.902Z</time>
      </trkpt>
      <trkpt lat="44.21809" lon="0.42197">
        <ele>85.511935</ele>
        <time>2022-12-29T11:33:27.893Z</time>
      </trkpt>
      <trkpt lat="44.21807" lon="0.42214">
        <ele>85.636641</ele>
        <time>2022-12-29T11:33:30.899Z</time>
      </trkpt>
      <trkpt lat="44.21807" lon="0.42231">
        <ele>85.762849</ele>
        <time>2022-12-29T11:33:33.899Z</time>
      </trkpt>
      <trkpt lat="44.21808" lon="0.42248">
        <ele>85.887585</ele>
        <time>2022-12-29T11:33:36.892Z</time>
      </trkpt>
      <trkpt lat="44.21807" lon="0.42266">
        <ele>85.83492</ele>
        <time>2022-12-29T11:33:39.899Z</time>
      </trkpt>
      <trkpt lat="44.21806" lon="0.42284">
        <ele>85.664058</ele>
        <time>2022-12-29T11:33:42.879Z</time>
      </trkpt>
      <trkpt lat="44.21806" lon="0.42296">
        <ele>85.544282</ele>
        <time>2022-12-29T11:33:44.898Z</time>
      </trkpt>
      <trkpt lat="44.21805" lon="0.42309">
        <ele>85.425544</ele>
        <time>2022-12-29T11:33:46.899Z</time>
      </trkpt>
      <trkpt lat="44.21804" lon="0.42327">
        <ele>85.249356</ele>
        <time>2022-12-29T11:33:49.895Z</time>
      </trkpt>
      <trkpt lat="44.21804" lon="0.42346">
        <ele>85.07159</ele>
        <time>2022-12-29T11:33:52.880Z</time>
      </trkpt>
      <trkpt lat="44.21803" lon="0.42364">
        <ele>84.89677</ele>
        <time>2022-12-29T11:33:55.893Z</time>
      </trkpt>
      <trkpt lat="44.21803" lon="0.42381">
        <ele>84.738985</ele>
        <time>2022-12-29T11:33:58.900Z</time>
      </trkpt>
      <trkpt lat="44.21803" lon="0.42395">
        <ele>84.600276</ele>
        <time>2022-12-29T11:34:01.900Z</time>
      </trkpt>
      <trkpt lat="44.21803" lon="0.4241">
        <ele>84.462415</ele>
        <time>2022-12-29T11:34:04.899Z</time>
      </trkpt>
      <trkpt lat="44.21802" lon="0.42426">
        <ele>84.307256</ele>
        <time>2022-12-29T11:34:07.892Z</time>
      </trkpt>
      <trkpt lat="44.21801" lon="0.42442">
        <ele>84.161467</ele>
        <time>2022-12-29T11:34:10.899Z</time>
      </trkpt>
      <trkpt lat="44.21801" lon="0.42455">
        <ele>84.031255</ele>
        <time>2022-12-29T11:34:13.896Z</time>
      </trkpt>
      <trkpt lat="44.21799" lon="0.4247">
        <ele>83.889928</ele>
        <time>2022-12-29T11:34:16.898Z</time>
      </trkpt>
      <trkpt lat="44.21797" lon="0.42486">
        <ele>83.731804</ele>
        <time>2022-12-29T11:34:19.901Z</time>
      </trkpt>
      <trkpt lat="44.21795" lon="0.42503">
        <ele>83.573853</ele>
        <time>2022-12-29T11:34:22.881Z</time>
      </trkpt>
      <trkpt lat="44.21795" lon="0.4252">
        <ele>83.602519</ele>
        <time>2022-12-29T11:34:25.895Z</time>
      </trkpt>
      <trkpt lat="44.21795" lon="0.42538">
        <ele>83.657972</ele>
        <time>2022-12-29T11:34:28.894Z</time>
      </trkpt>
      <trkpt lat="44.21794" lon="0.42556">
        <ele>83.714353</ele>
        <time>2022-12-29T11:34:31.896Z</time>
      </trkpt>
      <trkpt lat="44.21793" lon="0.42575">
        <ele>83.772073</ele>
        <time>2022-12-29T11:34:34.891Z</time>
      </trkpt>
      <trkpt lat="44.21793" lon="0.42587">
        <ele>83.811102</ele>
        <time>2022-12-29T11:34:36.901Z</time>
      </trkpt>
      <trkpt lat="44.21792" lon="0.42605">
        <ele>83.866246</ele>
        <time>2022-12-29T11:34:39.894Z</time>
      </trkpt>
      <trkpt lat="44.21792" lon="0.42624">
        <ele>83.925687</ele>
        <time>2022-12-29T11:34:42.882Z</time>
      </trkpt>
      <trkpt lat="44.21791" lon="0.42637">
        <ele>83.965925</ele>
        <time>2022-12-29T11:34:44.901Z</time>
      </trkpt>
      <trkpt lat="44.21792" lon="0.42651">
        <ele>84.007704</ele>
        <time>2022-12-29T11:34:46.895Z</time>
      </trkpt>
      <trkpt lat="44.21791" lon="0.42669">
        <ele>84.064498</ele>
        <time>2022-12-29T11:34:49.897Z</time>
      </trkpt>
      <trkpt lat="44.2179" lon="0.42688">
        <ele>84.121879</ele>
        <time>2022-12-29T11:34:52.880Z</time>
      </trkpt>
      <trkpt lat="44.21789" lon="0.427">
        <ele>84.160892</ele>
        <time>2022-12-29T11:34:54.897Z</time>
      </trkpt>
      <trkpt lat="44.21788" lon="0.42718">
        <ele>84.216112</ele>
        <time>2022-12-29T11:34:57.894Z</time>
      </trkpt>
      <trkpt lat="44.21788" lon="0.42735">
        <ele>84.268188</ele>
        <time>2022-12-29T11:35:00.885Z</time>
      </trkpt>
      <trkpt lat="44.21787" lon="0.42753">
        <ele>84.324643</ele>
        <time>2022-12-29T11:35:03.902Z</time>
      </trkpt>
      <trkpt lat="44.21787" lon="0.42766">
        <ele>84.493588</ele>
        <time>2022-12-29T11:35:05.898Z</time>
      </trkpt>
      <trkpt lat="44.21787" lon="0.4278">
        <ele>84.693714</ele>
        <time>2022-12-29T11:35:07.898Z</time>
      </trkpt>
      <trkpt lat="44.21786" lon="0.42793">
        <ele>84.890725</ele>
        <time>2022-12-29T11:35:09.899Z</time>
      </trkpt>
      <trkpt lat="44.21785" lon="0.42807">
        <ele>85.098144</ele>
        <time>2022-12-29T11:35:11.899Z</time>
      </trkpt>
      <trkpt lat="44.21785" lon="0.4282">
        <ele>85.29924</ele>
        <time>2022-12-29T11:35:13.882Z</time>
      </trkpt>
      <trkpt lat="44.21785" lon="0.42833">
        <ele>85.496394</ele>
        <time>2022-12-29T11:35:15.894Z</time>
      </trkpt>
      <trkpt lat="44.21784" lon="0.42847">
        <ele>85.706673</ele>
        <time>2022-12-29T11:35:17.890Z</time>
      </trkpt>
      <trkpt lat="44.21783" lon="0.42861">
        <ele>85.904178</ele>
        <time>2022-12-29T11:35:19.910Z</time>
      </trkpt>
      <trkpt lat="44.21783" lon="0.42875">
        <ele>86.121658</ele>
        <time>2022-12-29T11:35:21.897Z</time>
      </trkpt>
      <trkpt lat="44.21783" lon="0.42888">
        <ele>86.316829</ele>
        <time>2022-12-29T11:35:23.898Z</time>
      </trkpt>
      <trkpt lat="44.21782" lon="0.42906">
        <ele>86.575194</ele>
        <time>2022-12-29T11:35:26.894Z</time>
      </trkpt>
      <trkpt lat="44.21782" lon="0.42922">
        <ele>86.820974</ele>
        <time>2022-12-29T11:35:29.894Z</time>
      </trkpt>
      <trkpt lat="44.21781" lon="0.42939">
        <ele>87.077711</ele>
        <time>2022-12-29T11:35:32.908Z</time>
      </trkpt>
      <trkpt lat="44.21781" lon="0.42957">
        <ele>87.345897</ele>
        <time>2022-12-29T11:35:35.894Z</time>
      </trkpt>
      <trkpt lat="44.21781" lon="0.4297">
        <ele>87.539635</ele>
        <time>2022-12-29T11:35:37.880Z</time>
      </trkpt>
      <trkpt lat="44.2178" lon="0.42983">
        <ele>87.727878</ele>
        <time>2022-12-29T11:35:39.899Z</time>
      </trkpt>
      <trkpt lat="44.21779" lon="0.42996">
        <ele>87.922228</ele>
        <time>2022-12-29T11:35:41.899Z</time>
      </trkpt>
      <trkpt lat="44.21779" lon="0.4301">
        <ele>88.058304</ele>
        <time>2022-12-29T11:35:43.903Z</time>
      </trkpt>
      <trkpt lat="44.21778" lon="0.43023">
        <ele>88.017523</ele>
        <time>2022-12-29T11:35:45.900Z</time>
      </trkpt>
      <trkpt lat="44.21778" lon="0.43037">
        <ele>87.976013</ele>
        <time>2022-12-29T11:35:47.899Z</time>
      </trkpt>
      <trkpt lat="44.21777" lon="0.43051">
        <ele>87.931334</ele>
        <time>2022-12-29T11:35:49.899Z</time>
      </trkpt>
      <trkpt lat="44.21777" lon="0.43064">
        <ele>87.891712</ele>
        <time>2022-12-29T11:35:51.900Z</time>
      </trkpt>
      <trkpt lat="44.21776" lon="0.43078">
        <ele>87.851862</ele>
        <time>2022-12-29T11:35:53.893Z</time>
      </trkpt>
      <trkpt lat="44.21775" lon="0.43095">
        <ele>87.799682</ele>
        <time>2022-12-29T11:35:56.896Z</time>
      </trkpt>
      <trkpt lat="44.21775" lon="0.43112">
        <ele>87.747364</ele>
        <time>2022-12-29T11:35:59.883Z</time>
      </trkpt>
      <trkpt lat="44.21774" lon="0.4313">
        <ele>87.691362</ele>
        <time>2022-12-29T11:36:02.883Z</time>
      </trkpt>
      <trkpt lat="44.21773" lon="0.4315">
        <ele>87.632217</ele>
        <time>2022-12-29T11:36:05.908Z</time>
      </trkpt>
      <trkpt lat="44.21772" lon="0.43162">
        <ele>87.593337</ele>
        <time>2022-12-29T11:36:07.901Z</time>
      </trkpt>
      <trkpt lat="44.21771" lon="0.43177">
        <ele>87.549801</ele>
        <time>2022-12-29T11:36:09.900Z</time>
      </trkpt>
      <trkpt lat="44.2177" lon="0.4319">
        <ele>87.508292</ele>
        <time>2022-12-29T11:36:11.889Z</time>
      </trkpt>
      <trkpt lat="44.2177" lon="0.43204">
        <ele>87.467867</ele>
        <time>2022-12-29T11:36:13.895Z</time>
      </trkpt>
      <trkpt lat="44.2177" lon="0.43218">
        <ele>87.425298</ele>
        <time>2022-12-29T11:36:15.898Z</time>
      </trkpt>
      <trkpt lat="44.21769" lon="0.43236">
        <ele>87.368104</ele>
        <time>2022-12-29T11:36:18.899Z</time>
      </trkpt>
      <trkpt lat="44.21769" lon="0.43255">
        <ele>87.311263</ele>
        <time>2022-12-29T11:36:21.898Z</time>
      </trkpt>
      <trkpt lat="44.21768" lon="0.43273">
        <ele>87.284119</ele>
        <time>2022-12-29T11:36:24.905Z</time>
      </trkpt>
      <trkpt lat="44.21768" lon="0.43286">
        <ele>87.266697</ele>
        <time>2022-12-29T11:36:26.903Z</time>
      </trkpt>
      <trkpt lat="44.21768" lon="0.43299">
        <ele>87.249027</ele>
        <time>2022-12-29T11:36:28.902Z</time>
      </trkpt>
      <trkpt lat="44.21767" lon="0.43313">
        <ele>87.229984</ele>
        <time>2022-12-29T11:36:30.899Z</time>
      </trkpt>
      <trkpt lat="44.21767" lon="0.43327">
        <ele>87.211073</ele>
        <time>2022-12-29T11:36:32.884Z</time>
      </trkpt>
      <trkpt lat="44.21767" lon="0.43341">
        <ele>87.191619</ele>
        <time>2022-12-29T11:36:34.893Z</time>
      </trkpt>
      <trkpt lat="44.21766" lon="0.43355">
        <ele>87.172409</ele>
        <time>2022-12-29T11:36:36.895Z</time>
      </trkpt>
      <trkpt lat="44.21766" lon="0.43374">
        <ele>87.146655</ele>
        <time>2022-12-29T11:36:39.896Z</time>
      </trkpt>
      <trkpt lat="44.21765" lon="0.4339">
        <ele>87.124639</ele>
        <time>2022-12-29T11:36:42.888Z</time>
      </trkpt>
      <trkpt lat="44.21765" lon="0.43408">
        <ele>87.099566</ele>
        <time>2022-12-29T11:36:45.892Z</time>
      </trkpt>
      <trkpt lat="44.21764" lon="0.43426">
        <ele>87.075148</ele>
        <time>2022-12-29T11:36:48.900Z</time>
      </trkpt>
      <trkpt lat="44.21763" lon="0.43439">
        <ele>87.057412</ele>
        <time>2022-12-29T11:36:50.903Z</time>
      </trkpt>
      <trkpt lat="44.21762" lon="0.43457">
        <ele>87.031423</ele>
        <time>2022-12-29T11:36:53.892Z</time>
      </trkpt>
      <trkpt lat="44.21762" lon="0.43472">
        <ele>87.011973</ele>
        <time>2022-12-29T11:36:55.899Z</time>
      </trkpt>
      <trkpt lat="44.21762" lon="0.43486">
        <ele>86.992781</ele>
        <time>2022-12-29T11:36:57.899Z</time>
      </trkpt>
      <trkpt lat="44.21762" lon="0.43499">
        <ele>86.974016</ele>
        <time>2022-12-29T11:36:59.902Z</time>
      </trkpt>
      <trkpt lat="44.21761" lon="0.43512">
        <ele>86.97861</ele>
        <time>2022-12-29T11:37:01.898Z</time>
      </trkpt>
      <trkpt lat="44.2176" lon="0.43525">
        <ele>87.015562</ele>
        <time>2022-12-29T11:37:03.892Z</time>
      </trkpt>
      <trkpt lat="44.2176" lon="0.43538">
        <ele>87.055744</ele>
        <time>2022-12-29T11:37:05.881Z</time>
      </trkpt>
      <trkpt lat="44.21761" lon="0.43552">
        <ele>87.094567</ele>
        <time>2022-12-29T11:37:07.894Z</time>
      </trkpt>
      <trkpt lat="44.2176" lon="0.43568">
        <ele>87.142482</ele>
        <time>2022-12-29T11:37:10.888Z</time>
      </trkpt>
      <trkpt lat="44.21759" lon="0.43586">
        <ele>87.193759</ele>
        <time>2022-12-29T11:37:13.888Z</time>
      </trkpt>
      <trkpt lat="44.21759" lon="0.43604">
        <ele>87.246744</ele>
        <time>2022-12-29T11:37:16.898Z</time>
      </trkpt>
      <trkpt lat="44.21757" lon="0.43622">
        <ele>87.299111</ele>
        <time>2022-12-29T11:37:19.902Z</time>
      </trkpt>
      <trkpt lat="44.21757" lon="0.4364">
        <ele>87.351828</ele>
        <time>2022-12-29T11:37:22.883Z</time>
      </trkpt>
      <trkpt lat="44.21756" lon="0.43657">
        <ele>87.4014</ele>
        <time>2022-12-29T11:37:25.900Z</time>
      </trkpt>
      <trkpt lat="44.21755" lon="0.43671">
        <ele>87.444263</ele>
        <time>2022-12-29T11:37:28.897Z</time>
      </trkpt>
      <trkpt lat="44.21754" lon="0.43686">
        <ele>87.48696</ele>
        <time>2022-12-29T11:37:31.900Z</time>
      </trkpt>
      <trkpt lat="44.21754" lon="0.43703">
        <ele>87.537091</ele>
        <time>2022-12-29T11:37:34.894Z</time>
      </trkpt>
      <trkpt lat="44.21753" lon="0.43721">
        <ele>87.588935</ele>
        <time>2022-12-29T11:37:37.894Z</time>
      </trkpt>
      <trkpt lat="44.21752" lon="0.43739">
        <ele>87.641784</ele>
        <time>2022-12-29T11:37:40.883Z</time>
      </trkpt>
      <trkpt lat="44.21751" lon="0.43758">
        <ele>87.692443</ele>
        <time>2022-12-29T11:37:43.907Z</time>
      </trkpt>
      <trkpt lat="44.21751" lon="0.43775">
        <ele>87.636085</ele>
        <time>2022-12-29T11:37:46.892Z</time>
      </trkpt>
      <trkpt lat="44.21746" lon="0.43786">
        <ele>87.594531</ele>
        <time>2022-12-29T11:38:01.903Z</time>
      </trkpt>
      <trkpt lat="44.21745" lon="0.43804">
        <ele>87.534319</ele>
        <time>2022-12-29T11:38:17.890Z</time>
      </trkpt>
      <trkpt lat="44.21745" lon="0.43817">
        <ele>87.490907</ele>
        <time>2022-12-29T11:38:20.900Z</time>
      </trkpt>
      <trkpt lat="44.21746" lon="0.43832">
        <ele>87.440127</ele>
        <time>2022-12-29T11:38:23.885Z</time>
      </trkpt>
      <trkpt lat="44.21746" lon="0.43848">
        <ele>87.387498</ele>
        <time>2022-12-29T11:38:26.882Z</time>
      </trkpt>
      <trkpt lat="44.21745" lon="0.43865">
        <ele>87.333795</ele>
        <time>2022-12-29T11:38:29.880Z</time>
      </trkpt>
      <trkpt lat="44.21745" lon="0.43882">
        <ele>87.276568</ele>
        <time>2022-12-29T11:38:32.885Z</time>
      </trkpt>
      <trkpt lat="44.21745" lon="0.439">
        <ele>87.217369</ele>
        <time>2022-12-29T11:38:35.894Z</time>
      </trkpt>
      <trkpt lat="44.21746" lon="0.43914">
        <ele>87.171268</ele>
        <time>2022-12-29T11:38:37.901Z</time>
      </trkpt>
      <trkpt lat="44.21745" lon="0.43927">
        <ele>87.127818</ele>
        <time>2022-12-29T11:38:39.900Z</time>
      </trkpt>
      <trkpt lat="44.21745" lon="0.43941">
        <ele>87.083748</ele>
        <time>2022-12-29T11:38:41.902Z</time>
      </trkpt>
      <trkpt lat="44.21745" lon="0.43953">
        <ele>87.041971</ele>
        <time>2022-12-29T11:38:43.900Z</time>
      </trkpt>
      <trkpt lat="44.21744" lon="0.43967">
        <ele>86.9988</ele>
        <time>2022-12-29T11:38:45.902Z</time>
      </trkpt>
      <trkpt lat="44.21743" lon="0.43979">
        <ele>86.957259</ele>
        <time>2022-12-29T11:38:47.901Z</time>
      </trkpt>
      <trkpt lat="44.21742" lon="0.43997">
        <ele>86.898276</ele>
        <time>2022-12-29T11:38:50.893Z</time>
      </trkpt>
      <trkpt lat="44.21742" lon="0.44015">
        <ele>87.029436</ele>
        <time>2022-12-29T11:38:53.900Z</time>
      </trkpt>
      <trkpt lat="44.21741" lon="0.44028">
        <ele>87.269899</ele>
        <time>2022-12-29T11:38:55.890Z</time>
      </trkpt>
      <trkpt lat="44.21741" lon="0.44046">
        <ele>87.617933</ele>
        <time>2022-12-29T11:38:58.891Z</time>
      </trkpt>
      <trkpt lat="44.2174" lon="0.44059">
        <ele>87.8547</ele>
        <time>2022-12-29T11:39:00.901Z</time>
      </trkpt>
      <trkpt lat="44.2174" lon="0.44073">
        <ele>88.102916</ele>
        <time>2022-12-29T11:39:02.883Z</time>
      </trkpt>
      <trkpt lat="44.2174" lon="0.44086">
        <ele>88.352498</ele>
        <time>2022-12-29T11:39:04.882Z</time>
      </trkpt>
      <trkpt lat="44.21739" lon="0.441">
        <ele>88.606249</ele>
        <time>2022-12-29T11:39:06.886Z</time>
      </trkpt>
      <trkpt lat="44.21739" lon="0.44113">
        <ele>88.850503</ele>
        <time>2022-12-29T11:39:08.886Z</time>
      </trkpt>
      <trkpt lat="44.21738" lon="0.44132">
        <ele>89.199025</ele>
        <time>2022-12-29T11:39:11.893Z</time>
      </trkpt>
      <trkpt lat="44.21737" lon="0.44145">
        <ele>89.450931</ele>
        <time>2022-12-29T11:39:13.887Z</time>
      </trkpt>
      <trkpt lat="44.21737" lon="0.44158">
        <ele>89.687923</ele>
        <time>2022-12-29T11:39:15.907Z</time>
      </trkpt>
      <trkpt lat="44.21736" lon="0.44175">
        <ele>90.001425</ele>
        <time>2022-12-29T11:39:18.894Z</time>
      </trkpt>
      <trkpt lat="44.21735" lon="0.4419">
        <ele>90.286554</ele>
        <time>2022-12-29T11:39:21.895Z</time>
      </trkpt>
      <trkpt lat="44.21734" lon="0.44205">
        <ele>90.550342</ele>
        <time>2022-12-29T11:39:24.899Z</time>
      </trkpt>
      <trkpt lat="44.21733" lon="0.44218">
        <ele>90.804094</ele>
        <time>2022-12-29T11:39:27.902Z</time>
      </trkpt>
      <trkpt lat="44.21732" lon="0.44232">
        <ele>91.054086</ele>
        <time>2022-12-29T11:39:30.901Z</time>
      </trkpt>
      <trkpt lat="44.21731" lon="0.44247">
        <ele>91.341802</ele>
        <time>2022-12-29T11:39:34.901Z</time>
      </trkpt>
      <trkpt lat="44.2173" lon="0.44261">
        <ele>91.545602</ele>
        <time>2022-12-29T11:39:38.890Z</time>
      </trkpt>
      <trkpt lat="44.21729" lon="0.44273">
        <ele>91.651577</ele>
        <time>2022-12-29T11:39:42.884Z</time>
      </trkpt>
      <trkpt lat="44.21726" lon="0.44286">
        <ele>91.763703</ele>
        <time>2022-12-29T11:39:47.885Z</time>
      </trkpt>
      <trkpt lat="44.21724" lon="0.44299">
        <ele>91.878281</ele>
        <time>2022-12-29T11:39:51.904Z</time>
      </trkpt>
      <trkpt lat="44.21724" lon="0.44315">
        <ele>92.006905</ele>
        <time>2022-12-29T11:39:57.902Z</time>
      </trkpt>
      <trkpt lat="44.21724" lon="0.4433">
        <ele>92.135342</ele>
        <time>2022-12-29T11:40:00.911Z</time>
      </trkpt>
      <trkpt lat="44.21722" lon="0.44344">
        <ele>92.256833</ele>
        <time>2022-12-29T11:40:02.891Z</time>
      </trkpt>
      <trkpt lat="44.21721" lon="0.44359">
        <ele>92.37756</ele>
        <time>2022-12-29T11:40:04.909Z</time>
      </trkpt>
      <trkpt lat="44.21719" lon="0.44374">
        <ele>92.512505</ele>
        <time>2022-12-29T11:40:06.900Z</time>
      </trkpt>
      <trkpt lat="44.21718" lon="0.44391">
        <ele>92.650886</ele>
        <time>2022-12-29T11:40:08.885Z</time>
      </trkpt>
      <trkpt lat="44.21718" lon="0.4441">
        <ele>92.809692</ele>
        <time>2022-12-29T11:40:10.965Z</time>
      </trkpt>
      <trkpt lat="44.21717" lon="0.44426">
        <ele>92.943576</ele>
        <time>2022-12-29T11:40:12.884Z</time>
      </trkpt>
      <trkpt lat="44.21715" lon="0.44441">
        <ele>93.07194</ele>
        <time>2022-12-29T11:40:14.913Z</time>
      </trkpt>
      <trkpt lat="44.21714" lon="0.44458">
        <ele>93.213551</ele>
        <time>2022-12-29T11:40:16.912Z</time>
      </trkpt>
      <trkpt lat="44.21713" lon="0.44472">
        <ele>93.331652</ele>
        <time>2022-12-29T11:40:18.906Z</time>
      </trkpt>
      <trkpt lat="44.21712" lon="0.44485">
        <ele>93.443497</ele>
        <time>2022-12-29T11:40:20.911Z</time>
      </trkpt>
      <trkpt lat="44.21711" lon="0.44498">
        <ele>93.551459</ele>
        <time>2022-12-29T11:40:22.890Z</time>
      </trkpt>
      <trkpt lat="44.21711" lon="0.44513">
        <ele>93.564827</ele>
        <time>2022-12-29T11:40:25.903Z</time>
      </trkpt>
      <trkpt lat="44.2171" lon="0.44528">
        <ele>93.471658</ele>
        <time>2022-12-29T11:40:28.891Z</time>
      </trkpt>
      <trkpt lat="44.21709" lon="0.44543">
        <ele>93.377728</ele>
        <time>2022-12-29T11:40:32.889Z</time>
      </trkpt>
      <trkpt lat="44.21708" lon="0.44559">
        <ele>93.282392</ele>
        <time>2022-12-29T11:40:35.909Z</time>
      </trkpt>
      <trkpt lat="44.21708" lon="0.44574">
        <ele>93.185129</ele>
        <time>2022-12-29T11:40:38.900Z</time>
      </trkpt>
      <trkpt lat="44.21706" lon="0.4459">
        <ele>93.091116</ele>
        <time>2022-12-29T11:40:41.902Z</time>
      </trkpt>
      <trkpt lat="44.21706" lon="0.44606">
        <ele>92.98767</ele>
        <time>2022-12-29T11:40:44.909Z</time>
      </trkpt>
      <trkpt lat="44.21707" lon="0.44622">
        <ele>92.889123</ele>
        <time>2022-12-29T11:40:47.904Z</time>
      </trkpt>
      <trkpt lat="44.21707" lon="0.44638">
        <ele>92.788125</ele>
        <time>2022-12-29T11:40:50.910Z</time>
      </trkpt>
      <trkpt lat="44.21707" lon="0.44654">
        <ele>92.692731</ele>
        <time>2022-12-29T11:40:53.907Z</time>
      </trkpt>
      <trkpt lat="44.21707" lon="0.44667">
        <ele>92.608451</ele>
        <time>2022-12-29T11:40:56.906Z</time>
      </trkpt>
      <trkpt lat="44.21707" lon="0.4468">
        <ele>92.527927</ele>
        <time>2022-12-29T11:40:59.918Z</time>
      </trkpt>
      <trkpt lat="44.21706" lon="0.44694">
        <ele>92.44649</ele>
        <time>2022-12-29T11:41:03.910Z</time>
      </trkpt>
      <trkpt lat="44.21704" lon="0.44709">
        <ele>92.349229</ele>
        <time>2022-12-29T11:41:18.914Z</time>
      </trkpt>
      <trkpt lat="44.21703" lon="0.44724">
        <ele>92.258602</ele>
        <time>2022-12-29T11:41:22.888Z</time>
      </trkpt>
      <trkpt lat="44.21702" lon="0.44739">
        <ele>92.162896</ele>
        <time>2022-12-29T11:41:25.900Z</time>
      </trkpt>
      <trkpt lat="44.21702" lon="0.44758">
        <ele>92.017386</ele>
        <time>2022-12-29T11:41:28.903Z</time>
      </trkpt>
      <trkpt lat="44.21702" lon="0.44774">
        <ele>91.707616</ele>
        <time>2022-12-29T11:41:30.909Z</time>
      </trkpt>
      <trkpt lat="44.21702" lon="0.44788">
        <ele>91.448445</ele>
        <time>2022-12-29T11:41:32.943Z</time>
      </trkpt>
      <trkpt lat="44.21701" lon="0.44801">
        <ele>91.196998</ele>
        <time>2022-12-29T11:41:34.914Z</time>
      </trkpt>
      <trkpt lat="44.21701" lon="0.44815">
        <ele>90.927358</ele>
        <time>2022-12-29T11:41:36.910Z</time>
      </trkpt>
      <trkpt lat="44.21701" lon="0.44828">
        <ele>90.687192</ele>
        <time>2022-12-29T11:41:38.959Z</time>
      </trkpt>
      <trkpt lat="44.21701" lon="0.44847">
        <ele>90.331927</ele>
        <time>2022-12-29T11:41:41.912Z</time>
      </trkpt>
      <trkpt lat="44.21699" lon="0.44861">
        <ele>90.055307</ele>
        <time>2022-12-29T11:41:44.963Z</time>
      </trkpt>
      <trkpt lat="44.217" lon="0.44877">
        <ele>89.755096</ele>
        <time>2022-12-29T11:41:47.897Z</time>
      </trkpt>
      <trkpt lat="44.21699" lon="0.44896">
        <ele>89.408073</ele>
        <time>2022-12-29T11:41:50.954Z</time>
      </trkpt>
      <trkpt lat="44.21699" lon="0.44915">
        <ele>89.053442</ele>
        <time>2022-12-29T11:41:53.913Z</time>
      </trkpt>
      <trkpt lat="44.21699" lon="0.44932">
        <ele>88.729125</ele>
        <time>2022-12-29T11:41:56.961Z</time>
      </trkpt>
      <trkpt lat="44.21699" lon="0.44949">
        <ele>88.397109</ele>
        <time>2022-12-29T11:41:59.910Z</time>
      </trkpt>
      <trkpt lat="44.21699" lon="0.44963">
        <ele>88.147874</ele>
        <time>2022-12-29T11:42:01.908Z</time>
      </trkpt>
      <trkpt lat="44.21699" lon="0.44976">
        <ele>87.894998</ele>
        <time>2022-12-29T11:42:03.910Z</time>
      </trkpt>
      <trkpt lat="44.217" lon="0.44991">
        <ele>87.6194</ele>
        <time>2022-12-29T11:42:05.907Z</time>
      </trkpt>
      <trkpt lat="44.217" lon="0.45004">
        <ele>87.3592</ele>
        <time>2022-12-29T11:42:07.932Z</time>
      </trkpt>
      <trkpt lat="44.217" lon="0.45018">
        <ele>87.439075</ele>
        <time>2022-12-29T11:42:09.890Z</time>
      </trkpt>
      <trkpt lat="44.217" lon="0.45032">
        <ele>87.557412</ele>
        <time>2022-12-29T11:42:11.897Z</time>
      </trkpt>
      <trkpt lat="44.21701" lon="0.4505">
        <ele>87.717366</ele>
        <time>2022-12-29T11:42:14.896Z</time>
      </trkpt>
      <trkpt lat="44.217" lon="0.45064">
        <ele>87.843698</ele>
        <time>2022-12-29T11:42:17.909Z</time>
      </trkpt>
      <trkpt lat="44.217" lon="0.45078">
        <ele>87.96772</ele>
        <time>2022-12-29T11:42:20.914Z</time>
      </trkpt>
      <trkpt lat="44.21698" lon="0.45091">
        <ele>88.084414</ele>
        <time>2022-12-29T11:42:23.913Z</time>
      </trkpt>
      <trkpt lat="44.21697" lon="0.45107">
        <ele>88.221428</ele>
        <time>2022-12-29T11:42:26.901Z</time>
      </trkpt>
      <trkpt lat="44.21698" lon="0.45124">
        <ele>88.37716</ele>
        <time>2022-12-29T11:42:29.892Z</time>
      </trkpt>
      <trkpt lat="44.21699" lon="0.45139">
        <ele>88.505919</ele>
        <time>2022-12-29T11:42:32.925Z</time>
      </trkpt>
      <trkpt lat="44.21699" lon="0.45153">
        <ele>88.631321</ele>
        <time>2022-12-29T11:42:35.900Z</time>
      </trkpt>
      <trkpt lat="44.217" lon="0.45169">
        <ele>88.768749</ele>
        <time>2022-12-29T11:42:38.909Z</time>
      </trkpt>
      <trkpt lat="44.217" lon="0.45181">
        <ele>88.882665</ele>
        <time>2022-12-29T11:42:40.908Z</time>
      </trkpt>
      <trkpt lat="44.217" lon="0.45194">
        <ele>88.994923</ele>
        <time>2022-12-29T11:42:42.914Z</time>
      </trkpt>
      <trkpt lat="44.21701" lon="0.4521">
        <ele>89.132732</ele>
        <time>2022-12-29T11:42:45.900Z</time>
      </trkpt>
      <trkpt lat="44.21702" lon="0.45224">
        <ele>89.255781</ele>
        <time>2022-12-29T11:42:48.896Z</time>
      </trkpt>
      <trkpt lat="44.21702" lon="0.45238">
        <ele>89.379631</ele>
        <time>2022-12-29T11:42:51.912Z</time>
      </trkpt>
      <trkpt lat="44.21703" lon="0.45253">
        <ele>89.51406</ele>
        <time>2022-12-29T11:42:56.895Z</time>
      </trkpt>
      <trkpt lat="44.21704" lon="0.45269">
        <ele>89.352267</ele>
        <time>2022-12-29T11:43:00.909Z</time>
      </trkpt>
      <trkpt lat="44.21705" lon="0.45284">
        <ele>89.126</ele>
        <time>2022-12-29T11:43:04.901Z</time>
      </trkpt>
      <trkpt lat="44.21704" lon="0.45297">
        <ele>88.933693</ele>
        <time>2022-12-29T11:43:08.910Z</time>
      </trkpt>
      <trkpt lat="44.21701" lon="0.45311">
        <ele>88.70799</ele>
        <time>2022-12-29T11:43:13.912Z</time>
      </trkpt>
      <trkpt lat="44.21692" lon="0.45314">
        <ele>88.504566</ele>
        <time>2022-12-29T11:43:16.913Z</time>
      </trkpt>
      <trkpt lat="44.2168" lon="0.45315">
        <ele>88.267345</ele>
        <time>2022-12-29T11:43:19.907Z</time>
      </trkpt>
      <trkpt lat="44.2167" lon="0.45315">
        <ele>88.043707</ele>
        <time>2022-12-29T11:43:22.910Z</time>
      </trkpt>
      <trkpt lat="44.21661" lon="0.45315">
        <ele>87.847515</ele>
        <time>2022-12-29T11:43:25.909Z</time>
      </trkpt>
      <trkpt lat="44.21651" lon="0.45315">
        <ele>87.636555</ele>
        <time>2022-12-29T11:43:29.891Z</time>
      </trkpt>
      <trkpt lat="44.2164" lon="0.45317">
        <ele>87.40534</ele>
        <time>2022-12-29T11:43:33.915Z</time>
      </trkpt>
      <trkpt lat="44.21629" lon="0.45314">
        <ele>87.185042</ele>
        <time>2022-12-29T11:43:37.912Z</time>
      </trkpt>
      <trkpt lat="44.2162" lon="0.45315">
        <ele>86.990483</ele>
        <time>2022-12-29T11:43:49.917Z</time>
      </trkpt>
      <trkpt lat="44.21606" lon="0.4531">
        <ele>86.678499</ele>
        <time>2022-12-29T11:44:49.890Z</time>
      </trkpt>
      <trkpt lat="44.21597" lon="0.45305">
        <ele>86.470213</ele>
        <time>2022-12-29T11:44:52.886Z</time>
      </trkpt>
      <trkpt lat="44.21586" lon="0.45299">
        <ele>86.237433</ele>
        <time>2022-12-29T11:44:55.892Z</time>
      </trkpt>
      <trkpt lat="44.21576" lon="0.45292">
        <ele>85.990033</ele>
        <time>2022-12-29T11:44:58.895Z</time>
      </trkpt>
      <trkpt lat="44.21564" lon="0.45284">
        <ele>85.750091</ele>
        <time>2022-12-29T11:45:01.888Z</time>
      </trkpt>
      <trkpt lat="44.21552" lon="0.45277">
        <ele>85.747293</ele>
        <time>2022-12-29T11:45:04.901Z</time>
      </trkpt>
      <trkpt lat="44.2154" lon="0.45273">
        <ele>85.744771</ele>
        <time>2022-12-29T11:45:07.892Z</time>
      </trkpt>
      <trkpt lat="44.2153" lon="0.4527">
        <ele>85.742444</ele>
        <time>2022-12-29T11:45:10.885Z</time>
      </trkpt>
      <trkpt lat="44.21518" lon="0.45268">
        <ele>85.739931</ele>
        <time>2022-12-29T11:45:13.887Z</time>
      </trkpt>
      <trkpt lat="44.21506" lon="0.45265">
        <ele>85.737276</ele>
        <time>2022-12-29T11:45:16.905Z</time>
      </trkpt>
      <trkpt lat="44.21494" lon="0.45262">
        <ele>85.734583</ele>
        <time>2022-12-29T11:45:19.882Z</time>
      </trkpt>
      <trkpt lat="44.21481" lon="0.45258">
        <ele>85.731905</ele>
        <time>2022-12-29T11:45:22.884Z</time>
      </trkpt>
      <trkpt lat="44.21469" lon="0.45254">
        <ele>85.729104</ele>
        <time>2022-12-29T11:45:25.885Z</time>
      </trkpt>
      <trkpt lat="44.21457" lon="0.45251">
        <ele>85.726558</ele>
        <time>2022-12-29T11:45:28.893Z</time>
      </trkpt>
      <trkpt lat="44.21446" lon="0.45247">
        <ele>85.724157</ele>
        <time>2022-12-29T11:45:31.893Z</time>
      </trkpt>
      <trkpt lat="44.21436" lon="0.45244">
        <ele>85.722012</ele>
        <time>2022-12-29T11:45:34.912Z</time>
      </trkpt>
      <trkpt lat="44.21426" lon="0.45241">
        <ele>85.7198</ele>
        <time>2022-12-29T11:45:37.884Z</time>
      </trkpt>
      <trkpt lat="44.21416" lon="0.45239">
        <ele>85.717501</ele>
        <time>2022-12-29T11:45:40.890Z</time>
      </trkpt>
      <trkpt lat="44.21404" lon="0.45237">
        <ele>85.715061</ele>
        <time>2022-12-29T11:45:43.885Z</time>
      </trkpt>
      <trkpt lat="44.21392" lon="0.45236">
        <ele>85.712479</ele>
        <time>2022-12-29T11:45:46.887Z</time>
      </trkpt>
      <trkpt lat="44.2138" lon="0.45235">
        <ele>85.754354</ele>
        <time>2022-12-29T11:45:49.888Z</time>
      </trkpt>
      <trkpt lat="44.21368" lon="0.45236">
        <ele>85.808132</ele>
        <time>2022-12-29T11:45:52.881Z</time>
      </trkpt>
      <trkpt lat="44.21358" lon="0.45236">
        <ele>85.848573</ele>
        <time>2022-12-29T11:45:54.882Z</time>
      </trkpt>
      <trkpt lat="44.21349" lon="0.45236">
        <ele>85.889014</ele>
        <time>2022-12-29T11:45:56.894Z</time>
      </trkpt>
      <trkpt lat="44.21339" lon="0.45235">
        <ele>85.93075</ele>
        <time>2022-12-29T11:45:58.903Z</time>
      </trkpt>
      <trkpt lat="44.21329" lon="0.45236">
        <ele>85.972053</ele>
        <time>2022-12-29T11:46:00.904Z</time>
      </trkpt>
      <trkpt lat="44.2132" lon="0.45235">
        <ele>86.012182</ele>
        <time>2022-12-29T11:46:02.887Z</time>
      </trkpt>
      <trkpt lat="44.21311" lon="0.45234">
        <ele>86.053094</ele>
        <time>2022-12-29T11:46:04.899Z</time>
      </trkpt>
      <trkpt lat="44.21301" lon="0.45234">
        <ele>86.095266</ele>
        <time>2022-12-29T11:46:06.891Z</time>
      </trkpt>
      <trkpt lat="44.21291" lon="0.45233">
        <ele>86.136577</ele>
        <time>2022-12-29T11:46:08.900Z</time>
      </trkpt>
      <trkpt lat="44.21282" lon="0.45233">
        <ele>86.175297</ele>
        <time>2022-12-29T11:46:10.919Z</time>
      </trkpt>
      <trkpt lat="44.2127" lon="0.45232">
        <ele>86.229273</ele>
        <time>2022-12-29T11:46:13.888Z</time>
      </trkpt>
      <trkpt lat="44.2126" lon="0.45235">
        <ele>86.273412</ele>
        <time>2022-12-29T11:46:16.894Z</time>
      </trkpt>
      <trkpt lat="44.21256" lon="0.45249">
        <ele>86.320592</ele>
        <time>2022-12-29T11:46:20.882Z</time>
      </trkpt>
      <trkpt lat="44.21261" lon="0.45262">
        <ele>86.363508</ele>
        <time>2022-12-29T11:46:23.907Z</time>
      </trkpt>
      <trkpt lat="44.21268" lon="0.45276">
        <ele>86.417902</ele>
        <time>2022-12-29T11:46:26.899Z</time>
      </trkpt>
      <trkpt lat="44.21273" lon="0.45287">
        <ele>86.457257</ele>
        <time>2022-12-29T11:46:28.890Z</time>
      </trkpt>
      <trkpt lat="44.21278" lon="0.45298">
        <ele>86.497782</ele>
        <time>2022-12-29T11:46:30.899Z</time>
      </trkpt>
      <trkpt lat="44.21283" lon="0.4531">
        <ele>86.539817</ele>
        <time>2022-12-29T11:46:32.887Z</time>
      </trkpt>
      <trkpt lat="44.21288" lon="0.45321">
        <ele>86.58021</ele>
        <time>2022-12-29T11:46:34.902Z</time>
      </trkpt>
      <trkpt lat="44.21294" lon="0.45333">
        <ele>86.622778</ele>
        <time>2022-12-29T11:46:36.904Z</time>
      </trkpt>
      <trkpt lat="44.21299" lon="0.45345">
        <ele>86.665318</ele>
        <time>2022-12-29T11:46:38.892Z</time>
      </trkpt>
      <trkpt lat="44.21305" lon="0.45356">
        <ele>86.706838</ele>
        <time>2022-12-29T11:46:40.900Z</time>
      </trkpt>
      <trkpt lat="44.2131" lon="0.45368">
        <ele>86.749312</ele>
        <time>2022-12-29T11:46:42.885Z</time>
      </trkpt>
      <trkpt lat="44.21315" lon="0.45379">
        <ele>86.789447</ele>
        <time>2022-12-29T11:46:44.904Z</time>
      </trkpt>
      <trkpt lat="44.2132" lon="0.45391">
        <ele>86.831534</ele>
        <time>2022-12-29T11:46:46.893Z</time>
      </trkpt>
      <trkpt lat="44.21325" lon="0.45402">
        <ele>86.871382</ele>
        <time>2022-12-29T11:46:48.904Z</time>
      </trkpt>
      <trkpt lat="44.21332" lon="0.45418">
        <ele>86.928223</ele>
        <time>2022-12-29T11:46:51.891Z</time>
      </trkpt>
      <trkpt lat="44.21337" lon="0.45429">
        <ele>86.967145</ele>
        <time>2022-12-29T11:46:53.904Z</time>
      </trkpt>
      <trkpt lat="44.21342" lon="0.4544">
        <ele>87.006738</ele>
        <time>2022-12-29T11:46:55.897Z</time>
      </trkpt>
      <trkpt lat="44.21347" lon="0.45451">
        <ele>87.045342</ele>
        <time>2022-12-29T11:46:57.901Z</time>
      </trkpt>
      <trkpt lat="44.21352" lon="0.45462">
        <ele>87.083571</ele>
        <time>2022-12-29T11:46:59.904Z</time>
      </trkpt>
      <trkpt lat="44.21357" lon="0.45473">
        <ele>87.123791</ele>
        <time>2022-12-29T11:47:01.901Z</time>
      </trkpt>
      <trkpt lat="44.21361" lon="0.45485">
        <ele>87.162888</ele>
        <time>2022-12-29T11:47:03.901Z</time>
      </trkpt>
      <trkpt lat="44.21364" lon="0.45498">
        <ele>87.203728</ele>
        <time>2022-12-29T11:47:05.903Z</time>
      </trkpt>
      <trkpt lat="44.21367" lon="0.4551">
        <ele>87.243308</ele>
        <time>2022-12-29T11:47:07.891Z</time>
      </trkpt>
      <trkpt lat="44.2137" lon="0.45526">
        <ele>87.319013</ele>
        <time>2022-12-29T11:47:10.897Z</time>
      </trkpt>
      <trkpt lat="44.21373" lon="0.45541">
        <ele>87.389277</ele>
        <time>2022-12-29T11:47:13.892Z</time>
      </trkpt>
      <trkpt lat="44.21375" lon="0.45557">
        <ele>87.461629</ele>
        <time>2022-12-29T11:47:16.900Z</time>
      </trkpt>
      <trkpt lat="44.21376" lon="0.45573">
        <ele>87.536674</ele>
        <time>2022-12-29T11:47:19.885Z</time>
      </trkpt>
      <trkpt lat="44.21378" lon="0.45591">
        <ele>87.620332</ele>
        <time>2022-12-29T11:47:22.885Z</time>
      </trkpt>
      <trkpt lat="44.2138" lon="0.45609">
        <ele>87.702088</ele>
        <time>2022-12-29T11:47:25.887Z</time>
      </trkpt>
      <trkpt lat="44.21382" lon="0.45625">
        <ele>87.775178</ele>
        <time>2022-12-29T11:47:28.888Z</time>
      </trkpt>
      <trkpt lat="44.21383" lon="0.45639">
        <ele>87.839625</ele>
        <time>2022-12-29T11:47:31.897Z</time>
      </trkpt>
      <trkpt lat="44.21388" lon="0.4565">
        <ele>87.900511</ele>
        <time>2022-12-29T11:47:34.888Z</time>
      </trkpt>
      <trkpt lat="44.21395" lon="0.4566">
        <ele>87.963843</ele>
        <time>2022-12-29T11:47:37.895Z</time>
      </trkpt>
      <trkpt lat="44.21404" lon="0.45671">
        <ele>88.03737</ele>
        <time>2022-12-29T11:47:40.883Z</time>
      </trkpt>
      <trkpt lat="44.21415" lon="0.45681">
        <ele>88.119722</ele>
        <time>2022-12-29T11:47:43.885Z</time>
      </trkpt>
      <trkpt lat="44.21426" lon="0.45689">
        <ele>88.202709</ele>
        <time>2022-12-29T11:47:46.878Z</time>
      </trkpt>
      <trkpt lat="44.21438" lon="0.45697">
        <ele>88.287568</ele>
        <time>2022-12-29T11:47:49.899Z</time>
      </trkpt>
      <trkpt lat="44.21447" lon="0.45702">
        <ele>88.346635</ele>
        <time>2022-12-29T11:47:51.900Z</time>
      </trkpt>
      <trkpt lat="44.21455" lon="0.45707">
        <ele>88.397321</ele>
        <time>2022-12-29T11:47:53.901Z</time>
      </trkpt>
      <trkpt lat="44.21463" lon="0.45713">
        <ele>88.423333</ele>
        <time>2022-12-29T11:47:55.900Z</time>
      </trkpt>
      <trkpt lat="44.21471" lon="0.45719">
        <ele>88.449361</ele>
        <time>2022-12-29T11:47:57.906Z</time>
      </trkpt>
      <trkpt lat="44.2148" lon="0.45724">
        <ele>88.476357</ele>
        <time>2022-12-29T11:47:59.903Z</time>
      </trkpt>
      <trkpt lat="44.21489" lon="0.45729">
        <ele>88.504048</ele>
        <time>2022-12-29T11:48:01.901Z</time>
      </trkpt>
      <trkpt lat="44.21497" lon="0.45734">
        <ele>88.530941</ele>
        <time>2022-12-29T11:48:03.893Z</time>
      </trkpt>
      <trkpt lat="44.21506" lon="0.45739">
        <ele>88.559167</ele>
        <time>2022-12-29T11:48:05.903Z</time>
      </trkpt>
      <trkpt lat="44.21515" lon="0.45745">
        <ele>88.587371</ele>
        <time>2022-12-29T11:48:07.899Z</time>
      </trkpt>
      <trkpt lat="44.21524" lon="0.4575">
        <ele>88.614715</ele>
        <time>2022-12-29T11:48:09.883Z</time>
      </trkpt>
      <trkpt lat="44.21533" lon="0.45755">
        <ele>88.644135</ele>
        <time>2022-12-29T11:48:11.904Z</time>
      </trkpt>
      <trkpt lat="44.21542" lon="0.4576">
        <ele>88.670589</ele>
        <time>2022-12-29T11:48:13.897Z</time>
      </trkpt>
      <trkpt lat="44.21554" lon="0.45768">
        <ele>88.708172</ele>
        <time>2022-12-29T11:48:16.912Z</time>
      </trkpt>
      <trkpt lat="44.21564" lon="0.45774">
        <ele>88.740247</ele>
        <time>2022-12-29T11:48:19.895Z</time>
      </trkpt>
      <trkpt lat="44.21574" lon="0.4578">
        <ele>88.77239</ele>
        <time>2022-12-29T11:48:22.885Z</time>
      </trkpt>
      <trkpt lat="44.21584" lon="0.45787">
        <ele>88.806109</ele>
        <time>2022-12-29T11:48:25.882Z</time>
      </trkpt>
      <trkpt lat="44.21596" lon="0.45794">
        <ele>88.843449</ele>
        <time>2022-12-29T11:48:28.888Z</time>
      </trkpt>
      <trkpt lat="44.21608" lon="0.45802">
        <ele>88.882426</ele>
        <time>2022-12-29T11:48:31.903Z</time>
      </trkpt>
      <trkpt lat="44.2162" lon="0.45811">
        <ele>88.933255</ele>
        <time>2022-12-29T11:48:34.904Z</time>
      </trkpt>
      <trkpt lat="44.21627" lon="0.4582">
        <ele>88.993897</ele>
        <time>2022-12-29T11:48:36.884Z</time>
      </trkpt>
      <trkpt lat="44.21636" lon="0.45834">
        <ele>89.084224</ele>
        <time>2022-12-29T11:48:39.884Z</time>
      </trkpt>
      <trkpt lat="44.2164" lon="0.45846">
        <ele>89.146209</ele>
        <time>2022-12-29T11:48:41.883Z</time>
      </trkpt>
      <trkpt lat="44.21644" lon="0.45858">
        <ele>89.208033</ele>
        <time>2022-12-29T11:48:43.885Z</time>
      </trkpt>
      <trkpt lat="44.21648" lon="0.45871">
        <ele>89.272164</ele>
        <time>2022-12-29T11:48:45.894Z</time>
      </trkpt>
      <trkpt lat="44.21653" lon="0.45888">
        <ele>89.358379</ele>
        <time>2022-12-29T11:48:48.887Z</time>
      </trkpt>
      <trkpt lat="44.21657" lon="0.45905">
        <ele>89.439755</ele>
        <time>2022-12-29T11:48:51.905Z</time>
      </trkpt>
      <trkpt lat="44.21661" lon="0.4592">
        <ele>89.514331</ele>
        <time>2022-12-29T11:48:54.890Z</time>
      </trkpt>
      <trkpt lat="44.21665" lon="0.45935">
        <ele>89.592019</ele>
        <time>2022-12-29T11:48:57.901Z</time>
      </trkpt>
      <trkpt lat="44.2167" lon="0.45952">
        <ele>89.674494</ele>
        <time>2022-12-29T11:49:00.893Z</time>
      </trkpt>
      <trkpt lat="44.21674" lon="0.45969">
        <ele>89.760475</ele>
        <time>2022-12-29T11:49:03.896Z</time>
      </trkpt>
      <trkpt lat="44.21678" lon="0.45981">
        <ele>89.820172</ele>
        <time>2022-12-29T11:49:05.885Z</time>
      </trkpt>
      <trkpt lat="44.21681" lon="0.45993">
        <ele>89.879182</ele>
        <time>2022-12-29T11:49:07.890Z</time>
      </trkpt>
      <trkpt lat="44.21686" lon="0.46003">
        <ele>89.937478</ele>
        <time>2022-12-29T11:49:09.900Z</time>
      </trkpt>
      <trkpt lat="44.21693" lon="0.46018">
        <ele>90.018911</ele>
        <time>2022-12-29T11:49:12.882Z</time>
      </trkpt>
      <trkpt lat="44.21701" lon="0.46025">
        <ele>90.079453</ele>
        <time>2022-12-29T11:49:15.892Z</time>
      </trkpt>
      <trkpt lat="44.21711" lon="0.4603">
        <ele>89.984941</ele>
        <time>2022-12-29T11:49:20.892Z</time>
      </trkpt>
      <trkpt lat="44.2172" lon="0.46032">
        <ele>89.909135</ele>
        <time>2022-12-29T11:49:24.907Z</time>
      </trkpt>
      <trkpt lat="44.2173" lon="0.46031">
        <ele>89.82646</ele>
        <time>2022-12-29T11:49:29.883Z</time>
      </trkpt>
      <trkpt lat="44.2174" lon="0.4603">
        <ele>89.740745</ele>
        <time>2022-12-29T11:49:34.890Z</time>
      </trkpt>
      <trkpt lat="44.21751" lon="0.46028">
        <ele>89.649912</ele>
        <time>2022-12-29T11:49:39.885Z</time>
      </trkpt>
      <trkpt lat="44.2176" lon="0.46029">
        <ele>89.574038</ele>
        <time>2022-12-29T11:49:44.890Z</time>
      </trkpt>
      <trkpt lat="44.21769" lon="0.46033">
        <ele>89.493143</ele>
        <time>2022-12-29T11:49:55.884Z</time>
      </trkpt>
      <trkpt lat="44.21768" lon="0.46045">
        <ele>89.415971</ele>
        <time>2022-12-29T11:49:59.886Z</time>
      </trkpt>
      <trkpt lat="44.21768" lon="0.46059">
        <ele>89.334697</ele>
        <time>2022-12-29T11:50:02.885Z</time>
      </trkpt>
      <trkpt lat="44.21768" lon="0.46075">
        <ele>89.236497</ele>
        <time>2022-12-29T11:50:05.888Z</time>
      </trkpt>
      <trkpt lat="44.21769" lon="0.46094">
        <ele>89.125962</ele>
        <time>2022-12-29T11:50:08.902Z</time>
      </trkpt>
      <trkpt lat="44.21772" lon="0.46108">
        <ele>89.033456</ele>
        <time>2022-12-29T11:50:10.886Z</time>
      </trkpt>
      <trkpt lat="44.21772" lon="0.46122">
        <ele>88.949792</ele>
        <time>2022-12-29T11:50:12.882Z</time>
      </trkpt>
      <trkpt lat="44.21773" lon="0.4614">
        <ele>88.844125</ele>
        <time>2022-12-29T11:50:15.892Z</time>
      </trkpt>
      <trkpt lat="44.21774" lon="0.46157">
        <ele>88.741985</ele>
        <time>2022-12-29T11:50:18.882Z</time>
      </trkpt>
      <trkpt lat="44.21773" lon="0.46173">
        <ele>88.644151</ele>
        <time>2022-12-29T11:50:21.887Z</time>
      </trkpt>
      <trkpt lat="44.21773" lon="0.46191">
        <ele>88.582438</ele>
        <time>2022-12-29T11:50:24.884Z</time>
      </trkpt>
      <trkpt lat="44.21774" lon="0.46209">
        <ele>88.62672</ele>
        <time>2022-12-29T11:50:27.885Z</time>
      </trkpt>
      <trkpt lat="44.21775" lon="0.46227">
        <ele>88.67284</ele>
        <time>2022-12-29T11:50:30.882Z</time>
      </trkpt>
      <trkpt lat="44.21779" lon="0.4624">
        <ele>88.706121</ele>
        <time>2022-12-29T11:50:32.882Z</time>
      </trkpt>
      <trkpt lat="44.2178" lon="0.46252">
        <ele>88.737531</ele>
        <time>2022-12-29T11:50:34.890Z</time>
      </trkpt>
      <trkpt lat="44.2178" lon="0.46265">
        <ele>88.768874</ele>
        <time>2022-12-29T11:50:36.890Z</time>
      </trkpt>
      <trkpt lat="44.21781" lon="0.46279">
        <ele>88.802825</ele>
        <time>2022-12-29T11:50:38.893Z</time>
      </trkpt>
      <trkpt lat="44.21782" lon="0.46292">
        <ele>88.837055</ele>
        <time>2022-12-29T11:50:40.891Z</time>
      </trkpt>
      <trkpt lat="44.21782" lon="0.46305">
        <ele>88.86869</ele>
        <time>2022-12-29T11:50:42.892Z</time>
      </trkpt>
      <trkpt lat="44.21783" lon="0.4632">
        <ele>88.905564</ele>
        <time>2022-12-29T11:50:44.887Z</time>
      </trkpt>
      <trkpt lat="44.21783" lon="0.46333">
        <ele>88.937921</ele>
        <time>2022-12-29T11:50:46.891Z</time>
      </trkpt>
      <trkpt lat="44.21783" lon="0.46346">
        <ele>88.969764</ele>
        <time>2022-12-29T11:50:48.882Z</time>
      </trkpt>
      <trkpt lat="44.21783" lon="0.46359">
        <ele>89.002092</ele>
        <time>2022-12-29T11:50:50.885Z</time>
      </trkpt>
      <trkpt lat="44.21784" lon="0.46373">
        <ele>89.035908</ele>
        <time>2022-12-29T11:50:52.893Z</time>
      </trkpt>
      <trkpt lat="44.21785" lon="0.46392">
        <ele>89.083169</ele>
        <time>2022-12-29T11:50:55.883Z</time>
      </trkpt>
      <trkpt lat="44.21787" lon="0.46405">
        <ele>89.117057</ele>
        <time>2022-12-29T11:50:57.883Z</time>
      </trkpt>
      <trkpt lat="44.21788" lon="0.46419">
        <ele>89.150401</ele>
        <time>2022-12-29T11:50:59.892Z</time>
      </trkpt>
      <trkpt lat="44.21789" lon="0.46433">
        <ele>89.184422</ele>
        <time>2022-12-29T11:51:01.880Z</time>
      </trkpt>
      <trkpt lat="44.2179" lon="0.46446">
        <ele>88.958076</ele>
        <time>2022-12-29T11:51:03.892Z</time>
      </trkpt>
      <trkpt lat="44.2179" lon="0.46459">
        <ele>88.720707</ele>
        <time>2022-12-29T11:51:05.881Z</time>
      </trkpt>
      <trkpt lat="44.2179" lon="0.46478">
        <ele>88.370304</ele>
        <time>2022-12-29T11:51:08.886Z</time>
      </trkpt>
      <trkpt lat="44.21791" lon="0.46494">
        <ele>88.070657</ele>
        <time>2022-12-29T11:51:11.886Z</time>
      </trkpt>
      <trkpt lat="44.21792" lon="0.46509">
        <ele>87.776079</ele>
        <time>2022-12-29T11:51:14.891Z</time>
      </trkpt>
      <trkpt lat="44.21792" lon="0.46523">
        <ele>87.514232</ele>
        <time>2022-12-29T11:51:17.894Z</time>
      </trkpt>
      <trkpt lat="44.21794" lon="0.46538">
        <ele>87.227468</ele>
        <time>2022-12-29T11:51:20.885Z</time>
      </trkpt>
      <trkpt lat="44.21794" lon="0.46555">
        <ele>86.905233</ele>
        <time>2022-12-29T11:51:24.887Z</time>
      </trkpt>
      <trkpt lat="44.21795" lon="0.46571">
        <ele>86.610248</ele>
        <time>2022-12-29T11:51:28.899Z</time>
      </trkpt>
      <trkpt lat="44.21794" lon="0.46578">
        <ele>86.463709</ele>
        <time>2022-12-29T11:51:51.483Z</time>
      </trkpt>
      <trkpt lat="44.21793" lon="0.4659">
        <ele>86.2386</ele>
        <time>2022-12-29T12:09:28.484Z</time>
      </trkpt>
      <trkpt lat="44.21795" lon="0.46603">
        <ele>85.997594</ele>
        <time>2022-12-29T12:09:41.891Z</time>
      </trkpt>
      <trkpt lat="44.21795" lon="0.46617">
        <ele>85.728151</ele>
        <time>2022-12-29T12:09:45.884Z</time>
      </trkpt>
      <trkpt lat="44.21797" lon="0.46633">
        <ele>85.428696</ele>
        <time>2022-12-29T12:09:49.884Z</time>
      </trkpt>
      <trkpt lat="44.21799" lon="0.46647">
        <ele>85.167265</ele>
        <time>2022-12-29T12:09:52.889Z</time>
      </trkpt>
      <trkpt lat="44.218" lon="0.46661">
        <ele>84.897973</ele>
        <time>2022-12-29T12:09:55.897Z</time>
      </trkpt>
      <trkpt lat="44.21802" lon="0.46675">
        <ele>84.617938</ele>
        <time>2022-12-29T12:09:58.896Z</time>
      </trkpt>
      <trkpt lat="44.21803" lon="0.46692">
        <ele>84.463263</ele>
        <time>2022-12-29T12:10:01.891Z</time>
      </trkpt>
      <trkpt lat="44.21804" lon="0.46711">
        <ele>84.466567</ele>
        <time>2022-12-29T12:10:04.890Z</time>
      </trkpt>
      <trkpt lat="44.21805" lon="0.46728">
        <ele>84.469626</ele>
        <time>2022-12-29T12:10:07.892Z</time>
      </trkpt>
      <trkpt lat="44.21808" lon="0.46741">
        <ele>84.47198</ele>
        <time>2022-12-29T12:10:09.892Z</time>
      </trkpt>
      <trkpt lat="44.21808" lon="0.46756">
        <ele>84.474603</ele>
        <time>2022-12-29T12:10:11.884Z</time>
      </trkpt>
      <trkpt lat="44.21809" lon="0.46769">
        <ele>84.476792</ele>
        <time>2022-12-29T12:10:13.888Z</time>
      </trkpt>
      <trkpt lat="44.21809" lon="0.46782">
        <ele>84.479089</ele>
        <time>2022-12-29T12:10:15.893Z</time>
      </trkpt>
      <trkpt lat="44.21809" lon="0.468">
        <ele>84.482162</ele>
        <time>2022-12-29T12:10:18.895Z</time>
      </trkpt>
      <trkpt lat="44.2181" lon="0.46818">
        <ele>84.485416</ele>
        <time>2022-12-29T12:10:21.888Z</time>
      </trkpt>
      <trkpt lat="44.21811" lon="0.46838">
        <ele>84.488734</ele>
        <time>2022-12-29T12:10:24.889Z</time>
      </trkpt>
      <trkpt lat="44.21812" lon="0.46855">
        <ele>84.491821</ele>
        <time>2022-12-29T12:10:27.884Z</time>
      </trkpt>
      <trkpt lat="44.21814" lon="0.46871">
        <ele>84.494667</ele>
        <time>2022-12-29T12:10:30.892Z</time>
      </trkpt>
      <trkpt lat="44.21816" lon="0.46886">
        <ele>84.497313</ele>
        <time>2022-12-29T12:10:33.884Z</time>
      </trkpt>
      <trkpt lat="44.21819" lon="0.469">
        <ele>84.499814</ele>
        <time>2022-12-29T12:10:36.890Z</time>
      </trkpt>
      <trkpt lat="44.2182" lon="0.46917">
        <ele>84.502722</ele>
        <time>2022-12-29T12:10:39.890Z</time>
      </trkpt>
      <trkpt lat="44.21822" lon="0.46935">
        <ele>84.545083</ele>
        <time>2022-12-29T12:10:42.886Z</time>
      </trkpt>
      <trkpt lat="44.21823" lon="0.46952">
        <ele>84.775839</ele>
        <time>2022-12-29T12:10:45.889Z</time>
      </trkpt>
      <trkpt lat="44.21825" lon="0.46969">
        <ele>85.012003</ele>
        <time>2022-12-29T12:10:48.887Z</time>
      </trkpt>
      <trkpt lat="44.21825" lon="0.46987">
        <ele>85.258202</ele>
        <time>2022-12-29T12:10:51.887Z</time>
      </trkpt>
      <trkpt lat="44.21826" lon="0.47003">
        <ele>85.467589</ele>
        <time>2022-12-29T12:10:54.890Z</time>
      </trkpt>
      <trkpt lat="44.21825" lon="0.4702">
        <ele>85.704044</ele>
        <time>2022-12-29T12:10:57.889Z</time>
      </trkpt>
      <trkpt lat="44.21826" lon="0.47039">
        <ele>85.955479</ele>
        <time>2022-12-29T12:11:00.896Z</time>
      </trkpt>
      <trkpt lat="44.21826" lon="0.47056">
        <ele>86.190553</ele>
        <time>2022-12-29T12:11:03.915Z</time>
      </trkpt>
      <trkpt lat="44.21828" lon="0.47072">
        <ele>86.417616</ele>
        <time>2022-12-29T12:11:06.896Z</time>
      </trkpt>
      <trkpt lat="44.2183" lon="0.47088">
        <ele>86.634022</ele>
        <time>2022-12-29T12:11:09.886Z</time>
      </trkpt>
      <trkpt lat="44.21832" lon="0.47103">
        <ele>86.844114</ele>
        <time>2022-12-29T12:11:12.892Z</time>
      </trkpt>
      <trkpt lat="44.21833" lon="0.4712">
        <ele>87.069875</ele>
        <time>2022-12-29T12:11:15.887Z</time>
      </trkpt>
      <trkpt lat="44.21834" lon="0.47137">
        <ele>87.308413</ele>
        <time>2022-12-29T12:11:18.891Z</time>
      </trkpt>
      <trkpt lat="44.21835" lon="0.47154">
        <ele>87.535357</ele>
        <time>2022-12-29T12:11:21.888Z</time>
      </trkpt>
      <trkpt lat="44.21836" lon="0.47168">
        <ele>87.726723</ele>
        <time>2022-12-29T12:11:24.889Z</time>
      </trkpt>
      <trkpt lat="44.21839" lon="0.47182">
        <ele>87.91975</ele>
        <time>2022-12-29T12:11:27.889Z</time>
      </trkpt>
      <trkpt lat="44.2184" lon="0.47197">
        <ele>88.058991</ele>
        <time>2022-12-29T12:11:30.904Z</time>
      </trkpt>
      <trkpt lat="44.21841" lon="0.47215">
        <ele>88.209241</ele>
        <time>2022-12-29T12:11:33.895Z</time>
      </trkpt>
      <trkpt lat="44.21841" lon="0.47233">
        <ele>88.366881</ele>
        <time>2022-12-29T12:11:36.883Z</time>
      </trkpt>
      <trkpt lat="44.21841" lon="0.47251">
        <ele>88.524747</ele>
        <time>2022-12-29T12:11:39.901Z</time>
      </trkpt>
      <trkpt lat="44.21841" lon="0.47268">
        <ele>88.673644</ele>
        <time>2022-12-29T12:11:42.891Z</time>
      </trkpt>
      <trkpt lat="44.21843" lon="0.47285">
        <ele>88.826481</ele>
        <time>2022-12-29T12:11:45.888Z</time>
      </trkpt>
      <trkpt lat="44.21845" lon="0.47301">
        <ele>88.971428</ele>
        <time>2022-12-29T12:11:48.890Z</time>
      </trkpt>
      <trkpt lat="44.21847" lon="0.47318">
        <ele>89.121638</ele>
        <time>2022-12-29T12:11:51.890Z</time>
      </trkpt>
      <trkpt lat="44.21847" lon="0.47334">
        <ele>89.260887</ele>
        <time>2022-12-29T12:11:54.894Z</time>
      </trkpt>
      <trkpt lat="44.21847" lon="0.4735">
        <ele>89.406266</ele>
        <time>2022-12-29T12:11:57.892Z</time>
      </trkpt>
      <trkpt lat="44.21847" lon="0.47365">
        <ele>89.530772</ele>
        <time>2022-12-29T12:12:00.890Z</time>
      </trkpt>
      <trkpt lat="44.21846" lon="0.47379">
        <ele>89.658131</ele>
        <time>2022-12-29T12:12:03.891Z</time>
      </trkpt>
      <trkpt lat="44.21848" lon="0.47395">
        <ele>89.795104</ele>
        <time>2022-12-29T12:12:06.891Z</time>
      </trkpt>
      <trkpt lat="44.21849" lon="0.47411">
        <ele>89.942842</ele>
        <time>2022-12-29T12:12:09.892Z</time>
      </trkpt>
      <trkpt lat="44.21849" lon="0.47429">
        <ele>90.096219</ele>
        <time>2022-12-29T12:12:12.885Z</time>
      </trkpt>
      <trkpt lat="44.21848" lon="0.47447">
        <ele>90.02576</ele>
        <time>2022-12-29T12:12:15.891Z</time>
      </trkpt>
      <trkpt lat="44.21847" lon="0.4746">
        <ele>89.956539</ele>
        <time>2022-12-29T12:12:17.891Z</time>
      </trkpt>
      <trkpt lat="44.21847" lon="0.47474">
        <ele>89.886162</ele>
        <time>2022-12-29T12:12:19.886Z</time>
      </trkpt>
      <trkpt lat="44.21848" lon="0.47492">
        <ele>89.790232</ele>
        <time>2022-12-29T12:12:22.887Z</time>
      </trkpt>
      <trkpt lat="44.21849" lon="0.47508">
        <ele>89.703619</ele>
        <time>2022-12-29T12:12:25.906Z</time>
      </trkpt>
      <trkpt lat="44.21848" lon="0.47523">
        <ele>89.626817</ele>
        <time>2022-12-29T12:12:28.891Z</time>
      </trkpt>
      <trkpt lat="44.21849" lon="0.4754">
        <ele>89.533976</ele>
        <time>2022-12-29T12:12:31.896Z</time>
      </trkpt>
      <trkpt lat="44.21849" lon="0.47557">
        <ele>89.445733</ele>
        <time>2022-12-29T12:12:34.898Z</time>
      </trkpt>
      <trkpt lat="44.2185" lon="0.47575">
        <ele>89.348751</ele>
        <time>2022-12-29T12:12:37.887Z</time>
      </trkpt>
      <trkpt lat="44.21852" lon="0.47594">
        <ele>89.250126</ele>
        <time>2022-12-29T12:12:40.888Z</time>
      </trkpt>
      <trkpt lat="44.21852" lon="0.47612">
        <ele>89.15612</ele>
        <time>2022-12-29T12:12:43.906Z</time>
      </trkpt>
      <trkpt lat="44.21852" lon="0.4763">
        <ele>89.060002</ele>
        <time>2022-12-29T12:12:46.905Z</time>
      </trkpt>
      <trkpt lat="44.21852" lon="0.47647">
        <ele>88.967536</ele>
        <time>2022-12-29T12:12:49.888Z</time>
      </trkpt>
      <trkpt lat="44.21852" lon="0.47662">
        <ele>88.891432</ele>
        <time>2022-12-29T12:12:52.904Z</time>
      </trkpt>
      <trkpt lat="44.21853" lon="0.47677">
        <ele>88.809546</ele>
        <time>2022-12-29T12:12:56.899Z</time>
      </trkpt>
      <trkpt lat="44.21853" lon="0.47694">
        <ele>88.666901</ele>
        <time>2022-12-29T12:13:00.893Z</time>
      </trkpt>
      <trkpt lat="44.21853" lon="0.4771">
        <ele>88.515835</ele>
        <time>2022-12-29T12:13:04.902Z</time>
      </trkpt>
      <trkpt lat="44.21852" lon="0.47724">
        <ele>88.383942</ele>
        <time>2022-12-29T12:13:08.908Z</time>
      </trkpt>
      <trkpt lat="44.2185" lon="0.47739">
        <ele>88.242161</ele>
        <time>2022-12-29T12:13:13.890Z</time>
      </trkpt>
      <trkpt lat="44.21847" lon="0.47752">
        <ele>88.114517</ele>
        <time>2022-12-29T12:13:17.894Z</time>
      </trkpt>
      <trkpt lat="44.21846" lon="0.47766">
        <ele>87.974284</ele>
        <time>2022-12-29T12:13:22.909Z</time>
      </trkpt>
      <trkpt lat="44.21846" lon="0.47782">
        <ele>87.826993</ele>
        <time>2022-12-29T12:13:27.910Z</time>
      </trkpt>
      <trkpt lat="44.21848" lon="0.47795">
        <ele>87.701177</ele>
        <time>2022-12-29T12:13:30.901Z</time>
      </trkpt>
      <trkpt lat="44.21849" lon="0.47813">
        <ele>87.530617</ele>
        <time>2022-12-29T12:13:33.889Z</time>
      </trkpt>
      <trkpt lat="44.2185" lon="0.47829">
        <ele>87.383798</ele>
        <time>2022-12-29T12:13:35.889Z</time>
      </trkpt>
      <trkpt lat="44.2185" lon="0.47844">
        <ele>87.241179</ele>
        <time>2022-12-29T12:13:37.891Z</time>
      </trkpt>
      <trkpt lat="44.21851" lon="0.47858">
        <ele>87.10978</ele>
        <time>2022-12-29T12:13:39.890Z</time>
      </trkpt>
      <trkpt lat="44.21851" lon="0.47872">
        <ele>86.9738</ele>
        <time>2022-12-29T12:13:41.892Z</time>
      </trkpt>
      <trkpt lat="44.21852" lon="0.4789">
        <ele>86.80523</ele>
        <time>2022-12-29T12:13:44.908Z</time>
      </trkpt>
      <trkpt lat="44.21853" lon="0.47905">
        <ele>86.658829</ele>
        <time>2022-12-29T12:13:47.905Z</time>
      </trkpt>
      <trkpt lat="44.21854" lon="0.4792">
        <ele>86.520759</ele>
        <time>2022-12-29T12:13:50.896Z</time>
      </trkpt>
      <trkpt lat="44.21855" lon="0.47935">
        <ele>86.463</ele>
        <time>2022-12-29T12:13:53.890Z</time>
      </trkpt>
      <trkpt lat="44.21854" lon="0.47952">
        <ele>86.631579</ele>
        <time>2022-12-29T12:13:56.897Z</time>
      </trkpt>
      <trkpt lat="44.21853" lon="0.47968">
        <ele>86.79372</ele>
        <time>2022-12-29T12:13:59.905Z</time>
      </trkpt>
      <trkpt lat="44.21853" lon="0.47985">
        <ele>86.956638</ele>
        <time>2022-12-29T12:14:02.905Z</time>
      </trkpt>
      <trkpt lat="44.21852" lon="0.48001">
        <ele>87.116231</ele>
        <time>2022-12-29T12:14:05.893Z</time>
      </trkpt>
      <trkpt lat="44.21852" lon="0.48018">
        <ele>87.28382</ele>
        <time>2022-12-29T12:14:08.890Z</time>
      </trkpt>
      <trkpt lat="44.21851" lon="0.48033">
        <ele>87.438587</ele>
        <time>2022-12-29T12:14:11.893Z</time>
      </trkpt>
      <trkpt lat="44.2185" lon="0.48048">
        <ele>87.586909</ele>
        <time>2022-12-29T12:14:14.905Z</time>
      </trkpt>
      <trkpt lat="44.2185" lon="0.48064">
        <ele>87.747849</ele>
        <time>2022-12-29T12:14:17.885Z</time>
      </trkpt>
      <trkpt lat="44.21849" lon="0.48081">
        <ele>87.91648</ele>
        <time>2022-12-29T12:14:20.891Z</time>
      </trkpt>
      <trkpt lat="44.2185" lon="0.48099">
        <ele>88.090122</ele>
        <time>2022-12-29T12:14:23.905Z</time>
      </trkpt>
      <trkpt lat="44.2185" lon="0.48116">
        <ele>88.262581</ele>
        <time>2022-12-29T12:14:26.903Z</time>
      </trkpt>
      <trkpt lat="44.2185" lon="0.48132">
        <ele>88.416259</ele>
        <time>2022-12-29T12:14:29.905Z</time>
      </trkpt>
      <trkpt lat="44.21848" lon="0.48146">
        <ele>88.55814</ele>
        <time>2022-12-29T12:14:32.904Z</time>
      </trkpt>
      <trkpt lat="44.21847" lon="0.48162">
        <ele>88.719863</ele>
        <time>2022-12-29T12:14:35.888Z</time>
      </trkpt>
      <trkpt lat="44.21846" lon="0.48179">
        <ele>88.88764</ele>
        <time>2022-12-29T12:14:38.897Z</time>
      </trkpt>
      <trkpt lat="44.21846" lon="0.48196">
        <ele>88.787864</ele>
        <time>2022-12-29T12:14:41.904Z</time>
      </trkpt>
      <trkpt lat="44.21845" lon="0.48212">
        <ele>88.659273</ele>
        <time>2022-12-29T12:14:44.905Z</time>
      </trkpt>
      <trkpt lat="44.21845" lon="0.48228">
        <ele>88.525911</ele>
        <time>2022-12-29T12:14:47.896Z</time>
      </trkpt>
      <trkpt lat="44.21847" lon="0.48245">
        <ele>88.389301</ele>
        <time>2022-12-29T12:14:50.904Z</time>
      </trkpt>
      <trkpt lat="44.21852" lon="0.48259">
        <ele>88.266378</ele>
        <time>2022-12-29T12:14:53.908Z</time>
      </trkpt>
      <trkpt lat="44.21858" lon="0.4827">
        <ele>88.156658</ele>
        <time>2022-12-29T12:14:56.896Z</time>
      </trkpt>
      <trkpt lat="44.21866" lon="0.48281">
        <ele>88.029815</ele>
        <time>2022-12-29T12:14:59.904Z</time>
      </trkpt>
      <trkpt lat="44.21871" lon="0.48295">
        <ele>87.90178</ele>
        <time>2022-12-29T12:15:02.908Z</time>
      </trkpt>
      <trkpt lat="44.21873" lon="0.4831">
        <ele>87.778946</ele>
        <time>2022-12-29T12:15:05.889Z</time>
      </trkpt>
      <trkpt lat="44.21873" lon="0.48326">
        <ele>87.656582</ele>
        <time>2022-12-29T12:15:08.907Z</time>
      </trkpt>
      <trkpt lat="44.2187" lon="0.48342">
        <ele>87.521426</ele>
        <time>2022-12-29T12:15:11.906Z</time>
      </trkpt>
      <trkpt lat="44.21868" lon="0.4836">
        <ele>87.37736</ele>
        <time>2022-12-29T12:15:14.908Z</time>
      </trkpt>
      <trkpt lat="44.21866" lon="0.48377">
        <ele>87.235387</ele>
        <time>2022-12-29T12:15:17.907Z</time>
      </trkpt>
      <trkpt lat="44.21865" lon="0.48395">
        <ele>87.094305</ele>
        <time>2022-12-29T12:15:20.907Z</time>
      </trkpt>
      <trkpt lat="44.21863" lon="0.48412">
        <ele>86.953687</ele>
        <time>2022-12-29T12:15:23.906Z</time>
      </trkpt>
      <trkpt lat="44.21862" lon="0.48429">
        <ele>86.933607</ele>
        <time>2022-12-29T12:15:26.908Z</time>
      </trkpt>
      <trkpt lat="44.2186" lon="0.48445">
        <ele>86.981679</ele>
        <time>2022-12-29T12:15:29.913Z</time>
      </trkpt>
      <trkpt lat="44.21858" lon="0.48459">
        <ele>87.02468</ele>
        <time>2022-12-29T12:15:32.888Z</time>
      </trkpt>
      <trkpt lat="44.21853" lon="0.48474">
        <ele>87.074434</ele>
        <time>2022-12-29T12:15:36.905Z</time>
      </trkpt>
      <trkpt lat="44.21846" lon="0.48484">
        <ele>87.116565</ele>
        <time>2022-12-29T12:15:39.889Z</time>
      </trkpt>
      <trkpt lat="44.21839" lon="0.48493">
        <ele>87.157909</ele>
        <time>2022-12-29T12:15:42.910Z</time>
      </trkpt>
      <trkpt lat="44.21831" lon="0.485">
        <ele>87.196326</ele>
        <time>2022-12-29T12:15:45.906Z</time>
      </trkpt>
      <trkpt lat="44.21822" lon="0.48511">
        <ele>87.246609</ele>
        <time>2022-12-29T12:15:49.903Z</time>
      </trkpt>
      <trkpt lat="44.21817" lon="0.48523">
        <ele>87.287582</ele>
        <time>2022-12-29T12:15:53.906Z</time>
      </trkpt>
      <trkpt lat="44.21813" lon="0.48537">
        <ele>87.335987</ele>
        <time>2022-12-29T12:15:57.890Z</time>
      </trkpt>
      <trkpt lat="44.2181" lon="0.48551">
        <ele>87.378724</ele>
        <time>2022-12-29T12:16:00.907Z</time>
      </trkpt>
      <trkpt lat="44.21807" lon="0.48564">
        <ele>87.421134</ele>
        <time>2022-12-29T12:16:03.896Z</time>
      </trkpt>
      <trkpt lat="44.21806" lon="0.48577">
        <ele>87.45975</ele>
        <time>2022-12-29T12:16:06.906Z</time>
      </trkpt>
      <trkpt lat="44.21805" lon="0.48591">
        <ele>87.504226</ele>
        <time>2022-12-29T12:16:10.915Z</time>
      </trkpt>
      <trkpt lat="44.21803" lon="0.48606">
        <ele>87.549592</ele>
        <time>2022-12-29T12:16:14.903Z</time>
      </trkpt>
      <trkpt lat="44.21802" lon="0.48619">
        <ele>87.590596</ele>
        <time>2022-12-29T12:16:18.904Z</time>
      </trkpt>
      <trkpt lat="44.21799" lon="0.48635">
        <ele>87.638043</ele>
        <time>2022-12-29T12:16:22.890Z</time>
      </trkpt>
      <trkpt lat="44.21798" lon="0.48648">
        <ele>87.669021</ele>
        <time>2022-12-29T12:16:25.887Z</time>
      </trkpt>
      <trkpt lat="44.21797" lon="0.48662">
        <ele>87.685161</ele>
        <time>2022-12-29T12:16:28.905Z</time>
      </trkpt>
      <trkpt lat="44.21796" lon="0.48678">
        <ele>87.702619</ele>
        <time>2022-12-29T12:16:31.909Z</time>
      </trkpt>
      <trkpt lat="44.21794" lon="0.48694">
        <ele>87.721334</ele>
        <time>2022-12-29T12:16:34.895Z</time>
      </trkpt>
      <trkpt lat="44.21791" lon="0.48711">
        <ele>87.740577</ele>
        <time>2022-12-29T12:16:37.892Z</time>
      </trkpt>
      <trkpt lat="44.21789" lon="0.48728">
        <ele>87.760453</ele>
        <time>2022-12-29T12:16:40.910Z</time>
      </trkpt>
      <trkpt lat="44.21786" lon="0.48745">
        <ele>87.779838</ele>
        <time>2022-12-29T12:16:43.887Z</time>
      </trkpt>
      <trkpt lat="44.21785" lon="0.48763">
        <ele>87.799832</ele>
        <time>2022-12-29T12:16:46.905Z</time>
      </trkpt>
      <trkpt lat="44.21783" lon="0.4878">
        <ele>87.819184</ele>
        <time>2022-12-29T12:16:49.891Z</time>
      </trkpt>
      <trkpt lat="44.2178" lon="0.48797">
        <ele>87.838711</ele>
        <time>2022-12-29T12:16:52.892Z</time>
      </trkpt>
      <trkpt lat="44.21778" lon="0.48812">
        <ele>87.856745</ele>
        <time>2022-12-29T12:16:55.906Z</time>
      </trkpt>
      <trkpt lat="44.21775" lon="0.48827">
        <ele>87.873757</ele>
        <time>2022-12-29T12:16:58.907Z</time>
      </trkpt>
      <trkpt lat="44.21773" lon="0.48843">
        <ele>87.891385</ele>
        <time>2022-12-29T12:17:01.906Z</time>
      </trkpt>
      <trkpt lat="44.2177" lon="0.48858">
        <ele>87.909451</ele>
        <time>2022-12-29T12:17:04.906Z</time>
      </trkpt>
      <trkpt lat="44.21768" lon="0.48875">
        <ele>87.928886</ele>
        <time>2022-12-29T12:17:07.901Z</time>
      </trkpt>
      <trkpt lat="44.21766" lon="0.48892">
        <ele>87.937575</ele>
        <time>2022-12-29T12:17:10.907Z</time>
      </trkpt>
      <trkpt lat="44.21763" lon="0.48908">
        <ele>87.892823</ele>
        <time>2022-12-29T12:17:13.901Z</time>
      </trkpt>
      <trkpt lat="44.21761" lon="0.48925">
        <ele>87.847922</ele>
        <time>2022-12-29T12:17:16.895Z</time>
      </trkpt>
      <trkpt lat="44.21758" lon="0.4894">
        <ele>87.803658</ele>
        <time>2022-12-29T12:17:19.884Z</time>
      </trkpt>
      <trkpt lat="44.21756" lon="0.48955">
        <ele>87.761927</ele>
        <time>2022-12-29T12:17:22.903Z</time>
      </trkpt>
      <trkpt lat="44.21754" lon="0.48972">
        <ele>87.715611</ele>
        <time>2022-12-29T12:17:25.908Z</time>
      </trkpt>
      <trkpt lat="44.21751" lon="0.48987">
        <ele>87.672037</ele>
        <time>2022-12-29T12:17:28.913Z</time>
      </trkpt>
      <trkpt lat="44.21748" lon="0.49004">
        <ele>87.625207</ele>
        <time>2022-12-29T12:17:31.905Z</time>
      </trkpt>
      <trkpt lat="44.21745" lon="0.49021">
        <ele>87.577744</ele>
        <time>2022-12-29T12:17:34.905Z</time>
      </trkpt>
      <trkpt lat="44.21743" lon="0.49039">
        <ele>87.528895</ele>
        <time>2022-12-29T12:17:37.908Z</time>
      </trkpt>
      <trkpt lat="44.2174" lon="0.49057">
        <ele>87.478335</ele>
        <time>2022-12-29T12:17:40.905Z</time>
      </trkpt>
      <trkpt lat="44.21737" lon="0.49075">
        <ele>87.427694</ele>
        <time>2022-12-29T12:17:43.903Z</time>
      </trkpt>
      <trkpt lat="44.21734" lon="0.49092">
        <ele>87.379554</ele>
        <time>2022-12-29T12:17:46.907Z</time>
      </trkpt>
      <trkpt lat="44.21731" lon="0.49108">
        <ele>87.332724</ele>
        <time>2022-12-29T12:17:49.890Z</time>
      </trkpt>
      <trkpt lat="44.21729" lon="0.49121">
        <ele>87.297314</ele>
        <time>2022-12-29T12:17:51.909Z</time>
      </trkpt>
      <trkpt lat="44.21726" lon="0.49139">
        <ele>87.235545</ele>
        <time>2022-12-29T12:17:54.906Z</time>
      </trkpt>
      <trkpt lat="44.21722" lon="0.49156">
        <ele>87.134214</ele>
        <time>2022-12-29T12:17:57.910Z</time>
      </trkpt>
      <trkpt lat="44.21718" lon="0.49173">
        <ele>87.032414</ele>
        <time>2022-12-29T12:18:00.909Z</time>
      </trkpt>
      <trkpt lat="44.21715" lon="0.4919">
        <ele>86.935095</ele>
        <time>2022-12-29T12:18:03.911Z</time>
      </trkpt>
      <trkpt lat="44.21712" lon="0.49208">
        <ele>86.833415</ele>
        <time>2022-12-29T12:18:06.908Z</time>
      </trkpt>
      <trkpt lat="44.2171" lon="0.49226">
        <ele>86.731432</ele>
        <time>2022-12-29T12:18:09.894Z</time>
      </trkpt>
      <trkpt lat="44.21707" lon="0.49243">
        <ele>86.631566</ele>
        <time>2022-12-29T12:18:12.896Z</time>
      </trkpt>
      <trkpt lat="44.21704" lon="0.49259">
        <ele>86.542236</ele>
        <time>2022-12-29T12:18:15.903Z</time>
      </trkpt>
      <trkpt lat="44.21703" lon="0.49274">
        <ele>86.457794</ele>
        <time>2022-12-29T12:18:18.904Z</time>
      </trkpt>
      <trkpt lat="44.21701" lon="0.49291">
        <ele>86.357191</ele>
        <time>2022-12-29T12:18:21.891Z</time>
      </trkpt>
      <trkpt lat="44.21699" lon="0.49304">
        <ele>86.286381</ele>
        <time>2022-12-29T12:18:23.893Z</time>
      </trkpt>
      <trkpt lat="44.21695" lon="0.49321">
        <ele>86.183014</ele>
        <time>2022-12-29T12:18:26.905Z</time>
      </trkpt>
      <trkpt lat="44.21693" lon="0.49339">
        <ele>86.081031</ele>
        <time>2022-12-29T12:18:29.890Z</time>
      </trkpt>
      <trkpt lat="44.21689" lon="0.49354">
        <ele>85.991622</ele>
        <time>2022-12-29T12:18:32.897Z</time>
      </trkpt>
      <trkpt lat="44.21686" lon="0.4937">
        <ele>85.900533</ele>
        <time>2022-12-29T12:18:35.902Z</time>
      </trkpt>
      <trkpt lat="44.21683" lon="0.49383">
        <ele>85.897667</ele>
        <time>2022-12-29T12:18:38.891Z</time>
      </trkpt>
      <trkpt lat="44.2168" lon="0.49397">
        <ele>85.998524</ele>
        <time>2022-12-29T12:18:41.889Z</time>
      </trkpt>
      <trkpt lat="44.21679" lon="0.49414">
        <ele>86.113749</ele>
        <time>2022-12-29T12:18:44.888Z</time>
      </trkpt>
      <trkpt lat="44.21676" lon="0.49428">
        <ele>86.222245</ele>
        <time>2022-12-29T12:18:47.905Z</time>
      </trkpt>
      <trkpt lat="44.21673" lon="0.49444">
        <ele>86.335451</ele>
        <time>2022-12-29T12:18:50.890Z</time>
      </trkpt>
      <trkpt lat="44.2167" lon="0.49459">
        <ele>86.448557</ele>
        <time>2022-12-29T12:18:53.911Z</time>
      </trkpt>
      <trkpt lat="44.21667" lon="0.49477">
        <ele>86.57526</ele>
        <time>2022-12-29T12:18:56.907Z</time>
      </trkpt>
      <trkpt lat="44.21664" lon="0.49495">
        <ele>86.707006</ele>
        <time>2022-12-29T12:18:59.906Z</time>
      </trkpt>
      <trkpt lat="44.21662" lon="0.49513">
        <ele>86.835349</ele>
        <time>2022-12-29T12:19:02.890Z</time>
      </trkpt>
      <trkpt lat="44.2166" lon="0.4953">
        <ele>86.958265</ele>
        <time>2022-12-29T12:19:05.910Z</time>
      </trkpt>
      <trkpt lat="44.21657" lon="0.49547">
        <ele>87.081998</ele>
        <time>2022-12-29T12:19:08.910Z</time>
      </trkpt>
      <trkpt lat="44.21654" lon="0.49564">
        <ele>87.20413</ele>
        <time>2022-12-29T12:19:11.906Z</time>
      </trkpt>
      <trkpt lat="44.21651" lon="0.4958">
        <ele>87.316203</ele>
        <time>2022-12-29T12:19:14.896Z</time>
      </trkpt>
      <trkpt lat="44.21648" lon="0.49594">
        <ele>87.420475</ele>
        <time>2022-12-29T12:19:17.903Z</time>
      </trkpt>
      <trkpt lat="44.21645" lon="0.49606">
        <ele>87.515448</ele>
        <time>2022-12-29T12:19:21.910Z</time>
      </trkpt>
      <trkpt lat="44.21642" lon="0.49622">
        <ele>87.619187</ele>
        <time>2022-12-29T12:19:27.905Z</time>
      </trkpt>
      <trkpt lat="44.21639" lon="0.49638">
        <ele>87.533393</ele>
        <time>2022-12-29T12:19:30.892Z</time>
      </trkpt>
      <trkpt lat="44.21636" lon="0.49652">
        <ele>87.451413</ele>
        <time>2022-12-29T12:19:33.911Z</time>
      </trkpt>
      <trkpt lat="44.21633" lon="0.49668">
        <ele>87.362105</ele>
        <time>2022-12-29T12:19:36.908Z</time>
      </trkpt>
      <trkpt lat="44.2163" lon="0.49683">
        <ele>87.282823</ele>
        <time>2022-12-29T12:19:39.888Z</time>
      </trkpt>
      <trkpt lat="44.21628" lon="0.49704">
        <ele>87.165246</ele>
        <time>2022-12-29T12:20:43.901Z</time>
      </trkpt>
      <trkpt lat="44.21625" lon="0.49719">
        <ele>87.083692</ele>
        <time>2022-12-29T12:20:47.901Z</time>
      </trkpt>
      <trkpt lat="44.21622" lon="0.49731">
        <ele>87.016208</ele>
        <time>2022-12-29T12:20:50.897Z</time>
      </trkpt>
      <trkpt lat="44.21619" lon="0.49746">
        <ele>86.934038</ele>
        <time>2022-12-29T12:20:53.900Z</time>
      </trkpt>
      <trkpt lat="44.21617" lon="0.49761">
        <ele>86.847467</ele>
        <time>2022-12-29T12:20:56.904Z</time>
      </trkpt>
      <trkpt lat="44.21614" lon="0.49778">
        <ele>86.754449</ele>
        <time>2022-12-29T12:20:59.913Z</time>
      </trkpt>
      <trkpt lat="44.21612" lon="0.49797">
        <ele>86.652604</ele>
        <time>2022-12-29T12:21:02.915Z</time>
      </trkpt>
      <trkpt lat="44.21609" lon="0.49814">
        <ele>86.558582</ele>
        <time>2022-12-29T12:21:05.908Z</time>
      </trkpt>
      <trkpt lat="44.21606" lon="0.49831">
        <ele>86.464036</ele>
        <time>2022-12-29T12:21:08.908Z</time>
      </trkpt>
      <trkpt lat="44.21603" lon="0.49849">
        <ele>86.368283</ele>
        <time>2022-12-29T12:21:11.906Z</time>
      </trkpt>
      <trkpt lat="44.216" lon="0.49866">
        <ele>86.27422</ele>
        <time>2022-12-29T12:21:14.911Z</time>
      </trkpt>
      <trkpt lat="44.21597" lon="0.49882">
        <ele>86.221224</ele>
        <time>2022-12-29T12:21:17.912Z</time>
      </trkpt>
      <trkpt lat="44.21593" lon="0.49898">
        <ele>86.166926</ele>
        <time>2022-12-29T12:21:20.908Z</time>
      </trkpt>
      <trkpt lat="44.2159" lon="0.49915">
        <ele>86.110015</ele>
        <time>2022-12-29T12:21:23.917Z</time>
      </trkpt>
      <trkpt lat="44.21588" lon="0.49931">
        <ele>86.056246</ele>
        <time>2022-12-29T12:21:26.912Z</time>
      </trkpt>
      <trkpt lat="44.21585" lon="0.49947">
        <ele>86.003647</ele>
        <time>2022-12-29T12:21:29.889Z</time>
      </trkpt>
      <trkpt lat="44.21583" lon="0.49964">
        <ele>85.947025</ele>
        <time>2022-12-29T12:21:32.918Z</time>
      </trkpt>
      <trkpt lat="44.2158" lon="0.49983">
        <ele>85.883528</ele>
        <time>2022-12-29T12:21:35.906Z</time>
      </trkpt>
      <trkpt lat="44.21578" lon="0.49997">
        <ele>85.840192</ele>
        <time>2022-12-29T12:21:37.908Z</time>
      </trkpt>
      <trkpt lat="44.21576" lon="0.50009">
        <ele>85.797762</ele>
        <time>2022-12-29T12:21:39.908Z</time>
      </trkpt>
      <trkpt lat="44.21572" lon="0.50026">
        <ele>85.740353</ele>
        <time>2022-12-29T12:21:42.905Z</time>
      </trkpt>
      <trkpt lat="44.21568" lon="0.50043">
        <ele>85.682676</ele>
        <time>2022-12-29T12:21:45.908Z</time>
      </trkpt>
      <trkpt lat="44.21566" lon="0.50056">
        <ele>85.641505</ele>
        <time>2022-12-29T12:21:47.914Z</time>
      </trkpt>
      <trkpt lat="44.21563" lon="0.50073">
        <ele>85.583048</ele>
        <time>2022-12-29T12:21:50.894Z</time>
      </trkpt>
      <trkpt lat="44.21561" lon="0.50088">
        <ele>85.534208</ele>
        <time>2022-12-29T12:21:53.884Z</time>
      </trkpt>
      <trkpt lat="44.21559" lon="0.50104">
        <ele>85.48224</ele>
        <time>2022-12-29T12:21:56.908Z</time>
      </trkpt>
      <trkpt lat="44.21555" lon="0.50123">
        <ele>85.546516</ele>
        <time>2022-12-29T12:21:59.897Z</time>
      </trkpt>
      <trkpt lat="44.21553" lon="0.50139">
        <ele>85.638545</ele>
        <time>2022-12-29T12:22:01.905Z</time>
      </trkpt>
      <trkpt lat="44.21551" lon="0.50152">
        <ele>85.712512</ele>
        <time>2022-12-29T12:22:03.910Z</time>
      </trkpt>
      <trkpt lat="44.21549" lon="0.50164">
        <ele>85.783739</ele>
        <time>2022-12-29T12:22:05.910Z</time>
      </trkpt>
      <trkpt lat="44.21548" lon="0.50177">
        <ele>85.854817</ele>
        <time>2022-12-29T12:22:07.906Z</time>
      </trkpt>
      <trkpt lat="44.21544" lon="0.50192">
        <ele>85.946084</ele>
        <time>2022-12-29T12:22:10.905Z</time>
      </trkpt>
      <trkpt lat="44.21541" lon="0.50205">
        <ele>86.019122</ele>
        <time>2022-12-29T12:22:12.914Z</time>
      </trkpt>
      <trkpt lat="44.21539" lon="0.50218">
        <ele>86.094117</ele>
        <time>2022-12-29T12:22:14.919Z</time>
      </trkpt>
      <trkpt lat="44.21536" lon="0.50233">
        <ele>86.184889</ele>
        <time>2022-12-29T12:22:17.908Z</time>
      </trkpt>
      <trkpt lat="44.21534" lon="0.50251">
        <ele>86.285124</ele>
        <time>2022-12-29T12:22:20.906Z</time>
      </trkpt>
      <trkpt lat="44.2153" lon="0.50266">
        <ele>86.372555</ele>
        <time>2022-12-29T12:22:22.908Z</time>
      </trkpt>
      <trkpt lat="44.21527" lon="0.50281">
        <ele>86.457546</ele>
        <time>2022-12-29T12:22:24.909Z</time>
      </trkpt>
      <trkpt lat="44.21524" lon="0.50299">
        <ele>86.561875</ele>
        <time>2022-12-29T12:22:27.889Z</time>
      </trkpt>
      <trkpt lat="44.21521" lon="0.50314">
        <ele>86.650806</ele>
        <time>2022-12-29T12:22:30.891Z</time>
      </trkpt>
      <trkpt lat="44.21519" lon="0.50332">
        <ele>86.750063</ele>
        <time>2022-12-29T12:22:33.888Z</time>
      </trkpt>
      <trkpt lat="44.21518" lon="0.50344">
        <ele>86.819965</ele>
        <time>2022-12-29T12:22:35.906Z</time>
      </trkpt>
      <trkpt lat="44.21516" lon="0.50356">
        <ele>86.869796</ele>
        <time>2022-12-29T12:22:37.917Z</time>
      </trkpt>
      <trkpt lat="44.21513" lon="0.50369">
        <ele>86.874409</ele>
        <time>2022-12-29T12:22:39.911Z</time>
      </trkpt>
      <trkpt lat="44.21511" lon="0.50384">
        <ele>86.879697</ele>
        <time>2022-12-29T12:22:41.907Z</time>
      </trkpt>
      <trkpt lat="44.21508" lon="0.50397">
        <ele>86.884467</ele>
        <time>2022-12-29T12:22:43.895Z</time>
      </trkpt>
      <trkpt lat="44.21506" lon="0.50415">
        <ele>86.890962</ele>
        <time>2022-12-29T12:22:46.905Z</time>
      </trkpt>
      <trkpt lat="44.21503" lon="0.5043">
        <ele>86.896667</ele>
        <time>2022-12-29T12:22:49.908Z</time>
      </trkpt>
      <trkpt lat="44.21499" lon="0.50448">
        <ele>86.903085</ele>
        <time>2022-12-29T12:22:52.888Z</time>
      </trkpt>
      <trkpt lat="44.21496" lon="0.50463">
        <ele>86.908602</ele>
        <time>2022-12-29T12:22:55.914Z</time>
      </trkpt>
      <trkpt lat="44.21492" lon="0.50475">
        <ele>86.913445</ele>
        <time>2022-12-29T12:22:58.909Z</time>
      </trkpt>
      <trkpt lat="44.21489" lon="0.50489">
        <ele>86.918533</ele>
        <time>2022-12-29T12:23:01.909Z</time>
      </trkpt>
      <trkpt lat="44.21487" lon="0.50505">
        <ele>86.924341</ele>
        <time>2022-12-29T12:23:04.890Z</time>
      </trkpt>
      <trkpt lat="44.21486" lon="0.50519">
        <ele>86.929057</ele>
        <time>2022-12-29T12:23:06.896Z</time>
      </trkpt>
      <trkpt lat="44.21485" lon="0.50531">
        <ele>86.93353</ele>
        <time>2022-12-29T12:23:08.899Z</time>
      </trkpt>
      <trkpt lat="44.21483" lon="0.50544">
        <ele>86.938053</ele>
        <time>2022-12-29T12:23:10.912Z</time>
      </trkpt>
      <trkpt lat="44.2148" lon="0.50561">
        <ele>86.944117</ele>
        <time>2022-12-29T12:23:13.883Z</time>
      </trkpt>
      <trkpt lat="44.21478" lon="0.50573">
        <ele>86.948591</ele>
        <time>2022-12-29T12:23:15.892Z</time>
      </trkpt>
      <trkpt lat="44.21476" lon="0.50585">
        <ele>86.953063</ele>
        <time>2022-12-29T12:23:17.910Z</time>
      </trkpt>
      <trkpt lat="44.21474" lon="0.50598">
        <ele>86.962898</ele>
        <time>2022-12-29T12:23:19.914Z</time>
      </trkpt>
      <trkpt lat="44.21472" lon="0.50611">
        <ele>86.994278</ele>
        <time>2022-12-29T12:23:21.887Z</time>
      </trkpt>
      <trkpt lat="44.21469" lon="0.50625">
        <ele>87.026664</ele>
        <time>2022-12-29T12:23:23.908Z</time>
      </trkpt>
      <trkpt lat="44.21466" lon="0.50643">
        <ele>87.071935</ele>
        <time>2022-12-29T12:23:26.913Z</time>
      </trkpt>
      <trkpt lat="44.21463" lon="0.50662">
        <ele>87.116167</ele>
        <time>2022-12-29T12:23:29.910Z</time>
      </trkpt>
      <trkpt lat="44.21459" lon="0.50681">
        <ele>87.161757</ele>
        <time>2022-12-29T12:23:32.887Z</time>
      </trkpt>
      <trkpt lat="44.21458" lon="0.50697">
        <ele>87.201044</ele>
        <time>2022-12-29T12:23:34.903Z</time>
      </trkpt>
      <trkpt lat="44.21454" lon="0.50714">
        <ele>87.241304</ele>
        <time>2022-12-29T12:23:37.904Z</time>
      </trkpt>
      <trkpt lat="44.21451" lon="0.50726">
        <ele>87.272532</ele>
        <time>2022-12-29T12:23:39.888Z</time>
      </trkpt>
      <trkpt lat="44.21448" lon="0.50739">
        <ele>87.302768</ele>
        <time>2022-12-29T12:23:41.903Z</time>
      </trkpt>
      <trkpt lat="44.21444" lon="0.50758">
        <ele>87.349264</ele>
        <time>2022-12-29T12:23:44.895Z</time>
      </trkpt>
      <trkpt lat="44.21442" lon="0.50772">
        <ele>87.383148</ele>
        <time>2022-12-29T12:23:46.910Z</time>
      </trkpt>
      <trkpt lat="44.21437" lon="0.5079">
        <ele>87.428592</ele>
        <time>2022-12-29T12:23:49.885Z</time>
      </trkpt>
      <trkpt lat="44.21435" lon="0.50802">
        <ele>87.457988</ele>
        <time>2022-12-29T12:23:51.906Z</time>
      </trkpt>
      <trkpt lat="44.21433" lon="0.50819">
        <ele>87.49829</ele>
        <time>2022-12-29T12:23:54.902Z</time>
      </trkpt>
      <trkpt lat="44.21431" lon="0.50835">
        <ele>87.535211</ele>
        <time>2022-12-29T12:23:57.889Z</time>
      </trkpt>
      <trkpt lat="44.2143" lon="0.50848">
        <ele>87.554159</ele>
        <time>2022-12-29T12:23:59.905Z</time>
      </trkpt>
      <trkpt lat="44.21429" lon="0.50861">
        <ele>87.567995</ele>
        <time>2022-12-29T12:24:01.898Z</time>
      </trkpt>
      <trkpt lat="44.21426" lon="0.5088">
        <ele>87.587788</ele>
        <time>2022-12-29T12:24:04.895Z</time>
      </trkpt>
      <trkpt lat="44.21424" lon="0.50892">
        <ele>87.601451</ele>
        <time>2022-12-29T12:24:06.909Z</time>
      </trkpt>
      <trkpt lat="44.21422" lon="0.50905">
        <ele>87.615044</ele>
        <time>2022-12-29T12:24:08.913Z</time>
      </trkpt>
      <trkpt lat="44.21419" lon="0.50921">
        <ele>87.63212</ele>
        <time>2022-12-29T12:24:11.912Z</time>
      </trkpt>
      <trkpt lat="44.21417" lon="0.50934">
        <ele>87.645753</ele>
        <time>2022-12-29T12:24:13.894Z</time>
      </trkpt>
      <trkpt lat="44.21416" lon="0.50947">
        <ele>87.660024</ele>
        <time>2022-12-29T12:24:15.906Z</time>
      </trkpt>
      <trkpt lat="44.21414" lon="0.50961">
        <ele>87.674295</ele>
        <time>2022-12-29T12:24:17.904Z</time>
      </trkpt>
      <trkpt lat="44.2141" lon="0.50977">
        <ele>87.691821</ele>
        <time>2022-12-29T12:24:19.910Z</time>
      </trkpt>
      <trkpt lat="44.21407" lon="0.50989">
        <ele>87.706012</ele>
        <time>2022-12-29T12:24:21.894Z</time>
      </trkpt>
      <trkpt lat="44.21403" lon="0.51009">
        <ele>87.727251</ele>
        <time>2022-12-29T12:24:24.885Z</time>
      </trkpt>
      <trkpt lat="44.214" lon="0.51028">
        <ele>87.747069</ele>
        <time>2022-12-29T12:24:27.903Z</time>
      </trkpt>
      <trkpt lat="44.21398" lon="0.51041">
        <ele>87.760748</ele>
        <time>2022-12-29T12:24:29.906Z</time>
      </trkpt>
      <trkpt lat="44.21396" lon="0.51053">
        <ele>87.774342</ele>
        <time>2022-12-29T12:24:31.904Z</time>
      </trkpt>
      <trkpt lat="44.21393" lon="0.51066">
        <ele>87.788087</ele>
        <time>2022-12-29T12:24:33.889Z</time>
      </trkpt>
      <trkpt lat="44.21389" lon="0.51083">
        <ele>87.811461</ele>
        <time>2022-12-29T12:24:36.907Z</time>
      </trkpt>
      <trkpt lat="44.21387" lon="0.51099">
        <ele>88.202948</ele>
        <time>2022-12-29T12:24:38.901Z</time>
      </trkpt>
      <trkpt lat="44.21385" lon="0.51114">
        <ele>88.54601</ele>
        <time>2022-12-29T12:24:40.892Z</time>
      </trkpt>
      <trkpt lat="44.21383" lon="0.51127">
        <ele>88.866141</ele>
        <time>2022-12-29T12:24:42.898Z</time>
      </trkpt>
      <trkpt lat="44.21382" lon="0.51141">
        <ele>89.183251</ele>
        <time>2022-12-29T12:24:44.905Z</time>
      </trkpt>
      <trkpt lat="44.21378" lon="0.51157">
        <ele>89.598502</ele>
        <time>2022-12-29T12:24:47.910Z</time>
      </trkpt>
      <trkpt lat="44.21375" lon="0.51175">
        <ele>90.024042</ele>
        <time>2022-12-29T12:24:50.910Z</time>
      </trkpt>
      <trkpt lat="44.21374" lon="0.5119">
        <ele>90.369485</ele>
        <time>2022-12-29T12:24:52.906Z</time>
      </trkpt>
      <trkpt lat="44.21373" lon="0.51203">
        <ele>90.669145</ele>
        <time>2022-12-29T12:24:54.910Z</time>
      </trkpt>
      <trkpt lat="44.2137" lon="0.51215">
        <ele>90.981136</ele>
        <time>2022-12-29T12:24:56.914Z</time>
      </trkpt>
      <trkpt lat="44.21367" lon="0.51232">
        <ele>91.399814</ele>
        <time>2022-12-29T12:24:59.914Z</time>
      </trkpt>
      <trkpt lat="44.21364" lon="0.51245">
        <ele>91.715483</ele>
        <time>2022-12-29T12:25:01.903Z</time>
      </trkpt>
      <trkpt lat="44.21362" lon="0.51258">
        <ele>92.023346</ele>
        <time>2022-12-29T12:25:03.902Z</time>
      </trkpt>
      <trkpt lat="44.21359" lon="0.51274">
        <ele>92.421016</ele>
        <time>2022-12-29T12:25:06.909Z</time>
      </trkpt>
      <trkpt lat="44.21355" lon="0.51288">
        <ele>92.756786</ele>
        <time>2022-12-29T12:25:09.917Z</time>
      </trkpt>
      <trkpt lat="44.21353" lon="0.51302">
        <ele>93.085168</ele>
        <time>2022-12-29T12:25:13.919Z</time>
      </trkpt>
      <trkpt lat="44.2135" lon="0.51315">
        <ele>93.417299</ele>
        <time>2022-12-29T12:25:19.891Z</time>
      </trkpt>
      <trkpt lat="44.21348" lon="0.51329">
        <ele>93.644888</ele>
        <time>2022-12-29T12:25:22.907Z</time>
      </trkpt>
      <trkpt lat="44.21346" lon="0.51345">
        <ele>93.42906</ele>
        <time>2022-12-29T12:25:25.900Z</time>
      </trkpt>
      <trkpt lat="44.21343" lon="0.51361">
        <ele>93.204707</ele>
        <time>2022-12-29T12:25:28.904Z</time>
      </trkpt>
      <trkpt lat="44.21341" lon="0.51379">
        <ele>92.966645</ele>
        <time>2022-12-29T12:25:31.909Z</time>
      </trkpt>
      <trkpt lat="44.21339" lon="0.51398">
        <ele>92.710581</ele>
        <time>2022-12-29T12:25:34.915Z</time>
      </trkpt>
      <trkpt lat="44.21338" lon="0.51411">
        <ele>92.537038</ele>
        <time>2022-12-29T12:25:36.912Z</time>
      </trkpt>
      <trkpt lat="44.21334" lon="0.51427">
        <ele>92.316837</ele>
        <time>2022-12-29T12:25:39.911Z</time>
      </trkpt>
      <trkpt lat="44.21332" lon="0.51441">
        <ele>92.12882</ele>
        <time>2022-12-29T12:25:41.909Z</time>
      </trkpt>
      <trkpt lat="44.2133" lon="0.51454">
        <ele>91.948922</ele>
        <time>2022-12-29T12:25:43.901Z</time>
      </trkpt>
      <trkpt lat="44.21327" lon="0.51466">
        <ele>91.780805</ele>
        <time>2022-12-29T12:25:45.905Z</time>
      </trkpt>
      <trkpt lat="44.21323" lon="0.51482">
        <ele>91.566159</ele>
        <time>2022-12-29T12:25:48.910Z</time>
      </trkpt>
      <trkpt lat="44.2132" lon="0.51495">
        <ele>91.380648</ele>
        <time>2022-12-29T12:25:51.911Z</time>
      </trkpt>
      <trkpt lat="44.21318" lon="0.51511">
        <ele>91.172395</ele>
        <time>2022-12-29T12:25:54.916Z</time>
      </trkpt>
      <trkpt lat="44.21315" lon="0.51528">
        <ele>90.932153</ele>
        <time>2022-12-29T12:25:57.899Z</time>
      </trkpt>
      <trkpt lat="44.21312" lon="0.51546">
        <ele>90.692007</ele>
        <time>2022-12-29T12:26:00.914Z</time>
      </trkpt>
      <trkpt lat="44.21308" lon="0.51564">
        <ele>90.445454</ele>
        <time>2022-12-29T12:26:03.910Z</time>
      </trkpt>
      <trkpt lat="44.21306" lon="0.51578">
        <ele>90.349957</ele>
        <time>2022-12-29T12:26:05.898Z</time>
      </trkpt>
      <trkpt lat="44.21303" lon="0.51591">
        <ele>90.316402</ele>
        <time>2022-12-29T12:26:07.911Z</time>
      </trkpt>
      <trkpt lat="44.213" lon="0.51604">
        <ele>90.284408</ele>
        <time>2022-12-29T12:26:09.906Z</time>
      </trkpt>
      <trkpt lat="44.21296" lon="0.51622">
        <ele>90.238532</ele>
        <time>2022-12-29T12:26:12.916Z</time>
      </trkpt>
      <trkpt lat="44.21292" lon="0.51635">
        <ele>90.205866</ele>
        <time>2022-12-29T12:26:14.915Z</time>
      </trkpt>
      <trkpt lat="44.21289" lon="0.51647">
        <ele>90.175493</ele>
        <time>2022-12-29T12:26:16.905Z</time>
      </trkpt>
      <trkpt lat="44.21289" lon="0.5166">
        <ele>90.145678</ele>
        <time>2022-12-29T12:26:18.915Z</time>
      </trkpt>
      <trkpt lat="44.21285" lon="0.51677">
        <ele>90.103201</ele>
        <time>2022-12-29T12:26:21.913Z</time>
      </trkpt>
      <trkpt lat="44.21283" lon="0.5169">
        <ele>90.071746</ele>
        <time>2022-12-29T12:26:23.901Z</time>
      </trkpt>
      <trkpt lat="44.21281" lon="0.51707">
        <ele>90.029646</ele>
        <time>2022-12-29T12:26:26.908Z</time>
      </trkpt>
      <trkpt lat="44.21278" lon="0.51721">
        <ele>89.995866</ele>
        <time>2022-12-29T12:26:29.905Z</time>
      </trkpt>
      <trkpt lat="44.21276" lon="0.51738">
        <ele>89.955232</ele>
        <time>2022-12-29T12:26:32.909Z</time>
      </trkpt>
      <trkpt lat="44.21273" lon="0.51753">
        <ele>89.917864</ele>
        <time>2022-12-29T12:26:35.907Z</time>
      </trkpt>
      <trkpt lat="44.21272" lon="0.51766">
        <ele>89.887627</ele>
        <time>2022-12-29T12:26:38.910Z</time>
      </trkpt>
      <trkpt lat="44.2127" lon="0.51782">
        <ele>89.84665</ele>
        <time>2022-12-29T12:26:41.911Z</time>
      </trkpt>
      <trkpt lat="44.21267" lon="0.51795">
        <ele>89.815448</ele>
        <time>2022-12-29T12:26:43.900Z</time>
      </trkpt>
      <trkpt lat="44.21263" lon="0.51813">
        <ele>89.780739</ele>
        <time>2022-12-29T12:26:46.915Z</time>
      </trkpt>
      <trkpt lat="44.21259" lon="0.51826">
        <ele>89.902476</ele>
        <time>2022-12-29T12:26:48.923Z</time>
      </trkpt>
      <trkpt lat="44.21255" lon="0.51844">
        <ele>90.058365</ele>
        <time>2022-12-29T12:26:51.906Z</time>
      </trkpt>
      <trkpt lat="44.21252" lon="0.51859">
        <ele>90.194607</ele>
        <time>2022-12-29T12:26:53.930Z</time>
      </trkpt>
      <trkpt lat="44.2125" lon="0.51872">
        <ele>90.308877</ele>
        <time>2022-12-29T12:26:55.912Z</time>
      </trkpt>
      <trkpt lat="44.21248" lon="0.51891">
        <ele>90.473057</ele>
        <time>2022-12-29T12:26:58.901Z</time>
      </trkpt>
      <trkpt lat="44.21246" lon="0.51908">
        <ele>90.62488</ele>
        <time>2022-12-29T12:27:01.905Z</time>
      </trkpt>
      <trkpt lat="44.21244" lon="0.51922">
        <ele>90.741603</ele>
        <time>2022-12-29T12:27:03.915Z</time>
      </trkpt>
      <trkpt lat="44.21241" lon="0.51936">
        <ele>90.867787</ele>
        <time>2022-12-29T12:27:05.911Z</time>
      </trkpt>
      <trkpt lat="44.21238" lon="0.51949">
        <ele>90.986241</ele>
        <time>2022-12-29T12:27:07.917Z</time>
      </trkpt>
      <trkpt lat="44.21236" lon="0.51968">
        <ele>91.154964</ele>
        <time>2022-12-29T12:27:10.904Z</time>
      </trkpt>
      <trkpt lat="44.21233" lon="0.51982">
        <ele>91.277325</ele>
        <time>2022-12-29T12:27:12.904Z</time>
      </trkpt>
      <trkpt lat="44.2123" lon="0.52001">
        <ele>91.441659</ele>
        <time>2022-12-29T12:27:15.912Z</time>
      </trkpt>
      <trkpt lat="44.21229" lon="0.52014">
        <ele>91.556645</ele>
        <time>2022-12-29T12:27:17.920Z</time>
      </trkpt>
      <trkpt lat="44.21226" lon="0.52032">
        <ele>91.714533</ele>
        <time>2022-12-29T12:27:20.898Z</time>
      </trkpt>
      <trkpt lat="44.21225" lon="0.52046">
        <ele>91.838666</ele>
        <time>2022-12-29T12:27:22.915Z</time>
      </trkpt>
      <trkpt lat="44.21222" lon="0.52065">
        <ele>91.949977</ele>
        <time>2022-12-29T12:27:25.907Z</time>
      </trkpt>
      <trkpt lat="44.21219" lon="0.52077">
        <ele>91.98546</ele>
        <time>2022-12-29T12:27:27.900Z</time>
      </trkpt>
      <trkpt lat="44.21217" lon="0.52092">
        <ele>92.023906</ele>
        <time>2022-12-29T12:27:29.891Z</time>
      </trkpt>
      <trkpt lat="44.21215" lon="0.52104">
        <ele>92.058419</ele>
        <time>2022-12-29T12:27:31.912Z</time>
      </trkpt>
      <trkpt lat="44.21213" lon="0.52119">
        <ele>92.098857</ele>
        <time>2022-12-29T12:27:33.918Z</time>
      </trkpt>
      <trkpt lat="44.2121" lon="0.52132">
        <ele>92.134383</ele>
        <time>2022-12-29T12:27:35.914Z</time>
      </trkpt>
      <trkpt lat="44.21206" lon="0.52147">
        <ele>92.174781</ele>
        <time>2022-12-29T12:27:37.908Z</time>
      </trkpt>
      <trkpt lat="44.21204" lon="0.5216">
        <ele>92.211879</ele>
        <time>2022-12-29T12:27:39.911Z</time>
      </trkpt>
      <trkpt lat="44.21202" lon="0.52174">
        <ele>92.248108</ele>
        <time>2022-12-29T12:27:41.914Z</time>
      </trkpt>
      <trkpt lat="44.21199" lon="0.52185">
        <ele>92.28139</ele>
        <time>2022-12-29T12:27:43.909Z</time>
      </trkpt>
      <trkpt lat="44.21195" lon="0.52197">
        <ele>92.315096</ele>
        <time>2022-12-29T12:27:45.914Z</time>
      </trkpt>
      <trkpt lat="44.21193" lon="0.52211">
        <ele>92.353104</ele>
        <time>2022-12-29T12:27:47.914Z</time>
      </trkpt>
      <trkpt lat="44.21192" lon="0.52225">
        <ele>92.39169</ele>
        <time>2022-12-29T12:27:49.914Z</time>
      </trkpt>
      <trkpt lat="44.21189" lon="0.5224">
        <ele>92.431145</ele>
        <time>2022-12-29T12:27:51.912Z</time>
      </trkpt>
      <trkpt lat="44.21186" lon="0.52258">
        <ele>92.480344</ele>
        <time>2022-12-29T12:27:54.918Z</time>
      </trkpt>
      <trkpt lat="44.21183" lon="0.5227">
        <ele>92.513793</ele>
        <time>2022-12-29T12:27:56.913Z</time>
      </trkpt>
      <trkpt lat="44.21182" lon="0.52286">
        <ele>92.556092</ele>
        <time>2022-12-29T12:27:58.910Z</time>
      </trkpt>
      <trkpt lat="44.2118" lon="0.52299">
        <ele>92.592622</ele>
        <time>2022-12-29T12:28:00.916Z</time>
      </trkpt>
      <trkpt lat="44.21176" lon="0.52315">
        <ele>92.642374</ele>
        <time>2022-12-29T12:28:03.917Z</time>
      </trkpt>
      <trkpt lat="44.21174" lon="0.52333">
        <ele>92.696659</ele>
        <time>2022-12-29T12:28:06.910Z</time>
      </trkpt>
      <trkpt lat="44.21171" lon="0.5235">
        <ele>92.748539</ele>
        <time>2022-12-29T12:28:09.917Z</time>
      </trkpt>
      <trkpt lat="44.21169" lon="0.52365">
        <ele>92.793377</ele>
        <time>2022-12-29T12:28:12.910Z</time>
      </trkpt>
      <trkpt lat="44.21166" lon="0.52382">
        <ele>92.845787</ele>
        <time>2022-12-29T12:28:15.920Z</time>
      </trkpt>
      <trkpt lat="44.21162" lon="0.524">
        <ele>92.900298</ele>
        <time>2022-12-29T12:28:18.889Z</time>
      </trkpt>
      <trkpt lat="44.21159" lon="0.52416">
        <ele>92.948405</ele>
        <time>2022-12-29T12:28:20.902Z</time>
      </trkpt>
      <trkpt lat="44.21159" lon="0.52428">
        <ele>92.985472</ele>
        <time>2022-12-29T12:28:22.892Z</time>
      </trkpt>
      <trkpt lat="44.21157" lon="0.52441">
        <ele>93.023162</ele>
        <time>2022-12-29T12:28:24.911Z</time>
      </trkpt>
      <trkpt lat="44.21154" lon="0.52453">
        <ele>93.060937</ele>
        <time>2022-12-29T12:28:26.915Z</time>
      </trkpt>
      <trkpt lat="44.21152" lon="0.52465">
        <ele>93.098741</ele>
        <time>2022-12-29T12:28:28.906Z</time>
      </trkpt>
      <trkpt lat="44.21149" lon="0.52477">
        <ele>93.135979</ele>
        <time>2022-12-29T12:28:30.897Z</time>
      </trkpt>
      <trkpt lat="44.21145" lon="0.52494">
        <ele>93.189201</ele>
        <time>2022-12-29T12:28:33.898Z</time>
      </trkpt>
      <trkpt lat="44.21143" lon="0.52509">
        <ele>93.232494</ele>
        <time>2022-12-29T12:28:35.902Z</time>
      </trkpt>
      <trkpt lat="44.21139" lon="0.52527">
        <ele>93.287823</ele>
        <time>2022-12-29T12:28:38.912Z</time>
      </trkpt>
      <trkpt lat="44.21138" lon="0.52544">
        <ele>93.368152</ele>
        <time>2022-12-29T12:28:41.914Z</time>
      </trkpt>
      <trkpt lat="44.21134" lon="0.52559">
        <ele>93.713446</ele>
        <time>2022-12-29T12:28:43.889Z</time>
      </trkpt>
      <trkpt lat="44.21134" lon="0.52572">
        <ele>93.983438</ele>
        <time>2022-12-29T12:28:45.911Z</time>
      </trkpt>
      <trkpt lat="44.21133" lon="0.52586">
        <ele>94.271187</ele>
        <time>2022-12-29T12:28:47.900Z</time>
      </trkpt>
      <trkpt lat="44.21131" lon="0.52602">
        <ele>94.633729</ele>
        <time>2022-12-29T12:28:50.909Z</time>
      </trkpt>
      <trkpt lat="44.21128" lon="0.52619">
        <ele>95.001826</ele>
        <time>2022-12-29T12:28:53.909Z</time>
      </trkpt>
      <trkpt lat="44.21125" lon="0.52637">
        <ele>95.388491</ele>
        <time>2022-12-29T12:28:56.914Z</time>
      </trkpt>
      <trkpt lat="44.21123" lon="0.52653">
        <ele>95.74457</ele>
        <time>2022-12-29T12:28:59.916Z</time>
      </trkpt>
      <trkpt lat="44.21121" lon="0.52669">
        <ele>96.089407</ele>
        <time>2022-12-29T12:29:02.913Z</time>
      </trkpt>
      <trkpt lat="44.21121" lon="0.52684">
        <ele>96.402044</ele>
        <time>2022-12-29T12:29:05.912Z</time>
      </trkpt>
      <trkpt lat="44.21121" lon="0.52699">
        <ele>96.727323</ele>
        <time>2022-12-29T12:29:07.895Z</time>
      </trkpt>
      <trkpt lat="44.21118" lon="0.52714">
        <ele>97.040333</ele>
        <time>2022-12-29T12:29:10.909Z</time>
      </trkpt>
      <trkpt lat="44.21117" lon="0.52727">
        <ele>97.32866</ele>
        <time>2022-12-29T12:29:12.914Z</time>
      </trkpt>
      <trkpt lat="44.21116" lon="0.52741">
        <ele>97.633592</ele>
        <time>2022-12-29T12:29:14.922Z</time>
      </trkpt>
      <trkpt lat="44.21115" lon="0.52755">
        <ele>97.930046</ele>
        <time>2022-12-29T12:29:17.910Z</time>
      </trkpt>
      <trkpt lat="44.21113" lon="0.52773">
        <ele>98.309358</ele>
        <time>2022-12-29T12:29:20.907Z</time>
      </trkpt>
      <trkpt lat="44.21114" lon="0.52788">
        <ele>98.637233</ele>
        <time>2022-12-29T12:29:23.916Z</time>
      </trkpt>
      <trkpt lat="44.21114" lon="0.52803">
        <ele>98.47351</ele>
        <time>2022-12-29T12:29:26.911Z</time>
      </trkpt>
      <trkpt lat="44.21114" lon="0.52818">
        <ele>98.240139</ele>
        <time>2022-12-29T12:29:29.887Z</time>
      </trkpt>
      <trkpt lat="44.21113" lon="0.52831">
        <ele>98.047408</ele>
        <time>2022-12-29T12:29:31.891Z</time>
      </trkpt>
      <trkpt lat="44.21113" lon="0.52847">
        <ele>97.796858</ele>
        <time>2022-12-29T12:29:34.896Z</time>
      </trkpt>
      <trkpt lat="44.21111" lon="0.52863">
        <ele>97.555308</ele>
        <time>2022-12-29T12:29:37.890Z</time>
      </trkpt>
      <trkpt lat="44.2111" lon="0.5288">
        <ele>97.294101</ele>
        <time>2022-12-29T12:29:40.913Z</time>
      </trkpt>
      <trkpt lat="44.2111" lon="0.52894">
        <ele>97.07296</ele>
        <time>2022-12-29T12:29:43.891Z</time>
      </trkpt>
      <trkpt lat="44.2111" lon="0.5291">
        <ele>96.830328</ele>
        <time>2022-12-29T12:29:47.911Z</time>
      </trkpt>
      <trkpt lat="44.2111" lon="0.52923">
        <ele>96.630502</ele>
        <time>2022-12-29T12:29:50.911Z</time>
      </trkpt>
      <trkpt lat="44.2111" lon="0.5294">
        <ele>96.38025</ele>
        <time>2022-12-29T12:29:53.894Z</time>
      </trkpt>
      <trkpt lat="44.21111" lon="0.52955">
        <ele>96.151817</ele>
        <time>2022-12-29T12:29:56.906Z</time>
      </trkpt>
      <trkpt lat="44.21114" lon="0.52968">
        <ele>95.94143</ele>
        <time>2022-12-29T12:29:59.909Z</time>
      </trkpt>
      <trkpt lat="44.21119" lon="0.5298">
        <ele>95.724726</ele>
        <time>2022-12-29T12:30:02.907Z</time>
      </trkpt>
      <trkpt lat="44.21126" lon="0.52992">
        <ele>95.487726</ele>
        <time>2022-12-29T12:30:05.910Z</time>
      </trkpt>
      <trkpt lat="44.21132" lon="0.53006">
        <ele>95.231917</ele>
        <time>2022-12-29T12:30:08.917Z</time>
      </trkpt>
      <trkpt lat="44.21138" lon="0.53022">
        <ele>94.972766</ele>
        <time>2022-12-29T12:30:11.914Z</time>
      </trkpt>
      <trkpt lat="44.21141" lon="0.53036">
        <ele>94.801945</ele>
        <time>2022-12-29T12:30:14.908Z</time>
      </trkpt>
      <trkpt lat="44.21141" lon="0.53052">
        <ele>94.706035</ele>
        <time>2022-12-29T12:30:17.920Z</time>
      </trkpt>
      <trkpt lat="44.21143" lon="0.53068">
        <ele>94.604555</ele>
        <time>2022-12-29T12:30:20.906Z</time>
      </trkpt>
      <trkpt lat="44.21143" lon="0.53084">
        <ele>94.506827</ele>
        <time>2022-12-29T12:30:23.908Z</time>
      </trkpt>
      <trkpt lat="44.21144" lon="0.53101">
        <ele>94.403365</ele>
        <time>2022-12-29T12:30:26.913Z</time>
      </trkpt>
      <trkpt lat="44.21144" lon="0.53119">
        <ele>94.289508</ele>
        <time>2022-12-29T12:30:29.903Z</time>
      </trkpt>
      <trkpt lat="44.21144" lon="0.53136">
        <ele>94.185037</ele>
        <time>2022-12-29T12:30:32.915Z</time>
      </trkpt>
      <trkpt lat="44.21143" lon="0.53151">
        <ele>94.092606</ele>
        <time>2022-12-29T12:30:35.901Z</time>
      </trkpt>
      <trkpt lat="44.21141" lon="0.53166">
        <ele>93.998012</ele>
        <time>2022-12-29T12:30:38.913Z</time>
      </trkpt>
      <trkpt lat="44.21137" lon="0.53181">
        <ele>93.895299</ele>
        <time>2022-12-29T12:30:41.917Z</time>
      </trkpt>
      <trkpt lat="44.21132" lon="0.53197">
        <ele>93.791492</ele>
        <time>2022-12-29T12:30:44.973Z</time>
      </trkpt>
      <trkpt lat="44.21128" lon="0.53211">
        <ele>93.695063</ele>
        <time>2022-12-29T12:30:47.916Z</time>
      </trkpt>
      <trkpt lat="44.21124" lon="0.53224">
        <ele>93.607378</ele>
        <time>2022-12-29T12:30:50.971Z</time>
      </trkpt>
      <trkpt lat="44.21122" lon="0.53237">
        <ele>93.52681</ele>
        <time>2022-12-29T12:30:53.897Z</time>
      </trkpt>
      <trkpt lat="44.21122" lon="0.53251">
        <ele>93.441505</ele>
        <time>2022-12-29T12:30:56.941Z</time>
      </trkpt>
      <trkpt lat="44.21122" lon="0.53267">
        <ele>93.342465</ele>
        <time>2022-12-29T12:30:59.915Z</time>
      </trkpt>
      <trkpt lat="44.21124" lon="0.53283">
        <ele>93.202738</ele>
        <time>2022-12-29T12:31:02.963Z</time>
      </trkpt>
      <trkpt lat="44.21126" lon="0.53298">
        <ele>93.043305</ele>
        <time>2022-12-29T12:31:05.918Z</time>
      </trkpt>
      <trkpt lat="44.21128" lon="0.53314">
        <ele>92.866225</ele>
        <time>2022-12-29T12:31:08.896Z</time>
      </trkpt>
      <trkpt lat="44.2113" lon="0.53331">
        <ele>92.68786</ele>
        <time>2022-12-29T12:31:11.919Z</time>
      </trkpt>
      <trkpt lat="44.21132" lon="0.53348">
        <ele>92.50472</ele>
        <time>2022-12-29T12:31:14.917Z</time>
      </trkpt>
      <trkpt lat="44.21134" lon="0.53367">
        <ele>92.304377</ele>
        <time>2022-12-29T12:31:17.919Z</time>
      </trkpt>
      <trkpt lat="44.21136" lon="0.5338">
        <ele>92.158304</ele>
        <time>2022-12-29T12:31:19.965Z</time>
      </trkpt>
      <trkpt lat="44.21138" lon="0.53399">
        <ele>91.953548</ele>
        <time>2022-12-29T12:31:22.919Z</time>
      </trkpt>
      <trkpt lat="44.2114" lon="0.53413">
        <ele>91.809352</ele>
        <time>2022-12-29T12:31:24.915Z</time>
      </trkpt>
      <trkpt lat="44.21142" lon="0.53426">
        <ele>91.662973</ele>
        <time>2022-12-29T12:31:26.918Z</time>
      </trkpt>
      <trkpt lat="44.21144" lon="0.53439">
        <ele>91.524526</ele>
        <time>2022-12-29T12:31:28.918Z</time>
      </trkpt>
      <trkpt lat="44.21147" lon="0.53457">
        <ele>91.323545</ele>
        <time>2022-12-29T12:31:31.962Z</time>
      </trkpt>
      <trkpt lat="44.21149" lon="0.53471">
        <ele>91.180125</ele>
        <time>2022-12-29T12:31:33.919Z</time>
      </trkpt>
      <trkpt lat="44.21153" lon="0.53489">
        <ele>90.978241</ele>
        <time>2022-12-29T12:31:36.914Z</time>
      </trkpt>
      <trkpt lat="44.21155" lon="0.53502">
        <ele>90.840769</ele>
        <time>2022-12-29T12:31:38.918Z</time>
      </trkpt>
      <trkpt lat="44.21157" lon="0.53514">
        <ele>90.706789</ele>
        <time>2022-12-29T12:31:40.917Z</time>
      </trkpt>
      <trkpt lat="44.21159" lon="0.53532">
        <ele>90.468951</ele>
        <time>2022-12-29T12:31:43.976Z</time>
      </trkpt>
      <trkpt lat="44.21162" lon="0.53548">
        <ele>90.224575</ele>
        <time>2022-12-29T12:31:46.918Z</time>
      </trkpt>
      <trkpt lat="44.21164" lon="0.53564">
        <ele>89.989366</ele>
        <time>2022-12-29T12:31:49.933Z</time>
      </trkpt>
      <trkpt lat="44.21167" lon="0.53579">
        <ele>89.756951</ele>
        <time>2022-12-29T12:31:52.917Z</time>
      </trkpt>
      <trkpt lat="44.21171" lon="0.53596">
        <ele>89.501037</ele>
        <time>2022-12-29T12:31:55.971Z</time>
      </trkpt>
      <trkpt lat="44.21176" lon="0.53612">
        <ele>89.236604</ele>
        <time>2022-12-29T12:31:58.916Z</time>
      </trkpt>
      <trkpt lat="44.2118" lon="0.5363">
        <ele>88.966973</ele>
        <time>2022-12-29T12:32:01.993Z</time>
      </trkpt>
      <trkpt lat="44.21183" lon="0.53648">
        <ele>88.690343</ele>
        <time>2022-12-29T12:32:04.916Z</time>
      </trkpt>
      <trkpt lat="44.21186" lon="0.53666">
        <ele>88.423565</ele>
        <time>2022-12-29T12:32:07.964Z</time>
      </trkpt>
      <trkpt lat="44.21189" lon="0.53683">
        <ele>88.165786</ele>
        <time>2022-12-29T12:32:10.919Z</time>
      </trkpt>
      <trkpt lat="44.21193" lon="0.537">
        <ele>87.898054</ele>
        <time>2022-12-29T12:32:13.904Z</time>
      </trkpt>
      <trkpt lat="44.21196" lon="0.53712">
        <ele>87.71395</ele>
        <time>2022-12-29T12:32:15.919Z</time>
      </trkpt>
      <trkpt lat="44.21199" lon="0.5373">
        <ele>87.440055</ele>
        <time>2022-12-29T12:32:18.915Z</time>
      </trkpt>
      <trkpt lat="44.21203" lon="0.53742">
        <ele>87.247394</ele>
        <time>2022-12-29T12:32:20.922Z</time>
      </trkpt>
      <trkpt lat="44.21207" lon="0.5376">
        <ele>86.966746</ele>
        <time>2022-12-29T12:32:23.918Z</time>
      </trkpt>
      <trkpt lat="44.21209" lon="0.53773">
        <ele>86.722228</ele>
        <time>2022-12-29T12:32:25.917Z</time>
      </trkpt>
      <trkpt lat="44.21212" lon="0.53787">
        <ele>86.448191</ele>
        <time>2022-12-29T12:32:27.919Z</time>
      </trkpt>
      <trkpt lat="44.21216" lon="0.53799">
        <ele>86.186587</ele>
        <time>2022-12-29T12:32:29.965Z</time>
      </trkpt>
      <trkpt lat="44.21219" lon="0.53812">
        <ele>85.92968</ele>
        <time>2022-12-29T12:32:31.919Z</time>
      </trkpt>
      <trkpt lat="44.21223" lon="0.53823">
        <ele>85.682999</ele>
        <time>2022-12-29T12:32:33.918Z</time>
      </trkpt>
      <trkpt lat="44.21226" lon="0.53836">
        <ele>85.422964</ele>
        <time>2022-12-29T12:32:35.903Z</time>
      </trkpt>
      <trkpt lat="44.21228" lon="0.5385">
        <ele>85.149102</ele>
        <time>2022-12-29T12:32:37.917Z</time>
      </trkpt>
      <trkpt lat="44.21231" lon="0.53864">
        <ele>84.873087</ele>
        <time>2022-12-29T12:32:39.919Z</time>
      </trkpt>
      <trkpt lat="44.21234" lon="0.53878">
        <ele>84.595412</ele>
        <time>2022-12-29T12:32:41.916Z</time>
      </trkpt>
      <trkpt lat="44.21238" lon="0.5389">
        <ele>84.331239</ele>
        <time>2022-12-29T12:32:43.916Z</time>
      </trkpt>
      <trkpt lat="44.21241" lon="0.53904">
        <ele>84.057143</ele>
        <time>2022-12-29T12:32:45.918Z</time>
      </trkpt>
      <trkpt lat="44.21243" lon="0.53917">
        <ele>83.794175</ele>
        <time>2022-12-29T12:32:47.904Z</time>
      </trkpt>
      <trkpt lat="44.21246" lon="0.53931">
        <ele>83.511598</ele>
        <time>2022-12-29T12:32:49.915Z</time>
      </trkpt>
      <trkpt lat="44.2125" lon="0.53944">
        <ele>83.251137</ele>
        <time>2022-12-29T12:32:51.911Z</time>
      </trkpt>
      <trkpt lat="44.21253" lon="0.53956">
        <ele>83.006017</ele>
        <time>2022-12-29T12:32:53.895Z</time>
      </trkpt>
      <trkpt lat="44.21256" lon="0.53968">
        <ele>82.760952</ele>
        <time>2022-12-29T12:32:55.913Z</time>
      </trkpt>
      <trkpt lat="44.21259" lon="0.53985">
        <ele>82.420386</ele>
        <time>2022-12-29T12:32:58.914Z</time>
      </trkpt>
      <trkpt lat="44.21263" lon="0.53999">
        <ele>82.130074</ele>
        <time>2022-12-29T12:33:01.892Z</time>
      </trkpt>
      <trkpt lat="44.21266" lon="0.54014">
        <ele>82.217832</ele>
        <time>2022-12-29T12:33:04.910Z</time>
      </trkpt>
      <trkpt lat="44.21271" lon="0.54029">
        <ele>82.315709</ele>
        <time>2022-12-29T12:33:07.936Z</time>
      </trkpt>
      <trkpt lat="44.21274" lon="0.54045">
        <ele>82.417679</ele>
        <time>2022-12-29T12:33:10.922Z</time>
      </trkpt>
      <trkpt lat="44.21278" lon="0.54062">
        <ele>82.525327</ele>
        <time>2022-12-29T12:33:13.968Z</time>
      </trkpt>
      <trkpt lat="44.21282" lon="0.5408">
        <ele>82.637836</ele>
        <time>2022-12-29T12:33:16.904Z</time>
      </trkpt>
      <trkpt lat="44.21284" lon="0.54093">
        <ele>82.714886</ele>
        <time>2022-12-29T12:33:18.917Z</time>
      </trkpt>
      <trkpt lat="44.21286" lon="0.54105">
        <ele>82.792661</ele>
        <time>2022-12-29T12:33:20.918Z</time>
      </trkpt>
      <trkpt lat="44.2129" lon="0.54123">
        <ele>82.906565</ele>
        <time>2022-12-29T12:33:23.926Z</time>
      </trkpt>
      <trkpt lat="44.21292" lon="0.54136">
        <ele>82.98434</ele>
        <time>2022-12-29T12:33:25.984Z</time>
      </trkpt>
      <trkpt lat="44.21296" lon="0.54153">
        <ele>83.094643</ele>
        <time>2022-12-29T12:33:28.919Z</time>
      </trkpt>
      <trkpt lat="44.213" lon="0.54171">
        <ele>83.204994</ele>
        <time>2022-12-29T12:33:31.970Z</time>
      </trkpt>
      <trkpt lat="44.21304" lon="0.54187">
        <ele>83.311368</ele>
        <time>2022-12-29T12:33:34.922Z</time>
      </trkpt>
      <trkpt lat="44.21309" lon="0.54205">
        <ele>83.425192</ele>
        <time>2022-12-29T12:33:37.964Z</time>
      </trkpt>
      <trkpt lat="44.21311" lon="0.54217">
        <ele>83.50132</ele>
        <time>2022-12-29T12:33:39.914Z</time>
      </trkpt>
      <trkpt lat="44.21315" lon="0.54234">
        <ele>83.609988</ele>
        <time>2022-12-29T12:33:42.918Z</time>
      </trkpt>
      <trkpt lat="44.2132" lon="0.54251">
        <ele>83.684977</ele>
        <time>2022-12-29T12:33:45.918Z</time>
      </trkpt>
      <trkpt lat="44.21323" lon="0.54263">
        <ele>83.731592</ele>
        <time>2022-12-29T12:33:47.904Z</time>
      </trkpt>
      <trkpt lat="44.21327" lon="0.5428">
        <ele>83.799121</ele>
        <time>2022-12-29T12:33:50.918Z</time>
      </trkpt>
      <trkpt lat="44.2133" lon="0.54297">
        <ele>83.863721</ele>
        <time>2022-12-29T12:33:53.921Z</time>
      </trkpt>
      <trkpt lat="44.21333" lon="0.54315">
        <ele>83.929518</ele>
        <time>2022-12-29T12:33:56.907Z</time>
      </trkpt>
      <trkpt lat="44.21337" lon="0.54331">
        <ele>83.993547</ele>
        <time>2022-12-29T12:33:59.917Z</time>
      </trkpt>
      <trkpt lat="44.2134" lon="0.54349">
        <ele>84.06209</ele>
        <time>2022-12-29T12:34:02.918Z</time>
      </trkpt>
      <trkpt lat="44.21343" lon="0.54362">
        <ele>84.109076</ele>
        <time>2022-12-29T12:34:04.917Z</time>
      </trkpt>
      <trkpt lat="44.21346" lon="0.54374">
        <ele>84.155265</ele>
        <time>2022-12-29T12:34:06.921Z</time>
      </trkpt>
      <trkpt lat="44.2135" lon="0.54392">
        <ele>84.225939</ele>
        <time>2022-12-29T12:34:09.929Z</time>
      </trkpt>
      <trkpt lat="44.21355" lon="0.54409">
        <ele>84.291787</ele>
        <time>2022-12-29T12:34:12.921Z</time>
      </trkpt>
      <trkpt lat="44.21359" lon="0.54427">
        <ele>84.360759</ele>
        <time>2022-12-29T12:34:15.919Z</time>
      </trkpt>
      <trkpt lat="44.21362" lon="0.54445">
        <ele>84.42878</ele>
        <time>2022-12-29T12:34:18.916Z</time>
      </trkpt>
      <trkpt lat="44.21364" lon="0.54458">
        <ele>84.478522</ele>
        <time>2022-12-29T12:34:20.919Z</time>
      </trkpt>
      <trkpt lat="44.21367" lon="0.5447">
        <ele>84.527037</ele>
        <time>2022-12-29T12:34:22.913Z</time>
      </trkpt>
      <trkpt lat="44.21372" lon="0.54487">
        <ele>84.645478</ele>
        <time>2022-12-29T12:34:25.976Z</time>
      </trkpt>
      <trkpt lat="44.21375" lon="0.54503">
        <ele>84.813195</ele>
        <time>2022-12-29T12:34:28.916Z</time>
      </trkpt>
      <trkpt lat="44.21378" lon="0.54518">
        <ele>84.973728</ele>
        <time>2022-12-29T12:34:31.960Z</time>
      </trkpt>
      <trkpt lat="44.21382" lon="0.54533">
        <ele>85.128898</ele>
        <time>2022-12-29T12:34:34.917Z</time>
      </trkpt>
      <trkpt lat="44.21385" lon="0.54547">
        <ele>85.277936</ele>
        <time>2022-12-29T12:34:37.950Z</time>
      </trkpt>
      <trkpt lat="44.21388" lon="0.54561">
        <ele>85.420441</ele>
        <time>2022-12-29T12:34:40.918Z</time>
      </trkpt>
      <trkpt lat="44.21391" lon="0.54576">
        <ele>85.575063</ele>
        <time>2022-12-29T12:34:43.966Z</time>
      </trkpt>
      <trkpt lat="44.21394" lon="0.54592">
        <ele>85.741014</ele>
        <time>2022-12-29T12:34:46.917Z</time>
      </trkpt>
      <trkpt lat="44.21397" lon="0.54608">
        <ele>85.906942</ele>
        <time>2022-12-29T12:34:49.973Z</time>
      </trkpt>
      <trkpt lat="44.21401" lon="0.54624">
        <ele>86.081211</ele>
        <time>2022-12-29T12:34:52.924Z</time>
      </trkpt>
      <trkpt lat="44.21405" lon="0.54641">
        <ele>86.254006</ele>
        <time>2022-12-29T12:34:55.964Z</time>
      </trkpt>
      <trkpt lat="44.2141" lon="0.54657">
        <ele>86.429162</ele>
        <time>2022-12-29T12:34:58.914Z</time>
      </trkpt>
      <trkpt lat="44.21413" lon="0.54674">
        <ele>86.607226</ele>
        <time>2022-12-29T12:35:01.991Z</time>
      </trkpt>
      <trkpt lat="44.21417" lon="0.54692">
        <ele>86.788284</ele>
        <time>2022-12-29T12:35:04.914Z</time>
      </trkpt>
      <trkpt lat="44.21421" lon="0.54709">
        <ele>86.968788</ele>
        <time>2022-12-29T12:35:07.932Z</time>
      </trkpt>
      <trkpt lat="44.21424" lon="0.54727">
        <ele>87.061226</ele>
        <time>2022-12-29T12:35:10.920Z</time>
      </trkpt>
      <trkpt lat="44.21427" lon="0.5474">
        <ele>87.059133</ele>
        <time>2022-12-29T12:35:12.904Z</time>
      </trkpt>
      <trkpt lat="44.21431" lon="0.54757">
        <ele>87.056207</ele>
        <time>2022-12-29T12:35:15.917Z</time>
      </trkpt>
      <trkpt lat="44.21435" lon="0.54769">
        <ele>87.054195</ele>
        <time>2022-12-29T12:35:17.918Z</time>
      </trkpt>
      <trkpt lat="44.21438" lon="0.54787">
        <ele>87.051243</ele>
        <time>2022-12-29T12:35:20.918Z</time>
      </trkpt>
      <trkpt lat="44.21441" lon="0.54799">
        <ele>87.049263</ele>
        <time>2022-12-29T12:35:22.932Z</time>
      </trkpt>
      <trkpt lat="44.21445" lon="0.54817">
        <ele>87.046262</ele>
        <time>2022-12-29T12:35:25.969Z</time>
      </trkpt>
      <trkpt lat="44.21448" lon="0.5483">
        <ele>87.044187</ele>
        <time>2022-12-29T12:35:27.921Z</time>
      </trkpt>
      <trkpt lat="44.2145" lon="0.54843">
        <ele>87.042085</ele>
        <time>2022-12-29T12:35:29.919Z</time>
      </trkpt>
      <trkpt lat="44.21453" lon="0.54855">
        <ele>87.039946</ele>
        <time>2022-12-29T12:35:31.968Z</time>
      </trkpt>
      <trkpt lat="44.21457" lon="0.54868">
        <ele>87.0378</ele>
        <time>2022-12-29T12:35:33.916Z</time>
      </trkpt>
      <trkpt lat="44.2146" lon="0.54881">
        <ele>87.035712</ele>
        <time>2022-12-29T12:35:35.918Z</time>
      </trkpt>
      <trkpt lat="44.21463" lon="0.54893">
        <ele>87.03361</ele>
        <time>2022-12-29T12:35:37.918Z</time>
      </trkpt>
      <trkpt lat="44.21466" lon="0.54906">
        <ele>87.031522</ele>
        <time>2022-12-29T12:35:39.917Z</time>
      </trkpt>
      <trkpt lat="44.21469" lon="0.54918">
        <ele>87.029435</ele>
        <time>2022-12-29T12:35:41.918Z</time>
      </trkpt>
      <trkpt lat="44.21472" lon="0.54931">
        <ele>87.027371</ele>
        <time>2022-12-29T12:35:43.900Z</time>
      </trkpt>
      <trkpt lat="44.21475" lon="0.54944">
        <ele>87.025232</ele>
        <time>2022-12-29T12:35:45.930Z</time>
      </trkpt>
      <trkpt lat="44.21477" lon="0.54957">
        <ele>87.023078</ele>
        <time>2022-12-29T12:35:47.919Z</time>
      </trkpt>
      <trkpt lat="44.21479" lon="0.54971">
        <ele>86.879211</ele>
        <time>2022-12-29T12:35:49.901Z</time>
      </trkpt>
      <trkpt lat="44.21481" lon="0.54984">
        <ele>86.745067</ele>
        <time>2022-12-29T12:35:51.919Z</time>
      </trkpt>
      <trkpt lat="44.21485" lon="0.54996">
        <ele>86.612852</ele>
        <time>2022-12-29T12:35:53.918Z</time>
      </trkpt>
      <trkpt lat="44.21488" lon="0.55008">
        <ele>86.48206</ele>
        <time>2022-12-29T12:35:55.921Z</time>
      </trkpt>
      <trkpt lat="44.21492" lon="0.55026">
        <ele>86.295422</ele>
        <time>2022-12-29T12:35:58.918Z</time>
      </trkpt>
      <trkpt lat="44.21495" lon="0.55038">
        <ele>86.162709</ele>
        <time>2022-12-29T12:36:00.920Z</time>
      </trkpt>
      <trkpt lat="44.21496" lon="0.55051">
        <ele>86.031615</ele>
        <time>2022-12-29T12:36:02.927Z</time>
      </trkpt>
      <trkpt lat="44.21499" lon="0.55064">
        <ele>85.896705</ele>
        <time>2022-12-29T12:36:04.920Z</time>
      </trkpt>
      <trkpt lat="44.21502" lon="0.55076">
        <ele>85.759719</ele>
        <time>2022-12-29T12:36:06.920Z</time>
      </trkpt>
      <trkpt lat="44.21504" lon="0.55093">
        <ele>85.587862</ele>
        <time>2022-12-29T12:36:09.912Z</time>
      </trkpt>
      <trkpt lat="44.21505" lon="0.55108">
        <ele>85.431454</ele>
        <time>2022-12-29T12:36:12.918Z</time>
      </trkpt>
      <trkpt lat="44.21507" lon="0.55121">
        <ele>85.298932</ele>
        <time>2022-12-29T12:36:15.920Z</time>
      </trkpt>
      <trkpt lat="44.21509" lon="0.55136">
        <ele>85.145213</ele>
        <time>2022-12-29T12:36:19.897Z</time>
      </trkpt>
      <trkpt lat="44.2151" lon="0.55152">
        <ele>84.982767</ele>
        <time>2022-12-29T12:36:23.918Z</time>
      </trkpt>
      <trkpt lat="44.21511" lon="0.55165">
        <ele>84.848012</ele>
        <time>2022-12-29T12:36:26.917Z</time>
      </trkpt>
      <trkpt lat="44.21512" lon="0.55181">
        <ele>84.683871</ele>
        <time>2022-12-29T12:36:29.917Z</time>
      </trkpt>
      <trkpt lat="44.21514" lon="0.55196">
        <ele>84.530647</ele>
        <time>2022-12-29T12:36:32.916Z</time>
      </trkpt>
      <trkpt lat="44.21515" lon="0.55211">
        <ele>84.535953</ele>
        <time>2022-12-29T12:36:35.919Z</time>
      </trkpt>
      <trkpt lat="44.21518" lon="0.55224">
        <ele>84.619322</ele>
        <time>2022-12-29T12:36:37.920Z</time>
      </trkpt>
      <trkpt lat="44.21517" lon="0.55241">
        <ele>84.72653</ele>
        <time>2022-12-29T12:36:40.919Z</time>
      </trkpt>
      <trkpt lat="44.21516" lon="0.55257">
        <ele>84.822532</ele>
        <time>2022-12-29T12:36:43.919Z</time>
      </trkpt>
      <trkpt lat="44.21516" lon="0.55272">
        <ele>84.917918</ele>
        <time>2022-12-29T12:36:46.919Z</time>
      </trkpt>
      <trkpt lat="44.21514" lon="0.5529">
        <ele>85.027526</ele>
        <time>2022-12-29T12:36:49.916Z</time>
      </trkpt>
      <trkpt lat="44.21514" lon="0.55305">
        <ele>85.11796</ele>
        <time>2022-12-29T12:36:52.920Z</time>
      </trkpt>
      <trkpt lat="44.21514" lon="0.55319">
        <ele>85.206544</ele>
        <time>2022-12-29T12:36:55.916Z</time>
      </trkpt>
      <trkpt lat="44.21513" lon="0.55333">
        <ele>85.291477</ele>
        <time>2022-12-29T12:36:58.917Z</time>
      </trkpt>
      <trkpt lat="44.21513" lon="0.55345">
        <ele>85.369721</ele>
        <time>2022-12-29T12:37:01.919Z</time>
      </trkpt>
      <trkpt lat="44.21512" lon="0.55358">
        <ele>85.450152</ele>
        <time>2022-12-29T12:37:04.922Z</time>
      </trkpt>
      <trkpt lat="44.21512" lon="0.55373">
        <ele>85.538126</ele>
        <time>2022-12-29T12:37:07.921Z</time>
      </trkpt>
      <trkpt lat="44.21511" lon="0.55386">
        <ele>85.620589</ele>
        <time>2022-12-29T12:37:10.920Z</time>
      </trkpt>
      <trkpt lat="44.21508" lon="0.55404">
        <ele>85.732777</ele>
        <time>2022-12-29T12:37:13.918Z</time>
      </trkpt>
      <trkpt lat="44.21504" lon="0.55421">
        <ele>85.844285</ele>
        <time>2022-12-29T12:37:16.920Z</time>
      </trkpt>
      <trkpt lat="44.21502" lon="0.55434">
        <ele>85.924712</ele>
        <time>2022-12-29T12:37:18.916Z</time>
      </trkpt>
      <trkpt lat="44.21498" lon="0.5545">
        <ele>86.04858</ele>
        <time>2022-12-29T12:37:21.918Z</time>
      </trkpt>
      <trkpt lat="44.21495" lon="0.55466">
        <ele>86.373785</ele>
        <time>2022-12-29T12:37:24.919Z</time>
      </trkpt>
      <trkpt lat="44.21492" lon="0.5548">
        <ele>86.677495</ele>
        <time>2022-12-29T12:37:27.914Z</time>
      </trkpt>
      <trkpt lat="44.21489" lon="0.55496">
        <ele>87.027462</ele>
        <time>2022-12-29T12:37:30.916Z</time>
      </trkpt>
      <trkpt lat="44.21486" lon="0.55512">
        <ele>87.357269</ele>
        <time>2022-12-29T12:37:33.916Z</time>
      </trkpt>
      <trkpt lat="44.21483" lon="0.55529">
        <ele>87.704196</ele>
        <time>2022-12-29T12:37:36.914Z</time>
      </trkpt>
      <trkpt lat="44.2148" lon="0.55546">
        <ele>88.06363</ele>
        <time>2022-12-29T12:37:39.920Z</time>
      </trkpt>
      <trkpt lat="44.21477" lon="0.55561">
        <ele>88.379199</ele>
        <time>2022-12-29T12:37:42.920Z</time>
      </trkpt>
      <trkpt lat="44.21475" lon="0.55575">
        <ele>88.678679</ele>
        <time>2022-12-29T12:37:45.916Z</time>
      </trkpt>
      <trkpt lat="44.21474" lon="0.55591">
        <ele>89.002134</ele>
        <time>2022-12-29T12:37:48.901Z</time>
      </trkpt>
      <trkpt lat="44.21472" lon="0.55604">
        <ele>89.256896</ele>
        <time>2022-12-29T12:37:50.917Z</time>
      </trkpt>
      <trkpt lat="44.21468" lon="0.55621">
        <ele>89.634452</ele>
        <time>2022-12-29T12:37:53.923Z</time>
      </trkpt>
      <trkpt lat="44.21464" lon="0.55639">
        <ele>90.009624</ele>
        <time>2022-12-29T12:37:56.922Z</time>
      </trkpt>
      <trkpt lat="44.21462" lon="0.55651">
        <ele>90.271664</ele>
        <time>2022-12-29T12:37:58.919Z</time>
      </trkpt>
      <trkpt lat="44.21458" lon="0.55668">
        <ele>90.616364</ele>
        <time>2022-12-29T12:38:01.921Z</time>
      </trkpt>
      <trkpt lat="44.21456" lon="0.55684">
        <ele>90.958035</ele>
        <time>2022-12-29T12:38:04.918Z</time>
      </trkpt>
      <trkpt lat="44.21452" lon="0.55701">
        <ele>91.169183</ele>
        <time>2022-12-29T12:38:07.931Z</time>
      </trkpt>
      <trkpt lat="44.21449" lon="0.55719">
        <ele>91.264689</ele>
        <time>2022-12-29T12:38:10.916Z</time>
      </trkpt>
      <trkpt lat="44.21446" lon="0.55737">
        <ele>91.364056</ele>
        <time>2022-12-29T12:38:13.917Z</time>
      </trkpt>
      <trkpt lat="44.21443" lon="0.55749">
        <ele>91.430767</ele>
        <time>2022-12-29T12:38:15.923Z</time>
      </trkpt>
      <trkpt lat="44.21441" lon="0.55761">
        <ele>91.497243</ele>
        <time>2022-12-29T12:38:17.916Z</time>
      </trkpt>
      <trkpt lat="44.21439" lon="0.55779">
        <ele>91.589232</ele>
        <time>2022-12-29T12:38:20.921Z</time>
      </trkpt>
      <trkpt lat="44.21436" lon="0.55797">
        <ele>91.688794</ele>
        <time>2022-12-29T12:38:23.931Z</time>
      </trkpt>
      <trkpt lat="44.21433" lon="0.55809">
        <ele>91.756011</ele>
        <time>2022-12-29T12:38:25.919Z</time>
      </trkpt>
      <trkpt lat="44.2143" lon="0.55826">
        <ele>91.848802</ele>
        <time>2022-12-29T12:38:28.922Z</time>
      </trkpt>
      <trkpt lat="44.21427" lon="0.55839">
        <ele>91.917345</ele>
        <time>2022-12-29T12:38:30.974Z</time>
      </trkpt>
      <trkpt lat="44.21425" lon="0.55853">
        <ele>91.992185</ele>
        <time>2022-12-29T12:38:32.918Z</time>
      </trkpt>
      <trkpt lat="44.21422" lon="0.55865">
        <ele>92.06025</ele>
        <time>2022-12-29T12:38:34.920Z</time>
      </trkpt>
      <trkpt lat="44.21419" lon="0.55878">
        <ele>92.129185</ele>
        <time>2022-12-29T12:38:36.962Z</time>
      </trkpt>
      <trkpt lat="44.21416" lon="0.55891">
        <ele>92.202188</ele>
        <time>2022-12-29T12:38:38.915Z</time>
      </trkpt>
      <trkpt lat="44.21414" lon="0.55903">
        <ele>92.270923</ele>
        <time>2022-12-29T12:38:40.915Z</time>
      </trkpt>
      <trkpt lat="44.2141" lon="0.55915">
        <ele>92.339603</ele>
        <time>2022-12-29T12:38:42.996Z</time>
      </trkpt>
      <trkpt lat="44.21408" lon="0.55929">
        <ele>92.412451</ele>
        <time>2022-12-29T12:38:44.895Z</time>
      </trkpt>
      <trkpt lat="44.21405" lon="0.55947">
        <ele>92.405004</ele>
        <time>2022-12-29T12:38:47.918Z</time>
      </trkpt>
      <trkpt lat="44.21402" lon="0.55959">
        <ele>92.375439</ele>
        <time>2022-12-29T12:38:49.918Z</time>
      </trkpt>
      <trkpt lat="44.21399" lon="0.55972">
        <ele>92.345678</ele>
        <time>2022-12-29T12:38:51.916Z</time>
      </trkpt>
      <trkpt lat="44.21397" lon="0.55985">
        <ele>92.315952</ele>
        <time>2022-12-29T12:38:53.903Z</time>
      </trkpt>
      <trkpt lat="44.21394" lon="0.55997">
        <ele>92.286387</ele>
        <time>2022-12-29T12:38:55.912Z</time>
      </trkpt>
      <trkpt lat="44.21392" lon="0.5601">
        <ele>92.256883</ele>
        <time>2022-12-29T12:38:57.917Z</time>
      </trkpt>
      <trkpt lat="44.2139" lon="0.56022">
        <ele>92.228416</ele>
        <time>2022-12-29T12:38:59.918Z</time>
      </trkpt>
      <trkpt lat="44.21387" lon="0.56035">
        <ele>92.197043</ele>
        <time>2022-12-29T12:39:01.916Z</time>
      </trkpt>
      <trkpt lat="44.21384" lon="0.56047">
        <ele>92.16779</ele>
        <time>2022-12-29T12:39:03.912Z</time>
      </trkpt>
      <trkpt lat="44.21381" lon="0.5606">
        <ele>92.137381</ele>
        <time>2022-12-29T12:39:05.901Z</time>
      </trkpt>
      <trkpt lat="44.21377" lon="0.56072">
        <ele>92.106119</ele>
        <time>2022-12-29T12:39:07.917Z</time>
      </trkpt>
      <trkpt lat="44.21373" lon="0.56085">
        <ele>92.075813</ele>
        <time>2022-12-29T12:39:09.919Z</time>
      </trkpt>
      <trkpt lat="44.2137" lon="0.56098">
        <ele>92.044872</ele>
        <time>2022-12-29T12:39:11.927Z</time>
      </trkpt>
      <trkpt lat="44.21367" lon="0.56111">
        <ele>92.012418</ele>
        <time>2022-12-29T12:39:13.914Z</time>
      </trkpt>
      <trkpt lat="44.21366" lon="0.56124">
        <ele>91.983038</ele>
        <time>2022-12-29T12:39:15.921Z</time>
      </trkpt>
      <trkpt lat="44.21362" lon="0.56136">
        <ele>91.953905</ele>
        <time>2022-12-29T12:39:17.915Z</time>
      </trkpt>
      <trkpt lat="44.21359" lon="0.56149">
        <ele>91.921945</ele>
        <time>2022-12-29T12:39:19.916Z</time>
      </trkpt>
      <trkpt lat="44.21357" lon="0.56166">
        <ele>91.883385</ele>
        <time>2022-12-29T12:39:22.918Z</time>
      </trkpt>
      <trkpt lat="44.21354" lon="0.56182">
        <ele>91.682045</ele>
        <time>2022-12-29T12:39:25.918Z</time>
      </trkpt>
      <trkpt lat="44.21349" lon="0.56198">
        <ele>91.328962</ele>
        <time>2022-12-29T12:39:28.911Z</time>
      </trkpt>
      <trkpt lat="44.21345" lon="0.56215">
        <ele>90.959543</ele>
        <time>2022-12-29T12:39:31.917Z</time>
      </trkpt>
      <trkpt lat="44.21342" lon="0.56234">
        <ele>90.559078</ele>
        <time>2022-12-29T12:39:34.919Z</time>
      </trkpt>
      <trkpt lat="44.21339" lon="0.56246">
        <ele>90.29447</ele>
        <time>2022-12-29T12:39:36.918Z</time>
      </trkpt>
      <trkpt lat="44.21335" lon="0.56259">
        <ele>90.010483</ele>
        <time>2022-12-29T12:39:38.921Z</time>
      </trkpt>
      <trkpt lat="44.2133" lon="0.56277">
        <ele>89.618681</ele>
        <time>2022-12-29T12:39:41.917Z</time>
      </trkpt>
      <trkpt lat="44.21327" lon="0.5629">
        <ele>89.33928</ele>
        <time>2022-12-29T12:39:43.918Z</time>
      </trkpt>
      <trkpt lat="44.21323" lon="0.56303">
        <ele>89.05422</ele>
        <time>2022-12-29T12:39:45.902Z</time>
      </trkpt>
      <trkpt lat="44.2132" lon="0.56315">
        <ele>88.792386</ele>
        <time>2022-12-29T12:39:47.920Z</time>
      </trkpt>
      <trkpt lat="44.21316" lon="0.56326">
        <ele>88.536295</ele>
        <time>2022-12-29T12:39:49.921Z</time>
      </trkpt>
      <trkpt lat="44.2131" lon="0.56341">
        <ele>88.189289</ele>
        <time>2022-12-29T12:39:52.919Z</time>
      </trkpt>
      <trkpt lat="44.21307" lon="0.56354">
        <ele>87.91686</ele>
        <time>2022-12-29T12:39:54.930Z</time>
      </trkpt>
      <trkpt lat="44.21303" lon="0.56367">
        <ele>87.625827</ele>
        <time>2022-12-29T12:39:56.968Z</time>
      </trkpt>
      <trkpt lat="44.213" lon="0.5638">
        <ele>87.344904</ele>
        <time>2022-12-29T12:39:58.920Z</time>
      </trkpt>
      <trkpt lat="44.21296" lon="0.56392">
        <ele>87.081169</ele>
        <time>2022-12-29T12:40:00.920Z</time>
      </trkpt>
      <trkpt lat="44.21292" lon="0.56407">
        <ele>86.74657</ele>
        <time>2022-12-29T12:40:03.920Z</time>
      </trkpt>
      <trkpt lat="44.21288" lon="0.56421">
        <ele>86.655219</ele>
        <time>2022-12-29T12:40:06.920Z</time>
      </trkpt>
      <trkpt lat="44.21284" lon="0.56436">
        <ele>86.561662</ele>
        <time>2022-12-29T12:40:09.921Z</time>
      </trkpt>
      <trkpt lat="44.21279" lon="0.56451">
        <ele>86.474385</ele>
        <time>2022-12-29T12:40:12.918Z</time>
      </trkpt>
      <trkpt lat="44.21274" lon="0.56467">
        <ele>86.374174</ele>
        <time>2022-12-29T12:40:15.917Z</time>
      </trkpt>
      <trkpt lat="44.21268" lon="0.56484">
        <ele>86.269924</ele>
        <time>2022-12-29T12:40:18.918Z</time>
      </trkpt>
      <trkpt lat="44.21263" lon="0.56501">
        <ele>86.167151</ele>
        <time>2022-12-29T12:40:21.919Z</time>
      </trkpt>
      <trkpt lat="44.21258" lon="0.56519">
        <ele>86.060978</ele>
        <time>2022-12-29T12:40:24.919Z</time>
      </trkpt>
      <trkpt lat="44.21254" lon="0.5653">
        <ele>85.988592</ele>
        <time>2022-12-29T12:40:26.962Z</time>
      </trkpt>
      <trkpt lat="44.2125" lon="0.56542">
        <ele>85.917536</ele>
        <time>2022-12-29T12:40:28.918Z</time>
      </trkpt>
      <trkpt lat="44.21246" lon="0.56553">
        <ele>85.846867</ele>
        <time>2022-12-29T12:40:30.918Z</time>
      </trkpt>
      <trkpt lat="44.21241" lon="0.56569">
        <ele>85.751986</ele>
        <time>2022-12-29T12:40:33.932Z</time>
      </trkpt>
      <trkpt lat="44.21236" lon="0.56586">
        <ele>85.647964</ele>
        <time>2022-12-29T12:40:36.920Z</time>
      </trkpt>
      <trkpt lat="44.21231" lon="0.56603">
        <ele>85.543552</ele>
        <time>2022-12-29T12:40:39.919Z</time>
      </trkpt>
      <trkpt lat="44.21224" lon="0.5662">
        <ele>85.438852</ele>
        <time>2022-12-29T12:40:42.922Z</time>
      </trkpt>
      <trkpt lat="44.21219" lon="0.56636">
        <ele>85.340802</ele>
        <time>2022-12-29T12:40:45.918Z</time>
      </trkpt>
      <trkpt lat="44.21214" lon="0.56653">
        <ele>85.440723</ele>
        <time>2022-12-29T12:40:48.911Z</time>
      </trkpt>
      <trkpt lat="44.2121" lon="0.56665">
        <ele>85.518051</ele>
        <time>2022-12-29T12:40:50.919Z</time>
      </trkpt>
      <trkpt lat="44.21207" lon="0.56677">
        <ele>85.59529</ele>
        <time>2022-12-29T12:40:52.918Z</time>
      </trkpt>
      <trkpt lat="44.21203" lon="0.5669">
        <ele>85.678959</ele>
        <time>2022-12-29T12:40:54.920Z</time>
      </trkpt>
      <trkpt lat="44.21198" lon="0.56701">
        <ele>85.755764</ele>
        <time>2022-12-29T12:40:56.916Z</time>
      </trkpt>
      <trkpt lat="44.21194" lon="0.56714">
        <ele>85.837681</ele>
        <time>2022-12-29T12:40:58.919Z</time>
      </trkpt>
      <trkpt lat="44.21188" lon="0.56732">
        <ele>85.952874</ele>
        <time>2022-12-29T12:41:01.993Z</time>
      </trkpt>
      <trkpt lat="44.21183" lon="0.56742">
        <ele>86.027045</ele>
        <time>2022-12-29T12:41:03.920Z</time>
      </trkpt>
      <trkpt lat="44.21178" lon="0.56756">
        <ele>86.115674</ele>
        <time>2022-12-29T12:41:06.917Z</time>
      </trkpt>
      <trkpt lat="44.21173" lon="0.5677">
        <ele>86.212086</ele>
        <time>2022-12-29T12:41:09.916Z</time>
      </trkpt>
      <trkpt lat="44.21168" lon="0.56786">
        <ele>86.31239</ele>
        <time>2022-12-29T12:41:12.921Z</time>
      </trkpt>
      <trkpt lat="44.21164" lon="0.56799">
        <ele>86.397654</ele>
        <time>2022-12-29T12:41:14.900Z</time>
      </trkpt>
      <trkpt lat="44.21158" lon="0.56811">
        <ele>86.481919</ele>
        <time>2022-12-29T12:41:16.919Z</time>
      </trkpt>
      <trkpt lat="44.21152" lon="0.56827">
        <ele>86.590392</ele>
        <time>2022-12-29T12:41:19.896Z</time>
      </trkpt>
      <trkpt lat="44.21146" lon="0.56838">
        <ele>86.670223</ele>
        <time>2022-12-29T12:41:21.919Z</time>
      </trkpt>
      <trkpt lat="44.21141" lon="0.56849">
        <ele>86.74798</ele>
        <time>2022-12-29T12:41:23.916Z</time>
      </trkpt>
      <trkpt lat="44.21135" lon="0.56867">
        <ele>87.016903</ele>
        <time>2022-12-29T12:41:26.916Z</time>
      </trkpt>
      <trkpt lat="44.21131" lon="0.56879">
        <ele>87.352834</ele>
        <time>2022-12-29T12:41:28.916Z</time>
      </trkpt>
      <trkpt lat="44.21124" lon="0.56896">
        <ele>87.819859</ele>
        <time>2022-12-29T12:41:31.902Z</time>
      </trkpt>
      <trkpt lat="44.21118" lon="0.56908">
        <ele>88.184993</ele>
        <time>2022-12-29T12:41:33.919Z</time>
      </trkpt>
      <trkpt lat="44.21113" lon="0.56919">
        <ele>88.499351</ele>
        <time>2022-12-29T12:41:35.917Z</time>
      </trkpt>
      <trkpt lat="44.2111" lon="0.56932">
        <ele>88.836882</ele>
        <time>2022-12-29T12:41:37.918Z</time>
      </trkpt>
      <trkpt lat="44.21106" lon="0.56943">
        <ele>89.152872</ele>
        <time>2022-12-29T12:41:39.922Z</time>
      </trkpt>
      <trkpt lat="44.21101" lon="0.56954">
        <ele>89.469341</ele>
        <time>2022-12-29T12:41:41.918Z</time>
      </trkpt>
      <trkpt lat="44.21094" lon="0.56968">
        <ele>89.892316</ele>
        <time>2022-12-29T12:41:44.918Z</time>
      </trkpt>
      <trkpt lat="44.21086" lon="0.56982">
        <ele>90.303526</ele>
        <time>2022-12-29T12:41:47.918Z</time>
      </trkpt>
      <trkpt lat="44.21081" lon="0.56995">
        <ele>90.685174</ele>
        <time>2022-12-29T12:41:50.897Z</time>
      </trkpt>
      <trkpt lat="44.21076" lon="0.57008">
        <ele>91.047333</ele>
        <time>2022-12-29T12:41:53.918Z</time>
      </trkpt>
      <trkpt lat="44.21071" lon="0.5702">
        <ele>91.379295</ele>
        <time>2022-12-29T12:41:56.917Z</time>
      </trkpt>
      <trkpt lat="44.21065" lon="0.57031">
        <ele>91.724815</ele>
        <time>2022-12-29T12:41:59.919Z</time>
      </trkpt>
      <trkpt lat="44.2106" lon="0.57045">
        <ele>92.113287</ele>
        <time>2022-12-29T12:42:02.924Z</time>
      </trkpt>
      <trkpt lat="44.21053" lon="0.57059">
        <ele>92.530797</ele>
        <time>2022-12-29T12:42:05.917Z</time>
      </trkpt>
      <trkpt lat="44.21046" lon="0.57074">
        <ele>92.965927</ele>
        <time>2022-12-29T12:42:08.917Z</time>
      </trkpt>
      <trkpt lat="44.2104" lon="0.57086">
        <ele>92.985404</ele>
        <time>2022-12-29T12:42:11.918Z</time>
      </trkpt>
      <trkpt lat="44.21034" lon="0.57101">
        <ele>93.000812</ele>
        <time>2022-12-29T12:42:14.921Z</time>
      </trkpt>
      <trkpt lat="44.21029" lon="0.57112">
        <ele>93.012535</ele>
        <time>2022-12-29T12:42:16.918Z</time>
      </trkpt>
      <trkpt lat="44.21022" lon="0.57128">
        <ele>93.029407</ele>
        <time>2022-12-29T12:42:19.921Z</time>
      </trkpt>
      <trkpt lat="44.21017" lon="0.57139">
        <ele>93.042023</ele>
        <time>2022-12-29T12:42:21.926Z</time>
      </trkpt>
      <trkpt lat="44.2101" lon="0.5715">
        <ele>93.054725</ele>
        <time>2022-12-29T12:42:23.972Z</time>
      </trkpt>
      <trkpt lat="44.21002" lon="0.57166">
        <ele>93.072287</ele>
        <time>2022-12-29T12:42:26.929Z</time>
      </trkpt>
      <trkpt lat="44.20996" lon="0.57178">
        <ele>93.086004</ele>
        <time>2022-12-29T12:42:28.902Z</time>
      </trkpt>
      <trkpt lat="44.20991" lon="0.5719">
        <ele>93.098856</ele>
        <time>2022-12-29T12:42:30.919Z</time>
      </trkpt>
      <trkpt lat="44.20986" lon="0.57201">
        <ele>93.110809</ele>
        <time>2022-12-29T12:42:32.920Z</time>
      </trkpt>
      <trkpt lat="44.20981" lon="0.57212">
        <ele>93.122616</ele>
        <time>2022-12-29T12:42:34.920Z</time>
      </trkpt>
      <trkpt lat="44.20974" lon="0.57225">
        <ele>93.137287</ele>
        <time>2022-12-29T12:42:37.919Z</time>
      </trkpt>
      <trkpt lat="44.20968" lon="0.57238">
        <ele>93.150939</ele>
        <time>2022-12-29T12:42:40.918Z</time>
      </trkpt>
      <trkpt lat="44.20962" lon="0.5725">
        <ele>93.164301</ele>
        <time>2022-12-29T12:42:43.919Z</time>
      </trkpt>
      <trkpt lat="44.20955" lon="0.57266">
        <ele>93.180544</ele>
        <time>2022-12-29T12:42:46.918Z</time>
      </trkpt>
      <trkpt lat="44.20948" lon="0.57281">
        <ele>93.196788</ele>
        <time>2022-12-29T12:42:49.918Z</time>
      </trkpt>
      <trkpt lat="44.20943" lon="0.57296">
        <ele>93.112775</ele>
        <time>2022-12-29T12:42:52.918Z</time>
      </trkpt>
      <trkpt lat="44.20936" lon="0.5731">
        <ele>93</ele>
        <time>2022-12-29T12:42:55.918Z</time>
      </trkpt>
      <trkpt lat="44.20929" lon="0.57325">
        <ele>92.887312</ele>
        <time>2022-12-29T12:42:58.917Z</time>
      </trkpt>
      <trkpt lat="44.20922" lon="0.5734">
        <ele>92.774586</ele>
        <time>2022-12-29T12:43:01.918Z</time>
      </trkpt>
      <trkpt lat="44.20916" lon="0.5735">
        <ele>92.691276</ele>
        <time>2022-12-29T12:43:03.920Z</time>
      </trkpt>
      <trkpt lat="44.20909" lon="0.57365">
        <ele>92.570777</ele>
        <time>2022-12-29T12:43:06.927Z</time>
      </trkpt>
      <trkpt lat="44.20903" lon="0.57377">
        <ele>92.481015</ele>
        <time>2022-12-29T12:43:08.922Z</time>
      </trkpt>
      <trkpt lat="44.20896" lon="0.57391">
        <ele>92.368868</ele>
        <time>2022-12-29T12:43:11.919Z</time>
      </trkpt>
      <trkpt lat="44.20889" lon="0.57402">
        <ele>92.274908</ele>
        <time>2022-12-29T12:43:14.918Z</time>
      </trkpt>
      <trkpt lat="44.20884" lon="0.57414">
        <ele>92.18432</ele>
        <time>2022-12-29T12:43:17.923Z</time>
      </trkpt>
      <trkpt lat="44.20878" lon="0.57428">
        <ele>92.079973</ele>
        <time>2022-12-29T12:43:20.918Z</time>
      </trkpt>
      <trkpt lat="44.2087" lon="0.57443">
        <ele>91.961512</ele>
        <time>2022-12-29T12:43:23.917Z</time>
      </trkpt>
      <trkpt lat="44.20863" lon="0.57458">
        <ele>91.841521</ele>
        <time>2022-12-29T12:43:26.917Z</time>
      </trkpt>
      <trkpt lat="44.20856" lon="0.57473">
        <ele>91.725113</ele>
        <time>2022-12-29T12:43:29.904Z</time>
      </trkpt>
      <trkpt lat="44.20849" lon="0.57489">
        <ele>91.608799</ele>
        <time>2022-12-29T12:43:32.898Z</time>
      </trkpt>
      <trkpt lat="44.20844" lon="0.575">
        <ele>91.424821</ele>
        <time>2022-12-29T12:43:34.907Z</time>
      </trkpt>
      <trkpt lat="44.20838" lon="0.5751">
        <ele>91.193161</ele>
        <time>2022-12-29T12:43:36.918Z</time>
      </trkpt>
      <trkpt lat="44.20834" lon="0.57522">
        <ele>90.965223</ele>
        <time>2022-12-29T12:43:38.917Z</time>
      </trkpt>
      <trkpt lat="44.20827" lon="0.57537">
        <ele>90.648476</ele>
        <time>2022-12-29T12:43:41.916Z</time>
      </trkpt>
      <trkpt lat="44.2082" lon="0.57551">
        <ele>90.351394</ele>
        <time>2022-12-29T12:43:44.982Z</time>
      </trkpt>
      <trkpt lat="44.20817" lon="0.57567">
        <ele>90.057423</ele>
        <time>2022-12-29T12:43:47.918Z</time>
      </trkpt>
      <trkpt lat="44.20813" lon="0.57581">
        <ele>89.808867</ele>
        <time>2022-12-29T12:43:49.935Z</time>
      </trkpt>
      <trkpt lat="44.2081" lon="0.57593">
        <ele>89.583337</ele>
        <time>2022-12-29T12:43:51.921Z</time>
      </trkpt>
      <trkpt lat="44.20807" lon="0.57605">
        <ele>89.357677</ele>
        <time>2022-12-29T12:43:53.918Z</time>
      </trkpt>
      <trkpt lat="44.20803" lon="0.57619">
        <ele>89.103168</ele>
        <time>2022-12-29T12:43:55.919Z</time>
      </trkpt>
      <trkpt lat="44.20798" lon="0.57633">
        <ele>88.827008</ele>
        <time>2022-12-29T12:43:57.910Z</time>
      </trkpt>
      <trkpt lat="44.20793" lon="0.57647">
        <ele>88.545066</ele>
        <time>2022-12-29T12:43:59.918Z</time>
      </trkpt>
      <trkpt lat="44.20787" lon="0.57662">
        <ele>88.252308</ele>
        <time>2022-12-29T12:44:01.918Z</time>
      </trkpt>
      <trkpt lat="44.2078" lon="0.57676">
        <ele>87.946623</ele>
        <time>2022-12-29T12:44:03.905Z</time>
      </trkpt>
      <trkpt lat="44.20773" lon="0.57691">
        <ele>87.645275</ele>
        <time>2022-12-29T12:44:05.916Z</time>
      </trkpt>
      <trkpt lat="44.20766" lon="0.57706">
        <ele>87.333258</ele>
        <time>2022-12-29T12:44:07.918Z</time>
      </trkpt>
      <trkpt lat="44.20759" lon="0.57717">
        <ele>87.391421</ele>
        <time>2022-12-29T12:44:09.903Z</time>
      </trkpt>
      <trkpt lat="44.20754" lon="0.57728">
        <ele>87.741152</ele>
        <time>2022-12-29T12:44:11.932Z</time>
      </trkpt>
      <trkpt lat="44.20747" lon="0.57741">
        <ele>88.189482</ele>
        <time>2022-12-29T12:44:14.998Z</time>
      </trkpt>
      <trkpt lat="44.2074" lon="0.57751">
        <ele>88.605609</ele>
        <time>2022-12-29T12:44:17.899Z</time>
      </trkpt>
      <trkpt lat="44.20731" lon="0.57763">
        <ele>89.074135</ele>
        <time>2022-12-29T12:44:21.916Z</time>
      </trkpt>
      <trkpt lat="44.20724" lon="0.57772">
        <ele>89.440444</ele>
        <time>2022-12-29T12:44:24.917Z</time>
      </trkpt>
      <trkpt lat="44.20716" lon="0.57782">
        <ele>89.841436</ele>
        <time>2022-12-29T12:44:27.921Z</time>
      </trkpt>
      <trkpt lat="44.20707" lon="0.57792">
        <ele>90.286263</ele>
        <time>2022-12-29T12:44:31.915Z</time>
      </trkpt>
      <trkpt lat="44.20701" lon="0.57802">
        <ele>90.655039</ele>
        <time>2022-12-29T12:44:35.917Z</time>
      </trkpt>
      <trkpt lat="44.20694" lon="0.57812">
        <ele>91.019835</ele>
        <time>2022-12-29T12:44:39.918Z</time>
      </trkpt>
      <trkpt lat="44.20688" lon="0.57823">
        <ele>91.414285</ele>
        <time>2022-12-29T12:44:43.979Z</time>
      </trkpt>
      <trkpt lat="44.20683" lon="0.57834">
        <ele>91.770743</ele>
        <time>2022-12-29T12:44:46.916Z</time>
      </trkpt>
      <trkpt lat="44.20678" lon="0.57846">
        <ele>92.158854</ele>
        <time>2022-12-29T12:44:49.936Z</time>
      </trkpt>
      <trkpt lat="44.20671" lon="0.57857">
        <ele>92.555772</ele>
        <time>2022-12-29T12:44:52.920Z</time>
      </trkpt>
      <trkpt lat="44.20666" lon="0.57869">
        <ele>92.946778</ele>
        <time>2022-12-29T12:44:55.965Z</time>
      </trkpt>
      <trkpt lat="44.2066" lon="0.57883">
        <ele>93.371699</ele>
        <time>2022-12-29T12:44:59.916Z</time>
      </trkpt>
      <trkpt lat="44.20655" lon="0.57895">
        <ele>93.773783</ele>
        <time>2022-12-29T12:45:04.916Z</time>
      </trkpt>
      <trkpt lat="44.2065" lon="0.57908">
        <ele>94.10884</ele>
        <time>2022-12-29T12:45:08.917Z</time>
      </trkpt>
      <trkpt lat="44.20644" lon="0.57919">
        <ele>94.086515</ele>
        <time>2022-12-29T12:45:11.918Z</time>
      </trkpt>
      <trkpt lat="44.20637" lon="0.57934">
        <ele>94.05679</ele>
        <time>2022-12-29T12:45:15.916Z</time>
      </trkpt>
      <trkpt lat="44.20632" lon="0.57948">
        <ele>94.029932</ele>
        <time>2022-12-29T12:45:18.916Z</time>
      </trkpt>
      <trkpt lat="44.20626" lon="0.57962">
        <ele>94.002214</ele>
        <time>2022-12-29T12:45:21.919Z</time>
      </trkpt>
      <trkpt lat="44.20619" lon="0.57976">
        <ele>93.974085</ele>
        <time>2022-12-29T12:45:24.968Z</time>
      </trkpt>
      <trkpt lat="44.20613" lon="0.5799">
        <ele>93.946964</ele>
        <time>2022-12-29T12:45:27.914Z</time>
      </trkpt>
      <trkpt lat="44.20605" lon="0.58004">
        <ele>93.917529</ele>
        <time>2022-12-29T12:45:30.980Z</time>
      </trkpt>
      <trkpt lat="44.20598" lon="0.58018">
        <ele>93.887411</ele>
        <time>2022-12-29T12:45:33.919Z</time>
      </trkpt>
      <trkpt lat="44.20591" lon="0.58032">
        <ele>93.858106</ele>
        <time>2022-12-29T12:45:36.994Z</time>
      </trkpt>
      <trkpt lat="44.20583" lon="0.58047">
        <ele>93.828399</ele>
        <time>2022-12-29T12:45:39.918Z</time>
      </trkpt>
      <trkpt lat="44.20576" lon="0.58061">
        <ele>93.79896</ele>
        <time>2022-12-29T12:45:42.974Z</time>
      </trkpt>
      <trkpt lat="44.20569" lon="0.58076">
        <ele>93.767674</ele>
        <time>2022-12-29T12:45:45.921Z</time>
      </trkpt>
      <trkpt lat="44.20563" lon="0.58087">
        <ele>93.746317</ele>
        <time>2022-12-29T12:45:47.919Z</time>
      </trkpt>
      <trkpt lat="44.20559" lon="0.58098">
        <ele>93.724952</ele>
        <time>2022-12-29T12:45:49.930Z</time>
      </trkpt>
      <trkpt lat="44.20553" lon="0.5811">
        <ele>93.700834</ele>
        <time>2022-12-29T12:45:51.918Z</time>
      </trkpt>
      <trkpt lat="44.20547" lon="0.58125">
        <ele>93.653343</ele>
        <time>2022-12-29T12:45:54.975Z</time>
      </trkpt>
      <trkpt lat="44.20539" lon="0.58139">
        <ele>93.60087</ele>
        <time>2022-12-29T12:45:57.916Z</time>
      </trkpt>
      <trkpt lat="44.20533" lon="0.58151">
        <ele>93.554641</ele>
        <time>2022-12-29T12:46:00.970Z</time>
      </trkpt>
      <trkpt lat="44.20526" lon="0.58164">
        <ele>93.507164</ele>
        <time>2022-12-29T12:46:03.919Z</time>
      </trkpt>
      <trkpt lat="44.2052" lon="0.58179">
        <ele>93.452776</ele>
        <time>2022-12-29T12:46:06.971Z</time>
      </trkpt>
      <trkpt lat="44.20513" lon="0.58193">
        <ele>93.402226</ele>
        <time>2022-12-29T12:46:09.918Z</time>
      </trkpt>
      <trkpt lat="44.20506" lon="0.58208">
        <ele>93.346977</ele>
        <time>2022-12-29T12:46:12.992Z</time>
      </trkpt>
      <trkpt lat="44.20501" lon="0.5822">
        <ele>93.304191</ele>
        <time>2022-12-29T12:46:14.917Z</time>
      </trkpt>
      <trkpt lat="44.20493" lon="0.58235">
        <ele>93.24749</ele>
        <time>2022-12-29T12:46:17.914Z</time>
      </trkpt>
      <trkpt lat="44.20488" lon="0.58245">
        <ele>93.208219</ele>
        <time>2022-12-29T12:46:19.915Z</time>
      </trkpt>
      <trkpt lat="44.20481" lon="0.58258">
        <ele>93.158751</ele>
        <time>2022-12-29T12:46:22.923Z</time>
      </trkpt>
      <trkpt lat="44.20474" lon="0.58274">
        <ele>93.103036</ele>
        <time>2022-12-29T12:46:25.919Z</time>
      </trkpt>
      <trkpt lat="44.20465" lon="0.58289">
        <ele>93.04281</ele>
        <time>2022-12-29T12:46:28.930Z</time>
      </trkpt>
      <trkpt lat="44.20459" lon="0.58301">
        <ele>92.999549</ele>
        <time>2022-12-29T12:46:30.991Z</time>
      </trkpt>
      <trkpt lat="44.20455" lon="0.58312">
        <ele>92.9588</ele>
        <time>2022-12-29T12:46:32.915Z</time>
      </trkpt>
      <trkpt lat="44.20449" lon="0.58324">
        <ele>92.907814</ele>
        <time>2022-12-29T12:46:34.902Z</time>
      </trkpt>
      <trkpt lat="44.20445" lon="0.58336">
        <ele>92.808861</ele>
        <time>2022-12-29T12:46:36.970Z</time>
      </trkpt>
      <trkpt lat="44.20437" lon="0.5835">
        <ele>92.679469</ele>
        <time>2022-12-29T12:46:39.920Z</time>
      </trkpt>
      <trkpt lat="44.20432" lon="0.5836">
        <ele>92.587452</ele>
        <time>2022-12-29T12:46:41.926Z</time>
      </trkpt>
      <trkpt lat="44.20425" lon="0.58376">
        <ele>92.455276</ele>
        <time>2022-12-29T12:46:44.919Z</time>
      </trkpt>
      <trkpt lat="44.20419" lon="0.58391">
        <ele>92.323274</ele>
        <time>2022-12-29T12:46:47.919Z</time>
      </trkpt>
      <trkpt lat="44.20413" lon="0.58402">
        <ele>92.231257</ele>
        <time>2022-12-29T12:46:49.925Z</time>
      </trkpt>
      <trkpt lat="44.20406" lon="0.58417">
        <ele>92.097119</ele>
        <time>2022-12-29T12:46:52.918Z</time>
      </trkpt>
      <trkpt lat="44.20399" lon="0.58431">
        <ele>91.970369</ele>
        <time>2022-12-29T12:46:55.903Z</time>
      </trkpt>
      <trkpt lat="44.20393" lon="0.58446">
        <ele>91.842995</ele>
        <time>2022-12-29T12:46:58.917Z</time>
      </trkpt>
      <trkpt lat="44.20387" lon="0.58458">
        <ele>91.742602</ele>
        <time>2022-12-29T12:47:00.917Z</time>
      </trkpt>
      <trkpt lat="44.20381" lon="0.58468">
        <ele>91.647931</ele>
        <time>2022-12-29T12:47:02.916Z</time>
      </trkpt>
      <trkpt lat="44.20376" lon="0.58478">
        <ele>91.555309</ele>
        <time>2022-12-29T12:47:04.919Z</time>
      </trkpt>
      <trkpt lat="44.20369" lon="0.58493">
        <ele>91.422354</ele>
        <time>2022-12-29T12:47:07.919Z</time>
      </trkpt>
      <trkpt lat="44.20363" lon="0.58508">
        <ele>91.295963</ele>
        <time>2022-12-29T12:47:10.921Z</time>
      </trkpt>
      <trkpt lat="44.20357" lon="0.58521">
        <ele>91.187776</ele>
        <time>2022-12-29T12:47:13.918Z</time>
      </trkpt>
      <trkpt lat="44.20354" lon="0.58533">
        <ele>91.090929</ele>
        <time>2022-12-29T12:47:16.968Z</time>
      </trkpt>
      <trkpt lat="44.20354" lon="0.58549">
        <ele>91.018633</ele>
        <time>2022-12-29T12:47:20.917Z</time>
      </trkpt>
      <trkpt lat="44.20354" lon="0.58564">
        <ele>90.94863</ele>
        <time>2022-12-29T12:47:23.903Z</time>
      </trkpt>
      <trkpt lat="44.20357" lon="0.58578">
        <ele>90.882185</ele>
        <time>2022-12-29T12:47:26.921Z</time>
      </trkpt>
      <trkpt lat="44.2036" lon="0.58594">
        <ele>90.805406</ele>
        <time>2022-12-29T12:47:29.917Z</time>
      </trkpt>
      <trkpt lat="44.20363" lon="0.5861">
        <ele>90.730305</ele>
        <time>2022-12-29T12:47:32.917Z</time>
      </trkpt>
      <trkpt lat="44.20366" lon="0.58624">
        <ele>90.661805</ele>
        <time>2022-12-29T12:47:35.902Z</time>
      </trkpt>
      <trkpt lat="44.20371" lon="0.58637">
        <ele>90.596607</ele>
        <time>2022-12-29T12:47:38.919Z</time>
      </trkpt>
      <trkpt lat="44.20374" lon="0.5865">
        <ele>90.531272</ele>
        <time>2022-12-29T12:47:41.918Z</time>
      </trkpt>
      <trkpt lat="44.20376" lon="0.58664">
        <ele>90.466763</ele>
        <time>2022-12-29T12:47:44.906Z</time>
      </trkpt>
      <trkpt lat="44.20378" lon="0.58677">
        <ele>90.404952</ele>
        <time>2022-12-29T12:47:47.915Z</time>
      </trkpt>
      <trkpt lat="44.20382" lon="0.58692">
        <ele>90.33333</ele>
        <time>2022-12-29T12:47:52.993Z</time>
      </trkpt>
      <trkpt lat="44.20385" lon="0.58704">
        <ele>90.273708</ele>
        <time>2022-12-29T12:47:56.933Z</time>
      </trkpt>
      <trkpt lat="44.20387" lon="0.58716">
        <ele>90.215795</ele>
        <time>2022-12-29T12:47:59.901Z</time>
      </trkpt>
      <trkpt lat="44.20391" lon="0.5873">
        <ele>90.148031</ele>
        <time>2022-12-29T12:48:02.913Z</time>
      </trkpt>
      <trkpt lat="44.20395" lon="0.58745">
        <ele>90.075193</ele>
        <time>2022-12-29T12:48:05.902Z</time>
      </trkpt>
      <trkpt lat="44.20398" lon="0.58761">
        <ele>89.998792</ele>
        <time>2022-12-29T12:48:08.919Z</time>
      </trkpt>
      <trkpt lat="44.20401" lon="0.58774">
        <ele>89.941407</ele>
        <time>2022-12-29T12:48:11.918Z</time>
      </trkpt>
      <trkpt lat="44.20405" lon="0.58788">
        <ele>90.420073</ele>
        <time>2022-12-29T12:48:15.918Z</time>
      </trkpt>
      <trkpt lat="44.20409" lon="0.588">
        <ele>90.815314</ele>
        <time>2022-12-29T12:48:18.918Z</time>
      </trkpt>
      <trkpt lat="44.20412" lon="0.58815">
        <ele>91.313352</ele>
        <time>2022-12-29T12:48:21.897Z</time>
      </trkpt>
      <trkpt lat="44.20415" lon="0.58832">
        <ele>91.831568</ele>
        <time>2022-12-29T12:48:24.919Z</time>
      </trkpt>
      <trkpt lat="44.20417" lon="0.58844">
        <ele>92.225371</ele>
        <time>2022-12-29T12:48:26.919Z</time>
      </trkpt>
      <trkpt lat="44.2042" lon="0.58856">
        <ele>92.61525</ele>
        <time>2022-12-29T12:48:28.967Z</time>
      </trkpt>
      <trkpt lat="44.20425" lon="0.58873">
        <ele>93.183669</ele>
        <time>2022-12-29T12:48:31.932Z</time>
      </trkpt>
      <trkpt lat="44.20429" lon="0.58891">
        <ele>93.778884</ele>
        <time>2022-12-29T12:48:34.905Z</time>
      </trkpt>
      <trkpt lat="44.20434" lon="0.58909">
        <ele>94.358682</ele>
        <time>2022-12-29T12:48:37.916Z</time>
      </trkpt>
      <trkpt lat="44.20439" lon="0.58924">
        <ele>94.863732</ele>
        <time>2022-12-29T12:48:40.916Z</time>
      </trkpt>
      <trkpt lat="44.20442" lon="0.58937">
        <ele>95.291434</ele>
        <time>2022-12-29T12:48:44.917Z</time>
      </trkpt>
      <trkpt lat="44.20447" lon="0.58949">
        <ele>95.725708</ele>
        <time>2022-12-29T12:49:12.919Z</time>
      </trkpt>
      <trkpt lat="44.20449" lon="0.58962">
        <ele>96.145825</ele>
        <time>2022-12-29T12:49:18.917Z</time>
      </trkpt>
      <trkpt lat="44.20453" lon="0.58976">
        <ele>96.594087</ele>
        <time>2022-12-29T12:49:22.916Z</time>
      </trkpt>
      <trkpt lat="44.20456" lon="0.58989">
        <ele>97.030924</ele>
        <time>2022-12-29T12:49:26.915Z</time>
      </trkpt>
      <trkpt lat="44.20458" lon="0.59003">
        <ele>97.457882</ele>
        <time>2022-12-29T12:49:29.901Z</time>
      </trkpt>
      <trkpt lat="44.20461" lon="0.59018">
        <ele>97.641106</ele>
        <time>2022-12-29T12:49:32.964Z</time>
      </trkpt>
      <trkpt lat="44.20463" lon="0.59032">
        <ele>97.549035</ele>
        <time>2022-12-29T12:49:35.920Z</time>
      </trkpt>
      <trkpt lat="44.20467" lon="0.59046">
        <ele>97.454873</ele>
        <time>2022-12-29T12:49:38.916Z</time>
      </trkpt>
      <trkpt lat="44.20472" lon="0.59061">
        <ele>97.34903</ele>
        <time>2022-12-29T12:49:41.934Z</time>
      </trkpt>
      <trkpt lat="44.20475" lon="0.59075">
        <ele>97.255156</ele>
        <time>2022-12-29T12:49:44.918Z</time>
      </trkpt>
      <trkpt lat="44.20477" lon="0.59088">
        <ele>97.174186</ele>
        <time>2022-12-29T12:49:47.917Z</time>
      </trkpt>
      <trkpt lat="44.2048" lon="0.59103">
        <ele>97.074277</ele>
        <time>2022-12-29T12:49:51.921Z</time>
      </trkpt>
      <trkpt lat="44.20483" lon="0.59119">
        <ele>96.965556</ele>
        <time>2022-12-29T12:49:55.972Z</time>
      </trkpt>
      <trkpt lat="44.20486" lon="0.59132">
        <ele>96.882443</ele>
        <time>2022-12-29T12:49:57.923Z</time>
      </trkpt>
      <trkpt lat="44.20489" lon="0.59148">
        <ele>96.775242</ele>
        <time>2022-12-29T12:50:00.921Z</time>
      </trkpt>
      <trkpt lat="44.20492" lon="0.59164">
        <ele>96.670809</ele>
        <time>2022-12-29T12:50:03.916Z</time>
      </trkpt>
      <trkpt lat="44.20495" lon="0.59179">
        <ele>96.572636</ele>
        <time>2022-12-29T12:50:06.921Z</time>
      </trkpt>
      <trkpt lat="44.20498" lon="0.59195">
        <ele>96.467629</ele>
        <time>2022-12-29T12:50:09.917Z</time>
      </trkpt>
      <trkpt lat="44.20501" lon="0.59211">
        <ele>96.363436</ele>
        <time>2022-12-29T12:50:12.917Z</time>
      </trkpt>
      <trkpt lat="44.20503" lon="0.59226">
        <ele>96.264384</ele>
        <time>2022-12-29T12:50:15.916Z</time>
      </trkpt>
      <trkpt lat="44.20508" lon="0.59241">
        <ele>96.163217</ele>
        <time>2022-12-29T12:50:18.917Z</time>
      </trkpt>
      <trkpt lat="44.20513" lon="0.59256">
        <ele>95.904549</ele>
        <time>2022-12-29T12:50:21.915Z</time>
      </trkpt>
      <trkpt lat="44.20517" lon="0.59268">
        <ele>95.550221</ele>
        <time>2022-12-29T12:50:23.916Z</time>
      </trkpt>
      <trkpt lat="44.2052" lon="0.5928">
        <ele>95.199803</ele>
        <time>2022-12-29T12:50:25.914Z</time>
      </trkpt>
      <trkpt lat="44.20523" lon="0.59297">
        <ele>94.687685</ele>
        <time>2022-12-29T12:50:28.898Z</time>
      </trkpt>
      <trkpt lat="44.20525" lon="0.59311">
        <ele>94.2927</ele>
        <time>2022-12-29T12:50:30.963Z</time>
      </trkpt>
      <trkpt lat="44.20529" lon="0.59329">
        <ele>93.768112</ele>
        <time>2022-12-29T12:50:33.919Z</time>
      </trkpt>
      <trkpt lat="44.20534" lon="0.59345">
        <ele>93.284868</ele>
        <time>2022-12-29T12:50:36.979Z</time>
      </trkpt>
      <trkpt lat="44.20536" lon="0.59358">
        <ele>92.921447</ele>
        <time>2022-12-29T12:50:39.918Z</time>
      </trkpt>
      <trkpt lat="44.20538" lon="0.59372">
        <ele>92.513959</ele>
        <time>2022-12-29T12:50:42.976Z</time>
      </trkpt>
      <trkpt lat="44.20542" lon="0.59388">
        <ele>92.064158</ele>
        <time>2022-12-29T12:50:45.918Z</time>
      </trkpt>
      <trkpt lat="44.20547" lon="0.59405">
        <ele>91.559257</ele>
        <time>2022-12-29T12:50:48.995Z</time>
      </trkpt>
      <trkpt lat="44.20551" lon="0.59421">
        <ele>91.056806</ele>
        <time>2022-12-29T12:50:51.925Z</time>
      </trkpt>
      <trkpt lat="44.20555" lon="0.59439">
        <ele>90.554192</ele>
        <time>2022-12-29T12:50:54.935Z</time>
      </trkpt>
      <trkpt lat="44.20559" lon="0.59455">
        <ele>90.062427</ele>
        <time>2022-12-29T12:50:57.919Z</time>
      </trkpt>
      <trkpt lat="44.20564" lon="0.59473">
        <ele>89.536218</ele>
        <time>2022-12-29T12:51:00.929Z</time>
      </trkpt>
      <trkpt lat="44.20565" lon="0.59486">
        <ele>89.175532</ele>
        <time>2022-12-29T12:51:02.921Z</time>
      </trkpt>
      <trkpt lat="44.2057" lon="0.59503">
        <ele>89.138908</ele>
        <time>2022-12-29T12:51:05.970Z</time>
      </trkpt>
      <trkpt lat="44.20572" lon="0.59516">
        <ele>89.166005</ele>
        <time>2022-12-29T12:51:07.920Z</time>
      </trkpt>
      <trkpt lat="44.20576" lon="0.59527">
        <ele>89.192316</ele>
        <time>2022-12-29T12:51:09.917Z</time>
      </trkpt>
      <trkpt lat="44.2058" lon="0.59544">
        <ele>89.228633</ele>
        <time>2022-12-29T12:51:12.904Z</time>
      </trkpt>
      <trkpt lat="44.20583" lon="0.59556">
        <ele>89.254343</ele>
        <time>2022-12-29T12:51:14.931Z</time>
      </trkpt>
      <trkpt lat="44.20586" lon="0.59572">
        <ele>89.288646</ele>
        <time>2022-12-29T12:51:17.911Z</time>
      </trkpt>
      <trkpt lat="44.2059" lon="0.59586">
        <ele>89.31969</ele>
        <time>2022-12-29T12:51:20.919Z</time>
      </trkpt>
      <trkpt lat="44.20593" lon="0.59599">
        <ele>89.347618</ele>
        <time>2022-12-29T12:51:23.979Z</time>
      </trkpt>
      <trkpt lat="44.20596" lon="0.59613">
        <ele>89.376365</ele>
        <time>2022-12-29T12:51:26.917Z</time>
      </trkpt>
      <trkpt lat="44.20599" lon="0.59627">
        <ele>89.407183</ele>
        <time>2022-12-29T12:51:29.983Z</time>
      </trkpt>
      <trkpt lat="44.206" lon="0.59642">
        <ele>89.437747</ele>
        <time>2022-12-29T12:51:33.895Z</time>
      </trkpt>
      <trkpt lat="44.20601" lon="0.59655">
        <ele>89.464031</ele>
        <time>2022-12-29T12:51:37.907Z</time>
      </trkpt>
      <trkpt lat="44.20604" lon="0.5967">
        <ele>89.49633</ele>
        <time>2022-12-29T12:51:41.906Z</time>
      </trkpt>
      <trkpt lat="44.20605" lon="0.59683">
        <ele>89.522774</ele>
        <time>2022-12-29T12:51:44.893Z</time>
      </trkpt>
      <trkpt lat="44.20606" lon="0.59696">
        <ele>89.549421</ele>
        <time>2022-12-29T12:51:47.893Z</time>
      </trkpt>
      <trkpt lat="44.20608" lon="0.5971">
        <ele>89.578298</ele>
        <time>2022-12-29T12:51:50.899Z</time>
      </trkpt>
      <trkpt lat="44.20611" lon="0.59723">
        <ele>89.606624</ele>
        <time>2022-12-29T12:51:53.899Z</time>
      </trkpt>
      <trkpt lat="44.20614" lon="0.59737">
        <ele>89.648409</ele>
        <time>2022-12-29T12:51:56.904Z</time>
      </trkpt>
      <trkpt lat="44.20617" lon="0.59751">
        <ele>89.700903</ele>
        <time>2022-12-29T12:51:59.906Z</time>
      </trkpt>
      <trkpt lat="44.20619" lon="0.59765">
        <ele>89.752975</ele>
        <time>2022-12-29T12:52:02.910Z</time>
      </trkpt>
      <trkpt lat="44.20624" lon="0.59779">
        <ele>89.8082</ele>
        <time>2022-12-29T12:52:05.911Z</time>
      </trkpt>
      <trkpt lat="44.20628" lon="0.59794">
        <ele>89.865559</ele>
        <time>2022-12-29T12:52:08.921Z</time>
      </trkpt>
      <trkpt lat="44.20632" lon="0.59809">
        <ele>89.922909</ele>
        <time>2022-12-29T12:52:11.910Z</time>
      </trkpt>
      <trkpt lat="44.20636" lon="0.59825">
        <ele>89.982435</ele>
        <time>2022-12-29T12:52:14.920Z</time>
      </trkpt>
      <trkpt lat="44.20639" lon="0.5984">
        <ele>90.038426</ele>
        <time>2022-12-29T12:52:17.902Z</time>
      </trkpt>
      <trkpt lat="44.20642" lon="0.59853">
        <ele>90.086227</ele>
        <time>2022-12-29T12:52:20.911Z</time>
      </trkpt>
      <trkpt lat="44.20645" lon="0.59865">
        <ele>90.133952</ele>
        <time>2022-12-29T12:52:23.904Z</time>
      </trkpt>
      <trkpt lat="44.20649" lon="0.59881">
        <ele>90.191488</ele>
        <time>2022-12-29T12:52:26.908Z</time>
      </trkpt>
      <trkpt lat="44.20652" lon="0.59897">
        <ele>90.252935</ele>
        <time>2022-12-29T12:52:29.900Z</time>
      </trkpt>
      <trkpt lat="44.20656" lon="0.59913">
        <ele>90.313505</ele>
        <time>2022-12-29T12:52:32.907Z</time>
      </trkpt>
      <trkpt lat="44.20659" lon="0.59929">
        <ele>90.372408</ele>
        <time>2022-12-29T12:52:35.903Z</time>
      </trkpt>
      <trkpt lat="44.20662" lon="0.59944">
        <ele>90.427446</ele>
        <time>2022-12-29T12:52:38.920Z</time>
      </trkpt>
      <trkpt lat="44.20665" lon="0.59956">
        <ele>90.475011</ele>
        <time>2022-12-29T12:52:41.920Z</time>
      </trkpt>
      <trkpt lat="44.20669" lon="0.59971">
        <ele>90.535431</ele>
        <time>2022-12-29T12:52:45.951Z</time>
      </trkpt>
      <trkpt lat="44.20672" lon="0.59984">
        <ele>90.614174</ele>
        <time>2022-12-29T12:52:49.921Z</time>
      </trkpt>
      <trkpt lat="44.20676" lon="0.59999">
        <ele>90.694948</ele>
        <time>2022-12-29T12:52:53.897Z</time>
      </trkpt>
      <trkpt lat="44.20683" lon="0.60008">
        <ele>90.76698</ele>
        <time>2022-12-29T12:52:58.917Z</time>
      </trkpt>
      <trkpt lat="44.2069" lon="0.60017">
        <ele>90.843424</ele>
        <time>2022-12-29T12:53:04.898Z</time>
      </trkpt>
      <trkpt lat="44.20697" lon="0.6003">
        <ele>90.927215</ele>
        <time>2022-12-29T12:53:09.901Z</time>
      </trkpt>
      <trkpt lat="44.20696" lon="0.60045">
        <ele>91.007139</ele>
        <time>2022-12-29T12:53:14.970Z</time>
      </trkpt>
      <trkpt lat="44.2069" lon="0.60057">
        <ele>91.086982</ele>
        <time>2022-12-29T12:53:19.918Z</time>
      </trkpt>
      <trkpt lat="44.20684" lon="0.60067">
        <ele>91.157023</ele>
        <time>2022-12-29T12:53:24.918Z</time>
      </trkpt>
      <trkpt lat="44.20686" lon="0.6008">
        <ele>91.229467</ele>
        <time>2022-12-29T12:53:38.901Z</time>
      </trkpt>
      <trkpt lat="44.20689" lon="0.60094">
        <ele>91.308394</ele>
        <time>2022-12-29T12:53:42.919Z</time>
      </trkpt>
      <trkpt lat="44.20691" lon="0.6011">
        <ele>91.397274</ele>
        <time>2022-12-29T12:53:46.919Z</time>
      </trkpt>
      <trkpt lat="44.20696" lon="0.60123">
        <ele>91.475846</ele>
        <time>2022-12-29T12:53:50.906Z</time>
      </trkpt>
      <trkpt lat="44.20702" lon="0.60135">
        <ele>91.553165</ele>
        <time>2022-12-29T12:53:54.900Z</time>
      </trkpt>
      <trkpt lat="44.20707" lon="0.60145">
        <ele>91.622534</ele>
        <time>2022-12-29T12:53:57.924Z</time>
      </trkpt>
      <trkpt lat="44.20712" lon="0.60158">
        <ele>91.697201</ele>
        <time>2022-12-29T12:54:01.921Z</time>
      </trkpt>
      <trkpt lat="44.20716" lon="0.60171">
        <ele>91.773485</ele>
        <time>2022-12-29T12:54:06.982Z</time>
      </trkpt>
      <trkpt lat="44.20719" lon="0.60183">
        <ele>91.84664</ele>
        <time>2022-12-29T12:54:10.926Z</time>
      </trkpt>
      <trkpt lat="44.20721" lon="0.60198">
        <ele>91.805106</ele>
        <time>2022-12-29T12:54:14.920Z</time>
      </trkpt>
      <trkpt lat="44.20721" lon="0.60211">
        <ele>91.715356</ele>
        <time>2022-12-29T12:54:18.972Z</time>
      </trkpt>
      <trkpt lat="44.20721" lon="0.60224">
        <ele>91.625374</ele>
        <time>2022-12-29T12:54:23.923Z</time>
      </trkpt>
      <trkpt lat="44.20721" lon="0.60237">
        <ele>91.536978</ele>
        <time>2022-12-29T12:54:41.918Z</time>
      </trkpt>
      <trkpt lat="44.20722" lon="0.60251">
        <ele>91.439182</ele>
        <time>2022-12-29T12:54:49.923Z</time>
      </trkpt>
      <trkpt lat="44.20724" lon="0.60264">
        <ele>91.343545</ele>
        <time>2022-12-29T12:54:56.923Z</time>
      </trkpt>
      <trkpt lat="44.20727" lon="0.60277">
        <ele>91.252901</ele>
        <time>2022-12-29T12:55:03.921Z</time>
      </trkpt>
      <trkpt lat="44.2073" lon="0.60289">
        <ele>91.162791</ele>
        <time>2022-12-29T12:55:10.929Z</time>
      </trkpt>
      <trkpt lat="44.20732" lon="0.60302">
        <ele>91.068438</ele>
        <time>2022-12-29T12:55:17.974Z</time>
      </trkpt>
      <trkpt lat="44.20736" lon="0.60314">
        <ele>90.980066</ele>
        <time>2022-12-29T12:55:24.905Z</time>
      </trkpt>
      <trkpt lat="44.20739" lon="0.60327">
        <ele>90.887465</ele>
        <time>2022-12-29T12:55:31.930Z</time>
      </trkpt>
      <trkpt lat="44.20742" lon="0.6034">
        <ele>90.791886</ele>
        <time>2022-12-29T12:55:38.926Z</time>
      </trkpt>
      <trkpt lat="44.20745" lon="0.60353">
        <ele>90.697253</ele>
        <time>2022-12-29T12:55:45.933Z</time>
      </trkpt>
      <trkpt lat="44.20747" lon="0.60367">
        <ele>90.599435</ele>
        <time>2022-12-29T12:55:52.921Z</time>
      </trkpt>
      <trkpt lat="44.2075" lon="0.60381">
        <ele>90.5007</ele>
        <time>2022-12-29T12:55:59.939Z</time>
      </trkpt>
      <trkpt lat="44.20753" lon="0.60395">
        <ele>90.402198</ele>
        <time>2022-12-29T12:56:06.927Z</time>
      </trkpt>
      <trkpt lat="44.20756" lon="0.60408">
        <ele>90.304354</ele>
        <time>2022-12-29T12:56:13.920Z</time>
      </trkpt>
      <trkpt lat="44.20759" lon="0.60421">
        <ele>90.212059</ele>
        <time>2022-12-29T12:56:20.930Z</time>
      </trkpt>
      <trkpt lat="44.20762" lon="0.60434">
        <ele>90.169577</ele>
        <time>2022-12-29T12:56:27.915Z</time>
      </trkpt>
      <trkpt lat="44.20765" lon="0.60447">
        <ele>90.275036</ele>
        <time>2022-12-29T12:56:34.974Z</time>
      </trkpt>
      <trkpt lat="44.20769" lon="0.60461">
        <ele>90.379781</ele>
        <time>2022-12-29T12:56:41.926Z</time>
      </trkpt>
      <trkpt lat="44.20772" lon="0.60474">
        <ele>90.48451</ele>
        <time>2022-12-29T12:56:48.920Z</time>
      </trkpt>
      <trkpt lat="44.20774" lon="0.60487">
        <ele>90.587867</ele>
        <time>2022-12-29T12:56:55.918Z</time>
      </trkpt>
      <trkpt lat="44.20778" lon="0.60501">
        <ele>90.698012</ele>
        <time>2022-12-29T12:57:02.917Z</time>
      </trkpt>
      <trkpt lat="44.20781" lon="0.60514">
        <ele>90.804572</ele>
        <time>2022-12-29T12:57:09.988Z</time>
      </trkpt>
      <trkpt lat="44.20784" lon="0.60528">
        <ele>90.909301</ele>
        <time>2022-12-29T12:57:16.929Z</time>
      </trkpt>
      <trkpt lat="44.20787" lon="0.60541">
        <ele>91.0135</ele>
        <time>2022-12-29T12:57:23.926Z</time>
      </trkpt>
      <trkpt lat="44.2079" lon="0.60554">
        <ele>91.12177</ele>
        <time>2022-12-29T12:57:30.923Z</time>
      </trkpt>
      <trkpt lat="44.20793" lon="0.60567">
        <ele>91.225092</ele>
        <time>2022-12-29T12:57:37.924Z</time>
      </trkpt>
      <trkpt lat="44.20797" lon="0.60581">
        <ele>91.329821</ele>
        <time>2022-12-29T12:57:44.934Z</time>
      </trkpt>
      <trkpt lat="44.20799" lon="0.60594">
        <ele>91.437079</ele>
        <time>2022-12-29T12:57:51.966Z</time>
      </trkpt>
      <trkpt lat="44.20803" lon="0.60608">
        <ele>91.546434</ele>
        <time>2022-12-29T12:57:58.927Z</time>
      </trkpt>
      <trkpt lat="44.20805" lon="0.6062">
        <ele>91.642829</ele>
        <time>2022-12-29T12:58:04.924Z</time>
      </trkpt>
      <trkpt lat="44.20809" lon="0.60634">
        <ele>91.750758</ele>
        <time>2022-12-29T12:58:11.917Z</time>
      </trkpt>
      <trkpt lat="44.20811" lon="0.60648">
        <ele>91.857845</ele>
        <time>2022-12-29T12:58:18.922Z</time>
      </trkpt>
      <trkpt lat="44.20814" lon="0.6066">
        <ele>91.95208</ele>
        <time>2022-12-29T12:58:24.924Z</time>
      </trkpt>
      <trkpt lat="44.20817" lon="0.60674">
        <ele>92.041986</ele>
        <time>2022-12-29T12:58:31.921Z</time>
      </trkpt>
      <trkpt lat="44.2082" lon="0.60687">
        <ele>92.08766</ele>
        <time>2022-12-29T12:58:38.971Z</time>
      </trkpt>
      <trkpt lat="44.20824" lon="0.60701">
        <ele>92.133578</ele>
        <time>2022-12-29T12:58:45.926Z</time>
      </trkpt>
      <trkpt lat="44.20827" lon="0.60715">
        <ele>92.179002</ele>
        <time>2022-12-29T12:58:52.922Z</time>
      </trkpt>
      <trkpt lat="44.2083" lon="0.60728">
        <ele>92.223734</ele>
        <time>2022-12-29T12:58:59.926Z</time>
      </trkpt>
      <trkpt lat="44.20833" lon="0.6074">
        <ele>92.264142</ele>
        <time>2022-12-29T12:59:05.980Z</time>
      </trkpt>
      <trkpt lat="44.20836" lon="0.60754">
        <ele>92.309018</ele>
        <time>2022-12-29T12:59:12.922Z</time>
      </trkpt>
      <trkpt lat="44.2084" lon="0.60767">
        <ele>92.352851</ele>
        <time>2022-12-29T12:59:19.907Z</time>
      </trkpt>
      <trkpt lat="44.20844" lon="0.60779">
        <ele>92.396611</ele>
        <time>2022-12-29T12:59:26.935Z</time>
      </trkpt>
      <trkpt lat="44.20847" lon="0.60793">
        <ele>92.441345</ele>
        <time>2022-12-29T12:59:33.931Z</time>
      </trkpt>
      <trkpt lat="44.2085" lon="0.60807">
        <ele>92.487018</ele>
        <time>2022-12-29T12:59:40.914Z</time>
      </trkpt>
      <trkpt lat="44.20853" lon="0.6082">
        <ele>92.532443</ele>
        <time>2022-12-29T12:59:47.920Z</time>
      </trkpt>
      <trkpt lat="44.20856" lon="0.60834">
        <ele>92.577341</ele>
        <time>2022-12-29T12:59:54.903Z</time>
      </trkpt>
      <trkpt lat="44.20859" lon="0.60847">
        <ele>92.621977</ele>
        <time>2022-12-29T13:00:01.913Z</time>
      </trkpt>
      <trkpt lat="44.20861" lon="0.60859">
        <ele>92.662114</ele>
        <time>2022-12-29T13:00:07.919Z</time>
      </trkpt>
      <trkpt lat="44.20864" lon="0.60873">
        <ele>92.708031</ele>
        <time>2022-12-29T13:00:14.932Z</time>
      </trkpt>
      <trkpt lat="44.20867" lon="0.60887">
        <ele>92.753231</ele>
        <time>2022-12-29T13:00:21.906Z</time>
      </trkpt>
      <trkpt lat="44.2087" lon="0.609">
        <ele>92.797209</ele>
        <time>2022-12-29T13:00:28.913Z</time>
      </trkpt>
      <trkpt lat="44.20879" lon="0.60923">
        <ele>93.055859</ele>
        <time>2022-12-29T13:01:04.923Z</time>
      </trkpt>
      <trkpt lat="44.20883" lon="0.60935">
        <ele>93.224984</ele>
        <time>2022-12-29T13:01:08.907Z</time>
      </trkpt>
      <trkpt lat="44.20887" lon="0.60949">
        <ele>93.415957</ele>
        <time>2022-12-29T13:01:12.929Z</time>
      </trkpt>
      <trkpt lat="44.20891" lon="0.60963">
        <ele>93.61112</ele>
        <time>2022-12-29T13:01:16.922Z</time>
      </trkpt>
      <trkpt lat="44.20894" lon="0.60977">
        <ele>93.801462</ele>
        <time>2022-12-29T13:01:21.932Z</time>
      </trkpt>
      <trkpt lat="44.20897" lon="0.6099">
        <ele>93.967128</ele>
        <time>2022-12-29T13:01:25.919Z</time>
      </trkpt>
      <trkpt lat="44.209" lon="0.61005">
        <ele>94.165572</ele>
        <time>2022-12-29T13:01:29.930Z</time>
      </trkpt>
      <trkpt lat="44.20903" lon="0.61018">
        <ele>94.346326</ele>
        <time>2022-12-29T13:01:33.918Z</time>
      </trkpt>
      <trkpt lat="44.20908" lon="0.6103">
        <ele>94.524421</ele>
        <time>2022-12-29T13:01:38.920Z</time>
      </trkpt>
      <trkpt lat="44.20912" lon="0.61043">
        <ele>94.70839</ele>
        <time>2022-12-29T13:01:43.932Z</time>
      </trkpt>
      <trkpt lat="44.20916" lon="0.61055">
        <ele>94.878665</ele>
        <time>2022-12-29T13:01:48.994Z</time>
      </trkpt>
      <trkpt lat="44.20919" lon="0.61069">
        <ele>95.062366</ele>
        <time>2022-12-29T13:01:53.928Z</time>
      </trkpt>
      <trkpt lat="44.20924" lon="0.61083">
        <ele>95.2589</ele>
        <time>2022-12-29T13:01:58.922Z</time>
      </trkpt>
      <trkpt lat="44.20928" lon="0.61095">
        <ele>95.435564</ele>
        <time>2022-12-29T13:02:03.921Z</time>
      </trkpt>
      <trkpt lat="44.20931" lon="0.61108">
        <ele>95.604793</ele>
        <time>2022-12-29T13:02:09.906Z</time>
      </trkpt>
      <trkpt lat="44.20928" lon="0.6112">
        <ele>95.777668</ele>
        <time>2022-12-29T13:02:16.932Z</time>
      </trkpt>
      <trkpt lat="44.20918" lon="0.61127">
        <ele>95.987695</ele>
        <time>2022-12-29T13:02:21.930Z</time>
      </trkpt>
      <trkpt lat="44.20906" lon="0.61131">
        <ele>95.779809</ele>
        <time>2022-12-29T13:02:25.929Z</time>
      </trkpt>
      <trkpt lat="44.20897" lon="0.61134">
        <ele>95.471749</ele>
        <time>2022-12-29T13:02:28.921Z</time>
      </trkpt>
      <trkpt lat="44.20885" lon="0.61135">
        <ele>95.086461</ele>
        <time>2022-12-29T13:02:31.931Z</time>
      </trkpt>
      <trkpt lat="44.20876" lon="0.61135">
        <ele>94.797088</ele>
        <time>2022-12-29T13:02:33.924Z</time>
      </trkpt>
      <trkpt lat="44.20866" lon="0.61135">
        <ele>94.479333</ele>
        <time>2022-12-29T13:02:35.988Z</time>
      </trkpt>
      <trkpt lat="44.20855" lon="0.61136">
        <ele>94.14233</ele>
        <time>2022-12-29T13:02:37.917Z</time>
      </trkpt>
      <trkpt lat="44.20846" lon="0.61136">
        <ele>93.840256</ele>
        <time>2022-12-29T13:02:39.933Z</time>
      </trkpt>
      <trkpt lat="44.20836" lon="0.61138">
        <ele>93.526177</ele>
        <time>2022-12-29T13:02:41.982Z</time>
      </trkpt>
      <trkpt lat="44.20826" lon="0.61139">
        <ele>93.22346</ele>
        <time>2022-12-29T13:02:43.920Z</time>
      </trkpt>
      <trkpt lat="44.20816" lon="0.6114">
        <ele>92.889446</ele>
        <time>2022-12-29T13:02:45.922Z</time>
      </trkpt>
      <trkpt lat="44.20805" lon="0.61141">
        <ele>92.535309</ele>
        <time>2022-12-29T13:02:47.964Z</time>
      </trkpt>
      <trkpt lat="44.20793" lon="0.61142">
        <ele>92.156944</ele>
        <time>2022-12-29T13:02:49.903Z</time>
      </trkpt>
      <trkpt lat="44.2078" lon="0.61142">
        <ele>91.759526</ele>
        <time>2022-12-29T13:02:51.922Z</time>
      </trkpt>
      <trkpt lat="44.20768" lon="0.61144">
        <ele>91.377083</ele>
        <time>2022-12-29T13:02:53.991Z</time>
      </trkpt>
      <trkpt lat="44.20756" lon="0.61145">
        <ele>90.994809</ele>
        <time>2022-12-29T13:02:55.925Z</time>
      </trkpt>
      <trkpt lat="44.20743" lon="0.61146">
        <ele>90.584284</ele>
        <time>2022-12-29T13:02:57.928Z</time>
      </trkpt>
      <trkpt lat="44.2073" lon="0.61147">
        <ele>90.415928</ele>
        <time>2022-12-29T13:02:59.905Z</time>
      </trkpt>
      <trkpt lat="44.20718" lon="0.61148">
        <ele>90.636807</ele>
        <time>2022-12-29T13:03:01.931Z</time>
      </trkpt>
      <trkpt lat="44.20706" lon="0.61149">
        <ele>90.849173</ele>
        <time>2022-12-29T13:03:03.930Z</time>
      </trkpt>
      <trkpt lat="44.20693" lon="0.6115">
        <ele>91.075289</ele>
        <time>2022-12-29T13:03:05.903Z</time>
      </trkpt>
      <trkpt lat="44.2068" lon="0.6115">
        <ele>91.308417</ele>
        <time>2022-12-29T13:03:07.919Z</time>
      </trkpt>
      <trkpt lat="44.20666" lon="0.6115">
        <ele>91.548485</ele>
        <time>2022-12-29T13:03:09.929Z</time>
      </trkpt>
      <trkpt lat="44.20653" lon="0.61151">
        <ele>91.788953</ele>
        <time>2022-12-29T13:03:11.931Z</time>
      </trkpt>
      <trkpt lat="44.2064" lon="0.61152">
        <ele>92.008069</ele>
        <time>2022-12-29T13:03:13.922Z</time>
      </trkpt>
      <trkpt lat="44.20628" lon="0.61153">
        <ele>92.230572</ele>
        <time>2022-12-29T13:03:15.980Z</time>
      </trkpt>
      <trkpt lat="44.20615" lon="0.61153">
        <ele>92.456529</ele>
        <time>2022-12-29T13:03:17.922Z</time>
      </trkpt>
      <trkpt lat="44.20603" lon="0.61153">
        <ele>92.659541</ele>
        <time>2022-12-29T13:03:19.931Z</time>
      </trkpt>
      <trkpt lat="44.20593" lon="0.61153">
        <ele>92.844954</ele>
        <time>2022-12-29T13:03:21.966Z</time>
      </trkpt>
      <trkpt lat="44.20584" lon="0.61154">
        <ele>93.007843</ele>
        <time>2022-12-29T13:03:23.924Z</time>
      </trkpt>
      <trkpt lat="44.20575" lon="0.61156">
        <ele>93.169314</ele>
        <time>2022-12-29T13:03:25.925Z</time>
      </trkpt>
      <trkpt lat="44.20565" lon="0.61159">
        <ele>93.336683</ele>
        <time>2022-12-29T13:03:27.994Z</time>
      </trkpt>
      <trkpt lat="44.20556" lon="0.61161">
        <ele>93.497174</ele>
        <time>2022-12-29T13:03:29.910Z</time>
      </trkpt>
      <trkpt lat="44.20547" lon="0.61162">
        <ele>93.575579</ele>
        <time>2022-12-29T13:03:32.925Z</time>
      </trkpt>
      <trkpt lat="44.20536" lon="0.61161">
        <ele>93.659689</ele>
        <time>2022-12-29T13:03:35.921Z</time>
      </trkpt>
      <trkpt lat="44.20523" lon="0.61163">
        <ele>93.759514</ele>
        <time>2022-12-29T13:03:38.983Z</time>
      </trkpt>
      <trkpt lat="44.20513" lon="0.61163">
        <ele>93.836022</ele>
        <time>2022-12-29T13:03:40.918Z</time>
      </trkpt>
      <trkpt lat="44.20504" lon="0.61165">
        <ele>93.909915</ele>
        <time>2022-12-29T13:03:42.919Z</time>
      </trkpt>
      <trkpt lat="44.2049" lon="0.61165">
        <ele>94.010984</ele>
        <time>2022-12-29T13:03:45.922Z</time>
      </trkpt>
      <trkpt lat="44.20478" lon="0.61166">
        <ele>94.10996</ele>
        <time>2022-12-29T13:03:48.928Z</time>
      </trkpt>
      <trkpt lat="44.20467" lon="0.61166">
        <ele>94.193284</ele>
        <time>2022-12-29T13:03:51.930Z</time>
      </trkpt>
      <trkpt lat="44.20457" lon="0.61166">
        <ele>94.268128</ele>
        <time>2022-12-29T13:03:55.900Z</time>
      </trkpt>
      <trkpt lat="44.20447" lon="0.61165">
        <ele>94.344605</ele>
        <time>2022-12-29T13:04:11.934Z</time>
      </trkpt>
      <trkpt lat="44.20438" lon="0.61166">
        <ele>94.41945</ele>
        <time>2022-12-29T13:04:15.910Z</time>
      </trkpt>
      <trkpt lat="44.20427" lon="0.61166">
        <ele>94.503609</ele>
        <time>2022-12-29T13:04:18.924Z</time>
      </trkpt>
      <trkpt lat="44.20414" lon="0.61169">
        <ele>94.59891</ele>
        <time>2022-12-29T13:04:21.925Z</time>
      </trkpt>
      <trkpt lat="44.20403" lon="0.6117">
        <ele>94.684948</ele>
        <time>2022-12-29T13:04:24.934Z</time>
      </trkpt>
      <trkpt lat="44.20393" lon="0.61171">
        <ele>94.767507</ele>
        <time>2022-12-29T13:04:27.921Z</time>
      </trkpt>
      <trkpt lat="44.20381" lon="0.6117">
        <ele>94.858605</ele>
        <time>2022-12-29T13:04:30.920Z</time>
      </trkpt>
      <trkpt lat="44.20372" lon="0.6117">
        <ele>94.651991</ele>
        <time>2022-12-29T13:04:33.911Z</time>
      </trkpt>
      <trkpt lat="44.20362" lon="0.61172">
        <ele>94.181524</ele>
        <time>2022-12-29T13:04:36.931Z</time>
      </trkpt>
      <trkpt lat="44.20348" lon="0.61174">
        <ele>93.50602</ele>
        <time>2022-12-29T13:04:39.938Z</time>
      </trkpt>
      <trkpt lat="44.20339" lon="0.61175">
        <ele>93.028111</ele>
        <time>2022-12-29T13:04:41.916Z</time>
      </trkpt>
      <trkpt lat="44.2033" lon="0.61176">
        <ele>92.588775</ele>
        <time>2022-12-29T13:04:43.929Z</time>
      </trkpt>
      <trkpt lat="44.20318" lon="0.61177">
        <ele>92.014058</ele>
        <time>2022-12-29T13:04:46.930Z</time>
      </trkpt>
      <trkpt lat="44.20307" lon="0.61179">
        <ele>91.465041</ele>
        <time>2022-12-29T13:04:50.990Z</time>
      </trkpt>
      <trkpt lat="44.20297" lon="0.6118">
        <ele>91.020252</ele>
        <time>2022-12-29T13:04:58.928Z</time>
      </trkpt>
      <trkpt lat="44.20287" lon="0.61179">
        <ele>90.528579</ele>
        <time>2022-12-29T13:05:06.921Z</time>
      </trkpt>
      <trkpt lat="44.20278" lon="0.61181">
        <ele>90.085109</ele>
        <time>2022-12-29T13:05:09.926Z</time>
      </trkpt>
      <trkpt lat="44.20267" lon="0.61181">
        <ele>89.51091</ele>
        <time>2022-12-29T13:05:12.933Z</time>
      </trkpt>
      <trkpt lat="44.20256" lon="0.6118">
        <ele>88.992094</ele>
        <time>2022-12-29T13:05:15.924Z</time>
      </trkpt>
      <trkpt lat="44.20245" lon="0.61176">
        <ele>88.440654</ele>
        <time>2022-12-29T13:05:19.922Z</time>
      </trkpt>
      <trkpt lat="44.20235" lon="0.61176">
        <ele>87.963726</ele>
        <time>2022-12-29T13:05:22.931Z</time>
      </trkpt>
      <trkpt lat="44.20224" lon="0.61175">
        <ele>87.437621</ele>
        <time>2022-12-29T13:05:25.972Z</time>
      </trkpt>
      <trkpt lat="44.20213" lon="0.61176">
        <ele>86.873112</ele>
        <time>2022-12-29T13:05:29.927Z</time>
      </trkpt>
      <trkpt lat="44.20203" lon="0.61177">
        <ele>86.374703</ele>
        <time>2022-12-29T13:05:32.923Z</time>
      </trkpt>
      <trkpt lat="44.20192" lon="0.61178">
        <ele>85.994827</ele>
        <time>2022-12-29T13:05:35.908Z</time>
      </trkpt>
      <trkpt lat="44.20181" lon="0.61179">
        <ele>85.693821</ele>
        <time>2022-12-29T13:05:38.911Z</time>
      </trkpt>
      <trkpt lat="44.20169" lon="0.6118">
        <ele>85.355335</ele>
        <time>2022-12-29T13:05:41.921Z</time>
      </trkpt>
      <trkpt lat="44.20156" lon="0.61181">
        <ele>85.01138</ele>
        <time>2022-12-29T13:05:44.902Z</time>
      </trkpt>
      <trkpt lat="44.20143" lon="0.61182">
        <ele>84.658848</ele>
        <time>2022-12-29T13:05:47.919Z</time>
      </trkpt>
      <trkpt lat="44.2013" lon="0.61183">
        <ele>84.32332</ele>
        <time>2022-12-29T13:05:50.930Z</time>
      </trkpt>
      <trkpt lat="44.20117" lon="0.61184">
        <ele>83.976799</ele>
        <time>2022-12-29T13:05:53.932Z</time>
      </trkpt>
      <trkpt lat="44.20106" lon="0.61183">
        <ele>83.66271</ele>
        <time>2022-12-29T13:05:56.912Z</time>
      </trkpt>
      <trkpt lat="44.20094" lon="0.61184">
        <ele>83.34077</ele>
        <time>2022-12-29T13:05:59.915Z</time>
      </trkpt>
      <trkpt lat="44.20081" lon="0.61184">
        <ele>83.005374</ele>
        <time>2022-12-29T13:06:02.920Z</time>
      </trkpt>
      <trkpt lat="44.20069" lon="0.61185">
        <ele>82.688797</ele>
        <time>2022-12-29T13:06:05.911Z</time>
      </trkpt>
      <trkpt lat="44.20058" lon="0.61184">
        <ele>82.374902</ele>
        <time>2022-12-29T13:06:08.911Z</time>
      </trkpt>
      <trkpt lat="44.20048" lon="0.61185">
        <ele>82.109266</ele>
        <time>2022-12-29T13:06:11.921Z</time>
      </trkpt>
      <trkpt lat="44.20038" lon="0.61185">
        <ele>81.84885</ele>
        <time>2022-12-29T13:06:14.907Z</time>
      </trkpt>
      <trkpt lat="44.20028" lon="0.61186">
        <ele>81.584822</ele>
        <time>2022-12-29T13:06:18.924Z</time>
      </trkpt>
      <trkpt lat="44.20018" lon="0.61188">
        <ele>81.316461</ele>
        <time>2022-12-29T13:06:23.927Z</time>
      </trkpt>
      <trkpt lat="44.20007" lon="0.61189">
        <ele>81.387572</ele>
        <time>2022-12-29T13:06:27.921Z</time>
      </trkpt>
      <trkpt lat="44.19997" lon="0.6119">
        <ele>81.459846</ele>
        <time>2022-12-29T13:06:30.952Z</time>
      </trkpt>
      <trkpt lat="44.19986" lon="0.61192">
        <ele>81.534674</ele>
        <time>2022-12-29T13:06:33.921Z</time>
      </trkpt>
      <trkpt lat="44.19974" lon="0.61194">
        <ele>81.616006</ele>
        <time>2022-12-29T13:06:36.987Z</time>
      </trkpt>
      <trkpt lat="44.19962" lon="0.61196">
        <ele>81.702021</ele>
        <time>2022-12-29T13:06:39.921Z</time>
      </trkpt>
      <trkpt lat="44.19949" lon="0.61197">
        <ele>81.787453</ele>
        <time>2022-12-29T13:06:42.974Z</time>
      </trkpt>
      <trkpt lat="44.19936" lon="0.61197">
        <ele>81.876998</ele>
        <time>2022-12-29T13:06:45.929Z</time>
      </trkpt>
      <trkpt lat="44.19923" lon="0.61199">
        <ele>81.966039</ele>
        <time>2022-12-29T13:06:48.977Z</time>
      </trkpt>
      <trkpt lat="44.19911" lon="0.61199">
        <ele>82.049458</ele>
        <time>2022-12-29T13:06:51.920Z</time>
      </trkpt>
      <trkpt lat="44.199" lon="0.612">
        <ele>82.124055</ele>
        <time>2022-12-29T13:06:54.933Z</time>
      </trkpt>
      <trkpt lat="44.19889" lon="0.61201">
        <ele>82.198035</ele>
        <time>2022-12-29T13:06:57.910Z</time>
      </trkpt>
      <trkpt lat="44.1988" lon="0.61202">
        <ele>82.261601</ele>
        <time>2022-12-29T13:07:00.921Z</time>
      </trkpt>
      <trkpt lat="44.19868" lon="0.61202">
        <ele>82.343635</ele>
        <time>2022-12-29T13:07:04.931Z</time>
      </trkpt>
      <trkpt lat="44.19857" lon="0.61202">
        <ele>82.418799</ele>
        <time>2022-12-29T13:07:07.935Z</time>
      </trkpt>
      <trkpt lat="44.19846" lon="0.61203">
        <ele>82.496757</ele>
        <time>2022-12-29T13:07:10.932Z</time>
      </trkpt>
      <trkpt lat="44.19834" lon="0.61205">
        <ele>82.556808</ele>
        <time>2022-12-29T13:07:13.922Z</time>
      </trkpt>
      <trkpt lat="44.19821" lon="0.61206">
        <ele>82.591535</ele>
        <time>2022-12-29T13:07:16.932Z</time>
      </trkpt>
      <trkpt lat="44.1981" lon="0.61207">
        <ele>82.624723</ele>
        <time>2022-12-29T13:07:19.935Z</time>
      </trkpt>
      <trkpt lat="44.19798" lon="0.61209">
        <ele>82.657839</ele>
        <time>2022-12-29T13:07:22.935Z</time>
      </trkpt>
      <trkpt lat="44.19785" lon="0.61209">
        <ele>82.692012</ele>
        <time>2022-12-29T13:07:25.927Z</time>
      </trkpt>
      <trkpt lat="44.19773" lon="0.6121">
        <ele>82.726738</ele>
        <time>2022-12-29T13:07:28.935Z</time>
      </trkpt>
      <trkpt lat="44.19761" lon="0.61211">
        <ele>82.758718</ele>
        <time>2022-12-29T13:07:31.978Z</time>
      </trkpt>
      <trkpt lat="44.1975" lon="0.61212">
        <ele>82.790369</ele>
        <time>2022-12-29T13:07:34.934Z</time>
      </trkpt>
      <trkpt lat="44.19738" lon="0.61212">
        <ele>82.823113</ele>
        <time>2022-12-29T13:07:37.974Z</time>
      </trkpt>
      <trkpt lat="44.19726" lon="0.61213">
        <ele>82.857008</ele>
        <time>2022-12-29T13:07:40.932Z</time>
      </trkpt>
      <trkpt lat="44.19714" lon="0.61214">
        <ele>82.890616</ele>
        <time>2022-12-29T13:07:43.981Z</time>
      </trkpt>
      <trkpt lat="44.19702" lon="0.61215">
        <ele>82.922284</ele>
        <time>2022-12-29T13:07:46.922Z</time>
      </trkpt>
      <trkpt lat="44.19692" lon="0.61215">
        <ele>82.951971</ele>
        <time>2022-12-29T13:07:49.975Z</time>
      </trkpt>
      <trkpt lat="44.19682" lon="0.61216">
        <ele>82.979483</ele>
        <time>2022-12-29T13:07:52.927Z</time>
      </trkpt>
      <trkpt lat="44.19671" lon="0.61216">
        <ele>83.010054</ele>
        <time>2022-12-29T13:07:55.971Z</time>
      </trkpt>
      <trkpt lat="44.19661" lon="0.61217">
        <ele>83.037302</ele>
        <time>2022-12-29T13:07:58.930Z</time>
      </trkpt>
      <trkpt lat="44.19652" lon="0.61217">
        <ele>83.336995</ele>
        <time>2022-12-29T13:08:01.982Z</time>
      </trkpt>
      <trkpt lat="44.19641" lon="0.61218">
        <ele>83.733168</ele>
        <time>2022-12-29T13:08:04.934Z</time>
      </trkpt>
      <trkpt lat="44.19632" lon="0.61219">
        <ele>84.087572</ele>
        <time>2022-12-29T13:08:07.997Z</time>
      </trkpt>
      <trkpt lat="44.19622" lon="0.6122">
        <ele>84.49958</ele>
        <time>2022-12-29T13:08:11.906Z</time>
      </trkpt>
      <trkpt lat="44.19611" lon="0.6122">
        <ele>84.911277</ele>
        <time>2022-12-29T13:08:15.934Z</time>
      </trkpt>
      <trkpt lat="44.19601" lon="0.6122">
        <ele>85.311331</ele>
        <time>2022-12-29T13:08:19.933Z</time>
      </trkpt>
      <trkpt lat="44.19591" lon="0.61221">
        <ele>85.680548</ele>
        <time>2022-12-29T13:08:23.931Z</time>
      </trkpt>
      <trkpt lat="44.1958" lon="0.61221">
        <ele>86.107852</ele>
        <time>2022-12-29T13:08:28.922Z</time>
      </trkpt>
      <trkpt lat="44.1957" lon="0.61222">
        <ele>86.519737</ele>
        <time>2022-12-29T13:08:33.930Z</time>
      </trkpt>
      <trkpt lat="44.19559" lon="0.61225">
        <ele>86.946749</ele>
        <time>2022-12-29T13:08:38.925Z</time>
      </trkpt>
      <trkpt lat="44.19548" lon="0.61226">
        <ele>87.37513</ele>
        <time>2022-12-29T13:08:43.969Z</time>
      </trkpt>
      <trkpt lat="44.19538" lon="0.61228">
        <ele>87.778886</ele>
        <time>2022-12-29T13:08:48.933Z</time>
      </trkpt>
      <trkpt lat="44.19528" lon="0.61227">
        <ele>88.148994</ele>
        <time>2022-12-29T13:08:54.943Z</time>
      </trkpt>
      <trkpt lat="44.19528" lon="0.61227">
        <ele>88.160397</ele>
        <time>2022-12-29T13:09:22.513Z</time>
      </trkpt>
      <trkpt lat="44.1952" lon="0.61234">
        <ele>88.527453</ele>
        <time>2022-12-29T13:10:38.897Z</time>
      </trkpt>
      <trkpt lat="44.19511" lon="0.61231">
        <ele>88.881735</ele>
        <time>2022-12-29T13:10:49.909Z</time>
      </trkpt>
      <trkpt lat="44.195" lon="0.61231">
        <ele>89.312838</ele>
        <time>2022-12-29T13:10:53.913Z</time>
      </trkpt>
      <trkpt lat="44.19491" lon="0.6123">
        <ele>89.666849</ele>
        <time>2022-12-29T13:10:56.911Z</time>
      </trkpt>
      <trkpt lat="44.19481" lon="0.6123">
        <ele>90.01496</ele>
        <time>2022-12-29T13:10:59.906Z</time>
      </trkpt>
      <trkpt lat="44.19467" lon="0.61231">
        <ele>89.821913</ele>
        <time>2022-12-29T13:11:02.923Z</time>
      </trkpt>
      <trkpt lat="44.19457" lon="0.61231">
        <ele>89.673727</ele>
        <time>2022-12-29T13:11:04.924Z</time>
      </trkpt>
      <trkpt lat="44.19445" lon="0.61232">
        <ele>89.511397</ele>
        <time>2022-12-29T13:11:06.920Z</time>
      </trkpt>
      <trkpt lat="44.19432" lon="0.61233">
        <ele>89.335003</ele>
        <time>2022-12-29T13:11:08.926Z</time>
      </trkpt>
      <trkpt lat="44.1942" lon="0.61235">
        <ele>89.163824</ele>
        <time>2022-12-29T13:11:10.923Z</time>
      </trkpt>
      <trkpt lat="44.19407" lon="0.61236">
        <ele>88.974921</ele>
        <time>2022-12-29T13:11:12.924Z</time>
      </trkpt>
      <trkpt lat="44.19394" lon="0.61238">
        <ele>88.801841</ele>
        <time>2022-12-29T13:11:14.924Z</time>
      </trkpt>
      <trkpt lat="44.19384" lon="0.61239">
        <ele>88.658925</ele>
        <time>2022-12-29T13:11:16.915Z</time>
      </trkpt>
      <trkpt lat="44.19372" lon="0.6124">
        <ele>88.487983</ele>
        <time>2022-12-29T13:11:18.913Z</time>
      </trkpt>
      <trkpt lat="44.1936" lon="0.61241">
        <ele>88.316804</ele>
        <time>2022-12-29T13:11:20.921Z</time>
      </trkpt>
      <trkpt lat="44.19349" lon="0.61242">
        <ele>88.161269</ele>
        <time>2022-12-29T13:11:22.921Z</time>
      </trkpt>
      <trkpt lat="44.19339" lon="0.61243">
        <ele>88.01842</ele>
        <time>2022-12-29T13:11:24.919Z</time>
      </trkpt>
      <trkpt lat="44.19329" lon="0.61245">
        <ele>87.890224</ele>
        <time>2022-12-29T13:11:26.922Z</time>
      </trkpt>
      <trkpt lat="44.1932" lon="0.61245">
        <ele>87.764396</ele>
        <time>2022-12-29T13:11:28.928Z</time>
      </trkpt>
      <trkpt lat="44.19307" lon="0.61248">
        <ele>87.574052</ele>
        <time>2022-12-29T13:11:31.919Z</time>
      </trkpt>
      <trkpt lat="44.19293" lon="0.61249">
        <ele>87.556907</ele>
        <time>2022-12-29T13:11:34.920Z</time>
      </trkpt>
      <trkpt lat="44.19283" lon="0.61251">
        <ele>87.607023</ele>
        <time>2022-12-29T13:11:36.921Z</time>
      </trkpt>
      <trkpt lat="44.19273" lon="0.61251">
        <ele>87.656898</ele>
        <time>2022-12-29T13:11:38.915Z</time>
      </trkpt>
      <trkpt lat="44.19264" lon="0.61253">
        <ele>87.705213</ele>
        <time>2022-12-29T13:11:40.914Z</time>
      </trkpt>
      <trkpt lat="44.19253" lon="0.61255">
        <ele>87.75834</ele>
        <time>2022-12-29T13:11:42.915Z</time>
      </trkpt>
      <trkpt lat="44.19243" lon="0.61256">
        <ele>87.811332</ele>
        <time>2022-12-29T13:11:44.928Z</time>
      </trkpt>
      <trkpt lat="44.19231" lon="0.61257">
        <ele>87.868663</ele>
        <time>2022-12-29T13:11:46.922Z</time>
      </trkpt>
      <trkpt lat="44.19221" lon="0.61257">
        <ele>87.919036</ele>
        <time>2022-12-29T13:11:48.921Z</time>
      </trkpt>
      <trkpt lat="44.19212" lon="0.61257">
        <ele>87.965875</ele>
        <time>2022-12-29T13:11:50.924Z</time>
      </trkpt>
      <trkpt lat="44.192" lon="0.61258">
        <ele>88.025755</ele>
        <time>2022-12-29T13:11:53.920Z</time>
      </trkpt>
      <trkpt lat="44.19188" lon="0.61259">
        <ele>88.081728</ele>
        <time>2022-12-29T13:11:56.922Z</time>
      </trkpt>
      <trkpt lat="44.19176" lon="0.61261">
        <ele>88.145181</ele>
        <time>2022-12-29T13:11:59.921Z</time>
      </trkpt>
      <trkpt lat="44.19163" lon="0.61263">
        <ele>88.210726</ele>
        <time>2022-12-29T13:12:02.903Z</time>
      </trkpt>
      <trkpt lat="44.1915" lon="0.61267">
        <ele>88.275936</ele>
        <time>2022-12-29T13:12:05.908Z</time>
      </trkpt>
      <trkpt lat="44.19138" lon="0.61273">
        <ele>88.338403</ele>
        <time>2022-12-29T13:12:08.920Z</time>
      </trkpt>
      <trkpt lat="44.19127" lon="0.61279">
        <ele>88.400505</ele>
        <time>2022-12-29T13:12:11.911Z</time>
      </trkpt>
      <trkpt lat="44.19116" lon="0.61287">
        <ele>88.335131</ele>
        <time>2022-12-29T13:12:14.922Z</time>
      </trkpt>
      <trkpt lat="44.19106" lon="0.61296">
        <ele>88.253334</ele>
        <time>2022-12-29T13:12:17.921Z</time>
      </trkpt>
      <trkpt lat="44.19096" lon="0.61303">
        <ele>88.176723</ele>
        <time>2022-12-29T13:12:20.921Z</time>
      </trkpt>
      <trkpt lat="44.19087" lon="0.61311">
        <ele>88.100748</ele>
        <time>2022-12-29T13:12:23.926Z</time>
      </trkpt>
      <trkpt lat="44.19077" lon="0.61314">
        <ele>88.034272</ele>
        <time>2022-12-29T13:12:26.910Z</time>
      </trkpt>
      <trkpt lat="44.19068" lon="0.61311">
        <ele>87.966128</ele>
        <time>2022-12-29T13:12:29.912Z</time>
      </trkpt>
      <trkpt lat="44.19058" lon="0.61302">
        <ele>87.888411</ele>
        <time>2022-12-29T13:12:32.909Z</time>
      </trkpt>
      <trkpt lat="44.19048" lon="0.61297">
        <ele>87.812215</ele>
        <time>2022-12-29T13:12:35.903Z</time>
      </trkpt>
      <trkpt lat="44.19038" lon="0.61298">
        <ele>87.744999</ele>
        <time>2022-12-29T13:12:38.911Z</time>
      </trkpt>
      <trkpt lat="44.19028" lon="0.61302">
        <ele>87.675309</ele>
        <time>2022-12-29T13:12:41.924Z</time>
      </trkpt>
      <trkpt lat="44.19019" lon="0.61313">
        <ele>87.590804</ele>
        <time>2022-12-29T13:12:44.912Z</time>
      </trkpt>
      <trkpt lat="44.19014" lon="0.61327">
        <ele>87.510506</ele>
        <time>2022-12-29T13:12:47.899Z</time>
      </trkpt>
      <trkpt lat="44.19014" lon="0.61344">
        <ele>87.430545</ele>
        <time>2022-12-29T13:12:50.926Z</time>
      </trkpt>
      <trkpt lat="44.19016" lon="0.6136">
        <ele>87.349145</ele>
        <time>2022-12-29T13:12:53.923Z</time>
      </trkpt>
      <trkpt lat="44.19015" lon="0.61376">
        <ele>87.268511</ele>
        <time>2022-12-29T13:12:56.914Z</time>
      </trkpt>
      <trkpt lat="44.1901" lon="0.61387">
        <ele>87.200654</ele>
        <time>2022-12-29T13:12:58.913Z</time>
      </trkpt>
      <trkpt lat="44.19004" lon="0.61398">
        <ele>87.251971</ele>
        <time>2022-12-29T13:13:00.905Z</time>
      </trkpt>
      <trkpt lat="44.18997" lon="0.6141">
        <ele>87.50532</ele>
        <time>2022-12-29T13:13:04.913Z</time>
      </trkpt>
      <trkpt lat="44.18993" lon="0.61399">
        <ele>87.714319</ele>
        <time>2022-12-29T13:13:11.909Z</time>
      </trkpt>
      <trkpt lat="44.19" lon="0.61388">
        <ele>87.946547</ele>
        <time>2022-12-29T13:13:15.912Z</time>
      </trkpt>
      <trkpt lat="44.19004" lon="0.61377">
        <ele>88.152383</ele>
        <time>2022-12-29T13:13:23.921Z</time>
      </trkpt>
      <trkpt lat="44.19007" lon="0.61376">
        <ele>88.220686</ele>
        <time>2022-12-29T13:13:39.001Z</time>
      </trkpt>
      <trkpt lat="44.19007" lon="0.61371">
        <ele>88.301683</ele>
        <time>2022-12-29T14:33:43.707Z</time>
      </trkpt>
      <trkpt lat="44.19008" lon="0.61372">
        <ele>88.332885</ele>
        <time>2022-12-29T14:34:54.079Z</time>
      </trkpt>
      <trkpt lat="44.18998" lon="0.61388">
        <ele>88.681473</ele>
        <time>2022-12-29T14:37:14.937Z</time>
      </trkpt>
      <trkpt lat="44.18993" lon="0.61401">
        <ele>88.924339</ele>
        <time>2022-12-29T14:37:19.906Z</time>
      </trkpt>
      <trkpt lat="44.18992" lon="0.61414">
        <ele>89.138077</ele>
        <time>2022-12-29T14:37:23.906Z</time>
      </trkpt>
      <trkpt lat="44.18991" lon="0.61428">
        <ele>89.370453</ele>
        <time>2022-12-29T14:37:27.914Z</time>
      </trkpt>
      <trkpt lat="44.18985" lon="0.61438">
        <ele>89.584923</ele>
        <time>2022-12-29T14:37:31.914Z</time>
      </trkpt>
      <trkpt lat="44.18977" lon="0.61449">
        <ele>89.825656</ele>
        <time>2022-12-29T14:37:35.906Z</time>
      </trkpt>
      <trkpt lat="44.1897" lon="0.61457">
        <ele>90.037103</ele>
        <time>2022-12-29T14:37:38.905Z</time>
      </trkpt>
      <trkpt lat="44.18961" lon="0.61466">
        <ele>90.287288</ele>
        <time>2022-12-29T14:37:41.918Z</time>
      </trkpt>
      <trkpt lat="44.18953" lon="0.61475">
        <ele>90.533673</ele>
        <time>2022-12-29T14:37:44.906Z</time>
      </trkpt>
      <trkpt lat="44.18943" lon="0.61485">
        <ele>90.807151</ele>
        <time>2022-12-29T14:37:47.904Z</time>
      </trkpt>
      <trkpt lat="44.18933" lon="0.61496">
        <ele>91.103093</ele>
        <time>2022-12-29T14:37:50.924Z</time>
      </trkpt>
      <trkpt lat="44.18922" lon="0.61507">
        <ele>91.307598</ele>
        <time>2022-12-29T14:37:53.909Z</time>
      </trkpt>
      <trkpt lat="44.18912" lon="0.61517">
        <ele>91.398169</ele>
        <time>2022-12-29T14:37:56.905Z</time>
      </trkpt>
      <trkpt lat="44.18903" lon="0.61526">
        <ele>91.477069</ele>
        <time>2022-12-29T14:37:59.919Z</time>
      </trkpt>
      <trkpt lat="44.18895" lon="0.61534">
        <ele>91.547136</ele>
        <time>2022-12-29T14:38:02.919Z</time>
      </trkpt>
      <trkpt lat="44.18888" lon="0.61542">
        <ele>91.614843</ele>
        <time>2022-12-29T14:38:05.903Z</time>
      </trkpt>
      <trkpt lat="44.18878" lon="0.61552">
        <ele>91.702589</ele>
        <time>2022-12-29T14:38:09.912Z</time>
      </trkpt>
      <trkpt lat="44.18869" lon="0.61563">
        <ele>91.782856</ele>
        <time>2022-12-29T14:38:12.903Z</time>
      </trkpt>
      <trkpt lat="44.1886" lon="0.61572">
        <ele>91.863779</ele>
        <time>2022-12-29T14:38:15.909Z</time>
      </trkpt>
      <trkpt lat="44.18851" lon="0.61581">
        <ele>91.94379</ele>
        <time>2022-12-29T14:38:18.904Z</time>
      </trkpt>
      <trkpt lat="44.18842" lon="0.61591">
        <ele>92.02507</ele>
        <time>2022-12-29T14:38:21.901Z</time>
      </trkpt>
      <trkpt lat="44.18832" lon="0.61599">
        <ele>92.107811</ele>
        <time>2022-12-29T14:38:24.913Z</time>
      </trkpt>
      <trkpt lat="44.18822" lon="0.61607">
        <ele>92.193852</ele>
        <time>2022-12-29T14:38:27.913Z</time>
      </trkpt>
      <trkpt lat="44.18811" lon="0.61613">
        <ele>92.278921</ele>
        <time>2022-12-29T14:38:30.907Z</time>
      </trkpt>
      <trkpt lat="44.18799" lon="0.61618">
        <ele>92.361669</ele>
        <time>2022-12-29T14:38:33.915Z</time>
      </trkpt>
      <trkpt lat="44.18788" lon="0.6162">
        <ele>92.443774</ele>
        <time>2022-12-29T14:38:36.915Z</time>
      </trkpt>
      <trkpt lat="44.18776" lon="0.61622">
        <ele>92.527946</ele>
        <time>2022-12-29T14:38:39.900Z</time>
      </trkpt>
      <trkpt lat="44.18764" lon="0.61622">
        <ele>92.658278</ele>
        <time>2022-12-29T14:38:42.911Z</time>
      </trkpt>
      <trkpt lat="44.18752" lon="0.61622">
        <ele>92.808983</ele>
        <time>2022-12-29T14:38:45.909Z</time>
      </trkpt>
      <trkpt lat="44.18741" lon="0.6162">
        <ele>92.947219</ele>
        <time>2022-12-29T14:38:48.908Z</time>
      </trkpt>
      <trkpt lat="44.18732" lon="0.61618">
        <ele>93.061947</ele>
        <time>2022-12-29T14:38:51.917Z</time>
      </trkpt>
      <trkpt lat="44.18721" lon="0.6161">
        <ele>93.210569</ele>
        <time>2022-12-29T14:38:55.904Z</time>
      </trkpt>
      <trkpt lat="44.1871" lon="0.61615">
        <ele>93.352925</ele>
        <time>2022-12-29T14:38:58.919Z</time>
      </trkpt>
      <trkpt lat="44.18701" lon="0.61625">
        <ele>93.497853</ele>
        <time>2022-12-29T14:39:01.908Z</time>
      </trkpt>
      <trkpt lat="44.18691" lon="0.61632">
        <ele>93.634154</ele>
        <time>2022-12-29T14:39:04.909Z</time>
      </trkpt>
      <trkpt lat="44.18679" lon="0.61635">
        <ele>93.787676</ele>
        <time>2022-12-29T14:39:07.914Z</time>
      </trkpt>
      <trkpt lat="44.1867" lon="0.61636">
        <ele>93.901074</ele>
        <time>2022-12-29T14:39:09.913Z</time>
      </trkpt>
      <trkpt lat="44.18657" lon="0.6164">
        <ele>94.06235</ele>
        <time>2022-12-29T14:39:12.903Z</time>
      </trkpt>
      <trkpt lat="44.18644" lon="0.61644">
        <ele>94.227574</ele>
        <time>2022-12-29T14:39:15.909Z</time>
      </trkpt>
      <trkpt lat="44.18634" lon="0.61647">
        <ele>94.353212</ele>
        <time>2022-12-29T14:39:17.904Z</time>
      </trkpt>
      <trkpt lat="44.18621" lon="0.61649">
        <ele>94.517625</ele>
        <time>2022-12-29T14:39:20.908Z</time>
      </trkpt>
      <trkpt lat="44.18612" lon="0.61651">
        <ele>94.629291</ele>
        <time>2022-12-29T14:39:22.917Z</time>
      </trkpt>
      <trkpt lat="44.186" lon="0.61653">
        <ele>94.773653</ele>
        <time>2022-12-29T14:39:25.907Z</time>
      </trkpt>
      <trkpt lat="44.1859" lon="0.61655">
        <ele>94.74856</ele>
        <time>2022-12-29T14:39:28.907Z</time>
      </trkpt>
      <trkpt lat="44.18579" lon="0.6166">
        <ele>94.721258</ele>
        <time>2022-12-29T14:39:31.926Z</time>
      </trkpt>
      <trkpt lat="44.18568" lon="0.61664">
        <ele>94.693675</ele>
        <time>2022-12-29T14:39:34.923Z</time>
      </trkpt>
      <trkpt lat="44.18556" lon="0.61667">
        <ele>94.666198</ele>
        <time>2022-12-29T14:39:37.911Z</time>
      </trkpt>
      <trkpt lat="44.18545" lon="0.6167">
        <ele>94.639255</ele>
        <time>2022-12-29T14:39:40.901Z</time>
      </trkpt>
      <trkpt lat="44.18534" lon="0.61673">
        <ele>94.612515</ele>
        <time>2022-12-29T14:39:43.906Z</time>
      </trkpt>
      <trkpt lat="44.18524" lon="0.61675">
        <ele>94.586837</ele>
        <time>2022-12-29T14:39:46.911Z</time>
      </trkpt>
      <trkpt lat="44.18512" lon="0.61673">
        <ele>94.558714</ele>
        <time>2022-12-29T14:39:49.913Z</time>
      </trkpt>
      <trkpt lat="44.18498" lon="0.61677">
        <ele>94.526072</ele>
        <time>2022-12-29T14:39:52.920Z</time>
      </trkpt>
      <trkpt lat="44.18489" lon="0.61683">
        <ele>94.501467</ele>
        <time>2022-12-29T14:39:54.903Z</time>
      </trkpt>
      <trkpt lat="44.1848" lon="0.61686">
        <ele>94.479812</ele>
        <time>2022-12-29T14:39:56.916Z</time>
      </trkpt>
      <trkpt lat="44.18472" lon="0.61689">
        <ele>94.458152</ele>
        <time>2022-12-29T14:39:58.904Z</time>
      </trkpt>
      <trkpt lat="44.18462" lon="0.61691">
        <ele>94.434987</ele>
        <time>2022-12-29T14:40:00.914Z</time>
      </trkpt>
      <trkpt lat="44.18453" lon="0.61695">
        <ele>94.413101</ele>
        <time>2022-12-29T14:40:02.908Z</time>
      </trkpt>
      <trkpt lat="44.18443" lon="0.61698">
        <ele>94.38928</ele>
        <time>2022-12-29T14:40:04.908Z</time>
      </trkpt>
      <trkpt lat="44.18435" lon="0.61702">
        <ele>94.36758</ele>
        <time>2022-12-29T14:40:06.913Z</time>
      </trkpt>
      <trkpt lat="44.18425" lon="0.61704">
        <ele>94.34296</ele>
        <time>2022-12-29T14:40:08.921Z</time>
      </trkpt>
      <trkpt lat="44.18416" lon="0.61706">
        <ele>94.297507</ele>
        <time>2022-12-29T14:40:10.931Z</time>
      </trkpt>
      <trkpt lat="44.18403" lon="0.61709">
        <ele>94.229043</ele>
        <time>2022-12-29T14:40:13.906Z</time>
      </trkpt>
      <trkpt lat="44.18394" lon="0.61711">
        <ele>94.181961</ele>
        <time>2022-12-29T14:40:15.910Z</time>
      </trkpt>
      <trkpt lat="44.18381" lon="0.61713">
        <ele>94.11782</ele>
        <time>2022-12-29T14:40:18.914Z</time>
      </trkpt>
      <trkpt lat="44.1837" lon="0.61715">
        <ele>94.058741</ele>
        <time>2022-12-29T14:40:21.907Z</time>
      </trkpt>
      <trkpt lat="44.18357" lon="0.61718">
        <ele>93.993639</ele>
        <time>2022-12-29T14:40:24.906Z</time>
      </trkpt>
      <trkpt lat="44.18348" lon="0.6172">
        <ele>93.947997</ele>
        <time>2022-12-29T14:40:26.910Z</time>
      </trkpt>
      <trkpt lat="44.18336" lon="0.61724">
        <ele>93.880707</ele>
        <time>2022-12-29T14:40:29.916Z</time>
      </trkpt>
      <trkpt lat="44.18323" lon="0.6173">
        <ele>93.812915</ele>
        <time>2022-12-29T14:40:32.907Z</time>
      </trkpt>
      <trkpt lat="44.18314" lon="0.61733">
        <ele>93.766554</ele>
        <time>2022-12-29T14:40:34.903Z</time>
      </trkpt>
      <trkpt lat="44.18302" lon="0.61737">
        <ele>93.701671</ele>
        <time>2022-12-29T14:40:37.904Z</time>
      </trkpt>
      <trkpt lat="44.18291" lon="0.6174">
        <ele>93.643657</ele>
        <time>2022-12-29T14:40:40.898Z</time>
      </trkpt>
      <trkpt lat="44.18279" lon="0.61744">
        <ele>93.582731</ele>
        <time>2022-12-29T14:40:43.910Z</time>
      </trkpt>
      <trkpt lat="44.18266" lon="0.61747">
        <ele>93.515999</ele>
        <time>2022-12-29T14:40:46.903Z</time>
      </trkpt>
      <trkpt lat="44.18253" lon="0.6175">
        <ele>93.446567</ele>
        <time>2022-12-29T14:40:49.910Z</time>
      </trkpt>
      <trkpt lat="44.18243" lon="0.61753">
        <ele>93.481485</ele>
        <time>2022-12-29T14:40:51.905Z</time>
      </trkpt>
      <trkpt lat="44.18234" lon="0.61755">
        <ele>93.55901</ele>
        <time>2022-12-29T14:40:53.907Z</time>
      </trkpt>
      <trkpt lat="44.1822" lon="0.61759">
        <ele>93.673996</ele>
        <time>2022-12-29T14:40:56.909Z</time>
      </trkpt>
      <trkpt lat="44.18212" lon="0.61762">
        <ele>93.751056</ele>
        <time>2022-12-29T14:40:58.926Z</time>
      </trkpt>
      <trkpt lat="44.182" lon="0.61763">
        <ele>93.849291</ele>
        <time>2022-12-29T14:41:01.904Z</time>
      </trkpt>
      <trkpt lat="44.18188" lon="0.61765">
        <ele>93.94842</ele>
        <time>2022-12-29T14:41:04.904Z</time>
      </trkpt>
      <trkpt lat="44.18176" lon="0.61767">
        <ele>94.050237</ele>
        <time>2022-12-29T14:41:07.910Z</time>
      </trkpt>
      <trkpt lat="44.18165" lon="0.6177">
        <ele>94.148529</ele>
        <time>2022-12-29T14:41:10.919Z</time>
      </trkpt>
      <trkpt lat="44.18154" lon="0.61771">
        <ele>94.237571</ele>
        <time>2022-12-29T14:41:13.907Z</time>
      </trkpt>
      <trkpt lat="44.18144" lon="0.61774">
        <ele>94.323987</ele>
        <time>2022-12-29T14:41:16.907Z</time>
      </trkpt>
      <trkpt lat="44.18135" lon="0.61776">
        <ele>94.401512</ele>
        <time>2022-12-29T14:41:19.906Z</time>
      </trkpt>
      <trkpt lat="44.18124" lon="0.6178">
        <ele>94.499857</ele>
        <time>2022-12-29T14:41:22.916Z</time>
      </trkpt>
      <trkpt lat="44.18111" lon="0.61784">
        <ele>94.609752</ele>
        <time>2022-12-29T14:41:25.904Z</time>
      </trkpt>
      <trkpt lat="44.18103" lon="0.61786">
        <ele>94.686118</ele>
        <time>2022-12-29T14:41:27.907Z</time>
      </trkpt>
      <trkpt lat="44.18094" lon="0.61789">
        <ele>94.763731</ele>
        <time>2022-12-29T14:41:29.912Z</time>
      </trkpt>
      <trkpt lat="44.18081" lon="0.61794">
        <ele>94.874447</ele>
        <time>2022-12-29T14:41:32.903Z</time>
      </trkpt>
      <trkpt lat="44.18069" lon="0.61797">
        <ele>94.927572</ele>
        <time>2022-12-29T14:41:35.907Z</time>
      </trkpt>
      <trkpt lat="44.18058" lon="0.61801">
        <ele>94.843374</ele>
        <time>2022-12-29T14:41:38.906Z</time>
      </trkpt>
      <trkpt lat="44.18046" lon="0.61805">
        <ele>94.758143</ele>
        <time>2022-12-29T14:41:41.921Z</time>
      </trkpt>
      <trkpt lat="44.18036" lon="0.61806">
        <ele>94.686985</ele>
        <time>2022-12-29T14:41:44.908Z</time>
      </trkpt>
      <trkpt lat="44.18021" lon="0.61823">
        <ele>94.55026</ele>
        <time>2022-12-29T14:42:24.910Z</time>
      </trkpt>
      <trkpt lat="44.18012" lon="0.61827">
        <ele>94.481453</ele>
        <time>2022-12-29T14:42:28.926Z</time>
      </trkpt>
      <trkpt lat="44.18003" lon="0.61831">
        <ele>94.413882</ele>
        <time>2022-12-29T14:42:31.908Z</time>
      </trkpt>
      <trkpt lat="44.17994" lon="0.61836">
        <ele>94.344635</ele>
        <time>2022-12-29T14:42:34.906Z</time>
      </trkpt>
      <trkpt lat="44.17984" lon="0.61839">
        <ele>94.274886</ele>
        <time>2022-12-29T14:42:37.908Z</time>
      </trkpt>
      <trkpt lat="44.17975" lon="0.61843">
        <ele>94.209308</ele>
        <time>2022-12-29T14:42:40.917Z</time>
      </trkpt>
      <trkpt lat="44.17965" lon="0.61848">
        <ele>94.134778</ele>
        <time>2022-12-29T14:42:44.919Z</time>
      </trkpt>
      <trkpt lat="44.17957" lon="0.61853">
        <ele>94.069415</ele>
        <time>2022-12-29T14:42:49.910Z</time>
      </trkpt>
      <trkpt lat="44.17946" lon="0.61857">
        <ele>93.990928</ele>
        <time>2022-12-29T14:42:55.903Z</time>
      </trkpt>
      <trkpt lat="44.17935" lon="0.61859">
        <ele>93.911794</ele>
        <time>2022-12-29T14:42:59.907Z</time>
      </trkpt>
      <trkpt lat="44.17926" lon="0.61864">
        <ele>93.84773</ele>
        <time>2022-12-29T14:43:02.904Z</time>
      </trkpt>
      <trkpt lat="44.17917" lon="0.61868">
        <ele>93.777271</ele>
        <time>2022-12-29T14:43:05.906Z</time>
      </trkpt>
      <trkpt lat="44.17908" lon="0.61872">
        <ele>93.709031</ele>
        <time>2022-12-29T14:43:08.914Z</time>
      </trkpt>
      <trkpt lat="44.17899" lon="0.61879">
        <ele>93.66046</ele>
        <time>2022-12-29T14:43:11.905Z</time>
      </trkpt>
      <trkpt lat="44.17893" lon="0.61889">
        <ele>93.6337</ele>
        <time>2022-12-29T14:43:14.912Z</time>
      </trkpt>
      <trkpt lat="44.17891" lon="0.61902">
        <ele>93.607395</ele>
        <time>2022-12-29T14:43:19.908Z</time>
      </trkpt>
      <trkpt lat="44.17887" lon="0.61914">
        <ele>93.58054</ele>
        <time>2022-12-29T14:43:23.908Z</time>
      </trkpt>
      <trkpt lat="44.17888" lon="0.61927">
        <ele>93.552577</ele>
        <time>2022-12-29T14:43:26.910Z</time>
      </trkpt>
      <trkpt lat="44.1789" lon="0.61942">
        <ele>93.521777</ele>
        <time>2022-12-29T14:43:29.903Z</time>
      </trkpt>
      <trkpt lat="44.17892" lon="0.61959">
        <ele>93.488169</ele>
        <time>2022-12-29T14:43:32.911Z</time>
      </trkpt>
      <trkpt lat="44.17894" lon="0.61975">
        <ele>93.454411</ele>
        <time>2022-12-29T14:43:35.909Z</time>
      </trkpt>
      <trkpt lat="44.17896" lon="0.61991">
        <ele>93.421689</ele>
        <time>2022-12-29T14:43:38.917Z</time>
      </trkpt>
      <trkpt lat="44.17898" lon="0.62005">
        <ele>93.392142</ele>
        <time>2022-12-29T14:43:41.904Z</time>
      </trkpt>
      <trkpt lat="44.17899" lon="0.6202">
        <ele>93.361106</ele>
        <time>2022-12-29T14:43:44.901Z</time>
      </trkpt>
      <trkpt lat="44.17902" lon="0.62037">
        <ele>93.326643</ele>
        <time>2022-12-29T14:43:47.901Z</time>
      </trkpt>
      <trkpt lat="44.17903" lon="0.62054">
        <ele>93.289874</ele>
        <time>2022-12-29T14:43:50.905Z</time>
      </trkpt>
      <trkpt lat="44.17905" lon="0.6207">
        <ele>93.256768</ele>
        <time>2022-12-29T14:43:53.899Z</time>
      </trkpt>
      <trkpt lat="44.17907" lon="0.62085">
        <ele>93.226215</ele>
        <time>2022-12-29T14:43:56.906Z</time>
      </trkpt>
      <trkpt lat="44.17909" lon="0.62101">
        <ele>93.194162</ele>
        <time>2022-12-29T14:43:59.907Z</time>
      </trkpt>
      <trkpt lat="44.17911" lon="0.62117">
        <ele>93.166551</ele>
        <time>2022-12-29T14:44:02.898Z</time>
      </trkpt>
      <trkpt lat="44.17913" lon="0.62135">
        <ele>93.187761</ele>
        <time>2022-12-29T14:44:05.916Z</time>
      </trkpt>
      <trkpt lat="44.17915" lon="0.62153">
        <ele>93.208971</ele>
        <time>2022-12-29T14:44:08.906Z</time>
      </trkpt>
      <trkpt lat="44.17917" lon="0.62171">
        <ele>93.22981</ele>
        <time>2022-12-29T14:44:11.912Z</time>
      </trkpt>
      <trkpt lat="44.17919" lon="0.62189">
        <ele>93.250845</ele>
        <time>2022-12-29T14:44:14.909Z</time>
      </trkpt>
      <trkpt lat="44.17921" lon="0.62206">
        <ele>93.271481</ele>
        <time>2022-12-29T14:44:17.905Z</time>
      </trkpt>
      <trkpt lat="44.17924" lon="0.62223">
        <ele>93.291778</ele>
        <time>2022-12-29T14:44:20.914Z</time>
      </trkpt>
      <trkpt lat="44.17926" lon="0.62239">
        <ele>93.310744</ele>
        <time>2022-12-29T14:44:23.910Z</time>
      </trkpt>
      <trkpt lat="44.17928" lon="0.62255">
        <ele>93.329404</ele>
        <time>2022-12-29T14:44:26.906Z</time>
      </trkpt>
      <trkpt lat="44.17931" lon="0.62273">
        <ele>93.350411</ele>
        <time>2022-12-29T14:44:29.905Z</time>
      </trkpt>
      <trkpt lat="44.17933" lon="0.62291">
        <ele>93.371675</ele>
        <time>2022-12-29T14:44:32.912Z</time>
      </trkpt>
      <trkpt lat="44.17935" lon="0.62309">
        <ele>93.392906</ele>
        <time>2022-12-29T14:44:35.904Z</time>
      </trkpt>
      <trkpt lat="44.17937" lon="0.62327">
        <ele>93.414486</ele>
        <time>2022-12-29T14:44:38.918Z</time>
      </trkpt>
      <trkpt lat="44.1794" lon="0.62345">
        <ele>93.436055</ele>
        <time>2022-12-29T14:44:41.903Z</time>
      </trkpt>
      <trkpt lat="44.17944" lon="0.62363">
        <ele>93.47717</ele>
        <time>2022-12-29T14:44:44.912Z</time>
      </trkpt>
      <trkpt lat="44.17947" lon="0.62381">
        <ele>93.711084</ele>
        <time>2022-12-29T14:44:47.905Z</time>
      </trkpt>
      <trkpt lat="44.17951" lon="0.62394">
        <ele>93.882285</ele>
        <time>2022-12-29T14:44:49.907Z</time>
      </trkpt>
      <trkpt lat="44.17954" lon="0.62406">
        <ele>94.046999</ele>
        <time>2022-12-29T14:44:51.911Z</time>
      </trkpt>
      <trkpt lat="44.17957" lon="0.62419">
        <ele>94.213504</ele>
        <time>2022-12-29T14:44:53.902Z</time>
      </trkpt>
      <trkpt lat="44.17962" lon="0.62434">
        <ele>94.417931</ele>
        <time>2022-12-29T14:44:56.918Z</time>
      </trkpt>
      <trkpt lat="44.17966" lon="0.62448">
        <ele>94.612165</ele>
        <time>2022-12-29T14:44:59.913Z</time>
      </trkpt>
      <trkpt lat="44.1797" lon="0.62464">
        <ele>94.824124</ele>
        <time>2022-12-29T14:45:02.904Z</time>
      </trkpt>
      <trkpt lat="44.17974" lon="0.6248">
        <ele>95.037879</ele>
        <time>2022-12-29T14:45:05.904Z</time>
      </trkpt>
      <trkpt lat="44.17979" lon="0.62496">
        <ele>95.252633</ele>
        <time>2022-12-29T14:45:08.905Z</time>
      </trkpt>
      <trkpt lat="44.17984" lon="0.6251">
        <ele>95.455558</ele>
        <time>2022-12-29T14:45:11.900Z</time>
      </trkpt>
      <trkpt lat="44.17989" lon="0.62526">
        <ele>95.669049</ele>
        <time>2022-12-29T14:45:14.914Z</time>
      </trkpt>
      <trkpt lat="44.17994" lon="0.6254">
        <ele>95.861416</ele>
        <time>2022-12-29T14:45:17.927Z</time>
      </trkpt>
      <trkpt lat="44.17998" lon="0.62552">
        <ele>96.033414</ele>
        <time>2022-12-29T14:45:20.908Z</time>
      </trkpt>
      <trkpt lat="44.18" lon="0.62566">
        <ele>96.215919</ele>
        <time>2022-12-29T14:45:24.911Z</time>
      </trkpt>
      <trkpt lat="44.17992" lon="0.62577">
        <ele>96.417454</ele>
        <time>2022-12-29T14:45:28.913Z</time>
      </trkpt>
      <trkpt lat="44.17985" lon="0.62586">
        <ele>96.577168</ele>
        <time>2022-12-29T14:45:31.905Z</time>
      </trkpt>
      <trkpt lat="44.17983" lon="0.62601">
        <ele>96.551594</ele>
        <time>2022-12-29T14:45:35.905Z</time>
      </trkpt>
      <trkpt lat="44.17983" lon="0.62614">
        <ele>96.501704</ele>
        <time>2022-12-29T14:45:39.904Z</time>
      </trkpt>
      <trkpt lat="44.17979" lon="0.62625">
        <ele>96.453366</ele>
        <time>2022-12-29T14:45:56.903Z</time>
      </trkpt>
      <trkpt lat="44.17977" lon="0.62639">
        <ele>96.39954</ele>
        <time>2022-12-29T14:46:00.917Z</time>
      </trkpt>
      <trkpt lat="44.17974" lon="0.62652">
        <ele>96.348287</ele>
        <time>2022-12-29T14:46:03.905Z</time>
      </trkpt>
      <trkpt lat="44.1797" lon="0.62666">
        <ele>96.289135</ele>
        <time>2022-12-29T14:46:06.904Z</time>
      </trkpt>
      <trkpt lat="44.17965" lon="0.62682">
        <ele>96.226212</ele>
        <time>2022-12-29T14:46:09.907Z</time>
      </trkpt>
      <trkpt lat="44.17961" lon="0.62697">
        <ele>96.162579</ele>
        <time>2022-12-29T14:46:12.911Z</time>
      </trkpt>
      <trkpt lat="44.17956" lon="0.62714">
        <ele>96.09282</ele>
        <time>2022-12-29T14:46:15.907Z</time>
      </trkpt>
      <trkpt lat="44.17951" lon="0.62731">
        <ele>96.024456</ele>
        <time>2022-12-29T14:46:18.900Z</time>
      </trkpt>
      <trkpt lat="44.17945" lon="0.62748">
        <ele>95.952268</ele>
        <time>2022-12-29T14:46:21.903Z</time>
      </trkpt>
      <trkpt lat="44.17942" lon="0.6276">
        <ele>95.903233</ele>
        <time>2022-12-29T14:46:23.908Z</time>
      </trkpt>
      <trkpt lat="44.17936" lon="0.62776">
        <ele>95.835904</ele>
        <time>2022-12-29T14:46:26.910Z</time>
      </trkpt>
      <trkpt lat="44.17932" lon="0.62789">
        <ele>95.77966</ele>
        <time>2022-12-29T14:46:29.907Z</time>
      </trkpt>
      <trkpt lat="44.17927" lon="0.62803">
        <ele>95.724012</ele>
        <time>2022-12-29T14:46:32.903Z</time>
      </trkpt>
      <trkpt lat="44.17919" lon="0.62811">
        <ele>95.666725</ele>
        <time>2022-12-29T14:46:35.902Z</time>
      </trkpt>
      <trkpt lat="44.17909" lon="0.62815">
        <ele>95.589181</ele>
        <time>2022-12-29T14:46:38.897Z</time>
      </trkpt>
      <trkpt lat="44.17902" lon="0.62824">
        <ele>95.505597</ele>
        <time>2022-12-29T14:46:41.911Z</time>
      </trkpt>
      <trkpt lat="44.17896" lon="0.62834">
        <ele>95.423437</ele>
        <time>2022-12-29T14:46:44.913Z</time>
      </trkpt>
      <trkpt lat="44.1789" lon="0.62844">
        <ele>95.338156</ele>
        <time>2022-12-29T14:46:48.928Z</time>
      </trkpt>
      <trkpt lat="44.17894" lon="0.62856">
        <ele>95.255163</ele>
        <time>2022-12-29T14:46:52.907Z</time>
      </trkpt>
      <trkpt lat="44.17895" lon="0.62869">
        <ele>95.171991</ele>
        <time>2022-12-29T14:46:55.904Z</time>
      </trkpt>
      <trkpt lat="44.17895" lon="0.62884">
        <ele>95.080497</ele>
        <time>2022-12-29T14:46:58.911Z</time>
      </trkpt>
      <trkpt lat="44.17893" lon="0.62898">
        <ele>94.986907</ele>
        <time>2022-12-29T14:47:01.913Z</time>
      </trkpt>
      <trkpt lat="44.1789" lon="0.62912">
        <ele>94.893007</ele>
        <time>2022-12-29T14:47:04.905Z</time>
      </trkpt>
      <trkpt lat="44.17886" lon="0.62927">
        <ele>94.793421</ele>
        <time>2022-12-29T14:47:07.903Z</time>
      </trkpt>
      <trkpt lat="44.17882" lon="0.62941">
        <ele>94.697079</ele>
        <time>2022-12-29T14:47:10.910Z</time>
      </trkpt>
      <trkpt lat="44.17878" lon="0.62954">
        <ele>94.606704</ele>
        <time>2022-12-29T14:47:13.900Z</time>
      </trkpt>
      <trkpt lat="44.17875" lon="0.62967">
        <ele>94.519659</ele>
        <time>2022-12-29T14:47:16.910Z</time>
      </trkpt>
      <trkpt lat="44.17871" lon="0.62979">
        <ele>94.437818</ele>
        <time>2022-12-29T14:47:19.915Z</time>
      </trkpt>
      <trkpt lat="44.17863" lon="0.62988">
        <ele>94.349352</ele>
        <time>2022-12-29T14:47:23.901Z</time>
      </trkpt>
      <trkpt lat="44.17854" lon="0.62991">
        <ele>94.265499</ele>
        <time>2022-12-29T14:47:26.904Z</time>
      </trkpt>
      <trkpt lat="44.17845" lon="0.62998">
        <ele>94.177567</ele>
        <time>2022-12-29T14:47:29.900Z</time>
      </trkpt>
      <trkpt lat="44.17839" lon="0.63009">
        <ele>94.083532</ele>
        <time>2022-12-29T14:47:33.898Z</time>
      </trkpt>
      <trkpt lat="44.17837" lon="0.63025">
        <ele>94.01278</ele>
        <time>2022-12-29T14:47:38.908Z</time>
      </trkpt>
      <trkpt lat="44.1784" lon="0.63038">
        <ele>93.960149</ele>
        <time>2022-12-29T14:47:42.911Z</time>
      </trkpt>
      <trkpt lat="44.17847" lon="0.63049">
        <ele>93.905506</ele>
        <time>2022-12-29T14:47:46.912Z</time>
      </trkpt>
      <trkpt lat="44.17847" lon="0.63062">
        <ele>93.857191</ele>
        <time>2022-12-29T14:47:49.907Z</time>
      </trkpt>
      <trkpt lat="44.17846" lon="0.63077">
        <ele>93.800508</ele>
        <time>2022-12-29T14:47:52.904Z</time>
      </trkpt>
      <trkpt lat="44.17845" lon="0.63092">
        <ele>93.74555</ele>
        <time>2022-12-29T14:47:55.915Z</time>
      </trkpt>
      <trkpt lat="44.17842" lon="0.63105">
        <ele>93.692393</ele>
        <time>2022-12-29T14:47:58.914Z</time>
      </trkpt>
      <trkpt lat="44.17839" lon="0.63118">
        <ele>93.642709</ele>
        <time>2022-12-29T14:48:01.913Z</time>
      </trkpt>
      <trkpt lat="44.17838" lon="0.63134">
        <ele>93.58341</ele>
        <time>2022-12-29T14:48:05.911Z</time>
      </trkpt>
      <trkpt lat="44.17836" lon="0.63146">
        <ele>93.535621</ele>
        <time>2022-12-29T14:48:09.919Z</time>
      </trkpt>
      <trkpt lat="44.17838" lon="0.63159">
        <ele>93.488657</ele>
        <time>2022-12-29T14:48:13.901Z</time>
      </trkpt>
      <trkpt lat="44.17838" lon="0.63173">
        <ele>93.434009</ele>
        <time>2022-12-29T14:48:17.910Z</time>
      </trkpt>
      <trkpt lat="44.17839" lon="0.63186">
        <ele>93.385695</ele>
        <time>2022-12-29T14:48:20.900Z</time>
      </trkpt>
      <trkpt lat="44.17841" lon="0.632">
        <ele>93.334505</ele>
        <time>2022-12-29T14:48:24.904Z</time>
      </trkpt>
      <trkpt lat="44.17844" lon="0.63214">
        <ele>93.278503</ele>
        <time>2022-12-29T14:48:27.904Z</time>
      </trkpt>
      <trkpt lat="44.17846" lon="0.63229">
        <ele>93.222073</ele>
        <time>2022-12-29T14:48:30.917Z</time>
      </trkpt>
      <trkpt lat="44.17847" lon="0.63243">
        <ele>93.170092</ele>
        <time>2022-12-29T14:48:33.910Z</time>
      </trkpt>
      <trkpt lat="44.17849" lon="0.63259">
        <ele>93.115115</ele>
        <time>2022-12-29T14:48:37.920Z</time>
      </trkpt>
      <trkpt lat="44.17854" lon="0.63291">
        <ele>93.088449</ele>
        <time>2022-12-29T14:49:09.907Z</time>
      </trkpt>
      <trkpt lat="44.17857" lon="0.63308">
        <ele>93.074911</ele>
        <time>2022-12-29T14:49:12.917Z</time>
      </trkpt>
      <trkpt lat="44.1786" lon="0.63324">
        <ele>93.06147</ele>
        <time>2022-12-29T14:49:15.914Z</time>
      </trkpt>
      <trkpt lat="44.17863" lon="0.63338">
        <ele>93.050012</ele>
        <time>2022-12-29T14:49:18.913Z</time>
      </trkpt>
      <trkpt lat="44.17866" lon="0.63354">
        <ele>93.037251</ele>
        <time>2022-12-29T14:49:22.911Z</time>
      </trkpt>
      <trkpt lat="44.17868" lon="0.63366">
        <ele>93.02701</ele>
        <time>2022-12-29T14:49:25.909Z</time>
      </trkpt>
      <trkpt lat="44.1787" lon="0.63381">
        <ele>93.015123</ele>
        <time>2022-12-29T14:49:29.906Z</time>
      </trkpt>
      <trkpt lat="44.17872" lon="0.63394">
        <ele>93.00483</ele>
        <time>2022-12-29T14:49:32.911Z</time>
      </trkpt>
      <trkpt lat="44.17872" lon="0.63407">
        <ele>92.994017</ele>
        <time>2022-12-29T14:49:35.916Z</time>
      </trkpt>
      <trkpt lat="44.17873" lon="0.6342">
        <ele>92.984013</ele>
        <time>2022-12-29T14:49:38.916Z</time>
      </trkpt>
      <trkpt lat="44.17869" lon="0.63436">
        <ele>92.97103</ele>
        <time>2022-12-29T14:49:42.906Z</time>
      </trkpt>
      <trkpt lat="44.17863" lon="0.63449">
        <ele>92.958196</ele>
        <time>2022-12-29T14:49:45.905Z</time>
      </trkpt>
      <trkpt lat="44.17855" lon="0.6346">
        <ele>92.94566</ele>
        <time>2022-12-29T14:49:48.904Z</time>
      </trkpt>
      <trkpt lat="44.17845" lon="0.63467">
        <ele>92.933155</ele>
        <time>2022-12-29T14:49:51.913Z</time>
      </trkpt>
      <trkpt lat="44.17833" lon="0.63472">
        <ele>92.919483</ele>
        <time>2022-12-29T14:49:54.910Z</time>
      </trkpt>
      <trkpt lat="44.17821" lon="0.63474">
        <ele>92.98608</ele>
        <time>2022-12-29T14:49:57.904Z</time>
      </trkpt>
      <trkpt lat="44.17808" lon="0.63477">
        <ele>93.0722</ele>
        <time>2022-12-29T14:50:00.901Z</time>
      </trkpt>
      <trkpt lat="44.17797" lon="0.63482">
        <ele>93.155334</ele>
        <time>2022-12-29T14:50:03.919Z</time>
      </trkpt>
      <trkpt lat="44.17785" lon="0.63485">
        <ele>93.236127</ele>
        <time>2022-12-29T14:50:06.905Z</time>
      </trkpt>
      <trkpt lat="44.17773" lon="0.63489">
        <ele>93.321138</ele>
        <time>2022-12-29T14:50:09.913Z</time>
      </trkpt>
      <trkpt lat="44.1776" lon="0.63493">
        <ele>93.40937</ele>
        <time>2022-12-29T14:50:12.917Z</time>
      </trkpt>
      <trkpt lat="44.17748" lon="0.63498">
        <ele>93.495928</ele>
        <time>2022-12-29T14:50:15.900Z</time>
      </trkpt>
      <trkpt lat="44.17736" lon="0.63504">
        <ele>93.586186</ele>
        <time>2022-12-29T14:50:18.905Z</time>
      </trkpt>
      <trkpt lat="44.17723" lon="0.6351">
        <ele>93.674949</ele>
        <time>2022-12-29T14:50:21.913Z</time>
      </trkpt>
      <trkpt lat="44.17712" lon="0.63515">
        <ele>93.756769</ele>
        <time>2022-12-29T14:50:24.908Z</time>
      </trkpt>
      <trkpt lat="44.17702" lon="0.63521">
        <ele>93.834087</ele>
        <time>2022-12-29T14:50:27.901Z</time>
      </trkpt>
      <trkpt lat="44.17689" lon="0.63526">
        <ele>93.921298</ele>
        <time>2022-12-29T14:50:30.920Z</time>
      </trkpt>
      <trkpt lat="44.17677" lon="0.6353">
        <ele>94.005998</ele>
        <time>2022-12-29T14:50:33.915Z</time>
      </trkpt>
      <trkpt lat="44.17664" lon="0.63535">
        <ele>94.099557</ele>
        <time>2022-12-29T14:50:36.911Z</time>
      </trkpt>
      <trkpt lat="44.17651" lon="0.63539">
        <ele>94.109513</ele>
        <time>2022-12-29T14:50:39.902Z</time>
      </trkpt>
      <trkpt lat="44.17638" lon="0.63542">
        <ele>94.035282</ele>
        <time>2022-12-29T14:50:42.919Z</time>
      </trkpt>
      <trkpt lat="44.17626" lon="0.63545">
        <ele>93.963463</ele>
        <time>2022-12-29T14:50:45.918Z</time>
      </trkpt>
      <trkpt lat="44.17614" lon="0.63547">
        <ele>93.894731</ele>
        <time>2022-12-29T14:50:48.910Z</time>
      </trkpt>
      <trkpt lat="44.17604" lon="0.63545">
        <ele>93.833443</ele>
        <time>2022-12-29T14:50:51.906Z</time>
      </trkpt>
      <trkpt lat="44.17595" lon="0.63539">
        <ele>93.775768</ele>
        <time>2022-12-29T14:50:54.905Z</time>
      </trkpt>
      <trkpt lat="44.17586" lon="0.63534">
        <ele>93.723528</ele>
        <time>2022-12-29T14:50:57.918Z</time>
      </trkpt>
      <trkpt lat="44.17577" lon="0.63533">
        <ele>93.670479</ele>
        <time>2022-12-29T14:51:01.913Z</time>
      </trkpt>
      <trkpt lat="44.17566" lon="0.63551">
        <ele>93.571265</ele>
        <time>2022-12-29T14:51:22.916Z</time>
      </trkpt>
      <trkpt lat="44.17567" lon="0.63566">
        <ele>93.509039</ele>
        <time>2022-12-29T14:51:25.910Z</time>
      </trkpt>
      <trkpt lat="44.17572" lon="0.63582">
        <ele>93.434636</ele>
        <time>2022-12-29T14:51:28.906Z</time>
      </trkpt>
      <trkpt lat="44.17575" lon="0.63595">
        <ele>93.381375</ele>
        <time>2022-12-29T14:51:30.920Z</time>
      </trkpt>
      <trkpt lat="44.17573" lon="0.63607">
        <ele>93.329061</ele>
        <time>2022-12-29T14:51:32.923Z</time>
      </trkpt>
      <trkpt lat="44.17569" lon="0.63624">
        <ele>93.25513</ele>
        <time>2022-12-29T14:51:35.933Z</time>
      </trkpt>
      <trkpt lat="44.17565" lon="0.6364">
        <ele>93.184526</ele>
        <time>2022-12-29T14:51:38.923Z</time>
      </trkpt>
      <trkpt lat="44.17562" lon="0.63657">
        <ele>93.111968</ele>
        <time>2022-12-29T14:51:41.904Z</time>
      </trkpt>
      <trkpt lat="44.17563" lon="0.63673">
        <ele>93.162406</ele>
        <time>2022-12-29T14:51:44.915Z</time>
      </trkpt>
      <trkpt lat="44.17564" lon="0.6369">
        <ele>93.222775</ele>
        <time>2022-12-29T14:51:47.912Z</time>
      </trkpt>
      <trkpt lat="44.17566" lon="0.63707">
        <ele>93.282528</ele>
        <time>2022-12-29T14:51:50.921Z</time>
      </trkpt>
      <trkpt lat="44.17565" lon="0.63722">
        <ele>93.337698</ele>
        <time>2022-12-29T14:51:53.924Z</time>
      </trkpt>
      <trkpt lat="44.1756" lon="0.63736">
        <ele>93.392434</ele>
        <time>2022-12-29T14:51:56.917Z</time>
      </trkpt>
      <trkpt lat="44.17565" lon="0.6375">
        <ele>93.446737</ele>
        <time>2022-12-29T14:51:59.901Z</time>
      </trkpt>
      <trkpt lat="44.17572" lon="0.63764">
        <ele>93.50894</ele>
        <time>2022-12-29T14:52:02.910Z</time>
      </trkpt>
      <trkpt lat="44.17574" lon="0.63778">
        <ele>93.558656</ele>
        <time>2022-12-29T14:52:04.930Z</time>
      </trkpt>
      <trkpt lat="44.17575" lon="0.6379">
        <ele>93.604763</ele>
        <time>2022-12-29T14:52:06.910Z</time>
      </trkpt>
      <trkpt lat="44.17577" lon="0.63804">
        <ele>93.652365</ele>
        <time>2022-12-29T14:52:08.917Z</time>
      </trkpt>
      <trkpt lat="44.1758" lon="0.63821">
        <ele>93.717051</ele>
        <time>2022-12-29T14:52:11.923Z</time>
      </trkpt>
      <trkpt lat="44.17583" lon="0.63839">
        <ele>93.782868</ele>
        <time>2022-12-29T14:52:14.905Z</time>
      </trkpt>
      <trkpt lat="44.17584" lon="0.63852">
        <ele>93.828623</ele>
        <time>2022-12-29T14:52:16.911Z</time>
      </trkpt>
      <trkpt lat="44.17586" lon="0.63869">
        <ele>93.888804</ele>
        <time>2022-12-29T14:52:19.922Z</time>
      </trkpt>
      <trkpt lat="44.17587" lon="0.63883">
        <ele>93.940282</ele>
        <time>2022-12-29T14:52:22.932Z</time>
      </trkpt>
      <trkpt lat="44.17589" lon="0.63898">
        <ele>93.995672</ele>
        <time>2022-12-29T14:52:25.926Z</time>
      </trkpt>
      <trkpt lat="44.1759" lon="0.63916">
        <ele>94.074889</ele>
        <time>2022-12-29T14:52:28.913Z</time>
      </trkpt>
      <trkpt lat="44.1759" lon="0.63933">
        <ele>94.158348</ele>
        <time>2022-12-29T14:52:31.912Z</time>
      </trkpt>
      <trkpt lat="44.17585" lon="0.63945">
        <ele>94.222137</ele>
        <time>2022-12-29T14:52:34.903Z</time>
      </trkpt>
      <trkpt lat="44.17585" lon="0.63959">
        <ele>94.284502</ele>
        <time>2022-12-29T14:52:37.910Z</time>
      </trkpt>
      <trkpt lat="44.17591" lon="0.63969">
        <ele>94.3466</ele>
        <time>2022-12-29T14:52:41.917Z</time>
      </trkpt>
      <trkpt lat="44.17587" lon="0.63984">
        <ele>94.416766</ele>
        <time>2022-12-29T14:52:48.935Z</time>
      </trkpt>
      <trkpt lat="44.1759" lon="0.63996">
        <ele>94.478127</ele>
        <time>2022-12-29T14:52:54.911Z</time>
      </trkpt>
      <trkpt lat="44.17599" lon="0.63971">
        <ele>94.605858</ele>
        <time>2022-12-29T14:53:58.919Z</time>
      </trkpt>
      <trkpt lat="44.17607" lon="0.63964">
        <ele>94.665743</ele>
        <time>2022-12-29T14:54:01.910Z</time>
      </trkpt>
      <trkpt lat="44.17614" lon="0.63955">
        <ele>94.732027</ele>
        <time>2022-12-29T14:54:04.908Z</time>
      </trkpt>
      <trkpt lat="44.17623" lon="0.63949">
        <ele>94.795098</ele>
        <time>2022-12-29T14:54:07.908Z</time>
      </trkpt>
      <trkpt lat="44.17634" lon="0.63947">
        <ele>94.870852</ele>
        <time>2022-12-29T14:54:10.909Z</time>
      </trkpt>
      <trkpt lat="44.17646" lon="0.63945">
        <ele>94.950162</ele>
        <time>2022-12-29T14:54:13.909Z</time>
      </trkpt>
      <trkpt lat="44.17659" lon="0.63942">
        <ele>95.035501</ele>
        <time>2022-12-29T14:54:16.908Z</time>
      </trkpt>
      <trkpt lat="44.17671" lon="0.63939">
        <ele>95.115031</ele>
        <time>2022-12-29T14:54:19.906Z</time>
      </trkpt>
      <trkpt lat="44.17683" lon="0.63937">
        <ele>95.153645</ele>
        <time>2022-12-29T14:54:22.921Z</time>
      </trkpt>
      <trkpt lat="44.17692" lon="0.63935">
        <ele>94.995878</ele>
        <time>2022-12-29T14:54:24.918Z</time>
      </trkpt>
      <trkpt lat="44.17701" lon="0.63933">
        <ele>94.832938</ele>
        <time>2022-12-29T14:54:26.909Z</time>
      </trkpt>
      <trkpt lat="44.17711" lon="0.63931">
        <ele>94.659029</ele>
        <time>2022-12-29T14:54:28.928Z</time>
      </trkpt>
      <trkpt lat="44.1772" lon="0.63927">
        <ele>94.491301</ele>
        <time>2022-12-29T14:54:30.910Z</time>
      </trkpt>
      <trkpt lat="44.17729" lon="0.63924">
        <ele>94.327269</ele>
        <time>2022-12-29T14:54:32.904Z</time>
      </trkpt>
      <trkpt lat="44.17738" lon="0.63922">
        <ele>94.167345</ele>
        <time>2022-12-29T14:54:34.925Z</time>
      </trkpt>
      <trkpt lat="44.17751" lon="0.63918">
        <ele>93.929063</ele>
        <time>2022-12-29T14:54:37.909Z</time>
      </trkpt>
      <trkpt lat="44.17761" lon="0.63923">
        <ele>93.747096</ele>
        <time>2022-12-29T14:54:40.908Z</time>
      </trkpt>
      <trkpt lat="44.17766" lon="0.63935">
        <ele>93.574013</ele>
        <time>2022-12-29T14:54:43.900Z</time>
      </trkpt>
      <trkpt lat="44.17766" lon="0.63949">
        <ele>93.408098</ele>
        <time>2022-12-29T14:54:46.915Z</time>
      </trkpt>
      <trkpt lat="44.17767" lon="0.63963">
        <ele>93.222546</ele>
        <time>2022-12-29T14:54:49.919Z</time>
      </trkpt>
      <trkpt lat="44.17766" lon="0.6398">
        <ele>93.013028</ele>
        <time>2022-12-29T14:54:52.904Z</time>
      </trkpt>
      <trkpt lat="44.17764" lon="0.63997">
        <ele>92.795387</ele>
        <time>2022-12-29T14:54:55.915Z</time>
      </trkpt>
      <trkpt lat="44.17764" lon="0.64015">
        <ele>92.569208</ele>
        <time>2022-12-29T14:54:58.920Z</time>
      </trkpt>
      <trkpt lat="44.17763" lon="0.64034">
        <ele>92.339756</ele>
        <time>2022-12-29T14:55:01.910Z</time>
      </trkpt>
      <trkpt lat="44.17762" lon="0.64047">
        <ele>92.174705</ele>
        <time>2022-12-29T14:55:03.914Z</time>
      </trkpt>
      <trkpt lat="44.17761" lon="0.64059">
        <ele>92.030066</ele>
        <time>2022-12-29T14:55:05.911Z</time>
      </trkpt>
      <trkpt lat="44.1776" lon="0.64073">
        <ele>91.983237</ele>
        <time>2022-12-29T14:55:07.907Z</time>
      </trkpt>
      <trkpt lat="44.17759" lon="0.64086">
        <ele>91.93645</ele>
        <time>2022-12-29T14:55:09.909Z</time>
      </trkpt>
      <trkpt lat="44.17759" lon="0.64099">
        <ele>91.889744</ele>
        <time>2022-12-29T14:55:11.914Z</time>
      </trkpt>
      <trkpt lat="44.17758" lon="0.64112">
        <ele>91.845015</ele>
        <time>2022-12-29T14:55:13.908Z</time>
      </trkpt>
      <trkpt lat="44.17758" lon="0.6413">
        <ele>91.781389</ele>
        <time>2022-12-29T14:55:16.909Z</time>
      </trkpt>
      <trkpt lat="44.17756" lon="0.64148">
        <ele>91.717349</ele>
        <time>2022-12-29T14:55:19.912Z</time>
      </trkpt>
      <trkpt lat="44.17753" lon="0.64167">
        <ele>91.651587</ele>
        <time>2022-12-29T14:55:22.916Z</time>
      </trkpt>
      <trkpt lat="44.17752" lon="0.64184">
        <ele>91.589855</ele>
        <time>2022-12-29T14:55:25.905Z</time>
      </trkpt>
      <trkpt lat="44.17751" lon="0.642">
        <ele>91.53417</ele>
        <time>2022-12-29T14:55:28.904Z</time>
      </trkpt>
      <trkpt lat="44.17747" lon="0.64212">
        <ele>91.487979</ele>
        <time>2022-12-29T14:55:34.904Z</time>
      </trkpt>
      <trkpt lat="44.17738" lon="0.64211">
        <ele>91.443355</ele>
        <time>2022-12-29T14:55:40.919Z</time>
      </trkpt>
      <trkpt lat="44.17726" lon="0.64208">
        <ele>91.384081</ele>
        <time>2022-12-29T14:55:44.900Z</time>
      </trkpt>
      <trkpt lat="44.17715" lon="0.64206">
        <ele>91.329234</ele>
        <time>2022-12-29T14:55:47.921Z</time>
      </trkpt>
      <trkpt lat="44.17703" lon="0.64204">
        <ele>91.269755</ele>
        <time>2022-12-29T14:55:50.911Z</time>
      </trkpt>
      <trkpt lat="44.17691" lon="0.64202">
        <ele>91.209327</ele>
        <time>2022-12-29T14:55:53.913Z</time>
      </trkpt>
      <trkpt lat="44.17677" lon="0.642">
        <ele>91.154612</ele>
        <time>2022-12-29T14:55:56.913Z</time>
      </trkpt>
      <trkpt lat="44.17664" lon="0.64198">
        <ele>91.147905</ele>
        <time>2022-12-29T14:55:59.921Z</time>
      </trkpt>
      <trkpt lat="44.17655" lon="0.64196">
        <ele>91.143354</ele>
        <time>2022-12-29T14:56:01.922Z</time>
      </trkpt>
      <trkpt lat="44.17642" lon="0.64193">
        <ele>91.136902</ele>
        <time>2022-12-29T14:56:04.919Z</time>
      </trkpt>
      <trkpt lat="44.17631" lon="0.64191">
        <ele>91.131094</ele>
        <time>2022-12-29T14:56:07.918Z</time>
      </trkpt>
      <trkpt lat="44.17619" lon="0.6419">
        <ele>91.1255</ele>
        <time>2022-12-29T14:56:10.911Z</time>
      </trkpt>
      <trkpt lat="44.17607" lon="0.64189">
        <ele>91.119323</ele>
        <time>2022-12-29T14:56:13.919Z</time>
      </trkpt>
      <trkpt lat="44.17594" lon="0.64188">
        <ele>91.112634</ele>
        <time>2022-12-29T14:56:16.897Z</time>
      </trkpt>
      <trkpt lat="44.17581" lon="0.64185">
        <ele>91.106121</ele>
        <time>2022-12-29T14:56:19.905Z</time>
      </trkpt>
      <trkpt lat="44.17568" lon="0.64183">
        <ele>91.099892</ele>
        <time>2022-12-29T14:56:22.910Z</time>
      </trkpt>
      <trkpt lat="44.17557" lon="0.6418">
        <ele>91.09433</ele>
        <time>2022-12-29T14:56:25.919Z</time>
      </trkpt>
      <trkpt lat="44.17546" lon="0.64177">
        <ele>91.088413</ele>
        <time>2022-12-29T14:56:28.914Z</time>
      </trkpt>
      <trkpt lat="44.17533" lon="0.64176">
        <ele>91.082165</ele>
        <time>2022-12-29T14:56:31.920Z</time>
      </trkpt>
      <trkpt lat="44.17521" lon="0.64176">
        <ele>91.076284</ele>
        <time>2022-12-29T14:56:34.896Z</time>
      </trkpt>
      <trkpt lat="44.17511" lon="0.64177">
        <ele>91.07135</ele>
        <time>2022-12-29T14:56:37.917Z</time>
      </trkpt>
      <trkpt lat="44.175" lon="0.64178">
        <ele>91.065136</ele>
        <time>2022-12-29T14:56:41.923Z</time>
      </trkpt>
      <trkpt lat="44.17491" lon="0.64179">
        <ele>91.055523</ele>
        <time>2022-12-29T14:56:45.918Z</time>
      </trkpt>
      <trkpt lat="44.17483" lon="0.64158">
        <ele>91.037454</ele>
        <time>2022-12-29T14:57:52.915Z</time>
      </trkpt>
      <trkpt lat="44.17481" lon="0.64143">
        <ele>91.025806</ele>
        <time>2022-12-29T14:57:55.914Z</time>
      </trkpt>
      <trkpt lat="44.17479" lon="0.64126">
        <ele>91.012357</ele>
        <time>2022-12-29T14:57:58.918Z</time>
      </trkpt>
      <trkpt lat="44.17478" lon="0.64113">
        <ele>91.002567</ele>
        <time>2022-12-29T14:58:00.913Z</time>
      </trkpt>
      <trkpt lat="44.17477" lon="0.641">
        <ele>90.992276</ele>
        <time>2022-12-29T14:58:02.903Z</time>
      </trkpt>
      <trkpt lat="44.17475" lon="0.64086">
        <ele>90.981798</ele>
        <time>2022-12-29T14:58:04.905Z</time>
      </trkpt>
      <trkpt lat="44.17473" lon="0.64073">
        <ele>90.971182</ele>
        <time>2022-12-29T14:58:06.921Z</time>
      </trkpt>
      <trkpt lat="44.17471" lon="0.64059">
        <ele>90.960267</ele>
        <time>2022-12-29T14:58:08.923Z</time>
      </trkpt>
      <trkpt lat="44.17469" lon="0.64046">
        <ele>90.950239</ele>
        <time>2022-12-29T14:58:10.926Z</time>
      </trkpt>
      <trkpt lat="44.17466" lon="0.64028">
        <ele>90.936173</ele>
        <time>2022-12-29T14:58:13.904Z</time>
      </trkpt>
      <trkpt lat="44.17464" lon="0.6401">
        <ele>90.922161</ele>
        <time>2022-12-29T14:58:16.916Z</time>
      </trkpt>
      <trkpt lat="44.17463" lon="0.63997">
        <ele>90.912563</ele>
        <time>2022-12-29T14:58:18.914Z</time>
      </trkpt>
      <trkpt lat="44.17461" lon="0.63985">
        <ele>90.902799</ele>
        <time>2022-12-29T14:58:20.905Z</time>
      </trkpt>
      <trkpt lat="44.17459" lon="0.63972">
        <ele>90.892749</ele>
        <time>2022-12-29T14:58:22.910Z</time>
      </trkpt>
      <trkpt lat="44.17458" lon="0.63959">
        <ele>90.883035</ele>
        <time>2022-12-29T14:58:24.914Z</time>
      </trkpt>
      <trkpt lat="44.17456" lon="0.63946">
        <ele>90.885712</ele>
        <time>2022-12-29T14:58:26.914Z</time>
      </trkpt>
      <trkpt lat="44.17454" lon="0.63933">
        <ele>90.942994</ele>
        <time>2022-12-29T14:58:28.915Z</time>
      </trkpt>
      <trkpt lat="44.17453" lon="0.6392">
        <ele>90.998476</ele>
        <time>2022-12-29T14:58:30.910Z</time>
      </trkpt>
      <trkpt lat="44.17451" lon="0.63907">
        <ele>91.055106</ele>
        <time>2022-12-29T14:58:32.912Z</time>
      </trkpt>
      <trkpt lat="44.17449" lon="0.63894">
        <ele>91.110399</ele>
        <time>2022-12-29T14:58:34.916Z</time>
      </trkpt>
      <trkpt lat="44.17448" lon="0.63881">
        <ele>91.166341</ele>
        <time>2022-12-29T14:58:36.905Z</time>
      </trkpt>
      <trkpt lat="44.17445" lon="0.63863">
        <ele>91.242769</ele>
        <time>2022-12-29T14:58:39.908Z</time>
      </trkpt>
      <trkpt lat="44.17443" lon="0.63846">
        <ele>91.316157</ele>
        <time>2022-12-29T14:58:42.906Z</time>
      </trkpt>
      <trkpt lat="44.17442" lon="0.63834">
        <ele>91.369145</ele>
        <time>2022-12-29T14:58:44.912Z</time>
      </trkpt>
      <trkpt lat="44.17439" lon="0.63821">
        <ele>91.425263</ele>
        <time>2022-12-29T14:58:46.907Z</time>
      </trkpt>
      <trkpt lat="44.17438" lon="0.63808">
        <ele>91.480453</ele>
        <time>2022-12-29T14:58:48.912Z</time>
      </trkpt>
      <trkpt lat="44.17436" lon="0.63795">
        <ele>91.535746</ele>
        <time>2022-12-29T14:58:50.907Z</time>
      </trkpt>
      <trkpt lat="44.17434" lon="0.63782">
        <ele>91.592281</ele>
        <time>2022-12-29T14:58:52.916Z</time>
      </trkpt>
      <trkpt lat="44.17433" lon="0.63769">
        <ele>91.649428</ele>
        <time>2022-12-29T14:58:54.907Z</time>
      </trkpt>
      <trkpt lat="44.17431" lon="0.63756">
        <ele>91.704605</ele>
        <time>2022-12-29T14:58:56.913Z</time>
      </trkpt>
      <trkpt lat="44.17429" lon="0.63739">
        <ele>91.778095</ele>
        <time>2022-12-29T14:58:59.908Z</time>
      </trkpt>
      <trkpt lat="44.17427" lon="0.63724">
        <ele>91.843171</ele>
        <time>2022-12-29T14:59:02.911Z</time>
      </trkpt>
      <trkpt lat="44.17426" lon="0.63709">
        <ele>91.903311</ele>
        <time>2022-12-29T14:59:05.909Z</time>
      </trkpt>
      <trkpt lat="44.17426" lon="0.63694">
        <ele>91.969805</ele>
        <time>2022-12-29T14:59:08.904Z</time>
      </trkpt>
      <trkpt lat="44.17428" lon="0.6368">
        <ele>92.038684</ele>
        <time>2022-12-29T14:59:11.909Z</time>
      </trkpt>
      <trkpt lat="44.17429" lon="0.63666">
        <ele>92.102899</ele>
        <time>2022-12-29T14:59:14.904Z</time>
      </trkpt>
      <trkpt lat="44.17432" lon="0.63652">
        <ele>92.170665</ele>
        <time>2022-12-29T14:59:18.902Z</time>
      </trkpt>
      <trkpt lat="44.17434" lon="0.63639">
        <ele>92.236304</ele>
        <time>2022-12-29T14:59:23.906Z</time>
      </trkpt>
      <trkpt lat="44.17427" lon="0.6362">
        <ele>92.337826</ele>
        <time>2022-12-29T14:59:58.921Z</time>
      </trkpt>
      <trkpt lat="44.17418" lon="0.63614">
        <ele>92.405527</ele>
        <time>2022-12-29T15:00:02.913Z</time>
      </trkpt>
      <trkpt lat="44.17408" lon="0.6361">
        <ele>92.475125</ele>
        <time>2022-12-29T15:00:05.912Z</time>
      </trkpt>
      <trkpt lat="44.17396" lon="0.63611">
        <ele>92.549727</ele>
        <time>2022-12-29T15:00:08.917Z</time>
      </trkpt>
      <trkpt lat="44.17387" lon="0.6362">
        <ele>92.622701</ele>
        <time>2022-12-29T15:00:11.908Z</time>
      </trkpt>
      <trkpt lat="44.1738" lon="0.63631">
        <ele>92.692465</ele>
        <time>2022-12-29T15:00:14.906Z</time>
      </trkpt>
      <trkpt lat="44.1737" lon="0.6364">
        <ele>92.766522</ele>
        <time>2022-12-29T15:00:17.907Z</time>
      </trkpt>
      <trkpt lat="44.17358" lon="0.63645">
        <ele>92.854242</ele>
        <time>2022-12-29T15:00:20.917Z</time>
      </trkpt>
      <trkpt lat="44.17346" lon="0.63651">
        <ele>92.935453</ele>
        <time>2022-12-29T15:00:23.908Z</time>
      </trkpt>
      <trkpt lat="44.17336" lon="0.63657">
        <ele>93.007701</ele>
        <time>2022-12-29T15:00:26.918Z</time>
      </trkpt>
      <trkpt lat="44.17327" lon="0.63664">
        <ele>93.07685</ele>
        <time>2022-12-29T15:00:29.902Z</time>
      </trkpt>
      <trkpt lat="44.17317" lon="0.63673">
        <ele>93.060576</ele>
        <time>2022-12-29T15:00:32.905Z</time>
      </trkpt>
      <trkpt lat="44.17306" lon="0.63683">
        <ele>92.934742</ele>
        <time>2022-12-29T15:00:35.928Z</time>
      </trkpt>
      <trkpt lat="44.17298" lon="0.63691">
        <ele>92.843987</ele>
        <time>2022-12-29T15:00:37.911Z</time>
      </trkpt>
      <trkpt lat="44.1729" lon="0.63699">
        <ele>92.752365</ele>
        <time>2022-12-29T15:00:39.918Z</time>
      </trkpt>
      <trkpt lat="44.17283" lon="0.63707">
        <ele>92.661081</ele>
        <time>2022-12-29T15:00:41.916Z</time>
      </trkpt>
      <trkpt lat="44.17275" lon="0.63715">
        <ele>92.567765</ele>
        <time>2022-12-29T15:00:43.913Z</time>
      </trkpt>
      <trkpt lat="44.17268" lon="0.63725">
        <ele>92.471367</ele>
        <time>2022-12-29T15:00:45.905Z</time>
      </trkpt>
      <trkpt lat="44.1726" lon="0.63734">
        <ele>92.376143</ele>
        <time>2022-12-29T15:00:47.904Z</time>
      </trkpt>
      <trkpt lat="44.17253" lon="0.63743">
        <ele>92.282812</ele>
        <time>2022-12-29T15:00:49.907Z</time>
      </trkpt>
      <trkpt lat="44.17246" lon="0.63753">
        <ele>92.184312</ele>
        <time>2022-12-29T15:00:51.903Z</time>
      </trkpt>
      <trkpt lat="44.17239" lon="0.63762">
        <ele>92.092871</ele>
        <time>2022-12-29T15:00:53.908Z</time>
      </trkpt>
      <trkpt lat="44.17231" lon="0.63771">
        <ele>91.993399</ele>
        <time>2022-12-29T15:00:55.901Z</time>
      </trkpt>
      <trkpt lat="44.17224" lon="0.63782">
        <ele>91.897368</ele>
        <time>2022-12-29T15:00:57.908Z</time>
      </trkpt>
      <trkpt lat="44.17217" lon="0.63791">
        <ele>91.803484</ele>
        <time>2022-12-29T15:00:59.908Z</time>
      </trkpt>
      <trkpt lat="44.1721" lon="0.638">
        <ele>91.712448</ele>
        <time>2022-12-29T15:01:01.913Z</time>
      </trkpt>
      <trkpt lat="44.17203" lon="0.63809">
        <ele>91.620781</ele>
        <time>2022-12-29T15:01:03.907Z</time>
      </trkpt>
      <trkpt lat="44.17196" lon="0.63818">
        <ele>91.532361</ele>
        <time>2022-12-29T15:01:05.905Z</time>
      </trkpt>
      <trkpt lat="44.17189" lon="0.63828">
        <ele>91.438584</ele>
        <time>2022-12-29T15:01:07.914Z</time>
      </trkpt>
      <trkpt lat="44.17183" lon="0.63836">
        <ele>91.434299</ele>
        <time>2022-12-29T15:01:09.910Z</time>
      </trkpt>
      <trkpt lat="44.17175" lon="0.63845">
        <ele>91.524781</ele>
        <time>2022-12-29T15:01:11.903Z</time>
      </trkpt>
      <trkpt lat="44.17168" lon="0.63855">
        <ele>91.613211</ele>
        <time>2022-12-29T15:01:13.915Z</time>
      </trkpt>
      <trkpt lat="44.17161" lon="0.63864">
        <ele>91.703959</ele>
        <time>2022-12-29T15:01:15.911Z</time>
      </trkpt>
      <trkpt lat="44.17151" lon="0.63876">
        <ele>91.82345</ele>
        <time>2022-12-29T15:01:18.911Z</time>
      </trkpt>
      <trkpt lat="44.17142" lon="0.63887">
        <ele>91.935734</ele>
        <time>2022-12-29T15:01:21.907Z</time>
      </trkpt>
      <trkpt lat="44.17134" lon="0.63898">
        <ele>92.041708</ele>
        <time>2022-12-29T15:01:24.905Z</time>
      </trkpt>
      <trkpt lat="44.17126" lon="0.63907">
        <ele>92.134162</ele>
        <time>2022-12-29T15:01:27.915Z</time>
      </trkpt>
      <trkpt lat="44.17118" lon="0.63916">
        <ele>92.231375</ele>
        <time>2022-12-29T15:01:31.911Z</time>
      </trkpt>
      <trkpt lat="44.17105" lon="0.63933">
        <ele>92.398803</ele>
        <time>2022-12-29T15:02:43.903Z</time>
      </trkpt>
      <trkpt lat="44.17096" lon="0.63943">
        <ele>92.499727</ele>
        <time>2022-12-29T15:02:46.913Z</time>
      </trkpt>
      <trkpt lat="44.17087" lon="0.63954">
        <ele>92.609842</ele>
        <time>2022-12-29T15:02:49.917Z</time>
      </trkpt>
      <trkpt lat="44.17078" lon="0.63963">
        <ele>92.711886</ele>
        <time>2022-12-29T15:02:52.920Z</time>
      </trkpt>
      <trkpt lat="44.17068" lon="0.63971">
        <ele>92.820376</ele>
        <time>2022-12-29T15:02:56.918Z</time>
      </trkpt>
      <trkpt lat="44.17058" lon="0.6398">
        <ele>92.925448</ele>
        <time>2022-12-29T15:03:00.917Z</time>
      </trkpt>
      <trkpt lat="44.17051" lon="0.63989">
        <ele>93.01513</ele>
        <time>2022-12-29T15:03:03.918Z</time>
      </trkpt>
      <trkpt lat="44.17041" lon="0.63998">
        <ele>92.972038</ele>
        <time>2022-12-29T15:03:06.921Z</time>
      </trkpt>
      <trkpt lat="44.1703" lon="0.64008">
        <ele>92.850376</ele>
        <time>2022-12-29T15:03:09.895Z</time>
      </trkpt>
      <trkpt lat="44.17019" lon="0.64018">
        <ele>92.733718</ele>
        <time>2022-12-29T15:03:12.919Z</time>
      </trkpt>
      <trkpt lat="44.17011" lon="0.64025">
        <ele>92.64503</ele>
        <time>2022-12-29T15:03:14.895Z</time>
      </trkpt>
      <trkpt lat="44.17003" lon="0.64032">
        <ele>92.555167</ele>
        <time>2022-12-29T15:03:16.918Z</time>
      </trkpt>
      <trkpt lat="44.16995" lon="0.6404">
        <ele>92.461874</ele>
        <time>2022-12-29T15:03:18.909Z</time>
      </trkpt>
      <trkpt lat="44.16987" lon="0.64048">
        <ele>92.367434</ele>
        <time>2022-12-29T15:03:20.917Z</time>
      </trkpt>
      <trkpt lat="44.16978" lon="0.64056">
        <ele>92.27067</ele>
        <time>2022-12-29T15:03:22.915Z</time>
      </trkpt>
      <trkpt lat="44.16969" lon="0.64065">
        <ele>92.172422</ele>
        <time>2022-12-29T15:03:24.908Z</time>
      </trkpt>
      <trkpt lat="44.1696" lon="0.64073">
        <ele>92.070655</ele>
        <time>2022-12-29T15:03:26.917Z</time>
      </trkpt>
      <trkpt lat="44.16951" lon="0.64081">
        <ele>91.972745</ele>
        <time>2022-12-29T15:03:28.925Z</time>
      </trkpt>
      <trkpt lat="44.16942" lon="0.64089">
        <ele>91.870616</ele>
        <time>2022-12-29T15:03:30.919Z</time>
      </trkpt>
      <trkpt lat="44.16933" lon="0.64097">
        <ele>91.774632</ele>
        <time>2022-12-29T15:03:32.920Z</time>
      </trkpt>
      <trkpt lat="44.16924" lon="0.64105">
        <ele>91.673931</ele>
        <time>2022-12-29T15:03:34.912Z</time>
      </trkpt>
      <trkpt lat="44.16916" lon="0.64113">
        <ele>91.577596</ele>
        <time>2022-12-29T15:03:36.898Z</time>
      </trkpt>
      <trkpt lat="44.16907" lon="0.64121">
        <ele>91.48234</ele>
        <time>2022-12-29T15:03:38.898Z</time>
      </trkpt>
      <trkpt lat="44.16898" lon="0.64129">
        <ele>91.382076</ele>
        <time>2022-12-29T15:03:40.897Z</time>
      </trkpt>
      <trkpt lat="44.16889" lon="0.64137">
        <ele>91.336969</ele>
        <time>2022-12-29T15:03:42.902Z</time>
      </trkpt>
      <trkpt lat="44.1688" lon="0.64145">
        <ele>91.297183</ele>
        <time>2022-12-29T15:03:44.903Z</time>
      </trkpt>
      <trkpt lat="44.16871" lon="0.64152">
        <ele>91.2587</ele>
        <time>2022-12-29T15:03:46.903Z</time>
      </trkpt>
      <trkpt lat="44.16862" lon="0.64161">
        <ele>91.217038</ele>
        <time>2022-12-29T15:03:48.916Z</time>
      </trkpt>
      <trkpt lat="44.16852" lon="0.6417">
        <ele>91.174377</ele>
        <time>2022-12-29T15:03:50.917Z</time>
      </trkpt>
      <trkpt lat="44.16843" lon="0.64177">
        <ele>91.134454</ele>
        <time>2022-12-29T15:03:52.912Z</time>
      </trkpt>
      <trkpt lat="44.16833" lon="0.64185">
        <ele>91.093937</ele>
        <time>2022-12-29T15:03:54.914Z</time>
      </trkpt>
      <trkpt lat="44.16825" lon="0.64193">
        <ele>91.054996</ele>
        <time>2022-12-29T15:03:56.897Z</time>
      </trkpt>
      <trkpt lat="44.16816" lon="0.642">
        <ele>91.018213</ele>
        <time>2022-12-29T15:03:58.904Z</time>
      </trkpt>
      <trkpt lat="44.16806" lon="0.64207">
        <ele>90.977034</ele>
        <time>2022-12-29T15:04:00.919Z</time>
      </trkpt>
      <trkpt lat="44.16797" lon="0.64216">
        <ele>90.93415</ele>
        <time>2022-12-29T15:04:02.918Z</time>
      </trkpt>
      <trkpt lat="44.16788" lon="0.64225">
        <ele>90.893386</ele>
        <time>2022-12-29T15:04:04.922Z</time>
      </trkpt>
      <trkpt lat="44.16778" lon="0.64234">
        <ele>90.850183</ele>
        <time>2022-12-29T15:04:06.920Z</time>
      </trkpt>
      <trkpt lat="44.16769" lon="0.64244">
        <ele>90.808344</ele>
        <time>2022-12-29T15:04:08.914Z</time>
      </trkpt>
      <trkpt lat="44.1676" lon="0.64252">
        <ele>90.765761</ele>
        <time>2022-12-29T15:04:10.912Z</time>
      </trkpt>
      <trkpt lat="44.1675" lon="0.64261">
        <ele>90.723635</ele>
        <time>2022-12-29T15:04:12.918Z</time>
      </trkpt>
      <trkpt lat="44.1674" lon="0.6427">
        <ele>90.721245</ele>
        <time>2022-12-29T15:04:14.918Z</time>
      </trkpt>
      <trkpt lat="44.16731" lon="0.64278">
        <ele>90.746263</ele>
        <time>2022-12-29T15:04:16.918Z</time>
      </trkpt>
      <trkpt lat="44.16722" lon="0.64287">
        <ele>90.772106</ele>
        <time>2022-12-29T15:04:18.910Z</time>
      </trkpt>
      <trkpt lat="44.16712" lon="0.64296">
        <ele>90.799173</ele>
        <time>2022-12-29T15:04:20.918Z</time>
      </trkpt>
      <trkpt lat="44.16701" lon="0.64305">
        <ele>90.828159</ele>
        <time>2022-12-29T15:04:22.918Z</time>
      </trkpt>
      <trkpt lat="44.16691" lon="0.64314">
        <ele>90.855391</ele>
        <time>2022-12-29T15:04:24.915Z</time>
      </trkpt>
      <trkpt lat="44.16682" lon="0.64323">
        <ele>90.880943</ele>
        <time>2022-12-29T15:04:26.918Z</time>
      </trkpt>
      <trkpt lat="44.16673" lon="0.64332">
        <ele>90.905744</ele>
        <time>2022-12-29T15:04:28.915Z</time>
      </trkpt>
      <trkpt lat="44.16663" lon="0.6434">
        <ele>90.931577</ele>
        <time>2022-12-29T15:04:30.918Z</time>
      </trkpt>
      <trkpt lat="44.16654" lon="0.64349">
        <ele>90.956477</ele>
        <time>2022-12-29T15:04:32.918Z</time>
      </trkpt>
      <trkpt lat="44.16645" lon="0.64357">
        <ele>90.980741</ele>
        <time>2022-12-29T15:04:34.914Z</time>
      </trkpt>
      <trkpt lat="44.16635" lon="0.64365">
        <ele>91.006486</ele>
        <time>2022-12-29T15:04:36.921Z</time>
      </trkpt>
      <trkpt lat="44.16626" lon="0.64373">
        <ele>91.031207</ele>
        <time>2022-12-29T15:04:38.920Z</time>
      </trkpt>
      <trkpt lat="44.16616" lon="0.64381">
        <ele>91.057629</ele>
        <time>2022-12-29T15:04:40.919Z</time>
      </trkpt>
      <trkpt lat="44.16607" lon="0.64388">
        <ele>91.082503</ele>
        <time>2022-12-29T15:04:42.917Z</time>
      </trkpt>
      <trkpt lat="44.16599" lon="0.64397">
        <ele>91.105633</ele>
        <time>2022-12-29T15:04:44.916Z</time>
      </trkpt>
      <trkpt lat="44.16589" lon="0.64405">
        <ele>91.18004</ele>
        <time>2022-12-29T15:04:46.919Z</time>
      </trkpt>
      <trkpt lat="44.16581" lon="0.64413">
        <ele>91.275596</ele>
        <time>2022-12-29T15:04:48.927Z</time>
      </trkpt>
      <trkpt lat="44.16573" lon="0.64421">
        <ele>91.369957</ele>
        <time>2022-12-29T15:04:50.920Z</time>
      </trkpt>
      <trkpt lat="44.16564" lon="0.64429">
        <ele>91.469782</ele>
        <time>2022-12-29T15:04:52.920Z</time>
      </trkpt>
      <trkpt lat="44.16555" lon="0.64437">
        <ele>91.567594</ele>
        <time>2022-12-29T15:04:54.910Z</time>
      </trkpt>
      <trkpt lat="44.16547" lon="0.64445">
        <ele>91.660783</ele>
        <time>2022-12-29T15:04:56.915Z</time>
      </trkpt>
      <trkpt lat="44.16539" lon="0.64453">
        <ele>91.757914</ele>
        <time>2022-12-29T15:04:58.918Z</time>
      </trkpt>
      <trkpt lat="44.16532" lon="0.64462">
        <ele>91.850659</ele>
        <time>2022-12-29T15:05:00.918Z</time>
      </trkpt>
      <trkpt lat="44.16524" lon="0.64471">
        <ele>91.946071</ele>
        <time>2022-12-29T15:05:02.916Z</time>
      </trkpt>
      <trkpt lat="44.16516" lon="0.6448">
        <ele>92.042938</ele>
        <time>2022-12-29T15:05:04.916Z</time>
      </trkpt>
      <trkpt lat="44.16508" lon="0.6449">
        <ele>92.146498</ele>
        <time>2022-12-29T15:05:06.918Z</time>
      </trkpt>
      <trkpt lat="44.165" lon="0.645">
        <ele>92.244678</ele>
        <time>2022-12-29T15:05:08.897Z</time>
      </trkpt>
      <trkpt lat="44.16493" lon="0.6451">
        <ele>92.345408</ele>
        <time>2022-12-29T15:05:10.897Z</time>
      </trkpt>
      <trkpt lat="44.16484" lon="0.6452">
        <ele>92.450546</ele>
        <time>2022-12-29T15:05:12.918Z</time>
      </trkpt>
      <trkpt lat="44.16477" lon="0.64531">
        <ele>92.556201</ele>
        <time>2022-12-29T15:05:14.900Z</time>
      </trkpt>
      <trkpt lat="44.16469" lon="0.64543">
        <ele>92.665432</ele>
        <time>2022-12-29T15:05:16.917Z</time>
      </trkpt>
      <trkpt lat="44.16461" lon="0.64552">
        <ele>92.762217</ele>
        <time>2022-12-29T15:05:18.918Z</time>
      </trkpt>
      <trkpt lat="44.16453" lon="0.64562">
        <ele>92.83785</ele>
        <time>2022-12-29T15:05:20.917Z</time>
      </trkpt>
      <trkpt lat="44.16445" lon="0.64572">
        <ele>92.868433</ele>
        <time>2022-12-29T15:05:22.906Z</time>
      </trkpt>
      <trkpt lat="44.16438" lon="0.64582">
        <ele>92.900786</ele>
        <time>2022-12-29T15:05:24.918Z</time>
      </trkpt>
      <trkpt lat="44.1643" lon="0.64593">
        <ele>92.933806</ele>
        <time>2022-12-29T15:05:26.920Z</time>
      </trkpt>
      <trkpt lat="44.16422" lon="0.64603">
        <ele>92.966672</ele>
        <time>2022-12-29T15:05:28.916Z</time>
      </trkpt>
      <trkpt lat="44.16414" lon="0.64614">
        <ele>93.000253</ele>
        <time>2022-12-29T15:05:30.919Z</time>
      </trkpt>
      <trkpt lat="44.16406" lon="0.64625">
        <ele>93.033476</ele>
        <time>2022-12-29T15:05:32.919Z</time>
      </trkpt>
      <trkpt lat="44.16397" lon="0.64635">
        <ele>93.067162</ele>
        <time>2022-12-29T15:05:34.920Z</time>
      </trkpt>
      <trkpt lat="44.16389" lon="0.64645">
        <ele>93.099886</ele>
        <time>2022-12-29T15:05:36.920Z</time>
      </trkpt>
      <trkpt lat="44.16381" lon="0.64654">
        <ele>93.131708</ele>
        <time>2022-12-29T15:05:38.908Z</time>
      </trkpt>
      <trkpt lat="44.16373" lon="0.64662">
        <ele>93.161902</ele>
        <time>2022-12-29T15:05:40.917Z</time>
      </trkpt>
      <trkpt lat="44.16364" lon="0.6467">
        <ele>93.192707</ele>
        <time>2022-12-29T15:05:42.915Z</time>
      </trkpt>
      <trkpt lat="44.16356" lon="0.64679">
        <ele>93.224131</ele>
        <time>2022-12-29T15:05:44.903Z</time>
      </trkpt>
      <trkpt lat="44.16347" lon="0.64686">
        <ele>93.255038</ele>
        <time>2022-12-29T15:05:46.923Z</time>
      </trkpt>
      <trkpt lat="44.16337" lon="0.64693">
        <ele>93.286315</ele>
        <time>2022-12-29T15:05:48.907Z</time>
      </trkpt>
      <trkpt lat="44.16328" lon="0.647">
        <ele>93.319389</ele>
        <time>2022-12-29T15:05:50.917Z</time>
      </trkpt>
      <trkpt lat="44.16318" lon="0.64707">
        <ele>93.352443</ele>
        <time>2022-12-29T15:05:52.919Z</time>
      </trkpt>
      <trkpt lat="44.16309" lon="0.64714">
        <ele>93.349206</ele>
        <time>2022-12-29T15:05:54.918Z</time>
      </trkpt>
      <trkpt lat="44.163" lon="0.64722">
        <ele>93.319881</ele>
        <time>2022-12-29T15:05:56.920Z</time>
      </trkpt>
      <trkpt lat="44.16291" lon="0.64729">
        <ele>93.292315</ele>
        <time>2022-12-29T15:05:58.917Z</time>
      </trkpt>
      <trkpt lat="44.16282" lon="0.64737">
        <ele>93.264709</ele>
        <time>2022-12-29T15:06:00.918Z</time>
      </trkpt>
      <trkpt lat="44.16274" lon="0.64744">
        <ele>93.239347</ele>
        <time>2022-12-29T15:06:02.912Z</time>
      </trkpt>
      <trkpt lat="44.16263" lon="0.64753">
        <ele>93.204963</ele>
        <time>2022-12-29T15:06:05.920Z</time>
      </trkpt>
      <trkpt lat="44.16252" lon="0.64761">
        <ele>93.170343</ele>
        <time>2022-12-29T15:06:08.922Z</time>
      </trkpt>
      <trkpt lat="44.16243" lon="0.64769">
        <ele>93.140648</ele>
        <time>2022-12-29T15:06:11.921Z</time>
      </trkpt>
      <trkpt lat="44.16233" lon="0.64777">
        <ele>93.110481</ele>
        <time>2022-12-29T15:06:14.906Z</time>
      </trkpt>
      <trkpt lat="44.16224" lon="0.64782">
        <ele>93.084008</ele>
        <time>2022-12-29T15:06:17.919Z</time>
      </trkpt>
      <trkpt lat="44.16214" lon="0.64788">
        <ele>93.053711</ele>
        <time>2022-12-29T15:06:21.916Z</time>
      </trkpt>
      <trkpt lat="44.16213" lon="0.64806">
        <ele>93.019589</ele>
        <time>2022-12-29T15:09:19.941Z</time>
      </trkpt>
      <trkpt lat="44.16217" lon="0.6482">
        <ele>92.989219</ele>
        <time>2022-12-29T15:09:25.903Z</time>
      </trkpt>
      <trkpt lat="44.16224" lon="0.64832">
        <ele>92.959825</ele>
        <time>2022-12-29T15:09:28.893Z</time>
      </trkpt>
      <trkpt lat="44.16229" lon="0.64843">
        <ele>92.934169</ele>
        <time>2022-12-29T15:09:30.913Z</time>
      </trkpt>
      <trkpt lat="44.16234" lon="0.64854">
        <ele>92.90888</ele>
        <time>2022-12-29T15:09:32.898Z</time>
      </trkpt>
      <trkpt lat="44.16239" lon="0.64865">
        <ele>92.884252</ele>
        <time>2022-12-29T15:09:34.906Z</time>
      </trkpt>
      <trkpt lat="44.16244" lon="0.64877">
        <ele>92.888613</ele>
        <time>2022-12-29T15:09:36.917Z</time>
      </trkpt>
      <trkpt lat="44.1625" lon="0.64893">
        <ele>92.906528</ele>
        <time>2022-12-29T15:09:39.904Z</time>
      </trkpt>
      <trkpt lat="44.16257" lon="0.64907">
        <ele>92.922804</ele>
        <time>2022-12-29T15:09:42.917Z</time>
      </trkpt>
      <trkpt lat="44.16264" lon="0.64917">
        <ele>92.936401</ele>
        <time>2022-12-29T15:09:46.907Z</time>
      </trkpt>
      <trkpt lat="44.16279" lon="0.64927">
        <ele>92.959445</ele>
        <time>2022-12-29T15:11:21.949Z</time>
      </trkpt>
      <trkpt lat="44.16288" lon="0.64934">
        <ele>92.973285</ele>
        <time>2022-12-29T15:11:24.903Z</time>
      </trkpt>
      <trkpt lat="44.16299" lon="0.64941">
        <ele>92.989379</ele>
        <time>2022-12-29T15:11:27.910Z</time>
      </trkpt>
      <trkpt lat="44.1631" lon="0.64949">
        <ele>93.006737</ele>
        <time>2022-12-29T15:11:30.904Z</time>
      </trkpt>
      <trkpt lat="44.16322" lon="0.64959">
        <ele>93.025499</ele>
        <time>2022-12-29T15:11:33.919Z</time>
      </trkpt>
      <trkpt lat="44.1633" lon="0.64964">
        <ele>93.038381</ele>
        <time>2022-12-29T15:11:35.910Z</time>
      </trkpt>
      <trkpt lat="44.16339" lon="0.64971">
        <ele>93.051412</ele>
        <time>2022-12-29T15:11:37.920Z</time>
      </trkpt>
      <trkpt lat="44.16347" lon="0.64977">
        <ele>93.064094</ele>
        <time>2022-12-29T15:11:39.903Z</time>
      </trkpt>
      <trkpt lat="44.16356" lon="0.64982">
        <ele>93.076979</ele>
        <time>2022-12-29T15:11:41.919Z</time>
      </trkpt>
      <trkpt lat="44.16365" lon="0.64986">
        <ele>93.089579</ele>
        <time>2022-12-29T15:11:43.910Z</time>
      </trkpt>
      <trkpt lat="44.16374" lon="0.64989">
        <ele>93.10244</ele>
        <time>2022-12-29T15:11:45.919Z</time>
      </trkpt>
      <trkpt lat="44.16383" lon="0.64991">
        <ele>93.115683</ele>
        <time>2022-12-29T15:11:47.919Z</time>
      </trkpt>
      <trkpt lat="44.16393" lon="0.64993">
        <ele>93.134767</ele>
        <time>2022-12-29T15:11:49.898Z</time>
      </trkpt>
      <trkpt lat="44.16402" lon="0.64995">
        <ele>93.164539</ele>
        <time>2022-12-29T15:11:51.903Z</time>
      </trkpt>
      <trkpt lat="44.16412" lon="0.64997">
        <ele>93.193791</ele>
        <time>2022-12-29T15:11:53.916Z</time>
      </trkpt>
      <trkpt lat="44.16422" lon="0.65">
        <ele>93.223672</ele>
        <time>2022-12-29T15:11:55.921Z</time>
      </trkpt>
      <trkpt lat="44.16432" lon="0.65003">
        <ele>93.254983</ele>
        <time>2022-12-29T15:11:57.920Z</time>
      </trkpt>
      <trkpt lat="44.16442" lon="0.65006">
        <ele>93.286752</ele>
        <time>2022-12-29T15:11:59.923Z</time>
      </trkpt>
      <trkpt lat="44.16452" lon="0.65009">
        <ele>93.317624</ele>
        <time>2022-12-29T15:12:01.918Z</time>
      </trkpt>
      <trkpt lat="44.16463" lon="0.65013">
        <ele>93.350329</ele>
        <time>2022-12-29T15:12:03.919Z</time>
      </trkpt>
      <trkpt lat="44.16473" lon="0.65018">
        <ele>93.382334</ele>
        <time>2022-12-29T15:12:05.917Z</time>
      </trkpt>
      <trkpt lat="44.16483" lon="0.65024">
        <ele>93.41344</ele>
        <time>2022-12-29T15:12:07.918Z</time>
      </trkpt>
      <trkpt lat="44.16493" lon="0.65029">
        <ele>93.446164</ele>
        <time>2022-12-29T15:12:09.919Z</time>
      </trkpt>
      <trkpt lat="44.16502" lon="0.65035">
        <ele>93.476824</ele>
        <time>2022-12-29T15:12:11.918Z</time>
      </trkpt>
      <trkpt lat="44.16511" lon="0.65041">
        <ele>93.507381</ele>
        <time>2022-12-29T15:12:13.918Z</time>
      </trkpt>
      <trkpt lat="44.16521" lon="0.65047">
        <ele>93.538027</ele>
        <time>2022-12-29T15:12:15.910Z</time>
      </trkpt>
      <trkpt lat="44.1653" lon="0.65052">
        <ele>93.568203</ele>
        <time>2022-12-29T15:12:17.918Z</time>
      </trkpt>
      <trkpt lat="44.16539" lon="0.65057">
        <ele>93.59749</ele>
        <time>2022-12-29T15:12:19.923Z</time>
      </trkpt>
      <trkpt lat="44.16548" lon="0.65063">
        <ele>93.628771</ele>
        <time>2022-12-29T15:12:21.916Z</time>
      </trkpt>
      <trkpt lat="44.16558" lon="0.65069">
        <ele>93.659624</ele>
        <time>2022-12-29T15:12:23.921Z</time>
      </trkpt>
      <trkpt lat="44.16568" lon="0.65074">
        <ele>93.659619</ele>
        <time>2022-12-29T15:12:25.932Z</time>
      </trkpt>
      <trkpt lat="44.16577" lon="0.6508">
        <ele>93.656664</ele>
        <time>2022-12-29T15:12:27.919Z</time>
      </trkpt>
      <trkpt lat="44.16586" lon="0.65084">
        <ele>93.653728</ele>
        <time>2022-12-29T15:12:29.915Z</time>
      </trkpt>
      <trkpt lat="44.16596" lon="0.65089">
        <ele>93.650703</ele>
        <time>2022-12-29T15:12:31.919Z</time>
      </trkpt>
      <trkpt lat="44.16605" lon="0.65094">
        <ele>93.647939</ele>
        <time>2022-12-29T15:12:33.916Z</time>
      </trkpt>
      <trkpt lat="44.16615" lon="0.65099">
        <ele>93.644886</ele>
        <time>2022-12-29T15:12:35.920Z</time>
      </trkpt>
      <trkpt lat="44.16624" lon="0.65104">
        <ele>93.641957</ele>
        <time>2022-12-29T15:12:37.922Z</time>
      </trkpt>
      <trkpt lat="44.16634" lon="0.65108">
        <ele>93.638945</ele>
        <time>2022-12-29T15:12:39.921Z</time>
      </trkpt>
      <trkpt lat="44.16643" lon="0.65112">
        <ele>93.636041</ele>
        <time>2022-12-29T15:12:41.921Z</time>
      </trkpt>
      <trkpt lat="44.16652" lon="0.65117">
        <ele>93.633312</ele>
        <time>2022-12-29T15:12:43.918Z</time>
      </trkpt>
      <trkpt lat="44.16665" lon="0.65123">
        <ele>93.629303</ele>
        <time>2022-12-29T15:12:46.919Z</time>
      </trkpt>
      <trkpt lat="44.16676" lon="0.65133">
        <ele>93.625602</ele>
        <time>2022-12-29T15:12:49.934Z</time>
      </trkpt>
      <trkpt lat="44.16682" lon="0.65142">
        <ele>93.622837</ele>
        <time>2022-12-29T15:12:51.920Z</time>
      </trkpt>
      <trkpt lat="44.1669" lon="0.65151">
        <ele>93.619923</ele>
        <time>2022-12-29T15:12:53.919Z</time>
      </trkpt>
      <trkpt lat="44.16695" lon="0.65162">
        <ele>93.617118</ele>
        <time>2022-12-29T15:12:55.920Z</time>
      </trkpt>
      <trkpt lat="44.167" lon="0.65175">
        <ele>93.614082</ele>
        <time>2022-12-29T15:12:57.919Z</time>
      </trkpt>
      <trkpt lat="44.16704" lon="0.65189">
        <ele>93.610881</ele>
        <time>2022-12-29T15:12:59.924Z</time>
      </trkpt>
      <trkpt lat="44.16708" lon="0.65203">
        <ele>93.600739</ele>
        <time>2022-12-29T15:13:01.918Z</time>
      </trkpt>
      <trkpt lat="44.16712" lon="0.65216">
        <ele>93.586827</ele>
        <time>2022-12-29T15:13:03.919Z</time>
      </trkpt>
      <trkpt lat="44.16716" lon="0.65229">
        <ele>93.572807</ele>
        <time>2022-12-29T15:13:05.920Z</time>
      </trkpt>
      <trkpt lat="44.16721" lon="0.65243">
        <ele>93.558871</ele>
        <time>2022-12-29T15:13:07.926Z</time>
      </trkpt>
      <trkpt lat="44.16726" lon="0.65255">
        <ele>93.545101</ele>
        <time>2022-12-29T15:13:09.922Z</time>
      </trkpt>
      <trkpt lat="44.16731" lon="0.65267">
        <ele>93.531551</ele>
        <time>2022-12-29T15:13:11.924Z</time>
      </trkpt>
      <trkpt lat="44.16737" lon="0.65278">
        <ele>93.517845</ele>
        <time>2022-12-29T15:13:13.923Z</time>
      </trkpt>
      <trkpt lat="44.16743" lon="0.65291">
        <ele>93.50336</ele>
        <time>2022-12-29T15:13:15.912Z</time>
      </trkpt>
      <trkpt lat="44.1675" lon="0.65303">
        <ele>93.488874</ele>
        <time>2022-12-29T15:13:17.921Z</time>
      </trkpt>
      <trkpt lat="44.16755" lon="0.65314">
        <ele>93.475478</ele>
        <time>2022-12-29T15:13:19.917Z</time>
      </trkpt>
      <trkpt lat="44.16761" lon="0.65325">
        <ele>93.462637</ele>
        <time>2022-12-29T15:13:21.920Z</time>
      </trkpt>
      <trkpt lat="44.16766" lon="0.65338">
        <ele>93.448908</ele>
        <time>2022-12-29T15:13:23.920Z</time>
      </trkpt>
      <trkpt lat="44.16772" lon="0.65349">
        <ele>93.434968</ele>
        <time>2022-12-29T15:13:25.914Z</time>
      </trkpt>
      <trkpt lat="44.16778" lon="0.65361">
        <ele>93.421034</ele>
        <time>2022-12-29T15:13:27.920Z</time>
      </trkpt>
      <trkpt lat="44.16785" lon="0.65373">
        <ele>93.406628</ele>
        <time>2022-12-29T15:13:29.918Z</time>
      </trkpt>
      <trkpt lat="44.16791" lon="0.65385">
        <ele>93.392286</ele>
        <time>2022-12-29T15:13:31.917Z</time>
      </trkpt>
      <trkpt lat="44.16796" lon="0.65398">
        <ele>93.378228</ele>
        <time>2022-12-29T15:13:33.919Z</time>
      </trkpt>
      <trkpt lat="44.16802" lon="0.65409">
        <ele>93.364484</ele>
        <time>2022-12-29T15:13:35.922Z</time>
      </trkpt>
      <trkpt lat="44.16808" lon="0.6542">
        <ele>93.350114</ele>
        <time>2022-12-29T15:13:37.922Z</time>
      </trkpt>
      <trkpt lat="44.16815" lon="0.65429">
        <ele>93.33595</ele>
        <time>2022-12-29T15:13:39.918Z</time>
      </trkpt>
      <trkpt lat="44.16825" lon="0.65441">
        <ele>93.316903</ele>
        <time>2022-12-29T15:13:42.920Z</time>
      </trkpt>
      <trkpt lat="44.16836" lon="0.6545">
        <ele>93.298185</ele>
        <time>2022-12-29T15:13:45.922Z</time>
      </trkpt>
      <trkpt lat="44.16849" lon="0.65456">
        <ele>93.278752</ele>
        <time>2022-12-29T15:13:48.911Z</time>
      </trkpt>
      <trkpt lat="44.16858" lon="0.6546">
        <ele>93.264602</ele>
        <time>2022-12-29T15:13:50.920Z</time>
      </trkpt>
      <trkpt lat="44.16872" lon="0.65465">
        <ele>93.244487</ele>
        <time>2022-12-29T15:13:53.931Z</time>
      </trkpt>
      <trkpt lat="44.16881" lon="0.65469">
        <ele>93.230167</ele>
        <time>2022-12-29T15:13:55.919Z</time>
      </trkpt>
      <trkpt lat="44.1689" lon="0.65473">
        <ele>93.215784</ele>
        <time>2022-12-29T15:13:57.918Z</time>
      </trkpt>
      <trkpt lat="44.169" lon="0.65477">
        <ele>93.201457</ele>
        <time>2022-12-29T15:13:59.923Z</time>
      </trkpt>
      <trkpt lat="44.1691" lon="0.65479">
        <ele>93.187176</ele>
        <time>2022-12-29T15:14:01.920Z</time>
      </trkpt>
      <trkpt lat="44.1692" lon="0.65483">
        <ele>93.172211</ele>
        <time>2022-12-29T15:14:03.923Z</time>
      </trkpt>
      <trkpt lat="44.16929" lon="0.65485">
        <ele>93.158317</ele>
        <time>2022-12-29T15:14:05.918Z</time>
      </trkpt>
      <trkpt lat="44.16938" lon="0.65486">
        <ele>93.144593</ele>
        <time>2022-12-29T15:14:07.921Z</time>
      </trkpt>
      <trkpt lat="44.16948" lon="0.65488">
        <ele>93.130145</ele>
        <time>2022-12-29T15:14:09.913Z</time>
      </trkpt>
      <trkpt lat="44.16958" lon="0.65488">
        <ele>93.115306</ele>
        <time>2022-12-29T15:14:11.920Z</time>
      </trkpt>
      <trkpt lat="44.16969" lon="0.65489">
        <ele>93.121482</ele>
        <time>2022-12-29T15:14:13.921Z</time>
      </trkpt>
      <trkpt lat="44.16979" lon="0.6549">
        <ele>93.156121</ele>
        <time>2022-12-29T15:14:15.909Z</time>
      </trkpt>
      <trkpt lat="44.16989" lon="0.65491">
        <ele>93.189925</ele>
        <time>2022-12-29T15:14:17.922Z</time>
      </trkpt>
      <trkpt lat="44.16999" lon="0.65492">
        <ele>93.224416</ele>
        <time>2022-12-29T15:14:19.919Z</time>
      </trkpt>
      <trkpt lat="44.17009" lon="0.65491">
        <ele>93.25686</ele>
        <time>2022-12-29T15:14:21.923Z</time>
      </trkpt>
      <trkpt lat="44.17019" lon="0.6549">
        <ele>93.290703</ele>
        <time>2022-12-29T15:14:23.917Z</time>
      </trkpt>
      <trkpt lat="44.17028" lon="0.65489">
        <ele>93.322879</ele>
        <time>2022-12-29T15:14:25.917Z</time>
      </trkpt>
      <trkpt lat="44.17038" lon="0.6549">
        <ele>93.355309</ele>
        <time>2022-12-29T15:14:27.919Z</time>
      </trkpt>
      <trkpt lat="44.17048" lon="0.65491">
        <ele>93.387861</ele>
        <time>2022-12-29T15:14:29.919Z</time>
      </trkpt>
      <trkpt lat="44.17057" lon="0.65494">
        <ele>93.421267</ele>
        <time>2022-12-29T15:14:31.919Z</time>
      </trkpt>
      <trkpt lat="44.17066" lon="0.65497">
        <ele>93.452848</ele>
        <time>2022-12-29T15:14:33.907Z</time>
      </trkpt>
      <trkpt lat="44.17079" lon="0.65502">
        <ele>93.496328</ele>
        <time>2022-12-29T15:14:36.903Z</time>
      </trkpt>
      <trkpt lat="44.1709" lon="0.65507">
        <ele>93.536113</ele>
        <time>2022-12-29T15:14:39.911Z</time>
      </trkpt>
      <trkpt lat="44.17099" lon="0.65514">
        <ele>93.571139</ele>
        <time>2022-12-29T15:14:42.918Z</time>
      </trkpt>
      <trkpt lat="44.17107" lon="0.65525">
        <ele>93.608257</ele>
        <time>2022-12-29T15:14:46.918Z</time>
      </trkpt>
      <trkpt lat="44.17114" lon="0.65551">
        <ele>93.676942</ele>
        <time>2022-12-29T15:16:27.962Z</time>
      </trkpt>
      <trkpt lat="44.17126" lon="0.65553">
        <ele>93.712794</ele>
        <time>2022-12-29T15:16:31.915Z</time>
      </trkpt>
      <trkpt lat="44.17137" lon="0.6555">
        <ele>93.696416</ele>
        <time>2022-12-29T15:16:34.903Z</time>
      </trkpt>
      <trkpt lat="44.17149" lon="0.65553">
        <ele>93.678974</ele>
        <time>2022-12-29T15:16:37.921Z</time>
      </trkpt>
      <trkpt lat="44.1716" lon="0.65561">
        <ele>93.661474</ele>
        <time>2022-12-29T15:16:40.917Z</time>
      </trkpt>
      <trkpt lat="44.17169" lon="0.65569">
        <ele>93.645591</ele>
        <time>2022-12-29T15:16:43.903Z</time>
      </trkpt>
      <trkpt lat="44.17178" lon="0.65576">
        <ele>93.631186</ele>
        <time>2022-12-29T15:16:46.904Z</time>
      </trkpt>
      <trkpt lat="44.17185" lon="0.65584">
        <ele>93.618113</ele>
        <time>2022-12-29T15:16:49.913Z</time>
      </trkpt>
      <trkpt lat="44.17191" lon="0.65597">
        <ele>93.602304</ele>
        <time>2022-12-29T15:16:53.921Z</time>
      </trkpt>
      <trkpt lat="44.17199" lon="0.65603">
        <ele>93.588884</ele>
        <time>2022-12-29T15:16:56.919Z</time>
      </trkpt>
      <trkpt lat="44.17208" lon="0.65611">
        <ele>93.57347</ele>
        <time>2022-12-29T15:16:59.910Z</time>
      </trkpt>
      <trkpt lat="44.17218" lon="0.6562">
        <ele>93.555919</ele>
        <time>2022-12-29T15:17:02.915Z</time>
      </trkpt>
      <trkpt lat="44.17226" lon="0.65628">
        <ele>93.541469</ele>
        <time>2022-12-29T15:17:05.919Z</time>
      </trkpt>
      <trkpt lat="44.17234" lon="0.65635">
        <ele>93.527766</ele>
        <time>2022-12-29T15:17:08.916Z</time>
      </trkpt>
      <trkpt lat="44.17242" lon="0.65641">
        <ele>93.514373</ele>
        <time>2022-12-29T15:17:11.921Z</time>
      </trkpt>
      <trkpt lat="44.17251" lon="0.65648">
        <ele>93.500136</ele>
        <time>2022-12-29T15:17:14.923Z</time>
      </trkpt>
      <trkpt lat="44.17259" lon="0.65654">
        <ele>93.486361</ele>
        <time>2022-12-29T15:17:17.918Z</time>
      </trkpt>
      <trkpt lat="44.17267" lon="0.65661">
        <ele>93.473159</ele>
        <time>2022-12-29T15:17:20.910Z</time>
      </trkpt>
      <trkpt lat="44.17274" lon="0.6567">
        <ele>93.458774</ele>
        <time>2022-12-29T15:17:24.907Z</time>
      </trkpt>
      <trkpt lat="44.17281" lon="0.65681">
        <ele>93.484421</ele>
        <time>2022-12-29T15:17:28.917Z</time>
      </trkpt>
      <trkpt lat="44.17289" lon="0.65689">
        <ele>93.533849</ele>
        <time>2022-12-29T15:17:32.909Z</time>
      </trkpt>
      <trkpt lat="44.17298" lon="0.65697">
        <ele>93.582404</ele>
        <time>2022-12-29T15:17:36.920Z</time>
      </trkpt>
      <trkpt lat="44.17308" lon="0.65703">
        <ele>93.633577</ele>
        <time>2022-12-29T15:17:41.904Z</time>
      </trkpt>
      <trkpt lat="44.17318" lon="0.65705">
        <ele>93.682974</ele>
        <time>2022-12-29T15:17:54.920Z</time>
      </trkpt>
      <trkpt lat="44.17325" lon="0.65714">
        <ele>93.726122</ele>
        <time>2022-12-29T15:17:59.905Z</time>
      </trkpt>
      <trkpt lat="44.1733" lon="0.65725">
        <ele>93.769466</ele>
        <time>2022-12-29T15:18:03.920Z</time>
      </trkpt>
      <trkpt lat="44.17332" lon="0.65742">
        <ele>93.828702</ele>
        <time>2022-12-29T15:18:07.916Z</time>
      </trkpt>
      <trkpt lat="44.17338" lon="0.65756">
        <ele>93.883093</ele>
        <time>2022-12-29T15:18:10.919Z</time>
      </trkpt>
      <trkpt lat="44.17346" lon="0.65767">
        <ele>93.936734</ele>
        <time>2022-12-29T15:18:13.898Z</time>
      </trkpt>
      <trkpt lat="44.17356" lon="0.65773">
        <ele>93.989013</ele>
        <time>2022-12-29T15:18:16.919Z</time>
      </trkpt>
      <trkpt lat="44.17368" lon="0.65774">
        <ele>94.04242</ele>
        <time>2022-12-29T15:18:19.919Z</time>
      </trkpt>
      <trkpt lat="44.17378" lon="0.65769">
        <ele>94.096327</ele>
        <time>2022-12-29T15:18:22.921Z</time>
      </trkpt>
      <trkpt lat="44.17388" lon="0.65758">
        <ele>94.155108</ele>
        <time>2022-12-29T15:18:25.907Z</time>
      </trkpt>
      <trkpt lat="44.17396" lon="0.65745">
        <ele>94.213479</ele>
        <time>2022-12-29T15:18:28.922Z</time>
      </trkpt>
      <trkpt lat="44.17408" lon="0.6574">
        <ele>94.269493</ele>
        <time>2022-12-29T15:18:31.905Z</time>
      </trkpt>
      <trkpt lat="44.1742" lon="0.6574">
        <ele>94.372807</ele>
        <time>2022-12-29T15:18:34.918Z</time>
      </trkpt>
      <trkpt lat="44.17432" lon="0.65739">
        <ele>94.527409</ele>
        <time>2022-12-29T15:18:37.918Z</time>
      </trkpt>
      <trkpt lat="44.17443" lon="0.65737">
        <ele>94.67651</ele>
        <time>2022-12-29T15:18:40.933Z</time>
      </trkpt>
      <trkpt lat="44.17454" lon="0.65734">
        <ele>94.819408</ele>
        <time>2022-12-29T15:18:43.901Z</time>
      </trkpt>
      <trkpt lat="44.17464" lon="0.65729">
        <ele>94.968002</ele>
        <time>2022-12-29T15:18:46.918Z</time>
      </trkpt>
      <trkpt lat="44.17476" lon="0.65722">
        <ele>95.127702</ele>
        <time>2022-12-29T15:18:49.918Z</time>
      </trkpt>
      <trkpt lat="44.17484" lon="0.65717">
        <ele>95.248591</ele>
        <time>2022-12-29T15:18:51.919Z</time>
      </trkpt>
      <trkpt lat="44.17492" lon="0.6571">
        <ele>95.375897</ele>
        <time>2022-12-29T15:18:53.918Z</time>
      </trkpt>
      <trkpt lat="44.17501" lon="0.65704">
        <ele>95.499424</ele>
        <time>2022-12-29T15:18:55.911Z</time>
      </trkpt>
      <trkpt lat="44.1751" lon="0.65701">
        <ele>95.631411</ele>
        <time>2022-12-29T15:18:58.920Z</time>
      </trkpt>
      <trkpt lat="44.17519" lon="0.6571">
        <ele>95.770607</ele>
        <time>2022-12-29T15:19:02.917Z</time>
      </trkpt>
      <trkpt lat="44.1753" lon="0.65706">
        <ele>95.917802</ele>
        <time>2022-12-29T15:19:06.916Z</time>
      </trkpt>
      <trkpt lat="44.17539" lon="0.65703">
        <ele>96.047942</ele>
        <time>2022-12-29T15:19:09.924Z</time>
      </trkpt>
      <trkpt lat="44.17548" lon="0.65701">
        <ele>96.171955</ele>
        <time>2022-12-29T15:19:13.914Z</time>
      </trkpt>
      <trkpt lat="44.1756" lon="0.65707">
        <ele>96.333597</ele>
        <time>2022-12-29T15:19:17.912Z</time>
      </trkpt>
      <trkpt lat="44.17569" lon="0.65717">
        <ele>96.48567</ele>
        <time>2022-12-29T15:19:20.901Z</time>
      </trkpt>
      <trkpt lat="44.17578" lon="0.65728">
        <ele>96.648426</ele>
        <time>2022-12-29T15:19:23.920Z</time>
      </trkpt>
      <trkpt lat="44.17587" lon="0.65741">
        <ele>96.70204</ele>
        <time>2022-12-29T15:19:26.919Z</time>
      </trkpt>
      <trkpt lat="44.17596" lon="0.65753">
        <ele>96.734971</ele>
        <time>2022-12-29T15:19:29.925Z</time>
      </trkpt>
      <trkpt lat="44.17606" lon="0.65765">
        <ele>96.76675</ele>
        <time>2022-12-29T15:19:32.923Z</time>
      </trkpt>
      <trkpt lat="44.17614" lon="0.65776">
        <ele>96.796319</ele>
        <time>2022-12-29T15:19:35.920Z</time>
      </trkpt>
      <trkpt lat="44.17622" lon="0.65785">
        <ele>96.822399</ele>
        <time>2022-12-29T15:19:38.918Z</time>
      </trkpt>
      <trkpt lat="44.1763" lon="0.65795">
        <ele>96.848723</ele>
        <time>2022-12-29T15:19:42.913Z</time>
      </trkpt>
      <trkpt lat="44.17637" lon="0.65805">
        <ele>96.872822</ele>
        <time>2022-12-29T15:19:45.921Z</time>
      </trkpt>
      <trkpt lat="44.17643" lon="0.65815">
        <ele>96.896185</ele>
        <time>2022-12-29T15:19:47.920Z</time>
      </trkpt>
      <trkpt lat="44.17649" lon="0.65826">
        <ele>96.921171</ele>
        <time>2022-12-29T15:19:49.913Z</time>
      </trkpt>
      <trkpt lat="44.17655" lon="0.65836">
        <ele>96.945572</ele>
        <time>2022-12-29T15:19:51.920Z</time>
      </trkpt>
      <trkpt lat="44.17661" lon="0.65846">
        <ele>96.968468</ele>
        <time>2022-12-29T15:19:53.928Z</time>
      </trkpt>
      <trkpt lat="44.1767" lon="0.6586">
        <ele>97.002045</ele>
        <time>2022-12-29T15:19:56.922Z</time>
      </trkpt>
      <trkpt lat="44.17678" lon="0.65872">
        <ele>97.031848</ele>
        <time>2022-12-29T15:19:59.918Z</time>
      </trkpt>
      <trkpt lat="44.17687" lon="0.65884">
        <ele>97.062518</ele>
        <time>2022-12-29T15:20:02.916Z</time>
      </trkpt>
      <trkpt lat="44.17696" lon="0.65897">
        <ele>97.094142</ele>
        <time>2022-12-29T15:20:05.925Z</time>
      </trkpt>
      <trkpt lat="44.17704" lon="0.6591">
        <ele>97.126245</ele>
        <time>2022-12-29T15:20:08.918Z</time>
      </trkpt>
      <trkpt lat="44.17713" lon="0.65924">
        <ele>97.096112</ele>
        <time>2022-12-29T15:20:11.931Z</time>
      </trkpt>
      <trkpt lat="44.1772" lon="0.65938">
        <ele>97.066681</ele>
        <time>2022-12-29T15:20:14.921Z</time>
      </trkpt>
      <trkpt lat="44.17725" lon="0.65952">
        <ele>97.038609</ele>
        <time>2022-12-29T15:20:17.921Z</time>
      </trkpt>
      <trkpt lat="44.1773" lon="0.65967">
        <ele>97.009433</ele>
        <time>2022-12-29T15:20:20.919Z</time>
      </trkpt>
      <trkpt lat="44.17735" lon="0.65983">
        <ele>96.980515</ele>
        <time>2022-12-29T15:20:23.916Z</time>
      </trkpt>
      <trkpt lat="44.17739" lon="0.65996">
        <ele>96.954828</ele>
        <time>2022-12-29T15:20:26.914Z</time>
      </trkpt>
      <trkpt lat="44.17742" lon="0.66008">
        <ele>96.931858</ele>
        <time>2022-12-29T15:20:29.917Z</time>
      </trkpt>
      <trkpt lat="44.17742" lon="0.66024">
        <ele>96.905566</ele>
        <time>2022-12-29T15:20:33.903Z</time>
      </trkpt>
      <trkpt lat="44.17739" lon="0.66036">
        <ele>96.882039</ele>
        <time>2022-12-29T15:20:36.921Z</time>
      </trkpt>
      <trkpt lat="44.17731" lon="0.66049">
        <ele>96.854106</ele>
        <time>2022-12-29T15:20:40.904Z</time>
      </trkpt>
      <trkpt lat="44.17735" lon="0.66061">
        <ele>96.830913</ele>
        <time>2022-12-29T15:20:46.909Z</time>
      </trkpt>
      <trkpt lat="44.17742" lon="0.66073">
        <ele>96.804202</ele>
        <time>2022-12-29T15:20:51.920Z</time>
      </trkpt>
      <trkpt lat="44.17752" lon="0.66077">
        <ele>96.778066</ele>
        <time>2022-12-29T15:20:55.908Z</time>
      </trkpt>
      <trkpt lat="44.17762" lon="0.66085">
        <ele>96.750247</ele>
        <time>2022-12-29T15:20:59.923Z</time>
      </trkpt>
      <trkpt lat="44.17768" lon="0.66098">
        <ele>96.724565</ele>
        <time>2022-12-29T15:21:02.921Z</time>
      </trkpt>
      <trkpt lat="44.17772" lon="0.66111">
        <ele>96.699261</ele>
        <time>2022-12-29T15:21:05.917Z</time>
      </trkpt>
      <trkpt lat="44.17777" lon="0.66125">
        <ele>96.787511</ele>
        <time>2022-12-29T15:21:08.921Z</time>
      </trkpt>
      <trkpt lat="44.17783" lon="0.66139">
        <ele>96.931034</ele>
        <time>2022-12-29T15:21:11.923Z</time>
      </trkpt>
      <trkpt lat="44.17788" lon="0.66153">
        <ele>97.078137</ele>
        <time>2022-12-29T15:21:14.902Z</time>
      </trkpt>
      <trkpt lat="44.17793" lon="0.66166">
        <ele>97.217408</ele>
        <time>2022-12-29T15:21:17.916Z</time>
      </trkpt>
      <trkpt lat="44.17799" lon="0.6618">
        <ele>97.361514</ele>
        <time>2022-12-29T15:21:20.920Z</time>
      </trkpt>
      <trkpt lat="44.17804" lon="0.66192">
        <ele>97.489598</ele>
        <time>2022-12-29T15:21:23.934Z</time>
      </trkpt>
      <trkpt lat="44.17808" lon="0.66204">
        <ele>97.608175</ele>
        <time>2022-12-29T15:21:26.925Z</time>
      </trkpt>
      <trkpt lat="44.17811" lon="0.66216">
        <ele>97.726285</ele>
        <time>2022-12-29T15:21:29.926Z</time>
      </trkpt>
      <trkpt lat="44.17817" lon="0.66231">
        <ele>97.875006</ele>
        <time>2022-12-29T15:21:33.921Z</time>
      </trkpt>
      <trkpt lat="44.17823" lon="0.66244">
        <ele>98.024195</ele>
        <time>2022-12-29T15:21:37.928Z</time>
      </trkpt>
      <trkpt lat="44.17823" lon="0.66258">
        <ele>98.144189</ele>
        <time>2022-12-29T15:21:41.920Z</time>
      </trkpt>
      <trkpt lat="44.17818" lon="0.66271">
        <ele>98.282933</ele>
        <time>2022-12-29T15:21:46.913Z</time>
      </trkpt>
      <trkpt lat="44.17828" lon="0.66269">
        <ele>98.416102</ele>
        <time>2022-12-29T15:21:52.902Z</time>
      </trkpt>
      <trkpt lat="44.17836" lon="0.66259">
        <ele>98.552374</ele>
        <time>2022-12-29T15:21:56.919Z</time>
      </trkpt>
      <trkpt lat="44.17843" lon="0.66248">
        <ele>98.685061</ele>
        <time>2022-12-29T15:22:00.918Z</time>
      </trkpt>
      <trkpt lat="44.1785" lon="0.66238">
        <ele>98.808234</ele>
        <time>2022-12-29T15:22:04.911Z</time>
      </trkpt>
      <trkpt lat="44.1786" lon="0.66234">
        <ele>98.936165</ele>
        <time>2022-12-29T15:22:10.906Z</time>
      </trkpt>
      <trkpt lat="44.17866" lon="0.66245">
        <ele>98.924449</ele>
        <time>2022-12-29T15:22:15.924Z</time>
      </trkpt>
      <trkpt lat="44.17871" lon="0.66256">
        <ele>98.865578</ele>
        <time>2022-12-29T15:22:20.897Z</time>
      </trkpt>
      <trkpt lat="44.17877" lon="0.66269">
        <ele>98.79952</ele>
        <time>2022-12-29T15:22:26.922Z</time>
      </trkpt>
      <trkpt lat="44.17889" lon="0.66278">
        <ele>98.715281</ele>
        <time>2022-12-29T15:24:40.938Z</time>
      </trkpt>
      <trkpt lat="44.17896" lon="0.66288">
        <ele>98.654367</ele>
        <time>2022-12-29T15:24:43.910Z</time>
      </trkpt>
      <trkpt lat="44.17904" lon="0.66301">
        <ele>98.577629</ele>
        <time>2022-12-29T15:24:46.918Z</time>
      </trkpt>
      <trkpt lat="44.1791" lon="0.66318">
        <ele>98.495415</ele>
        <time>2022-12-29T15:24:49.912Z</time>
      </trkpt>
      <trkpt lat="44.17915" lon="0.66333">
        <ele>98.417903</ele>
        <time>2022-12-29T15:24:52.912Z</time>
      </trkpt>
      <trkpt lat="44.17923" lon="0.66348">
        <ele>98.338173</ele>
        <time>2022-12-29T15:24:55.901Z</time>
      </trkpt>
      <trkpt lat="44.1793" lon="0.66364">
        <ele>98.256889</ele>
        <time>2022-12-29T15:24:58.910Z</time>
      </trkpt>
      <trkpt lat="44.17936" lon="0.66377">
        <ele>98.189403</ele>
        <time>2022-12-29T15:25:01.903Z</time>
      </trkpt>
      <trkpt lat="44.17942" lon="0.66389">
        <ele>98.124771</ele>
        <time>2022-12-29T15:25:05.902Z</time>
      </trkpt>
      <trkpt lat="44.17947" lon="0.664">
        <ele>98.065176</ele>
        <time>2022-12-29T15:25:20.902Z</time>
      </trkpt>
      <trkpt lat="44.17955" lon="0.66407">
        <ele>98.00653</ele>
        <time>2022-12-29T15:25:25.908Z</time>
      </trkpt>
      <trkpt lat="44.17964" lon="0.6641">
        <ele>97.949828</ele>
        <time>2022-12-29T15:25:29.914Z</time>
      </trkpt>
      <trkpt lat="44.17975" lon="0.66408">
        <ele>97.884555</ele>
        <time>2022-12-29T15:25:33.909Z</time>
      </trkpt>
      <trkpt lat="44.17986" lon="0.66405">
        <ele>97.683306</ele>
        <time>2022-12-29T15:25:38.903Z</time>
      </trkpt>
      <trkpt lat="44.17995" lon="0.664">
        <ele>97.453468</ele>
        <time>2022-12-29T15:25:44.907Z</time>
      </trkpt>
      <trkpt lat="44.17992" lon="0.66386">
        <ele>97.208387</ele>
        <time>2022-12-29T15:25:52.912Z</time>
      </trkpt>
      <trkpt lat="44.17987" lon="0.6637">
        <ele>96.912007</ele>
        <time>2022-12-29T15:25:56.903Z</time>
      </trkpt>
      <trkpt lat="44.1798" lon="0.66356">
        <ele>96.622245</ele>
        <time>2022-12-29T15:25:59.907Z</time>
      </trkpt>
      <trkpt lat="44.17974" lon="0.6634">
        <ele>96.311985</ele>
        <time>2022-12-29T15:26:02.907Z</time>
      </trkpt>
      <trkpt lat="44.1797" lon="0.66328">
        <ele>96.092274</ele>
        <time>2022-12-29T15:26:04.903Z</time>
      </trkpt>
      <trkpt lat="44.17965" lon="0.66312">
        <ele>95.784952</ele>
        <time>2022-12-29T15:26:07.906Z</time>
      </trkpt>
      <trkpt lat="44.17958" lon="0.66296">
        <ele>95.463786</ele>
        <time>2022-12-29T15:26:10.899Z</time>
      </trkpt>
      <trkpt lat="44.17951" lon="0.6628">
        <ele>95.143809</ele>
        <time>2022-12-29T15:26:13.932Z</time>
      </trkpt>
      <trkpt lat="44.17945" lon="0.66264">
        <ele>94.833057</ele>
        <time>2022-12-29T15:26:16.906Z</time>
      </trkpt>
      <trkpt lat="44.17938" lon="0.6625">
        <ele>94.53637</ele>
        <time>2022-12-29T15:26:19.909Z</time>
      </trkpt>
      <trkpt lat="44.17932" lon="0.66238">
        <ele>94.300678</ele>
        <time>2022-12-29T15:26:22.907Z</time>
      </trkpt>
      <trkpt lat="44.17929" lon="0.66227">
        <ele>94.086889</ele>
        <time>2022-12-29T15:26:27.905Z</time>
      </trkpt>
      <trkpt lat="44.17918" lon="0.66224">
        <ele>93.83459</ele>
        <time>2022-12-29T15:26:42.900Z</time>
      </trkpt>
      <trkpt lat="44.17909" lon="0.6623">
        <ele>93.589368</ele>
        <time>2022-12-29T15:26:46.908Z</time>
      </trkpt>
      <trkpt lat="44.17901" lon="0.66237">
        <ele>93.540035</ele>
        <time>2022-12-29T15:26:49.903Z</time>
      </trkpt>
      <trkpt lat="44.17893" lon="0.66244">
        <ele>93.49496</ele>
        <time>2022-12-29T15:26:52.907Z</time>
      </trkpt>
      <trkpt lat="44.17886" lon="0.66253">
        <ele>93.44952</ele>
        <time>2022-12-29T15:26:56.909Z</time>
      </trkpt>
      <trkpt lat="44.17877" lon="0.66252">
        <ele>93.404561</ele>
        <time>2022-12-29T15:27:29.910Z</time>
      </trkpt>
      <trkpt lat="44.17867" lon="0.66265">
        <ele>93.341803</ele>
        <time>2022-12-29T15:29:54.925Z</time>
      </trkpt>
      <trkpt lat="44.1786" lon="0.66275">
        <ele>93.292025</ele>
        <time>2022-12-29T15:29:58.920Z</time>
      </trkpt>
      <trkpt lat="44.17851" lon="0.66285">
        <ele>93.238667</ele>
        <time>2022-12-29T15:30:01.913Z</time>
      </trkpt>
      <trkpt lat="44.17843" lon="0.66295">
        <ele>93.186116</ele>
        <time>2022-12-29T15:30:04.901Z</time>
      </trkpt>
      <trkpt lat="44.17836" lon="0.66303">
        <ele>93.141377</ele>
        <time>2022-12-29T15:30:07.907Z</time>
      </trkpt>
      <trkpt lat="44.17827" lon="0.66312">
        <ele>93.091559</ele>
        <time>2022-12-29T15:30:10.928Z</time>
      </trkpt>
      <trkpt lat="44.17819" lon="0.66322">
        <ele>93.038336</ele>
        <time>2022-12-29T15:30:13.919Z</time>
      </trkpt>
      <trkpt lat="44.17809" lon="0.66331">
        <ele>92.982856</ele>
        <time>2022-12-29T15:30:16.903Z</time>
      </trkpt>
      <trkpt lat="44.17801" lon="0.66338">
        <ele>92.936188</ele>
        <time>2022-12-29T15:30:19.914Z</time>
      </trkpt>
      <trkpt lat="44.17792" lon="0.66346">
        <ele>92.888567</ele>
        <time>2022-12-29T15:30:22.923Z</time>
      </trkpt>
      <trkpt lat="44.17783" lon="0.66356">
        <ele>92.832663</ele>
        <time>2022-12-29T15:30:25.909Z</time>
      </trkpt>
      <trkpt lat="44.17774" lon="0.66365">
        <ele>92.778181</ele>
        <time>2022-12-29T15:30:28.908Z</time>
      </trkpt>
      <trkpt lat="44.17764" lon="0.66374">
        <ele>92.72898</ele>
        <time>2022-12-29T15:30:31.914Z</time>
      </trkpt>
      <trkpt lat="44.17754" lon="0.66383">
        <ele>92.90064</ele>
        <time>2022-12-29T15:30:34.903Z</time>
      </trkpt>
      <trkpt lat="44.17746" lon="0.66391">
        <ele>93.044598</ele>
        <time>2022-12-29T15:30:37.907Z</time>
      </trkpt>
      <trkpt lat="44.17738" lon="0.664">
        <ele>93.193833</ele>
        <time>2022-12-29T15:30:40.907Z</time>
      </trkpt>
      <trkpt lat="44.17731" lon="0.6641">
        <ele>93.345685</ele>
        <time>2022-12-29T15:30:43.912Z</time>
      </trkpt>
      <trkpt lat="44.17723" lon="0.66418">
        <ele>93.483341</ele>
        <time>2022-12-29T15:30:46.916Z</time>
      </trkpt>
      <trkpt lat="44.17715" lon="0.66429">
        <ele>93.645983</ele>
        <time>2022-12-29T15:30:50.919Z</time>
      </trkpt>
      <trkpt lat="44.17709" lon="0.66439">
        <ele>93.786129</ele>
        <time>2022-12-29T15:30:53.921Z</time>
      </trkpt>
      <trkpt lat="44.17706" lon="0.66451">
        <ele>93.919503</ele>
        <time>2022-12-29T15:30:56.928Z</time>
      </trkpt>
      <trkpt lat="44.17701" lon="0.66463">
        <ele>94.068293</ele>
        <time>2022-12-29T15:31:00.925Z</time>
      </trkpt>
      <trkpt lat="44.17692" lon="0.66475">
        <ele>94.241814</ele>
        <time>2022-12-29T15:31:04.921Z</time>
      </trkpt>
      <trkpt lat="44.17684" lon="0.66482">
        <ele>94.379248</ele>
        <time>2022-12-29T15:31:07.920Z</time>
      </trkpt>
      <trkpt lat="44.17674" lon="0.66487">
        <ele>94.541713</ele>
        <time>2022-12-29T15:31:11.922Z</time>
      </trkpt>
      <trkpt lat="44.17662" lon="0.66485">
        <ele>94.708684</ele>
        <time>2022-12-29T15:31:15.920Z</time>
      </trkpt>
      <trkpt lat="44.17652" lon="0.66485">
        <ele>94.851407</ele>
        <time>2022-12-29T15:31:18.925Z</time>
      </trkpt>
      <trkpt lat="44.17642" lon="0.66489">
        <ele>95.011065</ele>
        <time>2022-12-29T15:31:21.921Z</time>
      </trkpt>
      <trkpt lat="44.17632" lon="0.66496">
        <ele>95.170952</ele>
        <time>2022-12-29T15:31:24.920Z</time>
      </trkpt>
      <trkpt lat="44.17623" lon="0.66504">
        <ele>95.327623</ele>
        <time>2022-12-29T15:31:27.919Z</time>
      </trkpt>
      <trkpt lat="44.17614" lon="0.66512">
        <ele>95.35897</ele>
        <time>2022-12-29T15:31:30.921Z</time>
      </trkpt>
      <trkpt lat="44.17606" lon="0.6652">
        <ele>95.374951</ele>
        <time>2022-12-29T15:31:33.925Z</time>
      </trkpt>
      <trkpt lat="44.17597" lon="0.66528">
        <ele>95.39254</ele>
        <time>2022-12-29T15:31:37.918Z</time>
      </trkpt>
      <trkpt lat="44.17588" lon="0.66536">
        <ele>95.409462</ele>
        <time>2022-12-29T15:31:41.910Z</time>
      </trkpt>
      <trkpt lat="44.17578" lon="0.66546">
        <ele>95.430274</ele>
        <time>2022-12-29T15:31:45.919Z</time>
      </trkpt>
      <trkpt lat="44.17569" lon="0.66555">
        <ele>95.448672</ele>
        <time>2022-12-29T15:31:48.922Z</time>
      </trkpt>
      <trkpt lat="44.1756" lon="0.66565">
        <ele>95.467473</ele>
        <time>2022-12-29T15:31:51.911Z</time>
      </trkpt>
      <trkpt lat="44.1755" lon="0.66574">
        <ele>95.486339</ele>
        <time>2022-12-29T15:31:54.921Z</time>
      </trkpt>
      <trkpt lat="44.1754" lon="0.66583">
        <ele>95.506482</ele>
        <time>2022-12-29T15:31:57.920Z</time>
      </trkpt>
      <trkpt lat="44.1753" lon="0.66592">
        <ele>95.525625</ele>
        <time>2022-12-29T15:32:00.921Z</time>
      </trkpt>
      <trkpt lat="44.1752" lon="0.66602">
        <ele>95.546112</ele>
        <time>2022-12-29T15:32:03.919Z</time>
      </trkpt>
      <trkpt lat="44.17509" lon="0.66612">
        <ele>95.56679</ele>
        <time>2022-12-29T15:32:06.907Z</time>
      </trkpt>
      <trkpt lat="44.17499" lon="0.66622">
        <ele>95.5872</ele>
        <time>2022-12-29T15:32:09.924Z</time>
      </trkpt>
      <trkpt lat="44.17489" lon="0.66632">
        <ele>95.608012</ele>
        <time>2022-12-29T15:32:12.920Z</time>
      </trkpt>
      <trkpt lat="44.17478" lon="0.66643">
        <ele>95.628896</ele>
        <time>2022-12-29T15:32:15.921Z</time>
      </trkpt>
      <trkpt lat="44.17468" lon="0.66654">
        <ele>95.743147</ele>
        <time>2022-12-29T15:32:18.921Z</time>
      </trkpt>
      <trkpt lat="44.17461" lon="0.66661">
        <ele>95.872496</ele>
        <time>2022-12-29T15:32:20.916Z</time>
      </trkpt>
      <trkpt lat="44.17454" lon="0.66669">
        <ele>96.001845</ele>
        <time>2022-12-29T15:32:22.904Z</time>
      </trkpt>
      <trkpt lat="44.17444" lon="0.6668">
        <ele>96.181416</ele>
        <time>2022-12-29T15:32:25.921Z</time>
      </trkpt>
      <trkpt lat="44.17434" lon="0.66693">
        <ele>96.372873</ele>
        <time>2022-12-29T15:32:28.923Z</time>
      </trkpt>
      <trkpt lat="44.17426" lon="0.66707">
        <ele>96.55973</ele>
        <time>2022-12-29T15:32:31.936Z</time>
      </trkpt>
      <trkpt lat="44.1742" lon="0.66716">
        <ele>96.691024</ele>
        <time>2022-12-29T15:32:33.921Z</time>
      </trkpt>
      <trkpt lat="44.17413" lon="0.66726">
        <ele>96.826296</ele>
        <time>2022-12-29T15:32:35.921Z</time>
      </trkpt>
      <trkpt lat="44.17407" lon="0.66736">
        <ele>96.961507</ele>
        <time>2022-12-29T15:32:37.930Z</time>
      </trkpt>
      <trkpt lat="44.17399" lon="0.66748">
        <ele>97.129442</ele>
        <time>2022-12-29T15:32:40.922Z</time>
      </trkpt>
      <trkpt lat="44.17392" lon="0.66763">
        <ele>97.317149</ele>
        <time>2022-12-29T15:32:43.921Z</time>
      </trkpt>
      <trkpt lat="44.17385" lon="0.66774">
        <ele>97.461625</ele>
        <time>2022-12-29T15:32:45.924Z</time>
      </trkpt>
      <trkpt lat="44.17379" lon="0.66789">
        <ele>97.638262</ele>
        <time>2022-12-29T15:32:48.924Z</time>
      </trkpt>
      <trkpt lat="44.17372" lon="0.66804">
        <ele>97.826011</ele>
        <time>2022-12-29T15:32:51.925Z</time>
      </trkpt>
      <trkpt lat="44.17367" lon="0.66816">
        <ele>97.963421</ele>
        <time>2022-12-29T15:32:53.915Z</time>
      </trkpt>
      <trkpt lat="44.17363" lon="0.66827">
        <ele>98.09269</ele>
        <time>2022-12-29T15:32:55.923Z</time>
      </trkpt>
      <trkpt lat="44.17357" lon="0.66843">
        <ele>98.2948</ele>
        <time>2022-12-29T15:32:58.921Z</time>
      </trkpt>
      <trkpt lat="44.17351" lon="0.66859">
        <ele>98.532309</ele>
        <time>2022-12-29T15:33:01.923Z</time>
      </trkpt>
      <trkpt lat="44.17348" lon="0.66872">
        <ele>98.701817</ele>
        <time>2022-12-29T15:33:03.922Z</time>
      </trkpt>
      <trkpt lat="44.17344" lon="0.66884">
        <ele>98.869829</ele>
        <time>2022-12-29T15:33:05.921Z</time>
      </trkpt>
      <trkpt lat="44.1734" lon="0.66896">
        <ele>99.047799</ele>
        <time>2022-12-29T15:33:07.931Z</time>
      </trkpt>
      <trkpt lat="44.17336" lon="0.66909">
        <ele>99.229448</ele>
        <time>2022-12-29T15:33:09.924Z</time>
      </trkpt>
      <trkpt lat="44.17333" lon="0.66923">
        <ele>99.411777</ele>
        <time>2022-12-29T15:33:11.923Z</time>
      </trkpt>
      <trkpt lat="44.17331" lon="0.66936">
        <ele>99.592539</ele>
        <time>2022-12-29T15:33:13.920Z</time>
      </trkpt>
      <trkpt lat="44.17328" lon="0.6695">
        <ele>99.769098</ele>
        <time>2022-12-29T15:33:15.909Z</time>
      </trkpt>
      <trkpt lat="44.17325" lon="0.66963">
        <ele>99.945504</ele>
        <time>2022-12-29T15:33:17.913Z</time>
      </trkpt>
      <trkpt lat="44.17323" lon="0.66976">
        <ele>100.119417</ele>
        <time>2022-12-29T15:33:19.906Z</time>
      </trkpt>
      <trkpt lat="44.17321" lon="0.66988">
        <ele>100.280898</ele>
        <time>2022-12-29T15:33:21.922Z</time>
      </trkpt>
      <trkpt lat="44.17318" lon="0.67004">
        <ele>100.4854</ele>
        <time>2022-12-29T15:33:24.922Z</time>
      </trkpt>
      <trkpt lat="44.17316" lon="0.67017">
        <ele>100.655132</ele>
        <time>2022-12-29T15:33:27.904Z</time>
      </trkpt>
      <trkpt lat="44.17314" lon="0.67032">
        <ele>100.856767</ele>
        <time>2022-12-29T15:33:30.900Z</time>
      </trkpt>
      <trkpt lat="44.17312" lon="0.67049">
        <ele>101.086288</ele>
        <time>2022-12-29T15:33:33.906Z</time>
      </trkpt>
      <trkpt lat="44.17309" lon="0.67067">
        <ele>101.319432</ele>
        <time>2022-12-29T15:33:36.915Z</time>
      </trkpt>
      <trkpt lat="44.17305" lon="0.67085">
        <ele>101.391425</ele>
        <time>2022-12-29T15:33:39.959Z</time>
      </trkpt>
      <trkpt lat="44.17303" lon="0.67098">
        <ele>101.329397</ele>
        <time>2022-12-29T15:33:41.914Z</time>
      </trkpt>
      <trkpt lat="44.17301" lon="0.67116">
        <ele>101.239312</ele>
        <time>2022-12-29T15:33:44.916Z</time>
      </trkpt>
      <trkpt lat="44.17298" lon="0.67129">
        <ele>101.17249</ele>
        <time>2022-12-29T15:33:46.920Z</time>
      </trkpt>
      <trkpt lat="44.17296" lon="0.67143">
        <ele>101.104008</ele>
        <time>2022-12-29T15:33:48.918Z</time>
      </trkpt>
      <trkpt lat="44.17294" lon="0.67155">
        <ele>101.042158</ele>
        <time>2022-12-29T15:33:50.923Z</time>
      </trkpt>
      <trkpt lat="44.17292" lon="0.67168">
        <ele>100.977754</ele>
        <time>2022-12-29T15:33:52.913Z</time>
      </trkpt>
      <trkpt lat="44.1729" lon="0.67181">
        <ele>100.915386</ele>
        <time>2022-12-29T15:33:54.915Z</time>
      </trkpt>
      <trkpt lat="44.17288" lon="0.67194">
        <ele>100.849916</ele>
        <time>2022-12-29T15:33:56.931Z</time>
      </trkpt>
      <trkpt lat="44.17286" lon="0.67207">
        <ele>100.787073</ele>
        <time>2022-12-29T15:33:58.927Z</time>
      </trkpt>
      <trkpt lat="44.17284" lon="0.67222">
        <ele>100.710711</ele>
        <time>2022-12-29T15:34:01.920Z</time>
      </trkpt>
      <trkpt lat="44.17282" lon="0.67234">
        <ele>100.649771</ele>
        <time>2022-12-29T15:34:03.913Z</time>
      </trkpt>
      <trkpt lat="44.1728" lon="0.67253">
        <ele>100.559104</ele>
        <time>2022-12-29T15:34:06.924Z</time>
      </trkpt>
      <trkpt lat="44.17278" lon="0.67265">
        <ele>100.497688</ele>
        <time>2022-12-29T15:34:08.919Z</time>
      </trkpt>
      <trkpt lat="44.17275" lon="0.67278">
        <ele>100.433912</ele>
        <time>2022-12-29T15:34:10.912Z</time>
      </trkpt>
      <trkpt lat="44.17273" lon="0.67291">
        <ele>100.369984</ele>
        <time>2022-12-29T15:34:12.914Z</time>
      </trkpt>
      <trkpt lat="44.17271" lon="0.67309">
        <ele>100.278359</ele>
        <time>2022-12-29T15:34:15.922Z</time>
      </trkpt>
      <trkpt lat="44.17268" lon="0.67326">
        <ele>100.129554</ele>
        <time>2022-12-29T15:34:18.921Z</time>
      </trkpt>
      <trkpt lat="44.17265" lon="0.67344">
        <ele>99.81343</ele>
        <time>2022-12-29T15:34:22.912Z</time>
      </trkpt>
      <trkpt lat="44.17264" lon="0.67357">
        <ele>99.598494</ele>
        <time>2022-12-29T15:34:24.918Z</time>
      </trkpt>
      <trkpt lat="44.17262" lon="0.67369">
        <ele>99.381147</ele>
        <time>2022-12-29T15:34:26.923Z</time>
      </trkpt>
      <trkpt lat="44.17261" lon="0.67382">
        <ele>99.16675</ele>
        <time>2022-12-29T15:34:28.939Z</time>
      </trkpt>
      <trkpt lat="44.17258" lon="0.67395">
        <ele>98.939359</ele>
        <time>2022-12-29T15:34:30.922Z</time>
      </trkpt>
      <trkpt lat="44.17256" lon="0.67413">
        <ele>98.627363</ele>
        <time>2022-12-29T15:34:33.921Z</time>
      </trkpt>
      <trkpt lat="44.17253" lon="0.67431">
        <ele>98.304893</ele>
        <time>2022-12-29T15:34:36.921Z</time>
      </trkpt>
      <trkpt lat="44.1725" lon="0.6745">
        <ele>97.975995</ele>
        <time>2022-12-29T15:34:39.926Z</time>
      </trkpt>
      <trkpt lat="44.17248" lon="0.67464">
        <ele>97.730937</ele>
        <time>2022-12-29T15:34:41.922Z</time>
      </trkpt>
      <trkpt lat="44.17246" lon="0.67478">
        <ele>97.497272</ele>
        <time>2022-12-29T15:34:43.920Z</time>
      </trkpt>
      <trkpt lat="44.17244" lon="0.6749">
        <ele>97.274942</ele>
        <time>2022-12-29T15:34:45.935Z</time>
      </trkpt>
      <trkpt lat="44.17242" lon="0.67503">
        <ele>97.054175</ele>
        <time>2022-12-29T15:34:47.900Z</time>
      </trkpt>
      <trkpt lat="44.1724" lon="0.67515">
        <ele>96.839017</ele>
        <time>2022-12-29T15:34:49.912Z</time>
      </trkpt>
      <trkpt lat="44.17237" lon="0.67529">
        <ele>96.595602</ele>
        <time>2022-12-29T15:34:51.922Z</time>
      </trkpt>
      <trkpt lat="44.17236" lon="0.67543">
        <ele>96.359006</ele>
        <time>2022-12-29T15:34:53.923Z</time>
      </trkpt>
      <trkpt lat="44.17233" lon="0.67555">
        <ele>96.141053</ele>
        <time>2022-12-29T15:34:55.904Z</time>
      </trkpt>
      <trkpt lat="44.17232" lon="0.67568">
        <ele>95.957296</ele>
        <time>2022-12-29T15:34:57.925Z</time>
      </trkpt>
      <trkpt lat="44.17229" lon="0.67585">
        <ele>96.011131</ele>
        <time>2022-12-29T15:35:00.920Z</time>
      </trkpt>
      <trkpt lat="44.17226" lon="0.67604">
        <ele>96.073332</ele>
        <time>2022-12-29T15:35:03.921Z</time>
      </trkpt>
      <trkpt lat="44.17225" lon="0.67617">
        <ele>96.114259</ele>
        <time>2022-12-29T15:35:05.935Z</time>
      </trkpt>
      <trkpt lat="44.17223" lon="0.67636">
        <ele>96.173674</ele>
        <time>2022-12-29T15:35:08.922Z</time>
      </trkpt>
      <trkpt lat="44.17221" lon="0.67651">
        <ele>96.218263</ele>
        <time>2022-12-29T15:35:10.906Z</time>
      </trkpt>
      <trkpt lat="44.17219" lon="0.67667">
        <ele>96.271621</ele>
        <time>2022-12-29T15:35:13.920Z</time>
      </trkpt>
      <trkpt lat="44.17217" lon="0.67682">
        <ele>96.316892</ele>
        <time>2022-12-29T15:35:15.921Z</time>
      </trkpt>
      <trkpt lat="44.17214" lon="0.677">
        <ele>96.375584</ele>
        <time>2022-12-29T15:35:18.909Z</time>
      </trkpt>
      <trkpt lat="44.17212" lon="0.67714">
        <ele>96.417199</ele>
        <time>2022-12-29T15:35:20.919Z</time>
      </trkpt>
      <trkpt lat="44.1721" lon="0.67727">
        <ele>96.45968</ele>
        <time>2022-12-29T15:35:22.916Z</time>
      </trkpt>
      <trkpt lat="44.17207" lon="0.67741">
        <ele>96.503877</ele>
        <time>2022-12-29T15:35:24.920Z</time>
      </trkpt>
      <trkpt lat="44.17204" lon="0.67754">
        <ele>96.547583</ele>
        <time>2022-12-29T15:35:26.923Z</time>
      </trkpt>
      <trkpt lat="44.17202" lon="0.67768">
        <ele>96.591972</ele>
        <time>2022-12-29T15:35:28.906Z</time>
      </trkpt>
      <trkpt lat="44.17201" lon="0.67782">
        <ele>96.635268</ele>
        <time>2022-12-29T15:35:30.920Z</time>
      </trkpt>
      <trkpt lat="44.17198" lon="0.67796">
        <ele>96.680565</ele>
        <time>2022-12-29T15:35:32.920Z</time>
      </trkpt>
      <trkpt lat="44.17196" lon="0.6781">
        <ele>96.725256</ele>
        <time>2022-12-29T15:35:34.912Z</time>
      </trkpt>
      <trkpt lat="44.17194" lon="0.67825">
        <ele>96.634477</ele>
        <time>2022-12-29T15:35:36.920Z</time>
      </trkpt>
      <trkpt lat="44.17193" lon="0.67838">
        <ele>96.544466</ele>
        <time>2022-12-29T15:35:38.922Z</time>
      </trkpt>
      <trkpt lat="44.1719" lon="0.67857">
        <ele>96.418829</ele>
        <time>2022-12-29T15:35:41.921Z</time>
      </trkpt>
      <trkpt lat="44.17188" lon="0.67869">
        <ele>96.33375</ele>
        <time>2022-12-29T15:35:43.902Z</time>
      </trkpt>
      <trkpt lat="44.17186" lon="0.67882">
        <ele>96.245552</ele>
        <time>2022-12-29T15:35:45.922Z</time>
      </trkpt>
      <trkpt lat="44.17184" lon="0.67894">
        <ele>96.154455</ele>
        <time>2022-12-29T15:35:47.907Z</time>
      </trkpt>
      <trkpt lat="44.17182" lon="0.67908">
        <ele>96.064413</ele>
        <time>2022-12-29T15:35:49.920Z</time>
      </trkpt>
      <trkpt lat="44.17181" lon="0.67921">
        <ele>95.974851</ele>
        <time>2022-12-29T15:35:51.941Z</time>
      </trkpt>
      <trkpt lat="44.1718" lon="0.67935">
        <ele>95.878825</ele>
        <time>2022-12-29T15:35:53.917Z</time>
      </trkpt>
      <trkpt lat="44.17178" lon="0.67948">
        <ele>95.782626</ele>
        <time>2022-12-29T15:35:55.910Z</time>
      </trkpt>
      <trkpt lat="44.17175" lon="0.67962">
        <ele>95.690049</ele>
        <time>2022-12-29T15:35:57.920Z</time>
      </trkpt>
      <trkpt lat="44.17173" lon="0.67975">
        <ele>95.595667</ele>
        <time>2022-12-29T15:35:59.919Z</time>
      </trkpt>
      <trkpt lat="44.1717" lon="0.67993">
        <ele>95.471359</ele>
        <time>2022-12-29T15:36:02.918Z</time>
      </trkpt>
      <trkpt lat="44.17168" lon="0.68011">
        <ele>95.346457</ele>
        <time>2022-12-29T15:36:05.919Z</time>
      </trkpt>
      <trkpt lat="44.17165" lon="0.68027">
        <ele>95.23444</ele>
        <time>2022-12-29T15:36:08.919Z</time>
      </trkpt>
      <trkpt lat="44.17163" lon="0.68041">
        <ele>95.135675</ele>
        <time>2022-12-29T15:36:11.928Z</time>
      </trkpt>
      <trkpt lat="44.17161" lon="0.68058">
        <ele>95.023855</ele>
        <time>2022-12-29T15:36:14.920Z</time>
      </trkpt>
      <trkpt lat="44.17161" lon="0.68071">
        <ele>94.876674</ele>
        <time>2022-12-29T15:36:17.913Z</time>
      </trkpt>
      <trkpt lat="44.1716" lon="0.68088">
        <ele>94.689086</ele>
        <time>2022-12-29T15:36:21.920Z</time>
      </trkpt>
      <trkpt lat="44.17157" lon="0.68102">
        <ele>94.521309</ele>
        <time>2022-12-29T15:36:24.923Z</time>
      </trkpt>
      <trkpt lat="44.17153" lon="0.68119">
        <ele>94.326349</ele>
        <time>2022-12-29T15:36:27.923Z</time>
      </trkpt>
      <trkpt lat="44.1715" lon="0.68136">
        <ele>94.126129</ele>
        <time>2022-12-29T15:36:30.921Z</time>
      </trkpt>
      <trkpt lat="44.17148" lon="0.68154">
        <ele>93.927329</ele>
        <time>2022-12-29T15:36:33.928Z</time>
      </trkpt>
      <trkpt lat="44.17146" lon="0.68172">
        <ele>93.728175</ele>
        <time>2022-12-29T15:36:36.921Z</time>
      </trkpt>
      <trkpt lat="44.17143" lon="0.68189">
        <ele>93.526141</ele>
        <time>2022-12-29T15:36:39.922Z</time>
      </trkpt>
      <trkpt lat="44.1714" lon="0.68207">
        <ele>93.321832</ele>
        <time>2022-12-29T15:36:42.922Z</time>
      </trkpt>
      <trkpt lat="44.17137" lon="0.68224">
        <ele>93.132073</ele>
        <time>2022-12-29T15:36:45.920Z</time>
      </trkpt>
      <trkpt lat="44.17133" lon="0.68243">
        <ele>92.904443</ele>
        <time>2022-12-29T15:36:50.919Z</time>
      </trkpt>
      <trkpt lat="44.1713" lon="0.68256">
        <ele>92.76122</ele>
        <time>2022-12-29T15:36:52.913Z</time>
      </trkpt>
      <trkpt lat="44.17129" lon="0.68269">
        <ele>92.614058</ele>
        <time>2022-12-29T15:36:54.905Z</time>
      </trkpt>
      <trkpt lat="44.17127" lon="0.68286">
        <ele>92.415795</ele>
        <time>2022-12-29T15:36:57.920Z</time>
      </trkpt>
      <trkpt lat="44.17125" lon="0.68299">
        <ele>92.273404</ele>
        <time>2022-12-29T15:36:59.925Z</time>
      </trkpt>
      <trkpt lat="44.17123" lon="0.68312">
        <ele>92.467675</ele>
        <time>2022-12-29T15:37:01.934Z</time>
      </trkpt>
      <trkpt lat="44.17122" lon="0.68324">
        <ele>92.778982</ele>
        <time>2022-12-29T15:37:03.930Z</time>
      </trkpt>
      <trkpt lat="44.17119" lon="0.68342">
        <ele>93.211246</ele>
        <time>2022-12-29T15:37:06.918Z</time>
      </trkpt>
      <trkpt lat="44.17117" lon="0.68358">
        <ele>93.61938</ele>
        <time>2022-12-29T15:37:09.935Z</time>
      </trkpt>
      <trkpt lat="44.17114" lon="0.68375">
        <ele>94.034666</ele>
        <time>2022-12-29T15:37:12.921Z</time>
      </trkpt>
      <trkpt lat="44.17112" lon="0.68394">
        <ele>94.490026</ele>
        <time>2022-12-29T15:37:15.921Z</time>
      </trkpt>
      <trkpt lat="44.17109" lon="0.68412">
        <ele>94.93586</ele>
        <time>2022-12-29T15:37:18.926Z</time>
      </trkpt>
      <trkpt lat="44.17107" lon="0.6843">
        <ele>95.384583</ele>
        <time>2022-12-29T15:37:21.924Z</time>
      </trkpt>
      <trkpt lat="44.17105" lon="0.68447">
        <ele>95.815788</ele>
        <time>2022-12-29T15:37:24.905Z</time>
      </trkpt>
      <trkpt lat="44.17104" lon="0.68463">
        <ele>96.186411</ele>
        <time>2022-12-29T15:37:27.938Z</time>
      </trkpt>
      <trkpt lat="44.17104" lon="0.68475">
        <ele>96.49767</ele>
        <time>2022-12-29T15:37:30.923Z</time>
      </trkpt>
      <trkpt lat="44.17103" lon="0.68489">
        <ele>96.840636</ele>
        <time>2022-12-29T15:37:34.922Z</time>
      </trkpt>
      <trkpt lat="44.17102" lon="0.68505">
        <ele>97.207672</ele>
        <time>2022-12-29T15:37:39.921Z</time>
      </trkpt>
      <trkpt lat="44.17103" lon="0.68519">
        <ele>97.563483</ele>
        <time>2022-12-29T15:37:44.917Z</time>
      </trkpt>
      <trkpt lat="44.17104" lon="0.68533">
        <ele>97.909619</ele>
        <time>2022-12-29T15:37:49.918Z</time>
      </trkpt>
      <trkpt lat="44.17097" lon="0.68545">
        <ele>98.288822</ele>
        <time>2022-12-29T15:37:55.924Z</time>
      </trkpt>
      <trkpt lat="44.17093" lon="0.68562">
        <ele>98.284963</ele>
        <time>2022-12-29T15:37:58.921Z</time>
      </trkpt>
      <trkpt lat="44.17091" lon="0.68575">
        <ele>98.254423</ele>
        <time>2022-12-29T15:38:00.924Z</time>
      </trkpt>
      <trkpt lat="44.17088" lon="0.68588">
        <ele>98.224521</ele>
        <time>2022-12-29T15:38:02.921Z</time>
      </trkpt>
      <trkpt lat="44.17085" lon="0.686">
        <ele>98.194118</ele>
        <time>2022-12-29T15:38:04.905Z</time>
      </trkpt>
      <trkpt lat="44.17082" lon="0.68612">
        <ele>98.164273</ele>
        <time>2022-12-29T15:38:06.922Z</time>
      </trkpt>
      <trkpt lat="44.17079" lon="0.68626">
        <ele>98.130852</ele>
        <time>2022-12-29T15:38:08.931Z</time>
      </trkpt>
      <trkpt lat="44.17076" lon="0.6864">
        <ele>98.097848</ele>
        <time>2022-12-29T15:38:10.925Z</time>
      </trkpt>
      <trkpt lat="44.17074" lon="0.68654">
        <ele>98.064319</ele>
        <time>2022-12-29T15:38:12.925Z</time>
      </trkpt>
      <trkpt lat="44.17072" lon="0.68668">
        <ele>98.032828</ele>
        <time>2022-12-29T15:38:14.921Z</time>
      </trkpt>
      <trkpt lat="44.17069" lon="0.68686">
        <ele>97.990666</ele>
        <time>2022-12-29T15:38:17.931Z</time>
      </trkpt>
      <trkpt lat="44.17066" lon="0.68702">
        <ele>97.952305</ele>
        <time>2022-12-29T15:38:20.920Z</time>
      </trkpt>
      <trkpt lat="44.17064" lon="0.68718">
        <ele>97.915131</ele>
        <time>2022-12-29T15:38:23.921Z</time>
      </trkpt>
      <trkpt lat="44.17061" lon="0.68731">
        <ele>97.88235</ele>
        <time>2022-12-29T15:38:26.923Z</time>
      </trkpt>
      <trkpt lat="44.17058" lon="0.68745">
        <ele>97.850593</ele>
        <time>2022-12-29T15:38:29.938Z</time>
      </trkpt>
      <trkpt lat="44.17056" lon="0.68757">
        <ele>97.819847</ele>
        <time>2022-12-29T15:38:32.924Z</time>
      </trkpt>
      <trkpt lat="44.17053" lon="0.68771">
        <ele>97.787815</ele>
        <time>2022-12-29T15:38:35.920Z</time>
      </trkpt>
      <trkpt lat="44.17049" lon="0.68785">
        <ele>97.752778</ele>
        <time>2022-12-29T15:38:38.922Z</time>
      </trkpt>
      <trkpt lat="44.17045" lon="0.688">
        <ele>97.689374</ele>
        <time>2022-12-29T15:38:41.931Z</time>
      </trkpt>
      <trkpt lat="44.1704" lon="0.68817">
        <ele>97.617346</ele>
        <time>2022-12-29T15:38:44.920Z</time>
      </trkpt>
      <trkpt lat="44.17036" lon="0.68833">
        <ele>97.54231</ele>
        <time>2022-12-29T15:38:47.925Z</time>
      </trkpt>
      <trkpt lat="44.1703" lon="0.6885">
        <ele>97.466445</ele>
        <time>2022-12-29T15:38:50.924Z</time>
      </trkpt>
      <trkpt lat="44.17025" lon="0.68867">
        <ele>97.389027</ele>
        <time>2022-12-29T15:38:53.921Z</time>
      </trkpt>
      <trkpt lat="44.1702" lon="0.68878">
        <ele>97.336735</ele>
        <time>2022-12-29T15:38:55.924Z</time>
      </trkpt>
      <trkpt lat="44.17016" lon="0.68889">
        <ele>97.284357</ele>
        <time>2022-12-29T15:38:57.939Z</time>
      </trkpt>
      <trkpt lat="44.17009" lon="0.68905">
        <ele>97.206003</ele>
        <time>2022-12-29T15:39:00.906Z</time>
      </trkpt>
      <trkpt lat="44.17003" lon="0.68921">
        <ele>97.132052</ele>
        <time>2022-12-29T15:39:03.922Z</time>
      </trkpt>
      <trkpt lat="44.16996" lon="0.68935">
        <ele>97.063627</ele>
        <time>2022-12-29T15:39:06.923Z</time>
      </trkpt>
      <trkpt lat="44.1699" lon="0.68948">
        <ele>96.996353</ele>
        <time>2022-12-29T15:39:09.924Z</time>
      </trkpt>
      <trkpt lat="44.16984" lon="0.68959">
        <ele>96.938905</ele>
        <time>2022-12-29T15:39:12.935Z</time>
      </trkpt>
      <trkpt lat="44.16978" lon="0.6897">
        <ele>96.883762</ele>
        <time>2022-12-29T15:39:15.935Z</time>
      </trkpt>
      <trkpt lat="44.16972" lon="0.68979">
        <ele>96.831659</ele>
        <time>2022-12-29T15:39:18.908Z</time>
      </trkpt>
      <trkpt lat="44.16964" lon="0.68987">
        <ele>96.774335</ele>
        <time>2022-12-29T15:39:22.925Z</time>
      </trkpt>
      <trkpt lat="44.16957" lon="0.68998">
        <ele>96.710701</ele>
        <time>2022-12-29T15:39:26.923Z</time>
      </trkpt>
      <trkpt lat="44.1695" lon="0.69011">
        <ele>96.611262</ele>
        <time>2022-12-29T15:39:30.918Z</time>
      </trkpt>
      <trkpt lat="44.16947" lon="0.69025">
        <ele>96.517885</ele>
        <time>2022-12-29T15:39:34.910Z</time>
      </trkpt>
      <trkpt lat="44.16942" lon="0.6904">
        <ele>96.412399</ele>
        <time>2022-12-29T15:39:38.909Z</time>
      </trkpt>
      <trkpt lat="44.16937" lon="0.69053">
        <ele>96.319217</ele>
        <time>2022-12-29T15:39:41.918Z</time>
      </trkpt>
      <trkpt lat="44.16932" lon="0.69066">
        <ele>96.224357</ele>
        <time>2022-12-29T15:39:44.924Z</time>
      </trkpt>
      <trkpt lat="44.16926" lon="0.69081">
        <ele>96.118115</ele>
        <time>2022-12-29T15:39:47.923Z</time>
      </trkpt>
      <trkpt lat="44.1692" lon="0.69095">
        <ele>96.011984</ele>
        <time>2022-12-29T15:39:50.920Z</time>
      </trkpt>
      <trkpt lat="44.16913" lon="0.69111">
        <ele>95.892622</ele>
        <time>2022-12-29T15:39:53.924Z</time>
      </trkpt>
      <trkpt lat="44.16908" lon="0.69122">
        <ele>95.812301</ele>
        <time>2022-12-29T15:39:55.921Z</time>
      </trkpt>
      <trkpt lat="44.16903" lon="0.69132">
        <ele>95.730459</ele>
        <time>2022-12-29T15:39:57.919Z</time>
      </trkpt>
      <trkpt lat="44.16895" lon="0.69147">
        <ele>95.612377</ele>
        <time>2022-12-29T15:40:00.921Z</time>
      </trkpt>
      <trkpt lat="44.1689" lon="0.69159">
        <ele>95.524779</ele>
        <time>2022-12-29T15:40:02.923Z</time>
      </trkpt>
      <trkpt lat="44.16884" lon="0.6917">
        <ele>95.435706</ele>
        <time>2022-12-29T15:40:04.932Z</time>
      </trkpt>
      <trkpt lat="44.16877" lon="0.69186">
        <ele>95.319446</ele>
        <time>2022-12-29T15:40:07.926Z</time>
      </trkpt>
      <trkpt lat="44.16871" lon="0.69198">
        <ele>95.226223</ele>
        <time>2022-12-29T15:40:09.920Z</time>
      </trkpt>
      <trkpt lat="44.16866" lon="0.69209">
        <ele>95.144076</ele>
        <time>2022-12-29T15:40:11.925Z</time>
      </trkpt>
      <trkpt lat="44.16861" lon="0.6922">
        <ele>95.146763</ele>
        <time>2022-12-29T15:40:13.931Z</time>
      </trkpt>
      <trkpt lat="44.16856" lon="0.6923">
        <ele>95.22008</ele>
        <time>2022-12-29T15:40:15.929Z</time>
      </trkpt>
      <trkpt lat="44.16849" lon="0.69243">
        <ele>95.318983</ele>
        <time>2022-12-29T15:40:18.931Z</time>
      </trkpt>
      <trkpt lat="44.16843" lon="0.69254">
        <ele>95.393646</ele>
        <time>2022-12-29T15:40:20.921Z</time>
      </trkpt>
      <trkpt lat="44.16838" lon="0.69265">
        <ele>95.470289</ele>
        <time>2022-12-29T15:40:22.923Z</time>
      </trkpt>
      <trkpt lat="44.16833" lon="0.69276">
        <ele>95.547324</ele>
        <time>2022-12-29T15:40:24.922Z</time>
      </trkpt>
      <trkpt lat="44.16827" lon="0.69286">
        <ele>95.62483</ele>
        <time>2022-12-29T15:40:26.920Z</time>
      </trkpt>
      <trkpt lat="44.16822" lon="0.69297">
        <ele>95.701386</ele>
        <time>2022-12-29T15:40:28.906Z</time>
      </trkpt>
      <trkpt lat="44.16816" lon="0.69313">
        <ele>95.806139</ele>
        <time>2022-12-29T15:40:31.925Z</time>
      </trkpt>
      <trkpt lat="44.16811" lon="0.69329">
        <ele>95.906799</ele>
        <time>2022-12-29T15:40:34.928Z</time>
      </trkpt>
      <trkpt lat="44.16808" lon="0.69341">
        <ele>95.983929</ele>
        <time>2022-12-29T15:40:36.923Z</time>
      </trkpt>
      <trkpt lat="44.16801" lon="0.69355">
        <ele>96.083387</ele>
        <time>2022-12-29T15:40:39.901Z</time>
      </trkpt>
      <trkpt lat="44.16795" lon="0.69367">
        <ele>96.169945</ele>
        <time>2022-12-29T15:40:43.910Z</time>
      </trkpt>
      <trkpt lat="44.16789" lon="0.69378">
        <ele>96.246069</ele>
        <time>2022-12-29T15:40:46.939Z</time>
      </trkpt>
      <trkpt lat="44.16783" lon="0.69391">
        <ele>96.339278</ele>
        <time>2022-12-29T15:40:49.917Z</time>
      </trkpt>
      <trkpt lat="44.16776" lon="0.69405">
        <ele>96.441046</ele>
        <time>2022-12-29T15:40:52.908Z</time>
      </trkpt>
      <trkpt lat="44.16768" lon="0.6942">
        <ele>96.54708</ele>
        <time>2022-12-29T15:40:55.912Z</time>
      </trkpt>
      <trkpt lat="44.16761" lon="0.69435">
        <ele>96.653062</ele>
        <time>2022-12-29T15:40:58.908Z</time>
      </trkpt>
      <trkpt lat="44.16753" lon="0.6945">
        <ele>96.761975</ele>
        <time>2022-12-29T15:41:01.903Z</time>
      </trkpt>
      <trkpt lat="44.16748" lon="0.69461">
        <ele>96.835207</ele>
        <time>2022-12-29T15:41:03.908Z</time>
      </trkpt>
      <trkpt lat="44.16742" lon="0.69472">
        <ele>96.911283</ele>
        <time>2022-12-29T15:41:05.908Z</time>
      </trkpt>
      <trkpt lat="44.16737" lon="0.69483">
        <ele>96.987875</ele>
        <time>2022-12-29T15:41:07.910Z</time>
      </trkpt>
      <trkpt lat="44.16732" lon="0.69493">
        <ele>97.062515</ele>
        <time>2022-12-29T15:41:09.902Z</time>
      </trkpt>
      <trkpt lat="44.16727" lon="0.69504">
        <ele>97.135326</ele>
        <time>2022-12-29T15:41:11.907Z</time>
      </trkpt>
      <trkpt lat="44.1672" lon="0.69517">
        <ele>97.23297</ele>
        <time>2022-12-29T15:41:14.918Z</time>
      </trkpt>
      <trkpt lat="44.16713" lon="0.6953">
        <ele>97.319349</ele>
        <time>2022-12-29T15:41:17.906Z</time>
      </trkpt>
      <trkpt lat="44.16708" lon="0.69541">
        <ele>97.400105</ele>
        <time>2022-12-29T15:41:20.904Z</time>
      </trkpt>
      <trkpt lat="44.16702" lon="0.69553">
        <ele>97.48511</ele>
        <time>2022-12-29T15:41:23.910Z</time>
      </trkpt>
      <trkpt lat="44.16696" lon="0.69566">
        <ele>97.570149</ele>
        <time>2022-12-29T15:41:26.909Z</time>
      </trkpt>
      <trkpt lat="44.16691" lon="0.69579">
        <ele>97.658047</ele>
        <time>2022-12-29T15:41:30.917Z</time>
      </trkpt>
      <trkpt lat="44.16685" lon="0.69593">
        <ele>97.752853</ele>
        <time>2022-12-29T15:41:34.915Z</time>
      </trkpt>
      <trkpt lat="44.16679" lon="0.69606">
        <ele>97.84137</ele>
        <time>2022-12-29T15:41:38.907Z</time>
      </trkpt>
      <trkpt lat="44.16674" lon="0.69619">
        <ele>97.926081</ele>
        <time>2022-12-29T15:41:42.906Z</time>
      </trkpt>
      <trkpt lat="44.16669" lon="0.69631">
        <ele>98.003553</ele>
        <time>2022-12-29T15:41:46.909Z</time>
      </trkpt>
      <trkpt lat="44.16665" lon="0.69642">
        <ele>98.116129</ele>
        <time>2022-12-29T15:41:50.904Z</time>
      </trkpt>
      <trkpt lat="44.1666" lon="0.69654">
        <ele>98.242153</ele>
        <time>2022-12-29T15:41:54.908Z</time>
      </trkpt>
      <trkpt lat="44.16655" lon="0.69666">
        <ele>98.38175</ele>
        <time>2022-12-29T15:41:59.902Z</time>
      </trkpt>
      <trkpt lat="44.16649" lon="0.69676">
        <ele>98.505775</ele>
        <time>2022-12-29T15:42:02.911Z</time>
      </trkpt>
      <trkpt lat="44.16642" lon="0.69691">
        <ele>98.67337</ele>
        <time>2022-12-29T15:42:05.903Z</time>
      </trkpt>
      <trkpt lat="44.16637" lon="0.69701">
        <ele>98.793752</ele>
        <time>2022-12-29T15:42:07.915Z</time>
      </trkpt>
      <trkpt lat="44.16632" lon="0.69712">
        <ele>98.921043</ele>
        <time>2022-12-29T15:42:09.904Z</time>
      </trkpt>
      <trkpt lat="44.16626" lon="0.69725">
        <ele>99.065366</ele>
        <time>2022-12-29T15:42:11.918Z</time>
      </trkpt>
      <trkpt lat="44.1662" lon="0.69738">
        <ele>99.210611</ele>
        <time>2022-12-29T15:42:13.901Z</time>
      </trkpt>
      <trkpt lat="44.16613" lon="0.69751">
        <ele>99.362669</ele>
        <time>2022-12-29T15:42:15.906Z</time>
      </trkpt>
      <trkpt lat="44.16607" lon="0.69764">
        <ele>99.516257</ele>
        <time>2022-12-29T15:42:17.908Z</time>
      </trkpt>
      <trkpt lat="44.166" lon="0.69775">
        <ele>99.652827</ele>
        <time>2022-12-29T15:42:19.908Z</time>
      </trkpt>
      <trkpt lat="44.16594" lon="0.69787">
        <ele>99.794786</ele>
        <time>2022-12-29T15:42:21.904Z</time>
      </trkpt>
      <trkpt lat="44.16588" lon="0.698">
        <ele>99.936102</ele>
        <time>2022-12-29T15:42:23.903Z</time>
      </trkpt>
      <trkpt lat="44.16583" lon="0.69811">
        <ele>100.064103</ele>
        <time>2022-12-29T15:42:25.909Z</time>
      </trkpt>
      <trkpt lat="44.16577" lon="0.69822">
        <ele>100.196747</ele>
        <time>2022-12-29T15:42:27.916Z</time>
      </trkpt>
      <trkpt lat="44.16572" lon="0.69833">
        <ele>100.323206</ele>
        <time>2022-12-29T15:42:29.908Z</time>
      </trkpt>
      <trkpt lat="44.16567" lon="0.69843">
        <ele>100.413941</ele>
        <time>2022-12-29T15:42:31.913Z</time>
      </trkpt>
      <trkpt lat="44.16559" lon="0.69858">
        <ele>100.405102</ele>
        <time>2022-12-29T15:42:34.912Z</time>
      </trkpt>
      <trkpt lat="44.16552" lon="0.69871">
        <ele>100.397166</ele>
        <time>2022-12-29T15:42:37.904Z</time>
      </trkpt>
      <trkpt lat="44.16546" lon="0.69884">
        <ele>100.390076</ele>
        <time>2022-12-29T15:42:40.905Z</time>
      </trkpt>
      <trkpt lat="44.16541" lon="0.69896">
        <ele>100.38345</ele>
        <time>2022-12-29T15:42:43.906Z</time>
      </trkpt>
      <trkpt lat="44.16536" lon="0.69906">
        <ele>100.377243</ele>
        <time>2022-12-29T15:42:46.900Z</time>
      </trkpt>
      <trkpt lat="44.16531" lon="0.69921">
        <ele>100.369262</ele>
        <time>2022-12-29T15:42:50.905Z</time>
      </trkpt>
      <trkpt lat="44.16528" lon="0.69933">
        <ele>100.363002</ele>
        <time>2022-12-29T15:42:53.905Z</time>
      </trkpt>
      <trkpt lat="44.16525" lon="0.69948">
        <ele>100.355529</ele>
        <time>2022-12-29T15:42:56.901Z</time>
      </trkpt>
      <trkpt lat="44.16522" lon="0.69965">
        <ele>100.347266</ele>
        <time>2022-12-29T15:42:59.901Z</time>
      </trkpt>
      <trkpt lat="44.16519" lon="0.69982">
        <ele>100.338628</ele>
        <time>2022-12-29T15:43:02.903Z</time>
      </trkpt>
      <trkpt lat="44.16516" lon="0.69994">
        <ele>100.332475</ele>
        <time>2022-12-29T15:43:04.908Z</time>
      </trkpt>
      <trkpt lat="44.16512" lon="0.70011">
        <ele>100.324143</ele>
        <time>2022-12-29T15:43:07.907Z</time>
      </trkpt>
      <trkpt lat="44.16509" lon="0.70026">
        <ele>100.316475</ele>
        <time>2022-12-29T15:43:10.906Z</time>
      </trkpt>
      <trkpt lat="44.16507" lon="0.70039">
        <ele>100.310047</ele>
        <time>2022-12-29T15:43:13.905Z</time>
      </trkpt>
      <trkpt lat="44.16505" lon="0.70055">
        <ele>100.302171</ele>
        <time>2022-12-29T15:43:17.908Z</time>
      </trkpt>
      <trkpt lat="44.16501" lon="0.70068">
        <ele>100.295396</ele>
        <time>2022-12-29T15:43:21.909Z</time>
      </trkpt>
      <trkpt lat="44.16492" lon="0.70069">
        <ele>100.264823</ele>
        <time>2022-12-29T15:43:25.906Z</time>
      </trkpt>
      <trkpt lat="44.1648" lon="0.70063">
        <ele>100.216817</ele>
        <time>2022-12-29T15:43:29.912Z</time>
      </trkpt>
      <trkpt lat="44.16471" lon="0.70063">
        <ele>100.178456</ele>
        <time>2022-12-29T15:43:32.902Z</time>
      </trkpt>
      <trkpt lat="44.16461" lon="0.70063">
        <ele>100.136888</ele>
        <time>2022-12-29T15:43:35.923Z</time>
      </trkpt>
      <trkpt lat="44.16453" lon="0.7007">
        <ele>100.096761</ele>
        <time>2022-12-29T15:43:37.922Z</time>
      </trkpt>
      <trkpt lat="44.16446" lon="0.7008">
        <ele>100.05676</ele>
        <time>2022-12-29T15:43:39.931Z</time>
      </trkpt>
      <trkpt lat="44.1644" lon="0.7009">
        <ele>100.019692</ele>
        <time>2022-12-29T15:43:41.926Z</time>
      </trkpt>
      <trkpt lat="44.16435" lon="0.70102">
        <ele>99.980014</ele>
        <time>2022-12-29T15:43:43.936Z</time>
      </trkpt>
      <trkpt lat="44.1643" lon="0.70113">
        <ele>99.941504</ele>
        <time>2022-12-29T15:43:45.931Z</time>
      </trkpt>
      <trkpt lat="44.16424" lon="0.70123">
        <ele>99.903251</ele>
        <time>2022-12-29T15:43:47.924Z</time>
      </trkpt>
      <trkpt lat="44.16419" lon="0.70134">
        <ele>99.864973</ele>
        <time>2022-12-29T15:43:49.929Z</time>
      </trkpt>
      <trkpt lat="44.16413" lon="0.70146">
        <ele>99.822213</ele>
        <time>2022-12-29T15:43:51.922Z</time>
      </trkpt>
      <trkpt lat="44.16407" lon="0.70158">
        <ele>99.780018</ele>
        <time>2022-12-29T15:43:53.927Z</time>
      </trkpt>
      <trkpt lat="44.16402" lon="0.70169">
        <ele>99.741484</ele>
        <time>2022-12-29T15:43:55.923Z</time>
      </trkpt>
      <trkpt lat="44.16396" lon="0.70182">
        <ele>99.695634</ele>
        <time>2022-12-29T15:43:57.926Z</time>
      </trkpt>
      <trkpt lat="44.16389" lon="0.70194">
        <ele>99.652403</ele>
        <time>2022-12-29T15:43:59.933Z</time>
      </trkpt>
      <trkpt lat="44.16383" lon="0.70205">
        <ele>99.611305</ele>
        <time>2022-12-29T15:44:01.932Z</time>
      </trkpt>
      <trkpt lat="44.16377" lon="0.70217">
        <ele>99.567836</ele>
        <time>2022-12-29T15:44:03.935Z</time>
      </trkpt>
      <trkpt lat="44.16372" lon="0.7023">
        <ele>99.491608</ele>
        <time>2022-12-29T15:44:05.927Z</time>
      </trkpt>
      <trkpt lat="44.16366" lon="0.70242">
        <ele>99.410428</ele>
        <time>2022-12-29T15:44:07.923Z</time>
      </trkpt>
      <trkpt lat="44.16359" lon="0.70256">
        <ele>99.31876</ele>
        <time>2022-12-29T15:44:09.932Z</time>
      </trkpt>
      <trkpt lat="44.16353" lon="0.70269">
        <ele>99.225825</ele>
        <time>2022-12-29T15:44:11.929Z</time>
      </trkpt>
      <trkpt lat="44.16347" lon="0.70283">
        <ele>99.138118</ele>
        <time>2022-12-29T15:44:13.921Z</time>
      </trkpt>
      <trkpt lat="44.16341" lon="0.70295">
        <ele>99.053754</ele>
        <time>2022-12-29T15:44:15.939Z</time>
      </trkpt>
      <trkpt lat="44.16334" lon="0.70309">
        <ele>98.96302</ele>
        <time>2022-12-29T15:44:17.926Z</time>
      </trkpt>
      <trkpt lat="44.16329" lon="0.70323">
        <ele>98.875238</ele>
        <time>2022-12-29T15:44:19.925Z</time>
      </trkpt>
      <trkpt lat="44.16322" lon="0.70336">
        <ele>98.783145</ele>
        <time>2022-12-29T15:44:21.930Z</time>
      </trkpt>
      <trkpt lat="44.16316" lon="0.70349">
        <ele>98.69837</ele>
        <time>2022-12-29T15:44:23.928Z</time>
      </trkpt>
      <trkpt lat="44.1631" lon="0.70362">
        <ele>98.610854</ele>
        <time>2022-12-29T15:44:25.930Z</time>
      </trkpt>
      <trkpt lat="44.16303" lon="0.70375">
        <ele>98.524719</ele>
        <time>2022-12-29T15:44:27.927Z</time>
      </trkpt>
      <trkpt lat="44.16297" lon="0.70387">
        <ele>98.440354</ele>
        <time>2022-12-29T15:44:29.924Z</time>
      </trkpt>
      <trkpt lat="44.16291" lon="0.704">
        <ele>98.353759</ele>
        <time>2022-12-29T15:44:31.926Z</time>
      </trkpt>
      <trkpt lat="44.16284" lon="0.70413">
        <ele>98.262184</ele>
        <time>2022-12-29T15:44:33.932Z</time>
      </trkpt>
      <trkpt lat="44.16278" lon="0.70427">
        <ele>98.174169</ele>
        <time>2022-12-29T15:44:35.909Z</time>
      </trkpt>
      <trkpt lat="44.16271" lon="0.70439">
        <ele>98.185003</ele>
        <time>2022-12-29T15:44:37.907Z</time>
      </trkpt>
      <trkpt lat="44.16264" lon="0.70452">
        <ele>98.212016</ele>
        <time>2022-12-29T15:44:39.930Z</time>
      </trkpt>
      <trkpt lat="44.16258" lon="0.70465">
        <ele>98.238546</ele>
        <time>2022-12-29T15:44:41.935Z</time>
      </trkpt>
      <trkpt lat="44.16252" lon="0.70478">
        <ele>98.264609</ele>
        <time>2022-12-29T15:44:43.930Z</time>
      </trkpt>
      <trkpt lat="44.16246" lon="0.70489">
        <ele>98.287009</ele>
        <time>2022-12-29T15:44:45.935Z</time>
      </trkpt>
      <trkpt lat="44.1624" lon="0.70501">
        <ele>98.310774</ele>
        <time>2022-12-29T15:44:47.927Z</time>
      </trkpt>
      <trkpt lat="44.16236" lon="0.70512">
        <ele>98.332713</ele>
        <time>2022-12-29T15:44:49.926Z</time>
      </trkpt>
      <trkpt lat="44.1623" lon="0.70523">
        <ele>98.354313</ele>
        <time>2022-12-29T15:44:51.934Z</time>
      </trkpt>
      <trkpt lat="44.16225" lon="0.70533">
        <ele>98.375761</ele>
        <time>2022-12-29T15:44:53.921Z</time>
      </trkpt>
      <trkpt lat="44.1622" lon="0.70544">
        <ele>98.397891</ele>
        <time>2022-12-29T15:44:55.921Z</time>
      </trkpt>
      <trkpt lat="44.16213" lon="0.7056">
        <ele>98.427741</ele>
        <time>2022-12-29T15:44:58.928Z</time>
      </trkpt>
      <trkpt lat="44.16208" lon="0.70571">
        <ele>98.451506</ele>
        <time>2022-12-29T15:45:00.920Z</time>
      </trkpt>
      <trkpt lat="44.16202" lon="0.70583">
        <ele>98.47541</ele>
        <time>2022-12-29T15:45:02.906Z</time>
      </trkpt>
      <trkpt lat="44.16196" lon="0.70595">
        <ele>98.499032</ele>
        <time>2022-12-29T15:45:04.903Z</time>
      </trkpt>
      <trkpt lat="44.16191" lon="0.70606">
        <ele>98.521377</ele>
        <time>2022-12-29T15:45:06.906Z</time>
      </trkpt>
      <trkpt lat="44.16184" lon="0.70621">
        <ele>98.551005</ele>
        <time>2022-12-29T15:45:09.909Z</time>
      </trkpt>
      <trkpt lat="44.16179" lon="0.70632">
        <ele>98.572071</ele>
        <time>2022-12-29T15:45:11.909Z</time>
      </trkpt>
      <trkpt lat="44.16172" lon="0.70647">
        <ele>98.651814</ele>
        <time>2022-12-29T15:45:14.909Z</time>
      </trkpt>
      <trkpt lat="44.16165" lon="0.70662">
        <ele>98.75371</ele>
        <time>2022-12-29T15:45:17.917Z</time>
      </trkpt>
      <trkpt lat="44.1616" lon="0.70673">
        <ele>98.830383</ele>
        <time>2022-12-29T15:45:19.908Z</time>
      </trkpt>
      <trkpt lat="44.16154" lon="0.70683">
        <ele>98.906123</ele>
        <time>2022-12-29T15:45:21.910Z</time>
      </trkpt>
      <trkpt lat="44.16149" lon="0.70694">
        <ele>98.981395</ele>
        <time>2022-12-29T15:45:23.912Z</time>
      </trkpt>
      <trkpt lat="44.16143" lon="0.70705">
        <ele>99.058089</ele>
        <time>2022-12-29T15:45:25.913Z</time>
      </trkpt>
      <trkpt lat="44.16137" lon="0.70716">
        <ele>99.136615</ele>
        <time>2022-12-29T15:45:27.903Z</time>
      </trkpt>
      <trkpt lat="44.16132" lon="0.70727">
        <ele>99.215605</ele>
        <time>2022-12-29T15:45:29.915Z</time>
      </trkpt>
      <trkpt lat="44.16126" lon="0.7074">
        <ele>99.299776</ele>
        <time>2022-12-29T15:45:31.912Z</time>
      </trkpt>
      <trkpt lat="44.1612" lon="0.70752">
        <ele>99.3862</ele>
        <time>2022-12-29T15:45:33.914Z</time>
      </trkpt>
      <trkpt lat="44.16114" lon="0.70763">
        <ele>99.465209</ele>
        <time>2022-12-29T15:45:35.905Z</time>
      </trkpt>
      <trkpt lat="44.16108" lon="0.70775">
        <ele>99.5442</ele>
        <time>2022-12-29T15:45:37.910Z</time>
      </trkpt>
      <trkpt lat="44.16103" lon="0.70786">
        <ele>99.621883</ele>
        <time>2022-12-29T15:45:39.912Z</time>
      </trkpt>
      <trkpt lat="44.16097" lon="0.70797">
        <ele>99.699951</ele>
        <time>2022-12-29T15:45:41.910Z</time>
      </trkpt>
      <trkpt lat="44.1609" lon="0.70814">
        <ele>99.809488</ele>
        <time>2022-12-29T15:45:44.913Z</time>
      </trkpt>
      <trkpt lat="44.16085" lon="0.70826">
        <ele>99.892028</ele>
        <time>2022-12-29T15:45:46.907Z</time>
      </trkpt>
      <trkpt lat="44.16079" lon="0.70839">
        <ele>99.978987</ele>
        <time>2022-12-29T15:45:48.912Z</time>
      </trkpt>
      <trkpt lat="44.16073" lon="0.70852">
        <ele>99.94626</ele>
        <time>2022-12-29T15:45:50.906Z</time>
      </trkpt>
      <trkpt lat="44.16068" lon="0.70865">
        <ele>99.830101</ele>
        <time>2022-12-29T15:45:52.907Z</time>
      </trkpt>
      <trkpt lat="44.16063" lon="0.70878">
        <ele>99.721422</ele>
        <time>2022-12-29T15:45:54.909Z</time>
      </trkpt>
      <trkpt lat="44.16059" lon="0.7089">
        <ele>99.622683</ele>
        <time>2022-12-29T15:45:56.906Z</time>
      </trkpt>
      <trkpt lat="44.16055" lon="0.70902">
        <ele>99.519958</ele>
        <time>2022-12-29T15:45:59.911Z</time>
      </trkpt>
      <trkpt lat="44.16051" lon="0.70915">
        <ele>99.412823</ele>
        <time>2022-12-29T15:46:03.911Z</time>
      </trkpt>
      <trkpt lat="44.16045" lon="0.70928">
        <ele>99.299444</ele>
        <time>2022-12-29T15:46:07.911Z</time>
      </trkpt>
      <trkpt lat="44.16041" lon="0.7094">
        <ele>99.195106</ele>
        <time>2022-12-29T15:46:12.905Z</time>
      </trkpt>
      <trkpt lat="44.16036" lon="0.70953">
        <ele>99.083293</ele>
        <time>2022-12-29T15:46:20.913Z</time>
      </trkpt>
      <trkpt lat="44.1603" lon="0.70968">
        <ele>98.957721</ele>
        <time>2022-12-29T15:46:23.903Z</time>
      </trkpt>
      <trkpt lat="44.16026" lon="0.7098">
        <ele>98.851341</ele>
        <time>2022-12-29T15:46:25.911Z</time>
      </trkpt>
      <trkpt lat="44.1602" lon="0.70993">
        <ele>98.734925</ele>
        <time>2022-12-29T15:46:27.906Z</time>
      </trkpt>
      <trkpt lat="44.16014" lon="0.71008">
        <ele>98.602636</ele>
        <time>2022-12-29T15:46:29.902Z</time>
      </trkpt>
      <trkpt lat="44.16007" lon="0.71022">
        <ele>98.475331</ele>
        <time>2022-12-29T15:46:31.900Z</time>
      </trkpt>
      <trkpt lat="44.16001" lon="0.71036">
        <ele>98.354029</ele>
        <time>2022-12-29T15:46:33.929Z</time>
      </trkpt>
      <trkpt lat="44.15996" lon="0.7105">
        <ele>98.232023</ele>
        <time>2022-12-29T15:46:35.904Z</time>
      </trkpt>
      <trkpt lat="44.15992" lon="0.71063">
        <ele>98.121764</ele>
        <time>2022-12-29T15:46:37.911Z</time>
      </trkpt>
      <trkpt lat="44.15986" lon="0.71076">
        <ele>98.248463</ele>
        <time>2022-12-29T15:46:39.908Z</time>
      </trkpt>
      <trkpt lat="44.15982" lon="0.71088">
        <ele>98.390598</ele>
        <time>2022-12-29T15:46:41.908Z</time>
      </trkpt>
      <trkpt lat="44.15978" lon="0.711">
        <ele>98.535291</ele>
        <time>2022-12-29T15:46:43.911Z</time>
      </trkpt>
      <trkpt lat="44.15973" lon="0.71112">
        <ele>98.680682</ele>
        <time>2022-12-29T15:46:45.915Z</time>
      </trkpt>
      <trkpt lat="44.15968" lon="0.71124">
        <ele>98.827664</ele>
        <time>2022-12-29T15:46:47.910Z</time>
      </trkpt>
      <trkpt lat="44.15964" lon="0.71136">
        <ele>98.975334</ele>
        <time>2022-12-29T15:46:49.912Z</time>
      </trkpt>
      <trkpt lat="44.15959" lon="0.7115">
        <ele>99.137845</ele>
        <time>2022-12-29T15:46:51.910Z</time>
      </trkpt>
      <trkpt lat="44.15954" lon="0.71163">
        <ele>99.290213</ele>
        <time>2022-12-29T15:46:53.906Z</time>
      </trkpt>
      <trkpt lat="44.15949" lon="0.71175">
        <ele>99.433229</ele>
        <time>2022-12-29T15:46:55.913Z</time>
      </trkpt>
      <trkpt lat="44.15945" lon="0.71188">
        <ele>99.59099</ele>
        <time>2022-12-29T15:46:57.904Z</time>
      </trkpt>
      <trkpt lat="44.15939" lon="0.71202">
        <ele>99.757103</ele>
        <time>2022-12-29T15:46:59.907Z</time>
      </trkpt>
      <trkpt lat="44.15935" lon="0.71214">
        <ele>99.901783</ele>
        <time>2022-12-29T15:47:01.908Z</time>
      </trkpt>
      <trkpt lat="44.1593" lon="0.71227">
        <ele>100.05622</ele>
        <time>2022-12-29T15:47:03.912Z</time>
      </trkpt>
      <trkpt lat="44.15925" lon="0.71238">
        <ele>100.196585</ele>
        <time>2022-12-29T15:47:05.907Z</time>
      </trkpt>
      <trkpt lat="44.1592" lon="0.7125">
        <ele>100.339229</ele>
        <time>2022-12-29T15:47:07.911Z</time>
      </trkpt>
      <trkpt lat="44.15916" lon="0.71262">
        <ele>100.48487</ele>
        <time>2022-12-29T15:47:09.908Z</time>
      </trkpt>
      <trkpt lat="44.15911" lon="0.71274">
        <ele>100.632542</ele>
        <time>2022-12-29T15:47:11.912Z</time>
      </trkpt>
      <trkpt lat="44.15906" lon="0.71286">
        <ele>100.76466</ele>
        <time>2022-12-29T15:47:13.907Z</time>
      </trkpt>
      <trkpt lat="44.15901" lon="0.71299">
        <ele>100.696601</ele>
        <time>2022-12-29T15:47:15.910Z</time>
      </trkpt>
      <trkpt lat="44.15896" lon="0.71313">
        <ele>100.628542</ele>
        <time>2022-12-29T15:47:17.905Z</time>
      </trkpt>
      <trkpt lat="44.15892" lon="0.71325">
        <ele>100.566044</ele>
        <time>2022-12-29T15:47:19.906Z</time>
      </trkpt>
      <trkpt lat="44.15887" lon="0.71337">
        <ele>100.50315</ele>
        <time>2022-12-29T15:47:21.911Z</time>
      </trkpt>
      <trkpt lat="44.15881" lon="0.7135">
        <ele>100.436196</ele>
        <time>2022-12-29T15:47:23.901Z</time>
      </trkpt>
      <trkpt lat="44.15877" lon="0.71362">
        <ele>100.376484</ele>
        <time>2022-12-29T15:47:25.903Z</time>
      </trkpt>
      <trkpt lat="44.15873" lon="0.71375">
        <ele>100.312368</ele>
        <time>2022-12-29T15:47:27.914Z</time>
      </trkpt>
      <trkpt lat="44.15869" lon="0.71387">
        <ele>100.251239</ele>
        <time>2022-12-29T15:47:29.912Z</time>
      </trkpt>
      <trkpt lat="44.15864" lon="0.71399">
        <ele>100.189947</ele>
        <time>2022-12-29T15:47:31.912Z</time>
      </trkpt>
      <trkpt lat="44.1586" lon="0.71411">
        <ele>100.128623</ele>
        <time>2022-12-29T15:47:33.899Z</time>
      </trkpt>
      <trkpt lat="44.15855" lon="0.71422">
        <ele>100.071123</ele>
        <time>2022-12-29T15:47:35.909Z</time>
      </trkpt>
      <trkpt lat="44.1585" lon="0.71433">
        <ele>100.010579</ele>
        <time>2022-12-29T15:47:37.905Z</time>
      </trkpt>
      <trkpt lat="44.15846" lon="0.71445">
        <ele>99.950415</ele>
        <time>2022-12-29T15:47:39.909Z</time>
      </trkpt>
      <trkpt lat="44.15843" lon="0.71458">
        <ele>99.887338</ele>
        <time>2022-12-29T15:47:41.912Z</time>
      </trkpt>
      <trkpt lat="44.15839" lon="0.7147">
        <ele>99.828262</ele>
        <time>2022-12-29T15:47:43.905Z</time>
      </trkpt>
      <trkpt lat="44.15834" lon="0.71482">
        <ele>99.76857</ele>
        <time>2022-12-29T15:47:45.911Z</time>
      </trkpt>
      <trkpt lat="44.1583" lon="0.71494">
        <ele>99.706201</ele>
        <time>2022-12-29T15:47:47.903Z</time>
      </trkpt>
      <trkpt lat="44.15827" lon="0.71506">
        <ele>99.646488</ele>
        <time>2022-12-29T15:47:49.910Z</time>
      </trkpt>
      <trkpt lat="44.15822" lon="0.7152">
        <ele>99.708334</ele>
        <time>2022-12-29T15:47:51.903Z</time>
      </trkpt>
      <trkpt lat="44.15817" lon="0.71533">
        <ele>99.796954</ele>
        <time>2022-12-29T15:47:53.908Z</time>
      </trkpt>
      <trkpt lat="44.15813" lon="0.71545">
        <ele>99.875683</ele>
        <time>2022-12-29T15:47:55.913Z</time>
      </trkpt>
      <trkpt lat="44.15809" lon="0.71558">
        <ele>99.959481</ele>
        <time>2022-12-29T15:47:57.913Z</time>
      </trkpt>
      <trkpt lat="44.15806" lon="0.71571">
        <ele>100.041973</ele>
        <time>2022-12-29T15:47:59.911Z</time>
      </trkpt>
      <trkpt lat="44.15802" lon="0.71584">
        <ele>100.126784</ele>
        <time>2022-12-29T15:48:01.912Z</time>
      </trkpt>
      <trkpt lat="44.15799" lon="0.71598">
        <ele>100.212376</ele>
        <time>2022-12-29T15:48:03.902Z</time>
      </trkpt>
      <trkpt lat="44.15795" lon="0.71611">
        <ele>100.299116</ele>
        <time>2022-12-29T15:48:05.907Z</time>
      </trkpt>
      <trkpt lat="44.15792" lon="0.71624">
        <ele>100.381334</ele>
        <time>2022-12-29T15:48:07.912Z</time>
      </trkpt>
      <trkpt lat="44.15789" lon="0.71638">
        <ele>100.466834</ele>
        <time>2022-12-29T15:48:09.908Z</time>
      </trkpt>
      <trkpt lat="44.15787" lon="0.71652">
        <ele>100.555758</ele>
        <time>2022-12-29T15:48:11.908Z</time>
      </trkpt>
      <trkpt lat="44.15784" lon="0.71666">
        <ele>100.642366</ele>
        <time>2022-12-29T15:48:13.910Z</time>
      </trkpt>
      <trkpt lat="44.15782" lon="0.7168">
        <ele>100.727795</ele>
        <time>2022-12-29T15:48:15.914Z</time>
      </trkpt>
      <trkpt lat="44.15779" lon="0.71694">
        <ele>100.814388</ele>
        <time>2022-12-29T15:48:17.906Z</time>
      </trkpt>
      <trkpt lat="44.15776" lon="0.71709">
        <ele>100.908431</ele>
        <time>2022-12-29T15:48:19.916Z</time>
      </trkpt>
      <trkpt lat="44.15774" lon="0.71724">
        <ele>101.00222</ele>
        <time>2022-12-29T15:48:21.914Z</time>
      </trkpt>
      <trkpt lat="44.15771" lon="0.7174">
        <ele>101.097762</ele>
        <time>2022-12-29T15:48:23.914Z</time>
      </trkpt>
      <trkpt lat="44.15769" lon="0.71756">
        <ele>101.231289</ele>
        <time>2022-12-29T15:48:25.912Z</time>
      </trkpt>
      <trkpt lat="44.15766" lon="0.71771">
        <ele>101.382205</ele>
        <time>2022-12-29T15:48:27.912Z</time>
      </trkpt>
      <trkpt lat="44.15764" lon="0.71786">
        <ele>101.538263</ele>
        <time>2022-12-29T15:48:29.909Z</time>
      </trkpt>
      <trkpt lat="44.15761" lon="0.71802">
        <ele>101.69557</ele>
        <time>2022-12-29T15:48:31.908Z</time>
      </trkpt>
      <trkpt lat="44.15759" lon="0.71817">
        <ele>101.846765</ele>
        <time>2022-12-29T15:48:33.913Z</time>
      </trkpt>
      <trkpt lat="44.15757" lon="0.71833">
        <ele>102.011492</ele>
        <time>2022-12-29T15:48:35.912Z</time>
      </trkpt>
      <trkpt lat="44.15755" lon="0.71846">
        <ele>102.143022</ele>
        <time>2022-12-29T15:48:37.910Z</time>
      </trkpt>
      <trkpt lat="44.15754" lon="0.7186">
        <ele>102.274344</ele>
        <time>2022-12-29T15:48:39.909Z</time>
      </trkpt>
      <trkpt lat="44.15752" lon="0.71874">
        <ele>102.421261</ele>
        <time>2022-12-29T15:48:42.915Z</time>
      </trkpt>
      <trkpt lat="44.1575" lon="0.7189">
        <ele>102.577283</ele>
        <time>2022-12-29T15:48:46.904Z</time>
      </trkpt>
      <trkpt lat="44.15747" lon="0.71902">
        <ele>102.705239</ele>
        <time>2022-12-29T15:48:50.912Z</time>
      </trkpt>
      <trkpt lat="44.15744" lon="0.71915">
        <ele>102.833096</ele>
        <time>2022-12-29T15:48:54.909Z</time>
      </trkpt>
      <trkpt lat="44.15741" lon="0.71927">
        <ele>102.959091</ele>
        <time>2022-12-29T15:48:57.906Z</time>
      </trkpt>
      <trkpt lat="44.15738" lon="0.71939">
        <ele>103.088819</ele>
        <time>2022-12-29T15:48:59.905Z</time>
      </trkpt>
      <trkpt lat="44.15735" lon="0.71955">
        <ele>103.249672</ele>
        <time>2022-12-29T15:49:01.916Z</time>
      </trkpt>
      <trkpt lat="44.15733" lon="0.71971">
        <ele>103.407106</ele>
        <time>2022-12-29T15:49:03.903Z</time>
      </trkpt>
      <trkpt lat="44.15732" lon="0.71985">
        <ele>103.54978</ele>
        <time>2022-12-29T15:49:05.906Z</time>
      </trkpt>
      <trkpt lat="44.1573" lon="0.71998">
        <ele>103.533576</ele>
        <time>2022-12-29T15:49:07.904Z</time>
      </trkpt>
      <trkpt lat="44.15728" lon="0.72011">
        <ele>103.410116</ele>
        <time>2022-12-29T15:49:09.903Z</time>
      </trkpt>
      <trkpt lat="44.15726" lon="0.72024">
        <ele>103.280072</ele>
        <time>2022-12-29T15:49:11.911Z</time>
      </trkpt>
      <trkpt lat="44.15724" lon="0.72036">
        <ele>103.154989</ele>
        <time>2022-12-29T15:49:13.904Z</time>
      </trkpt>
      <trkpt lat="44.15721" lon="0.72054">
        <ele>102.977678</ele>
        <time>2022-12-29T15:49:16.909Z</time>
      </trkpt>
      <trkpt lat="44.15718" lon="0.72072">
        <ele>102.797558</ele>
        <time>2022-12-29T15:49:19.911Z</time>
      </trkpt>
      <trkpt lat="44.15715" lon="0.72089">
        <ele>102.628075</ele>
        <time>2022-12-29T15:49:22.904Z</time>
      </trkpt>
      <trkpt lat="44.15711" lon="0.72108">
        <ele>102.443068</ele>
        <time>2022-12-29T15:49:25.901Z</time>
      </trkpt>
      <trkpt lat="44.15709" lon="0.7212">
        <ele>102.320265</ele>
        <time>2022-12-29T15:49:27.912Z</time>
      </trkpt>
      <trkpt lat="44.15707" lon="0.72133">
        <ele>102.192147</ele>
        <time>2022-12-29T15:49:29.903Z</time>
      </trkpt>
      <trkpt lat="44.15704" lon="0.72146">
        <ele>102.059957</ele>
        <time>2022-12-29T15:49:31.912Z</time>
      </trkpt>
      <trkpt lat="44.15701" lon="0.72159">
        <ele>101.928928</ele>
        <time>2022-12-29T15:49:33.903Z</time>
      </trkpt>
      <trkpt lat="44.15699" lon="0.72171">
        <ele>101.806578</ele>
        <time>2022-12-29T15:49:35.910Z</time>
      </trkpt>
      <trkpt lat="44.15696" lon="0.72184">
        <ele>101.673709</ele>
        <time>2022-12-29T15:49:37.902Z</time>
      </trkpt>
      <trkpt lat="44.15693" lon="0.72198">
        <ele>101.542123</ele>
        <time>2022-12-29T15:49:39.913Z</time>
      </trkpt>
      <trkpt lat="44.15689" lon="0.7221">
        <ele>101.409874</ele>
        <time>2022-12-29T15:49:41.912Z</time>
      </trkpt>
      <trkpt lat="44.15686" lon="0.72222">
        <ele>101.285261</ele>
        <time>2022-12-29T15:49:43.909Z</time>
      </trkpt>
      <trkpt lat="44.15683" lon="0.72235">
        <ele>101.172817</ele>
        <time>2022-12-29T15:49:45.905Z</time>
      </trkpt>
      <trkpt lat="44.1568" lon="0.72248">
        <ele>101.130948</ele>
        <time>2022-12-29T15:49:47.907Z</time>
      </trkpt>
      <trkpt lat="44.15677" lon="0.7226">
        <ele>101.088481</ele>
        <time>2022-12-29T15:49:49.913Z</time>
      </trkpt>
      <trkpt lat="44.15673" lon="0.72278">
        <ele>101.030502</ele>
        <time>2022-12-29T15:49:52.911Z</time>
      </trkpt>
      <trkpt lat="44.15668" lon="0.72293">
        <ele>100.980247</ele>
        <time>2022-12-29T15:49:55.905Z</time>
      </trkpt>
      <trkpt lat="44.15664" lon="0.7231">
        <ele>100.922136</ele>
        <time>2022-12-29T15:49:58.904Z</time>
      </trkpt>
      <trkpt lat="44.15659" lon="0.72327">
        <ele>100.863844</ele>
        <time>2022-12-29T15:50:01.915Z</time>
      </trkpt>
      <trkpt lat="44.15654" lon="0.72344">
        <ele>100.806212</ele>
        <time>2022-12-29T15:50:04.912Z</time>
      </trkpt>
      <trkpt lat="44.1565" lon="0.72356">
        <ele>100.763299</ele>
        <time>2022-12-29T15:50:06.910Z</time>
      </trkpt>
      <trkpt lat="44.15647" lon="0.72369">
        <ele>100.719906</ele>
        <time>2022-12-29T15:50:08.902Z</time>
      </trkpt>
      <trkpt lat="44.15643" lon="0.72381">
        <ele>100.67789</ele>
        <time>2022-12-29T15:50:10.906Z</time>
      </trkpt>
      <trkpt lat="44.1564" lon="0.72394">
        <ele>100.635667</ele>
        <time>2022-12-29T15:50:12.914Z</time>
      </trkpt>
      <trkpt lat="44.15636" lon="0.72407">
        <ele>100.590817</ele>
        <time>2022-12-29T15:50:14.906Z</time>
      </trkpt>
      <trkpt lat="44.15633" lon="0.72421">
        <ele>100.545294</ele>
        <time>2022-12-29T15:50:16.904Z</time>
      </trkpt>
      <trkpt lat="44.1563" lon="0.72435">
        <ele>100.499683</ele>
        <time>2022-12-29T15:50:18.915Z</time>
      </trkpt>
      <trkpt lat="44.15628" lon="0.72448">
        <ele>100.457295</ele>
        <time>2022-12-29T15:50:20.911Z</time>
      </trkpt>
      <trkpt lat="44.15624" lon="0.72459">
        <ele>100.416161</ele>
        <time>2022-12-29T15:50:22.914Z</time>
      </trkpt>
      <trkpt lat="44.1562" lon="0.72473">
        <ele>100.378831</ele>
        <time>2022-12-29T15:50:24.915Z</time>
      </trkpt>
      <trkpt lat="44.15617" lon="0.72485">
        <ele>100.356544</ele>
        <time>2022-12-29T15:50:26.933Z</time>
      </trkpt>
      <trkpt lat="44.15616" lon="0.72498">
        <ele>100.332716</ele>
        <time>2022-12-29T15:50:28.908Z</time>
      </trkpt>
      <trkpt lat="44.15613" lon="0.72512">
        <ele>100.306534</ele>
        <time>2022-12-29T15:50:30.913Z</time>
      </trkpt>
      <trkpt lat="44.1561" lon="0.72527">
        <ele>100.280432</ele>
        <time>2022-12-29T15:50:32.911Z</time>
      </trkpt>
      <trkpt lat="44.15608" lon="0.72541">
        <ele>100.254073</ele>
        <time>2022-12-29T15:50:34.908Z</time>
      </trkpt>
      <trkpt lat="44.15606" lon="0.72555">
        <ele>100.22831</ele>
        <time>2022-12-29T15:50:36.912Z</time>
      </trkpt>
      <trkpt lat="44.15604" lon="0.7257">
        <ele>100.201905</ele>
        <time>2022-12-29T15:50:38.910Z</time>
      </trkpt>
      <trkpt lat="44.15603" lon="0.72584">
        <ele>100.176414</ele>
        <time>2022-12-29T15:50:40.908Z</time>
      </trkpt>
      <trkpt lat="44.15601" lon="0.72604">
        <ele>100.141481</ele>
        <time>2022-12-29T15:50:43.915Z</time>
      </trkpt>
      <trkpt lat="44.15599" lon="0.72617">
        <ele>100.117915</ele>
        <time>2022-12-29T15:50:45.905Z</time>
      </trkpt>
      <trkpt lat="44.15597" lon="0.72634">
        <ele>100.08754</ele>
        <time>2022-12-29T15:50:48.908Z</time>
      </trkpt>
      <trkpt lat="44.15596" lon="0.72651">
        <ele>100.056407</ele>
        <time>2022-12-29T15:50:51.911Z</time>
      </trkpt>
      <trkpt lat="44.15597" lon="0.7267">
        <ele>100.023939</ele>
        <time>2022-12-29T15:50:54.909Z</time>
      </trkpt>
      <trkpt lat="44.15596" lon="0.72683">
        <ele>100.000224</ele>
        <time>2022-12-29T15:50:56.910Z</time>
      </trkpt>
      <trkpt lat="44.15596" lon="0.72697">
        <ele>99.975395</ele>
        <time>2022-12-29T15:50:58.907Z</time>
      </trkpt>
      <trkpt lat="44.15595" lon="0.72716">
        <ele>99.970029</ele>
        <time>2022-12-29T15:51:01.907Z</time>
      </trkpt>
      <trkpt lat="44.15594" lon="0.7273">
        <ele>100.159547</ele>
        <time>2022-12-29T15:51:03.912Z</time>
      </trkpt>
      <trkpt lat="44.15594" lon="0.72744">
        <ele>100.352744</ele>
        <time>2022-12-29T15:51:05.910Z</time>
      </trkpt>
      <trkpt lat="44.15594" lon="0.72757">
        <ele>100.526434</ele>
        <time>2022-12-29T15:51:07.903Z</time>
      </trkpt>
      <trkpt lat="44.15594" lon="0.72771">
        <ele>100.711628</ele>
        <time>2022-12-29T15:51:09.920Z</time>
      </trkpt>
      <trkpt lat="44.15592" lon="0.72785">
        <ele>100.893105</ele>
        <time>2022-12-29T15:51:11.903Z</time>
      </trkpt>
      <trkpt lat="44.15592" lon="0.72798">
        <ele>101.067996</ele>
        <time>2022-12-29T15:51:13.901Z</time>
      </trkpt>
      <trkpt lat="44.15593" lon="0.72811">
        <ele>101.236893</ele>
        <time>2022-12-29T15:51:15.903Z</time>
      </trkpt>
      <trkpt lat="44.15593" lon="0.72824">
        <ele>101.416758</ele>
        <time>2022-12-29T15:51:17.912Z</time>
      </trkpt>
      <trkpt lat="44.15592" lon="0.72837">
        <ele>101.586127</ele>
        <time>2022-12-29T15:51:19.912Z</time>
      </trkpt>
      <trkpt lat="44.15592" lon="0.7285">
        <ele>101.760672</ele>
        <time>2022-12-29T15:51:21.912Z</time>
      </trkpt>
      <trkpt lat="44.15593" lon="0.72863">
        <ele>101.939243</ele>
        <time>2022-12-29T15:51:23.914Z</time>
      </trkpt>
      <trkpt lat="44.15592" lon="0.72876">
        <ele>102.112804</ele>
        <time>2022-12-29T15:51:25.911Z</time>
      </trkpt>
      <trkpt lat="44.15592" lon="0.72894">
        <ele>102.349988</ele>
        <time>2022-12-29T15:51:28.907Z</time>
      </trkpt>
      <trkpt lat="44.1559" lon="0.72908">
        <ele>102.542034</ele>
        <time>2022-12-29T15:51:30.911Z</time>
      </trkpt>
      <trkpt lat="44.1559" lon="0.72922">
        <ele>102.718382</ele>
        <time>2022-12-29T15:51:32.910Z</time>
      </trkpt>
      <trkpt lat="44.1559" lon="0.7294">
        <ele>102.960866</ele>
        <time>2022-12-29T15:51:35.906Z</time>
      </trkpt>
      <trkpt lat="44.15589" lon="0.72953">
        <ele>103.141505</ele>
        <time>2022-12-29T15:51:37.911Z</time>
      </trkpt>
      <trkpt lat="44.15588" lon="0.72967">
        <ele>103.266415</ele>
        <time>2022-12-29T15:51:39.911Z</time>
      </trkpt>
      <trkpt lat="44.15587" lon="0.72982">
        <ele>103.186193</ele>
        <time>2022-12-29T15:51:41.906Z</time>
      </trkpt>
      <trkpt lat="44.15585" lon="0.73001">
        <ele>103.077385</ele>
        <time>2022-12-29T15:51:44.906Z</time>
      </trkpt>
      <trkpt lat="44.15584" lon="0.7302">
        <ele>102.970619</ele>
        <time>2022-12-29T15:51:47.909Z</time>
      </trkpt>
      <trkpt lat="44.15583" lon="0.73033">
        <ele>102.897362</ele>
        <time>2022-12-29T15:51:49.906Z</time>
      </trkpt>
      <trkpt lat="44.15581" lon="0.73046">
        <ele>102.826065</ele>
        <time>2022-12-29T15:51:51.902Z</time>
      </trkpt>
      <trkpt lat="44.1558" lon="0.73058">
        <ele>102.755021</ele>
        <time>2022-12-29T15:51:53.907Z</time>
      </trkpt>
      <trkpt lat="44.15579" lon="0.73071">
        <ele>102.683541</ele>
        <time>2022-12-29T15:51:55.901Z</time>
      </trkpt>
      <trkpt lat="44.15578" lon="0.7309">
        <ele>102.576935</ele>
        <time>2022-12-29T15:51:58.902Z</time>
      </trkpt>
      <trkpt lat="44.15577" lon="0.73104">
        <ele>102.502499</ele>
        <time>2022-12-29T15:52:00.908Z</time>
      </trkpt>
      <trkpt lat="44.15575" lon="0.73117">
        <ele>102.42818</ele>
        <time>2022-12-29T15:52:02.910Z</time>
      </trkpt>
      <trkpt lat="44.15574" lon="0.73129">
        <ele>102.357979</ele>
        <time>2022-12-29T15:52:04.904Z</time>
      </trkpt>
      <trkpt lat="44.15572" lon="0.73142">
        <ele>102.286239</ele>
        <time>2022-12-29T15:52:06.909Z</time>
      </trkpt>
      <trkpt lat="44.1557" lon="0.73154">
        <ele>102.2152</ele>
        <time>2022-12-29T15:52:08.917Z</time>
      </trkpt>
      <trkpt lat="44.15568" lon="0.73172">
        <ele>102.114687</ele>
        <time>2022-12-29T15:52:11.913Z</time>
      </trkpt>
      <trkpt lat="44.15566" lon="0.73189">
        <ele>102.018271</ele>
        <time>2022-12-29T15:52:14.909Z</time>
      </trkpt>
      <trkpt lat="44.15564" lon="0.73202">
        <ele>101.94519</ele>
        <time>2022-12-29T15:52:16.909Z</time>
      </trkpt>
      <trkpt lat="44.15562" lon="0.73215">
        <ele>101.852826</ele>
        <time>2022-12-29T15:52:18.900Z</time>
      </trkpt>
      <trkpt lat="44.15559" lon="0.7323">
        <ele>101.637993</ele>
        <time>2022-12-29T15:52:21.913Z</time>
      </trkpt>
      <trkpt lat="44.15556" lon="0.73245">
        <ele>101.448834</ele>
        <time>2022-12-29T15:52:24.907Z</time>
      </trkpt>
      <trkpt lat="44.15553" lon="0.73261">
        <ele>101.232063</ele>
        <time>2022-12-29T15:52:27.907Z</time>
      </trkpt>
      <trkpt lat="44.15549" lon="0.73277">
        <ele>101.005774</ele>
        <time>2022-12-29T15:52:30.904Z</time>
      </trkpt>
      <trkpt lat="44.15545" lon="0.7329">
        <ele>100.822187</ele>
        <time>2022-12-29T15:52:33.907Z</time>
      </trkpt>
      <trkpt lat="44.15541" lon="0.73303">
        <ele>100.642444</ele>
        <time>2022-12-29T15:52:36.911Z</time>
      </trkpt>
      <trkpt lat="44.15537" lon="0.73315">
        <ele>100.465527</ele>
        <time>2022-12-29T15:52:39.914Z</time>
      </trkpt>
      <trkpt lat="44.15533" lon="0.73328">
        <ele>100.285784</ele>
        <time>2022-12-29T15:52:42.904Z</time>
      </trkpt>
      <trkpt lat="44.15528" lon="0.73342">
        <ele>100.083807</ele>
        <time>2022-12-29T15:52:45.912Z</time>
      </trkpt>
      <trkpt lat="44.15524" lon="0.73359">
        <ele>99.856817</ele>
        <time>2022-12-29T15:52:48.907Z</time>
      </trkpt>
      <trkpt lat="44.15519" lon="0.73375">
        <ele>99.627412</ele>
        <time>2022-12-29T15:52:51.916Z</time>
      </trkpt>
      <trkpt lat="44.15515" lon="0.7339">
        <ele>99.414465</ele>
        <time>2022-12-29T15:52:54.910Z</time>
      </trkpt>
      <trkpt lat="44.15511" lon="0.73407">
        <ele>99.184529</ele>
        <time>2022-12-29T15:52:57.913Z</time>
      </trkpt>
      <trkpt lat="44.15507" lon="0.73425">
        <ele>98.94349</ele>
        <time>2022-12-29T15:53:00.910Z</time>
      </trkpt>
      <trkpt lat="44.15503" lon="0.73437">
        <ele>98.776819</ele>
        <time>2022-12-29T15:53:02.906Z</time>
      </trkpt>
      <trkpt lat="44.155" lon="0.73449">
        <ele>98.641676</ele>
        <time>2022-12-29T15:53:04.902Z</time>
      </trkpt>
      <trkpt lat="44.15495" lon="0.73466">
        <ele>98.659873</ele>
        <time>2022-12-29T15:53:07.915Z</time>
      </trkpt>
      <trkpt lat="44.1549" lon="0.73482">
        <ele>98.677108</ele>
        <time>2022-12-29T15:53:10.911Z</time>
      </trkpt>
      <trkpt lat="44.15486" lon="0.73499">
        <ele>98.694474</ele>
        <time>2022-12-29T15:53:13.902Z</time>
      </trkpt>
      <trkpt lat="44.1548" lon="0.73516">
        <ele>98.712795</ele>
        <time>2022-12-29T15:53:16.908Z</time>
      </trkpt>
      <trkpt lat="44.15476" lon="0.73528">
        <ele>98.725504</ele>
        <time>2022-12-29T15:53:18.906Z</time>
      </trkpt>
      <trkpt lat="44.15473" lon="0.73539">
        <ele>98.737837</ele>
        <time>2022-12-29T15:53:20.915Z</time>
      </trkpt>
      <trkpt lat="44.15467" lon="0.73557">
        <ele>98.757017</ele>
        <time>2022-12-29T15:53:23.906Z</time>
      </trkpt>
      <trkpt lat="44.15464" lon="0.7357">
        <ele>98.770336</ele>
        <time>2022-12-29T15:53:25.912Z</time>
      </trkpt>
      <trkpt lat="44.1546" lon="0.73582">
        <ele>98.783587</ele>
        <time>2022-12-29T15:53:27.913Z</time>
      </trkpt>
      <trkpt lat="44.15457" lon="0.73595">
        <ele>98.796528</ele>
        <time>2022-12-29T15:53:29.908Z</time>
      </trkpt>
      <trkpt lat="44.15452" lon="0.73612">
        <ele>98.814568</ele>
        <time>2022-12-29T15:53:32.912Z</time>
      </trkpt>
      <trkpt lat="44.15449" lon="0.73624">
        <ele>98.828016</ele>
        <time>2022-12-29T15:53:34.903Z</time>
      </trkpt>
      <trkpt lat="44.15444" lon="0.73641">
        <ele>98.845899</ele>
        <time>2022-12-29T15:53:37.909Z</time>
      </trkpt>
      <trkpt lat="44.15439" lon="0.73657">
        <ele>98.862213</ele>
        <time>2022-12-29T15:53:40.906Z</time>
      </trkpt>
      <trkpt lat="44.15435" lon="0.73673">
        <ele>98.879204</ele>
        <time>2022-12-29T15:53:43.900Z</time>
      </trkpt>
      <trkpt lat="44.15431" lon="0.73689">
        <ele>98.867899</ele>
        <time>2022-12-29T15:53:46.912Z</time>
      </trkpt>
      <trkpt lat="44.15426" lon="0.73704">
        <ele>98.839284</ele>
        <time>2022-12-29T15:53:49.911Z</time>
      </trkpt>
      <trkpt lat="44.15422" lon="0.7372">
        <ele>98.808959</ele>
        <time>2022-12-29T15:53:52.901Z</time>
      </trkpt>
      <trkpt lat="44.15418" lon="0.73737">
        <ele>98.778898</ele>
        <time>2022-12-29T15:53:55.903Z</time>
      </trkpt>
      <trkpt lat="44.15413" lon="0.73753">
        <ele>98.748017</ele>
        <time>2022-12-29T15:53:58.909Z</time>
      </trkpt>
      <trkpt lat="44.1541" lon="0.73765">
        <ele>98.725745</ele>
        <time>2022-12-29T15:54:00.905Z</time>
      </trkpt>
      <trkpt lat="44.15406" lon="0.73778">
        <ele>98.702668</ele>
        <time>2022-12-29T15:54:02.911Z</time>
      </trkpt>
      <trkpt lat="44.15402" lon="0.73794">
        <ele>98.673001</ele>
        <time>2022-12-29T15:54:05.907Z</time>
      </trkpt>
      <trkpt lat="44.15398" lon="0.73806">
        <ele>98.65017</ele>
        <time>2022-12-29T15:54:07.906Z</time>
      </trkpt>
      <trkpt lat="44.15395" lon="0.73819">
        <ele>98.627088</ele>
        <time>2022-12-29T15:54:09.914Z</time>
      </trkpt>
      <trkpt lat="44.15392" lon="0.73832">
        <ele>98.60304</ele>
        <time>2022-12-29T15:54:11.910Z</time>
      </trkpt>
      <trkpt lat="44.15389" lon="0.73845">
        <ele>98.580129</ele>
        <time>2022-12-29T15:54:13.907Z</time>
      </trkpt>
      <trkpt lat="44.15385" lon="0.73857">
        <ele>98.556693</ele>
        <time>2022-12-29T15:54:15.910Z</time>
      </trkpt>
      <trkpt lat="44.15382" lon="0.73869">
        <ele>98.534099</ele>
        <time>2022-12-29T15:54:17.910Z</time>
      </trkpt>
      <trkpt lat="44.15379" lon="0.73881">
        <ele>98.512151</ele>
        <time>2022-12-29T15:54:19.902Z</time>
      </trkpt>
      <trkpt lat="44.15375" lon="0.73899">
        <ele>98.479968</ele>
        <time>2022-12-29T15:54:22.913Z</time>
      </trkpt>
      <trkpt lat="44.1537" lon="0.73916">
        <ele>98.488581</ele>
        <time>2022-12-29T15:54:25.903Z</time>
      </trkpt>
      <trkpt lat="44.15366" lon="0.73934">
        <ele>98.746293</ele>
        <time>2022-12-29T15:54:28.912Z</time>
      </trkpt>
      <trkpt lat="44.15362" lon="0.73946">
        <ele>98.92834</ele>
        <time>2022-12-29T15:54:30.904Z</time>
      </trkpt>
      <trkpt lat="44.15359" lon="0.73959">
        <ele>99.117367</ele>
        <time>2022-12-29T15:54:32.904Z</time>
      </trkpt>
      <trkpt lat="44.15355" lon="0.73971">
        <ele>99.299262</ele>
        <time>2022-12-29T15:54:34.908Z</time>
      </trkpt>
      <trkpt lat="44.15352" lon="0.73983">
        <ele>99.475209</ele>
        <time>2022-12-29T15:54:36.911Z</time>
      </trkpt>
      <trkpt lat="44.15349" lon="0.73995">
        <ele>99.662296</ele>
        <time>2022-12-29T15:54:38.911Z</time>
      </trkpt>
      <trkpt lat="44.15345" lon="0.74007">
        <ele>99.844116</ele>
        <time>2022-12-29T15:54:40.903Z</time>
      </trkpt>
      <trkpt lat="44.15342" lon="0.74019">
        <ele>100.022037</ele>
        <time>2022-12-29T15:54:42.914Z</time>
      </trkpt>
      <trkpt lat="44.15338" lon="0.74033">
        <ele>100.221179</ele>
        <time>2022-12-29T15:54:44.915Z</time>
      </trkpt>
      <trkpt lat="44.15335" lon="0.74046">
        <ele>100.414939</ele>
        <time>2022-12-29T15:54:46.912Z</time>
      </trkpt>
      <trkpt lat="44.15332" lon="0.74059">
        <ele>100.602008</ele>
        <time>2022-12-29T15:54:48.915Z</time>
      </trkpt>
      <trkpt lat="44.15329" lon="0.74072">
        <ele>100.793309</ele>
        <time>2022-12-29T15:54:50.915Z</time>
      </trkpt>
      <trkpt lat="44.15326" lon="0.74084">
        <ele>100.976493</ele>
        <time>2022-12-29T15:54:52.912Z</time>
      </trkpt>
      <trkpt lat="44.15321" lon="0.74102">
        <ele>101.242308</ele>
        <time>2022-12-29T15:54:55.913Z</time>
      </trkpt>
      <trkpt lat="44.15317" lon="0.74115">
        <ele>101.435948</ele>
        <time>2022-12-29T15:54:57.909Z</time>
      </trkpt>
      <trkpt lat="44.15314" lon="0.74128">
        <ele>101.620398</ele>
        <time>2022-12-29T15:54:59.913Z</time>
      </trkpt>
      <trkpt lat="44.15311" lon="0.74141">
        <ele>101.808781</ele>
        <time>2022-12-29T15:55:01.916Z</time>
      </trkpt>
      <trkpt lat="44.15307" lon="0.74154">
        <ele>101.964904</ele>
        <time>2022-12-29T15:55:03.908Z</time>
      </trkpt>
      <trkpt lat="44.15304" lon="0.74166">
        <ele>102.029699</ele>
        <time>2022-12-29T15:55:05.913Z</time>
      </trkpt>
      <trkpt lat="44.153" lon="0.74179">
        <ele>102.0962</ele>
        <time>2022-12-29T15:55:07.911Z</time>
      </trkpt>
      <trkpt lat="44.15297" lon="0.74191">
        <ele>102.162705</ele>
        <time>2022-12-29T15:55:09.911Z</time>
      </trkpt>
      <trkpt lat="44.15293" lon="0.74208">
        <ele>102.250686</ele>
        <time>2022-12-29T15:55:12.913Z</time>
      </trkpt>
      <trkpt lat="44.15288" lon="0.74225">
        <ele>102.344542</ele>
        <time>2022-12-29T15:55:15.913Z</time>
      </trkpt>
      <trkpt lat="44.15286" lon="0.74238">
        <ele>102.408926</ele>
        <time>2022-12-29T15:55:17.919Z</time>
      </trkpt>
      <trkpt lat="44.15282" lon="0.74254">
        <ele>102.494528</ele>
        <time>2022-12-29T15:55:20.914Z</time>
      </trkpt>
      <trkpt lat="44.15279" lon="0.74268">
        <ele>102.566185</ele>
        <time>2022-12-29T15:55:23.907Z</time>
      </trkpt>
      <trkpt lat="44.15277" lon="0.74282">
        <ele>102.638294</ele>
        <time>2022-12-29T15:55:27.911Z</time>
      </trkpt>
      <trkpt lat="44.15275" lon="0.74296">
        <ele>102.70992</ele>
        <time>2022-12-29T15:55:31.905Z</time>
      </trkpt>
      <trkpt lat="44.15271" lon="0.74311">
        <ele>102.793151</ele>
        <time>2022-12-29T15:55:35.909Z</time>
      </trkpt>
      <trkpt lat="44.15266" lon="0.74325">
        <ele>102.867423</ele>
        <time>2022-12-29T15:55:39.907Z</time>
      </trkpt>
      <trkpt lat="44.15262" lon="0.74339">
        <ele>102.943125</ele>
        <time>2022-12-29T15:55:43.903Z</time>
      </trkpt>
      <trkpt lat="44.15258" lon="0.74353">
        <ele>103.019977</ele>
        <time>2022-12-29T15:55:46.903Z</time>
      </trkpt>
      <trkpt lat="44.15254" lon="0.74365">
        <ele>103.087621</ele>
        <time>2022-12-29T15:55:48.905Z</time>
      </trkpt>
      <trkpt lat="44.15249" lon="0.74379">
        <ele>103.165352</ele>
        <time>2022-12-29T15:55:50.902Z</time>
      </trkpt>
      <trkpt lat="44.15243" lon="0.74394">
        <ele>103.10933</ele>
        <time>2022-12-29T15:55:52.904Z</time>
      </trkpt>
      <trkpt lat="44.15237" lon="0.74409">
        <ele>102.988458</ele>
        <time>2022-12-29T15:55:54.906Z</time>
      </trkpt>
      <trkpt lat="44.15232" lon="0.74423">
        <ele>102.870513</ele>
        <time>2022-12-29T15:55:56.913Z</time>
      </trkpt>
      <trkpt lat="44.15226" lon="0.74438">
        <ele>102.753671</ele>
        <time>2022-12-29T15:55:58.904Z</time>
      </trkpt>
      <trkpt lat="44.15222" lon="0.74451">
        <ele>102.644248</ele>
        <time>2022-12-29T15:56:00.908Z</time>
      </trkpt>
      <trkpt lat="44.15217" lon="0.74466">
        <ele>102.533019</ele>
        <time>2022-12-29T15:56:02.910Z</time>
      </trkpt>
      <trkpt lat="44.15213" lon="0.7448">
        <ele>102.42245</ele>
        <time>2022-12-29T15:56:04.908Z</time>
      </trkpt>
      <trkpt lat="44.15208" lon="0.74493">
        <ele>102.314104</ele>
        <time>2022-12-29T15:56:06.915Z</time>
      </trkpt>
      <trkpt lat="44.15204" lon="0.74507">
        <ele>102.208951</ele>
        <time>2022-12-29T15:56:08.913Z</time>
      </trkpt>
      <trkpt lat="44.152" lon="0.74519">
        <ele>102.110559</ele>
        <time>2022-12-29T15:56:10.906Z</time>
      </trkpt>
      <trkpt lat="44.15195" lon="0.74535">
        <ele>101.982145</ele>
        <time>2022-12-29T15:56:13.906Z</time>
      </trkpt>
      <trkpt lat="44.15191" lon="0.74547">
        <ele>101.890856</ele>
        <time>2022-12-29T15:56:15.908Z</time>
      </trkpt>
      <trkpt lat="44.15186" lon="0.74564">
        <ele>101.758735</ele>
        <time>2022-12-29T15:56:18.917Z</time>
      </trkpt>
      <trkpt lat="44.15182" lon="0.74575">
        <ele>101.668103</ele>
        <time>2022-12-29T15:56:20.907Z</time>
      </trkpt>
      <trkpt lat="44.15177" lon="0.74592">
        <ele>101.53441</ele>
        <time>2022-12-29T15:56:23.906Z</time>
      </trkpt>
      <trkpt lat="44.15172" lon="0.74609">
        <ele>101.403497</ele>
        <time>2022-12-29T15:56:26.907Z</time>
      </trkpt>
      <trkpt lat="44.15168" lon="0.74621">
        <ele>101.449275</ele>
        <time>2022-12-29T15:56:28.911Z</time>
      </trkpt>
      <trkpt lat="44.15164" lon="0.74634">
        <ele>101.525177</ele>
        <time>2022-12-29T15:56:30.911Z</time>
      </trkpt>
      <trkpt lat="44.15161" lon="0.74646">
        <ele>101.593659</ele>
        <time>2022-12-29T15:56:32.903Z</time>
      </trkpt>
      <trkpt lat="44.15155" lon="0.74662">
        <ele>101.68841</ele>
        <time>2022-12-29T15:56:35.907Z</time>
      </trkpt>
      <trkpt lat="44.1515" lon="0.74678">
        <ele>101.782672</ele>
        <time>2022-12-29T15:56:38.911Z</time>
      </trkpt>
      <trkpt lat="44.15146" lon="0.74694">
        <ele>101.871951</ele>
        <time>2022-12-29T15:56:41.911Z</time>
      </trkpt>
      <trkpt lat="44.15141" lon="0.74711">
        <ele>101.969578</ele>
        <time>2022-12-29T15:56:44.912Z</time>
      </trkpt>
      <trkpt lat="44.15135" lon="0.74728">
        <ele>102.070742</ele>
        <time>2022-12-29T15:56:47.908Z</time>
      </trkpt>
      <trkpt lat="44.15132" lon="0.7474">
        <ele>102.141891</ele>
        <time>2022-12-29T15:56:49.904Z</time>
      </trkpt>
      <trkpt lat="44.15128" lon="0.74752">
        <ele>102.211475</ele>
        <time>2022-12-29T15:56:51.909Z</time>
      </trkpt>
      <trkpt lat="44.15124" lon="0.74764">
        <ele>102.283631</ele>
        <time>2022-12-29T15:56:53.914Z</time>
      </trkpt>
      <trkpt lat="44.15118" lon="0.74781">
        <ele>102.383332</ele>
        <time>2022-12-29T15:56:56.911Z</time>
      </trkpt>
      <trkpt lat="44.15114" lon="0.74792">
        <ele>102.451144</ele>
        <time>2022-12-29T15:56:58.908Z</time>
      </trkpt>
      <trkpt lat="44.15109" lon="0.74809">
        <ele>102.547224</ele>
        <time>2022-12-29T15:57:01.914Z</time>
      </trkpt>
      <trkpt lat="44.15104" lon="0.74827">
        <ele>102.652997</ele>
        <time>2022-12-29T15:57:04.909Z</time>
      </trkpt>
      <trkpt lat="44.151" lon="0.74839">
        <ele>102.725176</ele>
        <time>2022-12-29T15:57:06.908Z</time>
      </trkpt>
      <trkpt lat="44.15096" lon="0.74852">
        <ele>102.667902</ele>
        <time>2022-12-29T15:57:08.906Z</time>
      </trkpt>
      <trkpt lat="44.15091" lon="0.74865">
        <ele>102.589902</ele>
        <time>2022-12-29T15:57:10.911Z</time>
      </trkpt>
      <trkpt lat="44.15087" lon="0.74878">
        <ele>102.514249</ele>
        <time>2022-12-29T15:57:12.913Z</time>
      </trkpt>
      <trkpt lat="44.15084" lon="0.74891">
        <ele>102.439422</ele>
        <time>2022-12-29T15:57:14.907Z</time>
      </trkpt>
      <trkpt lat="44.15082" lon="0.74904">
        <ele>102.371024</ele>
        <time>2022-12-29T15:57:16.910Z</time>
      </trkpt>
      <trkpt lat="44.15078" lon="0.74921">
        <ele>102.272474</ele>
        <time>2022-12-29T15:57:19.915Z</time>
      </trkpt>
      <trkpt lat="44.15073" lon="0.74938">
        <ele>102.175559</ele>
        <time>2022-12-29T15:57:22.906Z</time>
      </trkpt>
      <trkpt lat="44.1507" lon="0.74955">
        <ele>102.080288</ele>
        <time>2022-12-29T15:57:25.911Z</time>
      </trkpt>
      <trkpt lat="44.15066" lon="0.74972">
        <ele>101.99011</ele>
        <time>2022-12-29T15:57:28.914Z</time>
      </trkpt>
      <trkpt lat="44.15064" lon="0.74986">
        <ele>101.911576</ele>
        <time>2022-12-29T15:57:31.907Z</time>
      </trkpt>
      <trkpt lat="44.15061" lon="0.75001">
        <ele>101.829847</ele>
        <time>2022-12-29T15:57:34.912Z</time>
      </trkpt>
      <trkpt lat="44.15058" lon="0.75017">
        <ele>101.738535</ele>
        <time>2022-12-29T15:57:37.910Z</time>
      </trkpt>
      <trkpt lat="44.15054" lon="0.75035">
        <ele>101.638026</ele>
        <time>2022-12-29T15:57:40.912Z</time>
      </trkpt>
      <trkpt lat="44.1505" lon="0.75054">
        <ele>101.537837</ele>
        <time>2022-12-29T15:57:43.908Z</time>
      </trkpt>
      <trkpt lat="44.15047" lon="0.75071">
        <ele>101.444453</ele>
        <time>2022-12-29T15:57:46.911Z</time>
      </trkpt>
      <trkpt lat="44.15045" lon="0.75086">
        <ele>101.322184</ele>
        <time>2022-12-29T15:57:49.902Z</time>
      </trkpt>
      <trkpt lat="44.15043" lon="0.751">
        <ele>101.159805</ele>
        <time>2022-12-29T15:57:52.912Z</time>
      </trkpt>
      <trkpt lat="44.1504" lon="0.75117">
        <ele>100.963635</ele>
        <time>2022-12-29T15:57:55.911Z</time>
      </trkpt>
      <trkpt lat="44.15037" lon="0.75135">
        <ele>100.765647</ele>
        <time>2022-12-29T15:57:58.912Z</time>
      </trkpt>
      <trkpt lat="44.15035" lon="0.75153">
        <ele>100.560996</ele>
        <time>2022-12-29T15:58:01.908Z</time>
      </trkpt>
      <trkpt lat="44.15032" lon="0.75166">
        <ele>100.406576</ele>
        <time>2022-12-29T15:58:03.903Z</time>
      </trkpt>
      <trkpt lat="44.1503" lon="0.7518">
        <ele>100.25212</ele>
        <time>2022-12-29T15:58:05.924Z</time>
      </trkpt>
      <trkpt lat="44.15028" lon="0.75194">
        <ele>100.098286</ele>
        <time>2022-12-29T15:58:07.904Z</time>
      </trkpt>
      <trkpt lat="44.15026" lon="0.75207">
        <ele>99.946001</ele>
        <time>2022-12-29T15:58:09.914Z</time>
      </trkpt>
      <trkpt lat="44.15024" lon="0.7522">
        <ele>99.798194</ele>
        <time>2022-12-29T15:58:11.914Z</time>
      </trkpt>
      <trkpt lat="44.15022" lon="0.75234">
        <ele>99.639814</ele>
        <time>2022-12-29T15:58:13.911Z</time>
      </trkpt>
      <trkpt lat="44.1502" lon="0.75248">
        <ele>99.478186</ele>
        <time>2022-12-29T15:58:15.902Z</time>
      </trkpt>
      <trkpt lat="44.15017" lon="0.75261">
        <ele>99.33559</ele>
        <time>2022-12-29T15:58:17.905Z</time>
      </trkpt>
      <trkpt lat="44.15014" lon="0.75278">
        <ele>99.13938</ele>
        <time>2022-12-29T15:58:20.911Z</time>
      </trkpt>
      <trkpt lat="44.15011" lon="0.75294">
        <ele>98.946642</ele>
        <time>2022-12-29T15:58:23.928Z</time>
      </trkpt>
      <trkpt lat="44.15008" lon="0.75311">
        <ele>98.764069</ele>
        <time>2022-12-29T15:58:26.912Z</time>
      </trkpt>
      <trkpt lat="44.15006" lon="0.75327">
        <ele>98.622991</ele>
        <time>2022-12-29T15:58:29.906Z</time>
      </trkpt>
      <trkpt lat="44.15003" lon="0.75342">
        <ele>98.682447</ele>
        <time>2022-12-29T15:58:32.909Z</time>
      </trkpt>
      <trkpt lat="44.15001" lon="0.75357">
        <ele>98.7364</ele>
        <time>2022-12-29T15:58:35.904Z</time>
      </trkpt>
      <trkpt lat="44.14998" lon="0.75371">
        <ele>98.789975</ele>
        <time>2022-12-29T15:58:38.908Z</time>
      </trkpt>
      <trkpt lat="44.14995" lon="0.75385">
        <ele>98.845</ele>
        <time>2022-12-29T15:58:41.905Z</time>
      </trkpt>
      <trkpt lat="44.14992" lon="0.75401">
        <ele>98.905781</ele>
        <time>2022-12-29T15:58:44.909Z</time>
      </trkpt>
      <trkpt lat="44.14988" lon="0.75417">
        <ele>98.970856</ele>
        <time>2022-12-29T15:58:47.912Z</time>
      </trkpt>
      <trkpt lat="44.14983" lon="0.75435">
        <ele>99.038545</ele>
        <time>2022-12-29T15:58:50.914Z</time>
      </trkpt>
      <trkpt lat="44.14979" lon="0.75452">
        <ele>99.105359</ele>
        <time>2022-12-29T15:58:53.908Z</time>
      </trkpt>
      <trkpt lat="44.14976" lon="0.75465">
        <ele>99.156862</ele>
        <time>2022-12-29T15:58:56.913Z</time>
      </trkpt>
      <trkpt lat="44.14972" lon="0.75477">
        <ele>99.205929</ele>
        <time>2022-12-29T15:58:59.912Z</time>
      </trkpt>
      <trkpt lat="44.14969" lon="0.75489">
        <ele>99.253971</ele>
        <time>2022-12-29T15:59:02.914Z</time>
      </trkpt>
      <trkpt lat="44.14965" lon="0.75501">
        <ele>99.30192</ele>
        <time>2022-12-29T15:59:05.911Z</time>
      </trkpt>
      <trkpt lat="44.14961" lon="0.75515">
        <ele>99.357075</ele>
        <time>2022-12-29T15:59:08.907Z</time>
      </trkpt>
      <trkpt lat="44.14956" lon="0.75529">
        <ele>99.416331</ele>
        <time>2022-12-29T15:59:12.905Z</time>
      </trkpt>
      <trkpt lat="44.14952" lon="0.75541">
        <ele>99.465135</ele>
        <time>2022-12-29T15:59:15.903Z</time>
      </trkpt>
      <trkpt lat="44.14949" lon="0.75553">
        <ele>99.512139</ele>
        <time>2022-12-29T15:59:18.906Z</time>
      </trkpt>
      <trkpt lat="44.14946" lon="0.75567">
        <ele>99.629064</ele>
        <time>2022-12-29T15:59:21.915Z</time>
      </trkpt>
      <trkpt lat="44.14943" lon="0.75579">
        <ele>99.810995</ele>
        <time>2022-12-29T15:59:24.911Z</time>
      </trkpt>
      <trkpt lat="44.14939" lon="0.75591">
        <ele>99.98298</ele>
        <time>2022-12-29T15:59:27.905Z</time>
      </trkpt>
      <trkpt lat="44.14934" lon="0.75604">
        <ele>100.175485</ele>
        <time>2022-12-29T15:59:31.914Z</time>
      </trkpt>
      <trkpt lat="44.14931" lon="0.75617">
        <ele>100.356015</ele>
        <time>2022-12-29T15:59:34.907Z</time>
      </trkpt>
      <trkpt lat="44.14929" lon="0.7563">
        <ele>100.536693</ele>
        <time>2022-12-29T15:59:37.915Z</time>
      </trkpt>
      <trkpt lat="44.14927" lon="0.75644">
        <ele>100.725597</ele>
        <time>2022-12-29T15:59:41.914Z</time>
      </trkpt>
      <trkpt lat="44.14922" lon="0.75655">
        <ele>100.903383</ele>
        <time>2022-12-29T15:59:59.917Z</time>
      </trkpt>
      <trkpt lat="44.14912" lon="0.75653">
        <ele>101.085518</ele>
        <time>2022-12-29T16:00:11.905Z</time>
      </trkpt>
      <trkpt lat="44.14902" lon="0.7565">
        <ele>101.286961</ele>
        <time>2022-12-29T16:00:19.914Z</time>
      </trkpt>
      <trkpt lat="44.14892" lon="0.7566">
        <ele>101.510876</ele>
        <time>2022-12-29T16:00:23.912Z</time>
      </trkpt>
      <trkpt lat="44.14889" lon="0.75682">
        <ele>101.811223</ele>
        <time>2022-12-29T16:00:26.915Z</time>
      </trkpt>
      <trkpt lat="44.14885" lon="0.75694">
        <ele>101.985436</ele>
        <time>2022-12-29T16:00:28.909Z</time>
      </trkpt>
      <trkpt lat="44.14881" lon="0.75711">
        <ele>102.223836</ele>
        <time>2022-12-29T16:00:31.911Z</time>
      </trkpt>
      <trkpt lat="44.14877" lon="0.75726">
        <ele>102.440188</ele>
        <time>2022-12-29T16:00:34.909Z</time>
      </trkpt>
      <trkpt lat="44.14873" lon="0.75742">
        <ele>102.662848</ele>
        <time>2022-12-29T16:00:37.918Z</time>
      </trkpt>
      <trkpt lat="44.14869" lon="0.75758">
        <ele>102.882893</ele>
        <time>2022-12-29T16:00:40.914Z</time>
      </trkpt>
      <trkpt lat="44.14864" lon="0.75776">
        <ele>102.745309</ele>
        <time>2022-12-29T16:00:43.911Z</time>
      </trkpt>
      <trkpt lat="44.1486" lon="0.75789">
        <ele>102.643276</ele>
        <time>2022-12-29T16:00:45.911Z</time>
      </trkpt>
      <trkpt lat="44.14856" lon="0.75802">
        <ele>102.539867</ele>
        <time>2022-12-29T16:00:47.910Z</time>
      </trkpt>
      <trkpt lat="44.14852" lon="0.75814">
        <ele>102.440389</ele>
        <time>2022-12-29T16:00:49.909Z</time>
      </trkpt>
      <trkpt lat="44.14849" lon="0.75827">
        <ele>102.34655</ele>
        <time>2022-12-29T16:00:51.914Z</time>
      </trkpt>
      <trkpt lat="44.14846" lon="0.75839">
        <ele>102.251597</ele>
        <time>2022-12-29T16:00:53.907Z</time>
      </trkpt>
      <trkpt lat="44.14842" lon="0.75857">
        <ele>102.116457</ele>
        <time>2022-12-29T16:00:56.912Z</time>
      </trkpt>
      <trkpt lat="44.14838" lon="0.7587">
        <ele>102.016832</ele>
        <time>2022-12-29T16:00:58.906Z</time>
      </trkpt>
      <trkpt lat="44.14835" lon="0.75882">
        <ele>101.918914</ele>
        <time>2022-12-29T16:01:00.904Z</time>
      </trkpt>
      <trkpt lat="44.14831" lon="0.75896">
        <ele>101.812467</ele>
        <time>2022-12-29T16:01:02.909Z</time>
      </trkpt>
      <trkpt lat="44.14827" lon="0.75909">
        <ele>101.713247</ele>
        <time>2022-12-29T16:01:04.905Z</time>
      </trkpt>
      <trkpt lat="44.14823" lon="0.75923">
        <ele>101.604737</ele>
        <time>2022-12-29T16:01:06.908Z</time>
      </trkpt>
      <trkpt lat="44.1482" lon="0.75936">
        <ele>101.497582</ele>
        <time>2022-12-29T16:01:08.908Z</time>
      </trkpt>
      <trkpt lat="44.14816" lon="0.7595">
        <ele>101.39178</ele>
        <time>2022-12-29T16:01:10.902Z</time>
      </trkpt>
      <trkpt lat="44.14813" lon="0.75964">
        <ele>101.285264</ele>
        <time>2022-12-29T16:01:12.903Z</time>
      </trkpt>
      <trkpt lat="44.14809" lon="0.75978">
        <ele>101.17984</ele>
        <time>2022-12-29T16:01:14.907Z</time>
      </trkpt>
      <trkpt lat="44.14805" lon="0.75992">
        <ele>101.07125</ele>
        <time>2022-12-29T16:01:16.904Z</time>
      </trkpt>
      <trkpt lat="44.14802" lon="0.76005">
        <ele>101.057465</ele>
        <time>2022-12-29T16:01:18.912Z</time>
      </trkpt>
      <trkpt lat="44.14799" lon="0.76018">
        <ele>101.04396</ele>
        <time>2022-12-29T16:01:20.908Z</time>
      </trkpt>
      <trkpt lat="44.14795" lon="0.76033">
        <ele>101.028975</ele>
        <time>2022-12-29T16:01:22.905Z</time>
      </trkpt>
      <trkpt lat="44.14792" lon="0.76046">
        <ele>101.014732</ele>
        <time>2022-12-29T16:01:24.908Z</time>
      </trkpt>
      <trkpt lat="44.14788" lon="0.7606">
        <ele>100.999978</ele>
        <time>2022-12-29T16:01:26.908Z</time>
      </trkpt>
      <trkpt lat="44.14785" lon="0.76075">
        <ele>100.985211</ele>
        <time>2022-12-29T16:01:28.912Z</time>
      </trkpt>
      <trkpt lat="44.14781" lon="0.76088">
        <ele>100.970548</ele>
        <time>2022-12-29T16:01:30.909Z</time>
      </trkpt>
      <trkpt lat="44.14778" lon="0.76102">
        <ele>100.956527</ele>
        <time>2022-12-29T16:01:32.912Z</time>
      </trkpt>
      <trkpt lat="44.14774" lon="0.76116">
        <ele>100.94177</ele>
        <time>2022-12-29T16:01:34.907Z</time>
      </trkpt>
      <trkpt lat="44.14771" lon="0.7613">
        <ele>100.926962</ele>
        <time>2022-12-29T16:01:36.913Z</time>
      </trkpt>
      <trkpt lat="44.14768" lon="0.76145">
        <ele>100.911966</ele>
        <time>2022-12-29T16:01:38.907Z</time>
      </trkpt>
      <trkpt lat="44.14764" lon="0.76159">
        <ele>100.897161</ele>
        <time>2022-12-29T16:01:40.909Z</time>
      </trkpt>
      <trkpt lat="44.1476" lon="0.76173">
        <ele>100.881797</ele>
        <time>2022-12-29T16:01:42.909Z</time>
      </trkpt>
      <trkpt lat="44.14756" lon="0.76187">
        <ele>100.867226</ele>
        <time>2022-12-29T16:01:44.911Z</time>
      </trkpt>
      <trkpt lat="44.14752" lon="0.76201">
        <ele>100.85223</ele>
        <time>2022-12-29T16:01:46.910Z</time>
      </trkpt>
      <trkpt lat="44.14749" lon="0.76216">
        <ele>100.837379</ele>
        <time>2022-12-29T16:01:48.907Z</time>
      </trkpt>
      <trkpt lat="44.14746" lon="0.7623">
        <ele>100.825268</ele>
        <time>2022-12-29T16:01:50.904Z</time>
      </trkpt>
      <trkpt lat="44.14742" lon="0.76243">
        <ele>100.831017</ele>
        <time>2022-12-29T16:01:52.904Z</time>
      </trkpt>
      <trkpt lat="44.14739" lon="0.76255">
        <ele>100.836685</ele>
        <time>2022-12-29T16:01:54.904Z</time>
      </trkpt>
      <trkpt lat="44.14736" lon="0.76267">
        <ele>100.842091</ele>
        <time>2022-12-29T16:01:56.912Z</time>
      </trkpt>
      <trkpt lat="44.14732" lon="0.76279">
        <ele>100.847807</ele>
        <time>2022-12-29T16:01:58.909Z</time>
      </trkpt>
      <trkpt lat="44.14729" lon="0.76292">
        <ele>100.853657</ele>
        <time>2022-12-29T16:02:00.909Z</time>
      </trkpt>
      <trkpt lat="44.14726" lon="0.76305">
        <ele>100.859669</ele>
        <time>2022-12-29T16:02:02.913Z</time>
      </trkpt>
      <trkpt lat="44.14721" lon="0.76324">
        <ele>100.867959</ele>
        <time>2022-12-29T16:02:05.908Z</time>
      </trkpt>
      <trkpt lat="44.14717" lon="0.76337">
        <ele>100.874294</ele>
        <time>2022-12-29T16:02:07.905Z</time>
      </trkpt>
      <trkpt lat="44.14715" lon="0.76351">
        <ele>100.880466</ele>
        <time>2022-12-29T16:02:09.912Z</time>
      </trkpt>
      <trkpt lat="44.14712" lon="0.76365">
        <ele>100.886423</ele>
        <time>2022-12-29T16:02:11.906Z</time>
      </trkpt>
      <trkpt lat="44.14708" lon="0.76378">
        <ele>100.89282</ele>
        <time>2022-12-29T16:02:13.904Z</time>
      </trkpt>
      <trkpt lat="44.14704" lon="0.76392">
        <ele>100.899053</ele>
        <time>2022-12-29T16:02:15.911Z</time>
      </trkpt>
      <trkpt lat="44.14701" lon="0.76406">
        <ele>100.90541</ele>
        <time>2022-12-29T16:02:17.904Z</time>
      </trkpt>
      <trkpt lat="44.14697" lon="0.7642">
        <ele>100.911585</ele>
        <time>2022-12-29T16:02:19.906Z</time>
      </trkpt>
      <trkpt lat="44.14694" lon="0.76433">
        <ele>100.917757</ele>
        <time>2022-12-29T16:02:21.908Z</time>
      </trkpt>
      <trkpt lat="44.1469" lon="0.76448">
        <ele>100.924314</ele>
        <time>2022-12-29T16:02:23.907Z</time>
      </trkpt>
      <trkpt lat="44.14687" lon="0.76461">
        <ele>100.930508</ele>
        <time>2022-12-29T16:02:25.911Z</time>
      </trkpt>
      <trkpt lat="44.14684" lon="0.76475">
        <ele>100.927067</ele>
        <time>2022-12-29T16:02:27.909Z</time>
      </trkpt>
      <trkpt lat="44.1468" lon="0.76488">
        <ele>100.920673</ele>
        <time>2022-12-29T16:02:29.908Z</time>
      </trkpt>
      <trkpt lat="44.14676" lon="0.76502">
        <ele>100.914088</ele>
        <time>2022-12-29T16:02:31.916Z</time>
      </trkpt>
      <trkpt lat="44.14673" lon="0.76515">
        <ele>100.907696</ele>
        <time>2022-12-29T16:02:33.903Z</time>
      </trkpt>
      <trkpt lat="44.14669" lon="0.76529">
        <ele>100.901129</ele>
        <time>2022-12-29T16:02:35.910Z</time>
      </trkpt>
      <trkpt lat="44.14666" lon="0.76543">
        <ele>100.894327</ele>
        <time>2022-12-29T16:02:37.916Z</time>
      </trkpt>
      <trkpt lat="44.14662" lon="0.76557">
        <ele>100.88787</ele>
        <time>2022-12-29T16:02:39.913Z</time>
      </trkpt>
      <trkpt lat="44.14658" lon="0.7657">
        <ele>100.88164</ele>
        <time>2022-12-29T16:02:41.908Z</time>
      </trkpt>
      <trkpt lat="44.14655" lon="0.76583">
        <ele>100.875206</ele>
        <time>2022-12-29T16:02:43.914Z</time>
      </trkpt>
      <trkpt lat="44.14652" lon="0.76597">
        <ele>100.868877</ele>
        <time>2022-12-29T16:02:45.915Z</time>
      </trkpt>
      <trkpt lat="44.14648" lon="0.7661">
        <ele>100.862464</ele>
        <time>2022-12-29T16:02:47.911Z</time>
      </trkpt>
      <trkpt lat="44.14645" lon="0.76623">
        <ele>100.856366</ele>
        <time>2022-12-29T16:02:49.910Z</time>
      </trkpt>
      <trkpt lat="44.14642" lon="0.76636">
        <ele>100.85035</ele>
        <time>2022-12-29T16:02:51.912Z</time>
      </trkpt>
      <trkpt lat="44.14639" lon="0.76649">
        <ele>100.844206</ele>
        <time>2022-12-29T16:02:53.913Z</time>
      </trkpt>
      <trkpt lat="44.14636" lon="0.76661">
        <ele>100.838529</ele>
        <time>2022-12-29T16:02:55.911Z</time>
      </trkpt>
      <trkpt lat="44.14633" lon="0.76674">
        <ele>100.832646</ele>
        <time>2022-12-29T16:02:57.910Z</time>
      </trkpt>
      <trkpt lat="44.1463" lon="0.76687">
        <ele>100.826169</ele>
        <time>2022-12-29T16:02:59.915Z</time>
      </trkpt>
      <trkpt lat="44.14626" lon="0.76701">
        <ele>100.819635</ele>
        <time>2022-12-29T16:03:01.912Z</time>
      </trkpt>
      <trkpt lat="44.14622" lon="0.76714">
        <ele>100.788833</ele>
        <time>2022-12-29T16:03:03.916Z</time>
      </trkpt>
      <trkpt lat="44.14619" lon="0.76727">
        <ele>100.759655</ele>
        <time>2022-12-29T16:03:05.908Z</time>
      </trkpt>
      <trkpt lat="44.14616" lon="0.7674">
        <ele>100.729464</ele>
        <time>2022-12-29T16:03:07.913Z</time>
      </trkpt>
      <trkpt lat="44.14612" lon="0.76754">
        <ele>100.698264</ele>
        <time>2022-12-29T16:03:09.913Z</time>
      </trkpt>
      <trkpt lat="44.14609" lon="0.76768">
        <ele>100.666673</ele>
        <time>2022-12-29T16:03:11.919Z</time>
      </trkpt>
      <trkpt lat="44.14605" lon="0.76782">
        <ele>100.634061</ele>
        <time>2022-12-29T16:03:13.906Z</time>
      </trkpt>
      <trkpt lat="44.14601" lon="0.76796">
        <ele>100.602559</ele>
        <time>2022-12-29T16:03:15.910Z</time>
      </trkpt>
      <trkpt lat="44.14598" lon="0.76809">
        <ele>100.57357</ele>
        <time>2022-12-29T16:03:17.919Z</time>
      </trkpt>
      <trkpt lat="44.14594" lon="0.76823">
        <ele>100.541066</ele>
        <time>2022-12-29T16:03:19.907Z</time>
      </trkpt>
      <trkpt lat="44.14591" lon="0.76837">
        <ele>100.509667</ele>
        <time>2022-12-29T16:03:21.906Z</time>
      </trkpt>
      <trkpt lat="44.14587" lon="0.76851">
        <ele>100.478173</ele>
        <time>2022-12-29T16:03:23.914Z</time>
      </trkpt>
      <trkpt lat="44.14583" lon="0.76865">
        <ele>100.44618</ele>
        <time>2022-12-29T16:03:25.915Z</time>
      </trkpt>
      <trkpt lat="44.1458" lon="0.76879">
        <ele>100.41488</ele>
        <time>2022-12-29T16:03:27.914Z</time>
      </trkpt>
      <trkpt lat="44.14577" lon="0.76892">
        <ele>100.384189</ele>
        <time>2022-12-29T16:03:29.910Z</time>
      </trkpt>
      <trkpt lat="44.14573" lon="0.76906">
        <ele>100.3532</ele>
        <time>2022-12-29T16:03:31.915Z</time>
      </trkpt>
      <trkpt lat="44.14569" lon="0.76921">
        <ele>100.319791</ele>
        <time>2022-12-29T16:03:33.907Z</time>
      </trkpt>
      <trkpt lat="44.14566" lon="0.76934">
        <ele>100.288904</ele>
        <time>2022-12-29T16:03:35.912Z</time>
      </trkpt>
      <trkpt lat="44.14563" lon="0.76947">
        <ele>100.319618</ele>
        <time>2022-12-29T16:03:37.913Z</time>
      </trkpt>
      <trkpt lat="44.1456" lon="0.76959">
        <ele>100.36002</ele>
        <time>2022-12-29T16:03:39.911Z</time>
      </trkpt>
      <trkpt lat="44.14557" lon="0.76971">
        <ele>100.401935</ele>
        <time>2022-12-29T16:03:41.908Z</time>
      </trkpt>
      <trkpt lat="44.14554" lon="0.76983">
        <ele>100.442776</ele>
        <time>2022-12-29T16:03:43.906Z</time>
      </trkpt>
      <trkpt lat="44.1455" lon="0.76995">
        <ele>100.485003</ele>
        <time>2022-12-29T16:03:45.913Z</time>
      </trkpt>
      <trkpt lat="44.14547" lon="0.77008">
        <ele>100.529025</ele>
        <time>2022-12-29T16:03:47.910Z</time>
      </trkpt>
      <trkpt lat="44.14544" lon="0.77022">
        <ele>100.576859</ele>
        <time>2022-12-29T16:03:49.913Z</time>
      </trkpt>
      <trkpt lat="44.1454" lon="0.77036">
        <ele>100.624205</ele>
        <time>2022-12-29T16:03:51.915Z</time>
      </trkpt>
      <trkpt lat="44.14537" lon="0.7705">
        <ele>100.671259</ele>
        <time>2022-12-29T16:03:53.917Z</time>
      </trkpt>
      <trkpt lat="44.14533" lon="0.77064">
        <ele>100.719824</ele>
        <time>2022-12-29T16:03:55.915Z</time>
      </trkpt>
      <trkpt lat="44.14529" lon="0.77079">
        <ele>100.769591</ele>
        <time>2022-12-29T16:03:57.904Z</time>
      </trkpt>
      <trkpt lat="44.14525" lon="0.77092">
        <ele>100.815576</ele>
        <time>2022-12-29T16:03:59.909Z</time>
      </trkpt>
      <trkpt lat="44.14522" lon="0.77105">
        <ele>100.859746</ele>
        <time>2022-12-29T16:04:01.906Z</time>
      </trkpt>
      <trkpt lat="44.14518" lon="0.77122">
        <ele>100.917373</ele>
        <time>2022-12-29T16:04:04.912Z</time>
      </trkpt>
      <trkpt lat="44.14514" lon="0.77134">
        <ele>100.960026</ele>
        <time>2022-12-29T16:04:06.916Z</time>
      </trkpt>
      <trkpt lat="44.14511" lon="0.77147">
        <ele>101.002227</ele>
        <time>2022-12-29T16:04:08.914Z</time>
      </trkpt>
      <trkpt lat="44.14508" lon="0.7716">
        <ele>101.047906</ele>
        <time>2022-12-29T16:04:10.904Z</time>
      </trkpt>
      <trkpt lat="44.14505" lon="0.77173">
        <ele>101.091727</ele>
        <time>2022-12-29T16:04:12.915Z</time>
      </trkpt>
      <trkpt lat="44.14502" lon="0.77186">
        <ele>101.132416</ele>
        <time>2022-12-29T16:04:14.911Z</time>
      </trkpt>
      <trkpt lat="44.14499" lon="0.77199">
        <ele>101.172678</ele>
        <time>2022-12-29T16:04:16.909Z</time>
      </trkpt>
      <trkpt lat="44.14495" lon="0.77212">
        <ele>101.212388</ele>
        <time>2022-12-29T16:04:18.904Z</time>
      </trkpt>
      <trkpt lat="44.14492" lon="0.77224">
        <ele>101.251304</ele>
        <time>2022-12-29T16:04:20.910Z</time>
      </trkpt>
      <trkpt lat="44.14489" lon="0.77237">
        <ele>101.289639</ele>
        <time>2022-12-29T16:04:22.917Z</time>
      </trkpt>
      <trkpt lat="44.14484" lon="0.77255">
        <ele>101.344406</ele>
        <time>2022-12-29T16:04:25.918Z</time>
      </trkpt>
      <trkpt lat="44.14482" lon="0.77267">
        <ele>101.383328</ele>
        <time>2022-12-29T16:04:27.915Z</time>
      </trkpt>
      <trkpt lat="44.14478" lon="0.7728">
        <ele>101.424877</ele>
        <time>2022-12-29T16:04:29.915Z</time>
      </trkpt>
      <trkpt lat="44.14474" lon="0.77293">
        <ele>101.465136</ele>
        <time>2022-12-29T16:04:31.901Z</time>
      </trkpt>
      <trkpt lat="44.14471" lon="0.77307">
        <ele>101.506787</ele>
        <time>2022-12-29T16:04:33.904Z</time>
      </trkpt>
      <trkpt lat="44.14467" lon="0.7732">
        <ele>101.549123</ele>
        <time>2022-12-29T16:04:35.915Z</time>
      </trkpt>
      <trkpt lat="44.14463" lon="0.77334">
        <ele>101.593268</ele>
        <time>2022-12-29T16:04:37.913Z</time>
      </trkpt>
      <trkpt lat="44.1446" lon="0.77348">
        <ele>101.635479</ele>
        <time>2022-12-29T16:04:39.911Z</time>
      </trkpt>
      <trkpt lat="44.14456" lon="0.77362">
        <ele>101.678244</ele>
        <time>2022-12-29T16:04:41.909Z</time>
      </trkpt>
      <trkpt lat="44.14452" lon="0.77376">
        <ele>101.723207</ele>
        <time>2022-12-29T16:04:43.915Z</time>
      </trkpt>
      <trkpt lat="44.14449" lon="0.7739">
        <ele>101.768015</ele>
        <time>2022-12-29T16:04:45.922Z</time>
      </trkpt>
      <trkpt lat="44.14445" lon="0.77405">
        <ele>101.812983</ele>
        <time>2022-12-29T16:04:47.911Z</time>
      </trkpt>
      <trkpt lat="44.14442" lon="0.7742">
        <ele>101.903497</ele>
        <time>2022-12-29T16:04:49.913Z</time>
      </trkpt>
      <trkpt lat="44.14438" lon="0.77434">
        <ele>102.002528</ele>
        <time>2022-12-29T16:04:51.917Z</time>
      </trkpt>
      <trkpt lat="44.14435" lon="0.77448">
        <ele>102.098631</ele>
        <time>2022-12-29T16:04:53.914Z</time>
      </trkpt>
      <trkpt lat="44.14432" lon="0.77461">
        <ele>102.191658</ele>
        <time>2022-12-29T16:04:55.907Z</time>
      </trkpt>
      <trkpt lat="44.14428" lon="0.77475">
        <ele>102.28562</ele>
        <time>2022-12-29T16:04:57.908Z</time>
      </trkpt>
      <trkpt lat="44.14425" lon="0.77486">
        <ele>102.367775</ele>
        <time>2022-12-29T16:04:59.910Z</time>
      </trkpt>
      <trkpt lat="44.14421" lon="0.77498">
        <ele>102.45163</ele>
        <time>2022-12-29T16:05:01.914Z</time>
      </trkpt>
      <trkpt lat="44.14417" lon="0.77515">
        <ele>102.571925</ele>
        <time>2022-12-29T16:05:04.912Z</time>
      </trkpt>
      <trkpt lat="44.14412" lon="0.77532">
        <ele>102.688797</ele>
        <time>2022-12-29T16:05:07.914Z</time>
      </trkpt>
      <trkpt lat="44.14408" lon="0.77548">
        <ele>102.801026</ele>
        <time>2022-12-29T16:05:10.911Z</time>
      </trkpt>
      <trkpt lat="44.14404" lon="0.77564">
        <ele>102.91357</ele>
        <time>2022-12-29T16:05:13.910Z</time>
      </trkpt>
      <trkpt lat="44.144" lon="0.77579">
        <ele>103.024321</ele>
        <time>2022-12-29T16:05:16.913Z</time>
      </trkpt>
      <trkpt lat="44.14395" lon="0.77596">
        <ele>103.140125</ele>
        <time>2022-12-29T16:05:19.907Z</time>
      </trkpt>
      <trkpt lat="44.14391" lon="0.77614">
        <ele>103.268536</ele>
        <time>2022-12-29T16:05:22.907Z</time>
      </trkpt>
      <trkpt lat="44.14387" lon="0.77632">
        <ele>103.3898</ele>
        <time>2022-12-29T16:05:25.905Z</time>
      </trkpt>
      <trkpt lat="44.14385" lon="0.77644">
        <ele>103.472254</ele>
        <time>2022-12-29T16:05:27.908Z</time>
      </trkpt>
      <trkpt lat="44.14381" lon="0.77659">
        <ele>103.452135</ele>
        <time>2022-12-29T16:05:30.906Z</time>
      </trkpt>
      <trkpt lat="44.14378" lon="0.77674">
        <ele>103.42933</ele>
        <time>2022-12-29T16:05:33.904Z</time>
      </trkpt>
      <trkpt lat="44.14375" lon="0.77687">
        <ele>103.407353</ele>
        <time>2022-12-29T16:05:36.905Z</time>
      </trkpt>
      <trkpt lat="44.14373" lon="0.777">
        <ele>103.387959</ele>
        <time>2022-12-29T16:05:39.912Z</time>
      </trkpt>
      <trkpt lat="44.14377" lon="0.77714">
        <ele>103.365769</ele>
        <time>2022-12-29T16:05:43.904Z</time>
      </trkpt>
      <trkpt lat="44.14386" lon="0.77717">
        <ele>103.345104</ele>
        <time>2022-12-29T16:05:47.903Z</time>
      </trkpt>
      <trkpt lat="44.14398" lon="0.77719">
        <ele>103.3215</ele>
        <time>2022-12-29T16:05:52.912Z</time>
      </trkpt>
      <trkpt lat="44.14406" lon="0.77727">
        <ele>103.299193</ele>
        <time>2022-12-29T16:05:56.914Z</time>
      </trkpt>
      <trkpt lat="44.14403" lon="0.77747">
        <ele>103.269448</ele>
        <time>2022-12-29T16:05:59.906Z</time>
      </trkpt>
      <trkpt lat="44.14401" lon="0.7776">
        <ele>103.248172</ele>
        <time>2022-12-29T16:06:01.916Z</time>
      </trkpt>
      <trkpt lat="44.14398" lon="0.77775">
        <ele>103.224879</ele>
        <time>2022-12-29T16:06:03.909Z</time>
      </trkpt>
      <trkpt lat="44.14395" lon="0.7779">
        <ele>103.202606</ele>
        <time>2022-12-29T16:06:05.910Z</time>
      </trkpt>
      <trkpt lat="44.14393" lon="0.77805">
        <ele>103.17926</ele>
        <time>2022-12-29T16:06:07.904Z</time>
      </trkpt>
      <trkpt lat="44.14392" lon="0.7782">
        <ele>103.156287</ele>
        <time>2022-12-29T16:06:09.905Z</time>
      </trkpt>
      <trkpt lat="44.14391" lon="0.77834">
        <ele>103.135073</ele>
        <time>2022-12-29T16:06:11.912Z</time>
      </trkpt>
      <trkpt lat="44.1439" lon="0.77848">
        <ele>103.113675</ele>
        <time>2022-12-29T16:06:13.909Z</time>
      </trkpt>
      <trkpt lat="44.1439" lon="0.77861">
        <ele>103.095505</ele>
        <time>2022-12-29T16:06:15.909Z</time>
      </trkpt>
      <trkpt lat="44.14389" lon="0.77874">
        <ele>103.082281</ele>
        <time>2022-12-29T16:06:17.913Z</time>
      </trkpt>
      <trkpt lat="44.1439" lon="0.77891">
        <ele>103.065269</ele>
        <time>2022-12-29T16:06:20.912Z</time>
      </trkpt>
      <trkpt lat="44.1439" lon="0.77909">
        <ele>103.047461</ele>
        <time>2022-12-29T16:06:23.913Z</time>
      </trkpt>
      <trkpt lat="44.1439" lon="0.77927">
        <ele>103.02884</ele>
        <time>2022-12-29T16:06:26.911Z</time>
      </trkpt>
      <trkpt lat="44.14391" lon="0.7794">
        <ele>103.015761</ele>
        <time>2022-12-29T16:06:28.916Z</time>
      </trkpt>
      <trkpt lat="44.14392" lon="0.77953">
        <ele>103.003049</ele>
        <time>2022-12-29T16:06:30.913Z</time>
      </trkpt>
      <trkpt lat="44.14392" lon="0.77966">
        <ele>102.990331</ele>
        <time>2022-12-29T16:06:32.907Z</time>
      </trkpt>
      <trkpt lat="44.14393" lon="0.7798">
        <ele>102.976568</ele>
        <time>2022-12-29T16:06:34.922Z</time>
      </trkpt>
      <trkpt lat="44.14394" lon="0.77993">
        <ele>102.962562</ele>
        <time>2022-12-29T16:06:36.909Z</time>
      </trkpt>
      <trkpt lat="44.14394" lon="0.78007">
        <ele>102.948754</ele>
        <time>2022-12-29T16:06:38.910Z</time>
      </trkpt>
      <trkpt lat="44.14395" lon="0.78021">
        <ele>102.935123</ele>
        <time>2022-12-29T16:06:40.912Z</time>
      </trkpt>
      <trkpt lat="44.14396" lon="0.78035">
        <ele>102.920862</ele>
        <time>2022-12-29T16:06:42.909Z</time>
      </trkpt>
      <trkpt lat="44.14396" lon="0.78049">
        <ele>102.906845</ele>
        <time>2022-12-29T16:06:44.919Z</time>
      </trkpt>
      <trkpt lat="44.14397" lon="0.78063">
        <ele>102.892406</ele>
        <time>2022-12-29T16:06:46.906Z</time>
      </trkpt>
      <trkpt lat="44.14398" lon="0.78076">
        <ele>102.879326</ele>
        <time>2022-12-29T16:06:48.915Z</time>
      </trkpt>
      <trkpt lat="44.14399" lon="0.7809">
        <ele>102.865321</ele>
        <time>2022-12-29T16:06:50.913Z</time>
      </trkpt>
      <trkpt lat="44.144" lon="0.78104">
        <ele>102.851132</ele>
        <time>2022-12-29T16:06:52.920Z</time>
      </trkpt>
      <trkpt lat="44.14401" lon="0.78118">
        <ele>102.951615</ele>
        <time>2022-12-29T16:06:54.911Z</time>
      </trkpt>
      <trkpt lat="44.14403" lon="0.78133">
        <ele>103.110117</ele>
        <time>2022-12-29T16:06:56.917Z</time>
      </trkpt>
      <trkpt lat="44.14404" lon="0.78147">
        <ele>103.261976</ele>
        <time>2022-12-29T16:06:58.912Z</time>
      </trkpt>
      <trkpt lat="44.14404" lon="0.7816">
        <ele>103.406366</ele>
        <time>2022-12-29T16:07:00.912Z</time>
      </trkpt>
      <trkpt lat="44.14405" lon="0.78173">
        <ele>103.551016</ele>
        <time>2022-12-29T16:07:02.909Z</time>
      </trkpt>
      <trkpt lat="44.14406" lon="0.78186">
        <ele>103.690382</ele>
        <time>2022-12-29T16:07:04.914Z</time>
      </trkpt>
      <trkpt lat="44.14407" lon="0.782">
        <ele>103.836365</ele>
        <time>2022-12-29T16:07:06.915Z</time>
      </trkpt>
      <trkpt lat="44.14407" lon="0.78213">
        <ele>103.986425</ele>
        <time>2022-12-29T16:07:08.912Z</time>
      </trkpt>
      <trkpt lat="44.14409" lon="0.78227">
        <ele>104.134876</ele>
        <time>2022-12-29T16:07:10.903Z</time>
      </trkpt>
      <trkpt lat="44.1441" lon="0.78242">
        <ele>104.29504</ele>
        <time>2022-12-29T16:07:12.907Z</time>
      </trkpt>
      <trkpt lat="44.14411" lon="0.78257">
        <ele>104.460907</ele>
        <time>2022-12-29T16:07:14.911Z</time>
      </trkpt>
      <trkpt lat="44.14412" lon="0.78271">
        <ele>104.619228</ele>
        <time>2022-12-29T16:07:16.910Z</time>
      </trkpt>
      <trkpt lat="44.14413" lon="0.78287">
        <ele>104.789576</ele>
        <time>2022-12-29T16:07:18.904Z</time>
      </trkpt>
      <trkpt lat="44.14414" lon="0.78303">
        <ele>104.96392</ele>
        <time>2022-12-29T16:07:20.908Z</time>
      </trkpt>
      <trkpt lat="44.14415" lon="0.78319">
        <ele>105.133805</ele>
        <time>2022-12-29T16:07:22.904Z</time>
      </trkpt>
      <trkpt lat="44.14417" lon="0.78334">
        <ele>105.302588</ele>
        <time>2022-12-29T16:07:24.911Z</time>
      </trkpt>
      <trkpt lat="44.14417" lon="0.78347">
        <ele>105.441559</ele>
        <time>2022-12-29T16:07:26.912Z</time>
      </trkpt>
      <trkpt lat="44.14418" lon="0.78366">
        <ele>105.532376</ele>
        <time>2022-12-29T16:07:29.906Z</time>
      </trkpt>
      <trkpt lat="44.14419" lon="0.7838">
        <ele>105.4762</ele>
        <time>2022-12-29T16:07:31.902Z</time>
      </trkpt>
      <trkpt lat="44.14421" lon="0.78395">
        <ele>105.413051</ele>
        <time>2022-12-29T16:07:33.906Z</time>
      </trkpt>
      <trkpt lat="44.14421" lon="0.78409">
        <ele>105.353036</ele>
        <time>2022-12-29T16:07:35.909Z</time>
      </trkpt>
      <trkpt lat="44.14422" lon="0.78424">
        <ele>105.293845</ele>
        <time>2022-12-29T16:07:37.909Z</time>
      </trkpt>
      <trkpt lat="44.14423" lon="0.78439">
        <ele>105.232045</ele>
        <time>2022-12-29T16:07:39.913Z</time>
      </trkpt>
      <trkpt lat="44.14424" lon="0.78453">
        <ele>105.173339</ele>
        <time>2022-12-29T16:07:41.909Z</time>
      </trkpt>
      <trkpt lat="44.14426" lon="0.78467">
        <ele>105.113164</ele>
        <time>2022-12-29T16:07:43.906Z</time>
      </trkpt>
      <trkpt lat="44.14427" lon="0.7848">
        <ele>105.059286</ele>
        <time>2022-12-29T16:07:45.904Z</time>
      </trkpt>
      <trkpt lat="44.14429" lon="0.78499">
        <ele>104.981515</ele>
        <time>2022-12-29T16:07:48.914Z</time>
      </trkpt>
      <trkpt lat="44.1443" lon="0.78517">
        <ele>104.905628</ele>
        <time>2022-12-29T16:07:51.902Z</time>
      </trkpt>
      <trkpt lat="44.14431" lon="0.78535">
        <ele>104.83039</ele>
        <time>2022-12-29T16:07:54.911Z</time>
      </trkpt>
      <trkpt lat="44.14432" lon="0.78548">
        <ele>104.776045</ele>
        <time>2022-12-29T16:07:56.915Z</time>
      </trkpt>
      <trkpt lat="44.14432" lon="0.78561">
        <ele>104.721898</ele>
        <time>2022-12-29T16:07:58.915Z</time>
      </trkpt>
      <trkpt lat="44.14433" lon="0.78576">
        <ele>104.66056</ele>
        <time>2022-12-29T16:08:00.910Z</time>
      </trkpt>
      <trkpt lat="44.14434" lon="0.7859">
        <ele>104.601201</ele>
        <time>2022-12-29T16:08:02.916Z</time>
      </trkpt>
      <trkpt lat="44.14435" lon="0.78604">
        <ele>104.546908</ele>
        <time>2022-12-29T16:08:04.918Z</time>
      </trkpt>
      <trkpt lat="44.14437" lon="0.78618">
        <ele>104.519293</ele>
        <time>2022-12-29T16:08:06.907Z</time>
      </trkpt>
      <trkpt lat="44.14438" lon="0.78632">
        <ele>104.505015</ele>
        <time>2022-12-29T16:08:08.909Z</time>
      </trkpt>
      <trkpt lat="44.14439" lon="0.78644">
        <ele>104.491936</ele>
        <time>2022-12-29T16:08:10.910Z</time>
      </trkpt>
      <trkpt lat="44.1444" lon="0.78657">
        <ele>104.478454</ele>
        <time>2022-12-29T16:08:12.909Z</time>
      </trkpt>
      <trkpt lat="44.14441" lon="0.7867">
        <ele>104.465468</ele>
        <time>2022-12-29T16:08:14.907Z</time>
      </trkpt>
      <trkpt lat="44.14442" lon="0.78687">
        <ele>104.447067</ele>
        <time>2022-12-29T16:08:17.904Z</time>
      </trkpt>
      <trkpt lat="44.14442" lon="0.787">
        <ele>104.433498</ele>
        <time>2022-12-29T16:08:19.915Z</time>
      </trkpt>
      <trkpt lat="44.14443" lon="0.78713">
        <ele>104.420075</ele>
        <time>2022-12-29T16:08:21.908Z</time>
      </trkpt>
      <trkpt lat="44.14444" lon="0.78727">
        <ele>104.406384</ele>
        <time>2022-12-29T16:08:23.903Z</time>
      </trkpt>
      <trkpt lat="44.14445" lon="0.78741">
        <ele>104.390973</ele>
        <time>2022-12-29T16:08:25.909Z</time>
      </trkpt>
      <trkpt lat="44.14446" lon="0.78754">
        <ele>104.377358</ele>
        <time>2022-12-29T16:08:27.912Z</time>
      </trkpt>
      <trkpt lat="44.14448" lon="0.78768">
        <ele>104.362675</ele>
        <time>2022-12-29T16:08:29.912Z</time>
      </trkpt>
      <trkpt lat="44.14448" lon="0.78783">
        <ele>104.347858</ele>
        <time>2022-12-29T16:08:31.906Z</time>
      </trkpt>
      <trkpt lat="44.1445" lon="0.78798">
        <ele>104.332049</ele>
        <time>2022-12-29T16:08:33.916Z</time>
      </trkpt>
      <trkpt lat="44.14451" lon="0.7881">
        <ele>104.318816</ele>
        <time>2022-12-29T16:08:35.912Z</time>
      </trkpt>
      <trkpt lat="44.14453" lon="0.78828">
        <ele>104.299929</ele>
        <time>2022-12-29T16:08:38.912Z</time>
      </trkpt>
      <trkpt lat="44.14454" lon="0.78845">
        <ele>104.282623</ele>
        <time>2022-12-29T16:08:41.908Z</time>
      </trkpt>
      <trkpt lat="44.14456" lon="0.78863">
        <ele>104.21136</ele>
        <time>2022-12-29T16:08:44.913Z</time>
      </trkpt>
      <trkpt lat="44.14457" lon="0.7888">
        <ele>104.06211</ele>
        <time>2022-12-29T16:08:47.911Z</time>
      </trkpt>
      <trkpt lat="44.14458" lon="0.78895">
        <ele>103.938346</ele>
        <time>2022-12-29T16:08:49.905Z</time>
      </trkpt>
      <trkpt lat="44.14458" lon="0.78908">
        <ele>103.827558</ele>
        <time>2022-12-29T16:08:51.906Z</time>
      </trkpt>
      <trkpt lat="44.14459" lon="0.78924">
        <ele>103.684625</ele>
        <time>2022-12-29T16:08:54.905Z</time>
      </trkpt>
      <trkpt lat="44.14461" lon="0.78942">
        <ele>103.534108</ele>
        <time>2022-12-29T16:08:57.909Z</time>
      </trkpt>
      <trkpt lat="44.14462" lon="0.78959">
        <ele>103.385581</ele>
        <time>2022-12-29T16:09:00.906Z</time>
      </trkpt>
      <trkpt lat="44.14464" lon="0.78977">
        <ele>103.226078</ele>
        <time>2022-12-29T16:09:03.913Z</time>
      </trkpt>
      <trkpt lat="44.14466" lon="0.78991">
        <ele>103.108038</ele>
        <time>2022-12-29T16:09:05.912Z</time>
      </trkpt>
      <trkpt lat="44.14468" lon="0.79004">
        <ele>102.993595</ele>
        <time>2022-12-29T16:09:07.908Z</time>
      </trkpt>
      <trkpt lat="44.1447" lon="0.79022">
        <ele>102.832452</ele>
        <time>2022-12-29T16:09:10.907Z</time>
      </trkpt>
      <trkpt lat="44.14473" lon="0.79038">
        <ele>102.690559</ele>
        <time>2022-12-29T16:09:13.913Z</time>
      </trkpt>
      <trkpt lat="44.14478" lon="0.79056">
        <ele>102.53267</ele>
        <time>2022-12-29T16:09:16.907Z</time>
      </trkpt>
      <trkpt lat="44.14481" lon="0.79068">
        <ele>102.418196</ele>
        <time>2022-12-29T16:09:18.912Z</time>
      </trkpt>
      <trkpt lat="44.14483" lon="0.79082">
        <ele>102.303025</ele>
        <time>2022-12-29T16:09:20.905Z</time>
      </trkpt>
      <trkpt lat="44.14486" lon="0.79095">
        <ele>102.182691</ele>
        <time>2022-12-29T16:09:22.904Z</time>
      </trkpt>
      <trkpt lat="44.14489" lon="0.79108">
        <ele>101.957261</ele>
        <time>2022-12-29T16:09:24.914Z</time>
      </trkpt>
      <trkpt lat="44.14492" lon="0.79122">
        <ele>101.590598</ele>
        <time>2022-12-29T16:09:26.906Z</time>
      </trkpt>
      <trkpt lat="44.14496" lon="0.79134">
        <ele>101.234645</ele>
        <time>2022-12-29T16:09:28.904Z</time>
      </trkpt>
      <trkpt lat="44.145" lon="0.79147">
        <ele>100.888705</ele>
        <time>2022-12-29T16:09:30.908Z</time>
      </trkpt>
      <trkpt lat="44.14502" lon="0.7916">
        <ele>100.546</ele>
        <time>2022-12-29T16:09:32.906Z</time>
      </trkpt>
      <trkpt lat="44.14507" lon="0.79177">
        <ele>100.074104</ele>
        <time>2022-12-29T16:09:35.910Z</time>
      </trkpt>
      <trkpt lat="44.14511" lon="0.79194">
        <ele>99.631033</ele>
        <time>2022-12-29T16:09:38.911Z</time>
      </trkpt>
      <trkpt lat="44.14515" lon="0.7921">
        <ele>99.208562</ele>
        <time>2022-12-29T16:09:41.912Z</time>
      </trkpt>
      <trkpt lat="44.14518" lon="0.79227">
        <ele>98.762559</ele>
        <time>2022-12-29T16:09:44.915Z</time>
      </trkpt>
      <trkpt lat="44.1452" lon="0.79239">
        <ele>98.431066</ele>
        <time>2022-12-29T16:09:46.907Z</time>
      </trkpt>
      <trkpt lat="44.14525" lon="0.79257">
        <ele>97.957013</ele>
        <time>2022-12-29T16:09:49.910Z</time>
      </trkpt>
      <trkpt lat="44.14528" lon="0.79269">
        <ele>97.61709</ele>
        <time>2022-12-29T16:09:51.912Z</time>
      </trkpt>
      <trkpt lat="44.14531" lon="0.79281">
        <ele>97.290309</ele>
        <time>2022-12-29T16:09:53.912Z</time>
      </trkpt>
      <trkpt lat="44.14535" lon="0.79294">
        <ele>96.953846</ele>
        <time>2022-12-29T16:09:55.907Z</time>
      </trkpt>
      <trkpt lat="44.14539" lon="0.79311">
        <ele>96.483024</ele>
        <time>2022-12-29T16:09:58.905Z</time>
      </trkpt>
      <trkpt lat="44.14543" lon="0.79327">
        <ele>96.049691</ele>
        <time>2022-12-29T16:10:01.909Z</time>
      </trkpt>
      <trkpt lat="44.14547" lon="0.79343">
        <ele>95.818755</ele>
        <time>2022-12-29T16:10:04.901Z</time>
      </trkpt>
      <trkpt lat="44.14552" lon="0.79359">
        <ele>96.103137</ele>
        <time>2022-12-29T16:10:08.908Z</time>
      </trkpt>
      <trkpt lat="44.14555" lon="0.79375">
        <ele>96.374709</ele>
        <time>2022-12-29T16:10:11.911Z</time>
      </trkpt>
      <trkpt lat="44.14559" lon="0.79392">
        <ele>96.668274</ele>
        <time>2022-12-29T16:10:14.911Z</time>
      </trkpt>
      <trkpt lat="44.14562" lon="0.79408">
        <ele>96.926403</ele>
        <time>2022-12-29T16:10:16.908Z</time>
      </trkpt>
      <trkpt lat="44.14564" lon="0.79421">
        <ele>97.146037</ele>
        <time>2022-12-29T16:10:18.913Z</time>
      </trkpt>
      <trkpt lat="44.14568" lon="0.7944">
        <ele>97.471745</ele>
        <time>2022-12-29T16:10:21.904Z</time>
      </trkpt>
      <trkpt lat="44.14569" lon="0.79457">
        <ele>97.752776</ele>
        <time>2022-12-29T16:10:24.908Z</time>
      </trkpt>
      <trkpt lat="44.14571" lon="0.7947">
        <ele>97.962624</ele>
        <time>2022-12-29T16:10:26.907Z</time>
      </trkpt>
      <trkpt lat="44.14574" lon="0.79486">
        <ele>98.233812</ele>
        <time>2022-12-29T16:10:29.912Z</time>
      </trkpt>
      <trkpt lat="44.14575" lon="0.79502">
        <ele>98.493497</ele>
        <time>2022-12-29T16:10:32.911Z</time>
      </trkpt>
      <trkpt lat="44.14579" lon="0.79518">
        <ele>98.772608</ele>
        <time>2022-12-29T16:10:35.908Z</time>
      </trkpt>
      <trkpt lat="44.14579" lon="0.79532">
        <ele>99.005345</ele>
        <time>2022-12-29T16:10:38.914Z</time>
      </trkpt>
      <trkpt lat="44.14578" lon="0.79549">
        <ele>99.269148</ele>
        <time>2022-12-29T16:10:41.907Z</time>
      </trkpt>
      <trkpt lat="44.14578" lon="0.79564">
        <ele>99.518654</ele>
        <time>2022-12-29T16:10:44.914Z</time>
      </trkpt>
      <trkpt lat="44.14576" lon="0.79578">
        <ele>99.745741</ele>
        <time>2022-12-29T16:10:47.914Z</time>
      </trkpt>
      <trkpt lat="44.14571" lon="0.79591">
        <ele>99.965036</ele>
        <time>2022-12-29T16:10:51.908Z</time>
      </trkpt>
      <trkpt lat="44.14569" lon="0.79603">
        <ele>100.136839</ele>
        <time>2022-12-29T16:10:56.911Z</time>
      </trkpt>
      <trkpt lat="44.14572" lon="0.79618">
        <ele>100.344356</ele>
        <time>2022-12-29T16:11:01.907Z</time>
      </trkpt>
      <trkpt lat="44.14571" lon="0.79635">
        <ele>100.57669</ele>
        <time>2022-12-29T16:11:05.920Z</time>
      </trkpt>
      <trkpt lat="44.14569" lon="0.7965">
        <ele>100.781726</ele>
        <time>2022-12-29T16:11:08.908Z</time>
      </trkpt>
      <trkpt lat="44.14568" lon="0.79663">
        <ele>100.95921</ele>
        <time>2022-12-29T16:11:11.904Z</time>
      </trkpt>
      <trkpt lat="44.14567" lon="0.79678">
        <ele>101.169907</ele>
        <time>2022-12-29T16:11:15.913Z</time>
      </trkpt>
      <trkpt lat="44.14565" lon="0.79693">
        <ele>101.372711</ele>
        <time>2022-12-29T16:11:19.912Z</time>
      </trkpt>
      <trkpt lat="44.14562" lon="0.79707">
        <ele>101.573642</ele>
        <time>2022-12-29T16:11:22.917Z</time>
      </trkpt>
      <trkpt lat="44.14558" lon="0.79723">
        <ele>101.79904</ele>
        <time>2022-12-29T16:11:25.917Z</time>
      </trkpt>
      <trkpt lat="44.14553" lon="0.79739">
        <ele>102.035486</ele>
        <time>2022-12-29T16:11:28.915Z</time>
      </trkpt>
      <trkpt lat="44.14549" lon="0.79754">
        <ele>102.266871</ele>
        <time>2022-12-29T16:11:31.908Z</time>
      </trkpt>
      <trkpt lat="44.14544" lon="0.79771">
        <ele>102.515764</ele>
        <time>2022-12-29T16:11:34.911Z</time>
      </trkpt>
      <trkpt lat="44.1454" lon="0.79783">
        <ele>102.687725</ele>
        <time>2022-12-29T16:11:36.911Z</time>
      </trkpt>
      <trkpt lat="44.14534" lon="0.79799">
        <ele>102.927742</ele>
        <time>2022-12-29T16:11:39.913Z</time>
      </trkpt>
      <trkpt lat="44.14529" lon="0.79812">
        <ele>103.133818</ele>
        <time>2022-12-29T16:11:42.913Z</time>
      </trkpt>
      <trkpt lat="44.14524" lon="0.79826">
        <ele>103.278487</ele>
        <time>2022-12-29T16:11:45.932Z</time>
      </trkpt>
      <trkpt lat="44.14518" lon="0.79841">
        <ele>103.356906</ele>
        <time>2022-12-29T16:11:48.912Z</time>
      </trkpt>
      <trkpt lat="44.14512" lon="0.79857">
        <ele>103.441679</ele>
        <time>2022-12-29T16:11:51.907Z</time>
      </trkpt>
      <trkpt lat="44.14507" lon="0.79869">
        <ele>103.50035</ele>
        <time>2022-12-29T16:11:53.909Z</time>
      </trkpt>
      <trkpt lat="44.14502" lon="0.7988">
        <ele>103.558319</ele>
        <time>2022-12-29T16:11:55.911Z</time>
      </trkpt>
      <trkpt lat="44.14497" lon="0.79894">
        <ele>103.629533</ele>
        <time>2022-12-29T16:11:58.909Z</time>
      </trkpt>
      <trkpt lat="44.14491" lon="0.7991">
        <ele>103.711515</ele>
        <time>2022-12-29T16:12:01.905Z</time>
      </trkpt>
      <trkpt lat="44.14484" lon="0.79926">
        <ele>103.792937</ele>
        <time>2022-12-29T16:12:04.912Z</time>
      </trkpt>
      <trkpt lat="44.14478" lon="0.79941">
        <ele>103.872808</ele>
        <time>2022-12-29T16:12:07.903Z</time>
      </trkpt>
      <trkpt lat="44.14472" lon="0.79955">
        <ele>103.946383</ele>
        <time>2022-12-29T16:12:10.904Z</time>
      </trkpt>
      <trkpt lat="44.14466" lon="0.79971">
        <ele>104.026506</ele>
        <time>2022-12-29T16:12:13.908Z</time>
      </trkpt>
      <trkpt lat="44.14461" lon="0.79988">
        <ele>104.107555</ele>
        <time>2022-12-29T16:12:16.911Z</time>
      </trkpt>
      <trkpt lat="44.14455" lon="0.80003">
        <ele>104.184708</ele>
        <time>2022-12-29T16:12:19.909Z</time>
      </trkpt>
      <trkpt lat="44.1445" lon="0.80017">
        <ele>104.256609</ele>
        <time>2022-12-29T16:12:22.913Z</time>
      </trkpt>
      <trkpt lat="44.14445" lon="0.80029">
        <ele>104.318749</ele>
        <time>2022-12-29T16:12:25.907Z</time>
      </trkpt>
      <trkpt lat="44.14441" lon="0.80041">
        <ele>104.373097</ele>
        <time>2022-12-29T16:12:28.911Z</time>
      </trkpt>
      <trkpt lat="44.14435" lon="0.80056">
        <ele>104.385128</ele>
        <time>2022-12-29T16:12:31.909Z</time>
      </trkpt>
      <trkpt lat="44.1443" lon="0.80071">
        <ele>104.39769</ele>
        <time>2022-12-29T16:12:34.912Z</time>
      </trkpt>
      <trkpt lat="44.14424" lon="0.80087">
        <ele>104.41043</ele>
        <time>2022-12-29T16:12:37.917Z</time>
      </trkpt>
      <trkpt lat="44.14419" lon="0.80103">
        <ele>104.423763</ele>
        <time>2022-12-29T16:12:40.914Z</time>
      </trkpt>
      <trkpt lat="44.14415" lon="0.80116">
        <ele>104.434028</ele>
        <time>2022-12-29T16:12:42.914Z</time>
      </trkpt>
      <trkpt lat="44.14408" lon="0.80133">
        <ele>104.447927</ele>
        <time>2022-12-29T16:12:45.908Z</time>
      </trkpt>
      <trkpt lat="44.14404" lon="0.80144">
        <ele>104.457354</ele>
        <time>2022-12-29T16:12:47.908Z</time>
      </trkpt>
      <trkpt lat="44.14398" lon="0.80161">
        <ele>104.470821</ele>
        <time>2022-12-29T16:12:50.912Z</time>
      </trkpt>
      <trkpt lat="44.14392" lon="0.80175">
        <ele>104.483072</ele>
        <time>2022-12-29T16:12:53.904Z</time>
      </trkpt>
      <trkpt lat="44.14388" lon="0.80188">
        <ele>104.493675</ele>
        <time>2022-12-29T16:12:56.910Z</time>
      </trkpt>
      <trkpt lat="44.14383" lon="0.802">
        <ele>104.50384</ele>
        <time>2022-12-29T16:12:59.911Z</time>
      </trkpt>
      <trkpt lat="44.14378" lon="0.80212">
        <ele>104.513912</ele>
        <time>2022-12-29T16:13:02.912Z</time>
      </trkpt>
      <trkpt lat="44.14372" lon="0.80225">
        <ele>104.525158</ele>
        <time>2022-12-29T16:13:05.910Z</time>
      </trkpt>
      <trkpt lat="44.14367" lon="0.80238">
        <ele>104.535957</ele>
        <time>2022-12-29T16:13:08.906Z</time>
      </trkpt>
      <trkpt lat="44.14362" lon="0.80254">
        <ele>104.548789</ele>
        <time>2022-12-29T16:13:11.914Z</time>
      </trkpt>
      <trkpt lat="44.14356" lon="0.80269">
        <ele>104.441641</ele>
        <time>2022-12-29T16:13:14.914Z</time>
      </trkpt>
      <trkpt lat="44.14349" lon="0.80285">
        <ele>104.183751</ele>
        <time>2022-12-29T16:13:17.915Z</time>
      </trkpt>
      <trkpt lat="44.14344" lon="0.80298">
        <ele>103.96835</ele>
        <time>2022-12-29T16:13:20.914Z</time>
      </trkpt>
      <trkpt lat="44.1434" lon="0.80309">
        <ele>103.784593</ele>
        <time>2022-12-29T16:13:23.911Z</time>
      </trkpt>
      <trkpt lat="44.14335" lon="0.80321">
        <ele>103.591891</ele>
        <time>2022-12-29T16:13:26.907Z</time>
      </trkpt>
      <trkpt lat="44.14329" lon="0.80336">
        <ele>103.349545</ele>
        <time>2022-12-29T16:13:29.913Z</time>
      </trkpt>
      <trkpt lat="44.14323" lon="0.8035">
        <ele>103.121003</ele>
        <time>2022-12-29T16:13:32.913Z</time>
      </trkpt>
      <trkpt lat="44.14318" lon="0.80364">
        <ele>102.900613</ele>
        <time>2022-12-29T16:13:35.912Z</time>
      </trkpt>
      <trkpt lat="44.14313" lon="0.80378">
        <ele>102.674854</ele>
        <time>2022-12-29T16:13:38.915Z</time>
      </trkpt>
      <trkpt lat="44.14307" lon="0.80392">
        <ele>102.44563</ele>
        <time>2022-12-29T16:13:41.915Z</time>
      </trkpt>
      <trkpt lat="44.14302" lon="0.80404">
        <ele>102.245579</ele>
        <time>2022-12-29T16:13:44.914Z</time>
      </trkpt>
      <trkpt lat="44.14298" lon="0.80416">
        <ele>102.063433</ele>
        <time>2022-12-29T16:13:47.913Z</time>
      </trkpt>
      <trkpt lat="44.14293" lon="0.80429">
        <ele>101.83834</ele>
        <time>2022-12-29T16:13:51.908Z</time>
      </trkpt>
      <trkpt lat="44.14288" lon="0.80441">
        <ele>101.647702</ele>
        <time>2022-12-29T16:13:56.916Z</time>
      </trkpt>
      <trkpt lat="44.14283" lon="0.80454">
        <ele>101.435429</ele>
        <time>2022-12-29T16:14:01.914Z</time>
      </trkpt>
      <trkpt lat="44.14277" lon="0.80468">
        <ele>101.202185</ele>
        <time>2022-12-29T16:14:05.914Z</time>
      </trkpt>
      <trkpt lat="44.14271" lon="0.80482">
        <ele>100.973785</ele>
        <time>2022-12-29T16:14:08.909Z</time>
      </trkpt>
      <trkpt lat="44.14265" lon="0.80498">
        <ele>100.687537</ele>
        <time>2022-12-29T16:14:11.912Z</time>
      </trkpt>
      <trkpt lat="44.14259" lon="0.80514">
        <ele>100.391123</ele>
        <time>2022-12-29T16:14:14.909Z</time>
      </trkpt>
      <trkpt lat="44.14254" lon="0.80529">
        <ele>100.129934</ele>
        <time>2022-12-29T16:14:17.911Z</time>
      </trkpt>
      <trkpt lat="44.1425" lon="0.80542">
        <ele>99.903398</ele>
        <time>2022-12-29T16:14:20.912Z</time>
      </trkpt>
      <trkpt lat="44.14244" lon="0.80555">
        <ele>99.658213</ele>
        <time>2022-12-29T16:14:23.921Z</time>
      </trkpt>
      <trkpt lat="44.14238" lon="0.80569">
        <ele>99.395275</ele>
        <time>2022-12-29T16:14:26.913Z</time>
      </trkpt>
      <trkpt lat="44.14233" lon="0.80583">
        <ele>99.135629</ele>
        <time>2022-12-29T16:14:29.911Z</time>
      </trkpt>
      <trkpt lat="44.14227" lon="0.80599">
        <ele>98.857637</ele>
        <time>2022-12-29T16:14:32.912Z</time>
      </trkpt>
      <trkpt lat="44.14221" lon="0.80615">
        <ele>98.560595</ele>
        <time>2022-12-29T16:14:35.913Z</time>
      </trkpt>
      <trkpt lat="44.14216" lon="0.80626">
        <ele>98.357048</ele>
        <time>2022-12-29T16:14:37.909Z</time>
      </trkpt>
      <trkpt lat="44.14212" lon="0.80638">
        <ele>98.146401</ele>
        <time>2022-12-29T16:14:39.915Z</time>
      </trkpt>
      <trkpt lat="44.14207" lon="0.80652">
        <ele>97.897659</ele>
        <time>2022-12-29T16:14:42.906Z</time>
      </trkpt>
      <trkpt lat="44.14202" lon="0.80665">
        <ele>97.654951</ele>
        <time>2022-12-29T16:14:45.913Z</time>
      </trkpt>
      <trkpt lat="44.14196" lon="0.80679">
        <ele>97.394961</ele>
        <time>2022-12-29T16:14:48.908Z</time>
      </trkpt>
      <trkpt lat="44.1419" lon="0.80694">
        <ele>97.125798</ele>
        <time>2022-12-29T16:14:51.914Z</time>
      </trkpt>
      <trkpt lat="44.14185" lon="0.8071">
        <ele>96.97755</ele>
        <time>2022-12-29T16:14:54.907Z</time>
      </trkpt>
      <trkpt lat="44.14179" lon="0.80725">
        <ele>96.994743</ele>
        <time>2022-12-29T16:14:57.916Z</time>
      </trkpt>
      <trkpt lat="44.14174" lon="0.80739">
        <ele>97.010013</ele>
        <time>2022-12-29T16:15:00.914Z</time>
      </trkpt>
      <trkpt lat="44.14168" lon="0.80753">
        <ele>97.025755</ele>
        <time>2022-12-29T16:15:03.913Z</time>
      </trkpt>
      <trkpt lat="44.14162" lon="0.8077">
        <ele>97.044069</ele>
        <time>2022-12-29T16:15:06.913Z</time>
      </trkpt>
      <trkpt lat="44.14156" lon="0.80786">
        <ele>97.062123</ele>
        <time>2022-12-29T16:15:09.914Z</time>
      </trkpt>
      <trkpt lat="44.1415" lon="0.80802">
        <ele>97.079657</ele>
        <time>2022-12-29T16:15:12.912Z</time>
      </trkpt>
      <trkpt lat="44.14144" lon="0.80818">
        <ele>97.097689</ele>
        <time>2022-12-29T16:15:15.916Z</time>
      </trkpt>
      <trkpt lat="44.14138" lon="0.80834">
        <ele>97.115506</ele>
        <time>2022-12-29T16:15:18.907Z</time>
      </trkpt>
      <trkpt lat="44.14132" lon="0.80849">
        <ele>97.1325</ele>
        <time>2022-12-29T16:15:21.913Z</time>
      </trkpt>
      <trkpt lat="44.14127" lon="0.80862">
        <ele>97.146726</ele>
        <time>2022-12-29T16:15:24.911Z</time>
      </trkpt>
      <trkpt lat="44.14121" lon="0.80876">
        <ele>97.162603</ele>
        <time>2022-12-29T16:15:27.911Z</time>
      </trkpt>
      <trkpt lat="44.14115" lon="0.8089">
        <ele>97.178002</ele>
        <time>2022-12-29T16:15:30.914Z</time>
      </trkpt>
      <trkpt lat="44.14109" lon="0.80904">
        <ele>97.194441</ele>
        <time>2022-12-29T16:15:33.908Z</time>
      </trkpt>
      <trkpt lat="44.14104" lon="0.80918">
        <ele>97.21044</ele>
        <time>2022-12-29T16:15:36.910Z</time>
      </trkpt>
      <trkpt lat="44.14098" lon="0.80933">
        <ele>97.321141</ele>
        <time>2022-12-29T16:15:39.911Z</time>
      </trkpt>
      <trkpt lat="44.14093" lon="0.80948">
        <ele>97.472293</ele>
        <time>2022-12-29T16:15:42.905Z</time>
      </trkpt>
      <trkpt lat="44.14089" lon="0.80959">
        <ele>97.592508</ele>
        <time>2022-12-29T16:15:44.907Z</time>
      </trkpt>
      <trkpt lat="44.14084" lon="0.80971">
        <ele>97.721947</ele>
        <time>2022-12-29T16:15:46.913Z</time>
      </trkpt>
      <trkpt lat="44.14078" lon="0.80986">
        <ele>97.880076</ele>
        <time>2022-12-29T16:15:49.911Z</time>
      </trkpt>
      <trkpt lat="44.14073" lon="0.80998">
        <ele>98.008408</ele>
        <time>2022-12-29T16:15:51.907Z</time>
      </trkpt>
      <trkpt lat="44.14069" lon="0.81009">
        <ele>98.124714</ele>
        <time>2022-12-29T16:15:53.911Z</time>
      </trkpt>
      <trkpt lat="44.14063" lon="0.81022">
        <ele>98.266112</ele>
        <time>2022-12-29T16:15:56.917Z</time>
      </trkpt>
      <trkpt lat="44.14057" lon="0.81038">
        <ele>98.426496</ele>
        <time>2022-12-29T16:15:59.905Z</time>
      </trkpt>
      <trkpt lat="44.14053" lon="0.8105">
        <ele>98.558793</ele>
        <time>2022-12-29T16:16:02.912Z</time>
      </trkpt>
      <trkpt lat="44.14048" lon="0.81063">
        <ele>98.692755</ele>
        <time>2022-12-29T16:16:05.913Z</time>
      </trkpt>
      <trkpt lat="44.14042" lon="0.81077">
        <ele>98.849344</ele>
        <time>2022-12-29T16:16:08.914Z</time>
      </trkpt>
      <trkpt lat="44.14035" lon="0.81093">
        <ele>99.016597</ele>
        <time>2022-12-29T16:16:11.915Z</time>
      </trkpt>
      <trkpt lat="44.14031" lon="0.81104">
        <ele>99.13623</ele>
        <time>2022-12-29T16:16:13.914Z</time>
      </trkpt>
      <trkpt lat="44.14026" lon="0.81119">
        <ele>99.286945</ele>
        <time>2022-12-29T16:16:15.908Z</time>
      </trkpt>
      <trkpt lat="44.1402" lon="0.81134">
        <ele>99.451455</ele>
        <time>2022-12-29T16:16:18.913Z</time>
      </trkpt>
      <trkpt lat="44.14014" lon="0.81146">
        <ele>99.49547</ele>
        <time>2022-12-29T16:16:21.911Z</time>
      </trkpt>
      <trkpt lat="44.14009" lon="0.81162">
        <ele>99.247161</ele>
        <time>2022-12-29T16:16:24.913Z</time>
      </trkpt>
      <trkpt lat="44.14004" lon="0.81176">
        <ele>99.004563</ele>
        <time>2022-12-29T16:16:27.910Z</time>
      </trkpt>
      <trkpt lat="44.13999" lon="0.81191">
        <ele>98.772486</ele>
        <time>2022-12-29T16:16:30.917Z</time>
      </trkpt>
      <trkpt lat="44.13995" lon="0.81202">
        <ele>98.585887</ele>
        <time>2022-12-29T16:16:33.933Z</time>
      </trkpt>
      <trkpt lat="44.13989" lon="0.81215">
        <ele>98.361886</ele>
        <time>2022-12-29T16:16:36.906Z</time>
      </trkpt>
      <trkpt lat="44.13983" lon="0.81231">
        <ele>98.090222</ele>
        <time>2022-12-29T16:16:39.905Z</time>
      </trkpt>
      <trkpt lat="44.13977" lon="0.81246">
        <ele>97.844336</ele>
        <time>2022-12-29T16:16:42.913Z</time>
      </trkpt>
      <trkpt lat="44.13972" lon="0.81259">
        <ele>97.627445</ele>
        <time>2022-12-29T16:16:44.908Z</time>
      </trkpt>
      <trkpt lat="44.13967" lon="0.81271">
        <ele>97.417728</ele>
        <time>2022-12-29T16:16:46.907Z</time>
      </trkpt>
      <trkpt lat="44.13962" lon="0.81284">
        <ele>97.209775</ele>
        <time>2022-12-29T16:16:48.916Z</time>
      </trkpt>
      <trkpt lat="44.13957" lon="0.81295">
        <ele>97.010767</ele>
        <time>2022-12-29T16:16:50.912Z</time>
      </trkpt>
      <trkpt lat="44.13951" lon="0.81308">
        <ele>96.793328</ele>
        <time>2022-12-29T16:16:52.908Z</time>
      </trkpt>
      <trkpt lat="44.13946" lon="0.8132">
        <ele>96.587733</ele>
        <time>2022-12-29T16:16:54.906Z</time>
      </trkpt>
      <trkpt lat="44.1394" lon="0.81332">
        <ele>96.364509</ele>
        <time>2022-12-29T16:16:56.911Z</time>
      </trkpt>
      <trkpt lat="44.13935" lon="0.81343">
        <ele>96.1757</ele>
        <time>2022-12-29T16:16:58.911Z</time>
      </trkpt>
      <trkpt lat="44.13929" lon="0.81354">
        <ele>95.977371</ele>
        <time>2022-12-29T16:17:00.918Z</time>
      </trkpt>
      <trkpt lat="44.13923" lon="0.81366">
        <ele>95.8574</ele>
        <time>2022-12-29T16:17:02.917Z</time>
      </trkpt>
      <trkpt lat="44.13917" lon="0.81377">
        <ele>95.83615</ele>
        <time>2022-12-29T16:17:04.914Z</time>
      </trkpt>
      <trkpt lat="44.1391" lon="0.8139">
        <ele>95.809667</ele>
        <time>2022-12-29T16:17:07.914Z</time>
      </trkpt>
      <trkpt lat="44.13902" lon="0.81402">
        <ele>95.784893</ele>
        <time>2022-12-29T16:17:10.915Z</time>
      </trkpt>
      <trkpt lat="44.13895" lon="0.81412">
        <ele>95.763707</ele>
        <time>2022-12-29T16:17:13.908Z</time>
      </trkpt>
      <trkpt lat="44.13889" lon="0.81422">
        <ele>95.742484</ele>
        <time>2022-12-29T16:17:16.915Z</time>
      </trkpt>
      <trkpt lat="44.13881" lon="0.81433">
        <ele>95.718782</ele>
        <time>2022-12-29T16:17:19.922Z</time>
      </trkpt>
      <trkpt lat="44.13874" lon="0.81444">
        <ele>95.695981</ele>
        <time>2022-12-29T16:17:22.905Z</time>
      </trkpt>
      <trkpt lat="44.13866" lon="0.81455">
        <ele>95.671599</ele>
        <time>2022-12-29T16:17:25.909Z</time>
      </trkpt>
      <trkpt lat="44.13859" lon="0.81464">
        <ele>95.650881</ele>
        <time>2022-12-29T16:17:27.910Z</time>
      </trkpt>
      <trkpt lat="44.13851" lon="0.81472">
        <ele>95.629977</ele>
        <time>2022-12-29T16:17:29.906Z</time>
      </trkpt>
      <trkpt lat="44.13842" lon="0.81484">
        <ele>95.602585</ele>
        <time>2022-12-29T16:17:32.913Z</time>
      </trkpt>
      <trkpt lat="44.13833" lon="0.81495">
        <ele>95.576716</ele>
        <time>2022-12-29T16:17:35.908Z</time>
      </trkpt>
      <trkpt lat="44.13826" lon="0.81504">
        <ele>95.555141</ele>
        <time>2022-12-29T16:17:38.915Z</time>
      </trkpt>
      <trkpt lat="44.13818" lon="0.81514">
        <ele>95.53193</ele>
        <time>2022-12-29T16:17:42.911Z</time>
      </trkpt>
      <trkpt lat="44.1381" lon="0.81522">
        <ele>95.512079</ele>
        <time>2022-12-29T16:17:45.912Z</time>
      </trkpt>
      <trkpt lat="44.13802" lon="0.81532">
        <ele>95.487863</ele>
        <time>2022-12-29T16:17:49.912Z</time>
      </trkpt>
      <trkpt lat="44.13798" lon="0.81547">
        <ele>95.681845</ele>
        <time>2022-12-29T16:17:54.912Z</time>
      </trkpt>
      <trkpt lat="44.13795" lon="0.81561">
        <ele>95.978061</ele>
        <time>2022-12-29T16:17:59.916Z</time>
      </trkpt>
      <trkpt lat="44.13789" lon="0.81572">
        <ele>96.265379</ele>
        <time>2022-12-29T16:18:03.910Z</time>
      </trkpt>
      <trkpt lat="44.13782" lon="0.81583">
        <ele>96.558914</ele>
        <time>2022-12-29T16:18:07.911Z</time>
      </trkpt>
      <trkpt lat="44.13772" lon="0.81589">
        <ele>96.852737</ele>
        <time>2022-12-29T16:18:12.909Z</time>
      </trkpt>
      <trkpt lat="44.13763" lon="0.81587">
        <ele>97.115778</ele>
        <time>2022-12-29T16:18:16.910Z</time>
      </trkpt>
      <trkpt lat="44.13754" lon="0.81579">
        <ele>97.42035</ele>
        <time>2022-12-29T16:18:21.912Z</time>
      </trkpt>
      <trkpt lat="44.13747" lon="0.81568">
        <ele>97.709776</ele>
        <time>2022-12-29T16:18:26.913Z</time>
      </trkpt>
      <trkpt lat="44.13741" lon="0.81557">
        <ele>97.994758</ele>
        <time>2022-12-29T16:18:31.911Z</time>
      </trkpt>
      <trkpt lat="44.13732" lon="0.81547">
        <ele>98.309236</ele>
        <time>2022-12-29T16:18:36.912Z</time>
      </trkpt>
      <trkpt lat="44.13721" lon="0.81547">
        <ele>98.62869</ele>
        <time>2022-12-29T16:18:40.912Z</time>
      </trkpt>
      <trkpt lat="44.13714" lon="0.81556">
        <ele>98.90617</ele>
        <time>2022-12-29T16:18:45.911Z</time>
      </trkpt>
      <trkpt lat="44.13713" lon="0.8157">
        <ele>99.190906</ele>
        <time>2022-12-29T16:18:51.910Z</time>
      </trkpt>
      <trkpt lat="44.13711" lon="0.81583">
        <ele>99.46244</ele>
        <time>2022-12-29T16:18:57.907Z</time>
      </trkpt>
      <trkpt lat="44.137" lon="0.81596">
        <ele>99.868178</ele>
        <time>2022-12-29T16:25:57.976Z</time>
      </trkpt>
      <trkpt lat="44.13692" lon="0.81604">
        <ele>100.14299</ele>
        <time>2022-12-29T16:26:01.907Z</time>
      </trkpt>
      <trkpt lat="44.13684" lon="0.81613">
        <ele>100.448174</ele>
        <time>2022-12-29T16:26:05.916Z</time>
      </trkpt>
      <trkpt lat="44.13676" lon="0.81622">
        <ele>100.592367</ele>
        <time>2022-12-29T16:26:08.916Z</time>
      </trkpt>
      <trkpt lat="44.1367" lon="0.8163">
        <ele>100.646478</ele>
        <time>2022-12-29T16:26:11.909Z</time>
      </trkpt>
      <trkpt lat="44.13661" lon="0.8164">
        <ele>100.712406</ele>
        <time>2022-12-29T16:26:14.911Z</time>
      </trkpt>
      <trkpt lat="44.13653" lon="0.81649">
        <ele>100.774949</ele>
        <time>2022-12-29T16:26:17.915Z</time>
      </trkpt>
      <trkpt lat="44.13645" lon="0.81659">
        <ele>100.83856</ele>
        <time>2022-12-29T16:26:20.912Z</time>
      </trkpt>
      <trkpt lat="44.13638" lon="0.81668">
        <ele>100.895002</ele>
        <time>2022-12-29T16:26:23.917Z</time>
      </trkpt>
      <trkpt lat="44.13631" lon="0.81676">
        <ele>100.949339</ele>
        <time>2022-12-29T16:26:26.917Z</time>
      </trkpt>
      <trkpt lat="44.13624" lon="0.81685">
        <ele>101.004507</ele>
        <time>2022-12-29T16:26:29.916Z</time>
      </trkpt>
      <trkpt lat="44.13616" lon="0.81694">
        <ele>101.067387</ele>
        <time>2022-12-29T16:26:32.920Z</time>
      </trkpt>
      <trkpt lat="44.13608" lon="0.81705">
        <ele>101.133029</ele>
        <time>2022-12-29T16:26:35.917Z</time>
      </trkpt>
      <trkpt lat="44.13599" lon="0.81715">
        <ele>101.204692</ele>
        <time>2022-12-29T16:26:38.917Z</time>
      </trkpt>
      <trkpt lat="44.1359" lon="0.81726">
        <ele>101.273782</ele>
        <time>2022-12-29T16:26:41.921Z</time>
      </trkpt>
      <trkpt lat="44.13581" lon="0.81736">
        <ele>101.344726</ele>
        <time>2022-12-29T16:26:44.912Z</time>
      </trkpt>
      <trkpt lat="44.13572" lon="0.81746">
        <ele>101.412169</ele>
        <time>2022-12-29T16:26:47.914Z</time>
      </trkpt>
      <trkpt lat="44.13563" lon="0.81757">
        <ele>101.483831</ele>
        <time>2022-12-29T16:26:50.913Z</time>
      </trkpt>
      <trkpt lat="44.13553" lon="0.81769">
        <ele>101.560167</ele>
        <time>2022-12-29T16:26:53.911Z</time>
      </trkpt>
      <trkpt lat="44.13544" lon="0.8178">
        <ele>101.631377</ele>
        <time>2022-12-29T16:26:56.918Z</time>
      </trkpt>
      <trkpt lat="44.13535" lon="0.81791">
        <ele>101.703655</ele>
        <time>2022-12-29T16:26:59.917Z</time>
      </trkpt>
      <trkpt lat="44.13525" lon="0.81802">
        <ele>101.778095</ele>
        <time>2022-12-29T16:27:02.911Z</time>
      </trkpt>
      <trkpt lat="44.13516" lon="0.81813">
        <ele>101.852417</ele>
        <time>2022-12-29T16:27:05.916Z</time>
      </trkpt>
      <trkpt lat="44.13506" lon="0.81825">
        <ele>101.929278</ele>
        <time>2022-12-29T16:27:08.916Z</time>
      </trkpt>
      <trkpt lat="44.13496" lon="0.81836">
        <ele>102.004803</ele>
        <time>2022-12-29T16:27:11.915Z</time>
      </trkpt>
      <trkpt lat="44.13487" lon="0.81848">
        <ele>102.076601</ele>
        <time>2022-12-29T16:27:14.915Z</time>
      </trkpt>
      <trkpt lat="44.13477" lon="0.81859">
        <ele>102.15203</ele>
        <time>2022-12-29T16:27:17.917Z</time>
      </trkpt>
      <trkpt lat="44.13467" lon="0.8187">
        <ele>102.225899</ele>
        <time>2022-12-29T16:27:20.917Z</time>
      </trkpt>
      <trkpt lat="44.13457" lon="0.81882">
        <ele>102.302591</ele>
        <time>2022-12-29T16:27:23.915Z</time>
      </trkpt>
      <trkpt lat="44.13448" lon="0.81894">
        <ele>102.378532</ele>
        <time>2022-12-29T16:27:26.916Z</time>
      </trkpt>
      <trkpt lat="44.13439" lon="0.81907">
        <ele>102.45389</ele>
        <time>2022-12-29T16:27:29.916Z</time>
      </trkpt>
      <trkpt lat="44.13431" lon="0.8192">
        <ele>102.529462</ele>
        <time>2022-12-29T16:27:32.916Z</time>
      </trkpt>
      <trkpt lat="44.13425" lon="0.81931">
        <ele>102.586957</ele>
        <time>2022-12-29T16:27:34.912Z</time>
      </trkpt>
      <trkpt lat="44.13419" lon="0.8194">
        <ele>102.640616</ele>
        <time>2022-12-29T16:27:36.909Z</time>
      </trkpt>
      <trkpt lat="44.1341" lon="0.81954">
        <ele>102.732639</ele>
        <time>2022-12-29T16:27:39.914Z</time>
      </trkpt>
      <trkpt lat="44.13402" lon="0.81967">
        <ele>102.875046</ele>
        <time>2022-12-29T16:27:42.916Z</time>
      </trkpt>
      <trkpt lat="44.13396" lon="0.81978">
        <ele>102.978059</ele>
        <time>2022-12-29T16:27:44.909Z</time>
      </trkpt>
      <trkpt lat="44.13388" lon="0.81991">
        <ele>103.115604</ele>
        <time>2022-12-29T16:27:47.916Z</time>
      </trkpt>
      <trkpt lat="44.13381" lon="0.82004">
        <ele>103.245173</ele>
        <time>2022-12-29T16:27:50.914Z</time>
      </trkpt>
      <trkpt lat="44.13376" lon="0.82016">
        <ele>103.347265</ele>
        <time>2022-12-29T16:27:52.915Z</time>
      </trkpt>
      <trkpt lat="44.1337" lon="0.82026">
        <ele>103.447618</ele>
        <time>2022-12-29T16:27:54.916Z</time>
      </trkpt>
      <trkpt lat="44.13363" lon="0.82041">
        <ele>103.588133</ele>
        <time>2022-12-29T16:27:57.918Z</time>
      </trkpt>
      <trkpt lat="44.13359" lon="0.82052">
        <ele>103.689432</ele>
        <time>2022-12-29T16:27:59.917Z</time>
      </trkpt>
      <trkpt lat="44.13354" lon="0.82064">
        <ele>103.795998</ele>
        <time>2022-12-29T16:28:01.916Z</time>
      </trkpt>
      <trkpt lat="44.13349" lon="0.82076">
        <ele>103.900637</ele>
        <time>2022-12-29T16:28:03.917Z</time>
      </trkpt>
      <trkpt lat="44.13344" lon="0.82087">
        <ele>104.00432</ele>
        <time>2022-12-29T16:28:05.917Z</time>
      </trkpt>
      <trkpt lat="44.1334" lon="0.82098">
        <ele>104.102758</ele>
        <time>2022-12-29T16:28:07.915Z</time>
      </trkpt>
      <trkpt lat="44.13334" lon="0.82113">
        <ele>104.232677</ele>
        <time>2022-12-29T16:28:10.915Z</time>
      </trkpt>
      <trkpt lat="44.13328" lon="0.82127">
        <ele>104.365173</ele>
        <time>2022-12-29T16:28:13.912Z</time>
      </trkpt>
      <trkpt lat="44.13323" lon="0.82141">
        <ele>104.48512</ele>
        <time>2022-12-29T16:28:16.918Z</time>
      </trkpt>
      <trkpt lat="44.13317" lon="0.82156">
        <ele>104.620568</ele>
        <time>2022-12-29T16:28:19.919Z</time>
      </trkpt>
      <trkpt lat="44.13311" lon="0.82169">
        <ele>104.642033</ele>
        <time>2022-12-29T16:28:22.913Z</time>
      </trkpt>
      <trkpt lat="44.13306" lon="0.82181">
        <ele>104.625111</ele>
        <time>2022-12-29T16:28:25.918Z</time>
      </trkpt>
      <trkpt lat="44.13301" lon="0.82193">
        <ele>104.609915</ele>
        <time>2022-12-29T16:28:28.910Z</time>
      </trkpt>
      <trkpt lat="44.13296" lon="0.82207">
        <ele>104.591146</ele>
        <time>2022-12-29T16:28:32.917Z</time>
      </trkpt>
      <trkpt lat="44.13294" lon="0.8222">
        <ele>104.576259</ele>
        <time>2022-12-29T16:28:35.907Z</time>
      </trkpt>
      <trkpt lat="44.13291" lon="0.82235">
        <ele>104.558417</ele>
        <time>2022-12-29T16:28:38.913Z</time>
      </trkpt>
      <trkpt lat="44.13292" lon="0.82249">
        <ele>104.542414</ele>
        <time>2022-12-29T16:28:42.917Z</time>
      </trkpt>
      <trkpt lat="44.13287" lon="0.82261">
        <ele>104.526635</ele>
        <time>2022-12-29T16:28:46.914Z</time>
      </trkpt>
      <trkpt lat="44.13278" lon="0.82269">
        <ele>104.508453</ele>
        <time>2022-12-29T16:28:50.916Z</time>
      </trkpt>
      <trkpt lat="44.1327" lon="0.82277">
        <ele>104.493323</ele>
        <time>2022-12-29T16:28:53.914Z</time>
      </trkpt>
      <trkpt lat="44.13262" lon="0.82287">
        <ele>104.475651</ele>
        <time>2022-12-29T16:28:57.919Z</time>
      </trkpt>
      <trkpt lat="44.13254" lon="0.82295">
        <ele>104.459577</ele>
        <time>2022-12-29T16:29:01.914Z</time>
      </trkpt>
      <trkpt lat="44.13247" lon="0.82303">
        <ele>104.444959</ele>
        <time>2022-12-29T16:29:05.918Z</time>
      </trkpt>
      <trkpt lat="44.1324" lon="0.82313">
        <ele>104.428978</ele>
        <time>2022-12-29T16:29:09.916Z</time>
      </trkpt>
      <trkpt lat="44.13232" lon="0.82321">
        <ele>104.412563</ele>
        <time>2022-12-29T16:29:13.917Z</time>
      </trkpt>
      <trkpt lat="44.13226" lon="0.82332">
        <ele>104.396879</ele>
        <time>2022-12-29T16:29:30.917Z</time>
      </trkpt>
      <trkpt lat="44.13219" lon="0.82345">
        <ele>104.378846</ele>
        <time>2022-12-29T16:29:35.917Z</time>
      </trkpt>
      <trkpt lat="44.13213" lon="0.82359">
        <ele>104.383697</ele>
        <time>2022-12-29T16:29:39.916Z</time>
      </trkpt>
      <trkpt lat="44.13208" lon="0.82373">
        <ele>104.449234</ele>
        <time>2022-12-29T16:29:42.916Z</time>
      </trkpt>
      <trkpt lat="44.13202" lon="0.82387">
        <ele>104.517906</ele>
        <time>2022-12-29T16:29:45.917Z</time>
      </trkpt>
      <trkpt lat="44.13198" lon="0.82399">
        <ele>104.579848</ele>
        <time>2022-12-29T16:29:48.915Z</time>
      </trkpt>
      <trkpt lat="44.13192" lon="0.82414">
        <ele>104.648801</ele>
        <time>2022-12-29T16:29:51.919Z</time>
      </trkpt>
      <trkpt lat="44.13186" lon="0.82429">
        <ele>104.725149</ele>
        <time>2022-12-29T16:29:54.916Z</time>
      </trkpt>
      <trkpt lat="44.1318" lon="0.82445">
        <ele>104.800639</ele>
        <time>2022-12-29T16:29:57.917Z</time>
      </trkpt>
      <trkpt lat="44.13174" lon="0.82459">
        <ele>104.871463</ele>
        <time>2022-12-29T16:30:00.917Z</time>
      </trkpt>
      <trkpt lat="44.13168" lon="0.82474">
        <ele>104.945965</ele>
        <time>2022-12-29T16:30:03.914Z</time>
      </trkpt>
      <trkpt lat="44.13162" lon="0.82489">
        <ele>105.020239</ele>
        <time>2022-12-29T16:30:06.919Z</time>
      </trkpt>
      <trkpt lat="44.13156" lon="0.82503">
        <ele>105.091478</ele>
        <time>2022-12-29T16:30:09.914Z</time>
      </trkpt>
      <trkpt lat="44.13149" lon="0.82519">
        <ele>105.172573</ele>
        <time>2022-12-29T16:30:12.906Z</time>
      </trkpt>
      <trkpt lat="44.13144" lon="0.8253">
        <ele>105.229451</ele>
        <time>2022-12-29T16:30:14.910Z</time>
      </trkpt>
      <trkpt lat="44.1314" lon="0.82542">
        <ele>105.284894</ele>
        <time>2022-12-29T16:30:16.918Z</time>
      </trkpt>
      <trkpt lat="44.13136" lon="0.82558">
        <ele>105.357028</ele>
        <time>2022-12-29T16:30:19.908Z</time>
      </trkpt>
      <trkpt lat="44.13134" lon="0.82573">
        <ele>105.425471</ele>
        <time>2022-12-29T16:30:22.909Z</time>
      </trkpt>
      <trkpt lat="44.13132" lon="0.82591">
        <ele>105.468643</ele>
        <time>2022-12-29T16:30:25.913Z</time>
      </trkpt>
      <trkpt lat="44.13127" lon="0.82608">
        <ele>105.50219</ele>
        <time>2022-12-29T16:30:28.910Z</time>
      </trkpt>
      <trkpt lat="44.13122" lon="0.82624">
        <ele>105.534724</ele>
        <time>2022-12-29T16:30:31.916Z</time>
      </trkpt>
      <trkpt lat="44.13115" lon="0.8264">
        <ele>105.568692</ele>
        <time>2022-12-29T16:30:34.908Z</time>
      </trkpt>
      <trkpt lat="44.13109" lon="0.82655">
        <ele>105.60164</ele>
        <time>2022-12-29T16:30:37.911Z</time>
      </trkpt>
      <trkpt lat="44.13104" lon="0.82667">
        <ele>105.625057</ele>
        <time>2022-12-29T16:30:39.915Z</time>
      </trkpt>
      <trkpt lat="44.131" lon="0.82678">
        <ele>105.649117</ele>
        <time>2022-12-29T16:30:41.914Z</time>
      </trkpt>
      <trkpt lat="44.13094" lon="0.82689">
        <ele>105.674968</ele>
        <time>2022-12-29T16:30:43.909Z</time>
      </trkpt>
      <trkpt lat="44.13089" lon="0.827">
        <ele>105.698641</ele>
        <time>2022-12-29T16:30:45.922Z</time>
      </trkpt>
      <trkpt lat="44.13082" lon="0.82716">
        <ele>105.732222</ele>
        <time>2022-12-29T16:30:48.916Z</time>
      </trkpt>
      <trkpt lat="44.13076" lon="0.82732">
        <ele>105.766512</ele>
        <time>2022-12-29T16:30:51.913Z</time>
      </trkpt>
      <trkpt lat="44.13069" lon="0.82749">
        <ele>105.801247</ele>
        <time>2022-12-29T16:30:54.907Z</time>
      </trkpt>
      <trkpt lat="44.13064" lon="0.82759">
        <ele>105.824218</ele>
        <time>2022-12-29T16:30:56.911Z</time>
      </trkpt>
      <trkpt lat="44.13059" lon="0.82771">
        <ele>105.84903</ele>
        <time>2022-12-29T16:30:58.911Z</time>
      </trkpt>
      <trkpt lat="44.13054" lon="0.82782">
        <ele>105.872345</ele>
        <time>2022-12-29T16:31:00.912Z</time>
      </trkpt>
      <trkpt lat="44.13048" lon="0.82797">
        <ele>105.902683</ele>
        <time>2022-12-29T16:31:03.921Z</time>
      </trkpt>
      <trkpt lat="44.13043" lon="0.82809">
        <ele>105.877286</ele>
        <time>2022-12-29T16:31:05.912Z</time>
      </trkpt>
      <trkpt lat="44.13038" lon="0.82822">
        <ele>105.850722</ele>
        <time>2022-12-29T16:31:07.921Z</time>
      </trkpt>
      <trkpt lat="44.13034" lon="0.82833">
        <ele>105.825704</ele>
        <time>2022-12-29T16:31:09.919Z</time>
      </trkpt>
      <trkpt lat="44.1303" lon="0.82845">
        <ele>105.801313</ele>
        <time>2022-12-29T16:31:11.920Z</time>
      </trkpt>
      <trkpt lat="44.13025" lon="0.82855">
        <ele>105.777322</ele>
        <time>2022-12-29T16:31:13.914Z</time>
      </trkpt>
      <trkpt lat="44.1302" lon="0.82867">
        <ele>105.752638</ele>
        <time>2022-12-29T16:31:15.919Z</time>
      </trkpt>
      <trkpt lat="44.13016" lon="0.82879">
        <ele>105.727071</ele>
        <time>2022-12-29T16:31:17.913Z</time>
      </trkpt>
      <trkpt lat="44.13011" lon="0.8289">
        <ele>105.702346</ele>
        <time>2022-12-29T16:31:19.910Z</time>
      </trkpt>
      <trkpt lat="44.13005" lon="0.82905">
        <ele>105.669808</ele>
        <time>2022-12-29T16:31:22.914Z</time>
      </trkpt>
      <trkpt lat="44.12999" lon="0.82919">
        <ele>105.639058</ele>
        <time>2022-12-29T16:31:25.911Z</time>
      </trkpt>
      <trkpt lat="44.12993" lon="0.82934">
        <ele>105.606574</ele>
        <time>2022-12-29T16:31:28.914Z</time>
      </trkpt>
      <trkpt lat="44.12988" lon="0.82945">
        <ele>105.582171</ele>
        <time>2022-12-29T16:31:30.913Z</time>
      </trkpt>
      <trkpt lat="44.12984" lon="0.82956">
        <ele>105.557358</ele>
        <time>2022-12-29T16:31:32.908Z</time>
      </trkpt>
      <trkpt lat="44.12978" lon="0.82967">
        <ele>105.532512</ele>
        <time>2022-12-29T16:31:34.912Z</time>
      </trkpt>
      <trkpt lat="44.12974" lon="0.82978">
        <ele>105.507138</ele>
        <time>2022-12-29T16:31:36.912Z</time>
      </trkpt>
      <trkpt lat="44.12969" lon="0.8299">
        <ele>105.482112</ele>
        <time>2022-12-29T16:31:38.916Z</time>
      </trkpt>
      <trkpt lat="44.12964" lon="0.83001">
        <ele>105.458258</ele>
        <time>2022-12-29T16:31:40.908Z</time>
      </trkpt>
      <trkpt lat="44.12957" lon="0.83016">
        <ele>105.448408</ele>
        <time>2022-12-29T16:31:43.914Z</time>
      </trkpt>
      <trkpt lat="44.12953" lon="0.83027">
        <ele>105.527027</ele>
        <time>2022-12-29T16:31:45.915Z</time>
      </trkpt>
      <trkpt lat="44.12947" lon="0.83042">
        <ele>105.629852</ele>
        <time>2022-12-29T16:31:48.909Z</time>
      </trkpt>
      <trkpt lat="44.1294" lon="0.83056">
        <ele>105.73347</ele>
        <time>2022-12-29T16:31:51.922Z</time>
      </trkpt>
      <trkpt lat="44.12934" lon="0.83073">
        <ele>105.853656</ele>
        <time>2022-12-29T16:31:54.908Z</time>
      </trkpt>
      <trkpt lat="44.12929" lon="0.83084">
        <ele>105.931055</ele>
        <time>2022-12-29T16:31:56.918Z</time>
      </trkpt>
      <trkpt lat="44.12924" lon="0.83095">
        <ele>106.010859</ele>
        <time>2022-12-29T16:31:58.909Z</time>
      </trkpt>
      <trkpt lat="44.12919" lon="0.83106">
        <ele>106.090225</ele>
        <time>2022-12-29T16:32:00.912Z</time>
      </trkpt>
      <trkpt lat="44.12915" lon="0.83117">
        <ele>106.169074</ele>
        <time>2022-12-29T16:32:02.914Z</time>
      </trkpt>
      <trkpt lat="44.1291" lon="0.83128">
        <ele>106.249631</ele>
        <time>2022-12-29T16:32:04.912Z</time>
      </trkpt>
      <trkpt lat="44.12903" lon="0.83145">
        <ele>106.366934</ele>
        <time>2022-12-29T16:32:07.915Z</time>
      </trkpt>
      <trkpt lat="44.12899" lon="0.83156">
        <ele>106.446869</ele>
        <time>2022-12-29T16:32:09.916Z</time>
      </trkpt>
      <trkpt lat="44.12894" lon="0.83168">
        <ele>106.530085</ele>
        <time>2022-12-29T16:32:11.916Z</time>
      </trkpt>
      <trkpt lat="44.1289" lon="0.83179">
        <ele>106.60989</ele>
        <time>2022-12-29T16:32:13.916Z</time>
      </trkpt>
      <trkpt lat="44.12885" lon="0.83191">
        <ele>106.69151</ele>
        <time>2022-12-29T16:32:15.914Z</time>
      </trkpt>
      <trkpt lat="44.1288" lon="0.83202">
        <ele>106.772397</ele>
        <time>2022-12-29T16:32:17.915Z</time>
      </trkpt>
      <trkpt lat="44.12874" lon="0.83218">
        <ele>106.885639</ele>
        <time>2022-12-29T16:32:20.915Z</time>
      </trkpt>
      <trkpt lat="44.12868" lon="0.83233">
        <ele>106.958381</ele>
        <time>2022-12-29T16:32:23.916Z</time>
      </trkpt>
      <trkpt lat="44.12862" lon="0.83246">
        <ele>106.859151</ele>
        <time>2022-12-29T16:32:26.909Z</time>
      </trkpt>
      <trkpt lat="44.12857" lon="0.8326">
        <ele>106.757288</ele>
        <time>2022-12-29T16:32:29.911Z</time>
      </trkpt>
      <trkpt lat="44.12851" lon="0.83273">
        <ele>106.65259</ele>
        <time>2022-12-29T16:32:32.915Z</time>
      </trkpt>
      <trkpt lat="44.12845" lon="0.83287">
        <ele>106.546294</ele>
        <time>2022-12-29T16:32:35.911Z</time>
      </trkpt>
      <trkpt lat="44.12839" lon="0.83302">
        <ele>106.436099</ele>
        <time>2022-12-29T16:32:38.911Z</time>
      </trkpt>
      <trkpt lat="44.12833" lon="0.83315">
        <ele>106.332638</ele>
        <time>2022-12-29T16:32:41.920Z</time>
      </trkpt>
      <trkpt lat="44.12828" lon="0.83327">
        <ele>106.238768</ele>
        <time>2022-12-29T16:32:44.911Z</time>
      </trkpt>
      <trkpt lat="44.12822" lon="0.8334">
        <ele>106.140455</ele>
        <time>2022-12-29T16:32:49.915Z</time>
      </trkpt>
      <trkpt lat="44.12819" lon="0.83353">
        <ele>106.051887</ele>
        <time>2022-12-29T16:32:53.921Z</time>
      </trkpt>
      <trkpt lat="44.12815" lon="0.83366">
        <ele>105.960259</ele>
        <time>2022-12-29T16:32:56.912Z</time>
      </trkpt>
      <trkpt lat="44.1281" lon="0.83383">
        <ele>105.839098</ele>
        <time>2022-12-29T16:32:59.917Z</time>
      </trkpt>
      <trkpt lat="44.12805" lon="0.83399">
        <ele>105.721801</ele>
        <time>2022-12-29T16:33:02.910Z</time>
      </trkpt>
      <trkpt lat="44.12799" lon="0.83414">
        <ele>105.613212</ele>
        <time>2022-12-29T16:33:05.915Z</time>
      </trkpt>
      <trkpt lat="44.12794" lon="0.83427">
        <ele>105.513474</ele>
        <time>2022-12-29T16:33:08.914Z</time>
      </trkpt>
      <trkpt lat="44.12789" lon="0.8344">
        <ele>105.417061</ele>
        <time>2022-12-29T16:33:11.908Z</time>
      </trkpt>
      <trkpt lat="44.12783" lon="0.83453">
        <ele>105.329776</ele>
        <time>2022-12-29T16:33:14.915Z</time>
      </trkpt>
      <trkpt lat="44.12778" lon="0.83468">
        <ele>105.337469</ele>
        <time>2022-12-29T16:33:17.924Z</time>
      </trkpt>
      <trkpt lat="44.12772" lon="0.83482">
        <ele>105.344904</ele>
        <time>2022-12-29T16:33:20.909Z</time>
      </trkpt>
      <trkpt lat="44.12766" lon="0.83497">
        <ele>105.352649</ele>
        <time>2022-12-29T16:33:23.913Z</time>
      </trkpt>
      <trkpt lat="44.1276" lon="0.83512">
        <ele>105.360783</ele>
        <time>2022-12-29T16:33:26.911Z</time>
      </trkpt>
      <trkpt lat="44.12755" lon="0.83524">
        <ele>105.366869</ele>
        <time>2022-12-29T16:33:28.911Z</time>
      </trkpt>
      <trkpt lat="44.12748" lon="0.83539">
        <ele>105.374959</ele>
        <time>2022-12-29T16:33:31.915Z</time>
      </trkpt>
      <trkpt lat="44.12741" lon="0.83555">
        <ele>105.383523</ele>
        <time>2022-12-29T16:33:34.913Z</time>
      </trkpt>
      <trkpt lat="44.12736" lon="0.83566">
        <ele>105.389568</ele>
        <time>2022-12-29T16:33:36.921Z</time>
      </trkpt>
      <trkpt lat="44.12732" lon="0.83577">
        <ele>105.395452</ele>
        <time>2022-12-29T16:33:38.919Z</time>
      </trkpt>
      <trkpt lat="44.12727" lon="0.83589">
        <ele>105.401767</ele>
        <time>2022-12-29T16:33:40.908Z</time>
      </trkpt>
      <trkpt lat="44.12722" lon="0.836">
        <ele>105.407714</ele>
        <time>2022-12-29T16:33:42.912Z</time>
      </trkpt>
      <trkpt lat="44.12715" lon="0.83617">
        <ele>105.416318</ele>
        <time>2022-12-29T16:33:45.915Z</time>
      </trkpt>
      <trkpt lat="44.1271" lon="0.83629">
        <ele>105.422607</ele>
        <time>2022-12-29T16:33:47.910Z</time>
      </trkpt>
      <trkpt lat="44.12706" lon="0.8364">
        <ele>105.428745</ele>
        <time>2022-12-29T16:33:49.910Z</time>
      </trkpt>
      <trkpt lat="44.12701" lon="0.83651">
        <ele>105.434609</ele>
        <time>2022-12-29T16:33:51.911Z</time>
      </trkpt>
      <trkpt lat="44.12696" lon="0.83663">
        <ele>105.440694</ele>
        <time>2022-12-29T16:33:53.912Z</time>
      </trkpt>
      <trkpt lat="44.1269" lon="0.83679">
        <ele>105.520224</ele>
        <time>2022-12-29T16:33:56.917Z</time>
      </trkpt>
      <trkpt lat="44.12685" lon="0.8369">
        <ele>105.600777</ele>
        <time>2022-12-29T16:33:58.916Z</time>
      </trkpt>
      <trkpt lat="44.1268" lon="0.83702">
        <ele>105.68251</ele>
        <time>2022-12-29T16:34:00.917Z</time>
      </trkpt>
      <trkpt lat="44.12674" lon="0.83718">
        <ele>105.792322</ele>
        <time>2022-12-29T16:34:03.916Z</time>
      </trkpt>
      <trkpt lat="44.12668" lon="0.83733">
        <ele>105.89649</ele>
        <time>2022-12-29T16:34:06.911Z</time>
      </trkpt>
      <trkpt lat="44.12662" lon="0.83748">
        <ele>106.004813</ele>
        <time>2022-12-29T16:34:09.912Z</time>
      </trkpt>
      <trkpt lat="44.12657" lon="0.83759">
        <ele>106.084757</ele>
        <time>2022-12-29T16:34:11.912Z</time>
      </trkpt>
      <trkpt lat="44.12652" lon="0.83771">
        <ele>106.167859</ele>
        <time>2022-12-29T16:34:13.908Z</time>
      </trkpt>
      <trkpt lat="44.12647" lon="0.83782">
        <ele>106.250534</ele>
        <time>2022-12-29T16:34:15.912Z</time>
      </trkpt>
      <trkpt lat="44.12643" lon="0.83794">
        <ele>106.331301</ele>
        <time>2022-12-29T16:34:17.917Z</time>
      </trkpt>
      <trkpt lat="44.12638" lon="0.83805">
        <ele>106.411177</ele>
        <time>2022-12-29T16:34:19.916Z</time>
      </trkpt>
      <trkpt lat="44.12633" lon="0.83816">
        <ele>106.489506</ele>
        <time>2022-12-29T16:34:21.920Z</time>
      </trkpt>
      <trkpt lat="44.12628" lon="0.83828">
        <ele>106.572436</ele>
        <time>2022-12-29T16:34:23.911Z</time>
      </trkpt>
      <trkpt lat="44.12623" lon="0.83839">
        <ele>106.650971</ele>
        <time>2022-12-29T16:34:25.914Z</time>
      </trkpt>
      <trkpt lat="44.12619" lon="0.83849">
        <ele>106.727488</ele>
        <time>2022-12-29T16:34:27.913Z</time>
      </trkpt>
      <trkpt lat="44.12613" lon="0.83865">
        <ele>106.835812</ele>
        <time>2022-12-29T16:34:30.914Z</time>
      </trkpt>
      <trkpt lat="44.12607" lon="0.83879">
        <ele>106.932914</ele>
        <time>2022-12-29T16:34:33.910Z</time>
      </trkpt>
      <trkpt lat="44.12602" lon="0.8389">
        <ele>107.017285</ele>
        <time>2022-12-29T16:34:36.918Z</time>
      </trkpt>
      <trkpt lat="44.12596" lon="0.83903">
        <ele>107.118049</ele>
        <time>2022-12-29T16:34:39.916Z</time>
      </trkpt>
      <trkpt lat="44.1259" lon="0.83917">
        <ele>107.221818</ele>
        <time>2022-12-29T16:34:42.917Z</time>
      </trkpt>
      <trkpt lat="44.12584" lon="0.83932">
        <ele>107.334213</ele>
        <time>2022-12-29T16:34:45.913Z</time>
      </trkpt>
      <trkpt lat="44.12577" lon="0.83947">
        <ele>107.451097</ele>
        <time>2022-12-29T16:34:48.913Z</time>
      </trkpt>
      <trkpt lat="44.12571" lon="0.83962">
        <ele>107.566749</ele>
        <time>2022-12-29T16:34:51.913Z</time>
      </trkpt>
      <trkpt lat="44.12564" lon="0.83978">
        <ele>107.683983</ele>
        <time>2022-12-29T16:34:54.912Z</time>
      </trkpt>
      <trkpt lat="44.1256" lon="0.8399">
        <ele>107.773566</ele>
        <time>2022-12-29T16:34:56.915Z</time>
      </trkpt>
      <trkpt lat="44.12556" lon="0.84002">
        <ele>107.858454</ele>
        <time>2022-12-29T16:34:58.908Z</time>
      </trkpt>
      <trkpt lat="44.12552" lon="0.84014">
        <ele>107.942389</ele>
        <time>2022-12-29T16:35:00.917Z</time>
      </trkpt>
      <trkpt lat="44.12547" lon="0.84025">
        <ele>108.029606</ele>
        <time>2022-12-29T16:35:02.913Z</time>
      </trkpt>
      <trkpt lat="44.12542" lon="0.84035">
        <ele>108.110991</ele>
        <time>2022-12-29T16:35:04.907Z</time>
      </trkpt>
      <trkpt lat="44.12537" lon="0.84046">
        <ele>108.193149</ele>
        <time>2022-12-29T16:35:06.915Z</time>
      </trkpt>
      <trkpt lat="44.12532" lon="0.84057">
        <ele>108.277446</ele>
        <time>2022-12-29T16:35:08.915Z</time>
      </trkpt>
      <trkpt lat="44.12526" lon="0.84074">
        <ele>108.400453</ele>
        <time>2022-12-29T16:35:11.910Z</time>
      </trkpt>
      <trkpt lat="44.12521" lon="0.84085">
        <ele>108.485524</ele>
        <time>2022-12-29T16:35:13.909Z</time>
      </trkpt>
      <trkpt lat="44.12517" lon="0.84097">
        <ele>108.571871</ele>
        <time>2022-12-29T16:35:15.909Z</time>
      </trkpt>
      <trkpt lat="44.12512" lon="0.84108">
        <ele>108.569559</ele>
        <time>2022-12-29T16:35:17.910Z</time>
      </trkpt>
      <trkpt lat="44.12507" lon="0.8412">
        <ele>108.492807</ele>
        <time>2022-12-29T16:35:19.913Z</time>
      </trkpt>
      <trkpt lat="44.125" lon="0.84135">
        <ele>108.389095</ele>
        <time>2022-12-29T16:35:22.914Z</time>
      </trkpt>
      <trkpt lat="44.12494" lon="0.8415">
        <ele>108.284309</ele>
        <time>2022-12-29T16:35:25.914Z</time>
      </trkpt>
      <trkpt lat="44.12488" lon="0.84161">
        <ele>108.209983</ele>
        <time>2022-12-29T16:35:27.910Z</time>
      </trkpt>
      <trkpt lat="44.12481" lon="0.84176">
        <ele>108.103703</ele>
        <time>2022-12-29T16:35:30.915Z</time>
      </trkpt>
      <trkpt lat="44.12473" lon="0.84192">
        <ele>107.996509</ele>
        <time>2022-12-29T16:35:33.911Z</time>
      </trkpt>
      <trkpt lat="44.12465" lon="0.84206">
        <ele>107.887951</ele>
        <time>2022-12-29T16:35:36.909Z</time>
      </trkpt>
      <trkpt lat="44.12457" lon="0.84221">
        <ele>107.783531</ele>
        <time>2022-12-29T16:35:39.913Z</time>
      </trkpt>
      <trkpt lat="44.12449" lon="0.84235">
        <ele>107.678616</ele>
        <time>2022-12-29T16:35:42.910Z</time>
      </trkpt>
      <trkpt lat="44.12442" lon="0.84248">
        <ele>107.581013</ele>
        <time>2022-12-29T16:35:45.910Z</time>
      </trkpt>
      <trkpt lat="44.12433" lon="0.84261">
        <ele>107.480107</ele>
        <time>2022-12-29T16:35:48.917Z</time>
      </trkpt>
      <trkpt lat="44.12424" lon="0.84273">
        <ele>107.379449</ele>
        <time>2022-12-29T16:35:51.915Z</time>
      </trkpt>
      <trkpt lat="44.12415" lon="0.84284">
        <ele>107.282762</ele>
        <time>2022-12-29T16:35:54.908Z</time>
      </trkpt>
      <trkpt lat="44.12406" lon="0.84296">
        <ele>107.178993</ele>
        <time>2022-12-29T16:35:57.915Z</time>
      </trkpt>
      <trkpt lat="44.12396" lon="0.84308">
        <ele>106.946143</ele>
        <time>2022-12-29T16:36:00.911Z</time>
      </trkpt>
      <trkpt lat="44.12388" lon="0.84317">
        <ele>106.75139</ele>
        <time>2022-12-29T16:36:02.909Z</time>
      </trkpt>
      <trkpt lat="44.12381" lon="0.84326">
        <ele>106.565301</ele>
        <time>2022-12-29T16:36:04.910Z</time>
      </trkpt>
      <trkpt lat="44.12373" lon="0.84334">
        <ele>106.369708</ele>
        <time>2022-12-29T16:36:06.913Z</time>
      </trkpt>
      <trkpt lat="44.12363" lon="0.84346">
        <ele>106.115321</ele>
        <time>2022-12-29T16:36:09.910Z</time>
      </trkpt>
      <trkpt lat="44.12356" lon="0.84355">
        <ele>105.92021</ele>
        <time>2022-12-29T16:36:11.923Z</time>
      </trkpt>
      <trkpt lat="44.12348" lon="0.84363">
        <ele>105.739729</ele>
        <time>2022-12-29T16:36:13.915Z</time>
      </trkpt>
      <trkpt lat="44.12341" lon="0.84372">
        <ele>105.554694</ele>
        <time>2022-12-29T16:36:15.915Z</time>
      </trkpt>
      <trkpt lat="44.12334" lon="0.84382">
        <ele>105.362303</ele>
        <time>2022-12-29T16:36:17.915Z</time>
      </trkpt>
      <trkpt lat="44.12327" lon="0.8439">
        <ele>105.183126</ele>
        <time>2022-12-29T16:36:19.910Z</time>
      </trkpt>
      <trkpt lat="44.1232" lon="0.84398">
        <ele>105.000243</ele>
        <time>2022-12-29T16:36:21.910Z</time>
      </trkpt>
      <trkpt lat="44.12312" lon="0.84408">
        <ele>104.783217</ele>
        <time>2022-12-29T16:36:23.911Z</time>
      </trkpt>
      <trkpt lat="44.12305" lon="0.84417">
        <ele>104.596734</ele>
        <time>2022-12-29T16:36:25.913Z</time>
      </trkpt>
      <trkpt lat="44.12297" lon="0.84426">
        <ele>104.411871</ele>
        <time>2022-12-29T16:36:27.914Z</time>
      </trkpt>
      <trkpt lat="44.12288" lon="0.84435">
        <ele>104.191241</ele>
        <time>2022-12-29T16:36:30.914Z</time>
      </trkpt>
      <trkpt lat="44.12281" lon="0.84444">
        <ele>104.00575</ele>
        <time>2022-12-29T16:36:33.917Z</time>
      </trkpt>
      <trkpt lat="44.12272" lon="0.84454">
        <ele>103.777916</ele>
        <time>2022-12-29T16:36:36.911Z</time>
      </trkpt>
      <trkpt lat="44.12261" lon="0.84465">
        <ele>103.680633</ele>
        <time>2022-12-29T16:36:39.911Z</time>
      </trkpt>
      <trkpt lat="44.12251" lon="0.84477">
        <ele>103.743498</ele>
        <time>2022-12-29T16:36:42.911Z</time>
      </trkpt>
      <trkpt lat="44.12243" lon="0.84487">
        <ele>103.796698</ele>
        <time>2022-12-29T16:36:45.915Z</time>
      </trkpt>
      <trkpt lat="44.12234" lon="0.84497">
        <ele>103.848734</ele>
        <time>2022-12-29T16:36:48.915Z</time>
      </trkpt>
      <trkpt lat="44.12226" lon="0.84506">
        <ele>103.897578</ele>
        <time>2022-12-29T16:36:51.916Z</time>
      </trkpt>
      <trkpt lat="44.12219" lon="0.84515">
        <ele>103.945398</ele>
        <time>2022-12-29T16:36:54.911Z</time>
      </trkpt>
      <trkpt lat="44.12211" lon="0.84524">
        <ele>103.993363</ele>
        <time>2022-12-29T16:36:57.919Z</time>
      </trkpt>
      <trkpt lat="44.12203" lon="0.84533">
        <ele>104.042061</ele>
        <time>2022-12-29T16:37:00.911Z</time>
      </trkpt>
      <trkpt lat="44.12196" lon="0.84542">
        <ele>104.085908</ele>
        <time>2022-12-29T16:37:03.917Z</time>
      </trkpt>
      <trkpt lat="44.12188" lon="0.84554">
        <ele>104.141085</ele>
        <time>2022-12-29T16:37:07.918Z</time>
      </trkpt>
      <trkpt lat="44.12182" lon="0.84564">
        <ele>104.184615</ele>
        <time>2022-12-29T16:37:11.916Z</time>
      </trkpt>
      <trkpt lat="44.12174" lon="0.84574">
        <ele>104.236325</ele>
        <time>2022-12-29T16:37:14.909Z</time>
      </trkpt>
      <trkpt lat="44.12165" lon="0.84585">
        <ele>104.293755</ele>
        <time>2022-12-29T16:37:17.917Z</time>
      </trkpt>
      <trkpt lat="44.12156" lon="0.84595">
        <ele>104.349789</ele>
        <time>2022-12-29T16:37:20.914Z</time>
      </trkpt>
      <trkpt lat="44.12148" lon="0.84608">
        <ele>104.404805</ele>
        <time>2022-12-29T16:37:23.913Z</time>
      </trkpt>
      <trkpt lat="44.12142" lon="0.84621">
        <ele>104.458693</ele>
        <time>2022-12-29T16:37:27.913Z</time>
      </trkpt>
      <trkpt lat="44.12134" lon="0.84632">
        <ele>104.501657</ele>
        <time>2022-12-29T16:37:31.911Z</time>
      </trkpt>
      <trkpt lat="44.12127" lon="0.8464">
        <ele>104.50546</ele>
        <time>2022-12-29T16:37:34.914Z</time>
      </trkpt>
      <trkpt lat="44.12119" lon="0.84648">
        <ele>104.509554</ele>
        <time>2022-12-29T16:37:37.914Z</time>
      </trkpt>
      <trkpt lat="44.12109" lon="0.84654">
        <ele>104.514319</ele>
        <time>2022-12-29T16:37:40.910Z</time>
      </trkpt>
      <trkpt lat="44.12098" lon="0.8466">
        <ele>104.51933</ele>
        <time>2022-12-29T16:37:43.920Z</time>
      </trkpt>
      <trkpt lat="44.12088" lon="0.84668">
        <ele>104.523859</ele>
        <time>2022-12-29T16:37:46.914Z</time>
      </trkpt>
      <trkpt lat="44.12079" lon="0.84679">
        <ele>104.528875</ele>
        <time>2022-12-29T16:37:49.913Z</time>
      </trkpt>
      <trkpt lat="44.1207" lon="0.84691">
        <ele>104.533924</ele>
        <time>2022-12-29T16:37:52.909Z</time>
      </trkpt>
      <trkpt lat="44.12064" lon="0.84699">
        <ele>104.537715</ele>
        <time>2022-12-29T16:37:55.914Z</time>
      </trkpt>
      <trkpt lat="44.12055" lon="0.84707">
        <ele>104.54198</ele>
        <time>2022-12-29T16:38:00.913Z</time>
      </trkpt>
      <trkpt lat="44.12047" lon="0.84718">
        <ele>104.546611</ele>
        <time>2022-12-29T16:38:04.912Z</time>
      </trkpt>
      <trkpt lat="44.1204" lon="0.84726">
        <ele>104.550497</ele>
        <time>2022-12-29T16:38:07.916Z</time>
      </trkpt>
      <trkpt lat="44.12032" lon="0.84736">
        <ele>104.55501</ele>
        <time>2022-12-29T16:38:10.915Z</time>
      </trkpt>
      <trkpt lat="44.12023" lon="0.84746">
        <ele>104.55951</ele>
        <time>2022-12-29T16:38:13.910Z</time>
      </trkpt>
      <trkpt lat="44.12015" lon="0.84757">
        <ele>104.564328</ele>
        <time>2022-12-29T16:38:16.911Z</time>
      </trkpt>
      <trkpt lat="44.12006" lon="0.84767">
        <ele>104.569021</ele>
        <time>2022-12-29T16:38:19.909Z</time>
      </trkpt>
      <trkpt lat="44.11996" lon="0.84777">
        <ele>104.574072</ele>
        <time>2022-12-29T16:38:23.911Z</time>
      </trkpt>
      <trkpt lat="44.11988" lon="0.84787">
        <ele>104.618834</ele>
        <time>2022-12-29T16:38:26.912Z</time>
      </trkpt>
      <trkpt lat="44.1198" lon="0.84797">
        <ele>104.692174</ele>
        <time>2022-12-29T16:38:29.912Z</time>
      </trkpt>
      <trkpt lat="44.1197" lon="0.84808">
        <ele>104.774301</ele>
        <time>2022-12-29T16:38:32.917Z</time>
      </trkpt>
      <trkpt lat="44.11961" lon="0.84818">
        <ele>104.849666</ele>
        <time>2022-12-29T16:38:35.916Z</time>
      </trkpt>
      <trkpt lat="44.11953" lon="0.84828">
        <ele>104.920182</ele>
        <time>2022-12-29T16:38:38.909Z</time>
      </trkpt>
      <trkpt lat="44.11945" lon="0.84837">
        <ele>104.985345</ele>
        <time>2022-12-29T16:38:41.917Z</time>
      </trkpt>
      <trkpt lat="44.11937" lon="0.84847">
        <ele>105.055194</ele>
        <time>2022-12-29T16:38:44.912Z</time>
      </trkpt>
      <trkpt lat="44.11928" lon="0.84858">
        <ele>105.136053</ele>
        <time>2022-12-29T16:38:47.913Z</time>
      </trkpt>
      <trkpt lat="44.11918" lon="0.8487">
        <ele>105.220586</ele>
        <time>2022-12-29T16:38:50.910Z</time>
      </trkpt>
      <trkpt lat="44.11908" lon="0.84881">
        <ele>105.30526</ele>
        <time>2022-12-29T16:38:53.915Z</time>
      </trkpt>
      <trkpt lat="44.11901" lon="0.84889">
        <ele>105.364431</ele>
        <time>2022-12-29T16:38:55.914Z</time>
      </trkpt>
      <trkpt lat="44.11894" lon="0.84897">
        <ele>105.423103</ele>
        <time>2022-12-29T16:38:57.910Z</time>
      </trkpt>
      <trkpt lat="44.11886" lon="0.84906">
        <ele>105.484373</ele>
        <time>2022-12-29T16:38:59.915Z</time>
      </trkpt>
      <trkpt lat="44.11879" lon="0.84915">
        <ele>105.546478</ele>
        <time>2022-12-29T16:39:01.914Z</time>
      </trkpt>
      <trkpt lat="44.1187" lon="0.84927">
        <ele>105.630214</ele>
        <time>2022-12-29T16:39:04.909Z</time>
      </trkpt>
      <trkpt lat="44.11861" lon="0.84937">
        <ele>105.70427</ele>
        <time>2022-12-29T16:39:07.918Z</time>
      </trkpt>
      <trkpt lat="44.11852" lon="0.84948">
        <ele>105.717138</ele>
        <time>2022-12-29T16:39:10.907Z</time>
      </trkpt>
      <trkpt lat="44.11842" lon="0.8496">
        <ele>105.652874</ele>
        <time>2022-12-29T16:39:13.915Z</time>
      </trkpt>
      <trkpt lat="44.11835" lon="0.8497">
        <ele>105.60563</ele>
        <time>2022-12-29T16:39:15.915Z</time>
      </trkpt>
      <trkpt lat="44.11829" lon="0.84979">
        <ele>105.561745</ele>
        <time>2022-12-29T16:39:17.913Z</time>
      </trkpt>
      <trkpt lat="44.11822" lon="0.84988">
        <ele>105.517528</ele>
        <time>2022-12-29T16:39:19.913Z</time>
      </trkpt>
      <trkpt lat="44.11817" lon="0.84997">
        <ele>105.473841</ele>
        <time>2022-12-29T16:39:21.913Z</time>
      </trkpt>
      <trkpt lat="44.1181" lon="0.85008">
        <ele>105.425476</ele>
        <time>2022-12-29T16:39:23.914Z</time>
      </trkpt>
      <trkpt lat="44.11804" lon="0.85018">
        <ele>105.38115</ele>
        <time>2022-12-29T16:39:25.914Z</time>
      </trkpt>
      <trkpt lat="44.11799" lon="0.85029">
        <ele>105.334251</ele>
        <time>2022-12-29T16:39:27.915Z</time>
      </trkpt>
      <trkpt lat="44.11793" lon="0.8504">
        <ele>105.285657</ele>
        <time>2022-12-29T16:39:29.915Z</time>
      </trkpt>
      <trkpt lat="44.11787" lon="0.85052">
        <ele>105.237283</ele>
        <time>2022-12-29T16:39:31.911Z</time>
      </trkpt>
      <trkpt lat="44.1178" lon="0.85067">
        <ele>105.172584</ele>
        <time>2022-12-29T16:39:34.915Z</time>
      </trkpt>
      <trkpt lat="44.11774" lon="0.85081">
        <ele>105.117312</ele>
        <time>2022-12-29T16:39:37.916Z</time>
      </trkpt>
      <trkpt lat="44.11768" lon="0.85094">
        <ele>105.06441</ele>
        <time>2022-12-29T16:39:40.911Z</time>
      </trkpt>
      <trkpt lat="44.11763" lon="0.85106">
        <ele>105.016026</ele>
        <time>2022-12-29T16:39:43.913Z</time>
      </trkpt>
      <trkpt lat="44.11758" lon="0.85122">
        <ele>104.954824</ele>
        <time>2022-12-29T16:39:46.910Z</time>
      </trkpt>
      <trkpt lat="44.11755" lon="0.85134">
        <ele>104.910361</ele>
        <time>2022-12-29T16:39:48.909Z</time>
      </trkpt>
      <trkpt lat="44.11749" lon="0.85151">
        <ele>104.86273</ele>
        <time>2022-12-29T16:39:51.913Z</time>
      </trkpt>
      <trkpt lat="44.11745" lon="0.85167">
        <ele>104.837665</ele>
        <time>2022-12-29T16:39:54.915Z</time>
      </trkpt>
      <trkpt lat="44.11741" lon="0.85182">
        <ele>104.815319</ele>
        <time>2022-12-29T16:39:57.917Z</time>
      </trkpt>
      <trkpt lat="44.11737" lon="0.85196">
        <ele>104.795208</ele>
        <time>2022-12-29T16:40:00.916Z</time>
      </trkpt>
      <trkpt lat="44.11734" lon="0.85208">
        <ele>104.776739</ele>
        <time>2022-12-29T16:40:03.915Z</time>
      </trkpt>
      <trkpt lat="44.11731" lon="0.85222">
        <ele>104.757624</ele>
        <time>2022-12-29T16:40:07.913Z</time>
      </trkpt>
      <trkpt lat="44.1173" lon="0.85235">
        <ele>104.738998</ele>
        <time>2022-12-29T16:40:21.924Z</time>
      </trkpt>
      <trkpt lat="44.11727" lon="0.85249">
        <ele>104.717759</ele>
        <time>2022-12-29T16:40:26.921Z</time>
      </trkpt>
      <trkpt lat="44.11725" lon="0.85264">
        <ele>104.696612</ele>
        <time>2022-12-29T16:40:30.909Z</time>
      </trkpt>
      <trkpt lat="44.11723" lon="0.85278">
        <ele>104.677426</ele>
        <time>2022-12-29T16:40:33.927Z</time>
      </trkpt>
      <trkpt lat="44.11722" lon="0.85292">
        <ele>104.657548</ele>
        <time>2022-12-29T16:40:36.910Z</time>
      </trkpt>
      <trkpt lat="44.1172" lon="0.85307">
        <ele>104.636094</ele>
        <time>2022-12-29T16:40:40.908Z</time>
      </trkpt>
      <trkpt lat="44.11719" lon="0.85321">
        <ele>104.616021</ele>
        <time>2022-12-29T16:40:44.910Z</time>
      </trkpt>
      <trkpt lat="44.11717" lon="0.85339">
        <ele>104.591824</ele>
        <time>2022-12-29T16:40:48.908Z</time>
      </trkpt>
      <trkpt lat="44.11716" lon="0.85354">
        <ele>104.570725</ele>
        <time>2022-12-29T16:40:51.912Z</time>
      </trkpt>
      <trkpt lat="44.11715" lon="0.85368">
        <ele>104.550569</ele>
        <time>2022-12-29T16:40:55.917Z</time>
      </trkpt>
      <trkpt lat="44.11712" lon="0.85381">
        <ele>104.531377</ele>
        <time>2022-12-29T16:40:58.909Z</time>
      </trkpt>
      <trkpt lat="44.11709" lon="0.85396">
        <ele>104.655279</ele>
        <time>2022-12-29T16:41:01.914Z</time>
      </trkpt>
      <trkpt lat="44.11706" lon="0.85412">
        <ele>104.868157</ele>
        <time>2022-12-29T16:41:04.910Z</time>
      </trkpt>
      <trkpt lat="44.11704" lon="0.85429">
        <ele>105.07965</ele>
        <time>2022-12-29T16:41:07.914Z</time>
      </trkpt>
      <trkpt lat="44.11702" lon="0.85446">
        <ele>105.295975</ele>
        <time>2022-12-29T16:41:10.916Z</time>
      </trkpt>
      <trkpt lat="44.11701" lon="0.85463">
        <ele>105.516577</ele>
        <time>2022-12-29T16:41:13.914Z</time>
      </trkpt>
      <trkpt lat="44.11699" lon="0.85481">
        <ele>105.742951</ele>
        <time>2022-12-29T16:41:16.910Z</time>
      </trkpt>
      <trkpt lat="44.11697" lon="0.85499">
        <ele>105.972871</ele>
        <time>2022-12-29T16:41:19.915Z</time>
      </trkpt>
      <trkpt lat="44.11695" lon="0.85513">
        <ele>106.159084</ele>
        <time>2022-12-29T16:41:21.912Z</time>
      </trkpt>
      <trkpt lat="44.11693" lon="0.85526">
        <ele>106.331897</ele>
        <time>2022-12-29T16:41:23.916Z</time>
      </trkpt>
      <trkpt lat="44.11691" lon="0.8554">
        <ele>106.503552</ele>
        <time>2022-12-29T16:41:25.918Z</time>
      </trkpt>
      <trkpt lat="44.1169" lon="0.85552">
        <ele>106.664827</ele>
        <time>2022-12-29T16:41:27.913Z</time>
      </trkpt>
      <trkpt lat="44.11688" lon="0.85565">
        <ele>106.826733</ele>
        <time>2022-12-29T16:41:29.914Z</time>
      </trkpt>
      <trkpt lat="44.11687" lon="0.85577">
        <ele>106.986844</ele>
        <time>2022-12-29T16:41:31.914Z</time>
      </trkpt>
      <trkpt lat="44.11685" lon="0.8559">
        <ele>107.150943</ele>
        <time>2022-12-29T16:41:33.913Z</time>
      </trkpt>
      <trkpt lat="44.11682" lon="0.85606">
        <ele>107.361765</ele>
        <time>2022-12-29T16:41:36.920Z</time>
      </trkpt>
      <trkpt lat="44.11681" lon="0.85622">
        <ele>107.567065</ele>
        <time>2022-12-29T16:41:39.914Z</time>
      </trkpt>
      <trkpt lat="44.11678" lon="0.8564">
        <ele>107.74483</ele>
        <time>2022-12-29T16:41:42.906Z</time>
      </trkpt>
      <trkpt lat="44.11676" lon="0.85653">
        <ele>107.81786</ele>
        <time>2022-12-29T16:41:44.911Z</time>
      </trkpt>
      <trkpt lat="44.11674" lon="0.85666">
        <ele>107.892437</ele>
        <time>2022-12-29T16:41:46.913Z</time>
      </trkpt>
      <trkpt lat="44.11672" lon="0.8568">
        <ele>107.972362</ele>
        <time>2022-12-29T16:41:48.915Z</time>
      </trkpt>
      <trkpt lat="44.11671" lon="0.85694">
        <ele>108.046132</ele>
        <time>2022-12-29T16:41:50.910Z</time>
      </trkpt>
      <trkpt lat="44.11669" lon="0.85707">
        <ele>108.119757</ele>
        <time>2022-12-29T16:41:52.914Z</time>
      </trkpt>
      <trkpt lat="44.11667" lon="0.8572">
        <ele>108.198042</ele>
        <time>2022-12-29T16:41:54.908Z</time>
      </trkpt>
      <trkpt lat="44.11665" lon="0.85734">
        <ele>108.273999</ele>
        <time>2022-12-29T16:41:56.921Z</time>
      </trkpt>
      <trkpt lat="44.11664" lon="0.85748">
        <ele>108.352715</ele>
        <time>2022-12-29T16:41:58.908Z</time>
      </trkpt>
      <trkpt lat="44.11662" lon="0.85761">
        <ele>108.428805</ele>
        <time>2022-12-29T16:42:00.909Z</time>
      </trkpt>
      <trkpt lat="44.1166" lon="0.85776">
        <ele>108.510841</ele>
        <time>2022-12-29T16:42:02.909Z</time>
      </trkpt>
      <trkpt lat="44.11659" lon="0.8579">
        <ele>108.592654</ele>
        <time>2022-12-29T16:42:04.908Z</time>
      </trkpt>
      <trkpt lat="44.11657" lon="0.85804">
        <ele>108.671065</ele>
        <time>2022-12-29T16:42:06.909Z</time>
      </trkpt>
      <trkpt lat="44.11655" lon="0.85818">
        <ele>108.748406</ele>
        <time>2022-12-29T16:42:08.918Z</time>
      </trkpt>
      <trkpt lat="44.11653" lon="0.85831">
        <ele>108.824679</ele>
        <time>2022-12-29T16:42:10.913Z</time>
      </trkpt>
      <trkpt lat="44.11651" lon="0.85845">
        <ele>108.899981</ele>
        <time>2022-12-29T16:42:12.910Z</time>
      </trkpt>
      <trkpt lat="44.1165" lon="0.85858">
        <ele>108.977048</ele>
        <time>2022-12-29T16:42:14.916Z</time>
      </trkpt>
      <trkpt lat="44.11648" lon="0.85872">
        <ele>109.052459</ele>
        <time>2022-12-29T16:42:16.916Z</time>
      </trkpt>
      <trkpt lat="44.11646" lon="0.85884">
        <ele>109.093539</ele>
        <time>2022-12-29T16:42:18.909Z</time>
      </trkpt>
      <trkpt lat="44.11644" lon="0.85902">
        <ele>109.094849</ele>
        <time>2022-12-29T16:42:21.913Z</time>
      </trkpt>
      <trkpt lat="44.11642" lon="0.85917">
        <ele>109.09596</ele>
        <time>2022-12-29T16:42:24.912Z</time>
      </trkpt>
      <trkpt lat="44.11639" lon="0.85934">
        <ele>109.097197</ele>
        <time>2022-12-29T16:42:27.912Z</time>
      </trkpt>
      <trkpt lat="44.11638" lon="0.85947">
        <ele>109.098143</ele>
        <time>2022-12-29T16:42:29.914Z</time>
      </trkpt>
      <trkpt lat="44.11636" lon="0.8596">
        <ele>109.09914</ele>
        <time>2022-12-29T16:42:31.916Z</time>
      </trkpt>
      <trkpt lat="44.11635" lon="0.85974">
        <ele>109.100177</ele>
        <time>2022-12-29T16:42:33.914Z</time>
      </trkpt>
      <trkpt lat="44.11634" lon="0.85988">
        <ele>109.101167</ele>
        <time>2022-12-29T16:42:35.916Z</time>
      </trkpt>
      <trkpt lat="44.11632" lon="0.86002">
        <ele>109.102183</ele>
        <time>2022-12-29T16:42:37.915Z</time>
      </trkpt>
      <trkpt lat="44.11631" lon="0.86015">
        <ele>109.103142</ele>
        <time>2022-12-29T16:42:39.918Z</time>
      </trkpt>
      <trkpt lat="44.11629" lon="0.86028">
        <ele>109.104124</ele>
        <time>2022-12-29T16:42:41.913Z</time>
      </trkpt>
      <trkpt lat="44.11627" lon="0.86042">
        <ele>109.105115</ele>
        <time>2022-12-29T16:42:43.913Z</time>
      </trkpt>
      <trkpt lat="44.11626" lon="0.86056">
        <ele>109.10614</ele>
        <time>2022-12-29T16:42:45.917Z</time>
      </trkpt>
      <trkpt lat="44.11624" lon="0.86069">
        <ele>109.10714</ele>
        <time>2022-12-29T16:42:47.910Z</time>
      </trkpt>
      <trkpt lat="44.11622" lon="0.86083">
        <ele>109.108168</ele>
        <time>2022-12-29T16:42:49.914Z</time>
      </trkpt>
      <trkpt lat="44.1162" lon="0.86097">
        <ele>109.109208</ele>
        <time>2022-12-29T16:42:51.919Z</time>
      </trkpt>
      <trkpt lat="44.11619" lon="0.8611">
        <ele>109.110158</ele>
        <time>2022-12-29T16:42:53.914Z</time>
      </trkpt>
      <trkpt lat="44.11617" lon="0.86124">
        <ele>109.111156</ele>
        <time>2022-12-29T16:42:55.915Z</time>
      </trkpt>
      <trkpt lat="44.11615" lon="0.86142">
        <ele>109.023562</ele>
        <time>2022-12-29T16:42:58.910Z</time>
      </trkpt>
      <trkpt lat="44.11613" lon="0.8616">
        <ele>108.928062</ele>
        <time>2022-12-29T16:43:01.912Z</time>
      </trkpt>
      <trkpt lat="44.11611" lon="0.86178">
        <ele>108.83335</ele>
        <time>2022-12-29T16:43:04.911Z</time>
      </trkpt>
      <trkpt lat="44.11609" lon="0.86193">
        <ele>108.753912</ele>
        <time>2022-12-29T16:43:07.912Z</time>
      </trkpt>
      <trkpt lat="44.11607" lon="0.86209">
        <ele>108.663476</ele>
        <time>2022-12-29T16:43:10.917Z</time>
      </trkpt>
      <trkpt lat="44.11605" lon="0.86226">
        <ele>108.573168</ele>
        <time>2022-12-29T16:43:13.918Z</time>
      </trkpt>
      <trkpt lat="44.11603" lon="0.86243">
        <ele>108.48286</ele>
        <time>2022-12-29T16:43:16.914Z</time>
      </trkpt>
      <trkpt lat="44.11601" lon="0.86261">
        <ele>108.389147</ele>
        <time>2022-12-29T16:43:19.909Z</time>
      </trkpt>
      <trkpt lat="44.11599" lon="0.86273">
        <ele>108.322292</ele>
        <time>2022-12-29T16:43:21.912Z</time>
      </trkpt>
      <trkpt lat="44.11597" lon="0.86291">
        <ele>108.227311</ele>
        <time>2022-12-29T16:43:24.911Z</time>
      </trkpt>
      <trkpt lat="44.11595" lon="0.86307">
        <ele>108.143872</ele>
        <time>2022-12-29T16:43:27.914Z</time>
      </trkpt>
      <trkpt lat="44.11593" lon="0.8632">
        <ele>108.072346</ele>
        <time>2022-12-29T16:43:30.910Z</time>
      </trkpt>
      <trkpt lat="44.11592" lon="0.86334">
        <ele>107.996539</ele>
        <time>2022-12-29T16:43:34.916Z</time>
      </trkpt>
      <trkpt lat="44.11591" lon="0.86348">
        <ele>107.925013</ele>
        <time>2022-12-29T16:43:40.914Z</time>
      </trkpt>
      <trkpt lat="44.11588" lon="0.86363">
        <ele>107.841303</ele>
        <time>2022-12-29T16:43:44.914Z</time>
      </trkpt>
      <trkpt lat="44.11586" lon="0.86377">
        <ele>107.814207</ele>
        <time>2022-12-29T16:43:47.913Z</time>
      </trkpt>
      <trkpt lat="44.11585" lon="0.86389">
        <ele>107.876924</ele>
        <time>2022-12-29T16:43:50.911Z</time>
      </trkpt>
      <trkpt lat="44.11583" lon="0.86404">
        <ele>107.953146</ele>
        <time>2022-12-29T16:43:54.914Z</time>
      </trkpt>
      <trkpt lat="44.11581" lon="0.86417">
        <ele>108.01871</ele>
        <time>2022-12-29T16:43:57.914Z</time>
      </trkpt>
      <trkpt lat="44.1158" lon="0.8643">
        <ele>108.084379</ele>
        <time>2022-12-29T16:44:00.913Z</time>
      </trkpt>
      <trkpt lat="44.11579" lon="0.86445">
        <ele>108.155917</ele>
        <time>2022-12-29T16:44:03.911Z</time>
      </trkpt>
      <trkpt lat="44.11579" lon="0.8646">
        <ele>108.23128</ele>
        <time>2022-12-29T16:44:06.915Z</time>
      </trkpt>
      <trkpt lat="44.11578" lon="0.86475">
        <ele>108.305125</ele>
        <time>2022-12-29T16:44:09.915Z</time>
      </trkpt>
      <trkpt lat="44.11577" lon="0.86489">
        <ele>108.379879</ele>
        <time>2022-12-29T16:44:12.912Z</time>
      </trkpt>
      <trkpt lat="44.11574" lon="0.86504">
        <ele>108.456015</ele>
        <time>2022-12-29T16:44:15.913Z</time>
      </trkpt>
      <trkpt lat="44.11571" lon="0.86518">
        <ele>108.52898</ele>
        <time>2022-12-29T16:44:18.909Z</time>
      </trkpt>
      <trkpt lat="44.11568" lon="0.86532">
        <ele>108.600768</ele>
        <time>2022-12-29T16:44:21.914Z</time>
      </trkpt>
      <trkpt lat="44.11566" lon="0.86547">
        <ele>108.678104</ele>
        <time>2022-12-29T16:44:24.948Z</time>
      </trkpt>
      <trkpt lat="44.11564" lon="0.86563">
        <ele>108.755546</ele>
        <time>2022-12-29T16:44:27.917Z</time>
      </trkpt>
      <trkpt lat="44.11562" lon="0.86576">
        <ele>108.825992</ele>
        <time>2022-12-29T16:44:30.915Z</time>
      </trkpt>
      <trkpt lat="44.1156" lon="0.86594">
        <ele>108.915093</ele>
        <time>2022-12-29T16:44:33.910Z</time>
      </trkpt>
      <trkpt lat="44.11559" lon="0.86609">
        <ele>108.992352</ele>
        <time>2022-12-29T16:44:36.909Z</time>
      </trkpt>
      <trkpt lat="44.11557" lon="0.86623">
        <ele>109.016078</ele>
        <time>2022-12-29T16:44:39.917Z</time>
      </trkpt>
      <trkpt lat="44.11555" lon="0.86636">
        <ele>108.924267</ele>
        <time>2022-12-29T16:44:42.911Z</time>
      </trkpt>
      <trkpt lat="44.11553" lon="0.86652">
        <ele>108.816304</ele>
        <time>2022-12-29T16:44:45.913Z</time>
      </trkpt>
      <trkpt lat="44.11551" lon="0.86669">
        <ele>108.703023</ele>
        <time>2022-12-29T16:44:48.915Z</time>
      </trkpt>
      <trkpt lat="44.11549" lon="0.86685">
        <ele>108.590262</ele>
        <time>2022-12-29T16:44:51.921Z</time>
      </trkpt>
      <trkpt lat="44.11547" lon="0.86703">
        <ele>108.472564</ele>
        <time>2022-12-29T16:44:54.911Z</time>
      </trkpt>
      <trkpt lat="44.11545" lon="0.8672">
        <ele>108.357815</ele>
        <time>2022-12-29T16:44:57.922Z</time>
      </trkpt>
      <trkpt lat="44.11543" lon="0.86735">
        <ele>108.251169</ele>
        <time>2022-12-29T16:45:00.914Z</time>
      </trkpt>
      <trkpt lat="44.1154" lon="0.86753">
        <ele>108.130476</ele>
        <time>2022-12-29T16:45:03.918Z</time>
      </trkpt>
      <trkpt lat="44.11539" lon="0.86765">
        <ele>108.046123</ele>
        <time>2022-12-29T16:45:05.915Z</time>
      </trkpt>
      <trkpt lat="44.11537" lon="0.86778">
        <ele>107.959931</ele>
        <time>2022-12-29T16:45:07.914Z</time>
      </trkpt>
      <trkpt lat="44.11535" lon="0.86794">
        <ele>107.850986</ele>
        <time>2022-12-29T16:45:10.914Z</time>
      </trkpt>
      <trkpt lat="44.11533" lon="0.86809">
        <ele>107.746586</ele>
        <time>2022-12-29T16:45:13.916Z</time>
      </trkpt>
      <trkpt lat="44.11531" lon="0.86825">
        <ele>107.640596</ele>
        <time>2022-12-29T16:45:16.917Z</time>
      </trkpt>
      <trkpt lat="44.11529" lon="0.86841">
        <ele>107.528846</ele>
        <time>2022-12-29T16:45:19.915Z</time>
      </trkpt>
      <trkpt lat="44.11527" lon="0.86858">
        <ele>107.414611</ele>
        <time>2022-12-29T16:45:22.913Z</time>
      </trkpt>
      <trkpt lat="44.11526" lon="0.8687">
        <ele>107.341573</ele>
        <time>2022-12-29T16:45:24.914Z</time>
      </trkpt>
      <trkpt lat="44.11524" lon="0.86889">
        <ele>107.263458</ele>
        <time>2022-12-29T16:45:27.913Z</time>
      </trkpt>
      <trkpt lat="44.11521" lon="0.86907">
        <ele>107.186213</ele>
        <time>2022-12-29T16:45:30.913Z</time>
      </trkpt>
      <trkpt lat="44.11519" lon="0.86924">
        <ele>107.115311</ele>
        <time>2022-12-29T16:45:33.914Z</time>
      </trkpt>
      <trkpt lat="44.11518" lon="0.86938">
        <ele>107.056779</ele>
        <time>2022-12-29T16:45:36.919Z</time>
      </trkpt>
      <trkpt lat="44.11515" lon="0.86952">
        <ele>106.997597</ele>
        <time>2022-12-29T16:45:39.914Z</time>
      </trkpt>
      <trkpt lat="44.11512" lon="0.86965">
        <ele>106.939061</ele>
        <time>2022-12-29T16:45:42.916Z</time>
      </trkpt>
      <trkpt lat="44.11508" lon="0.86981">
        <ele>106.869971</ele>
        <time>2022-12-29T16:45:45.914Z</time>
      </trkpt>
      <trkpt lat="44.11504" lon="0.86995">
        <ele>106.805987</ele>
        <time>2022-12-29T16:45:48.918Z</time>
      </trkpt>
      <trkpt lat="44.11501" lon="0.87009">
        <ele>106.746298</ele>
        <time>2022-12-29T16:45:51.917Z</time>
      </trkpt>
      <trkpt lat="44.11497" lon="0.87023">
        <ele>106.684456</ele>
        <time>2022-12-29T16:45:54.907Z</time>
      </trkpt>
      <trkpt lat="44.11493" lon="0.87036">
        <ele>106.625711</ele>
        <time>2022-12-29T16:45:57.913Z</time>
      </trkpt>
      <trkpt lat="44.1149" lon="0.87047">
        <ele>106.57358</ele>
        <time>2022-12-29T16:46:00.912Z</time>
      </trkpt>
      <trkpt lat="44.11484" lon="0.87059">
        <ele>106.515398</ele>
        <time>2022-12-29T16:46:03.917Z</time>
      </trkpt>
      <trkpt lat="44.11478" lon="0.87071">
        <ele>106.452238</ele>
        <time>2022-12-29T16:46:06.910Z</time>
      </trkpt>
      <trkpt lat="44.11471" lon="0.87084">
        <ele>106.3843</ele>
        <time>2022-12-29T16:46:09.916Z</time>
      </trkpt>
      <trkpt lat="44.11464" lon="0.87097">
        <ele>106.321467</ele>
        <time>2022-12-29T16:46:12.916Z</time>
      </trkpt>
      <trkpt lat="44.11458" lon="0.87111">
        <ele>106.38732</ele>
        <time>2022-12-29T16:46:15.915Z</time>
      </trkpt>
      <trkpt lat="44.11452" lon="0.87123">
        <ele>106.4478</ele>
        <time>2022-12-29T16:46:19.914Z</time>
      </trkpt>
      <trkpt lat="44.11444" lon="0.8713">
        <ele>106.502074</ele>
        <time>2022-12-29T16:46:24.906Z</time>
      </trkpt>
      <trkpt lat="44.11433" lon="0.87134">
        <ele>106.565454</ele>
        <time>2022-12-29T16:46:28.911Z</time>
      </trkpt>
      <trkpt lat="44.11425" lon="0.87137">
        <ele>106.618733</ele>
        <time>2022-12-29T16:46:31.918Z</time>
      </trkpt>
      <trkpt lat="44.11415" lon="0.87142">
        <ele>106.678038</ele>
        <time>2022-12-29T16:46:34.912Z</time>
      </trkpt>
      <trkpt lat="44.11406" lon="0.87147">
        <ele>106.734247</ele>
        <time>2022-12-29T16:46:37.916Z</time>
      </trkpt>
      <trkpt lat="44.11395" lon="0.87152">
        <ele>106.801716</ele>
        <time>2022-12-29T16:46:41.915Z</time>
      </trkpt>
      <trkpt lat="44.11386" lon="0.87156">
        <ele>106.853696</ele>
        <time>2022-12-29T16:46:44.917Z</time>
      </trkpt>
      <trkpt lat="44.11377" lon="0.8716">
        <ele>106.9091</ele>
        <time>2022-12-29T16:46:47.915Z</time>
      </trkpt>
      <trkpt lat="44.11367" lon="0.87163">
        <ele>106.969898</ele>
        <time>2022-12-29T16:46:50.912Z</time>
      </trkpt>
      <trkpt lat="44.11356" lon="0.87165">
        <ele>107.033238</ele>
        <time>2022-12-29T16:46:54.911Z</time>
      </trkpt>
      <trkpt lat="44.11345" lon="0.87167">
        <ele>107.09481</ele>
        <time>2022-12-29T16:46:58.912Z</time>
      </trkpt>
      <trkpt lat="44.11333" lon="0.87169">
        <ele>107.163513</ele>
        <time>2022-12-29T16:47:02.914Z</time>
      </trkpt>
      <trkpt lat="44.11324" lon="0.87171">
        <ele>107.219582</ele>
        <time>2022-12-29T16:47:05.916Z</time>
      </trkpt>
      <trkpt lat="44.11314" lon="0.87172">
        <ele>107.272478</ele>
        <time>2022-12-29T16:47:08.916Z</time>
      </trkpt>
      <trkpt lat="44.11304" lon="0.87175">
        <ele>107.332454</ele>
        <time>2022-12-29T16:47:11.918Z</time>
      </trkpt>
      <trkpt lat="44.11295" lon="0.87179">
        <ele>107.375594</ele>
        <time>2022-12-29T16:47:15.911Z</time>
      </trkpt>
      <trkpt lat="44.11283" lon="0.87177">
        <ele>107.4131</ele>
        <time>2022-12-29T16:47:20.911Z</time>
      </trkpt>
      <trkpt lat="44.11275" lon="0.87173">
        <ele>107.443551</ele>
        <time>2022-12-29T16:47:23.913Z</time>
      </trkpt>
      <trkpt lat="44.11265" lon="0.8717">
        <ele>107.474692</ele>
        <time>2022-12-29T16:47:26.910Z</time>
      </trkpt>
      <trkpt lat="44.11256" lon="0.87168">
        <ele>107.506375</ele>
        <time>2022-12-29T16:47:29.916Z</time>
      </trkpt>
      <trkpt lat="44.11246" lon="0.87167">
        <ele>107.540328</ele>
        <time>2022-12-29T16:47:32.911Z</time>
      </trkpt>
      <trkpt lat="44.11235" lon="0.87168">
        <ele>107.574988</ele>
        <time>2022-12-29T16:47:35.915Z</time>
      </trkpt>
      <trkpt lat="44.11225" lon="0.87171">
        <ele>107.608177</ele>
        <time>2022-12-29T16:47:38.910Z</time>
      </trkpt>
      <trkpt lat="44.11215" lon="0.87174">
        <ele>107.641521</ele>
        <time>2022-12-29T16:47:41.919Z</time>
      </trkpt>
      <trkpt lat="44.11206" lon="0.8718">
        <ele>107.676343</ele>
        <time>2022-12-29T16:47:44.910Z</time>
      </trkpt>
      <trkpt lat="44.11197" lon="0.87188">
        <ele>107.711534</ele>
        <time>2022-12-29T16:47:47.914Z</time>
      </trkpt>
      <trkpt lat="44.11188" lon="0.87195">
        <ele>107.744546</ele>
        <time>2022-12-29T16:47:50.913Z</time>
      </trkpt>
      <trkpt lat="44.1118" lon="0.87202">
        <ele>107.775943</ele>
        <time>2022-12-29T16:47:53.917Z</time>
      </trkpt>
      <trkpt lat="44.11171" lon="0.87211">
        <ele>107.812428</ele>
        <time>2022-12-29T16:47:56.915Z</time>
      </trkpt>
      <trkpt lat="44.11163" lon="0.87221">
        <ele>107.846673</ele>
        <time>2022-12-29T16:47:59.915Z</time>
      </trkpt>
      <trkpt lat="44.11156" lon="0.87232">
        <ele>107.882563</ele>
        <time>2022-12-29T16:48:02.915Z</time>
      </trkpt>
      <trkpt lat="44.11148" lon="0.87244">
        <ele>107.920322</ele>
        <time>2022-12-29T16:48:05.911Z</time>
      </trkpt>
      <trkpt lat="44.11142" lon="0.87256">
        <ele>107.952162</ele>
        <time>2022-12-29T16:48:08.917Z</time>
      </trkpt>
      <trkpt lat="44.11137" lon="0.87268">
        <ele>107.971642</ele>
        <time>2022-12-29T16:48:11.920Z</time>
      </trkpt>
      <trkpt lat="44.11132" lon="0.8728">
        <ele>107.992637</ele>
        <time>2022-12-29T16:48:14.913Z</time>
      </trkpt>
      <trkpt lat="44.11127" lon="0.87294">
        <ele>108.014793</ele>
        <time>2022-12-29T16:48:17.916Z</time>
      </trkpt>
      <trkpt lat="44.11123" lon="0.87306">
        <ele>108.034195</ele>
        <time>2022-12-29T16:48:21.915Z</time>
      </trkpt>
      <trkpt lat="44.11118" lon="0.87319">
        <ele>108.054099</ele>
        <time>2022-12-29T16:48:24.915Z</time>
      </trkpt>
      <trkpt lat="44.11112" lon="0.87333">
        <ele>108.076871</ele>
        <time>2022-12-29T16:48:27.917Z</time>
      </trkpt>
      <trkpt lat="44.11108" lon="0.87347">
        <ele>108.09929</ele>
        <time>2022-12-29T16:48:30.916Z</time>
      </trkpt>
      <trkpt lat="44.11102" lon="0.87359">
        <ele>108.119767</ele>
        <time>2022-12-29T16:48:33.915Z</time>
      </trkpt>
      <trkpt lat="44.11097" lon="0.87373">
        <ele>108.1426</ele>
        <time>2022-12-29T16:48:36.912Z</time>
      </trkpt>
      <trkpt lat="44.11091" lon="0.87387">
        <ele>108.164836</ele>
        <time>2022-12-29T16:48:39.912Z</time>
      </trkpt>
      <trkpt lat="44.11086" lon="0.874">
        <ele>108.187008</ele>
        <time>2022-12-29T16:48:42.913Z</time>
      </trkpt>
      <trkpt lat="44.11081" lon="0.87415">
        <ele>108.210161</ele>
        <time>2022-12-29T16:48:45.917Z</time>
      </trkpt>
      <trkpt lat="44.11076" lon="0.87428">
        <ele>108.230897</ele>
        <time>2022-12-29T16:48:48.914Z</time>
      </trkpt>
      <trkpt lat="44.1107" lon="0.87442">
        <ele>108.255112</ele>
        <time>2022-12-29T16:48:51.911Z</time>
      </trkpt>
      <trkpt lat="44.11065" lon="0.87454">
        <ele>108.274136</ele>
        <time>2022-12-29T16:48:54.916Z</time>
      </trkpt>
      <trkpt lat="44.11059" lon="0.87466">
        <ele>108.295059</ele>
        <time>2022-12-29T16:48:57.916Z</time>
      </trkpt>
      <trkpt lat="44.11052" lon="0.87482">
        <ele>108.367054</ele>
        <time>2022-12-29T16:49:00.914Z</time>
      </trkpt>
      <trkpt lat="44.11048" lon="0.87494">
        <ele>108.436322</ele>
        <time>2022-12-29T16:49:02.918Z</time>
      </trkpt>
      <trkpt lat="44.11041" lon="0.87509">
        <ele>108.533519</ele>
        <time>2022-12-29T16:49:05.917Z</time>
      </trkpt>
      <trkpt lat="44.11035" lon="0.87525">
        <ele>108.630802</ele>
        <time>2022-12-29T16:49:08.916Z</time>
      </trkpt>
      <trkpt lat="44.11029" lon="0.87541">
        <ele>108.722384</ele>
        <time>2022-12-29T16:49:11.919Z</time>
      </trkpt>
      <trkpt lat="44.11024" lon="0.87555">
        <ele>108.804901</ele>
        <time>2022-12-29T16:49:14.913Z</time>
      </trkpt>
      <trkpt lat="44.1102" lon="0.87569">
        <ele>108.885327</ele>
        <time>2022-12-29T16:49:17.917Z</time>
      </trkpt>
      <trkpt lat="44.11015" lon="0.87583">
        <ele>108.968302</ele>
        <time>2022-12-29T16:49:20.915Z</time>
      </trkpt>
      <trkpt lat="44.11009" lon="0.87599">
        <ele>109.061636</ele>
        <time>2022-12-29T16:49:23.914Z</time>
      </trkpt>
      <trkpt lat="44.11004" lon="0.87613">
        <ele>109.147809</ele>
        <time>2022-12-29T16:49:26.918Z</time>
      </trkpt>
      <trkpt lat="44.10997" lon="0.87628">
        <ele>109.243015</ele>
        <time>2022-12-29T16:49:29.918Z</time>
      </trkpt>
      <trkpt lat="44.1099" lon="0.87643">
        <ele>109.33479</ele>
        <time>2022-12-29T16:49:32.917Z</time>
      </trkpt>
      <trkpt lat="44.10984" lon="0.87659">
        <ele>109.431006</ele>
        <time>2022-12-29T16:49:35.917Z</time>
      </trkpt>
      <trkpt lat="44.10979" lon="0.87669">
        <ele>109.49863</ele>
        <time>2022-12-29T16:49:37.917Z</time>
      </trkpt>
      <trkpt lat="44.10973" lon="0.87681">
        <ele>109.573197</ele>
        <time>2022-12-29T16:49:39.912Z</time>
      </trkpt>
      <trkpt lat="44.10968" lon="0.87692">
        <ele>109.63075</ele>
        <time>2022-12-29T16:49:41.925Z</time>
      </trkpt>
      <trkpt lat="44.1096" lon="0.87706">
        <ele>109.613364</ele>
        <time>2022-12-29T16:49:44.914Z</time>
      </trkpt>
      <trkpt lat="44.10953" lon="0.87719">
        <ele>109.596659</ele>
        <time>2022-12-29T16:49:47.920Z</time>
      </trkpt>
      <trkpt lat="44.10947" lon="0.87734">
        <ele>109.579108</ele>
        <time>2022-12-29T16:49:50.916Z</time>
      </trkpt>
      <trkpt lat="44.10942" lon="0.87745">
        <ele>109.566572</ele>
        <time>2022-12-29T16:49:52.921Z</time>
      </trkpt>
      <trkpt lat="44.10938" lon="0.87756">
        <ele>109.554069</ele>
        <time>2022-12-29T16:49:54.915Z</time>
      </trkpt>
      <trkpt lat="44.10931" lon="0.87772">
        <ele>109.535697</ele>
        <time>2022-12-29T16:49:57.922Z</time>
      </trkpt>
      <trkpt lat="44.10926" lon="0.87787">
        <ele>109.519436</ele>
        <time>2022-12-29T16:50:00.912Z</time>
      </trkpt>
      <trkpt lat="44.10921" lon="0.87798">
        <ele>109.506207</ele>
        <time>2022-12-29T16:50:03.912Z</time>
      </trkpt>
      <trkpt lat="44.10916" lon="0.8781">
        <ele>109.491899</ele>
        <time>2022-12-29T16:50:06.927Z</time>
      </trkpt>
      <trkpt lat="44.1091" lon="0.87824">
        <ele>109.47621</ele>
        <time>2022-12-29T16:50:09.915Z</time>
      </trkpt>
      <trkpt lat="44.10905" lon="0.87838">
        <ele>109.46023</ele>
        <time>2022-12-29T16:50:12.918Z</time>
      </trkpt>
      <trkpt lat="44.10898" lon="0.87853">
        <ele>109.442896</ele>
        <time>2022-12-29T16:50:15.920Z</time>
      </trkpt>
      <trkpt lat="44.10892" lon="0.87868">
        <ele>109.425235</ele>
        <time>2022-12-29T16:50:18.910Z</time>
      </trkpt>
      <trkpt lat="44.10885" lon="0.87882">
        <ele>109.408558</ele>
        <time>2022-12-29T16:50:21.916Z</time>
      </trkpt>
      <trkpt lat="44.1088" lon="0.87895">
        <ele>109.393634</ele>
        <time>2022-12-29T16:50:24.917Z</time>
      </trkpt>
      <trkpt lat="44.10874" lon="0.8791">
        <ele>109.351593</ele>
        <time>2022-12-29T16:50:27.913Z</time>
      </trkpt>
      <trkpt lat="44.10868" lon="0.87924">
        <ele>109.271582</ele>
        <time>2022-12-29T16:50:30.924Z</time>
      </trkpt>
      <trkpt lat="44.10862" lon="0.87939">
        <ele>109.185785</ele>
        <time>2022-12-29T16:50:33.917Z</time>
      </trkpt>
      <trkpt lat="44.10856" lon="0.87952">
        <ele>109.109697</ele>
        <time>2022-12-29T16:50:36.919Z</time>
      </trkpt>
      <trkpt lat="44.10851" lon="0.87965">
        <ele>109.037877</ele>
        <time>2022-12-29T16:50:39.915Z</time>
      </trkpt>
      <trkpt lat="44.10846" lon="0.87979">
        <ele>108.957431</ele>
        <time>2022-12-29T16:50:43.916Z</time>
      </trkpt>
      <trkpt lat="44.10841" lon="0.8799">
        <ele>108.892372</ele>
        <time>2022-12-29T16:50:46.919Z</time>
      </trkpt>
      <trkpt lat="44.10837" lon="0.88002">
        <ele>108.828176</ele>
        <time>2022-12-29T16:50:49.913Z</time>
      </trkpt>
      <trkpt lat="44.10831" lon="0.88016">
        <ele>108.749028</ele>
        <time>2022-12-29T16:50:52.914Z</time>
      </trkpt>
      <trkpt lat="44.10825" lon="0.88029">
        <ele>108.670519</ele>
        <time>2022-12-29T16:50:55.915Z</time>
      </trkpt>
      <trkpt lat="44.10819" lon="0.88044">
        <ele>108.585837</ele>
        <time>2022-12-29T16:50:58.920Z</time>
      </trkpt>
      <trkpt lat="44.10815" lon="0.88055">
        <ele>108.522032</ele>
        <time>2022-12-29T16:51:00.915Z</time>
      </trkpt>
      <trkpt lat="44.10809" lon="0.8807">
        <ele>108.439608</ele>
        <time>2022-12-29T16:51:03.921Z</time>
      </trkpt>
      <trkpt lat="44.10803" lon="0.88083">
        <ele>108.363306</ele>
        <time>2022-12-29T16:51:06.914Z</time>
      </trkpt>
      <trkpt lat="44.10797" lon="0.88097">
        <ele>108.281823</ele>
        <time>2022-12-29T16:51:09.918Z</time>
      </trkpt>
      <trkpt lat="44.1079" lon="0.88112">
        <ele>108.193678</ele>
        <time>2022-12-29T16:51:12.917Z</time>
      </trkpt>
      <trkpt lat="44.10784" lon="0.88128">
        <ele>108.156409</ele>
        <time>2022-12-29T16:51:15.916Z</time>
      </trkpt>
      <trkpt lat="44.10778" lon="0.88143">
        <ele>108.204304</ele>
        <time>2022-12-29T16:51:18.909Z</time>
      </trkpt>
      <trkpt lat="44.10772" lon="0.88159">
        <ele>108.253033</ele>
        <time>2022-12-29T16:51:21.917Z</time>
      </trkpt>
      <trkpt lat="44.10766" lon="0.88174">
        <ele>108.298779</ele>
        <time>2022-12-29T16:51:24.917Z</time>
      </trkpt>
      <trkpt lat="44.10759" lon="0.88188">
        <ele>108.344585</ele>
        <time>2022-12-29T16:51:27.915Z</time>
      </trkpt>
      <trkpt lat="44.10754" lon="0.88202">
        <ele>108.388491</ele>
        <time>2022-12-29T16:51:30.913Z</time>
      </trkpt>
      <trkpt lat="44.10747" lon="0.88217">
        <ele>108.435421</ele>
        <time>2022-12-29T16:51:33.919Z</time>
      </trkpt>
      <trkpt lat="44.10741" lon="0.88232">
        <ele>108.483673</ele>
        <time>2022-12-29T16:51:36.923Z</time>
      </trkpt>
      <trkpt lat="44.10734" lon="0.88248">
        <ele>108.532668</ele>
        <time>2022-12-29T16:51:39.914Z</time>
      </trkpt>
      <trkpt lat="44.10728" lon="0.88264">
        <ele>108.582419</ele>
        <time>2022-12-29T16:51:42.915Z</time>
      </trkpt>
      <trkpt lat="44.10721" lon="0.88279">
        <ele>108.631225</ele>
        <time>2022-12-29T16:51:45.918Z</time>
      </trkpt>
      <trkpt lat="44.10715" lon="0.88294">
        <ele>108.677816</ele>
        <time>2022-12-29T16:51:48.918Z</time>
      </trkpt>
      <trkpt lat="44.10709" lon="0.88308">
        <ele>108.722193</ele>
        <time>2022-12-29T16:51:51.916Z</time>
      </trkpt>
      <trkpt lat="44.10704" lon="0.88321">
        <ele>108.760588</ele>
        <time>2022-12-29T16:51:54.913Z</time>
      </trkpt>
      <trkpt lat="44.107" lon="0.88332">
        <ele>108.795167</ele>
        <time>2022-12-29T16:51:57.917Z</time>
      </trkpt>
      <trkpt lat="44.10694" lon="0.88345">
        <ele>108.728863</ele>
        <time>2022-12-29T16:52:00.919Z</time>
      </trkpt>
      <trkpt lat="44.10689" lon="0.88358">
        <ele>108.52121</ele>
        <time>2022-12-29T16:52:03.917Z</time>
      </trkpt>
      <trkpt lat="44.10683" lon="0.88372">
        <ele>108.299504</ele>
        <time>2022-12-29T16:52:07.916Z</time>
      </trkpt>
      <trkpt lat="44.10678" lon="0.88385">
        <ele>108.1074</ele>
        <time>2022-12-29T16:52:10.915Z</time>
      </trkpt>
      <trkpt lat="44.10673" lon="0.88399">
        <ele>107.890986</ele>
        <time>2022-12-29T16:52:13.918Z</time>
      </trkpt>
      <trkpt lat="44.10667" lon="0.88413">
        <ele>107.679589</ele>
        <time>2022-12-29T16:52:16.912Z</time>
      </trkpt>
      <trkpt lat="44.1066" lon="0.88428">
        <ele>107.437076</ele>
        <time>2022-12-29T16:52:19.917Z</time>
      </trkpt>
      <trkpt lat="44.10655" lon="0.88441">
        <ele>107.228468</ele>
        <time>2022-12-29T16:52:22.915Z</time>
      </trkpt>
      <trkpt lat="44.1065" lon="0.88453">
        <ele>107.045812</ele>
        <time>2022-12-29T16:52:25.913Z</time>
      </trkpt>
      <trkpt lat="44.10644" lon="0.88467">
        <ele>106.83206</ele>
        <time>2022-12-29T16:52:29.918Z</time>
      </trkpt>
      <trkpt lat="44.10639" lon="0.8848">
        <ele>106.629204</ele>
        <time>2022-12-29T16:52:32.918Z</time>
      </trkpt>
      <trkpt lat="44.10633" lon="0.88493">
        <ele>106.4283</ele>
        <time>2022-12-29T16:52:35.922Z</time>
      </trkpt>
      <trkpt lat="44.10628" lon="0.88507">
        <ele>106.213367</ele>
        <time>2022-12-29T16:52:38.919Z</time>
      </trkpt>
      <trkpt lat="44.10623" lon="0.88519">
        <ele>106.027184</ele>
        <time>2022-12-29T16:52:41.918Z</time>
      </trkpt>
      <trkpt lat="44.10619" lon="0.8853">
        <ele>105.857867</ele>
        <time>2022-12-29T16:52:44.920Z</time>
      </trkpt>
      <trkpt lat="44.10614" lon="0.88541">
        <ele>105.687779</ele>
        <time>2022-12-29T16:52:47.915Z</time>
      </trkpt>
      <trkpt lat="44.10608" lon="0.88554">
        <ele>105.477492</ele>
        <time>2022-12-29T16:52:51.918Z</time>
      </trkpt>
      <trkpt lat="44.10603" lon="0.88566">
        <ele>105.355958</ele>
        <time>2022-12-29T16:52:55.917Z</time>
      </trkpt>
      <trkpt lat="44.10598" lon="0.88577">
        <ele>105.260138</ele>
        <time>2022-12-29T16:53:00.914Z</time>
      </trkpt>
      <trkpt lat="44.10593" lon="0.88589">
        <ele>105.14827</ele>
        <time>2022-12-29T16:53:05.917Z</time>
      </trkpt>
      <trkpt lat="44.10584" lon="0.88594">
        <ele>105.050796</ele>
        <time>2022-12-29T16:53:18.911Z</time>
      </trkpt>
      <trkpt lat="44.10581" lon="0.88596">
        <ele>105.010288</ele>
        <time>2022-12-29T16:54:54.928Z</time>
      </trkpt>
      <trkpt lat="44.10585" lon="0.88598">
        <ele>104.964565</ele>
        <time>2022-12-29T17:08:40.919Z</time>
      </trkpt>
      <trkpt lat="44.10571" lon="0.88587">
        <ele>104.795944</ele>
        <time>2022-12-29T17:13:09.052Z</time>
      </trkpt>
      <trkpt lat="44.10563" lon="0.88579">
        <ele>104.687799</ele>
        <time>2022-12-29T17:13:16.049Z</time>
      </trkpt>
      <trkpt lat="44.10557" lon="0.88569">
        <ele>104.591374</ele>
        <time>2022-12-29T17:13:31.051Z</time>
      </trkpt>
      <trkpt lat="44.10548" lon="0.88563">
        <ele>104.481044</ele>
        <time>2022-12-29T17:13:39.050Z</time>
      </trkpt>
      <trkpt lat="44.10542" lon="0.88576">
        <ele>104.364305</ele>
        <time>2022-12-29T17:13:44.033Z</time>
      </trkpt>
      <trkpt lat="44.10544" lon="0.88591">
        <ele>104.247617</ele>
        <time>2022-12-29T17:13:49.052Z</time>
      </trkpt>
      <trkpt lat="44.10548" lon="0.88605">
        <ele>104.135873</ele>
        <time>2022-12-29T17:13:54.050Z</time>
      </trkpt>
      <trkpt lat="44.10555" lon="0.88614">
        <ele>104.030732</ele>
        <time>2022-12-29T17:13:59.040Z</time>
      </trkpt>
      <trkpt lat="44.10564" lon="0.88619">
        <ele>103.933951</ele>
        <time>2022-12-29T17:14:04.051Z</time>
      </trkpt>
      <trkpt lat="44.10573" lon="0.88621">
        <ele>103.834877</ele>
        <time>2022-12-29T17:14:10.058Z</time>
      </trkpt>
      <trkpt lat="44.10579" lon="0.88632">
        <ele>103.727239</ele>
        <time>2022-12-29T17:14:16.056Z</time>
      </trkpt>
      <trkpt lat="44.10585" lon="0.88643">
        <ele>103.627323</ele>
        <time>2022-12-29T17:14:21.049Z</time>
      </trkpt>
      <trkpt lat="44.10589" lon="0.88656">
        <ele>103.55212</ele>
        <time>2022-12-29T17:14:27.037Z</time>
      </trkpt>
      <trkpt lat="44.10594" lon="0.88669">
        <ele>103.67803</ele>
        <time>2022-12-29T17:14:32.046Z</time>
      </trkpt>
      <trkpt lat="44.10598" lon="0.88684">
        <ele>103.80759</ele>
        <time>2022-12-29T17:14:36.049Z</time>
      </trkpt>
      <trkpt lat="44.10604" lon="0.88695">
        <ele>103.928961</ele>
        <time>2022-12-29T17:14:40.039Z</time>
      </trkpt>
      <trkpt lat="44.10609" lon="0.88708">
        <ele>104.048434</ele>
        <time>2022-12-29T17:14:44.052Z</time>
      </trkpt>
      <trkpt lat="44.10615" lon="0.8872">
        <ele>104.170342</ele>
        <time>2022-12-29T17:14:48.051Z</time>
      </trkpt>
      <trkpt lat="44.10622" lon="0.88731">
        <ele>104.295406</ele>
        <time>2022-12-29T17:14:52.055Z</time>
      </trkpt>
      <trkpt lat="44.1063" lon="0.88742">
        <ele>104.419712</ele>
        <time>2022-12-29T17:14:55.051Z</time>
      </trkpt>
      <trkpt lat="44.10638" lon="0.88754">
        <ele>104.558251</ele>
        <time>2022-12-29T17:14:58.051Z</time>
      </trkpt>
      <trkpt lat="44.10645" lon="0.88763">
        <ele>104.674324</ele>
        <time>2022-12-29T17:15:00.038Z</time>
      </trkpt>
      <trkpt lat="44.10652" lon="0.88772">
        <ele>104.784383</ele>
        <time>2022-12-29T17:15:02.053Z</time>
      </trkpt>
      <trkpt lat="44.10659" lon="0.88781">
        <ele>104.892462</ele>
        <time>2022-12-29T17:15:04.049Z</time>
      </trkpt>
      <trkpt lat="44.10666" lon="0.88789">
        <ele>104.997467</ele>
        <time>2022-12-29T17:15:06.049Z</time>
      </trkpt>
      <trkpt lat="44.10674" lon="0.888">
        <ele>105.132375</ele>
        <time>2022-12-29T17:15:09.051Z</time>
      </trkpt>
      <trkpt lat="44.10682" lon="0.88811">
        <ele>105.257186</ele>
        <time>2022-12-29T17:15:13.054Z</time>
      </trkpt>
      <trkpt lat="44.10689" lon="0.88822">
        <ele>105.382137</ele>
        <time>2022-12-29T17:15:17.054Z</time>
      </trkpt>
      <trkpt lat="44.10691" lon="0.88835">
        <ele>105.48698</ele>
        <time>2022-12-29T17:15:21.064Z</time>
      </trkpt>
      <trkpt lat="44.10688" lon="0.88848">
        <ele>105.599962</ele>
        <time>2022-12-29T17:15:25.040Z</time>
      </trkpt>
      <trkpt lat="44.10688" lon="0.88861">
        <ele>105.629216</ele>
        <time>2022-12-29T17:15:29.051Z</time>
      </trkpt>
      <trkpt lat="44.10688" lon="0.88877">
        <ele>105.64179</ele>
        <time>2022-12-29T17:15:33.051Z</time>
      </trkpt>
      <trkpt lat="44.10685" lon="0.88892">
        <ele>105.653681</ele>
        <time>2022-12-29T17:15:37.049Z</time>
      </trkpt>
      <trkpt lat="44.1068" lon="0.88906">
        <ele>105.665872</ele>
        <time>2022-12-29T17:15:41.030Z</time>
      </trkpt>
      <trkpt lat="44.10675" lon="0.88921">
        <ele>105.678666</ele>
        <time>2022-12-29T17:15:45.055Z</time>
      </trkpt>
      <trkpt lat="44.10667" lon="0.8893">
        <ele>105.689618</ele>
        <time>2022-12-29T17:15:49.063Z</time>
      </trkpt>
      <trkpt lat="44.10661" lon="0.88939">
        <ele>105.699507</ele>
        <time>2022-12-29T17:15:52.061Z</time>
      </trkpt>
      <trkpt lat="44.10652" lon="0.88951">
        <ele>105.712553</ele>
        <time>2022-12-29T17:15:55.050Z</time>
      </trkpt>
      <trkpt lat="44.10643" lon="0.88957">
        <ele>105.723689</ele>
        <time>2022-12-29T17:15:58.048Z</time>
      </trkpt>
      <trkpt lat="44.10633" lon="0.88969">
        <ele>105.737666</ele>
        <time>2022-12-29T17:16:01.050Z</time>
      </trkpt>
      <trkpt lat="44.10627" lon="0.88984">
        <ele>105.751435</ele>
        <time>2022-12-29T17:16:04.052Z</time>
      </trkpt>
      <trkpt lat="44.10623" lon="0.88997">
        <ele>105.762622</ele>
        <time>2022-12-29T17:16:07.051Z</time>
      </trkpt>
      <trkpt lat="44.10618" lon="0.89011">
        <ele>105.774446</ele>
        <time>2022-12-29T17:16:10.050Z</time>
      </trkpt>
      <trkpt lat="44.10613" lon="0.89024">
        <ele>105.785656</ele>
        <time>2022-12-29T17:16:13.049Z</time>
      </trkpt>
      <trkpt lat="44.10609" lon="0.8904">
        <ele>105.798898</ele>
        <time>2022-12-29T17:16:16.051Z</time>
      </trkpt>
      <trkpt lat="44.10605" lon="0.89052">
        <ele>105.809619</ele>
        <time>2022-12-29T17:16:18.048Z</time>
      </trkpt>
      <trkpt lat="44.10602" lon="0.89066">
        <ele>105.920674</ele>
        <time>2022-12-29T17:16:20.052Z</time>
      </trkpt>
      <trkpt lat="44.10597" lon="0.89083">
        <ele>106.214126</ele>
        <time>2022-12-29T17:16:23.047Z</time>
      </trkpt>
      <trkpt lat="44.10592" lon="0.89097">
        <ele>106.449238</ele>
        <time>2022-12-29T17:16:25.049Z</time>
      </trkpt>
      <trkpt lat="44.10586" lon="0.89114">
        <ele>106.742502</ele>
        <time>2022-12-29T17:16:28.049Z</time>
      </trkpt>
      <trkpt lat="44.1058" lon="0.89128">
        <ele>106.996827</ele>
        <time>2022-12-29T17:16:31.028Z</time>
      </trkpt>
      <trkpt lat="44.10578" lon="0.89141">
        <ele>107.20446</ele>
        <time>2022-12-29T17:16:34.060Z</time>
      </trkpt>
      <trkpt lat="44.10576" lon="0.89154">
        <ele>107.40561</ele>
        <time>2022-12-29T17:16:37.048Z</time>
      </trkpt>
      <trkpt lat="44.10574" lon="0.89168">
        <ele>107.620595</ele>
        <time>2022-12-29T17:16:40.049Z</time>
      </trkpt>
      <trkpt lat="44.10573" lon="0.89182">
        <ele>107.845501</ele>
        <time>2022-12-29T17:16:44.042Z</time>
      </trkpt>
      <trkpt lat="44.10571" lon="0.89195">
        <ele>108.047626</ele>
        <time>2022-12-29T17:16:47.036Z</time>
      </trkpt>
      <trkpt lat="44.10568" lon="0.89206">
        <ele>108.244665</ele>
        <time>2022-12-29T17:16:50.056Z</time>
      </trkpt>
      <trkpt lat="44.10564" lon="0.8922">
        <ele>108.47221</ele>
        <time>2022-12-29T17:16:53.044Z</time>
      </trkpt>
      <trkpt lat="44.10552" lon="0.8923">
        <ele>108.776373</ele>
        <time>2022-12-29T17:16:56.048Z</time>
      </trkpt>
      <trkpt lat="44.10543" lon="0.89238">
        <ele>108.994685</ele>
        <time>2022-12-29T17:16:58.056Z</time>
      </trkpt>
      <trkpt lat="44.10534" lon="0.89245">
        <ele>109.220512</ele>
        <time>2022-12-29T17:17:00.034Z</time>
      </trkpt>
      <trkpt lat="44.10523" lon="0.89251">
        <ele>109.479092</ele>
        <time>2022-12-29T17:17:03.048Z</time>
      </trkpt>
      <trkpt lat="44.10514" lon="0.89256">
        <ele>109.697884</ele>
        <time>2022-12-29T17:17:07.050Z</time>
      </trkpt>
      <trkpt lat="44.10503" lon="0.89258">
        <ele>109.722253</ele>
        <time>2022-12-29T17:17:11.051Z</time>
      </trkpt>
      <trkpt lat="44.10492" lon="0.89258">
        <ele>109.736128</ele>
        <time>2022-12-29T17:17:15.057Z</time>
      </trkpt>
      <trkpt lat="44.10483" lon="0.89258">
        <ele>109.747407</ele>
        <time>2022-12-29T17:17:18.050Z</time>
      </trkpt>
      <trkpt lat="44.10472" lon="0.89257">
        <ele>109.761177</ele>
        <time>2022-12-29T17:17:22.125Z</time>
      </trkpt>
      <trkpt lat="44.1046" lon="0.89257">
        <ele>109.775795</ele>
        <time>2022-12-29T17:17:26.053Z</time>
      </trkpt>
      <trkpt lat="44.10448" lon="0.89257">
        <ele>109.789923</ele>
        <time>2022-12-29T17:17:30.052Z</time>
      </trkpt>
      <trkpt lat="44.10438" lon="0.89257">
        <ele>109.802683</ele>
        <time>2022-12-29T17:17:34.056Z</time>
      </trkpt>
      <trkpt lat="44.10428" lon="0.89257">
        <ele>109.814576</ele>
        <time>2022-12-29T17:17:38.048Z</time>
      </trkpt>
      <trkpt lat="44.10419" lon="0.89258">
        <ele>109.826609</ele>
        <time>2022-12-29T17:17:42.046Z</time>
      </trkpt>
      <trkpt lat="44.10409" lon="0.89258">
        <ele>109.838378</ele>
        <time>2022-12-29T17:17:46.054Z</time>
      </trkpt>
      <trkpt lat="44.104" lon="0.89258">
        <ele>109.849653</ele>
        <time>2022-12-29T17:17:50.047Z</time>
      </trkpt>
      <trkpt lat="44.1039" lon="0.89257">
        <ele>109.862334</ele>
        <time>2022-12-29T17:17:54.048Z</time>
      </trkpt>
      <trkpt lat="44.1038" lon="0.89256">
        <ele>109.874248</ele>
        <time>2022-12-29T17:17:58.033Z</time>
      </trkpt>
      <trkpt lat="44.10369" lon="0.89256">
        <ele>109.887878</ele>
        <time>2022-12-29T17:18:02.044Z</time>
      </trkpt>
      <trkpt lat="44.10358" lon="0.89256">
        <ele>109.901382</ele>
        <time>2022-12-29T17:18:06.064Z</time>
      </trkpt>
      <trkpt lat="44.10347" lon="0.89256">
        <ele>109.915753</ele>
        <time>2022-12-29T17:18:10.051Z</time>
      </trkpt>
      <trkpt lat="44.10337" lon="0.89255">
        <ele>109.927658</ele>
        <time>2022-12-29T17:18:13.048Z</time>
      </trkpt>
      <trkpt lat="44.10328" lon="0.89255">
        <ele>109.898766</ele>
        <time>2022-12-29T17:18:16.042Z</time>
      </trkpt>
      <trkpt lat="44.10317" lon="0.89255">
        <ele>109.833836</ele>
        <time>2022-12-29T17:18:20.050Z</time>
      </trkpt>
      <trkpt lat="44.10306" lon="0.89256">
        <ele>109.7622</ele>
        <time>2022-12-29T17:18:24.055Z</time>
      </trkpt>
      <trkpt lat="44.10296" lon="0.89255">
        <ele>109.703325</ele>
        <time>2022-12-29T17:18:27.049Z</time>
      </trkpt>
      <trkpt lat="44.10286" lon="0.89256">
        <ele>109.646271</ele>
        <time>2022-12-29T17:18:30.051Z</time>
      </trkpt>
      <trkpt lat="44.10275" lon="0.89255">
        <ele>109.577089</ele>
        <time>2022-12-29T17:18:34.037Z</time>
      </trkpt>
      <trkpt lat="44.10265" lon="0.89254">
        <ele>109.516145</ele>
        <time>2022-12-29T17:18:38.053Z</time>
      </trkpt>
      <trkpt lat="44.10255" lon="0.89251">
        <ele>109.451515</ele>
        <time>2022-12-29T17:18:42.064Z</time>
      </trkpt>
      <trkpt lat="44.10244" lon="0.89251">
        <ele>109.38718</ele>
        <time>2022-12-29T17:18:46.036Z</time>
      </trkpt>
      <trkpt lat="44.10235" lon="0.89251">
        <ele>109.331954</ele>
        <time>2022-12-29T17:18:50.038Z</time>
      </trkpt>
      <trkpt lat="44.10225" lon="0.8925">
        <ele>109.273642</ele>
        <time>2022-12-29T17:18:54.033Z</time>
      </trkpt>
      <trkpt lat="44.10215" lon="0.89251">
        <ele>109.212256</ele>
        <time>2022-12-29T17:18:58.047Z</time>
      </trkpt>
      <trkpt lat="44.10205" lon="0.8925">
        <ele>109.152125</ele>
        <time>2022-12-29T17:19:02.047Z</time>
      </trkpt>
      <trkpt lat="44.10195" lon="0.89248">
        <ele>109.08904</ele>
        <time>2022-12-29T17:19:06.048Z</time>
      </trkpt>
      <trkpt lat="44.10185" lon="0.89242">
        <ele>109.025246</ele>
        <time>2022-12-29T17:19:10.050Z</time>
      </trkpt>
      <trkpt lat="44.10176" lon="0.89236">
        <ele>108.961561</ele>
        <time>2022-12-29T17:19:14.059Z</time>
      </trkpt>
      <trkpt lat="44.10168" lon="0.89229">
        <ele>108.905253</ele>
        <time>2022-12-29T17:19:17.047Z</time>
      </trkpt>
      <trkpt lat="44.10161" lon="0.89219">
        <ele>108.843281</ele>
        <time>2022-12-29T17:19:20.051Z</time>
      </trkpt>
      <trkpt lat="44.10154" lon="0.89209">
        <ele>108.548031</ele>
        <time>2022-12-29T17:19:23.028Z</time>
      </trkpt>
      <trkpt lat="44.10147" lon="0.89197">
        <ele>108.229037</ele>
        <time>2022-12-29T17:19:26.044Z</time>
      </trkpt>
      <trkpt lat="44.10142" lon="0.89184">
        <ele>107.913038</ele>
        <time>2022-12-29T17:19:29.037Z</time>
      </trkpt>
      <trkpt lat="44.10137" lon="0.8917">
        <ele>107.575477</ele>
        <time>2022-12-29T17:19:32.057Z</time>
      </trkpt>
      <trkpt lat="44.10133" lon="0.89155">
        <ele>107.239829</ele>
        <time>2022-12-29T17:19:35.037Z</time>
      </trkpt>
      <trkpt lat="44.10129" lon="0.89141">
        <ele>106.910115</ele>
        <time>2022-12-29T17:19:38.049Z</time>
      </trkpt>
      <trkpt lat="44.10125" lon="0.89128">
        <ele>106.607477</ele>
        <time>2022-12-29T17:19:41.050Z</time>
      </trkpt>
      <trkpt lat="44.10121" lon="0.89115">
        <ele>106.307941</ele>
        <time>2022-12-29T17:19:44.040Z</time>
      </trkpt>
      <trkpt lat="44.10117" lon="0.89102">
        <ele>106.019629</ele>
        <time>2022-12-29T17:19:47.051Z</time>
      </trkpt>
      <trkpt lat="44.10115" lon="0.89089">
        <ele>105.71975</ele>
        <time>2022-12-29T17:19:51.053Z</time>
      </trkpt>
      <trkpt lat="44.1011" lon="0.89077">
        <ele>105.428472</ele>
        <time>2022-12-29T17:19:55.049Z</time>
      </trkpt>
      <trkpt lat="44.10105" lon="0.89064">
        <ele>105.120181</ele>
        <time>2022-12-29T17:20:00.046Z</time>
      </trkpt>
      <trkpt lat="44.10097" lon="0.89053">
        <ele>104.793365</ele>
        <time>2022-12-29T17:20:16.053Z</time>
      </trkpt>
      <trkpt lat="44.10088" lon="0.8905">
        <ele>104.525397</ele>
        <time>2022-12-29T17:20:20.040Z</time>
      </trkpt>
      <trkpt lat="44.10078" lon="0.89054">
        <ele>104.213341</ele>
        <time>2022-12-29T17:20:24.032Z</time>
      </trkpt>
      <trkpt lat="44.10069" lon="0.89056">
        <ele>103.938488</ele>
        <time>2022-12-29T17:20:27.051Z</time>
      </trkpt>
      <trkpt lat="44.10058" lon="0.89053">
        <ele>103.603247</ele>
        <time>2022-12-29T17:20:30.049Z</time>
      </trkpt>
      <trkpt lat="44.10045" lon="0.89049">
        <ele>103.399457</ele>
        <time>2022-12-29T17:20:33.033Z</time>
      </trkpt>
      <trkpt lat="44.10036" lon="0.89047">
        <ele>103.303554</ele>
        <time>2022-12-29T17:20:35.049Z</time>
      </trkpt>
      <trkpt lat="44.10026" lon="0.89044">
        <ele>103.199495</ele>
        <time>2022-12-29T17:20:37.032Z</time>
      </trkpt>
      <trkpt lat="44.10016" lon="0.89041">
        <ele>103.100917</ele>
        <time>2022-12-29T17:20:39.040Z</time>
      </trkpt>
      <trkpt lat="44.10006" lon="0.89039">
        <ele>103.00376</ele>
        <time>2022-12-29T17:20:41.056Z</time>
      </trkpt>
      <trkpt lat="44.09997" lon="0.89036">
        <ele>102.901606</ele>
        <time>2022-12-29T17:20:43.051Z</time>
      </trkpt>
      <trkpt lat="44.09984" lon="0.89033">
        <ele>102.77059</ele>
        <time>2022-12-29T17:20:46.045Z</time>
      </trkpt>
      <trkpt lat="44.09971" lon="0.89031">
        <ele>102.640169</ele>
        <time>2022-12-29T17:20:49.059Z</time>
      </trkpt>
      <trkpt lat="44.09959" lon="0.89029">
        <ele>102.520049</ele>
        <time>2022-12-29T17:20:52.060Z</time>
      </trkpt>
      <trkpt lat="44.09948" lon="0.89027">
        <ele>102.409721</ele>
        <time>2022-12-29T17:20:55.053Z</time>
      </trkpt>
      <trkpt lat="44.09938" lon="0.89026">
        <ele>102.306998</ele>
        <time>2022-12-29T17:20:58.055Z</time>
      </trkpt>
      <trkpt lat="44.09928" lon="0.89024">
        <ele>102.207064</ele>
        <time>2022-12-29T17:21:01.060Z</time>
      </trkpt>
      <trkpt lat="44.09919" lon="0.89023">
        <ele>102.116516</ele>
        <time>2022-12-29T17:21:04.061Z</time>
      </trkpt>
      <trkpt lat="44.09909" lon="0.89021">
        <ele>102.02074</ele>
        <time>2022-12-29T17:21:07.041Z</time>
      </trkpt>
      <trkpt lat="44.099" lon="0.89019">
        <ele>101.92002</ele>
        <time>2022-12-29T17:21:10.040Z</time>
      </trkpt>
      <trkpt lat="44.09889" lon="0.89016">
        <ele>101.816441</ele>
        <time>2022-12-29T17:21:13.054Z</time>
      </trkpt>
      <trkpt lat="44.0988" lon="0.89015">
        <ele>101.72548</ele>
        <time>2022-12-29T17:21:16.059Z</time>
      </trkpt>
      <trkpt lat="44.09871" lon="0.89013">
        <ele>101.690604</ele>
        <time>2022-12-29T17:21:20.035Z</time>
      </trkpt>
      <trkpt lat="44.0986" lon="0.89009">
        <ele>101.690604</ele>
        <time>2022-12-29T17:21:24.039Z</time>
      </trkpt>
      <trkpt lat="44.09851" lon="0.89007">
        <ele>101.690604</ele>
        <time>2022-12-29T17:21:27.054Z</time>
      </trkpt>
      <trkpt lat="44.09841" lon="0.89005">
        <ele>101.690604</ele>
        <time>2022-12-29T17:21:30.067Z</time>
      </trkpt>
      <trkpt lat="44.09832" lon="0.89003">
        <ele>101.690604</ele>
        <time>2022-12-29T17:21:33.051Z</time>
      </trkpt>
      <trkpt lat="44.09821" lon="0.89001">
        <ele>101.690604</ele>
        <time>2022-12-29T17:21:37.052Z</time>
      </trkpt>
      <trkpt lat="44.0981" lon="0.88998">
        <ele>101.690604</ele>
        <time>2022-12-29T17:21:41.068Z</time>
      </trkpt>
      <trkpt lat="44.09802" lon="0.89004">
        <ele>101.690604</ele>
        <time>2022-12-29T17:21:56.076Z</time>
      </trkpt>
      <trkpt lat="44.09793" lon="0.89001">
        <ele>101.690604</ele>
        <time>2022-12-29T17:22:07.056Z</time>
      </trkpt>
      <trkpt lat="44.09784" lon="0.88997">
        <ele>101.690604</ele>
        <time>2022-12-29T17:22:12.081Z</time>
      </trkpt>
      <trkpt lat="44.09773" lon="0.88994">
        <ele>101.690604</ele>
        <time>2022-12-29T17:22:17.037Z</time>
      </trkpt>
      <trkpt lat="44.09762" lon="0.88992">
        <ele>101.690604</ele>
        <time>2022-12-29T17:22:21.051Z</time>
      </trkpt>
      <trkpt lat="44.09752" lon="0.88989">
        <ele>101.690604</ele>
        <time>2022-12-29T17:22:24.053Z</time>
      </trkpt>
      <trkpt lat="44.09742" lon="0.88986">
        <ele>101.690604</ele>
        <time>2022-12-29T17:22:27.050Z</time>
      </trkpt>
      <trkpt lat="44.09731" lon="0.88984">
        <ele>101.690604</ele>
        <time>2022-12-29T17:22:31.055Z</time>
      </trkpt>
      <trkpt lat="44.09721" lon="0.88979">
        <ele>101.690604</ele>
        <time>2022-12-29T17:22:36.054Z</time>
      </trkpt>
      <trkpt lat="44.09711" lon="0.88977">
        <ele>101.690604</ele>
        <time>2022-12-29T17:22:40.056Z</time>
      </trkpt>
      <trkpt lat="44.097" lon="0.88975">
        <ele>101.690604</ele>
        <time>2022-12-29T17:22:44.056Z</time>
      </trkpt>
      <trkpt lat="44.0969" lon="0.88972">
        <ele>101.690604</ele>
        <time>2022-12-29T17:22:48.055Z</time>
      </trkpt>
      <trkpt lat="44.0968" lon="0.88969">
        <ele>101.690604</ele>
        <time>2022-12-29T17:22:53.056Z</time>
      </trkpt>
      <trkpt lat="44.09671" lon="0.88964">
        <ele>101.690604</ele>
        <time>2022-12-29T17:22:58.054Z</time>
      </trkpt>
      <trkpt lat="44.09666" lon="0.88963">
        <ele>101.690604</ele>
        <time>2022-12-29T17:23:49.397Z</time>
        <extensions>
          <visugpx:TrkExtension xmlns:visugpx="https://www.visugpx.com/editgpx/">
            <visugpx:node>1</visugpx:node>
            </visugpx:TrkExtension>
        </extensions>
      </trkpt>
    </trkseg>
  </trk>
</gpx>